<?xml version='1.0' encoding='UTF-8'?><gpx version="1.1" creator="JPX - https://github.com/jenetics/jpx" xmlns="http://www.topografix.com/GPX/1/1"><trk><trkseg><trkpt lat="40.7244733" lon="9.6413786"><ele>79.0</ele><time>2026-04-13T07:40:35.8Z</time></trkpt><trkpt lat="40.7245009" lon="9.6414541"><ele>79.0</ele><time>2026-04-13T07:41:04.778Z</time></trkpt><trkpt lat="40.7245192" lon="9.6415565"><ele>79.0</ele><time>2026-04-13T07:41:06.777Z</time></trkpt><trkpt lat="40.7245078" lon="9.6417046"><ele>79.0</ele><time>2026-04-13T07:41:08.776Z</time></trkpt><trkpt lat="40.7244935" lon="9.6418129"><ele>79.0</ele><time>2026-04-13T07:41:10.796Z</time></trkpt><trkpt lat="40.7244663" lon="9.6419256"><ele>79.0</ele><time>2026-04-13T07:41:13.767Z</time></trkpt><trkpt lat="40.724382" lon="9.6419755"><ele>78.5</ele><time>2026-04-13T07:41:16.783Z</time></trkpt><trkpt lat="40.7242739" lon="9.6419553"><ele>78.0</ele><time>2026-04-13T07:41:18.762Z</time></trkpt><trkpt lat="40.724207" lon="9.6419341"><ele>77.5</ele><time>2026-04-13T07:41:19.783Z</time></trkpt><trkpt lat="40.7241403" lon="9.641898"><ele>77.0</ele><time>2026-04-13T07:41:20.768Z</time></trkpt><trkpt lat="40.7240646" lon="9.6418423"><ele>76.5</ele><time>2026-04-13T07:41:21.771Z</time></trkpt><trkpt lat="40.7239886" lon="9.6417714"><ele>76.0</ele><time>2026-04-13T07:41:22.768Z</time></trkpt><trkpt lat="40.7239095" lon="9.6416869"><ele>76.0</ele><time>2026-04-13T07:41:23.778Z</time></trkpt><trkpt lat="40.7238291" lon="9.6415906"><ele>76.0</ele><time>2026-04-13T07:41:24.768Z</time></trkpt><trkpt lat="40.7237479" lon="9.6414732"><ele>76.0</ele><time>2026-04-13T07:41:25.761Z</time></trkpt><trkpt lat="40.7236719" lon="9.6413529"><ele>76.0</ele><time>2026-04-13T07:41:26.756Z</time></trkpt><trkpt lat="40.723607" lon="9.6412286"><ele>76.75</ele><time>2026-04-13T07:41:27.758Z</time></trkpt><trkpt lat="40.7235435" lon="9.6410983"><ele>77.5</ele><time>2026-04-13T07:41:28.772Z</time></trkpt><trkpt lat="40.7234866" lon="9.6409656"><ele>78.25</ele><time>2026-04-13T07:41:29.744Z</time></trkpt><trkpt lat="40.7234477" lon="9.6408307"><ele>79.0</ele><time>2026-04-13T07:41:30.756Z</time></trkpt><trkpt lat="40.7234124" lon="9.6406913"><ele>79.0</ele><time>2026-04-13T07:41:31.75Z</time></trkpt><trkpt lat="40.7233798" lon="9.6405422"><ele>79.0</ele><time>2026-04-13T07:41:32.762Z</time></trkpt><trkpt lat="40.7233477" lon="9.6403897"><ele>79.0</ele><time>2026-04-13T07:41:33.753Z</time></trkpt><trkpt lat="40.7233161" lon="9.6402345"><ele>79.0</ele><time>2026-04-13T07:41:34.788Z</time></trkpt><trkpt lat="40.7232827" lon="9.6400777"><ele>79.75</ele><time>2026-04-13T07:41:35.752Z</time></trkpt><trkpt lat="40.7232489" lon="9.6399284"><ele>80.5</ele><time>2026-04-13T07:41:36.773Z</time></trkpt><trkpt lat="40.723221" lon="9.6397797"><ele>81.25</ele><time>2026-04-13T07:41:37.744Z</time></trkpt><trkpt lat="40.7231967" lon="9.6396389"><ele>82.0</ele><time>2026-04-13T07:41:38.744Z</time></trkpt><trkpt lat="40.7231826" lon="9.6394987"><ele>82.8</ele><time>2026-04-13T07:41:39.749Z</time></trkpt><trkpt lat="40.7231826" lon="9.6393575"><ele>83.6</ele><time>2026-04-13T07:41:40.764Z</time></trkpt><trkpt lat="40.7231929" lon="9.6392172"><ele>84.39999999999999</ele><time>2026-04-13T07:41:41.736Z</time></trkpt><trkpt lat="40.7232145" lon="9.6390924"><ele>85.19999999999999</ele><time>2026-04-13T07:41:42.77Z</time></trkpt><trkpt lat="40.7232489" lon="9.638994"><ele>86.0</ele><time>2026-04-13T07:41:43.753Z</time></trkpt><trkpt lat="40.7232952" lon="9.6389151"><ele>86.0</ele><time>2026-04-13T07:41:44.761Z</time></trkpt><trkpt lat="40.7233597" lon="9.6388467"><ele>86.0</ele><time>2026-04-13T07:41:45.748Z</time></trkpt><trkpt lat="40.7234383" lon="9.6387767"><ele>86.0</ele><time>2026-04-13T07:41:46.751Z</time></trkpt><trkpt lat="40.7235157" lon="9.6387025"><ele>86.0</ele><time>2026-04-13T07:41:47.762Z</time></trkpt><trkpt lat="40.7235919" lon="9.6386161"><ele>86.0</ele><time>2026-04-13T07:41:48.757Z</time></trkpt><trkpt lat="40.7236645" lon="9.6385134"><ele>88.19999999999999</ele><time>2026-04-13T07:41:49.737Z</time></trkpt><trkpt lat="40.7237385" lon="9.63841"><ele>90.39999999999999</ele><time>2026-04-13T07:41:50.749Z</time></trkpt><trkpt lat="40.72381" lon="9.6383081"><ele>92.6</ele><time>2026-04-13T07:41:51.743Z</time></trkpt><trkpt lat="40.7238734" lon="9.6382057"><ele>94.8</ele><time>2026-04-13T07:41:52.773Z</time></trkpt><trkpt lat="40.7239189" lon="9.6381008"><ele>97.0</ele><time>2026-04-13T07:41:53.739Z</time></trkpt><trkpt lat="40.7239513" lon="9.6379816"><ele>97.0</ele><time>2026-04-13T07:41:54.741Z</time></trkpt><trkpt lat="40.7239664" lon="9.6378642"><ele>97.0</ele><time>2026-04-13T07:41:55.759Z</time></trkpt><trkpt lat="40.7239694" lon="9.6377373"><ele>97.0</ele><time>2026-04-13T07:41:56.753Z</time></trkpt><trkpt lat="40.723967" lon="9.637616"><ele>97.0</ele><time>2026-04-13T07:41:57.765Z</time></trkpt><trkpt lat="40.7239498" lon="9.6375019"><ele>97.0</ele><time>2026-04-13T07:41:58.729Z</time></trkpt><trkpt lat="40.72391" lon="9.6373928"><ele>98.6</ele><time>2026-04-13T07:41:59.734Z</time></trkpt><trkpt lat="40.7238615" lon="9.637286"><ele>100.19999999999999</ele><time>2026-04-13T07:42:00.734Z</time></trkpt><trkpt lat="40.7238084" lon="9.6371711"><ele>101.8</ele><time>2026-04-13T07:42:01.728Z</time></trkpt><trkpt lat="40.723756" lon="9.63705"><ele>103.4</ele><time>2026-04-13T07:42:02.717Z</time></trkpt><trkpt lat="40.7237146" lon="9.6369289"><ele>105.0</ele><time>2026-04-13T07:42:03.732Z</time></trkpt><trkpt lat="40.7236832" lon="9.6368113"><ele>107.8</ele><time>2026-04-13T07:42:04.722Z</time></trkpt><trkpt lat="40.7236608" lon="9.6366883"><ele>110.6</ele><time>2026-04-13T07:42:05.727Z</time></trkpt><trkpt lat="40.7236432" lon="9.6365597"><ele>113.4</ele><time>2026-04-13T07:42:06.724Z</time></trkpt><trkpt lat="40.7236328" lon="9.6364317"><ele>116.2</ele><time>2026-04-13T07:42:07.723Z</time></trkpt><trkpt lat="40.7236194" lon="9.6363148"><ele>119.0</ele><time>2026-04-13T07:42:08.72Z</time></trkpt><trkpt lat="40.7235805" lon="9.6362112"><ele>118.6</ele><time>2026-04-13T07:42:09.723Z</time></trkpt><trkpt lat="40.7235194" lon="9.6361256"><ele>118.2</ele><time>2026-04-13T07:42:10.719Z</time></trkpt><trkpt lat="40.72345" lon="9.6360374"><ele>117.79999999999998</ele><time>2026-04-13T07:42:11.73Z</time></trkpt><trkpt lat="40.7233828" lon="9.6359499"><ele>117.39999999999999</ele><time>2026-04-13T07:42:12.728Z</time></trkpt><trkpt lat="40.7233126" lon="9.6358612"><ele>117.0</ele><time>2026-04-13T07:42:13.712Z</time></trkpt><trkpt lat="40.7232463" lon="9.6357724"><ele>117.0</ele><time>2026-04-13T07:42:14.712Z</time></trkpt><trkpt lat="40.7231898" lon="9.6356848"><ele>116.99999999999999</ele><time>2026-04-13T07:42:15.814Z</time></trkpt><trkpt lat="40.7231362" lon="9.6356085"><ele>116.99999999999999</ele><time>2026-04-13T07:42:16.809Z</time></trkpt><trkpt lat="40.7230827" lon="9.6355561"><ele>117.0</ele><time>2026-04-13T07:42:17.709Z</time></trkpt><trkpt lat="40.7229771" lon="9.6354811"><ele>117.0</ele><time>2026-04-13T07:42:19.816Z</time></trkpt><trkpt lat="40.7228987" lon="9.6354022"><ele>119.0</ele><time>2026-04-13T07:42:21.822Z</time></trkpt><trkpt lat="40.7228656" lon="9.6352907"><ele>121.0</ele><time>2026-04-13T07:42:23.82Z</time></trkpt><trkpt lat="40.7228549" lon="9.635201"><ele>123.0</ele><time>2026-04-13T07:42:24.798Z</time></trkpt><trkpt lat="40.7228407" lon="9.6350954"><ele>125.0</ele><time>2026-04-13T07:42:25.81Z</time></trkpt><trkpt lat="40.7228251" lon="9.634995"><ele>127.0</ele><time>2026-04-13T07:42:26.801Z</time></trkpt><trkpt lat="40.7228073" lon="9.6348932"><ele>129.0</ele><time>2026-04-13T07:42:27.819Z</time></trkpt><trkpt lat="40.7227895" lon="9.6347882"><ele>128.99999999999997</ele><time>2026-04-13T07:42:28.808Z</time></trkpt><trkpt lat="40.7227756" lon="9.6346791"><ele>129.0</ele><time>2026-04-13T07:42:29.807Z</time></trkpt><trkpt lat="40.7227592" lon="9.6345838"><ele>129.0</ele><time>2026-04-13T07:42:30.8Z</time></trkpt><trkpt lat="40.722743" lon="9.6344978"><ele>129.0</ele><time>2026-04-13T07:42:31.805Z</time></trkpt><trkpt lat="40.7227219" lon="9.6344165"><ele>129.0</ele><time>2026-04-13T07:42:32.79Z</time></trkpt><trkpt lat="40.722696" lon="9.6343395"><ele>128.99999999999997</ele><time>2026-04-13T07:42:33.8Z</time></trkpt><trkpt lat="40.7226647" lon="9.6342608"><ele>129.0</ele><time>2026-04-13T07:42:34.792Z</time></trkpt><trkpt lat="40.7226278" lon="9.6341745"><ele>124.83333333333333</ele><time>2026-04-13T07:42:35.801Z</time></trkpt><trkpt lat="40.7225811" lon="9.6340855"><ele>120.66666666666666</ele><time>2026-04-13T07:42:36.788Z</time></trkpt><trkpt lat="40.7225312" lon="9.634002"><ele>116.5</ele><time>2026-04-13T07:42:37.804Z</time></trkpt><trkpt lat="40.7224893" lon="9.6339215"><ele>112.33333333333333</ele><time>2026-04-13T07:42:38.79Z</time></trkpt><trkpt lat="40.7224429" lon="9.6338482"><ele>108.16666666666666</ele><time>2026-04-13T07:42:39.794Z</time></trkpt><trkpt lat="40.7223964" lon="9.6337699"><ele>104.0</ele><time>2026-04-13T07:42:40.779Z</time></trkpt><trkpt lat="40.7223419" lon="9.6336879"><ele>105.42857142857142</ele><time>2026-04-13T07:42:41.795Z</time></trkpt><trkpt lat="40.7222935" lon="9.6336071"><ele>106.85714285714286</ele><time>2026-04-13T07:42:42.789Z</time></trkpt><trkpt lat="40.7222528" lon="9.6335316"><ele>108.28571428571428</ele><time>2026-04-13T07:42:43.79Z</time></trkpt><trkpt lat="40.7222077" lon="9.6334565"><ele>109.71428571428571</ele><time>2026-04-13T07:42:44.789Z</time></trkpt><trkpt lat="40.72216" lon="9.6333816"><ele>111.14285714285714</ele><time>2026-04-13T07:42:45.796Z</time></trkpt><trkpt lat="40.7221117" lon="9.6333046"><ele>112.57142857142857</ele><time>2026-04-13T07:42:46.802Z</time></trkpt><trkpt lat="40.7220642" lon="9.6332236"><ele>114.0</ele><time>2026-04-13T07:42:47.793Z</time></trkpt><trkpt lat="40.7220175" lon="9.6331442"><ele>114.0</ele><time>2026-04-13T07:42:48.795Z</time></trkpt><trkpt lat="40.7219786" lon="9.633062"><ele>113.99999999999999</ele><time>2026-04-13T07:42:49.795Z</time></trkpt><trkpt lat="40.7219312" lon="9.6329953"><ele>114.0</ele><time>2026-04-13T07:42:50.784Z</time></trkpt><trkpt lat="40.721885" lon="9.6329294"><ele>114.0</ele><time>2026-04-13T07:42:51.792Z</time></trkpt><trkpt lat="40.7218321" lon="9.6328749"><ele>113.99999999999999</ele><time>2026-04-13T07:42:52.779Z</time></trkpt><trkpt lat="40.7217838" lon="9.6328084"><ele>114.0</ele><time>2026-04-13T07:42:53.787Z</time></trkpt><trkpt lat="40.7217326" lon="9.6327355"><ele>114.0</ele><time>2026-04-13T07:42:54.78Z</time></trkpt><trkpt lat="40.7216878" lon="9.6326592"><ele>112.5</ele><time>2026-04-13T07:42:55.785Z</time></trkpt><trkpt lat="40.72165" lon="9.6325803"><ele>111.0</ele><time>2026-04-13T07:42:56.781Z</time></trkpt><trkpt lat="40.7216149" lon="9.6324968"><ele>109.5</ele><time>2026-04-13T07:42:57.789Z</time></trkpt><trkpt lat="40.7215783" lon="9.632409"><ele>108.0</ele><time>2026-04-13T07:42:58.788Z</time></trkpt><trkpt lat="40.7215491" lon="9.6323237"><ele>106.5</ele><time>2026-04-13T07:42:59.804Z</time></trkpt><trkpt lat="40.7215181" lon="9.6322429"><ele>105.0</ele><time>2026-04-13T07:43:00.781Z</time></trkpt><trkpt lat="40.7214924" lon="9.6320917"><ele>105.0</ele><time>2026-04-13T07:43:02.782Z</time></trkpt><trkpt lat="40.7214978" lon="9.6319416"><ele>105.0</ele><time>2026-04-13T07:43:04.791Z</time></trkpt><trkpt lat="40.7215239" lon="9.6318048"><ele>105.0</ele><time>2026-04-13T07:43:06.778Z</time></trkpt><trkpt lat="40.7215566" lon="9.6317049"><ele>105.0</ele><time>2026-04-13T07:43:08.773Z</time></trkpt><trkpt lat="40.721578" lon="9.6316141"><ele>105.0</ele><time>2026-04-13T07:43:10.764Z</time></trkpt><trkpt lat="40.7216199" lon="9.6315341"><ele>105.0</ele><time>2026-04-13T07:43:12.764Z</time></trkpt><trkpt lat="40.7216719" lon="9.631463"><ele>105.0</ele><time>2026-04-13T07:43:14.773Z</time></trkpt><trkpt lat="40.7217211" lon="9.6313786"><ele>105.0</ele><time>2026-04-13T07:43:16.768Z</time></trkpt><trkpt lat="40.7217741" lon="9.6312993"><ele>105.0</ele><time>2026-04-13T07:43:18.766Z</time></trkpt><trkpt lat="40.7218394" lon="9.6312355"><ele>105.0</ele><time>2026-04-13T07:43:20.775Z</time></trkpt><trkpt lat="40.7219401" lon="9.6312049"><ele>105.0</ele><time>2026-04-13T07:43:22.77Z</time></trkpt><trkpt lat="40.72205" lon="9.6311706"><ele>105.8</ele><time>2026-04-13T07:43:24.753Z</time></trkpt><trkpt lat="40.7221552" lon="9.6311144"><ele>106.6</ele><time>2026-04-13T07:43:26.758Z</time></trkpt><trkpt lat="40.7222181" lon="9.6310823"><ele>107.4</ele><time>2026-04-13T07:43:28.75Z</time></trkpt><trkpt lat="40.7223277" lon="9.6310542"><ele>108.2</ele><time>2026-04-13T07:43:30.761Z</time></trkpt><trkpt lat="40.722396" lon="9.631046"><ele>109.0</ele><time>2026-04-13T07:43:31.756Z</time></trkpt><trkpt lat="40.7225092" lon="9.6310077"><ele>109.00000000000001</ele><time>2026-04-13T07:43:33.746Z</time></trkpt><trkpt lat="40.7226042" lon="9.6309475"><ele>109.0</ele><time>2026-04-13T07:43:35.74Z</time></trkpt><trkpt lat="40.7226828" lon="9.6309"><ele>109.0</ele><time>2026-04-13T07:43:37.739Z</time></trkpt><trkpt lat="40.7227619" lon="9.6308797"><ele>109.0</ele><time>2026-04-13T07:43:39.762Z</time></trkpt><trkpt lat="40.722847" lon="9.6308564"><ele>109.00000000000001</ele><time>2026-04-13T07:43:41.741Z</time></trkpt><trkpt lat="40.7229213" lon="9.6307951"><ele>109.0</ele><time>2026-04-13T07:43:43.747Z</time></trkpt><trkpt lat="40.7229773" lon="9.6307279"><ele>109.4</ele><time>2026-04-13T07:43:45.745Z</time></trkpt><trkpt lat="40.7230126" lon="9.6306145"><ele>109.80000000000001</ele><time>2026-04-13T07:43:47.732Z</time></trkpt><trkpt lat="40.7230412" lon="9.6304755"><ele>110.19999999999999</ele><time>2026-04-13T07:43:49.732Z</time></trkpt><trkpt lat="40.7230538" lon="9.6303924"><ele>110.6</ele><time>2026-04-13T07:43:50.751Z</time></trkpt><trkpt lat="40.723072" lon="9.630229"><ele>111.0</ele><time>2026-04-13T07:43:52.746Z</time></trkpt><trkpt lat="40.7230772" lon="9.6301437"><ele>111.0</ele><time>2026-04-13T07:43:53.731Z</time></trkpt><trkpt lat="40.7230762" lon="9.6299878"><ele>111.0</ele><time>2026-04-13T07:43:55.726Z</time></trkpt><trkpt lat="40.72307" lon="9.6298548"><ele>111.0</ele><time>2026-04-13T07:43:57.72Z</time></trkpt><trkpt lat="40.7230644" lon="9.6297312"><ele>111.0</ele><time>2026-04-13T07:43:59.717Z</time></trkpt><trkpt lat="40.7230688" lon="9.6296188"><ele>111.0</ele><time>2026-04-13T07:44:01.718Z</time></trkpt><trkpt lat="40.7230657" lon="9.6295023"><ele>111.0</ele><time>2026-04-13T07:44:03.712Z</time></trkpt><trkpt lat="40.7230591" lon="9.6293858"><ele>111.0</ele><time>2026-04-13T07:44:05.711Z</time></trkpt><trkpt lat="40.7230526" lon="9.6292415"><ele>111.0</ele><time>2026-04-13T07:44:07.707Z</time></trkpt><trkpt lat="40.7230397" lon="9.6291243"><ele>111.0</ele><time>2026-04-13T07:44:09.809Z</time></trkpt><trkpt lat="40.7230323" lon="9.6290329"><ele>111.0</ele><time>2026-04-13T07:44:11.804Z</time></trkpt><trkpt lat="40.7230419" lon="9.6289138"><ele>111.0</ele><time>2026-04-13T07:44:13.808Z</time></trkpt><trkpt lat="40.7230415" lon="9.6287915"><ele>111.0</ele><time>2026-04-13T07:44:15.807Z</time></trkpt><trkpt lat="40.7230365" lon="9.6286614"><ele>111.0</ele><time>2026-04-13T07:44:17.825Z</time></trkpt><trkpt lat="40.7230069" lon="9.6285466"><ele>111.0</ele><time>2026-04-13T07:44:19.81Z</time></trkpt><trkpt lat="40.7229673" lon="9.6284326"><ele>111.0</ele><time>2026-04-13T07:44:21.8Z</time></trkpt><trkpt lat="40.7229376" lon="9.6282925"><ele>111.0</ele><time>2026-04-13T07:44:23.799Z</time></trkpt><trkpt lat="40.7229322" lon="9.6282081"><ele>111.75</ele><time>2026-04-13T07:44:24.789Z</time></trkpt><trkpt lat="40.7229246" lon="9.6280483"><ele>112.5</ele><time>2026-04-13T07:44:26.82Z</time></trkpt><trkpt lat="40.7229027" lon="9.627904"><ele>113.25</ele><time>2026-04-13T07:44:28.8Z</time></trkpt><trkpt lat="40.7228814" lon="9.627759"><ele>114.0</ele><time>2026-04-13T07:44:30.802Z</time></trkpt><trkpt lat="40.7228538" lon="9.6276096"><ele>115.6</ele><time>2026-04-13T07:44:32.795Z</time></trkpt><trkpt lat="40.7228333" lon="9.6274553"><ele>117.2</ele><time>2026-04-13T07:44:34.801Z</time></trkpt><trkpt lat="40.7228291" lon="9.6273179"><ele>118.79999999999998</ele><time>2026-04-13T07:44:36.79Z</time></trkpt><trkpt lat="40.7228477" lon="9.6271985"><ele>120.39999999999999</ele><time>2026-04-13T07:44:38.785Z</time></trkpt><trkpt lat="40.7229084" lon="9.6270702"><ele>122.0</ele><time>2026-04-13T07:44:40.82Z</time></trkpt><trkpt lat="40.7229492" lon="9.6269979"><ele>120.8</ele><time>2026-04-13T07:44:41.782Z</time></trkpt><trkpt lat="40.7229999" lon="9.6269388"><ele>119.6</ele><time>2026-04-13T07:44:42.784Z</time></trkpt><trkpt lat="40.7230907" lon="9.6268377"><ele>118.39999999999999</ele><time>2026-04-13T07:44:44.786Z</time></trkpt><trkpt lat="40.7231994" lon="9.6267509"><ele>117.19999999999999</ele><time>2026-04-13T07:44:46.787Z</time></trkpt><trkpt lat="40.723264" lon="9.6267031"><ele>116.0</ele><time>2026-04-13T07:44:47.782Z</time></trkpt><trkpt lat="40.7233245" lon="9.6266568"><ele>116.0</ele><time>2026-04-13T07:44:48.776Z</time></trkpt><trkpt lat="40.7234299" lon="9.6265641"><ele>116.0</ele><time>2026-04-13T07:44:50.787Z</time></trkpt><trkpt lat="40.7234809" lon="9.6264998"><ele>116.0</ele><time>2026-04-13T07:44:51.776Z</time></trkpt><trkpt lat="40.7235313" lon="9.6264413"><ele>116.0</ele><time>2026-04-13T07:44:52.778Z</time></trkpt><trkpt lat="40.7236276" lon="9.6263372"><ele>116.0</ele><time>2026-04-13T07:44:54.775Z</time></trkpt><trkpt lat="40.7236797" lon="9.6262765"><ele>118.5</ele><time>2026-04-13T07:44:55.779Z</time></trkpt><trkpt lat="40.7237213" lon="9.6262123"><ele>121.0</ele><time>2026-04-13T07:44:56.788Z</time></trkpt><trkpt lat="40.7237539" lon="9.6261398"><ele>123.5</ele><time>2026-04-13T07:44:57.775Z</time></trkpt><trkpt lat="40.7237745" lon="9.6260601"><ele>126.0</ele><time>2026-04-13T07:44:58.774Z</time></trkpt><trkpt lat="40.7237816" lon="9.625977"><ele>128.5</ele><time>2026-04-13T07:44:59.775Z</time></trkpt><trkpt lat="40.7237794" lon="9.6258918"><ele>131.0</ele><time>2026-04-13T07:45:00.766Z</time></trkpt><trkpt lat="40.7237725" lon="9.6258063"><ele>133.5</ele><time>2026-04-13T07:45:01.776Z</time></trkpt><trkpt lat="40.7237584" lon="9.625724"><ele>136.0</ele><time>2026-04-13T07:45:02.769Z</time></trkpt><trkpt lat="40.7237467" lon="9.6256397"><ele>136.2</ele><time>2026-04-13T07:45:03.798Z</time></trkpt><trkpt lat="40.7237292" lon="9.625558"><ele>136.39999999999998</ele><time>2026-04-13T07:45:04.765Z</time></trkpt><trkpt lat="40.7236972" lon="9.625419"><ele>136.6</ele><time>2026-04-13T07:45:06.766Z</time></trkpt><trkpt lat="40.7236859" lon="9.6252772"><ele>136.79999999999998</ele><time>2026-04-13T07:45:08.752Z</time></trkpt><trkpt lat="40.7236793" lon="9.6251237"><ele>137.0</ele><time>2026-04-13T07:45:10.766Z</time></trkpt><trkpt lat="40.7236543" lon="9.6249913"><ele>137.79999999999998</ele><time>2026-04-13T07:45:12.756Z</time></trkpt><trkpt lat="40.723612" lon="9.624862"><ele>138.6</ele><time>2026-04-13T07:45:14.761Z</time></trkpt><trkpt lat="40.7235901" lon="9.6247812"><ele>139.39999999999998</ele><time>2026-04-13T07:45:15.754Z</time></trkpt><trkpt lat="40.7235667" lon="9.6246144"><ele>140.2</ele><time>2026-04-13T07:45:17.766Z</time></trkpt><trkpt lat="40.7235609" lon="9.6245266"><ele>141.0</ele><time>2026-04-13T07:45:18.755Z</time></trkpt><trkpt lat="40.7235543" lon="9.6243728"><ele>140.33333333333334</ele><time>2026-04-13T07:45:20.75Z</time></trkpt><trkpt lat="40.7235701" lon="9.6242626"><ele>139.66666666666666</ele><time>2026-04-13T07:45:22.771Z</time></trkpt><trkpt lat="40.7236205" lon="9.624177"><ele>139.0</ele><time>2026-04-13T07:45:25.748Z</time></trkpt><trkpt lat="40.7237087" lon="9.6241762"><ele>138.33333333333331</ele><time>2026-04-13T07:45:28.746Z</time></trkpt><trkpt lat="40.7237869" lon="9.6241972"><ele>137.66666666666666</ele><time>2026-04-13T07:45:30.732Z</time></trkpt><trkpt lat="40.7238755" lon="9.6242054"><ele>137.0</ele><time>2026-04-13T07:45:32.736Z</time></trkpt><trkpt lat="40.7239581" lon="9.6241943"><ele>137.0</ele><time>2026-04-13T07:45:34.724Z</time></trkpt><trkpt lat="40.7240412" lon="9.6241725"><ele>137.0</ele><time>2026-04-13T07:45:36.721Z</time></trkpt><trkpt lat="40.724128" lon="9.6241615"><ele>137.0</ele><time>2026-04-13T07:45:38.724Z</time></trkpt><trkpt lat="40.7242167" lon="9.624172"><ele>137.0</ele><time>2026-04-13T07:45:40.726Z</time></trkpt><trkpt lat="40.7242797" lon="9.6241735"><ele>137.0</ele><time>2026-04-13T07:45:42.73Z</time></trkpt><trkpt lat="40.7243634" lon="9.6241803"><ele>137.0</ele><time>2026-04-13T07:45:44.719Z</time></trkpt><trkpt lat="40.7244555" lon="9.6241901"><ele>141.5</ele><time>2026-04-13T07:45:46.712Z</time></trkpt><trkpt lat="40.7245452" lon="9.62417"><ele>146.0</ele><time>2026-04-13T07:45:48.723Z</time></trkpt><trkpt lat="40.7246155" lon="9.6241028"><ele>150.5</ele><time>2026-04-13T07:45:50.716Z</time></trkpt><trkpt lat="40.7246697" lon="9.6240338"><ele>155.0</ele><time>2026-04-13T07:45:52.812Z</time></trkpt><trkpt lat="40.7247118" lon="9.6239473"><ele>159.5</ele><time>2026-04-13T07:45:55.809Z</time></trkpt><trkpt lat="40.7247674" lon="9.6238874"><ele>164.0</ele><time>2026-04-13T07:45:58.805Z</time></trkpt><trkpt lat="40.724811" lon="9.6237837"><ele>164.0</ele><time>2026-04-13T07:46:00.802Z</time></trkpt><trkpt lat="40.7248434" lon="9.6236707"><ele>164.0</ele><time>2026-04-13T07:46:02.805Z</time></trkpt><trkpt lat="40.7248747" lon="9.6235888"><ele>164.0</ele><time>2026-04-13T07:46:04.808Z</time></trkpt><trkpt lat="40.7249479" lon="9.623531"><ele>164.0</ele><time>2026-04-13T07:46:06.803Z</time></trkpt><trkpt lat="40.7250771" lon="9.6234962"><ele>164.0</ele><time>2026-04-13T07:46:08.788Z</time></trkpt><trkpt lat="40.7251889" lon="9.6234789"><ele>166.5</ele><time>2026-04-13T07:46:10.788Z</time></trkpt><trkpt lat="40.7252848" lon="9.623532"><ele>169.0</ele><time>2026-04-13T07:46:12.792Z</time></trkpt><trkpt lat="40.7253748" lon="9.6235745"><ele>171.5</ele><time>2026-04-13T07:46:14.79Z</time></trkpt><trkpt lat="40.7254667" lon="9.6235966"><ele>174.0</ele><time>2026-04-13T07:46:16.788Z</time></trkpt><trkpt lat="40.7255235" lon="9.6236352"><ele>176.5</ele><time>2026-04-13T07:46:19.792Z</time></trkpt><trkpt lat="40.725526" lon="9.6237278"><ele>179.0</ele><time>2026-04-13T07:46:22.782Z</time></trkpt><trkpt lat="40.7254714" lon="9.6237874"><ele>179.79999999999998</ele><time>2026-04-13T07:46:39.765Z</time></trkpt><trkpt lat="40.7253939" lon="9.6238301"><ele>180.6</ele><time>2026-04-13T07:46:49.746Z</time></trkpt><trkpt lat="40.7253139" lon="9.6238732"><ele>181.4</ele><time>2026-04-13T07:46:51.755Z</time></trkpt><trkpt lat="40.7252156" lon="9.6239188"><ele>182.2</ele><time>2026-04-13T07:46:53.74Z</time></trkpt><trkpt lat="40.7251101" lon="9.6239891"><ele>183.0</ele><time>2026-04-13T07:46:55.739Z</time></trkpt><trkpt lat="40.7250474" lon="9.6240805"><ele>180.8</ele><time>2026-04-13T07:46:57.734Z</time></trkpt><trkpt lat="40.725013" lon="9.6242011"><ele>178.60000000000002</ele><time>2026-04-13T07:46:59.739Z</time></trkpt><trkpt lat="40.7249999" lon="9.6243343"><ele>176.39999999999998</ele><time>2026-04-13T07:47:01.736Z</time></trkpt><trkpt lat="40.724984" lon="9.6244782"><ele>174.2</ele><time>2026-04-13T07:47:03.745Z</time></trkpt><trkpt lat="40.7249865" lon="9.6246316"><ele>172.0</ele><time>2026-04-13T07:47:05.737Z</time></trkpt><trkpt lat="40.7249909" lon="9.6247713"><ele>172.0</ele><time>2026-04-13T07:47:07.729Z</time></trkpt><trkpt lat="40.7249969" lon="9.6249052"><ele>172.0</ele><time>2026-04-13T07:47:09.729Z</time></trkpt><trkpt lat="40.7250164" lon="9.6250717"><ele>172.0</ele><time>2026-04-13T07:47:11.739Z</time></trkpt><trkpt lat="40.7250317" lon="9.625162"><ele>172.0</ele><time>2026-04-13T07:47:12.724Z</time></trkpt><trkpt lat="40.7250446" lon="9.6252468"><ele>172.0</ele><time>2026-04-13T07:47:13.726Z</time></trkpt><trkpt lat="40.7250668" lon="9.6254105"><ele>171.85714285714286</ele><time>2026-04-13T07:47:15.724Z</time></trkpt><trkpt lat="40.7250779" lon="9.625495"><ele>171.71428571428572</ele><time>2026-04-13T07:47:16.746Z</time></trkpt><trkpt lat="40.7250919" lon="9.6255858"><ele>171.57142857142856</ele><time>2026-04-13T07:47:17.743Z</time></trkpt><trkpt lat="40.7251083" lon="9.6256753"><ele>171.42857142857144</ele><time>2026-04-13T07:47:18.723Z</time></trkpt><trkpt lat="40.7251247" lon="9.6257632"><ele>171.28571428571428</ele><time>2026-04-13T07:47:19.72Z</time></trkpt><trkpt lat="40.7251432" lon="9.62585"><ele>171.14285714285714</ele><time>2026-04-13T07:47:20.734Z</time></trkpt><trkpt lat="40.7251637" lon="9.6259442"><ele>171.0</ele><time>2026-04-13T07:47:21.73Z</time></trkpt><trkpt lat="40.7251861" lon="9.6260418"><ele>170.99999999999997</ele><time>2026-04-13T07:47:22.712Z</time></trkpt><trkpt lat="40.7252106" lon="9.6261351"><ele>171.0</ele><time>2026-04-13T07:47:23.725Z</time></trkpt><trkpt lat="40.7252297" lon="9.6262307"><ele>171.0</ele><time>2026-04-13T07:47:24.719Z</time></trkpt><trkpt lat="40.7252491" lon="9.6263244"><ele>171.0</ele><time>2026-04-13T07:47:25.716Z</time></trkpt><trkpt lat="40.7252762" lon="9.6264147"><ele>171.0</ele><time>2026-04-13T07:47:26.71Z</time></trkpt><trkpt lat="40.7253065" lon="9.626502"><ele>170.99999999999997</ele><time>2026-04-13T07:47:27.74Z</time></trkpt><trkpt lat="40.7253446" lon="9.6265778"><ele>171.0</ele><time>2026-04-13T07:47:28.721Z</time></trkpt><trkpt lat="40.7253847" lon="9.6266438"><ele>172.66666666666666</ele><time>2026-04-13T07:47:29.71Z</time></trkpt><trkpt lat="40.7254728" lon="9.6267446"><ele>174.33333333333334</ele><time>2026-04-13T07:47:31.711Z</time></trkpt><trkpt lat="40.7255258" lon="9.6267897"><ele>176.0</ele><time>2026-04-13T07:47:32.723Z</time></trkpt><trkpt lat="40.725588" lon="9.6268291"><ele>177.66666666666669</ele><time>2026-04-13T07:47:33.712Z</time></trkpt><trkpt lat="40.7256515" lon="9.6268709"><ele>179.33333333333334</ele><time>2026-04-13T07:47:34.716Z</time></trkpt><trkpt lat="40.7257162" lon="9.6269147"><ele>181.0</ele><time>2026-04-13T07:47:35.809Z</time></trkpt><trkpt lat="40.7257755" lon="9.6269601"><ele>179.28571428571428</ele><time>2026-04-13T07:47:36.812Z</time></trkpt><trkpt lat="40.725831" lon="9.6270083"><ele>177.57142857142856</ele><time>2026-04-13T07:47:37.808Z</time></trkpt><trkpt lat="40.7258868" lon="9.6270557"><ele>175.85714285714286</ele><time>2026-04-13T07:47:38.831Z</time></trkpt><trkpt lat="40.7259445" lon="9.6271067"><ele>174.14285714285714</ele><time>2026-04-13T07:47:39.804Z</time></trkpt><trkpt lat="40.7259981" lon="9.6271561"><ele>172.42857142857142</ele><time>2026-04-13T07:47:40.802Z</time></trkpt><trkpt lat="40.7260526" lon="9.6271995"><ele>170.71428571428572</ele><time>2026-04-13T07:47:41.81Z</time></trkpt><trkpt lat="40.7261575" lon="9.6272433"><ele>169.0</ele><time>2026-04-13T07:47:43.801Z</time></trkpt><trkpt lat="40.726258" lon="9.6272883"><ele>169.0</ele><time>2026-04-13T07:47:45.849Z</time></trkpt><trkpt lat="40.7263654" lon="9.6273457"><ele>169.0</ele><time>2026-04-13T07:47:47.798Z</time></trkpt><trkpt lat="40.7264214" lon="9.6273919"><ele>169.0</ele><time>2026-04-13T07:47:48.816Z</time></trkpt><trkpt lat="40.7264748" lon="9.6274436"><ele>169.0</ele><time>2026-04-13T07:47:49.807Z</time></trkpt><trkpt lat="40.7265693" lon="9.6275212"><ele>169.0</ele><time>2026-04-13T07:47:51.811Z</time></trkpt><trkpt lat="40.7266559" lon="9.6275976"><ele>169.0</ele><time>2026-04-13T07:47:53.798Z</time></trkpt><trkpt lat="40.7267436" lon="9.6276785"><ele>169.0</ele><time>2026-04-13T07:47:55.827Z</time></trkpt><trkpt lat="40.7268338" lon="9.6277777"><ele>169.0</ele><time>2026-04-13T07:47:57.797Z</time></trkpt><trkpt lat="40.726919" lon="9.6278825"><ele>169.0</ele><time>2026-04-13T07:47:59.795Z</time></trkpt><trkpt lat="40.726973" lon="9.6279399"><ele>169.0</ele><time>2026-04-13T07:48:00.779Z</time></trkpt><trkpt lat="40.727032" lon="9.6279979"><ele>167.71428571428572</ele><time>2026-04-13T07:48:01.783Z</time></trkpt><trkpt lat="40.7270908" lon="9.6280623"><ele>166.42857142857142</ele><time>2026-04-13T07:48:02.789Z</time></trkpt><trkpt lat="40.7271541" lon="9.6281145"><ele>165.14285714285714</ele><time>2026-04-13T07:48:03.788Z</time></trkpt><trkpt lat="40.7272195" lon="9.6281538"><ele>163.85714285714286</ele><time>2026-04-13T07:48:04.782Z</time></trkpt><trkpt lat="40.7272861" lon="9.628183"><ele>162.57142857142858</ele><time>2026-04-13T07:48:05.793Z</time></trkpt><trkpt lat="40.7273552" lon="9.6281983"><ele>161.28571428571428</ele><time>2026-04-13T07:48:06.784Z</time></trkpt><trkpt lat="40.7274242" lon="9.6282145"><ele>160.0</ele><time>2026-04-13T07:48:07.793Z</time></trkpt><trkpt lat="40.7274915" lon="9.6282327"><ele>160.0</ele><time>2026-04-13T07:48:08.776Z</time></trkpt><trkpt lat="40.7275581" lon="9.6282395"><ele>160.0</ele><time>2026-04-13T07:48:09.771Z</time></trkpt><trkpt lat="40.7276282" lon="9.6282382"><ele>160.0</ele><time>2026-04-13T07:48:10.783Z</time></trkpt><trkpt lat="40.7276945" lon="9.6282269"><ele>160.0</ele><time>2026-04-13T07:48:11.777Z</time></trkpt><trkpt lat="40.7278132" lon="9.6282095"><ele>160.0</ele><time>2026-04-13T07:48:13.778Z</time></trkpt><trkpt lat="40.7279275" lon="9.6281713"><ele>160.0</ele><time>2026-04-13T07:48:15.774Z</time></trkpt><trkpt lat="40.7280426" lon="9.6281084"><ele>160.5</ele><time>2026-04-13T07:48:17.763Z</time></trkpt><trkpt lat="40.7281008" lon="9.6280686"><ele>161.0</ele><time>2026-04-13T07:48:18.772Z</time></trkpt><trkpt lat="40.7281558" lon="9.6280237"><ele>161.5</ele><time>2026-04-13T07:48:19.771Z</time></trkpt><trkpt lat="40.7282496" lon="9.6279311"><ele>162.0</ele><time>2026-04-13T07:48:21.762Z</time></trkpt><trkpt lat="40.7283272" lon="9.6278083"><ele>162.5</ele><time>2026-04-13T07:48:23.758Z</time></trkpt><trkpt lat="40.7283625" lon="9.6277278"><ele>163.0</ele><time>2026-04-13T07:48:24.763Z</time></trkpt><trkpt lat="40.7283925" lon="9.6276472"><ele>163.0</ele><time>2026-04-13T07:48:25.752Z</time></trkpt><trkpt lat="40.7284438" lon="9.6275017"><ele>163.0</ele><time>2026-04-13T07:48:27.757Z</time></trkpt><trkpt lat="40.7284741" lon="9.6274241"><ele>163.0</ele><time>2026-04-13T07:48:28.755Z</time></trkpt><trkpt lat="40.7285085" lon="9.6273464"><ele>163.0</ele><time>2026-04-13T07:48:29.754Z</time></trkpt><trkpt lat="40.7285662" lon="9.6272221"><ele>163.0</ele><time>2026-04-13T07:48:31.74Z</time></trkpt><trkpt lat="40.7286059" lon="9.6271355"><ele>163.0</ele><time>2026-04-13T07:48:33.739Z</time></trkpt><trkpt lat="40.7286604" lon="9.6270546"><ele>162.8</ele><time>2026-04-13T07:48:36.752Z</time></trkpt><trkpt lat="40.728703" lon="9.6269356"><ele>162.60000000000002</ele><time>2026-04-13T07:48:39.738Z</time></trkpt><trkpt lat="40.7287464" lon="9.6268144"><ele>162.39999999999998</ele><time>2026-04-13T07:48:41.75Z</time></trkpt><trkpt lat="40.7287898" lon="9.6266929"><ele>162.2</ele><time>2026-04-13T07:48:43.731Z</time></trkpt><trkpt lat="40.7288405" lon="9.626574"><ele>162.0</ele><time>2026-04-13T07:48:45.729Z</time></trkpt><trkpt lat="40.7289123" lon="9.6264872"><ele>162.0</ele><time>2026-04-13T07:48:47.741Z</time></trkpt><trkpt lat="40.7290066" lon="9.6264492"><ele>162.0</ele><time>2026-04-13T07:48:49.734Z</time></trkpt><trkpt lat="40.7291027" lon="9.6264614"><ele>162.0</ele><time>2026-04-13T07:48:51.727Z</time></trkpt><trkpt lat="40.7291699" lon="9.6265342"><ele>162.0</ele><time>2026-04-13T07:48:53.73Z</time></trkpt><trkpt lat="40.7291984" lon="9.6266371"><ele>162.0</ele><time>2026-04-13T07:48:55.733Z</time></trkpt><trkpt lat="40.7292117" lon="9.6267647"><ele>162.0</ele><time>2026-04-13T07:48:57.719Z</time></trkpt><trkpt lat="40.7292188" lon="9.6268732"><ele>162.0</ele><time>2026-04-13T07:48:59.728Z</time></trkpt><trkpt lat="40.7292368" lon="9.6270608"><ele>162.0</ele><time>2026-04-13T07:49:02.733Z</time></trkpt><trkpt lat="40.7292598" lon="9.6271911"><ele>162.0</ele><time>2026-04-13T07:49:04.722Z</time></trkpt><trkpt lat="40.7292966" lon="9.6273394"><ele>162.0</ele><time>2026-04-13T07:49:06.673Z</time></trkpt><trkpt lat="40.7293084" lon="9.6274698"><ele>162.39999999999998</ele><time>2026-04-13T07:49:08.809Z</time></trkpt><trkpt lat="40.7292899" lon="9.627607"><ele>162.79999999999998</ele><time>2026-04-13T07:49:10.804Z</time></trkpt><trkpt lat="40.7292735" lon="9.6277011"><ele>163.2</ele><time>2026-04-13T07:49:11.803Z</time></trkpt><trkpt lat="40.7292699" lon="9.6278936"><ele>163.6</ele><time>2026-04-13T07:49:13.81Z</time></trkpt><trkpt lat="40.7292607" lon="9.6279822"><ele>164.0</ele><time>2026-04-13T07:49:14.806Z</time></trkpt><trkpt lat="40.7292593" lon="9.628098"><ele>164.2</ele><time>2026-04-13T07:49:16.802Z</time></trkpt><trkpt lat="40.7292641" lon="9.6282007"><ele>164.39999999999998</ele><time>2026-04-13T07:49:18.797Z</time></trkpt><trkpt lat="40.7292717" lon="9.6283184"><ele>164.6</ele><time>2026-04-13T07:49:20.791Z</time></trkpt><trkpt lat="40.7292796" lon="9.6284617"><ele>164.8</ele><time>2026-04-13T07:49:22.793Z</time></trkpt><trkpt lat="40.7292969" lon="9.6286138"><ele>165.0</ele><time>2026-04-13T07:49:24.794Z</time></trkpt><trkpt lat="40.7293385" lon="9.6287321"><ele>168.2</ele><time>2026-04-13T07:49:26.803Z</time></trkpt><trkpt lat="40.7294205" lon="9.6288417"><ele>171.4</ele><time>2026-04-13T07:49:28.798Z</time></trkpt><trkpt lat="40.7295217" lon="9.6289376"><ele>174.60000000000002</ele><time>2026-04-13T07:49:30.799Z</time></trkpt><trkpt lat="40.7295718" lon="9.628988"><ele>177.8</ele><time>2026-04-13T07:49:31.791Z</time></trkpt><trkpt lat="40.7296257" lon="9.6290339"><ele>181.0</ele><time>2026-04-13T07:49:32.786Z</time></trkpt><trkpt lat="40.7297211" lon="9.6291252"><ele>181.0</ele><time>2026-04-13T07:49:34.786Z</time></trkpt><trkpt lat="40.729815" lon="9.6292124"><ele>181.0</ele><time>2026-04-13T07:49:36.785Z</time></trkpt><trkpt lat="40.7299071" lon="9.6292892"><ele>181.0</ele><time>2026-04-13T07:49:38.794Z</time></trkpt><trkpt lat="40.7299927" lon="9.6293589"><ele>181.0</ele><time>2026-04-13T07:49:40.79Z</time></trkpt><trkpt lat="40.7300711" lon="9.6294377"><ele>181.0</ele><time>2026-04-13T07:49:42.782Z</time></trkpt><trkpt lat="40.7301357" lon="9.6295441"><ele>179.66666666666669</ele><time>2026-04-13T07:49:44.781Z</time></trkpt><trkpt lat="40.7301714" lon="9.629618"><ele>178.33333333333334</ele><time>2026-04-13T07:49:45.774Z</time></trkpt><trkpt lat="40.730208" lon="9.6296901"><ele>177.0</ele><time>2026-04-13T07:49:46.793Z</time></trkpt><trkpt lat="40.7302484" lon="9.6297674"><ele>175.66666666666666</ele><time>2026-04-13T07:49:47.787Z</time></trkpt><trkpt lat="40.7302894" lon="9.6298373"><ele>174.33333333333331</ele><time>2026-04-13T07:49:48.781Z</time></trkpt><trkpt lat="40.7303905" lon="9.6299281"><ele>173.0</ele><time>2026-04-13T07:49:50.773Z</time></trkpt><trkpt lat="40.7304539" lon="9.6299569"><ele>176.0</ele><time>2026-04-13T07:49:51.793Z</time></trkpt><trkpt lat="40.7305204" lon="9.6299863"><ele>179.0</ele><time>2026-04-13T07:49:52.779Z</time></trkpt><trkpt lat="40.7305806" lon="9.630028"><ele>182.0</ele><time>2026-04-13T07:49:53.782Z</time></trkpt><trkpt lat="40.7306464" lon="9.6301312"><ele>185.0</ele><time>2026-04-13T07:49:55.782Z</time></trkpt><trkpt lat="40.7306677" lon="9.6302405"><ele>188.0</ele><time>2026-04-13T07:49:57.775Z</time></trkpt><trkpt lat="40.7306921" lon="9.6303609"><ele>191.0</ele><time>2026-04-13T07:49:59.782Z</time></trkpt><trkpt lat="40.7307202" lon="9.6304885"><ele>191.0</ele><time>2026-04-13T07:50:01.764Z</time></trkpt><trkpt lat="40.730745" lon="9.6306104"><ele>191.0</ele><time>2026-04-13T07:50:03.771Z</time></trkpt><trkpt lat="40.7307767" lon="9.6307362"><ele>191.0</ele><time>2026-04-13T07:50:05.792Z</time></trkpt><trkpt lat="40.7308115" lon="9.6308588"><ele>191.0</ele><time>2026-04-13T07:50:07.768Z</time></trkpt><trkpt lat="40.7308678" lon="9.6309997"><ele>191.0</ele><time>2026-04-13T07:50:09.773Z</time></trkpt><trkpt lat="40.7309061" lon="9.631066"><ele>192.0</ele><time>2026-04-13T07:50:10.762Z</time></trkpt><trkpt lat="40.7309763" lon="9.6311859"><ele>193.0</ele><time>2026-04-13T07:50:12.762Z</time></trkpt><trkpt lat="40.7310209" lon="9.6312859"><ele>194.0</ele><time>2026-04-13T07:50:14.768Z</time></trkpt><trkpt lat="40.7310545" lon="9.6313776"><ele>195.0</ele><time>2026-04-13T07:50:16.755Z</time></trkpt><trkpt lat="40.7310996" lon="9.6315035"><ele>196.0</ele><time>2026-04-13T07:50:18.753Z</time></trkpt><trkpt lat="40.7311353" lon="9.6316029"><ele>197.16666666666666</ele><time>2026-04-13T07:50:20.775Z</time></trkpt><trkpt lat="40.7311807" lon="9.6317115"><ele>198.33333333333331</ele><time>2026-04-13T07:50:22.746Z</time></trkpt><trkpt lat="40.7312242" lon="9.6318032"><ele>199.5</ele><time>2026-04-13T07:50:24.768Z</time></trkpt><trkpt lat="40.7312759" lon="9.6318627"><ele>200.66666666666669</ele><time>2026-04-13T07:50:27.748Z</time></trkpt><trkpt lat="40.7313625" lon="9.6319021"><ele>201.83333333333334</ele><time>2026-04-13T07:50:30.745Z</time></trkpt><trkpt lat="40.731431" lon="9.6319241"><ele>203.0</ele><time>2026-04-13T07:50:32.749Z</time></trkpt><trkpt lat="40.7315002" lon="9.6319542"><ele>200.83333333333334</ele><time>2026-04-13T07:50:34.759Z</time></trkpt><trkpt lat="40.7315751" lon="9.6319934"><ele>198.66666666666669</ele><time>2026-04-13T07:50:36.762Z</time></trkpt><trkpt lat="40.7316438" lon="9.6320351"><ele>196.5</ele><time>2026-04-13T07:50:38.743Z</time></trkpt><trkpt lat="40.7317041" lon="9.63207"><ele>194.33333333333334</ele><time>2026-04-13T07:50:40.745Z</time></trkpt><trkpt lat="40.7317869" lon="9.632125"><ele>192.16666666666669</ele><time>2026-04-13T07:50:43.757Z</time></trkpt><trkpt lat="40.731853" lon="9.6321553"><ele>190.0</ele><time>2026-04-13T07:50:45.741Z</time></trkpt><trkpt lat="40.7319329" lon="9.6322038"><ele>189.2</ele><time>2026-04-13T07:50:47.747Z</time></trkpt><trkpt lat="40.7320142" lon="9.6322441"><ele>188.4</ele><time>2026-04-13T07:50:49.742Z</time></trkpt><trkpt lat="40.7320953" lon="9.6322999"><ele>187.60000000000002</ele><time>2026-04-13T07:50:51.736Z</time></trkpt><trkpt lat="40.73217" lon="9.6323767"><ele>186.8</ele><time>2026-04-13T07:50:53.742Z</time></trkpt><trkpt lat="40.7322483" lon="9.6324529"><ele>186.0</ele><time>2026-04-13T07:50:55.738Z</time></trkpt><trkpt lat="40.7323331" lon="9.632547"><ele>186.0</ele><time>2026-04-13T07:50:57.729Z</time></trkpt><trkpt lat="40.7323903" lon="9.6326374"><ele>186.0</ele><time>2026-04-13T07:50:59.745Z</time></trkpt><trkpt lat="40.7324232" lon="9.6327299"><ele>186.0</ele><time>2026-04-13T07:51:01.733Z</time></trkpt><trkpt lat="40.7324213" lon="9.6328376"><ele>186.0</ele><time>2026-04-13T07:51:03.731Z</time></trkpt><trkpt lat="40.7323786" lon="9.6329601"><ele>186.0</ele><time>2026-04-13T07:51:05.73Z</time></trkpt><trkpt lat="40.732336" lon="9.6330707"><ele>186.0</ele><time>2026-04-13T07:51:07.729Z</time></trkpt><trkpt lat="40.7323034" lon="9.6331584"><ele>184.0</ele><time>2026-04-13T07:51:09.737Z</time></trkpt><trkpt lat="40.7322955" lon="9.6332618"><ele>182.0</ele><time>2026-04-13T07:51:11.74Z</time></trkpt><trkpt lat="40.7323135" lon="9.633387"><ele>180.0</ele><time>2026-04-13T07:51:13.724Z</time></trkpt><trkpt lat="40.7323536" lon="9.6335071"><ele>178.0</ele><time>2026-04-13T07:51:15.725Z</time></trkpt><trkpt lat="40.7323964" lon="9.6336025"><ele>176.0</ele><time>2026-04-13T07:51:17.745Z</time></trkpt><trkpt lat="40.7324549" lon="9.6336505"><ele>174.0</ele><time>2026-04-13T07:51:19.722Z</time></trkpt><trkpt lat="40.7325374" lon="9.633672"><ele>172.66666666666666</ele><time>2026-04-13T07:51:21.724Z</time></trkpt><trkpt lat="40.7325857" lon="9.6337323"><ele>171.33333333333334</ele><time>2026-04-13T07:51:23.715Z</time></trkpt><trkpt lat="40.7325988" lon="9.6338293"><ele>170.0</ele><time>2026-04-13T07:51:25.714Z</time></trkpt><trkpt lat="40.7325738" lon="9.6339544"><ele>168.66666666666669</ele><time>2026-04-13T07:51:27.723Z</time></trkpt><trkpt lat="40.7325477" lon="9.6340835"><ele>167.33333333333334</ele><time>2026-04-13T07:51:29.712Z</time></trkpt><trkpt lat="40.7325262" lon="9.6341978"><ele>166.0</ele><time>2026-04-13T07:51:31.718Z</time></trkpt><trkpt lat="40.7324987" lon="9.6343209"><ele>166.0</ele><time>2026-04-13T07:51:33.715Z</time></trkpt><trkpt lat="40.732459" lon="9.6344482"><ele>166.0</ele><time>2026-04-13T07:51:35.716Z</time></trkpt><trkpt lat="40.7324086" lon="9.6345669"><ele>166.0</ele><time>2026-04-13T07:51:37.711Z</time></trkpt><trkpt lat="40.7323633" lon="9.6346904"><ele>166.0</ele><time>2026-04-13T07:51:39.71Z</time></trkpt><trkpt lat="40.7323006" lon="9.6348144"><ele>166.0</ele><time>2026-04-13T07:51:41.721Z</time></trkpt><trkpt lat="40.7322338" lon="9.6349345"><ele>164.75</ele><time>2026-04-13T07:51:43.806Z</time></trkpt><trkpt lat="40.7321772" lon="9.6351057"><ele>163.5</ele><time>2026-04-13T07:51:46.815Z</time></trkpt><trkpt lat="40.7321542" lon="9.6352393"><ele>162.25</ele><time>2026-04-13T07:51:48.816Z</time></trkpt><trkpt lat="40.7321423" lon="9.6353782"><ele>161.0</ele><time>2026-04-13T07:51:50.817Z</time></trkpt><trkpt lat="40.7321492" lon="9.6355321"><ele>160.83333333333331</ele><time>2026-04-13T07:51:52.81Z</time></trkpt><trkpt lat="40.7321679" lon="9.6356138"><ele>160.66666666666666</ele><time>2026-04-13T07:51:53.823Z</time></trkpt><trkpt lat="40.7321908" lon="9.6357006"><ele>160.5</ele><time>2026-04-13T07:51:54.823Z</time></trkpt><trkpt lat="40.7322054" lon="9.6357865"><ele>160.33333333333334</ele><time>2026-04-13T07:51:55.806Z</time></trkpt><trkpt lat="40.7322018" lon="9.6359511"><ele>160.16666666666669</ele><time>2026-04-13T07:51:57.806Z</time></trkpt><trkpt lat="40.7321819" lon="9.6360405"><ele>160.0</ele><time>2026-04-13T07:51:58.818Z</time></trkpt><trkpt lat="40.7321551" lon="9.6361254"><ele>160.33333333333334</ele><time>2026-04-13T07:51:59.807Z</time></trkpt><trkpt lat="40.7321287" lon="9.6362113"><ele>160.66666666666669</ele><time>2026-04-13T07:52:00.814Z</time></trkpt><trkpt lat="40.7321038" lon="9.6362924"><ele>161.0</ele><time>2026-04-13T07:52:01.807Z</time></trkpt><trkpt lat="40.7320406" lon="9.6363988"><ele>161.33333333333334</ele><time>2026-04-13T07:52:03.799Z</time></trkpt><trkpt lat="40.7319653" lon="9.6364397"><ele>161.66666666666666</ele><time>2026-04-13T07:52:05.812Z</time></trkpt><trkpt lat="40.7318738" lon="9.6364773"><ele>162.0</ele><time>2026-04-13T07:52:07.808Z</time></trkpt><trkpt lat="40.7317938" lon="9.6365054"><ele>159.33333333333334</ele><time>2026-04-13T07:52:09.795Z</time></trkpt><trkpt lat="40.7317242" lon="9.63654"><ele>156.66666666666666</ele><time>2026-04-13T07:52:11.797Z</time></trkpt><trkpt lat="40.7316585" lon="9.6365981"><ele>154.0</ele><time>2026-04-13T07:52:13.8Z</time></trkpt><trkpt lat="40.7315988" lon="9.6366835"><ele>151.33333333333331</ele><time>2026-04-13T07:52:15.796Z</time></trkpt><trkpt lat="40.7315542" lon="9.6367913"><ele>148.66666666666666</ele><time>2026-04-13T07:52:17.797Z</time></trkpt><trkpt lat="40.7315184" lon="9.6369278"><ele>146.0</ele><time>2026-04-13T07:52:19.8Z</time></trkpt><trkpt lat="40.7314908" lon="9.637045"><ele>145.66666666666666</ele><time>2026-04-13T07:52:21.82Z</time></trkpt><trkpt lat="40.7314881" lon="9.6371632"><ele>145.33333333333331</ele><time>2026-04-13T07:52:23.804Z</time></trkpt><trkpt lat="40.7315027" lon="9.6372853"><ele>145.0</ele><time>2026-04-13T07:52:25.8Z</time></trkpt><trkpt lat="40.7315083" lon="9.6373938"><ele>144.66666666666666</ele><time>2026-04-13T07:52:27.799Z</time></trkpt><trkpt lat="40.7314843" lon="9.6375047"><ele>144.33333333333334</ele><time>2026-04-13T07:52:29.797Z</time></trkpt><trkpt lat="40.7314324" lon="9.6375865"><ele>144.0</ele><time>2026-04-13T07:52:31.799Z</time></trkpt><trkpt lat="40.7313679" lon="9.6376855"><ele>144.0</ele><time>2026-04-13T07:52:33.792Z</time></trkpt><trkpt lat="40.7313364" lon="9.6377952"><ele>144.0</ele><time>2026-04-13T07:52:35.799Z</time></trkpt><trkpt lat="40.7313165" lon="9.63792"><ele>144.0</ele><time>2026-04-13T07:52:37.788Z</time></trkpt><trkpt lat="40.7313041" lon="9.6380042"><ele>144.0</ele><time>2026-04-13T07:52:38.783Z</time></trkpt><trkpt lat="40.7312927" lon="9.63809"><ele>144.0</ele><time>2026-04-13T07:52:39.802Z</time></trkpt><trkpt lat="40.7312868" lon="9.6381816"><ele>144.0</ele><time>2026-04-13T07:52:40.786Z</time></trkpt><trkpt lat="40.7312808" lon="9.6382706"><ele>144.33333333333334</ele><time>2026-04-13T07:52:41.804Z</time></trkpt><trkpt lat="40.7312727" lon="9.6383681"><ele>144.66666666666666</ele><time>2026-04-13T07:52:42.784Z</time></trkpt><trkpt lat="40.7312651" lon="9.6384691"><ele>145.0</ele><time>2026-04-13T07:52:43.793Z</time></trkpt><trkpt lat="40.73126" lon="9.638562"><ele>145.33333333333331</ele><time>2026-04-13T07:52:44.78Z</time></trkpt><trkpt lat="40.7312418" lon="9.6387231"><ele>145.66666666666666</ele><time>2026-04-13T07:52:46.795Z</time></trkpt><trkpt lat="40.7312194" lon="9.638812"><ele>146.0</ele><time>2026-04-13T07:52:47.795Z</time></trkpt><trkpt lat="40.7311748" lon="9.6389493"><ele>146.0</ele><time>2026-04-13T07:52:49.789Z</time></trkpt><trkpt lat="40.731166" lon="9.6390689"><ele>146.0</ele><time>2026-04-13T07:52:51.792Z</time></trkpt><trkpt lat="40.7311665" lon="9.6391858"><ele>146.0</ele><time>2026-04-13T07:52:53.788Z</time></trkpt><trkpt lat="40.7311602" lon="9.6393405"><ele>146.0</ele><time>2026-04-13T07:52:55.79Z</time></trkpt><trkpt lat="40.7311524" lon="9.6394361"><ele>146.0</ele><time>2026-04-13T07:52:56.794Z</time></trkpt><trkpt lat="40.7311415" lon="9.639535"><ele>146.0</ele><time>2026-04-13T07:52:57.783Z</time></trkpt><trkpt lat="40.7311291" lon="9.6396433"><ele>146.0</ele><time>2026-04-13T07:52:58.789Z</time></trkpt><trkpt lat="40.7311219" lon="9.6397455"><ele>146.0</ele><time>2026-04-13T07:52:59.794Z</time></trkpt><trkpt lat="40.7311263" lon="9.6398543"><ele>146.0</ele><time>2026-04-13T07:53:00.784Z</time></trkpt><trkpt lat="40.731136" lon="9.6399662"><ele>146.0</ele><time>2026-04-13T07:53:01.788Z</time></trkpt><trkpt lat="40.7311429" lon="9.6400867"><ele>146.0</ele><time>2026-04-13T07:53:02.794Z</time></trkpt><trkpt lat="40.7311407" lon="9.6402083"><ele>146.0</ele><time>2026-04-13T07:53:03.782Z</time></trkpt><trkpt lat="40.731134" lon="9.6403155"><ele>146.16666666666666</ele><time>2026-04-13T07:53:04.781Z</time></trkpt><trkpt lat="40.7311275" lon="9.6404184"><ele>146.33333333333331</ele><time>2026-04-13T07:53:05.779Z</time></trkpt><trkpt lat="40.7311158" lon="9.6405201"><ele>146.5</ele><time>2026-04-13T07:53:06.796Z</time></trkpt><trkpt lat="40.7311001" lon="9.6406176"><ele>146.66666666666666</ele><time>2026-04-13T07:53:07.791Z</time></trkpt><trkpt lat="40.7310929" lon="9.6407003"><ele>146.83333333333334</ele><time>2026-04-13T07:53:08.777Z</time></trkpt><trkpt lat="40.7311119" lon="9.6408582"><ele>147.0</ele><time>2026-04-13T07:53:10.784Z</time></trkpt><trkpt lat="40.7311318" lon="9.6409647"><ele>147.0</ele><time>2026-04-13T07:53:11.78Z</time></trkpt><trkpt lat="40.731155" lon="9.6410843"><ele>147.0</ele><time>2026-04-13T07:53:12.789Z</time></trkpt><trkpt lat="40.7311772" lon="9.6411957"><ele>147.0</ele><time>2026-04-13T07:53:13.78Z</time></trkpt><trkpt lat="40.7311952" lon="9.6412794"><ele>147.0</ele><time>2026-04-13T07:53:14.782Z</time></trkpt><trkpt lat="40.7312078" lon="9.6413624"><ele>147.0</ele><time>2026-04-13T07:53:15.793Z</time></trkpt><trkpt lat="40.7312228" lon="9.6414459"><ele>147.0</ele><time>2026-04-13T07:53:16.796Z</time></trkpt><trkpt lat="40.7312495" lon="9.641602"><ele>145.79999999999998</ele><time>2026-04-13T07:53:18.784Z</time></trkpt><trkpt lat="40.7312837" lon="9.6417451"><ele>144.6</ele><time>2026-04-13T07:53:20.778Z</time></trkpt><trkpt lat="40.7313441" lon="9.6418749"><ele>143.39999999999998</ele><time>2026-04-13T07:53:22.778Z</time></trkpt><trkpt lat="40.7314313" lon="9.6420004"><ele>142.2</ele><time>2026-04-13T07:53:24.779Z</time></trkpt><trkpt lat="40.7314935" lon="9.6420549"><ele>141.0</ele><time>2026-04-13T07:53:25.766Z</time></trkpt><trkpt lat="40.7315577" lon="9.6420973"><ele>138.83333333333334</ele><time>2026-04-13T07:53:26.774Z</time></trkpt><trkpt lat="40.7316245" lon="9.6421383"><ele>136.66666666666666</ele><time>2026-04-13T07:53:27.774Z</time></trkpt><trkpt lat="40.7316947" lon="9.6421821"><ele>134.5</ele><time>2026-04-13T07:53:28.784Z</time></trkpt><trkpt lat="40.7317556" lon="9.642231"><ele>132.33333333333331</ele><time>2026-04-13T07:53:29.772Z</time></trkpt><trkpt lat="40.7318097" lon="9.6422785"><ele>130.16666666666666</ele><time>2026-04-13T07:53:30.782Z</time></trkpt><trkpt lat="40.7319063" lon="9.6423646"><ele>128.0</ele><time>2026-04-13T07:53:32.781Z</time></trkpt><trkpt lat="40.7320119" lon="9.6424174"><ele>127.2</ele><time>2026-04-13T07:53:34.772Z</time></trkpt><trkpt lat="40.7321251" lon="9.6424099"><ele>126.4</ele><time>2026-04-13T07:53:36.768Z</time></trkpt><trkpt lat="40.732239" lon="9.6424047"><ele>125.60000000000001</ele><time>2026-04-13T07:53:38.77Z</time></trkpt><trkpt lat="40.7323354" lon="9.6424444"><ele>124.80000000000001</ele><time>2026-04-13T07:53:40.787Z</time></trkpt><trkpt lat="40.7324031" lon="9.6425456"><ele>124.0</ele><time>2026-04-13T07:53:42.776Z</time></trkpt><trkpt lat="40.732477" lon="9.6426364"><ele>124.0</ele><time>2026-04-13T07:53:44.789Z</time></trkpt><trkpt lat="40.732586" lon="9.6427112"><ele>124.0</ele><time>2026-04-13T07:53:46.769Z</time></trkpt><trkpt lat="40.7326456" lon="9.6427384"><ele>124.0</ele><time>2026-04-13T07:53:47.773Z</time></trkpt><trkpt lat="40.7327084" lon="9.6427606"><ele>124.0</ele><time>2026-04-13T07:53:48.758Z</time></trkpt><trkpt lat="40.7328244" lon="9.642802"><ele>124.0</ele><time>2026-04-13T07:53:50.771Z</time></trkpt><trkpt lat="40.732923" lon="9.6427968"><ele>124.4</ele><time>2026-04-13T07:53:52.771Z</time></trkpt><trkpt lat="40.7330031" lon="9.6427463"><ele>124.80000000000001</ele><time>2026-04-13T07:53:54.772Z</time></trkpt><trkpt lat="40.7330694" lon="9.6426364"><ele>125.19999999999999</ele><time>2026-04-13T07:53:56.767Z</time></trkpt><trkpt lat="40.7331321" lon="9.6425261"><ele>125.6</ele><time>2026-04-13T07:53:58.767Z</time></trkpt><trkpt lat="40.7332038" lon="9.642498"><ele>126.0</ele><time>2026-04-13T07:54:00.755Z</time></trkpt><trkpt lat="40.7332785" lon="9.6425268"><ele>126.0</ele><time>2026-04-13T07:54:02.759Z</time></trkpt><trkpt lat="40.7333136" lon="9.6426156"><ele>126.0</ele><time>2026-04-13T07:54:04.76Z</time></trkpt><trkpt lat="40.7333355" lon="9.6427165"><ele>126.0</ele><time>2026-04-13T07:54:06.747Z</time></trkpt><trkpt lat="40.733331" lon="9.6428644"><ele>126.0</ele><time>2026-04-13T07:54:08.763Z</time></trkpt><trkpt lat="40.7333253" lon="9.6429634"><ele>126.0</ele><time>2026-04-13T07:54:09.752Z</time></trkpt><trkpt lat="40.7333149" lon="9.6430711"><ele>126.0</ele><time>2026-04-13T07:54:10.759Z</time></trkpt><trkpt lat="40.7333044" lon="9.6431891"><ele>124.83333333333333</ele><time>2026-04-13T07:54:11.745Z</time></trkpt><trkpt lat="40.7332919" lon="9.643313"><ele>123.66666666666666</ele><time>2026-04-13T07:54:12.773Z</time></trkpt><trkpt lat="40.7332785" lon="9.6434376"><ele>122.5</ele><time>2026-04-13T07:54:13.747Z</time></trkpt><trkpt lat="40.7332703" lon="9.6435567"><ele>121.33333333333333</ele><time>2026-04-13T07:54:14.749Z</time></trkpt><trkpt lat="40.733267" lon="9.6436653"><ele>120.16666666666666</ele><time>2026-04-13T07:54:15.774Z</time></trkpt><trkpt lat="40.7332672" lon="9.6437592"><ele>119.0</ele><time>2026-04-13T07:54:16.757Z</time></trkpt><trkpt lat="40.7332743" lon="9.6438471"><ele>118.16666666666666</ele><time>2026-04-13T07:54:17.749Z</time></trkpt><trkpt lat="40.7332871" lon="9.6439346"><ele>117.33333333333333</ele><time>2026-04-13T07:54:18.753Z</time></trkpt><trkpt lat="40.7333031" lon="9.6440234"><ele>116.5</ele><time>2026-04-13T07:54:19.762Z</time></trkpt><trkpt lat="40.7333193" lon="9.6441155"><ele>115.66666666666666</ele><time>2026-04-13T07:54:20.749Z</time></trkpt><trkpt lat="40.7333295" lon="9.6442006"><ele>114.83333333333333</ele><time>2026-04-13T07:54:21.737Z</time></trkpt><trkpt lat="40.7333364" lon="9.6443634"><ele>114.0</ele><time>2026-04-13T07:54:23.746Z</time></trkpt><trkpt lat="40.7333017" lon="9.6444853"><ele>114.0</ele><time>2026-04-13T07:54:25.756Z</time></trkpt><trkpt lat="40.7332263" lon="9.6445515"><ele>114.0</ele><time>2026-04-13T07:54:27.746Z</time></trkpt><trkpt lat="40.7331298" lon="9.644549"><ele>114.0</ele><time>2026-04-13T07:54:29.745Z</time></trkpt><trkpt lat="40.7330362" lon="9.644492"><ele>114.0</ele><time>2026-04-13T07:54:31.742Z</time></trkpt><trkpt lat="40.7329444" lon="9.6444345"><ele>114.0</ele><time>2026-04-13T07:54:33.74Z</time></trkpt><trkpt lat="40.7328292" lon="9.6444163"><ele>111.6</ele><time>2026-04-13T07:54:35.739Z</time></trkpt><trkpt lat="40.732748" lon="9.6445262"><ele>109.2</ele><time>2026-04-13T07:54:37.743Z</time></trkpt><trkpt lat="40.7327489" lon="9.6446878"><ele>106.8</ele><time>2026-04-13T07:54:39.759Z</time></trkpt><trkpt lat="40.7327751" lon="9.6447972"><ele>104.39999999999999</ele><time>2026-04-13T07:54:40.752Z</time></trkpt><trkpt lat="40.7328172" lon="9.6449121"><ele>102.0</ele><time>2026-04-13T07:54:41.744Z</time></trkpt><trkpt lat="40.7328724" lon="9.6450273"><ele>102.0</ele><time>2026-04-13T07:54:42.739Z</time></trkpt><trkpt lat="40.732926" lon="9.6451354"><ele>102.0</ele><time>2026-04-13T07:54:43.739Z</time></trkpt><trkpt lat="40.7329773" lon="9.6452307"><ele>102.0</ele><time>2026-04-13T07:54:44.755Z</time></trkpt><trkpt lat="40.7330237" lon="9.6453072"><ele>102.0</ele><time>2026-04-13T07:54:45.73Z</time></trkpt><trkpt lat="40.733073" lon="9.6453714"><ele>102.0</ele><time>2026-04-13T07:54:46.73Z</time></trkpt><trkpt lat="40.7331379" lon="9.6454114"><ele>102.0</ele><time>2026-04-13T07:54:47.743Z</time></trkpt><trkpt lat="40.7332061" lon="9.6454365"><ele>100.0</ele><time>2026-04-13T07:54:48.748Z</time></trkpt><trkpt lat="40.7332806" lon="9.6454438"><ele>98.0</ele><time>2026-04-13T07:54:49.729Z</time></trkpt><trkpt lat="40.7333468" lon="9.6454465"><ele>96.0</ele><time>2026-04-13T07:54:50.749Z</time></trkpt><trkpt lat="40.733432" lon="9.6454914"><ele>94.0</ele><time>2026-04-13T07:54:52.742Z</time></trkpt><trkpt lat="40.7334575" lon="9.6456349"><ele>92.0</ele><time>2026-04-13T07:54:54.742Z</time></trkpt><trkpt lat="40.7334264" lon="9.6457101"><ele>90.0</ele><time>2026-04-13T07:54:55.74Z</time></trkpt><trkpt lat="40.7333966" lon="9.6457855"><ele>90.0</ele><time>2026-04-13T07:54:56.757Z</time></trkpt><trkpt lat="40.7333667" lon="9.6458755"><ele>90.0</ele><time>2026-04-13T07:54:57.743Z</time></trkpt><trkpt lat="40.7333389" lon="9.6459767"><ele>90.0</ele><time>2026-04-13T07:54:58.738Z</time></trkpt><trkpt lat="40.7333096" lon="9.6460808"><ele>90.0</ele><time>2026-04-13T07:54:59.74Z</time></trkpt><trkpt lat="40.7332734" lon="9.6461824"><ele>90.0</ele><time>2026-04-13T07:55:00.741Z</time></trkpt><trkpt lat="40.7332373" lon="9.6462782"><ele>90.0</ele><time>2026-04-13T07:55:01.747Z</time></trkpt><trkpt lat="40.7332185" lon="9.6463757"><ele>88.4</ele><time>2026-04-13T07:55:02.722Z</time></trkpt><trkpt lat="40.7332193" lon="9.646472"><ele>86.8</ele><time>2026-04-13T07:55:03.737Z</time></trkpt><trkpt lat="40.733238" lon="9.6466169"><ele>85.19999999999999</ele><time>2026-04-13T07:55:05.746Z</time></trkpt><trkpt lat="40.7332557" lon="9.6467386"><ele>83.6</ele><time>2026-04-13T07:55:07.737Z</time></trkpt><trkpt lat="40.7332662" lon="9.646876"><ele>82.0</ele><time>2026-04-13T07:55:09.736Z</time></trkpt><trkpt lat="40.7332691" lon="9.6470422"><ele>81.66666666666666</ele><time>2026-04-13T07:55:11.74Z</time></trkpt><trkpt lat="40.7332623" lon="9.647125"><ele>81.33333333333333</ele><time>2026-04-13T07:55:12.745Z</time></trkpt><trkpt lat="40.7332473" lon="9.6472898"><ele>81.0</ele><time>2026-04-13T07:55:14.726Z</time></trkpt><trkpt lat="40.7332445" lon="9.6473846"><ele>80.66666666666667</ele><time>2026-04-13T07:55:15.74Z</time></trkpt><trkpt lat="40.7332489" lon="9.6474866"><ele>80.33333333333334</ele><time>2026-04-13T07:55:16.735Z</time></trkpt><trkpt lat="40.7332653" lon="9.6475918"><ele>80.0</ele><time>2026-04-13T07:55:17.751Z</time></trkpt><trkpt lat="40.7332889" lon="9.6476945"><ele>80.0</ele><time>2026-04-13T07:55:18.74Z</time></trkpt><trkpt lat="40.7333252" lon="9.6477857"><ele>80.0</ele><time>2026-04-13T07:55:19.736Z</time></trkpt><trkpt lat="40.7333784" lon="9.6478703"><ele>80.0</ele><time>2026-04-13T07:55:20.728Z</time></trkpt><trkpt lat="40.7334403" lon="9.6479459"><ele>80.0</ele><time>2026-04-13T07:55:21.722Z</time></trkpt><trkpt lat="40.7335053" lon="9.6480147"><ele>80.0</ele><time>2026-04-13T07:55:22.716Z</time></trkpt><trkpt lat="40.7335662" lon="9.6480734"><ele>80.0</ele><time>2026-04-13T07:55:23.737Z</time></trkpt><trkpt lat="40.7336505" lon="9.6481763"><ele>81.16666666666667</ele><time>2026-04-13T07:55:25.725Z</time></trkpt><trkpt lat="40.7336864" lon="9.6482477"><ele>82.33333333333334</ele><time>2026-04-13T07:55:27.714Z</time></trkpt><trkpt lat="40.7337581" lon="9.6483038"><ele>83.5</ele><time>2026-04-13T07:55:31.713Z</time></trkpt><trkpt lat="40.7338283" lon="9.6482435"><ele>84.66666666666667</ele><time>2026-04-13T07:55:33.731Z</time></trkpt><trkpt lat="40.7338833" lon="9.6481945"><ele>85.83333333333333</ele><time>2026-04-13T07:55:34.723Z</time></trkpt><trkpt lat="40.7339487" lon="9.648145"><ele>87.0</ele><time>2026-04-13T07:55:35.726Z</time></trkpt><trkpt lat="40.7340267" lon="9.6480906"><ele>87.0</ele><time>2026-04-13T07:55:36.722Z</time></trkpt><trkpt lat="40.7341084" lon="9.6480293"><ele>87.0</ele><time>2026-04-13T07:55:37.719Z</time></trkpt><trkpt lat="40.7341873" lon="9.6479752"><ele>87.0</ele><time>2026-04-13T07:55:38.709Z</time></trkpt><trkpt lat="40.7342695" lon="9.6479339"><ele>87.0</ele><time>2026-04-13T07:55:39.715Z</time></trkpt><trkpt lat="40.7343534" lon="9.6478988"><ele>87.0</ele><time>2026-04-13T07:55:40.729Z</time></trkpt><trkpt lat="40.7344369" lon="9.6478707"><ele>87.0</ele><time>2026-04-13T07:55:41.714Z</time></trkpt><trkpt lat="40.7345217" lon="9.6478502"><ele>87.19999999999999</ele><time>2026-04-13T07:55:42.717Z</time></trkpt><trkpt lat="40.7346093" lon="9.6478332"><ele>87.4</ele><time>2026-04-13T07:55:43.713Z</time></trkpt><trkpt lat="40.7346967" lon="9.647813"><ele>87.6</ele><time>2026-04-13T07:55:44.727Z</time></trkpt><trkpt lat="40.7347874" lon="9.6477926"><ele>87.80000000000001</ele><time>2026-04-13T07:55:45.716Z</time></trkpt><trkpt lat="40.7348825" lon="9.6477719"><ele>88.0</ele><time>2026-04-13T07:55:46.708Z</time></trkpt><trkpt lat="40.7349757" lon="9.6477507"><ele>88.0</ele><time>2026-04-13T07:55:47.726Z</time></trkpt><trkpt lat="40.735074" lon="9.6477302"><ele>88.0</ele><time>2026-04-13T07:55:48.719Z</time></trkpt><trkpt lat="40.7351756" lon="9.6477146"><ele>88.0</ele><time>2026-04-13T07:55:49.715Z</time></trkpt><trkpt lat="40.7352832" lon="9.6477042"><ele>88.0</ele><time>2026-04-13T07:55:50.706Z</time></trkpt><trkpt lat="40.7353933" lon="9.647701"><ele>88.0</ele><time>2026-04-13T07:55:51.711Z</time></trkpt><trkpt lat="40.7355107" lon="9.6477018"><ele>90.0</ele><time>2026-04-13T07:55:52.722Z</time></trkpt><trkpt lat="40.7356338" lon="9.647702"><ele>92.0</ele><time>2026-04-13T07:55:53.709Z</time></trkpt><trkpt lat="40.7357547" lon="9.6477044"><ele>94.0</ele><time>2026-04-13T07:55:54.716Z</time></trkpt><trkpt lat="40.7358779" lon="9.647706"><ele>96.0</ele><time>2026-04-13T07:55:55.809Z</time></trkpt><trkpt lat="40.7359988" lon="9.6477115"><ele>98.0</ele><time>2026-04-13T07:55:56.711Z</time></trkpt><trkpt lat="40.7361217" lon="9.6477209"><ele>100.0</ele><time>2026-04-13T07:55:57.706Z</time></trkpt><trkpt lat="40.7362419" lon="9.6477317"><ele>102.0</ele><time>2026-04-13T07:55:58.802Z</time></trkpt><trkpt lat="40.7363608" lon="9.6477433"><ele>104.0</ele><time>2026-04-13T07:55:59.805Z</time></trkpt><trkpt lat="40.7364864" lon="9.6477367"><ele>104.0</ele><time>2026-04-13T07:56:00.801Z</time></trkpt><trkpt lat="40.7366111" lon="9.6477009"><ele>104.0</ele><time>2026-04-13T07:56:01.8Z</time></trkpt><trkpt lat="40.7367412" lon="9.6476456"><ele>104.0</ele><time>2026-04-13T07:56:02.811Z</time></trkpt><trkpt lat="40.7368779" lon="9.6475643"><ele>104.0</ele><time>2026-04-13T07:56:03.713Z</time></trkpt><trkpt lat="40.7370166" lon="9.6474768"><ele>103.66666666666666</ele><time>2026-04-13T07:56:04.703Z</time></trkpt><trkpt lat="40.7371541" lon="9.6473898"><ele>103.33333333333334</ele><time>2026-04-13T07:56:05.806Z</time></trkpt><trkpt lat="40.7372925" lon="9.6473093"><ele>103.0</ele><time>2026-04-13T07:56:06.82Z</time></trkpt><trkpt lat="40.7374324" lon="9.6472331"><ele>103.0</ele><time>2026-04-13T07:56:07.804Z</time></trkpt><trkpt lat="40.7375789" lon="9.6471534"><ele>103.0</ele><time>2026-04-13T07:56:08.814Z</time></trkpt><trkpt lat="40.737727" lon="9.6470795"><ele>103.0</ele><time>2026-04-13T07:56:09.812Z</time></trkpt><trkpt lat="40.7378787" lon="9.647007"><ele>99.66666666666667</ele><time>2026-04-13T07:56:10.805Z</time></trkpt><trkpt lat="40.738036" lon="9.6469356"><ele>96.33333333333334</ele><time>2026-04-13T07:56:11.811Z</time></trkpt><trkpt lat="40.7381966" lon="9.6468655"><ele>93.0</ele><time>2026-04-13T07:56:12.808Z</time></trkpt><trkpt lat="40.73836" lon="9.6467934"><ele>93.0</ele><time>2026-04-13T07:56:13.808Z</time></trkpt><trkpt lat="40.738522" lon="9.64672"><ele>93.0</ele><time>2026-04-13T07:56:14.806Z</time></trkpt><trkpt lat="40.7386832" lon="9.6466485"><ele>93.0</ele><time>2026-04-13T07:56:15.807Z</time></trkpt><trkpt lat="40.7388438" lon="9.646584"><ele>92.0</ele><time>2026-04-13T07:56:16.804Z</time></trkpt><trkpt lat="40.7390009" lon="9.6465189"><ele>91.0</ele><time>2026-04-13T07:56:17.806Z</time></trkpt><trkpt lat="40.7391588" lon="9.6464527"><ele>90.0</ele><time>2026-04-13T07:56:18.813Z</time></trkpt><trkpt lat="40.7393163" lon="9.646389"><ele>89.0</ele><time>2026-04-13T07:56:19.799Z</time></trkpt><trkpt lat="40.7394727" lon="9.6463238"><ele>88.0</ele><time>2026-04-13T07:56:20.803Z</time></trkpt><trkpt lat="40.7396196" lon="9.6462631"><ele>87.0</ele><time>2026-04-13T07:56:21.803Z</time></trkpt><trkpt lat="40.739757" lon="9.6462032"><ele>87.0</ele><time>2026-04-13T07:56:22.813Z</time></trkpt><trkpt lat="40.7398864" lon="9.6461478"><ele>87.0</ele><time>2026-04-13T07:56:23.795Z</time></trkpt><trkpt lat="40.7400149" lon="9.6461064"><ele>87.0</ele><time>2026-04-13T07:56:24.802Z</time></trkpt><trkpt lat="40.7401537" lon="9.6460834"><ele>87.0</ele><time>2026-04-13T07:56:25.817Z</time></trkpt><trkpt lat="40.7402934" lon="9.6460848"><ele>86.33333333333333</ele><time>2026-04-13T07:56:26.809Z</time></trkpt><trkpt lat="40.7404447" lon="9.6461035"><ele>85.66666666666666</ele><time>2026-04-13T07:56:27.808Z</time></trkpt><trkpt lat="40.7405995" lon="9.6461249"><ele>85.0</ele><time>2026-04-13T07:56:28.795Z</time></trkpt><trkpt lat="40.7407535" lon="9.6461504"><ele>85.0</ele><time>2026-04-13T07:56:29.806Z</time></trkpt><trkpt lat="40.7409105" lon="9.6461708"><ele>85.0</ele><time>2026-04-13T07:56:30.815Z</time></trkpt><trkpt lat="40.7410719" lon="9.6461934"><ele>85.0</ele><time>2026-04-13T07:56:31.804Z</time></trkpt><trkpt lat="40.7412338" lon="9.6462171"><ele>84.33333333333333</ele><time>2026-04-13T07:56:32.791Z</time></trkpt><trkpt lat="40.7413978" lon="9.646242"><ele>83.66666666666667</ele><time>2026-04-13T07:56:33.801Z</time></trkpt><trkpt lat="40.7415618" lon="9.6462656"><ele>83.0</ele><time>2026-04-13T07:56:34.814Z</time></trkpt><trkpt lat="40.7417262" lon="9.6462877"><ele>82.0</ele><time>2026-04-13T07:56:35.805Z</time></trkpt><trkpt lat="40.7418899" lon="9.6463091"><ele>81.0</ele><time>2026-04-13T07:56:36.796Z</time></trkpt><trkpt lat="40.7420562" lon="9.6463315"><ele>80.0</ele><time>2026-04-13T07:56:37.811Z</time></trkpt><trkpt lat="40.7422221" lon="9.6463545"><ele>80.0</ele><time>2026-04-13T07:56:38.806Z</time></trkpt><trkpt lat="40.7423859" lon="9.6463801"><ele>80.0</ele><time>2026-04-13T07:56:39.802Z</time></trkpt><trkpt lat="40.7425503" lon="9.6464024"><ele>80.0</ele><time>2026-04-13T07:56:40.799Z</time></trkpt><trkpt lat="40.7427111" lon="9.6464231"><ele>78.75</ele><time>2026-04-13T07:56:41.801Z</time></trkpt><trkpt lat="40.7428666" lon="9.6464435"><ele>77.5</ele><time>2026-04-13T07:56:42.807Z</time></trkpt><trkpt lat="40.7430138" lon="9.6464638"><ele>76.25</ele><time>2026-04-13T07:56:43.808Z</time></trkpt><trkpt lat="40.7431561" lon="9.6464815"><ele>75.0</ele><time>2026-04-13T07:56:44.794Z</time></trkpt><trkpt lat="40.7432962" lon="9.6465003"><ele>75.0</ele><time>2026-04-13T07:56:45.809Z</time></trkpt><trkpt lat="40.7434384" lon="9.6465217"><ele>75.0</ele><time>2026-04-13T07:56:46.804Z</time></trkpt><trkpt lat="40.743581" lon="9.6465473"><ele>75.0</ele><time>2026-04-13T07:56:47.795Z</time></trkpt><trkpt lat="40.7437247" lon="9.6465716"><ele>75.0</ele><time>2026-04-13T07:56:48.798Z</time></trkpt><trkpt lat="40.7438676" lon="9.6466001"><ele>75.0</ele><time>2026-04-13T07:56:49.801Z</time></trkpt><trkpt lat="40.7440164" lon="9.6466192"><ele>75.0</ele><time>2026-04-13T07:56:50.799Z</time></trkpt><trkpt lat="40.7441652" lon="9.6466381"><ele>75.0</ele><time>2026-04-13T07:56:51.797Z</time></trkpt><trkpt lat="40.7443129" lon="9.6466637"><ele>75.0</ele><time>2026-04-13T07:56:52.799Z</time></trkpt><trkpt lat="40.7444612" lon="9.646699"><ele>74.33333333333333</ele><time>2026-04-13T07:56:53.806Z</time></trkpt><trkpt lat="40.7446092" lon="9.646737"><ele>73.66666666666666</ele><time>2026-04-13T07:56:54.795Z</time></trkpt><trkpt lat="40.7447585" lon="9.6467803"><ele>73.0</ele><time>2026-04-13T07:56:55.798Z</time></trkpt><trkpt lat="40.7449118" lon="9.6468242"><ele>73.0</ele><time>2026-04-13T07:56:56.787Z</time></trkpt><trkpt lat="40.7450629" lon="9.6468683"><ele>73.0</ele><time>2026-04-13T07:56:57.791Z</time></trkpt><trkpt lat="40.745216" lon="9.6469111"><ele>73.0</ele><time>2026-04-13T07:56:58.793Z</time></trkpt><trkpt lat="40.7453737" lon="9.6469505"><ele>71.0</ele><time>2026-04-13T07:56:59.798Z</time></trkpt><trkpt lat="40.7455327" lon="9.646983"><ele>69.0</ele><time>2026-04-13T07:57:00.795Z</time></trkpt><trkpt lat="40.7456904" lon="9.6469997"><ele>67.0</ele><time>2026-04-13T07:57:01.788Z</time></trkpt><trkpt lat="40.7458493" lon="9.6470107"><ele>67.0</ele><time>2026-04-13T07:57:02.784Z</time></trkpt><trkpt lat="40.7460064" lon="9.6470204"><ele>67.0</ele><time>2026-04-13T07:57:03.803Z</time></trkpt><trkpt lat="40.7461649" lon="9.6470216"><ele>67.0</ele><time>2026-04-13T07:57:04.796Z</time></trkpt><trkpt lat="40.7463232" lon="9.6470277"><ele>66.66666666666666</ele><time>2026-04-13T07:57:05.812Z</time></trkpt><trkpt lat="40.7464756" lon="9.6470308"><ele>66.33333333333333</ele><time>2026-04-13T07:57:06.795Z</time></trkpt><trkpt lat="40.7466247" lon="9.6470349"><ele>66.0</ele><time>2026-04-13T07:57:07.799Z</time></trkpt><trkpt lat="40.7467788" lon="9.647038"><ele>65.33333333333333</ele><time>2026-04-13T07:57:08.78Z</time></trkpt><trkpt lat="40.7469343" lon="9.6470422"><ele>64.66666666666666</ele><time>2026-04-13T07:57:09.804Z</time></trkpt><trkpt lat="40.7470918" lon="9.6470449"><ele>64.0</ele><time>2026-04-13T07:57:10.794Z</time></trkpt><trkpt lat="40.7472512" lon="9.6470512"><ele>64.0</ele><time>2026-04-13T07:57:11.795Z</time></trkpt><trkpt lat="40.7474079" lon="9.6470577"><ele>64.0</ele><time>2026-04-13T07:57:12.801Z</time></trkpt><trkpt lat="40.7475683" lon="9.6470593"><ele>64.0</ele><time>2026-04-13T07:57:13.796Z</time></trkpt><trkpt lat="40.7477255" lon="9.6470611"><ele>63.33333333333333</ele><time>2026-04-13T07:57:14.778Z</time></trkpt><trkpt lat="40.7478806" lon="9.6470653"><ele>62.66666666666667</ele><time>2026-04-13T07:57:15.791Z</time></trkpt><trkpt lat="40.7480357" lon="9.647069"><ele>62.0</ele><time>2026-04-13T07:57:16.782Z</time></trkpt><trkpt lat="40.748188" lon="9.6470746"><ele>62.0</ele><time>2026-04-13T07:57:17.783Z</time></trkpt><trkpt lat="40.7483415" lon="9.6470788"><ele>62.0</ele><time>2026-04-13T07:57:18.78Z</time></trkpt><trkpt lat="40.7484945" lon="9.6470835"><ele>62.0</ele><time>2026-04-13T07:57:19.779Z</time></trkpt><trkpt lat="40.7486467" lon="9.6470862"><ele>61.25</ele><time>2026-04-13T07:57:20.778Z</time></trkpt><trkpt lat="40.7487987" lon="9.6470859"><ele>60.5</ele><time>2026-04-13T07:57:21.782Z</time></trkpt><trkpt lat="40.7489459" lon="9.6470913"><ele>59.75</ele><time>2026-04-13T07:57:22.782Z</time></trkpt><trkpt lat="40.7490817" lon="9.6470954"><ele>59.0</ele><time>2026-04-13T07:57:23.793Z</time></trkpt><trkpt lat="40.7492088" lon="9.6471003"><ele>59.0</ele><time>2026-04-13T07:57:24.78Z</time></trkpt><trkpt lat="40.7493273" lon="9.6471157"><ele>59.00000000000001</ele><time>2026-04-13T07:57:25.777Z</time></trkpt><trkpt lat="40.7494273" lon="9.6471444"><ele>59.00000000000001</ele><time>2026-04-13T07:57:26.781Z</time></trkpt><trkpt lat="40.7495123" lon="9.6471791"><ele>59.0</ele><time>2026-04-13T07:57:27.781Z</time></trkpt><trkpt lat="40.7495856" lon="9.6472099"><ele>59.0</ele><time>2026-04-13T07:57:28.793Z</time></trkpt><trkpt lat="40.7496523" lon="9.6472313"><ele>58.50000000000001</ele><time>2026-04-13T07:57:29.784Z</time></trkpt><trkpt lat="40.7497129" lon="9.6472545"><ele>58.0</ele><time>2026-04-13T07:57:30.782Z</time></trkpt><trkpt lat="40.7498038" lon="9.6472807"><ele>57.5</ele><time>2026-04-13T07:57:32.779Z</time></trkpt><trkpt lat="40.7498713" lon="9.6472914"><ele>57.0</ele><time>2026-04-13T07:57:35.78Z</time></trkpt><trkpt lat="40.7499379" lon="9.6472874"><ele>56.50000000000001</ele><time>2026-04-13T07:57:38.774Z</time></trkpt><trkpt lat="40.7500285" lon="9.6472815"><ele>56.0</ele><time>2026-04-13T07:57:41.783Z</time></trkpt><trkpt lat="40.7501258" lon="9.6472585"><ele>56.00000000000001</ele><time>2026-04-13T07:57:43.79Z</time></trkpt><trkpt lat="40.7501891" lon="9.6472395"><ele>56.0</ele><time>2026-04-13T07:57:44.773Z</time></trkpt><trkpt lat="40.7502595" lon="9.6472164"><ele>56.0</ele><time>2026-04-13T07:57:45.781Z</time></trkpt><trkpt lat="40.7503318" lon="9.6471926"><ele>56.0</ele><time>2026-04-13T07:57:46.779Z</time></trkpt><trkpt lat="40.7504038" lon="9.6471613"><ele>56.00000000000001</ele><time>2026-04-13T07:57:47.794Z</time></trkpt><trkpt lat="40.7504659" lon="9.6471266"><ele>56.0</ele><time>2026-04-13T07:57:48.774Z</time></trkpt><trkpt lat="40.7505738" lon="9.6470681"><ele>56.00000000000001</ele><time>2026-04-13T07:57:50.785Z</time></trkpt><trkpt lat="40.7506968" lon="9.6470147"><ele>56.0</ele><time>2026-04-13T07:57:52.763Z</time></trkpt><trkpt lat="40.7507668" lon="9.6469997"><ele>56.0</ele><time>2026-04-13T07:57:53.787Z</time></trkpt><trkpt lat="40.7508397" lon="9.6469988"><ele>56.0</ele><time>2026-04-13T07:57:54.781Z</time></trkpt><trkpt lat="40.7509178" lon="9.647015"><ele>56.00000000000001</ele><time>2026-04-13T07:57:55.783Z</time></trkpt><trkpt lat="40.7509945" lon="9.647046"><ele>56.0</ele><time>2026-04-13T07:57:56.766Z</time></trkpt><trkpt lat="40.7510732" lon="9.6470924"><ele>56.0</ele><time>2026-04-13T07:57:57.772Z</time></trkpt><trkpt lat="40.7511578" lon="9.6471481"><ele>55.99999999999999</ele><time>2026-04-13T07:57:58.769Z</time></trkpt><trkpt lat="40.751245" lon="9.6472069"><ele>55.99999999999999</ele><time>2026-04-13T07:57:59.769Z</time></trkpt><trkpt lat="40.7513373" lon="9.6472649"><ele>56.0</ele><time>2026-04-13T07:58:00.782Z</time></trkpt><trkpt lat="40.7514357" lon="9.647329"><ele>56.0</ele><time>2026-04-13T07:58:01.768Z</time></trkpt><trkpt lat="40.7515437" lon="9.6473952"><ele>56.0</ele><time>2026-04-13T07:58:02.771Z</time></trkpt><trkpt lat="40.7516567" lon="9.6474709"><ele>56.0</ele><time>2026-04-13T07:58:03.779Z</time></trkpt><trkpt lat="40.7517736" lon="9.6475462"><ele>56.0</ele><time>2026-04-13T07:58:04.764Z</time></trkpt><trkpt lat="40.7518948" lon="9.6476192"><ele>56.0</ele><time>2026-04-13T07:58:05.773Z</time></trkpt><trkpt lat="40.7520134" lon="9.647695"><ele>55.75</ele><time>2026-04-13T07:58:06.767Z</time></trkpt><trkpt lat="40.7521365" lon="9.6477695"><ele>55.5</ele><time>2026-04-13T07:58:07.767Z</time></trkpt><trkpt lat="40.7522619" lon="9.6478538"><ele>55.25</ele><time>2026-04-13T07:58:08.766Z</time></trkpt><trkpt lat="40.7523868" lon="9.6479371"><ele>55.0</ele><time>2026-04-13T07:58:09.774Z</time></trkpt><trkpt lat="40.7525114" lon="9.6480322"><ele>54.25</ele><time>2026-04-13T07:58:10.79Z</time></trkpt><trkpt lat="40.7526373" lon="9.6481277"><ele>53.5</ele><time>2026-04-13T07:58:11.789Z</time></trkpt><trkpt lat="40.7527613" lon="9.6482267"><ele>52.75</ele><time>2026-04-13T07:58:12.763Z</time></trkpt><trkpt lat="40.7528846" lon="9.6483221"><ele>52.0</ele><time>2026-04-13T07:58:13.767Z</time></trkpt><trkpt lat="40.7530052" lon="9.648419"><ele>51.5</ele><time>2026-04-13T07:58:14.778Z</time></trkpt><trkpt lat="40.7531242" lon="9.6485177"><ele>51.0</ele><time>2026-04-13T07:58:15.789Z</time></trkpt><trkpt lat="40.753241" lon="9.6486238"><ele>50.5</ele><time>2026-04-13T07:58:16.773Z</time></trkpt><trkpt lat="40.7533573" lon="9.64873"><ele>50.0</ele><time>2026-04-13T07:58:17.8Z</time></trkpt><trkpt lat="40.7534745" lon="9.6488319"><ele>50.5</ele><time>2026-04-13T07:58:18.773Z</time></trkpt><trkpt lat="40.7535932" lon="9.648935"><ele>51.0</ele><time>2026-04-13T07:58:19.766Z</time></trkpt><trkpt lat="40.7537149" lon="9.6490443"><ele>51.5</ele><time>2026-04-13T07:58:20.767Z</time></trkpt><trkpt lat="40.7538364" lon="9.6491532"><ele>52.0</ele><time>2026-04-13T07:58:21.756Z</time></trkpt><trkpt lat="40.7539596" lon="9.6492609"><ele>52.0</ele><time>2026-04-13T07:58:22.766Z</time></trkpt><trkpt lat="40.7540813" lon="9.6493701"><ele>52.0</ele><time>2026-04-13T07:58:23.78Z</time></trkpt><trkpt lat="40.7542024" lon="9.6494794"><ele>52.0</ele><time>2026-04-13T07:58:24.756Z</time></trkpt><trkpt lat="40.7543236" lon="9.649586"><ele>52.0</ele><time>2026-04-13T07:58:25.773Z</time></trkpt><trkpt lat="40.7544432" lon="9.6496877"><ele>51.25</ele><time>2026-04-13T07:58:26.768Z</time></trkpt><trkpt lat="40.754561" lon="9.6497822"><ele>50.5</ele><time>2026-04-13T07:58:27.766Z</time></trkpt><trkpt lat="40.7546854" lon="9.6498662"><ele>49.75</ele><time>2026-04-13T07:58:28.756Z</time></trkpt><trkpt lat="40.7548211" lon="9.6499341"><ele>49.0</ele><time>2026-04-13T07:58:29.752Z</time></trkpt><trkpt lat="40.7549646" lon="9.6499907"><ele>49.0</ele><time>2026-04-13T07:58:30.758Z</time></trkpt><trkpt lat="40.7551123" lon="9.6500466"><ele>49.0</ele><time>2026-04-13T07:58:31.767Z</time></trkpt><trkpt lat="40.7552642" lon="9.6500987"><ele>49.0</ele><time>2026-04-13T07:58:32.761Z</time></trkpt><trkpt lat="40.7554163" lon="9.6501474"><ele>50.0</ele><time>2026-04-13T07:58:33.749Z</time></trkpt><trkpt lat="40.7555671" lon="9.6501958"><ele>51.0</ele><time>2026-04-13T07:58:34.75Z</time></trkpt><trkpt lat="40.7557127" lon="9.6502588"><ele>52.0</ele><time>2026-04-13T07:58:35.754Z</time></trkpt><trkpt lat="40.7558523" lon="9.6503423"><ele>48.666666666666664</ele><time>2026-04-13T07:58:36.77Z</time></trkpt><trkpt lat="40.7559897" lon="9.6504442"><ele>45.33333333333333</ele><time>2026-04-13T07:58:37.776Z</time></trkpt><trkpt lat="40.7561212" lon="9.6505617"><ele>42.0</ele><time>2026-04-13T07:58:38.757Z</time></trkpt><trkpt lat="40.7562506" lon="9.6506822"><ele>42.0</ele><time>2026-04-13T07:58:39.753Z</time></trkpt><trkpt lat="40.7563794" lon="9.6508098"><ele>42.0</ele><time>2026-04-13T07:58:40.768Z</time></trkpt><trkpt lat="40.7565086" lon="9.6509389"><ele>42.0</ele><time>2026-04-13T07:58:41.75Z</time></trkpt><trkpt lat="40.7566406" lon="9.6510625"><ele>41.333333333333336</ele><time>2026-04-13T07:58:42.753Z</time></trkpt><trkpt lat="40.75677" lon="9.6511921"><ele>40.66666666666667</ele><time>2026-04-13T07:58:43.753Z</time></trkpt><trkpt lat="40.7569052" lon="9.6513095"><ele>40.0</ele><time>2026-04-13T07:58:44.758Z</time></trkpt><trkpt lat="40.7570452" lon="9.6514151"><ele>40.0</ele><time>2026-04-13T07:58:45.754Z</time></trkpt><trkpt lat="40.7571879" lon="9.6515126"><ele>40.0</ele><time>2026-04-13T07:58:46.746Z</time></trkpt><trkpt lat="40.7573338" lon="9.651605"><ele>40.0</ele><time>2026-04-13T07:58:47.753Z</time></trkpt><trkpt lat="40.7574917" lon="9.6516984"><ele>40.0</ele><time>2026-04-13T07:58:48.748Z</time></trkpt><trkpt lat="40.7576533" lon="9.6517909"><ele>40.0</ele><time>2026-04-13T07:58:49.758Z</time></trkpt><trkpt lat="40.7578148" lon="9.6518819"><ele>40.0</ele><time>2026-04-13T07:58:50.746Z</time></trkpt><trkpt lat="40.7579758" lon="9.6519756"><ele>38.333333333333336</ele><time>2026-04-13T07:58:51.765Z</time></trkpt><trkpt lat="40.7581347" lon="9.6520672"><ele>36.666666666666664</ele><time>2026-04-13T07:58:52.757Z</time></trkpt><trkpt lat="40.7582942" lon="9.6521633"><ele>35.0</ele><time>2026-04-13T07:58:53.746Z</time></trkpt><trkpt lat="40.7584516" lon="9.6522534"><ele>35.0</ele><time>2026-04-13T07:58:54.764Z</time></trkpt><trkpt lat="40.758612" lon="9.6523447"><ele>35.0</ele><time>2026-04-13T07:58:55.746Z</time></trkpt><trkpt lat="40.7587677" lon="9.6524356"><ele>35.0</ele><time>2026-04-13T07:58:56.772Z</time></trkpt><trkpt lat="40.758919" lon="9.6525231"><ele>35.0</ele><time>2026-04-13T07:58:57.75Z</time></trkpt><trkpt lat="40.7590648" lon="9.6526076"><ele>35.0</ele><time>2026-04-13T07:58:58.752Z</time></trkpt><trkpt lat="40.7592091" lon="9.6526906"><ele>35.0</ele><time>2026-04-13T07:58:59.749Z</time></trkpt><trkpt lat="40.7593582" lon="9.6527714"><ele>34.33333333333333</ele><time>2026-04-13T07:59:00.76Z</time></trkpt><trkpt lat="40.7595018" lon="9.6528509"><ele>33.666666666666664</ele><time>2026-04-13T07:59:01.741Z</time></trkpt><trkpt lat="40.7596488" lon="9.6529314"><ele>33.0</ele><time>2026-04-13T07:59:02.737Z</time></trkpt><trkpt lat="40.7597888" lon="9.6530107"><ele>33.0</ele><time>2026-04-13T07:59:03.74Z</time></trkpt><trkpt lat="40.7599167" lon="9.6530841"><ele>33.0</ele><time>2026-04-13T07:59:04.746Z</time></trkpt><trkpt lat="40.7600354" lon="9.6531547"><ele>33.0</ele><time>2026-04-13T07:59:05.737Z</time></trkpt><trkpt lat="40.7601374" lon="9.6532168"><ele>33.0</ele><time>2026-04-13T07:59:06.735Z</time></trkpt><trkpt lat="40.7602128" lon="9.6532707"><ele>33.0</ele><time>2026-04-13T07:59:07.76Z</time></trkpt><trkpt lat="40.760277" lon="9.6533231"><ele>33.0</ele><time>2026-04-13T07:59:08.745Z</time></trkpt><trkpt lat="40.7603372" lon="9.6533785"><ele>33.0</ele><time>2026-04-13T07:59:09.741Z</time></trkpt><trkpt lat="40.7603874" lon="9.6534409"><ele>33.0</ele><time>2026-04-13T07:59:10.74Z</time></trkpt><trkpt lat="40.7604343" lon="9.6535046"><ele>33.0</ele><time>2026-04-13T07:59:11.759Z</time></trkpt><trkpt lat="40.7604887" lon="9.6535634"><ele>33.0</ele><time>2026-04-13T07:59:12.738Z</time></trkpt><trkpt lat="40.7605571" lon="9.653607"><ele>33.0</ele><time>2026-04-13T07:59:13.761Z</time></trkpt><trkpt lat="40.7606294" lon="9.65363"><ele>32.5</ele><time>2026-04-13T07:59:14.744Z</time></trkpt><trkpt lat="40.7607112" lon="9.6536377"><ele>32.0</ele><time>2026-04-13T07:59:15.744Z</time></trkpt><trkpt lat="40.7607972" lon="9.6536426"><ele>31.5</ele><time>2026-04-13T07:59:16.758Z</time></trkpt><trkpt lat="40.7608822" lon="9.6536596"><ele>31.0</ele><time>2026-04-13T07:59:17.743Z</time></trkpt><trkpt lat="40.7609719" lon="9.6536885"><ele>30.5</ele><time>2026-04-13T07:59:18.736Z</time></trkpt><trkpt lat="40.7610634" lon="9.6537256"><ele>30.0</ele><time>2026-04-13T07:59:19.752Z</time></trkpt><trkpt lat="40.7611494" lon="9.6537679"><ele>30.0</ele><time>2026-04-13T07:59:20.767Z</time></trkpt><trkpt lat="40.7612348" lon="9.6538088"><ele>30.0</ele><time>2026-04-13T07:59:21.737Z</time></trkpt><trkpt lat="40.761329" lon="9.6538447"><ele>30.0</ele><time>2026-04-13T07:59:22.742Z</time></trkpt><trkpt lat="40.7614241" lon="9.6538762"><ele>30.0</ele><time>2026-04-13T07:59:23.751Z</time></trkpt><trkpt lat="40.7615199" lon="9.6539058"><ele>30.0</ele><time>2026-04-13T07:59:24.763Z</time></trkpt><trkpt lat="40.7616081" lon="9.6539303"><ele>30.0</ele><time>2026-04-13T07:59:25.742Z</time></trkpt><trkpt lat="40.761691" lon="9.6539464"><ele>30.0</ele><time>2026-04-13T07:59:26.731Z</time></trkpt><trkpt lat="40.7617713" lon="9.6539594"><ele>30.0</ele><time>2026-04-13T07:59:27.742Z</time></trkpt><trkpt lat="40.7618427" lon="9.6539633"><ele>30.0</ele><time>2026-04-13T07:59:28.75Z</time></trkpt><trkpt lat="40.7619162" lon="9.6539628"><ele>30.0</ele><time>2026-04-13T07:59:29.764Z</time></trkpt><trkpt lat="40.7619951" lon="9.6539623"><ele>30.0</ele><time>2026-04-13T07:59:30.734Z</time></trkpt><trkpt lat="40.7620801" lon="9.65397"><ele>29.833333333333332</ele><time>2026-04-13T07:59:31.747Z</time></trkpt><trkpt lat="40.7621606" lon="9.653982"><ele>29.666666666666664</ele><time>2026-04-13T07:59:32.754Z</time></trkpt><trkpt lat="40.7622315" lon="9.6539887"><ele>29.5</ele><time>2026-04-13T07:59:33.737Z</time></trkpt><trkpt lat="40.7623318" lon="9.6539906"><ele>29.333333333333332</ele><time>2026-04-13T07:59:35.748Z</time></trkpt><trkpt lat="40.7623973" lon="9.6540142"><ele>29.166666666666664</ele><time>2026-04-13T07:59:39.739Z</time></trkpt><trkpt lat="40.7624961" lon="9.6540497"><ele>29.0</ele><time>2026-04-13T07:59:50.745Z</time></trkpt><trkpt lat="40.7626078" lon="9.6540571"><ele>29.000000000000004</ele><time>2026-04-13T07:59:52.74Z</time></trkpt><trkpt lat="40.7626735" lon="9.6540642"><ele>29.0</ele><time>2026-04-13T07:59:53.732Z</time></trkpt><trkpt lat="40.7627403" lon="9.6540724"><ele>29.000000000000004</ele><time>2026-04-13T07:59:54.724Z</time></trkpt><trkpt lat="40.762812" lon="9.6540726"><ele>29.000000000000004</ele><time>2026-04-13T07:59:55.745Z</time></trkpt><trkpt lat="40.7628869" lon="9.6540787"><ele>29.0</ele><time>2026-04-13T07:59:56.776Z</time></trkpt><trkpt lat="40.762963" lon="9.6540894"><ele>29.000000000000004</ele><time>2026-04-13T07:59:57.726Z</time></trkpt><trkpt lat="40.7630432" lon="9.6541021"><ele>29.000000000000004</ele><time>2026-04-13T07:59:58.744Z</time></trkpt><trkpt lat="40.7631252" lon="9.6541117"><ele>28.833333333333332</ele><time>2026-04-13T07:59:59.741Z</time></trkpt><trkpt lat="40.7632046" lon="9.6541221"><ele>28.666666666666664</ele><time>2026-04-13T08:00:00.735Z</time></trkpt><trkpt lat="40.7632857" lon="9.6541327"><ele>28.5</ele><time>2026-04-13T08:00:01.735Z</time></trkpt><trkpt lat="40.763374" lon="9.6541423"><ele>28.333333333333336</ele><time>2026-04-13T08:00:02.766Z</time></trkpt><trkpt lat="40.7634696" lon="9.6541505"><ele>28.166666666666668</ele><time>2026-04-13T08:00:03.744Z</time></trkpt><trkpt lat="40.7635727" lon="9.6541585"><ele>28.0</ele><time>2026-04-13T08:00:04.736Z</time></trkpt><trkpt lat="40.7636765" lon="9.6541674"><ele>28.0</ele><time>2026-04-13T08:00:05.725Z</time></trkpt><trkpt lat="40.7637882" lon="9.6541804"><ele>27.999999999999996</ele><time>2026-04-13T08:00:06.723Z</time></trkpt><trkpt lat="40.7639018" lon="9.6541937"><ele>27.999999999999996</ele><time>2026-04-13T08:00:07.739Z</time></trkpt><trkpt lat="40.7640124" lon="9.6542036"><ele>28.0</ele><time>2026-04-13T08:00:08.733Z</time></trkpt><trkpt lat="40.7641184" lon="9.6542156"><ele>28.0</ele><time>2026-04-13T08:00:09.719Z</time></trkpt><trkpt lat="40.7642115" lon="9.6542243"><ele>28.0</ele><time>2026-04-13T08:00:10.719Z</time></trkpt><trkpt lat="40.7643056" lon="9.6542372"><ele>27.999999999999996</ele><time>2026-04-13T08:00:11.74Z</time></trkpt><trkpt lat="40.7643949" lon="9.6542508"><ele>27.999999999999996</ele><time>2026-04-13T08:00:12.725Z</time></trkpt><trkpt lat="40.7644844" lon="9.6542613"><ele>28.0</ele><time>2026-04-13T08:00:13.716Z</time></trkpt><trkpt lat="40.7645791" lon="9.6542701"><ele>28.0</ele><time>2026-04-13T08:00:14.729Z</time></trkpt><trkpt lat="40.7646719" lon="9.6542754"><ele>29.0</ele><time>2026-04-13T08:00:15.734Z</time></trkpt><trkpt lat="40.7647733" lon="9.654288"><ele>30.0</ele><time>2026-04-13T08:00:16.724Z</time></trkpt><trkpt lat="40.7648841" lon="9.6542964"><ele>31.0</ele><time>2026-04-13T08:00:17.731Z</time></trkpt><trkpt lat="40.765002" lon="9.654306"><ele>32.0</ele><time>2026-04-13T08:00:18.721Z</time></trkpt><trkpt lat="40.7651213" lon="9.6543161"><ele>32.0</ele><time>2026-04-13T08:00:19.715Z</time></trkpt><trkpt lat="40.7652418" lon="9.6543275"><ele>32.0</ele><time>2026-04-13T08:00:20.744Z</time></trkpt><trkpt lat="40.7653632" lon="9.6543448"><ele>32.0</ele><time>2026-04-13T08:00:21.733Z</time></trkpt><trkpt lat="40.7654851" lon="9.6543578"><ele>32.0</ele><time>2026-04-13T08:00:22.727Z</time></trkpt><trkpt lat="40.7656046" lon="9.6543704"><ele>32.0</ele><time>2026-04-13T08:00:23.719Z</time></trkpt><trkpt lat="40.7657255" lon="9.654383"><ele>32.0</ele><time>2026-04-13T08:00:24.731Z</time></trkpt><trkpt lat="40.7658516" lon="9.6543958"><ele>32.0</ele><time>2026-04-13T08:00:25.731Z</time></trkpt><trkpt lat="40.7659785" lon="9.6544079"><ele>32.0</ele><time>2026-04-13T08:00:26.713Z</time></trkpt><trkpt lat="40.7661041" lon="9.6544244"><ele>32.0</ele><time>2026-04-13T08:00:27.715Z</time></trkpt><trkpt lat="40.7662332" lon="9.654442"><ele>32.0</ele><time>2026-04-13T08:00:28.731Z</time></trkpt><trkpt lat="40.7663595" lon="9.6544551"><ele>32.0</ele><time>2026-04-13T08:00:29.724Z</time></trkpt><trkpt lat="40.7664858" lon="9.6544664"><ele>32.0</ele><time>2026-04-13T08:00:30.738Z</time></trkpt><trkpt lat="40.7666082" lon="9.6544802"><ele>31.75</ele><time>2026-04-13T08:00:31.715Z</time></trkpt><trkpt lat="40.766733" lon="9.6544937"><ele>31.5</ele><time>2026-04-13T08:00:32.734Z</time></trkpt><trkpt lat="40.7668555" lon="9.6545013"><ele>31.25</ele><time>2026-04-13T08:00:33.737Z</time></trkpt><trkpt lat="40.7669769" lon="9.6545073"><ele>31.0</ele><time>2026-04-13T08:00:34.709Z</time></trkpt><trkpt lat="40.7671049" lon="9.65451"><ele>31.0</ele><time>2026-04-13T08:00:35.726Z</time></trkpt><trkpt lat="40.7672425" lon="9.6545109"><ele>31.0</ele><time>2026-04-13T08:00:36.725Z</time></trkpt><trkpt lat="40.7673898" lon="9.6545049"><ele>31.0</ele><time>2026-04-13T08:00:37.722Z</time></trkpt><trkpt lat="40.7675482" lon="9.6544978"><ele>31.0</ele><time>2026-04-13T08:00:38.706Z</time></trkpt><trkpt lat="40.767709" lon="9.6544891"><ele>30.333333333333336</ele><time>2026-04-13T08:00:39.708Z</time></trkpt><trkpt lat="40.7678747" lon="9.6544767"><ele>29.666666666666664</ele><time>2026-04-13T08:00:40.823Z</time></trkpt><trkpt lat="40.7680405" lon="9.6544633"><ele>29.0</ele><time>2026-04-13T08:00:41.81Z</time></trkpt><trkpt lat="40.768206" lon="9.6544449"><ele>29.0</ele><time>2026-04-13T08:00:42.818Z</time></trkpt><trkpt lat="40.7685246" lon="9.6544093"><ele>29.0</ele><time>2026-04-13T08:00:44.729Z</time></trkpt><trkpt lat="40.7686766" lon="9.6543885"><ele>28.25</ele><time>2026-04-13T08:00:45.711Z</time></trkpt><trkpt lat="40.7688263" lon="9.654371"><ele>27.5</ele><time>2026-04-13T08:00:46.812Z</time></trkpt><trkpt lat="40.7689763" lon="9.6543535"><ele>26.75</ele><time>2026-04-13T08:00:47.814Z</time></trkpt><trkpt lat="40.7691223" lon="9.6543352"><ele>26.0</ele><time>2026-04-13T08:00:48.811Z</time></trkpt><trkpt lat="40.769273" lon="9.6543213"><ele>24.666666666666664</ele><time>2026-04-13T08:00:49.813Z</time></trkpt><trkpt lat="40.7694239" lon="9.6543035"><ele>23.333333333333332</ele><time>2026-04-13T08:00:50.725Z</time></trkpt><trkpt lat="40.7695774" lon="9.6542898"><ele>22.0</ele><time>2026-04-13T08:00:51.83Z</time></trkpt><trkpt lat="40.7697285" lon="9.6542757"><ele>22.0</ele><time>2026-04-13T08:00:52.809Z</time></trkpt><trkpt lat="40.7698765" lon="9.6542632"><ele>22.0</ele><time>2026-04-13T08:00:53.808Z</time></trkpt><trkpt lat="40.7700188" lon="9.6542518"><ele>22.0</ele><time>2026-04-13T08:00:54.806Z</time></trkpt><trkpt lat="40.7701536" lon="9.6542488"><ele>22.0</ele><time>2026-04-13T08:00:55.812Z</time></trkpt><trkpt lat="40.7702875" lon="9.654266"><ele>21.5</ele><time>2026-04-13T08:00:56.814Z</time></trkpt><trkpt lat="40.7704245" lon="9.6542997"><ele>21.0</ele><time>2026-04-13T08:00:57.808Z</time></trkpt><trkpt lat="40.7705651" lon="9.6543535"><ele>20.5</ele><time>2026-04-13T08:00:58.806Z</time></trkpt><trkpt lat="40.7707154" lon="9.654433"><ele>20.0</ele><time>2026-04-13T08:00:59.806Z</time></trkpt><trkpt lat="40.7708732" lon="9.6545225"><ele>19.0</ele><time>2026-04-13T08:01:00.819Z</time></trkpt><trkpt lat="40.7710368" lon="9.6546096"><ele>18.0</ele><time>2026-04-13T08:01:01.804Z</time></trkpt><trkpt lat="40.7711989" lon="9.6546989"><ele>17.0</ele><time>2026-04-13T08:01:02.809Z</time></trkpt><trkpt lat="40.7713584" lon="9.6547818"><ele>17.0</ele><time>2026-04-13T08:01:03.799Z</time></trkpt><trkpt lat="40.7715187" lon="9.654865"><ele>17.0</ele><time>2026-04-13T08:01:04.815Z</time></trkpt><trkpt lat="40.7716737" lon="9.6549456"><ele>17.0</ele><time>2026-04-13T08:01:05.82Z</time></trkpt><trkpt lat="40.7718212" lon="9.6550193"><ele>16.5</ele><time>2026-04-13T08:01:06.808Z</time></trkpt><trkpt lat="40.7719603" lon="9.6550922"><ele>16.0</ele><time>2026-04-13T08:01:07.8Z</time></trkpt><trkpt lat="40.7720898" lon="9.6551588"><ele>15.5</ele><time>2026-04-13T08:01:08.801Z</time></trkpt><trkpt lat="40.7722113" lon="9.6552195"><ele>15.0</ele><time>2026-04-13T08:01:09.803Z</time></trkpt><trkpt lat="40.7723324" lon="9.6552796"><ele>14.5</ele><time>2026-04-13T08:01:10.808Z</time></trkpt><trkpt lat="40.7724529" lon="9.6553402"><ele>14.0</ele><time>2026-04-13T08:01:11.803Z</time></trkpt><trkpt lat="40.7725717" lon="9.655406"><ele>13.5</ele><time>2026-04-13T08:01:12.808Z</time></trkpt><trkpt lat="40.7726873" lon="9.6554678"><ele>13.0</ele><time>2026-04-13T08:01:13.805Z</time></trkpt><trkpt lat="40.7727944" lon="9.6555184"><ele>13.0</ele><time>2026-04-13T08:01:14.808Z</time></trkpt><trkpt lat="40.7728925" lon="9.6555682"><ele>13.0</ele><time>2026-04-13T08:01:15.801Z</time></trkpt><trkpt lat="40.7729758" lon="9.655612"><ele>13.0</ele><time>2026-04-13T08:01:16.808Z</time></trkpt><trkpt lat="40.7730471" lon="9.655651"><ele>13.0</ele><time>2026-04-13T08:01:17.804Z</time></trkpt><trkpt lat="40.7731162" lon="9.6556839"><ele>13.0</ele><time>2026-04-13T08:01:18.821Z</time></trkpt><trkpt lat="40.7732277" lon="9.655738"><ele>13.0</ele><time>2026-04-13T08:01:20.796Z</time></trkpt><trkpt lat="40.7733074" lon="9.6557856"><ele>13.0</ele><time>2026-04-13T08:01:22.819Z</time></trkpt><trkpt lat="40.773376" lon="9.6558198"><ele>13.0</ele><time>2026-04-13T08:01:25.801Z</time></trkpt><trkpt lat="40.7734637" lon="9.6558315"><ele>13.0</ele><time>2026-04-13T08:02:48.768Z</time></trkpt><trkpt lat="40.7735835" lon="9.6558787"><ele>13.0</ele><time>2026-04-13T08:02:50.784Z</time></trkpt><trkpt lat="40.7736544" lon="9.655928"><ele>13.2</ele><time>2026-04-13T08:02:51.759Z</time></trkpt><trkpt lat="40.77373" lon="9.6559747"><ele>13.4</ele><time>2026-04-13T08:02:52.759Z</time></trkpt><trkpt lat="40.7738202" lon="9.6560198"><ele>13.599999999999998</ele><time>2026-04-13T08:02:53.752Z</time></trkpt><trkpt lat="40.7739232" lon="9.656063"><ele>13.799999999999999</ele><time>2026-04-13T08:02:54.769Z</time></trkpt><trkpt lat="40.7740373" lon="9.6561024"><ele>14.0</ele><time>2026-04-13T08:02:55.767Z</time></trkpt><trkpt lat="40.7741578" lon="9.6561458"><ele>13.25</ele><time>2026-04-13T08:02:56.775Z</time></trkpt><trkpt lat="40.7742915" lon="9.656194"><ele>12.5</ele><time>2026-04-13T08:02:57.768Z</time></trkpt><trkpt lat="40.7744356" lon="9.65624"><ele>11.75</ele><time>2026-04-13T08:02:58.766Z</time></trkpt><trkpt lat="40.7745806" lon="9.656284"><ele>11.0</ele><time>2026-04-13T08:02:59.753Z</time></trkpt><trkpt lat="40.7747261" lon="9.656328"><ele>11.0</ele><time>2026-04-13T08:03:00.764Z</time></trkpt><trkpt lat="40.7748676" lon="9.6563755"><ele>11.0</ele><time>2026-04-13T08:03:01.752Z</time></trkpt><trkpt lat="40.7750066" lon="9.6564232"><ele>11.0</ele><time>2026-04-13T08:03:02.763Z</time></trkpt><trkpt lat="40.7751473" lon="9.6564691"><ele>11.0</ele><time>2026-04-13T08:03:03.751Z</time></trkpt><trkpt lat="40.7752854" lon="9.6565096"><ele>11.0</ele><time>2026-04-13T08:03:04.772Z</time></trkpt><trkpt lat="40.7754241" lon="9.6565497"><ele>11.0</ele><time>2026-04-13T08:03:05.75Z</time></trkpt><trkpt lat="40.7755555" lon="9.6565938"><ele>11.0</ele><time>2026-04-13T08:03:06.755Z</time></trkpt><trkpt lat="40.7756883" lon="9.6566378"><ele>11.0</ele><time>2026-04-13T08:03:07.759Z</time></trkpt><trkpt lat="40.7758209" lon="9.6566793"><ele>11.0</ele><time>2026-04-13T08:03:08.761Z</time></trkpt><trkpt lat="40.7759539" lon="9.6567188"><ele>11.0</ele><time>2026-04-13T08:03:09.75Z</time></trkpt><trkpt lat="40.7760896" lon="9.6567637"><ele>11.0</ele><time>2026-04-13T08:03:10.75Z</time></trkpt><trkpt lat="40.7762284" lon="9.6568101"><ele>11.0</ele><time>2026-04-13T08:03:11.764Z</time></trkpt><trkpt lat="40.7763747" lon="9.6568558"><ele>10.666666666666666</ele><time>2026-04-13T08:03:12.758Z</time></trkpt><trkpt lat="40.7765265" lon="9.6568989"><ele>10.333333333333334</ele><time>2026-04-13T08:03:13.741Z</time></trkpt><trkpt lat="40.7766821" lon="9.6569458"><ele>10.0</ele><time>2026-04-13T08:03:14.752Z</time></trkpt><trkpt lat="40.776842" lon="9.6569852"><ele>9.0</ele><time>2026-04-13T08:03:15.757Z</time></trkpt><trkpt lat="40.7770067" lon="9.6570238"><ele>8.0</ele><time>2026-04-13T08:03:16.763Z</time></trkpt><trkpt lat="40.7771744" lon="9.6570584"><ele>7.0</ele><time>2026-04-13T08:03:17.737Z</time></trkpt><trkpt lat="40.7773492" lon="9.6570916"><ele>7.0</ele><time>2026-04-13T08:03:18.746Z</time></trkpt><trkpt lat="40.7775211" lon="9.6571312"><ele>7.0</ele><time>2026-04-13T08:03:19.75Z</time></trkpt><trkpt lat="40.777694" lon="9.657165"><ele>7.0</ele><time>2026-04-13T08:03:20.745Z</time></trkpt><trkpt lat="40.7778604" lon="9.6571958"><ele>7.25</ele><time>2026-04-13T08:03:21.761Z</time></trkpt><trkpt lat="40.7780127" lon="9.6572269"><ele>7.5</ele><time>2026-04-13T08:03:22.747Z</time></trkpt><trkpt lat="40.7781488" lon="9.6572558"><ele>7.75</ele><time>2026-04-13T08:03:23.738Z</time></trkpt><trkpt lat="40.7782567" lon="9.6572806"><ele>8.0</ele><time>2026-04-13T08:03:24.745Z</time></trkpt><trkpt lat="40.7783455" lon="9.6572998"><ele>7.999999999999999</ele><time>2026-04-13T08:03:25.74Z</time></trkpt><trkpt lat="40.7784187" lon="9.6573143"><ele>8.0</ele><time>2026-04-13T08:03:26.747Z</time></trkpt><trkpt lat="40.7785051" lon="9.6573366"><ele>8.0</ele><time>2026-04-13T08:03:28.773Z</time></trkpt><trkpt lat="40.7785715" lon="9.6573682"><ele>8.0</ele><time>2026-04-13T08:03:31.769Z</time></trkpt><trkpt lat="40.7786419" lon="9.6573782"><ele>7.999999999999999</ele><time>2026-04-13T08:03:44.735Z</time></trkpt><trkpt lat="40.7787197" lon="9.6573875"><ele>8.0</ele><time>2026-04-13T08:03:46.738Z</time></trkpt><trkpt lat="40.778823" lon="9.6574029"><ele>7.833333333333333</ele><time>2026-04-13T08:03:48.752Z</time></trkpt><trkpt lat="40.7788856" lon="9.6574127"><ele>7.666666666666666</ele><time>2026-04-13T08:03:49.746Z</time></trkpt><trkpt lat="40.778953" lon="9.6574233"><ele>7.5</ele><time>2026-04-13T08:03:50.733Z</time></trkpt><trkpt lat="40.7790261" lon="9.6574407"><ele>7.333333333333334</ele><time>2026-04-13T08:03:51.733Z</time></trkpt><trkpt lat="40.7791061" lon="9.6574594"><ele>7.166666666666667</ele><time>2026-04-13T08:03:52.726Z</time></trkpt><trkpt lat="40.7791927" lon="9.6574744"><ele>7.0</ele><time>2026-04-13T08:03:53.724Z</time></trkpt><trkpt lat="40.7792766" lon="9.6574885"><ele>7.0</ele><time>2026-04-13T08:03:54.733Z</time></trkpt><trkpt lat="40.7793609" lon="9.6575018"><ele>6.999999999999999</ele><time>2026-04-13T08:03:55.73Z</time></trkpt><trkpt lat="40.7794499" lon="9.6575166"><ele>6.999999999999999</ele><time>2026-04-13T08:03:56.74Z</time></trkpt><trkpt lat="40.7795416" lon="9.6575345"><ele>7.0</ele><time>2026-04-13T08:03:57.724Z</time></trkpt><trkpt lat="40.7796372" lon="9.6575529"><ele>7.0</ele><time>2026-04-13T08:03:58.735Z</time></trkpt><trkpt lat="40.7797354" lon="9.6575697"><ele>7.0</ele><time>2026-04-13T08:03:59.734Z</time></trkpt><trkpt lat="40.779832" lon="9.6575909"><ele>6.999999999999999</ele><time>2026-04-13T08:04:00.722Z</time></trkpt><trkpt lat="40.7799376" lon="9.6576158"><ele>6.999999999999999</ele><time>2026-04-13T08:04:01.721Z</time></trkpt><trkpt lat="40.7800495" lon="9.657636"><ele>7.0</ele><time>2026-04-13T08:04:02.723Z</time></trkpt><trkpt lat="40.7801623" lon="9.6576588"><ele>7.0</ele><time>2026-04-13T08:04:03.732Z</time></trkpt><trkpt lat="40.780279" lon="9.6576834"><ele>6.75</ele><time>2026-04-13T08:04:04.727Z</time></trkpt><trkpt lat="40.7804042" lon="9.6577044"><ele>6.5</ele><time>2026-04-13T08:04:05.722Z</time></trkpt><trkpt lat="40.7805333" lon="9.6577256"><ele>6.25</ele><time>2026-04-13T08:04:06.727Z</time></trkpt><trkpt lat="40.7806655" lon="9.6577425"><ele>6.0</ele><time>2026-04-13T08:04:07.743Z</time></trkpt><trkpt lat="40.7807972" lon="9.6577566"><ele>6.0</ele><time>2026-04-13T08:04:08.724Z</time></trkpt><trkpt lat="40.7809315" lon="9.6577679"><ele>6.0</ele><time>2026-04-13T08:04:09.72Z</time></trkpt><trkpt lat="40.7810655" lon="9.6577744"><ele>6.0</ele><time>2026-04-13T08:04:10.727Z</time></trkpt><trkpt lat="40.7812005" lon="9.6577813"><ele>6.0</ele><time>2026-04-13T08:04:11.733Z</time></trkpt><trkpt lat="40.781338" lon="9.657779"><ele>5.75</ele><time>2026-04-13T08:04:12.733Z</time></trkpt><trkpt lat="40.7814718" lon="9.6577743"><ele>5.5</ele><time>2026-04-13T08:04:13.718Z</time></trkpt><trkpt lat="40.7816053" lon="9.6577681"><ele>5.25</ele><time>2026-04-13T08:04:14.723Z</time></trkpt><trkpt lat="40.7817395" lon="9.6577603"><ele>5.0</ele><time>2026-04-13T08:04:15.729Z</time></trkpt><trkpt lat="40.7818763" lon="9.657753"><ele>4.75</ele><time>2026-04-13T08:04:16.728Z</time></trkpt><trkpt lat="40.7820185" lon="9.6577422"><ele>4.5</ele><time>2026-04-13T08:04:17.715Z</time></trkpt><trkpt lat="40.7821639" lon="9.6577302"><ele>4.25</ele><time>2026-04-13T08:04:18.728Z</time></trkpt><trkpt lat="40.7823098" lon="9.6577251"><ele>4.0</ele><time>2026-04-13T08:04:19.735Z</time></trkpt><trkpt lat="40.7824548" lon="9.6577231"><ele>4.0</ele><time>2026-04-13T08:04:20.719Z</time></trkpt><trkpt lat="40.7825972" lon="9.6577147"><ele>4.0</ele><time>2026-04-13T08:04:21.723Z</time></trkpt><trkpt lat="40.7827356" lon="9.6577043"><ele>4.0</ele><time>2026-04-13T08:04:22.72Z</time></trkpt><trkpt lat="40.7828747" lon="9.6576945"><ele>4.0</ele><time>2026-04-13T08:04:23.729Z</time></trkpt><trkpt lat="40.7830168" lon="9.6576865"><ele>4.0</ele><time>2026-04-13T08:04:24.731Z</time></trkpt><trkpt lat="40.7831598" lon="9.6576783"><ele>4.0</ele><time>2026-04-13T08:04:25.714Z</time></trkpt><trkpt lat="40.7833008" lon="9.6576687"><ele>4.0</ele><time>2026-04-13T08:04:26.835Z</time></trkpt><trkpt lat="40.7835845" lon="9.6576475"><ele>3.5</ele><time>2026-04-13T08:04:28.731Z</time></trkpt><trkpt lat="40.7837237" lon="9.6576368"><ele>3.0</ele><time>2026-04-13T08:04:29.727Z</time></trkpt><trkpt lat="40.7838565" lon="9.6576288"><ele>2.5</ele><time>2026-04-13T08:04:30.709Z</time></trkpt><trkpt lat="40.7839874" lon="9.6576223"><ele>2.0</ele><time>2026-04-13T08:04:31.712Z</time></trkpt><trkpt lat="40.7841099" lon="9.6576175"><ele>2.0</ele><time>2026-04-13T08:04:32.739Z</time></trkpt><trkpt lat="40.7842184" lon="9.6576188"><ele>2.0</ele><time>2026-04-13T08:04:33.718Z</time></trkpt><trkpt lat="40.7843226" lon="9.6576275"><ele>2.0</ele><time>2026-04-13T08:04:34.705Z</time></trkpt><trkpt lat="40.7844143" lon="9.6576564"><ele>2.0</ele><time>2026-04-13T08:04:35.719Z</time></trkpt><trkpt lat="40.7845005" lon="9.6576965"><ele>2.0</ele><time>2026-04-13T08:04:36.724Z</time></trkpt><trkpt lat="40.7845811" lon="9.6577253"><ele>2.0</ele><time>2026-04-13T08:04:37.715Z</time></trkpt><trkpt lat="40.7846665" lon="9.6577227"><ele>2.0</ele><time>2026-04-13T08:04:38.813Z</time></trkpt><trkpt lat="40.784759" lon="9.6576892"><ele>2.0</ele><time>2026-04-13T08:04:39.822Z</time></trkpt><trkpt lat="40.7848595" lon="9.6576329"><ele>2.0</ele><time>2026-04-13T08:04:40.805Z</time></trkpt><trkpt lat="40.784973" lon="9.6575868"><ele>2.0</ele><time>2026-04-13T08:04:41.809Z</time></trkpt><trkpt lat="40.7852533" lon="9.6575374"><ele>2.0</ele><time>2026-04-13T08:04:43.813Z</time></trkpt><trkpt lat="40.7854176" lon="9.6575241"><ele>2.0</ele><time>2026-04-13T08:04:44.807Z</time></trkpt><trkpt lat="40.7855983" lon="9.6575075"><ele>2.0</ele><time>2026-04-13T08:04:45.819Z</time></trkpt><trkpt lat="40.7857944" lon="9.6574967"><ele>2.0</ele><time>2026-04-13T08:04:46.809Z</time></trkpt><trkpt lat="40.7859983" lon="9.6574807"><ele>2.0</ele><time>2026-04-13T08:04:47.811Z</time></trkpt><trkpt lat="40.7862148" lon="9.6574639"><ele>2.0</ele><time>2026-04-13T08:04:48.803Z</time></trkpt><trkpt lat="40.7864369" lon="9.6574401"><ele>1.3333333333333333</ele><time>2026-04-13T08:04:49.802Z</time></trkpt><trkpt lat="40.7866561" lon="9.6574105"><ele>0.6666666666666666</ele><time>2026-04-13T08:04:50.806Z</time></trkpt><trkpt lat="40.7868573" lon="9.6573853"><ele>0.0</ele><time>2026-04-13T08:04:51.802Z</time></trkpt><trkpt lat="40.7870465" lon="9.6573653"><ele>0.0</ele><time>2026-04-13T08:04:52.815Z</time></trkpt><trkpt lat="40.7872243" lon="9.657343"><ele>0.0</ele><time>2026-04-13T08:04:53.817Z</time></trkpt><trkpt lat="40.7873971" lon="9.6573191"><ele>0.0</ele><time>2026-04-13T08:04:54.82Z</time></trkpt><trkpt lat="40.7875671" lon="9.6572866"><ele>0.3333333333333333</ele><time>2026-04-13T08:04:55.804Z</time></trkpt><trkpt lat="40.7877333" lon="9.6572491"><ele>0.6666666666666666</ele><time>2026-04-13T08:04:56.801Z</time></trkpt><trkpt lat="40.7878964" lon="9.6572016"><ele>1.0</ele><time>2026-04-13T08:04:57.801Z</time></trkpt><trkpt lat="40.7880579" lon="9.6571554"><ele>1.0</ele><time>2026-04-13T08:04:58.812Z</time></trkpt><trkpt lat="40.7882172" lon="9.6571071"><ele>1.0</ele><time>2026-04-13T08:04:59.808Z</time></trkpt><trkpt lat="40.7883719" lon="9.6570627"><ele>1.0</ele><time>2026-04-13T08:05:00.801Z</time></trkpt><trkpt lat="40.7885237" lon="9.6570155"><ele>1.0</ele><time>2026-04-13T08:05:01.802Z</time></trkpt><trkpt lat="40.7886715" lon="9.656973"><ele>1.0</ele><time>2026-04-13T08:05:02.82Z</time></trkpt><trkpt lat="40.7888176" lon="9.6569289"><ele>1.0</ele><time>2026-04-13T08:05:03.798Z</time></trkpt><trkpt lat="40.7889628" lon="9.6568836"><ele>1.0</ele><time>2026-04-13T08:05:04.801Z</time></trkpt><trkpt lat="40.789107" lon="9.6568406"><ele>1.0</ele><time>2026-04-13T08:05:05.806Z</time></trkpt><trkpt lat="40.7892511" lon="9.6567951"><ele>1.0</ele><time>2026-04-13T08:05:06.795Z</time></trkpt><trkpt lat="40.7893969" lon="9.6567505"><ele>1.0</ele><time>2026-04-13T08:05:07.802Z</time></trkpt><trkpt lat="40.7895403" lon="9.6567076"><ele>2.0</ele><time>2026-04-13T08:05:08.796Z</time></trkpt><trkpt lat="40.7896815" lon="9.6566658"><ele>3.0</ele><time>2026-04-13T08:05:09.801Z</time></trkpt><trkpt lat="40.7898251" lon="9.6566205"><ele>4.0</ele><time>2026-04-13T08:05:10.811Z</time></trkpt><trkpt lat="40.7899687" lon="9.6565761"><ele>5.0</ele><time>2026-04-13T08:05:11.803Z</time></trkpt><trkpt lat="40.7901121" lon="9.6565294"><ele>4.75</ele><time>2026-04-13T08:05:12.799Z</time></trkpt><trkpt lat="40.7902541" lon="9.6564834"><ele>4.5</ele><time>2026-04-13T08:05:13.799Z</time></trkpt><trkpt lat="40.7903971" lon="9.656441"><ele>4.25</ele><time>2026-04-13T08:05:14.792Z</time></trkpt><trkpt lat="40.7905417" lon="9.6563963"><ele>4.0</ele><time>2026-04-13T08:05:15.812Z</time></trkpt><trkpt lat="40.7906823" lon="9.6563531"><ele>4.0</ele><time>2026-04-13T08:05:16.79Z</time></trkpt><trkpt lat="40.7908251" lon="9.6563129"><ele>4.0</ele><time>2026-04-13T08:05:17.789Z</time></trkpt><trkpt lat="40.7909765" lon="9.6562756"><ele>4.0</ele><time>2026-04-13T08:05:18.803Z</time></trkpt><trkpt lat="40.7911323" lon="9.6562418"><ele>3.333333333333333</ele><time>2026-04-13T08:05:19.788Z</time></trkpt><trkpt lat="40.791295" lon="9.656214"><ele>2.6666666666666665</ele><time>2026-04-13T08:05:20.818Z</time></trkpt><trkpt lat="40.7914535" lon="9.6561911"><ele>2.0</ele><time>2026-04-13T08:05:21.803Z</time></trkpt><trkpt lat="40.7916084" lon="9.6561719"><ele>2.0</ele><time>2026-04-13T08:05:22.796Z</time></trkpt><trkpt lat="40.7917527" lon="9.6561576"><ele>2.0</ele><time>2026-04-13T08:05:23.807Z</time></trkpt><trkpt lat="40.7918977" lon="9.6561384"><ele>2.0</ele><time>2026-04-13T08:05:24.784Z</time></trkpt><trkpt lat="40.7920387" lon="9.6561232"><ele>2.0</ele><time>2026-04-13T08:05:25.792Z</time></trkpt><trkpt lat="40.7921762" lon="9.6561109"><ele>2.0</ele><time>2026-04-13T08:05:26.793Z</time></trkpt><trkpt lat="40.7923112" lon="9.6560939"><ele>2.0</ele><time>2026-04-13T08:05:27.803Z</time></trkpt><trkpt lat="40.7924442" lon="9.6560762"><ele>2.0</ele><time>2026-04-13T08:05:28.789Z</time></trkpt><trkpt lat="40.7925707" lon="9.656059"><ele>2.0</ele><time>2026-04-13T08:05:29.784Z</time></trkpt><trkpt lat="40.7926878" lon="9.6560459"><ele>2.1666666666666665</ele><time>2026-04-13T08:05:30.788Z</time></trkpt><trkpt lat="40.7927859" lon="9.6560395"><ele>2.333333333333333</ele><time>2026-04-13T08:05:31.798Z</time></trkpt><trkpt lat="40.7928739" lon="9.6560171"><ele>2.5</ele><time>2026-04-13T08:05:32.78Z</time></trkpt><trkpt lat="40.7929538" lon="9.6559848"><ele>2.6666666666666665</ele><time>2026-04-13T08:05:33.804Z</time></trkpt><trkpt lat="40.793006" lon="9.6559372"><ele>2.8333333333333335</ele><time>2026-04-13T08:05:34.799Z</time></trkpt><trkpt lat="40.7930456" lon="9.6558082"><ele>3.0</ele><time>2026-04-13T08:05:36.797Z</time></trkpt><trkpt lat="40.7930777" lon="9.6556419"><ele>3.0</ele><time>2026-04-13T08:05:38.795Z</time></trkpt><trkpt lat="40.7931034" lon="9.6555298"><ele>3.0</ele><time>2026-04-13T08:05:39.798Z</time></trkpt><trkpt lat="40.7931309" lon="9.6554132"><ele>3.0</ele><time>2026-04-13T08:05:40.789Z</time></trkpt><trkpt lat="40.7931603" lon="9.6552901"><ele>3.0</ele><time>2026-04-13T08:05:41.787Z</time></trkpt><trkpt lat="40.793193" lon="9.6551545"><ele>3.0</ele><time>2026-04-13T08:05:42.793Z</time></trkpt><trkpt lat="40.7932255" lon="9.6550021"><ele>2.75</ele><time>2026-04-13T08:05:43.794Z</time></trkpt><trkpt lat="40.7932633" lon="9.6548284"><ele>2.5</ele><time>2026-04-13T08:05:44.778Z</time></trkpt><trkpt lat="40.7933012" lon="9.6546533"><ele>2.25</ele><time>2026-04-13T08:05:45.801Z</time></trkpt><trkpt lat="40.7933431" lon="9.6544773"><ele>2.0</ele><time>2026-04-13T08:05:46.801Z</time></trkpt><trkpt lat="40.7933823" lon="9.6542965"><ele>2.5</ele><time>2026-04-13T08:05:47.798Z</time></trkpt><trkpt lat="40.7934222" lon="9.6541135"><ele>3.0</ele><time>2026-04-13T08:05:48.783Z</time></trkpt><trkpt lat="40.7934632" lon="9.6539288"><ele>3.5</ele><time>2026-04-13T08:05:49.789Z</time></trkpt><trkpt lat="40.7935024" lon="9.6537457"><ele>4.0</ele><time>2026-04-13T08:05:50.789Z</time></trkpt><trkpt lat="40.793545" lon="9.6535654"><ele>4.0</ele><time>2026-04-13T08:05:51.787Z</time></trkpt><trkpt lat="40.7935862" lon="9.6533779"><ele>4.0</ele><time>2026-04-13T08:05:52.781Z</time></trkpt><trkpt lat="40.7936268" lon="9.6531854"><ele>4.0</ele><time>2026-04-13T08:05:53.796Z</time></trkpt><trkpt lat="40.7936672" lon="9.6529938"><ele>4.0</ele><time>2026-04-13T08:05:54.791Z</time></trkpt><trkpt lat="40.7937097" lon="9.6528047"><ele>4.0</ele><time>2026-04-13T08:05:55.786Z</time></trkpt><trkpt lat="40.7937565" lon="9.6526165"><ele>4.0</ele><time>2026-04-13T08:05:56.786Z</time></trkpt><trkpt lat="40.7937993" lon="9.6524268"><ele>4.0</ele><time>2026-04-13T08:05:57.786Z</time></trkpt><trkpt lat="40.7938437" lon="9.6522347"><ele>4.5</ele><time>2026-04-13T08:05:58.794Z</time></trkpt><trkpt lat="40.7938888" lon="9.6520483"><ele>5.0</ele><time>2026-04-13T08:05:59.795Z</time></trkpt><trkpt lat="40.7939309" lon="9.6518619"><ele>5.5</ele><time>2026-04-13T08:06:00.785Z</time></trkpt><trkpt lat="40.7939711" lon="9.6516758"><ele>6.0</ele><time>2026-04-13T08:06:01.783Z</time></trkpt><trkpt lat="40.7940105" lon="9.6514901"><ele>6.0</ele><time>2026-04-13T08:06:02.789Z</time></trkpt><trkpt lat="40.794049" lon="9.6513092"><ele>6.0</ele><time>2026-04-13T08:06:03.778Z</time></trkpt><trkpt lat="40.794086" lon="9.6511342"><ele>6.0</ele><time>2026-04-13T08:06:04.785Z</time></trkpt><trkpt lat="40.7941195" lon="9.6509668"><ele>6.0</ele><time>2026-04-13T08:06:05.792Z</time></trkpt><trkpt lat="40.7941512" lon="9.6508123"><ele>6.4</ele><time>2026-04-13T08:06:06.804Z</time></trkpt><trkpt lat="40.7941819" lon="9.6506714"><ele>6.8</ele><time>2026-04-13T08:06:07.783Z</time></trkpt><trkpt lat="40.7942119" lon="9.6505382"><ele>7.200000000000001</ele><time>2026-04-13T08:06:08.78Z</time></trkpt><trkpt lat="40.7942399" lon="9.6504013"><ele>7.6000000000000005</ele><time>2026-04-13T08:06:09.774Z</time></trkpt><trkpt lat="40.7942757" lon="9.6502762"><ele>8.0</ele><time>2026-04-13T08:06:10.781Z</time></trkpt><trkpt lat="40.7943227" lon="9.6501565"><ele>8.25</ele><time>2026-04-13T08:06:11.781Z</time></trkpt><trkpt lat="40.7943867" lon="9.6500383"><ele>8.5</ele><time>2026-04-13T08:06:12.781Z</time></trkpt><trkpt lat="40.7944735" lon="9.6499188"><ele>8.75</ele><time>2026-04-13T08:06:13.774Z</time></trkpt><trkpt lat="40.7945799" lon="9.649812"><ele>9.0</ele><time>2026-04-13T08:06:14.785Z</time></trkpt><trkpt lat="40.7947032" lon="9.6497056"><ele>9.0</ele><time>2026-04-13T08:06:15.795Z</time></trkpt><trkpt lat="40.7948309" lon="9.649598"><ele>9.0</ele><time>2026-04-13T08:06:16.791Z</time></trkpt><trkpt lat="40.7949604" lon="9.6494884"><ele>9.0</ele><time>2026-04-13T08:06:17.774Z</time></trkpt><trkpt lat="40.795085" lon="9.6493861"><ele>8.75</ele><time>2026-04-13T08:06:18.774Z</time></trkpt><trkpt lat="40.7952071" lon="9.6492851"><ele>8.5</ele><time>2026-04-13T08:06:19.804Z</time></trkpt><trkpt lat="40.7953281" lon="9.649184"><ele>8.25</ele><time>2026-04-13T08:06:20.771Z</time></trkpt><trkpt lat="40.7954465" lon="9.6490819"><ele>8.0</ele><time>2026-04-13T08:06:21.768Z</time></trkpt><trkpt lat="40.795566" lon="9.6489797"><ele>8.0</ele><time>2026-04-13T08:06:22.787Z</time></trkpt><trkpt lat="40.7956877" lon="9.6488754"><ele>8.0</ele><time>2026-04-13T08:06:23.782Z</time></trkpt><trkpt lat="40.79581" lon="9.6487728"><ele>8.0</ele><time>2026-04-13T08:06:24.769Z</time></trkpt><trkpt lat="40.7959338" lon="9.6486648"><ele>8.0</ele><time>2026-04-13T08:06:25.789Z</time></trkpt><trkpt lat="40.7960597" lon="9.6485602"><ele>8.0</ele><time>2026-04-13T08:06:26.787Z</time></trkpt><trkpt lat="40.796184" lon="9.6484493"><ele>8.0</ele><time>2026-04-13T08:06:27.774Z</time></trkpt><trkpt lat="40.7963075" lon="9.6483418"><ele>8.0</ele><time>2026-04-13T08:06:28.778Z</time></trkpt><trkpt lat="40.796432" lon="9.6482364"><ele>8.0</ele><time>2026-04-13T08:06:29.769Z</time></trkpt><trkpt lat="40.7965536" lon="9.6481313"><ele>8.0</ele><time>2026-04-13T08:06:30.776Z</time></trkpt><trkpt lat="40.7966752" lon="9.6480294"><ele>8.0</ele><time>2026-04-13T08:06:31.771Z</time></trkpt><trkpt lat="40.7967948" lon="9.6479244"><ele>8.0</ele><time>2026-04-13T08:06:32.766Z</time></trkpt><trkpt lat="40.7969158" lon="9.6478175"><ele>8.0</ele><time>2026-04-13T08:06:33.779Z</time></trkpt><trkpt lat="40.7970294" lon="9.6477111"><ele>8.0</ele><time>2026-04-13T08:06:34.772Z</time></trkpt><trkpt lat="40.7971311" lon="9.6476027"><ele>8.0</ele><time>2026-04-13T08:06:35.779Z</time></trkpt><trkpt lat="40.7972218" lon="9.6474748"><ele>8.0</ele><time>2026-04-13T08:06:36.776Z</time></trkpt><trkpt lat="40.797299" lon="9.6473227"><ele>8.0</ele><time>2026-04-13T08:06:37.786Z</time></trkpt><trkpt lat="40.7973766" lon="9.6471541"><ele>8.0</ele><time>2026-04-13T08:06:38.769Z</time></trkpt><trkpt lat="40.7974536" lon="9.6469775"><ele>8.0</ele><time>2026-04-13T08:06:39.78Z</time></trkpt><trkpt lat="40.7975361" lon="9.6467977"><ele>8.0</ele><time>2026-04-13T08:06:40.79Z</time></trkpt><trkpt lat="40.7976233" lon="9.6466198"><ele>8.0</ele><time>2026-04-13T08:06:41.778Z</time></trkpt><trkpt lat="40.7977095" lon="9.6464447"><ele>8.0</ele><time>2026-04-13T08:06:42.764Z</time></trkpt><trkpt lat="40.7977951" lon="9.6462678"><ele>8.0</ele><time>2026-04-13T08:06:43.787Z</time></trkpt><trkpt lat="40.7978815" lon="9.6460898"><ele>8.666666666666666</ele><time>2026-04-13T08:06:44.774Z</time></trkpt><trkpt lat="40.7979661" lon="9.6459127"><ele>9.333333333333334</ele><time>2026-04-13T08:06:45.776Z</time></trkpt><trkpt lat="40.7980548" lon="9.6457343"><ele>10.0</ele><time>2026-04-13T08:06:46.779Z</time></trkpt><trkpt lat="40.7981414" lon="9.6455575"><ele>10.0</ele><time>2026-04-13T08:06:47.774Z</time></trkpt><trkpt lat="40.7982278" lon="9.6453748"><ele>10.0</ele><time>2026-04-13T08:06:48.763Z</time></trkpt><trkpt lat="40.7983126" lon="9.6451967"><ele>10.0</ele><time>2026-04-13T08:06:49.765Z</time></trkpt><trkpt lat="40.7983933" lon="9.645028"><ele>10.25</ele><time>2026-04-13T08:06:50.761Z</time></trkpt><trkpt lat="40.7984746" lon="9.6448856"><ele>10.5</ele><time>2026-04-13T08:06:51.767Z</time></trkpt><trkpt lat="40.7985526" lon="9.6447614"><ele>10.75</ele><time>2026-04-13T08:06:52.772Z</time></trkpt><trkpt lat="40.7986356" lon="9.6446619"><ele>11.0</ele><time>2026-04-13T08:06:53.763Z</time></trkpt><trkpt lat="40.7987243" lon="9.6445845"><ele>11.4</ele><time>2026-04-13T08:06:54.769Z</time></trkpt><trkpt lat="40.7988123" lon="9.6445242"><ele>11.8</ele><time>2026-04-13T08:06:55.769Z</time></trkpt><trkpt lat="40.7988989" lon="9.6444832"><ele>12.200000000000001</ele><time>2026-04-13T08:06:56.759Z</time></trkpt><trkpt lat="40.798988" lon="9.6444656"><ele>12.600000000000001</ele><time>2026-04-13T08:06:57.763Z</time></trkpt><trkpt lat="40.7990851" lon="9.644472"><ele>13.0</ele><time>2026-04-13T08:06:58.762Z</time></trkpt><trkpt lat="40.7991785" lon="9.6445029"><ele>13.0</ele><time>2026-04-13T08:06:59.777Z</time></trkpt><trkpt lat="40.7992814" lon="9.6445531"><ele>13.0</ele><time>2026-04-13T08:07:00.775Z</time></trkpt><trkpt lat="40.7993883" lon="9.6446115"><ele>13.0</ele><time>2026-04-13T08:07:01.761Z</time></trkpt><trkpt lat="40.7994974" lon="9.6446678"><ele>13.0</ele><time>2026-04-13T08:07:02.776Z</time></trkpt><trkpt lat="40.7996112" lon="9.6447127"><ele>12.75</ele><time>2026-04-13T08:07:03.764Z</time></trkpt><trkpt lat="40.7997226" lon="9.6447453"><ele>12.5</ele><time>2026-04-13T08:07:04.78Z</time></trkpt><trkpt lat="40.7998343" lon="9.6447558"><ele>12.25</ele><time>2026-04-13T08:07:05.765Z</time></trkpt><trkpt lat="40.7999514" lon="9.644739"><ele>12.0</ele><time>2026-04-13T08:07:06.761Z</time></trkpt><trkpt lat="40.8000653" lon="9.6447121"><ele>13.25</ele><time>2026-04-13T08:07:07.786Z</time></trkpt><trkpt lat="40.8001816" lon="9.6446785"><ele>14.5</ele><time>2026-04-13T08:07:08.774Z</time></trkpt><trkpt lat="40.8002972" lon="9.6446386"><ele>15.75</ele><time>2026-04-13T08:07:09.753Z</time></trkpt><trkpt lat="40.8004137" lon="9.6445956"><ele>17.0</ele><time>2026-04-13T08:07:10.75Z</time></trkpt><trkpt lat="40.8005251" lon="9.6445606"><ele>17.0</ele><time>2026-04-13T08:07:11.772Z</time></trkpt><trkpt lat="40.8006261" lon="9.6445329"><ele>17.0</ele><time>2026-04-13T08:07:12.781Z</time></trkpt><trkpt lat="40.8007212" lon="9.6445481"><ele>17.0</ele><time>2026-04-13T08:07:13.751Z</time></trkpt><trkpt lat="40.8008102" lon="9.6445933"><ele>17.0</ele><time>2026-04-13T08:07:14.753Z</time></trkpt><trkpt lat="40.8009001" lon="9.6446745"><ele>17.0</ele><time>2026-04-13T08:07:15.768Z</time></trkpt><trkpt lat="40.8009876" lon="9.6447638"><ele>19.0</ele><time>2026-04-13T08:07:16.76Z</time></trkpt><trkpt lat="40.8010794" lon="9.6448577"><ele>21.0</ele><time>2026-04-13T08:07:17.768Z</time></trkpt><trkpt lat="40.8011838" lon="9.6449474"><ele>23.0</ele><time>2026-04-13T08:07:18.751Z</time></trkpt><trkpt lat="40.8012932" lon="9.6450227"><ele>25.0</ele><time>2026-04-13T08:07:19.773Z</time></trkpt><trkpt lat="40.8014009" lon="9.6450918"><ele>25.0</ele><time>2026-04-13T08:07:20.762Z</time></trkpt><trkpt lat="40.8015055" lon="9.6451624"><ele>25.0</ele><time>2026-04-13T08:07:21.763Z</time></trkpt><trkpt lat="40.8015995" lon="9.6452304"><ele>25.0</ele><time>2026-04-13T08:07:22.768Z</time></trkpt><trkpt lat="40.8016828" lon="9.6452943"><ele>25.0</ele><time>2026-04-13T08:07:23.772Z</time></trkpt><trkpt lat="40.801765" lon="9.6453502"><ele>25.0</ele><time>2026-04-13T08:07:24.754Z</time></trkpt><trkpt lat="40.8018561" lon="9.6453888"><ele>24.6</ele><time>2026-04-13T08:07:25.747Z</time></trkpt><trkpt lat="40.8019509" lon="9.6454052"><ele>24.2</ele><time>2026-04-13T08:07:26.749Z</time></trkpt><trkpt lat="40.8020601" lon="9.645402"><ele>23.799999999999997</ele><time>2026-04-13T08:07:27.771Z</time></trkpt><trkpt lat="40.802176" lon="9.6453912"><ele>23.4</ele><time>2026-04-13T08:07:28.773Z</time></trkpt><trkpt lat="40.8022905" lon="9.6453851"><ele>23.0</ele><time>2026-04-13T08:07:29.753Z</time></trkpt><trkpt lat="40.802397" lon="9.645383"><ele>23.0</ele><time>2026-04-13T08:07:30.753Z</time></trkpt><trkpt lat="40.8024882" lon="9.6453918"><ele>23.0</ele><time>2026-04-13T08:07:31.764Z</time></trkpt><trkpt lat="40.8025588" lon="9.6453932"><ele>23.0</ele><time>2026-04-13T08:07:32.759Z</time></trkpt><trkpt lat="40.8026332" lon="9.6453216"><ele>23.0</ele><time>2026-04-13T08:07:34.803Z</time></trkpt><trkpt lat="40.802686" lon="9.645168"><ele>23.0</ele><time>2026-04-13T08:07:36.75Z</time></trkpt><trkpt lat="40.802703" lon="9.6450816"><ele>23.0</ele><time>2026-04-13T08:07:37.777Z</time></trkpt><trkpt lat="40.8027055" lon="9.6449878"><ele>25.799999999999997</ele><time>2026-04-13T08:07:38.755Z</time></trkpt><trkpt lat="40.8027057" lon="9.6449013"><ele>28.6</ele><time>2026-04-13T08:07:39.744Z</time></trkpt><trkpt lat="40.8027231" lon="9.6447481"><ele>31.400000000000002</ele><time>2026-04-13T08:07:41.757Z</time></trkpt><trkpt lat="40.8027958" lon="9.6446193"><ele>34.2</ele><time>2026-04-13T08:07:43.772Z</time></trkpt><trkpt lat="40.8028596" lon="9.6445571"><ele>37.0</ele><time>2026-04-13T08:07:44.765Z</time></trkpt><trkpt lat="40.8029396" lon="9.644485"><ele>36.833333333333336</ele><time>2026-04-13T08:07:45.773Z</time></trkpt><trkpt lat="40.803017" lon="9.6444254"><ele>36.66666666666667</ele><time>2026-04-13T08:07:46.749Z</time></trkpt><trkpt lat="40.803087" lon="9.6443656"><ele>36.5</ele><time>2026-04-13T08:07:47.752Z</time></trkpt><trkpt lat="40.8031541" lon="9.6443081"><ele>36.333333333333336</ele><time>2026-04-13T08:07:48.757Z</time></trkpt><trkpt lat="40.8032001" lon="9.6442351"><ele>36.166666666666664</ele><time>2026-04-13T08:07:49.749Z</time></trkpt><trkpt lat="40.8032261" lon="9.6441527"><ele>36.0</ele><time>2026-04-13T08:07:50.765Z</time></trkpt><trkpt lat="40.8032377" lon="9.6440541"><ele>36.0</ele><time>2026-04-13T08:07:51.757Z</time></trkpt><trkpt lat="40.8032458" lon="9.6439477"><ele>36.0</ele><time>2026-04-13T08:07:52.754Z</time></trkpt><trkpt lat="40.8032687" lon="9.6438354"><ele>36.0</ele><time>2026-04-13T08:07:53.751Z</time></trkpt><trkpt lat="40.8033031" lon="9.6437296"><ele>36.0</ele><time>2026-04-13T08:07:54.742Z</time></trkpt><trkpt lat="40.8033448" lon="9.6436198"><ele>36.0</ele><time>2026-04-13T08:07:55.766Z</time></trkpt><trkpt lat="40.8033911" lon="9.6434972"><ele>35.0</ele><time>2026-04-13T08:07:56.752Z</time></trkpt><trkpt lat="40.8034395" lon="9.6433702"><ele>34.0</ele><time>2026-04-13T08:07:57.738Z</time></trkpt><trkpt lat="40.8034875" lon="9.6432469"><ele>33.0</ele><time>2026-04-13T08:07:58.745Z</time></trkpt><trkpt lat="40.8035402" lon="9.6431295"><ele>32.0</ele><time>2026-04-13T08:07:59.75Z</time></trkpt><trkpt lat="40.8035985" lon="9.6430269"><ele>31.0</ele><time>2026-04-13T08:08:00.753Z</time></trkpt><trkpt lat="40.8036657" lon="9.6429499"><ele>33.833333333333336</ele><time>2026-04-13T08:08:01.737Z</time></trkpt><trkpt lat="40.803742" lon="9.6428852"><ele>36.66666666666667</ele><time>2026-04-13T08:08:02.76Z</time></trkpt><trkpt lat="40.8038263" lon="9.6428261"><ele>39.5</ele><time>2026-04-13T08:08:03.755Z</time></trkpt><trkpt lat="40.8039007" lon="9.6427624"><ele>42.333333333333336</ele><time>2026-04-13T08:08:04.745Z</time></trkpt><trkpt lat="40.8039515" lon="9.6426829"><ele>45.166666666666664</ele><time>2026-04-13T08:08:05.747Z</time></trkpt><trkpt lat="40.8039766" lon="9.6425754"><ele>48.0</ele><time>2026-04-13T08:08:06.75Z</time></trkpt><trkpt lat="40.8039906" lon="9.64245"><ele>48.0</ele><time>2026-04-13T08:08:07.744Z</time></trkpt><trkpt lat="40.8040043" lon="9.6423091"><ele>48.0</ele><time>2026-04-13T08:08:08.744Z</time></trkpt><trkpt lat="40.8040252" lon="9.6421676"><ele>48.0</ele><time>2026-04-13T08:08:09.742Z</time></trkpt><trkpt lat="40.804054" lon="9.6420206"><ele>48.0</ele><time>2026-04-13T08:08:10.736Z</time></trkpt><trkpt lat="40.804086" lon="9.6418693"><ele>46.75</ele><time>2026-04-13T08:08:11.751Z</time></trkpt><trkpt lat="40.8041167" lon="9.6417086"><ele>45.5</ele><time>2026-04-13T08:08:12.747Z</time></trkpt><trkpt lat="40.8041561" lon="9.6415409"><ele>44.25</ele><time>2026-04-13T08:08:13.742Z</time></trkpt><trkpt lat="40.8042004" lon="9.6413723"><ele>43.0</ele><time>2026-04-13T08:08:14.739Z</time></trkpt><trkpt lat="40.8042421" lon="9.6412156"><ele>42.0</ele><time>2026-04-13T08:08:15.733Z</time></trkpt><trkpt lat="40.8042798" lon="9.6410593"><ele>41.0</ele><time>2026-04-13T08:08:16.752Z</time></trkpt><trkpt lat="40.8043143" lon="9.6409027"><ele>40.0</ele><time>2026-04-13T08:08:17.757Z</time></trkpt><trkpt lat="40.804337" lon="9.6407506"><ele>39.0</ele><time>2026-04-13T08:08:18.831Z</time></trkpt><trkpt lat="40.8043465" lon="9.6406047"><ele>39.0</ele><time>2026-04-13T08:08:19.737Z</time></trkpt><trkpt lat="40.8043366" lon="9.6404654"><ele>39.0</ele><time>2026-04-13T08:08:20.736Z</time></trkpt><trkpt lat="40.8043207" lon="9.6403241"><ele>39.0</ele><time>2026-04-13T08:08:21.737Z</time></trkpt><trkpt lat="40.804302" lon="9.6401764"><ele>39.0</ele><time>2026-04-13T08:08:22.743Z</time></trkpt><trkpt lat="40.8042804" lon="9.6400347"><ele>39.0</ele><time>2026-04-13T08:08:23.738Z</time></trkpt><trkpt lat="40.8042498" lon="9.6398861"><ele>40.0</ele><time>2026-04-13T08:08:24.737Z</time></trkpt><trkpt lat="40.8042165" lon="9.6397399"><ele>41.0</ele><time>2026-04-13T08:08:25.74Z</time></trkpt><trkpt lat="40.8041816" lon="9.6395933"><ele>42.0</ele><time>2026-04-13T08:08:26.737Z</time></trkpt><trkpt lat="40.8041544" lon="9.6394329"><ele>43.0</ele><time>2026-04-13T08:08:27.725Z</time></trkpt><trkpt lat="40.8041379" lon="9.6392662"><ele>43.5</ele><time>2026-04-13T08:08:28.744Z</time></trkpt><trkpt lat="40.804122" lon="9.6390976"><ele>44.0</ele><time>2026-04-13T08:08:29.732Z</time></trkpt><trkpt lat="40.8041006" lon="9.6389379"><ele>44.5</ele><time>2026-04-13T08:08:30.729Z</time></trkpt><trkpt lat="40.8040784" lon="9.6387977"><ele>45.0</ele><time>2026-04-13T08:08:31.752Z</time></trkpt><trkpt lat="40.80407" lon="9.6386748"><ele>44.2</ele><time>2026-04-13T08:08:32.736Z</time></trkpt><trkpt lat="40.8040757" lon="9.638566"><ele>43.4</ele><time>2026-04-13T08:08:33.727Z</time></trkpt><trkpt lat="40.8040966" lon="9.6384607"><ele>42.599999999999994</ele><time>2026-04-13T08:08:34.734Z</time></trkpt><trkpt lat="40.8041251" lon="9.6383469"><ele>41.8</ele><time>2026-04-13T08:08:35.737Z</time></trkpt><trkpt lat="40.804154" lon="9.6382084"><ele>41.0</ele><time>2026-04-13T08:08:36.735Z</time></trkpt><trkpt lat="40.8041698" lon="9.6380542"><ele>41.0</ele><time>2026-04-13T08:08:37.73Z</time></trkpt><trkpt lat="40.8041772" lon="9.6378924"><ele>41.0</ele><time>2026-04-13T08:08:38.736Z</time></trkpt><trkpt lat="40.8041823" lon="9.6377206"><ele>41.0</ele><time>2026-04-13T08:08:39.733Z</time></trkpt><trkpt lat="40.8041902" lon="9.6375442"><ele>41.0</ele><time>2026-04-13T08:08:40.741Z</time></trkpt><trkpt lat="40.8041956" lon="9.6373619"><ele>40.5</ele><time>2026-04-13T08:08:41.73Z</time></trkpt><trkpt lat="40.8042032" lon="9.6371811"><ele>40.0</ele><time>2026-04-13T08:08:42.739Z</time></trkpt><trkpt lat="40.8042146" lon="9.6370025"><ele>39.5</ele><time>2026-04-13T08:08:43.737Z</time></trkpt><trkpt lat="40.8042261" lon="9.636821"><ele>39.0</ele><time>2026-04-13T08:08:44.732Z</time></trkpt><trkpt lat="40.8042448" lon="9.6366391"><ele>40.25</ele><time>2026-04-13T08:08:45.735Z</time></trkpt><trkpt lat="40.8042693" lon="9.636462"><ele>41.5</ele><time>2026-04-13T08:08:46.74Z</time></trkpt><trkpt lat="40.8042986" lon="9.6362893"><ele>42.75</ele><time>2026-04-13T08:08:47.735Z</time></trkpt><trkpt lat="40.8043284" lon="9.6361152"><ele>44.0</ele><time>2026-04-13T08:08:48.736Z</time></trkpt><trkpt lat="40.8043587" lon="9.6359373"><ele>44.0</ele><time>2026-04-13T08:08:49.726Z</time></trkpt><trkpt lat="40.8043926" lon="9.6357603"><ele>44.0</ele><time>2026-04-13T08:08:50.734Z</time></trkpt><trkpt lat="40.8044238" lon="9.6355871"><ele>44.0</ele><time>2026-04-13T08:08:51.726Z</time></trkpt><trkpt lat="40.8044594" lon="9.6354175"><ele>44.0</ele><time>2026-04-13T08:08:52.724Z</time></trkpt><trkpt lat="40.8044948" lon="9.6352493"><ele>43.0</ele><time>2026-04-13T08:08:53.737Z</time></trkpt><trkpt lat="40.8045234" lon="9.6350865"><ele>42.0</ele><time>2026-04-13T08:08:54.725Z</time></trkpt><trkpt lat="40.8045466" lon="9.6349318"><ele>41.0</ele><time>2026-04-13T08:08:55.724Z</time></trkpt><trkpt lat="40.8045552" lon="9.6347843"><ele>40.0</ele><time>2026-04-13T08:08:56.736Z</time></trkpt><trkpt lat="40.804541" lon="9.6346468"><ele>40.0</ele><time>2026-04-13T08:08:57.728Z</time></trkpt><trkpt lat="40.804519" lon="9.6345099"><ele>40.0</ele><time>2026-04-13T08:08:58.748Z</time></trkpt><trkpt lat="40.8044962" lon="9.6343614"><ele>40.0</ele><time>2026-04-13T08:08:59.738Z</time></trkpt><trkpt lat="40.8044772" lon="9.634206"><ele>40.0</ele><time>2026-04-13T08:09:00.724Z</time></trkpt><trkpt lat="40.8044615" lon="9.6340403"><ele>40.5</ele><time>2026-04-13T08:09:01.721Z</time></trkpt><trkpt lat="40.8044462" lon="9.6338826"><ele>41.0</ele><time>2026-04-13T08:09:02.733Z</time></trkpt><trkpt lat="40.8044339" lon="9.6337372"><ele>41.5</ele><time>2026-04-13T08:09:03.736Z</time></trkpt><trkpt lat="40.8044328" lon="9.6335969"><ele>42.0</ele><time>2026-04-13T08:09:04.724Z</time></trkpt><trkpt lat="40.8044532" lon="9.6334488"><ele>42.0</ele><time>2026-04-13T08:09:05.717Z</time></trkpt><trkpt lat="40.8044695" lon="9.6332941"><ele>42.0</ele><time>2026-04-13T08:09:06.753Z</time></trkpt><trkpt lat="40.8044745" lon="9.6331343"><ele>42.0</ele><time>2026-04-13T08:09:07.729Z</time></trkpt><trkpt lat="40.8044646" lon="9.6329751"><ele>42.0</ele><time>2026-04-13T08:09:08.727Z</time></trkpt><trkpt lat="40.8044424" lon="9.6328115"><ele>41.5</ele><time>2026-04-13T08:09:09.736Z</time></trkpt><trkpt lat="40.8044125" lon="9.6326335"><ele>41.0</ele><time>2026-04-13T08:09:10.721Z</time></trkpt><trkpt lat="40.8043814" lon="9.6324466"><ele>40.5</ele><time>2026-04-13T08:09:11.717Z</time></trkpt><trkpt lat="40.8043499" lon="9.6322546"><ele>40.0</ele><time>2026-04-13T08:09:12.73Z</time></trkpt><trkpt lat="40.8043199" lon="9.6320675"><ele>37.5</ele><time>2026-04-13T08:09:13.725Z</time></trkpt><trkpt lat="40.8042871" lon="9.6318873"><ele>35.0</ele><time>2026-04-13T08:09:14.713Z</time></trkpt><trkpt lat="40.8042567" lon="9.6317262"><ele>32.5</ele><time>2026-04-13T08:09:15.729Z</time></trkpt><trkpt lat="40.8042303" lon="9.6315795"><ele>30.0</ele><time>2026-04-13T08:09:16.716Z</time></trkpt><trkpt lat="40.8042066" lon="9.631444"><ele>30.0</ele><time>2026-04-13T08:09:17.742Z</time></trkpt><trkpt lat="40.8041963" lon="9.6313164"><ele>30.0</ele><time>2026-04-13T08:09:18.711Z</time></trkpt><trkpt lat="40.8041997" lon="9.6311856"><ele>30.0</ele><time>2026-04-13T08:09:19.713Z</time></trkpt><trkpt lat="40.8042106" lon="9.6310313"><ele>30.0</ele><time>2026-04-13T08:09:20.732Z</time></trkpt><trkpt lat="40.804231" lon="9.6308619"><ele>30.0</ele><time>2026-04-13T08:09:21.731Z</time></trkpt><trkpt lat="40.8042546" lon="9.6306871"><ele>30.2</ele><time>2026-04-13T08:09:22.722Z</time></trkpt><trkpt lat="40.8042759" lon="9.630535"><ele>30.4</ele><time>2026-04-13T08:09:23.706Z</time></trkpt><trkpt lat="40.8042769" lon="9.6303949"><ele>30.6</ele><time>2026-04-13T08:09:24.714Z</time></trkpt><trkpt lat="40.8042643" lon="9.6302524"><ele>30.8</ele><time>2026-04-13T08:09:25.72Z</time></trkpt><trkpt lat="40.8042442" lon="9.6301042"><ele>31.0</ele><time>2026-04-13T08:09:26.709Z</time></trkpt><trkpt lat="40.804217" lon="9.6299476"><ele>31.0</ele><time>2026-04-13T08:09:27.715Z</time></trkpt><trkpt lat="40.8041858" lon="9.6297939"><ele>31.0</ele><time>2026-04-13T08:09:28.713Z</time></trkpt><trkpt lat="40.8041479" lon="9.6296443"><ele>31.0</ele><time>2026-04-13T08:09:29.708Z</time></trkpt><trkpt lat="40.8041112" lon="9.6295022"><ele>31.0</ele><time>2026-04-13T08:09:30.719Z</time></trkpt><trkpt lat="40.8040758" lon="9.6293703"><ele>31.25</ele><time>2026-04-13T08:09:31.71Z</time></trkpt><trkpt lat="40.804037" lon="9.6292334"><ele>31.5</ele><time>2026-04-13T08:09:32.708Z</time></trkpt><trkpt lat="40.804001" lon="9.6290954"><ele>31.75</ele><time>2026-04-13T08:09:33.709Z</time></trkpt><trkpt lat="40.8039648" lon="9.6289388"><ele>32.0</ele><time>2026-04-13T08:09:34.714Z</time></trkpt><trkpt lat="40.8039188" lon="9.6287737"><ele>32.75</ele><time>2026-04-13T08:09:35.711Z</time></trkpt><trkpt lat="40.8038679" lon="9.6286081"><ele>33.5</ele><time>2026-04-13T08:09:36.718Z</time></trkpt><trkpt lat="40.8038121" lon="9.6284501"><ele>34.25</ele><time>2026-04-13T08:09:37.722Z</time></trkpt><trkpt lat="40.8037574" lon="9.6283022"><ele>35.0</ele><time>2026-04-13T08:09:38.705Z</time></trkpt><trkpt lat="40.8037135" lon="9.6281788"><ele>35.0</ele><time>2026-04-13T08:09:39.704Z</time></trkpt><trkpt lat="40.8036736" lon="9.6280587"><ele>35.0</ele><time>2026-04-13T08:09:40.709Z</time></trkpt><trkpt lat="40.8036353" lon="9.6279394"><ele>35.0</ele><time>2026-04-13T08:09:41.707Z</time></trkpt><trkpt lat="40.8036085" lon="9.6278167"><ele>35.0</ele><time>2026-04-13T08:09:42.703Z</time></trkpt><trkpt lat="40.8035936" lon="9.6276893"><ele>35.0</ele><time>2026-04-13T08:09:43.711Z</time></trkpt><trkpt lat="40.8035865" lon="9.6275435"><ele>35.2</ele><time>2026-04-13T08:09:44.709Z</time></trkpt><trkpt lat="40.8035932" lon="9.627403"><ele>35.4</ele><time>2026-04-13T08:09:45.704Z</time></trkpt><trkpt lat="40.8036" lon="9.6272698"><ele>35.6</ele><time>2026-04-13T08:09:46.821Z</time></trkpt><trkpt lat="40.8036029" lon="9.6271387"><ele>35.8</ele><time>2026-04-13T08:09:47.805Z</time></trkpt><trkpt lat="40.803597" lon="9.6270007"><ele>36.0</ele><time>2026-04-13T08:09:48.817Z</time></trkpt><trkpt lat="40.8035853" lon="9.626761"><ele>36.4</ele><time>2026-04-13T08:09:50.707Z</time></trkpt><trkpt lat="40.8035921" lon="9.62664"><ele>36.8</ele><time>2026-04-13T08:09:51.706Z</time></trkpt><trkpt lat="40.80361" lon="9.6265127"><ele>37.199999999999996</ele><time>2026-04-13T08:09:52.809Z</time></trkpt><trkpt lat="40.8036275" lon="9.6263733"><ele>37.6</ele><time>2026-04-13T08:09:53.819Z</time></trkpt><trkpt lat="40.8036478" lon="9.6262372"><ele>38.0</ele><time>2026-04-13T08:09:54.805Z</time></trkpt><trkpt lat="40.8036702" lon="9.6261057"><ele>38.199999999999996</ele><time>2026-04-13T08:09:55.807Z</time></trkpt><trkpt lat="40.8036992" lon="9.6258693"><ele>38.4</ele><time>2026-04-13T08:09:57.812Z</time></trkpt><trkpt lat="40.803711" lon="9.6257574"><ele>38.599999999999994</ele><time>2026-04-13T08:09:58.803Z</time></trkpt><trkpt lat="40.8037196" lon="9.6256465"><ele>38.8</ele><time>2026-04-13T08:09:59.814Z</time></trkpt><trkpt lat="40.8037254" lon="9.6255418"><ele>39.0</ele><time>2026-04-13T08:10:00.805Z</time></trkpt><trkpt lat="40.8037312" lon="9.6254469"><ele>39.0</ele><time>2026-04-13T08:10:01.804Z</time></trkpt><trkpt lat="40.8037404" lon="9.6253565"><ele>39.0</ele><time>2026-04-13T08:10:02.807Z</time></trkpt><trkpt lat="40.8037544" lon="9.6252671"><ele>39.0</ele><time>2026-04-13T08:10:03.805Z</time></trkpt><trkpt lat="40.8037595" lon="9.6251741"><ele>39.0</ele><time>2026-04-13T08:10:04.804Z</time></trkpt><trkpt lat="40.8037579" lon="9.6250801"><ele>39.0</ele><time>2026-04-13T08:10:05.807Z</time></trkpt><trkpt lat="40.8037605" lon="9.6249728"><ele>39.0</ele><time>2026-04-13T08:10:06.798Z</time></trkpt><trkpt lat="40.8037674" lon="9.6248591"><ele>39.0</ele><time>2026-04-13T08:10:07.8Z</time></trkpt><trkpt lat="40.8037741" lon="9.6247368"><ele>39.0</ele><time>2026-04-13T08:10:08.796Z</time></trkpt><trkpt lat="40.8037799" lon="9.6246086"><ele>39.0</ele><time>2026-04-13T08:10:09.797Z</time></trkpt><trkpt lat="40.803786" lon="9.6244746"><ele>39.0</ele><time>2026-04-13T08:10:10.803Z</time></trkpt><trkpt lat="40.803794" lon="9.6243357"><ele>39.0</ele><time>2026-04-13T08:10:11.81Z</time></trkpt><trkpt lat="40.8037943" lon="9.6242044"><ele>39.0</ele><time>2026-04-13T08:10:12.802Z</time></trkpt><trkpt lat="40.8037977" lon="9.6240786"><ele>39.0</ele><time>2026-04-13T08:10:13.793Z</time></trkpt><trkpt lat="40.8038041" lon="9.623955"><ele>39.0</ele><time>2026-04-13T08:10:14.807Z</time></trkpt><trkpt lat="40.803809" lon="9.6238252"><ele>39.0</ele><time>2026-04-13T08:10:15.796Z</time></trkpt><trkpt lat="40.8038132" lon="9.623697"><ele>39.0</ele><time>2026-04-13T08:10:16.795Z</time></trkpt><trkpt lat="40.803817" lon="9.6235816"><ele>39.0</ele><time>2026-04-13T08:10:17.795Z</time></trkpt><trkpt lat="40.8038233" lon="9.6234779"><ele>39.0</ele><time>2026-04-13T08:10:18.8Z</time></trkpt><trkpt lat="40.8038283" lon="9.6233708"><ele>39.0</ele><time>2026-04-13T08:10:19.792Z</time></trkpt><trkpt lat="40.8038287" lon="9.6232625"><ele>39.0</ele><time>2026-04-13T08:10:20.789Z</time></trkpt><trkpt lat="40.8038323" lon="9.623149"><ele>39.0</ele><time>2026-04-13T08:10:21.792Z</time></trkpt><trkpt lat="40.8038316" lon="9.6230374"><ele>39.0</ele><time>2026-04-13T08:10:22.793Z</time></trkpt><trkpt lat="40.8038342" lon="9.6229371"><ele>39.0</ele><time>2026-04-13T08:10:23.795Z</time></trkpt><trkpt lat="40.8038379" lon="9.6228407"><ele>39.5</ele><time>2026-04-13T08:10:24.791Z</time></trkpt><trkpt lat="40.8038387" lon="9.6227537"><ele>40.0</ele><time>2026-04-13T08:10:25.795Z</time></trkpt><trkpt lat="40.8038401" lon="9.6226608"><ele>40.5</ele><time>2026-04-13T08:10:26.792Z</time></trkpt><trkpt lat="40.8038394" lon="9.6225626"><ele>41.0</ele><time>2026-04-13T08:10:27.79Z</time></trkpt><trkpt lat="40.8038388" lon="9.6224548"><ele>41.5</ele><time>2026-04-13T08:10:28.792Z</time></trkpt><trkpt lat="40.8038402" lon="9.6223368"><ele>42.0</ele><time>2026-04-13T08:10:29.792Z</time></trkpt><trkpt lat="40.8038413" lon="9.6222125"><ele>42.0</ele><time>2026-04-13T08:10:30.803Z</time></trkpt><trkpt lat="40.8038412" lon="9.6220902"><ele>42.0</ele><time>2026-04-13T08:10:31.798Z</time></trkpt><trkpt lat="40.8038407" lon="9.6219754"><ele>42.0</ele><time>2026-04-13T08:10:32.791Z</time></trkpt><trkpt lat="40.8038369" lon="9.6218679"><ele>42.0</ele><time>2026-04-13T08:10:33.79Z</time></trkpt><trkpt lat="40.8038375" lon="9.6217633"><ele>42.0</ele><time>2026-04-13T08:10:34.786Z</time></trkpt><trkpt lat="40.8038412" lon="9.6216493"><ele>42.0</ele><time>2026-04-13T08:10:35.796Z</time></trkpt><trkpt lat="40.8038397" lon="9.6215369"><ele>42.5</ele><time>2026-04-13T08:10:36.786Z</time></trkpt><trkpt lat="40.8038408" lon="9.6214265"><ele>43.0</ele><time>2026-04-13T08:10:37.786Z</time></trkpt><trkpt lat="40.803848" lon="9.6213094"><ele>43.5</ele><time>2026-04-13T08:10:38.797Z</time></trkpt><trkpt lat="40.8038491" lon="9.6211881"><ele>44.0</ele><time>2026-04-13T08:10:39.792Z</time></trkpt><trkpt lat="40.8038502" lon="9.6210728"><ele>44.5</ele><time>2026-04-13T08:10:40.783Z</time></trkpt><trkpt lat="40.8038485" lon="9.6209528"><ele>45.0</ele><time>2026-04-13T08:10:41.788Z</time></trkpt><trkpt lat="40.8038444" lon="9.6208222"><ele>46.75</ele><time>2026-04-13T08:10:42.787Z</time></trkpt><trkpt lat="40.8038378" lon="9.6206703"><ele>48.5</ele><time>2026-04-13T08:10:43.788Z</time></trkpt><trkpt lat="40.8038331" lon="9.6205092"><ele>50.25</ele><time>2026-04-13T08:10:44.794Z</time></trkpt><trkpt lat="40.8038278" lon="9.6203401"><ele>52.0</ele><time>2026-04-13T08:10:45.78Z</time></trkpt><trkpt lat="40.8038288" lon="9.6201759"><ele>52.0</ele><time>2026-04-13T08:10:46.813Z</time></trkpt><trkpt lat="40.8038298" lon="9.6200273"><ele>52.0</ele><time>2026-04-13T08:10:47.794Z</time></trkpt><trkpt lat="40.8038278" lon="9.6198783"><ele>52.0</ele><time>2026-04-13T08:10:48.785Z</time></trkpt><trkpt lat="40.8038246" lon="9.6197234"><ele>52.0</ele><time>2026-04-13T08:10:49.784Z</time></trkpt><trkpt lat="40.8038206" lon="9.6195689"><ele>52.400000000000006</ele><time>2026-04-13T08:10:50.803Z</time></trkpt><trkpt lat="40.8038187" lon="9.619415"><ele>52.800000000000004</ele><time>2026-04-13T08:10:51.79Z</time></trkpt><trkpt lat="40.8038146" lon="9.6192647"><ele>53.2</ele><time>2026-04-13T08:10:52.799Z</time></trkpt><trkpt lat="40.8038077" lon="9.6191178"><ele>53.6</ele><time>2026-04-13T08:10:53.811Z</time></trkpt><trkpt lat="40.8037974" lon="9.6189809"><ele>54.0</ele><time>2026-04-13T08:10:54.787Z</time></trkpt><trkpt lat="40.8037789" lon="9.6188434"><ele>54.0</ele><time>2026-04-13T08:10:55.786Z</time></trkpt><trkpt lat="40.8037512" lon="9.618708"><ele>54.00000000000001</ele><time>2026-04-13T08:10:56.787Z</time></trkpt><trkpt lat="40.8037182" lon="9.618574"><ele>54.00000000000001</ele><time>2026-04-13T08:10:57.778Z</time></trkpt><trkpt lat="40.8036844" lon="9.6184397"><ele>54.0</ele><time>2026-04-13T08:10:58.785Z</time></trkpt><trkpt lat="40.8036466" lon="9.6183106"><ele>54.0</ele><time>2026-04-13T08:10:59.781Z</time></trkpt><trkpt lat="40.8036143" lon="9.6181828"><ele>54.800000000000004</ele><time>2026-04-13T08:11:00.79Z</time></trkpt><trkpt lat="40.8035892" lon="9.6180459"><ele>55.60000000000001</ele><time>2026-04-13T08:11:01.781Z</time></trkpt><trkpt lat="40.8035735" lon="9.6179123"><ele>56.4</ele><time>2026-04-13T08:11:02.783Z</time></trkpt><trkpt lat="40.8035654" lon="9.6177804"><ele>57.2</ele><time>2026-04-13T08:11:03.798Z</time></trkpt><trkpt lat="40.8035666" lon="9.6176566"><ele>58.0</ele><time>2026-04-13T08:11:04.783Z</time></trkpt><trkpt lat="40.8035715" lon="9.617542"><ele>58.14285714285715</ele><time>2026-04-13T08:11:05.795Z</time></trkpt><trkpt lat="40.8035716" lon="9.617443"><ele>58.28571428571429</ele><time>2026-04-13T08:11:06.79Z</time></trkpt><trkpt lat="40.8035602" lon="9.6173552"><ele>58.42857142857143</ele><time>2026-04-13T08:11:07.791Z</time></trkpt><trkpt lat="40.8035426" lon="9.6172679"><ele>58.57142857142858</ele><time>2026-04-13T08:11:08.791Z</time></trkpt><trkpt lat="40.8035152" lon="9.617187"><ele>58.71428571428572</ele><time>2026-04-13T08:11:09.786Z</time></trkpt><trkpt lat="40.80348" lon="9.6171048"><ele>58.857142857142854</ele><time>2026-04-13T08:11:10.784Z</time></trkpt><trkpt lat="40.8034428" lon="9.6170109"><ele>59.0</ele><time>2026-04-13T08:11:11.799Z</time></trkpt><trkpt lat="40.8034044" lon="9.6169215"><ele>59.00000000000001</ele><time>2026-04-13T08:11:12.799Z</time></trkpt><trkpt lat="40.8033664" lon="9.6168303"><ele>59.0</ele><time>2026-04-13T08:11:13.792Z</time></trkpt><trkpt lat="40.8033262" lon="9.6167354"><ele>59.0</ele><time>2026-04-13T08:11:14.791Z</time></trkpt><trkpt lat="40.8032856" lon="9.616634"><ele>59.0</ele><time>2026-04-13T08:11:15.792Z</time></trkpt><trkpt lat="40.8032478" lon="9.6165355"><ele>59.00000000000001</ele><time>2026-04-13T08:11:16.788Z</time></trkpt><trkpt lat="40.8032014" lon="9.6164428"><ele>59.0</ele><time>2026-04-13T08:11:17.785Z</time></trkpt><trkpt lat="40.8031575" lon="9.6163584"><ele>59.00000000000001</ele><time>2026-04-13T08:11:18.782Z</time></trkpt><trkpt lat="40.8031114" lon="9.6162837"><ele>59.0</ele><time>2026-04-13T08:11:19.815Z</time></trkpt><trkpt lat="40.8030553" lon="9.6162145"><ele>59.0</ele><time>2026-04-13T08:11:20.784Z</time></trkpt><trkpt lat="40.8029965" lon="9.6161397"><ele>59.0</ele><time>2026-04-13T08:11:21.792Z</time></trkpt><trkpt lat="40.8029394" lon="9.6160667"><ele>59.00000000000001</ele><time>2026-04-13T08:11:22.787Z</time></trkpt><trkpt lat="40.8028866" lon="9.6159982"><ele>59.0</ele><time>2026-04-13T08:11:23.783Z</time></trkpt><trkpt lat="40.802837" lon="9.6159162"><ele>60.14285714285714</ele><time>2026-04-13T08:11:24.784Z</time></trkpt><trkpt lat="40.8027946" lon="9.615829"><ele>61.28571428571429</ele><time>2026-04-13T08:11:25.796Z</time></trkpt><trkpt lat="40.8027616" lon="9.6157465"><ele>62.42857142857143</ele><time>2026-04-13T08:11:26.781Z</time></trkpt><trkpt lat="40.8027336" lon="9.6156614"><ele>63.57142857142857</ele><time>2026-04-13T08:11:27.829Z</time></trkpt><trkpt lat="40.8027031" lon="9.6155749"><ele>64.71428571428571</ele><time>2026-04-13T08:11:28.776Z</time></trkpt><trkpt lat="40.802672" lon="9.6154947"><ele>65.85714285714286</ele><time>2026-04-13T08:11:29.78Z</time></trkpt><trkpt lat="40.8026345" lon="9.6154271"><ele>67.0</ele><time>2026-04-13T08:11:30.778Z</time></trkpt><trkpt lat="40.8025927" lon="9.6153592"><ele>68.16666666666666</ele><time>2026-04-13T08:11:31.787Z</time></trkpt><trkpt lat="40.8025516" lon="9.6152935"><ele>69.33333333333333</ele><time>2026-04-13T08:11:32.79Z</time></trkpt><trkpt lat="40.8024836" lon="9.6151663"><ele>70.5</ele><time>2026-04-13T08:11:34.782Z</time></trkpt><trkpt lat="40.8024742" lon="9.6150223"><ele>71.66666666666667</ele><time>2026-04-13T08:11:36.78Z</time></trkpt><trkpt lat="40.8024824" lon="9.6149395"><ele>72.83333333333334</ele><time>2026-04-13T08:11:37.781Z</time></trkpt><trkpt lat="40.8024963" lon="9.6148359"><ele>74.0</ele><time>2026-04-13T08:11:38.773Z</time></trkpt><trkpt lat="40.8025053" lon="9.6147226"><ele>74.0</ele><time>2026-04-13T08:11:39.775Z</time></trkpt><trkpt lat="40.80252" lon="9.6146079"><ele>74.0</ele><time>2026-04-13T08:11:40.775Z</time></trkpt><trkpt lat="40.802542" lon="9.6144884"><ele>74.0</ele><time>2026-04-13T08:11:41.787Z</time></trkpt><trkpt lat="40.8025662" lon="9.6143628"><ele>74.0</ele><time>2026-04-13T08:11:42.78Z</time></trkpt><trkpt lat="40.8025978" lon="9.6142382"><ele>74.0</ele><time>2026-04-13T08:11:43.816Z</time></trkpt><trkpt lat="40.802628" lon="9.6141138"><ele>75.33333333333334</ele><time>2026-04-13T08:11:44.792Z</time></trkpt><trkpt lat="40.8026531" lon="9.6139951"><ele>76.66666666666667</ele><time>2026-04-13T08:11:45.78Z</time></trkpt><trkpt lat="40.8026764" lon="9.6138855"><ele>78.0</ele><time>2026-04-13T08:11:46.772Z</time></trkpt><trkpt lat="40.8027003" lon="9.6137804"><ele>79.33333333333333</ele><time>2026-04-13T08:11:47.779Z</time></trkpt><trkpt lat="40.802722" lon="9.6136806"><ele>80.66666666666666</ele><time>2026-04-13T08:11:48.77Z</time></trkpt><trkpt lat="40.8027382" lon="9.6135789"><ele>82.0</ele><time>2026-04-13T08:11:49.781Z</time></trkpt><trkpt lat="40.8027452" lon="9.6134754"><ele>82.5</ele><time>2026-04-13T08:11:50.775Z</time></trkpt><trkpt lat="40.8027453" lon="9.6133653"><ele>83.0</ele><time>2026-04-13T08:11:51.774Z</time></trkpt><trkpt lat="40.8027359" lon="9.6132567"><ele>83.5</ele><time>2026-04-13T08:11:52.771Z</time></trkpt><trkpt lat="40.8027107" lon="9.613155"><ele>84.0</ele><time>2026-04-13T08:11:53.776Z</time></trkpt><trkpt lat="40.8026744" lon="9.6130768"><ele>84.5</ele><time>2026-04-13T08:11:54.765Z</time></trkpt><trkpt lat="40.8025862" lon="9.6129631"><ele>85.0</ele><time>2026-04-13T08:11:56.791Z</time></trkpt><trkpt lat="40.8025247" lon="9.6129123"><ele>85.0</ele><time>2026-04-13T08:11:57.772Z</time></trkpt><trkpt lat="40.8024521" lon="9.6128706"><ele>85.0</ele><time>2026-04-13T08:11:58.763Z</time></trkpt><trkpt lat="40.8023664" lon="9.612834"><ele>85.0</ele><time>2026-04-13T08:11:59.772Z</time></trkpt><trkpt lat="40.802266" lon="9.6127954"><ele>85.0</ele><time>2026-04-13T08:12:00.768Z</time></trkpt><trkpt lat="40.8021818" lon="9.6127554"><ele>85.0</ele><time>2026-04-13T08:12:01.765Z</time></trkpt><trkpt lat="40.8021083" lon="9.6127184"><ele>85.0</ele><time>2026-04-13T08:12:02.773Z</time></trkpt><trkpt lat="40.8020416" lon="9.612683"><ele>86.0</ele><time>2026-04-13T08:12:03.77Z</time></trkpt><trkpt lat="40.8019616" lon="9.6126625"><ele>87.0</ele><time>2026-04-13T08:12:04.77Z</time></trkpt><trkpt lat="40.8018768" lon="9.6126509"><ele>88.0</ele><time>2026-04-13T08:12:05.784Z</time></trkpt><trkpt lat="40.8017898" lon="9.6126342"><ele>89.0</ele><time>2026-04-13T08:12:06.761Z</time></trkpt><trkpt lat="40.8017" lon="9.6126013"><ele>90.0</ele><time>2026-04-13T08:12:07.777Z</time></trkpt><trkpt lat="40.8016081" lon="9.6125541"><ele>91.0</ele><time>2026-04-13T08:12:08.775Z</time></trkpt><trkpt lat="40.8015174" lon="9.6125001"><ele>91.0</ele><time>2026-04-13T08:12:09.777Z</time></trkpt><trkpt lat="40.8014222" lon="9.6124519"><ele>91.0</ele><time>2026-04-13T08:12:10.785Z</time></trkpt><trkpt lat="40.8013249" lon="9.6124055"><ele>91.0</ele><time>2026-04-13T08:12:11.769Z</time></trkpt><trkpt lat="40.8012345" lon="9.6123552"><ele>91.0</ele><time>2026-04-13T08:12:12.764Z</time></trkpt><trkpt lat="40.8011524" lon="9.6123034"><ele>91.0</ele><time>2026-04-13T08:12:13.77Z</time></trkpt><trkpt lat="40.8010846" lon="9.6122529"><ele>91.0</ele><time>2026-04-13T08:12:14.771Z</time></trkpt><trkpt lat="40.8010175" lon="9.6122024"><ele>91.0</ele><time>2026-04-13T08:12:15.766Z</time></trkpt><trkpt lat="40.8009512" lon="9.6121496"><ele>91.0</ele><time>2026-04-13T08:12:16.766Z</time></trkpt><trkpt lat="40.80088" lon="9.6120924"><ele>91.0</ele><time>2026-04-13T08:12:17.769Z</time></trkpt><trkpt lat="40.8008101" lon="9.6120322"><ele>91.0</ele><time>2026-04-13T08:12:18.767Z</time></trkpt><trkpt lat="40.8007353" lon="9.6119749"><ele>91.0</ele><time>2026-04-13T08:12:19.787Z</time></trkpt><trkpt lat="40.8006596" lon="9.611925"><ele>92.71428571428571</ele><time>2026-04-13T08:12:20.764Z</time></trkpt><trkpt lat="40.8005946" lon="9.6118793"><ele>94.42857142857143</ele><time>2026-04-13T08:12:21.766Z</time></trkpt><trkpt lat="40.8005405" lon="9.6118296"><ele>96.14285714285714</ele><time>2026-04-13T08:12:22.769Z</time></trkpt><trkpt lat="40.8004991" lon="9.6117621"><ele>97.85714285714286</ele><time>2026-04-13T08:12:23.767Z</time></trkpt><trkpt lat="40.8004708" lon="9.6116774"><ele>99.57142857142857</ele><time>2026-04-13T08:12:24.759Z</time></trkpt><trkpt lat="40.80044" lon="9.6115771"><ele>101.28571428571428</ele><time>2026-04-13T08:12:25.771Z</time></trkpt><trkpt lat="40.8004041" lon="9.6114679"><ele>103.0</ele><time>2026-04-13T08:12:26.778Z</time></trkpt><trkpt lat="40.8003689" lon="9.6113718"><ele>103.00000000000001</ele><time>2026-04-13T08:12:27.766Z</time></trkpt><trkpt lat="40.8003288" lon="9.6112885"><ele>103.0</ele><time>2026-04-13T08:12:28.785Z</time></trkpt><trkpt lat="40.8002756" lon="9.6112163"><ele>103.0</ele><time>2026-04-13T08:12:29.76Z</time></trkpt><trkpt lat="40.8002079" lon="9.611149"><ele>103.0</ele><time>2026-04-13T08:12:30.753Z</time></trkpt><trkpt lat="40.800126" lon="9.6110754"><ele>103.00000000000001</ele><time>2026-04-13T08:12:31.768Z</time></trkpt><trkpt lat="40.8000397" lon="9.6109931"><ele>103.0</ele><time>2026-04-13T08:12:32.758Z</time></trkpt><trkpt lat="40.7999641" lon="9.6108999"><ele>101.2</ele><time>2026-04-13T08:12:33.75Z</time></trkpt><trkpt lat="40.799896" lon="9.6108022"><ele>99.4</ele><time>2026-04-13T08:12:34.762Z</time></trkpt><trkpt lat="40.7998302" lon="9.6107054"><ele>97.60000000000001</ele><time>2026-04-13T08:12:35.753Z</time></trkpt><trkpt lat="40.799771" lon="9.6106114"><ele>95.80000000000001</ele><time>2026-04-13T08:12:36.758Z</time></trkpt><trkpt lat="40.7997137" lon="9.6105198"><ele>94.0</ele><time>2026-04-13T08:12:37.758Z</time></trkpt><trkpt lat="40.7996662" lon="9.6104339"><ele>94.0</ele><time>2026-04-13T08:12:38.749Z</time></trkpt><trkpt lat="40.7996251" lon="9.610342"><ele>94.0</ele><time>2026-04-13T08:12:39.752Z</time></trkpt><trkpt lat="40.7995877" lon="9.6102419"><ele>94.0</ele><time>2026-04-13T08:12:40.763Z</time></trkpt><trkpt lat="40.799545" lon="9.6101381"><ele>94.0</ele><time>2026-04-13T08:12:41.748Z</time></trkpt><trkpt lat="40.7994982" lon="9.6100434"><ele>94.0</ele><time>2026-04-13T08:12:42.761Z</time></trkpt><trkpt lat="40.7994506" lon="9.6099642"><ele>94.0</ele><time>2026-04-13T08:12:43.748Z</time></trkpt><trkpt lat="40.7993997" lon="9.6098922"><ele>94.0</ele><time>2026-04-13T08:12:44.755Z</time></trkpt><trkpt lat="40.7993615" lon="9.6098144"><ele>94.0</ele><time>2026-04-13T08:12:45.752Z</time></trkpt><trkpt lat="40.7993304" lon="9.6097247"><ele>94.0</ele><time>2026-04-13T08:12:46.753Z</time></trkpt><trkpt lat="40.7993079" lon="9.6096133"><ele>94.0</ele><time>2026-04-13T08:12:47.76Z</time></trkpt><trkpt lat="40.7992878" lon="9.6094934"><ele>94.0</ele><time>2026-04-13T08:12:48.752Z</time></trkpt><trkpt lat="40.7992717" lon="9.6093617"><ele>94.0</ele><time>2026-04-13T08:12:49.746Z</time></trkpt><trkpt lat="40.7992554" lon="9.6092275"><ele>94.33333333333333</ele><time>2026-04-13T08:12:50.753Z</time></trkpt><trkpt lat="40.7992383" lon="9.6091139"><ele>94.66666666666666</ele><time>2026-04-13T08:12:51.76Z</time></trkpt><trkpt lat="40.7992195" lon="9.6090178"><ele>95.0</ele><time>2026-04-13T08:12:52.75Z</time></trkpt><trkpt lat="40.7991979" lon="9.6089275"><ele>95.33333333333333</ele><time>2026-04-13T08:12:53.764Z</time></trkpt><trkpt lat="40.7991742" lon="9.6088307"><ele>95.66666666666667</ele><time>2026-04-13T08:12:54.759Z</time></trkpt><trkpt lat="40.7991599" lon="9.6087265"><ele>96.0</ele><time>2026-04-13T08:12:55.77Z</time></trkpt><trkpt lat="40.799156" lon="9.6086118"><ele>96.0</ele><time>2026-04-13T08:12:56.782Z</time></trkpt><trkpt lat="40.7991544" lon="9.6084898"><ele>96.0</ele><time>2026-04-13T08:12:57.743Z</time></trkpt><trkpt lat="40.7991607" lon="9.6083699"><ele>96.0</ele><time>2026-04-13T08:12:58.774Z</time></trkpt><trkpt lat="40.7991567" lon="9.6082608"><ele>96.0</ele><time>2026-04-13T08:12:59.766Z</time></trkpt><trkpt lat="40.7991411" lon="9.6081697"><ele>96.0</ele><time>2026-04-13T08:13:00.753Z</time></trkpt><trkpt lat="40.7990969" lon="9.6080144"><ele>96.0</ele><time>2026-04-13T08:13:02.757Z</time></trkpt><trkpt lat="40.7990571" lon="9.6079425"><ele>96.0</ele><time>2026-04-13T08:13:03.753Z</time></trkpt><trkpt lat="40.7989676" lon="9.6078382"><ele>96.0</ele><time>2026-04-13T08:13:05.743Z</time></trkpt><trkpt lat="40.7988752" lon="9.6077377"><ele>96.0</ele><time>2026-04-13T08:13:07.748Z</time></trkpt><trkpt lat="40.7987893" lon="9.6076396"><ele>96.0</ele><time>2026-04-13T08:13:09.747Z</time></trkpt><trkpt lat="40.7987267" lon="9.6075294"><ele>96.33333333333333</ele><time>2026-04-13T08:13:11.769Z</time></trkpt><trkpt lat="40.7986861" lon="9.6073707"><ele>96.66666666666666</ele><time>2026-04-13T08:13:13.738Z</time></trkpt><trkpt lat="40.7986721" lon="9.6072743"><ele>97.0</ele><time>2026-04-13T08:13:14.745Z</time></trkpt><trkpt lat="40.798663" lon="9.6071748"><ele>97.33333333333333</ele><time>2026-04-13T08:13:15.743Z</time></trkpt><trkpt lat="40.7986585" lon="9.6070837"><ele>97.66666666666666</ele><time>2026-04-13T08:13:16.739Z</time></trkpt><trkpt lat="40.7986492" lon="9.6069927"><ele>98.0</ele><time>2026-04-13T08:13:17.745Z</time></trkpt><trkpt lat="40.7986402" lon="9.6069039"><ele>98.49999999999999</ele><time>2026-04-13T08:13:18.738Z</time></trkpt><trkpt lat="40.7986318" lon="9.6068184"><ele>99.0</ele><time>2026-04-13T08:13:19.741Z</time></trkpt><trkpt lat="40.7986297" lon="9.6067332"><ele>99.5</ele><time>2026-04-13T08:13:20.75Z</time></trkpt><trkpt lat="40.7986264" lon="9.6066253"><ele>100.0</ele><time>2026-04-13T08:13:21.745Z</time></trkpt><trkpt lat="40.7986249" lon="9.6065044"><ele>100.49999999999999</ele><time>2026-04-13T08:13:22.745Z</time></trkpt><trkpt lat="40.7986191" lon="9.6063901"><ele>101.0</ele><time>2026-04-13T08:13:23.755Z</time></trkpt><trkpt lat="40.7986064" lon="9.6062867"><ele>100.99999999999999</ele><time>2026-04-13T08:13:24.741Z</time></trkpt><trkpt lat="40.798587" lon="9.6061967"><ele>101.0</ele><time>2026-04-13T08:13:25.736Z</time></trkpt><trkpt lat="40.7985641" lon="9.6061126"><ele>101.0</ele><time>2026-04-13T08:13:26.741Z</time></trkpt><trkpt lat="40.7985388" lon="9.6060246"><ele>101.0</ele><time>2026-04-13T08:13:27.745Z</time></trkpt><trkpt lat="40.7985062" lon="9.6059144"><ele>100.99999999999999</ele><time>2026-04-13T08:13:28.737Z</time></trkpt><trkpt lat="40.7984748" lon="9.6057847"><ele>101.0</ele><time>2026-04-13T08:13:29.747Z</time></trkpt><trkpt lat="40.798442" lon="9.6056616"><ele>102.0</ele><time>2026-04-13T08:13:30.737Z</time></trkpt><trkpt lat="40.7984148" lon="9.6055506"><ele>103.0</ele><time>2026-04-13T08:13:31.747Z</time></trkpt><trkpt lat="40.7983869" lon="9.605446"><ele>104.0</ele><time>2026-04-13T08:13:32.738Z</time></trkpt><trkpt lat="40.7983611" lon="9.6053366"><ele>105.0</ele><time>2026-04-13T08:13:33.735Z</time></trkpt><trkpt lat="40.7983338" lon="9.6052148"><ele>106.0</ele><time>2026-04-13T08:13:34.742Z</time></trkpt><trkpt lat="40.79831" lon="9.6050922"><ele>107.0</ele><time>2026-04-13T08:13:35.735Z</time></trkpt><trkpt lat="40.7982925" lon="9.6049678"><ele>108.0</ele><time>2026-04-13T08:13:36.743Z</time></trkpt><trkpt lat="40.7982857" lon="9.6048435"><ele>109.0</ele><time>2026-04-13T08:13:37.753Z</time></trkpt><trkpt lat="40.798278" lon="9.6047224"><ele>110.0</ele><time>2026-04-13T08:13:38.743Z</time></trkpt><trkpt lat="40.7982703" lon="9.604598"><ele>111.0</ele><time>2026-04-13T08:13:39.755Z</time></trkpt><trkpt lat="40.7982583" lon="9.6044853"><ele>112.33333333333333</ele><time>2026-04-13T08:13:40.738Z</time></trkpt><trkpt lat="40.7982462" lon="9.6043739"><ele>113.66666666666666</ele><time>2026-04-13T08:13:41.771Z</time></trkpt><trkpt lat="40.7982245" lon="9.6042782"><ele>115.0</ele><time>2026-04-13T08:13:42.742Z</time></trkpt><trkpt lat="40.7982021" lon="9.6041966"><ele>116.33333333333333</ele><time>2026-04-13T08:13:43.736Z</time></trkpt><trkpt lat="40.7981618" lon="9.6041207"><ele>117.66666666666666</ele><time>2026-04-13T08:13:44.745Z</time></trkpt><trkpt lat="40.7981177" lon="9.6040531"><ele>119.0</ele><time>2026-04-13T08:13:45.752Z</time></trkpt><trkpt lat="40.7980512" lon="9.6039352"><ele>119.0</ele><time>2026-04-13T08:13:47.744Z</time></trkpt><trkpt lat="40.7980407" lon="9.6037795"><ele>119.0</ele><time>2026-04-13T08:13:49.737Z</time></trkpt><trkpt lat="40.7980509" lon="9.6036816"><ele>119.0</ele><time>2026-04-13T08:13:50.734Z</time></trkpt><trkpt lat="40.7980706" lon="9.6035687"><ele>119.0</ele><time>2026-04-13T08:13:51.745Z</time></trkpt><trkpt lat="40.7980913" lon="9.6034481"><ele>119.0</ele><time>2026-04-13T08:13:52.739Z</time></trkpt><trkpt lat="40.7981133" lon="9.6033257"><ele>119.83333333333333</ele><time>2026-04-13T08:13:53.745Z</time></trkpt><trkpt lat="40.7981338" lon="9.6032187"><ele>120.66666666666666</ele><time>2026-04-13T08:13:54.742Z</time></trkpt><trkpt lat="40.7981444" lon="9.6031262"><ele>121.5</ele><time>2026-04-13T08:13:55.746Z</time></trkpt><trkpt lat="40.7981513" lon="9.6030292"><ele>122.33333333333334</ele><time>2026-04-13T08:13:56.763Z</time></trkpt><trkpt lat="40.7981636" lon="9.6029297"><ele>123.16666666666667</ele><time>2026-04-13T08:13:57.73Z</time></trkpt><trkpt lat="40.7981788" lon="9.6028312"><ele>124.0</ele><time>2026-04-13T08:13:58.728Z</time></trkpt><trkpt lat="40.798193" lon="9.6027387"><ele>124.6</ele><time>2026-04-13T08:13:59.739Z</time></trkpt><trkpt lat="40.798196" lon="9.6026552"><ele>125.2</ele><time>2026-04-13T08:14:00.738Z</time></trkpt><trkpt lat="40.7981473" lon="9.6025335"><ele>125.79999999999998</ele><time>2026-04-13T08:14:02.742Z</time></trkpt><trkpt lat="40.7980387" lon="9.6024816"><ele>126.39999999999999</ele><time>2026-04-13T08:14:04.747Z</time></trkpt><trkpt lat="40.7979311" lon="9.6024419"><ele>127.0</ele><time>2026-04-13T08:14:06.728Z</time></trkpt><trkpt lat="40.797859" lon="9.602354"><ele>127.0</ele><time>2026-04-13T08:14:08.738Z</time></trkpt><trkpt lat="40.7978404" lon="9.6022383"><ele>126.99999999999999</ele><time>2026-04-13T08:14:10.739Z</time></trkpt><trkpt lat="40.7978567" lon="9.6020847"><ele>126.99999999999999</ele><time>2026-04-13T08:14:12.736Z</time></trkpt><trkpt lat="40.7978827" lon="9.6020069"><ele>127.0</ele><time>2026-04-13T08:14:13.73Z</time></trkpt><trkpt lat="40.7979198" lon="9.6019358"><ele>127.0</ele><time>2026-04-13T08:14:14.748Z</time></trkpt><trkpt lat="40.7979725" lon="9.6017849"><ele>128.16666666666669</ele><time>2026-04-13T08:14:16.762Z</time></trkpt><trkpt lat="40.7979869" lon="9.6016878"><ele>129.33333333333334</ele><time>2026-04-13T08:14:17.736Z</time></trkpt><trkpt lat="40.797998" lon="9.6015762"><ele>130.5</ele><time>2026-04-13T08:14:18.728Z</time></trkpt><trkpt lat="40.7980096" lon="9.6014731"><ele>131.66666666666666</ele><time>2026-04-13T08:14:19.723Z</time></trkpt><trkpt lat="40.7980157" lon="9.6013801"><ele>132.83333333333331</ele><time>2026-04-13T08:14:20.735Z</time></trkpt><trkpt lat="40.798027" lon="9.6012794"><ele>134.0</ele><time>2026-04-13T08:14:21.733Z</time></trkpt><trkpt lat="40.7980327" lon="9.6011709"><ele>134.66666666666666</ele><time>2026-04-13T08:14:22.741Z</time></trkpt><trkpt lat="40.7980364" lon="9.6010569"><ele>135.33333333333331</ele><time>2026-04-13T08:14:23.725Z</time></trkpt><trkpt lat="40.7980443" lon="9.6009445"><ele>136.0</ele><time>2026-04-13T08:14:24.738Z</time></trkpt><trkpt lat="40.7980528" lon="9.6008495"><ele>136.66666666666666</ele><time>2026-04-13T08:14:25.728Z</time></trkpt><trkpt lat="40.7980865" lon="9.6007152"><ele>137.33333333333334</ele><time>2026-04-13T08:14:27.732Z</time></trkpt><trkpt lat="40.7981132" lon="9.6006202"><ele>138.0</ele><time>2026-04-13T08:14:29.724Z</time></trkpt><trkpt lat="40.7981347" lon="9.6004996"><ele>138.0</ele><time>2026-04-13T08:14:31.726Z</time></trkpt><trkpt lat="40.798174" lon="9.6003769"><ele>138.0</ele><time>2026-04-13T08:14:33.733Z</time></trkpt><trkpt lat="40.7981887" lon="9.6002843"><ele>138.0</ele><time>2026-04-13T08:14:44.733Z</time></trkpt><trkpt lat="40.7981887" lon="9.6001825"><ele>138.0</ele><time>2026-04-13T08:14:46.725Z</time></trkpt><trkpt lat="40.7981559" lon="9.6000494"><ele>138.0</ele><time>2026-04-13T08:14:48.718Z</time></trkpt><trkpt lat="40.7981341" lon="9.5999711"><ele>138.0</ele><time>2026-04-13T08:14:49.717Z</time></trkpt><trkpt lat="40.7981195" lon="9.5998877"><ele>138.66666666666666</ele><time>2026-04-13T08:14:50.721Z</time></trkpt><trkpt lat="40.7981133" lon="9.5997988"><ele>139.33333333333334</ele><time>2026-04-13T08:14:51.722Z</time></trkpt><trkpt lat="40.7980931" lon="9.5996644"><ele>140.0</ele><time>2026-04-13T08:14:53.725Z</time></trkpt><trkpt lat="40.7980751" lon="9.5995541"><ele>140.66666666666669</ele><time>2026-04-13T08:14:55.742Z</time></trkpt><trkpt lat="40.7980413" lon="9.5994718"><ele>141.33333333333334</ele><time>2026-04-13T08:14:57.714Z</time></trkpt><trkpt lat="40.7979587" lon="9.5993982"><ele>142.0</ele><time>2026-04-13T08:15:00.734Z</time></trkpt><trkpt lat="40.7978905" lon="9.5993076"><ele>143.0</ele><time>2026-04-13T08:15:02.727Z</time></trkpt><trkpt lat="40.797848" lon="9.5992009"><ele>144.0</ele><time>2026-04-13T08:15:04.717Z</time></trkpt><trkpt lat="40.7978186" lon="9.5991108"><ele>145.0</ele><time>2026-04-13T08:15:06.729Z</time></trkpt><trkpt lat="40.7977893" lon="9.5990242"><ele>146.0</ele><time>2026-04-13T08:15:08.738Z</time></trkpt><trkpt lat="40.7977572" lon="9.5989005"><ele>147.0</ele><time>2026-04-13T08:15:10.729Z</time></trkpt><trkpt lat="40.7976914" lon="9.5987563"><ele>146.33333333333334</ele><time>2026-04-13T08:15:12.73Z</time></trkpt><trkpt lat="40.7976502" lon="9.5986822"><ele>145.66666666666666</ele><time>2026-04-13T08:15:13.72Z</time></trkpt><trkpt lat="40.7976026" lon="9.5986148"><ele>145.0</ele><time>2026-04-13T08:15:14.714Z</time></trkpt><trkpt lat="40.7975428" lon="9.5985281"><ele>144.33333333333331</ele><time>2026-04-13T08:15:16.711Z</time></trkpt><trkpt lat="40.7974859" lon="9.5984329"><ele>143.66666666666666</ele><time>2026-04-13T08:15:18.739Z</time></trkpt><trkpt lat="40.7974216" lon="9.5983145"><ele>143.0</ele><time>2026-04-13T08:15:20.739Z</time></trkpt><trkpt lat="40.797358" lon="9.5982007"><ele>143.0</ele><time>2026-04-13T08:15:22.727Z</time></trkpt><trkpt lat="40.7972779" lon="9.598093"><ele>143.0</ele><time>2026-04-13T08:15:24.719Z</time></trkpt><trkpt lat="40.7972043" lon="9.5980095"><ele>143.0</ele><time>2026-04-13T08:15:26.708Z</time></trkpt><trkpt lat="40.7971615" lon="9.5979159"><ele>143.0</ele><time>2026-04-13T08:15:28.733Z</time></trkpt><trkpt lat="40.7971263" lon="9.5978147"><ele>143.0</ele><time>2026-04-13T08:15:30.822Z</time></trkpt><trkpt lat="40.7970867" lon="9.5976929"><ele>145.4</ele><time>2026-04-13T08:16:27.787Z</time></trkpt><trkpt lat="40.7970571" lon="9.5975611"><ele>147.8</ele><time>2026-04-13T08:16:29.787Z</time></trkpt><trkpt lat="40.79703" lon="9.5974367"><ele>150.2</ele><time>2026-04-13T08:16:31.786Z</time></trkpt><trkpt lat="40.7970225" lon="9.5973462"><ele>152.6</ele><time>2026-04-13T08:16:33.804Z</time></trkpt><trkpt lat="40.7970415" lon="9.597259"><ele>155.0</ele><time>2026-04-13T08:16:35.797Z</time></trkpt><trkpt lat="40.7970898" lon="9.5971205"><ele>155.0</ele><time>2026-04-13T08:16:37.773Z</time></trkpt><trkpt lat="40.7971287" lon="9.5970336"><ele>155.0</ele><time>2026-04-13T08:16:38.778Z</time></trkpt><trkpt lat="40.7971604" lon="9.5969473"><ele>155.0</ele><time>2026-04-13T08:16:39.786Z</time></trkpt><trkpt lat="40.7971837" lon="9.5968066"><ele>155.0</ele><time>2026-04-13T08:16:41.788Z</time></trkpt><trkpt lat="40.7972046" lon="9.5966807"><ele>155.0</ele><time>2026-04-13T08:16:43.789Z</time></trkpt><trkpt lat="40.7972327" lon="9.5965925"><ele>155.0</ele><time>2026-04-13T08:16:45.794Z</time></trkpt><trkpt lat="40.7972527" lon="9.5964847"><ele>156.33333333333331</ele><time>2026-04-13T08:16:47.787Z</time></trkpt><trkpt lat="40.7972878" lon="9.5963794"><ele>157.66666666666666</ele><time>2026-04-13T08:16:49.779Z</time></trkpt><trkpt lat="40.7973254" lon="9.5963041"><ele>159.0</ele><time>2026-04-13T08:16:51.777Z</time></trkpt><trkpt lat="40.7973839" lon="9.5962326"><ele>160.33333333333334</ele><time>2026-04-13T08:16:53.782Z</time></trkpt><trkpt lat="40.7974679" lon="9.5962199"><ele>161.66666666666669</ele><time>2026-04-13T08:16:55.772Z</time></trkpt><trkpt lat="40.7975714" lon="9.5962855"><ele>163.0</ele><time>2026-04-13T08:16:57.787Z</time></trkpt><trkpt lat="40.7976249" lon="9.5963462"><ele>163.0</ele><time>2026-04-13T08:16:58.769Z</time></trkpt><trkpt lat="40.7976653" lon="9.5964186"><ele>163.0</ele><time>2026-04-13T08:16:59.776Z</time></trkpt><trkpt lat="40.7977458" lon="9.596537"><ele>163.0</ele><time>2026-04-13T08:17:01.776Z</time></trkpt><trkpt lat="40.7978293" lon="9.5966139"><ele>163.0</ele><time>2026-04-13T08:17:03.785Z</time></trkpt><trkpt lat="40.7979271" lon="9.5966483"><ele>163.0</ele><time>2026-04-13T08:17:05.772Z</time></trkpt><trkpt lat="40.7980328" lon="9.5966678"><ele>164.83333333333334</ele><time>2026-04-13T08:17:07.763Z</time></trkpt><trkpt lat="40.7981589" lon="9.596666"><ele>166.66666666666669</ele><time>2026-04-13T08:17:09.77Z</time></trkpt><trkpt lat="40.7982242" lon="9.596665"><ele>168.5</ele><time>2026-04-13T08:17:10.764Z</time></trkpt><trkpt lat="40.7983003" lon="9.5966418"><ele>170.33333333333334</ele><time>2026-04-13T08:17:12.776Z</time></trkpt><trkpt lat="40.7983511" lon="9.59655"><ele>172.16666666666666</ele><time>2026-04-13T08:17:14.781Z</time></trkpt><trkpt lat="40.7983601" lon="9.5964507"><ele>174.0</ele><time>2026-04-13T08:17:16.766Z</time></trkpt><trkpt lat="40.7983307" lon="9.5963637"><ele>174.0</ele><time>2026-04-13T08:17:18.761Z</time></trkpt><trkpt lat="40.7982581" lon="9.5963151"><ele>174.0</ele><time>2026-04-13T08:17:20.772Z</time></trkpt><trkpt lat="40.7981652" lon="9.5962541"><ele>174.0</ele><time>2026-04-13T08:17:22.777Z</time></trkpt><trkpt lat="40.7981071" lon="9.596161"><ele>174.0</ele><time>2026-04-13T08:17:24.78Z</time></trkpt><trkpt lat="40.7980579" lon="9.5960832"><ele>174.0</ele><time>2026-04-13T08:17:26.752Z</time></trkpt><trkpt lat="40.7979946" lon="9.5959807"><ele>176.6</ele><time>2026-04-13T08:17:28.766Z</time></trkpt><trkpt lat="40.7979696" lon="9.5958594"><ele>179.2</ele><time>2026-04-13T08:17:30.767Z</time></trkpt><trkpt lat="40.7979794" lon="9.5957479"><ele>181.79999999999998</ele><time>2026-04-13T08:17:32.78Z</time></trkpt><trkpt lat="40.7979519" lon="9.5956398"><ele>184.39999999999998</ele><time>2026-04-13T08:17:34.752Z</time></trkpt><trkpt lat="40.7979282" lon="9.5955314"><ele>187.0</ele><time>2026-04-13T08:17:36.758Z</time></trkpt><trkpt lat="40.7979609" lon="9.5954086"><ele>187.2</ele><time>2026-04-13T08:17:38.753Z</time></trkpt><trkpt lat="40.7979996" lon="9.5953229"><ele>187.39999999999998</ele><time>2026-04-13T08:17:39.759Z</time></trkpt><trkpt lat="40.79805" lon="9.5952222"><ele>187.60000000000002</ele><time>2026-04-13T08:17:40.753Z</time></trkpt><trkpt lat="40.7981157" lon="9.5951085"><ele>187.8</ele><time>2026-04-13T08:17:41.751Z</time></trkpt><trkpt lat="40.7981829" lon="9.5949915"><ele>188.0</ele><time>2026-04-13T08:17:42.757Z</time></trkpt><trkpt lat="40.7982394" lon="9.5948889"><ele>188.0</ele><time>2026-04-13T08:17:43.753Z</time></trkpt><trkpt lat="40.7983015" lon="9.5947779"><ele>188.0</ele><time>2026-04-13T08:17:44.746Z</time></trkpt><trkpt lat="40.7983605" lon="9.5946672"><ele>188.0</ele><time>2026-04-13T08:17:45.749Z</time></trkpt><trkpt lat="40.7984088" lon="9.5945688"><ele>188.0</ele><time>2026-04-13T08:17:46.744Z</time></trkpt><trkpt lat="40.7984534" lon="9.5944776"><ele>188.0</ele><time>2026-04-13T08:17:47.755Z</time></trkpt><trkpt lat="40.798492" lon="9.5944015"><ele>188.0</ele><time>2026-04-13T08:17:48.761Z</time></trkpt><trkpt lat="40.7985563" lon="9.5942887"><ele>187.2</ele><time>2026-04-13T08:17:50.757Z</time></trkpt><trkpt lat="40.7985979" lon="9.5941905"><ele>186.4</ele><time>2026-04-13T08:17:52.745Z</time></trkpt><trkpt lat="40.7986443" lon="9.594076"><ele>185.6</ele><time>2026-04-13T08:17:54.751Z</time></trkpt><trkpt lat="40.7987176" lon="9.5939798"><ele>184.79999999999998</ele><time>2026-04-13T08:17:56.748Z</time></trkpt><trkpt lat="40.7988043" lon="9.5938902"><ele>184.0</ele><time>2026-04-13T08:17:58.746Z</time></trkpt><trkpt lat="40.798853" lon="9.5938339"><ele>184.0</ele><time>2026-04-13T08:17:59.759Z</time></trkpt><trkpt lat="40.7989027" lon="9.5937767"><ele>184.0</ele><time>2026-04-13T08:18:00.74Z</time></trkpt><trkpt lat="40.799003" lon="9.5936714"><ele>184.0</ele><time>2026-04-13T08:18:02.751Z</time></trkpt><trkpt lat="40.7990468" lon="9.5936053"><ele>184.0</ele><time>2026-04-13T08:18:03.751Z</time></trkpt><trkpt lat="40.7990952" lon="9.5935352"><ele>184.0</ele><time>2026-04-13T08:18:04.75Z</time></trkpt><trkpt lat="40.7991477" lon="9.5934649"><ele>184.0</ele><time>2026-04-13T08:18:05.736Z</time></trkpt><trkpt lat="40.7992025" lon="9.5933844"><ele>183.2857142857143</ele><time>2026-04-13T08:18:06.75Z</time></trkpt><trkpt lat="40.7992538" lon="9.5933074"><ele>182.57142857142856</ele><time>2026-04-13T08:18:07.74Z</time></trkpt><trkpt lat="40.7993033" lon="9.5932375"><ele>181.85714285714286</ele><time>2026-04-13T08:18:08.751Z</time></trkpt><trkpt lat="40.7993503" lon="9.5931679"><ele>181.14285714285717</ele><time>2026-04-13T08:18:09.743Z</time></trkpt><trkpt lat="40.7994002" lon="9.5930964"><ele>180.42857142857144</ele><time>2026-04-13T08:18:10.743Z</time></trkpt><trkpt lat="40.7994485" lon="9.5930147"><ele>179.71428571428572</ele><time>2026-04-13T08:18:11.734Z</time></trkpt><trkpt lat="40.7994946" lon="9.5929464"><ele>179.0</ele><time>2026-04-13T08:18:12.732Z</time></trkpt><trkpt lat="40.7995359" lon="9.5928835"><ele>177.6</ele><time>2026-04-13T08:18:13.742Z</time></trkpt><trkpt lat="40.7996059" lon="9.5927686"><ele>176.2</ele><time>2026-04-13T08:18:15.732Z</time></trkpt><trkpt lat="40.7996778" lon="9.5927101"><ele>174.79999999999998</ele><time>2026-04-13T08:18:17.746Z</time></trkpt><trkpt lat="40.7997556" lon="9.5927093"><ele>173.39999999999998</ele><time>2026-04-13T08:18:19.738Z</time></trkpt><trkpt lat="40.799858" lon="9.592733"><ele>172.0</ele><time>2026-04-13T08:18:21.739Z</time></trkpt><trkpt lat="40.7999834" lon="9.5927843"><ele>172.0</ele><time>2026-04-13T08:18:23.737Z</time></trkpt><trkpt lat="40.8000546" lon="9.5928235"><ele>172.0</ele><time>2026-04-13T08:18:24.734Z</time></trkpt><trkpt lat="40.800126" lon="9.5928605"><ele>172.0</ele><time>2026-04-13T08:18:25.739Z</time></trkpt><trkpt lat="40.8001967" lon="9.5928925"><ele>172.0</ele><time>2026-04-13T08:18:26.744Z</time></trkpt><trkpt lat="40.8002628" lon="9.5929278"><ele>172.0</ele><time>2026-04-13T08:18:27.727Z</time></trkpt><trkpt lat="40.8003459" lon="9.5929572"><ele>172.0</ele><time>2026-04-13T08:18:29.729Z</time></trkpt><trkpt lat="40.8004166" lon="9.5929201"><ele>172.0</ele><time>2026-04-13T08:18:32.766Z</time></trkpt><trkpt lat="40.8003662" lon="9.5928344"><ele>172.0</ele><time>2026-04-13T08:18:35.77Z</time></trkpt><trkpt lat="40.8002863" lon="9.5927847"><ele>172.0</ele><time>2026-04-13T08:18:37.752Z</time></trkpt><trkpt lat="40.8002043" lon="9.5927118"><ele>172.0</ele><time>2026-04-13T08:18:39.732Z</time></trkpt><trkpt lat="40.8000968" lon="9.5926369"><ele>172.0</ele><time>2026-04-13T08:18:41.736Z</time></trkpt><trkpt lat="40.8000316" lon="9.5925957"><ele>172.0</ele><time>2026-04-13T08:18:42.729Z</time></trkpt><trkpt lat="40.7999619" lon="9.5925511"><ele>172.0</ele><time>2026-04-13T08:18:43.742Z</time></trkpt><trkpt lat="40.7998894" lon="9.5925056"><ele>172.0</ele><time>2026-04-13T08:18:44.72Z</time></trkpt><trkpt lat="40.799813" lon="9.592444"><ele>172.0</ele><time>2026-04-13T08:18:45.721Z</time></trkpt><trkpt lat="40.7997284" lon="9.5923857"><ele>172.0</ele><time>2026-04-13T08:18:46.737Z</time></trkpt><trkpt lat="40.7996407" lon="9.5923313"><ele>172.0</ele><time>2026-04-13T08:18:47.729Z</time></trkpt><trkpt lat="40.799549" lon="9.5922768"><ele>172.0</ele><time>2026-04-13T08:18:48.731Z</time></trkpt><trkpt lat="40.7994574" lon="9.5922179"><ele>172.0</ele><time>2026-04-13T08:18:49.717Z</time></trkpt><trkpt lat="40.7993655" lon="9.5921528"><ele>172.0</ele><time>2026-04-13T08:18:50.726Z</time></trkpt><trkpt lat="40.79927" lon="9.5920916"><ele>172.0</ele><time>2026-04-13T08:18:51.739Z</time></trkpt><trkpt lat="40.79917" lon="9.5920283"><ele>172.0</ele><time>2026-04-13T08:18:52.717Z</time></trkpt><trkpt lat="40.7990613" lon="9.5919554"><ele>173.0</ele><time>2026-04-13T08:18:53.727Z</time></trkpt><trkpt lat="40.7989457" lon="9.5918907"><ele>174.0</ele><time>2026-04-13T08:18:54.72Z</time></trkpt><trkpt lat="40.7988219" lon="9.5918219"><ele>175.0</ele><time>2026-04-13T08:18:55.747Z</time></trkpt><trkpt lat="40.7986957" lon="9.5917543"><ele>176.0</ele><time>2026-04-13T08:18:56.716Z</time></trkpt><trkpt lat="40.798568" lon="9.5916853"><ele>177.5</ele><time>2026-04-13T08:18:57.717Z</time></trkpt><trkpt lat="40.798442" lon="9.5916186"><ele>179.0</ele><time>2026-04-13T08:18:58.73Z</time></trkpt><trkpt lat="40.7983172" lon="9.5915604"><ele>180.5</ele><time>2026-04-13T08:18:59.717Z</time></trkpt><trkpt lat="40.7981941" lon="9.5915032"><ele>182.0</ele><time>2026-04-13T08:19:00.715Z</time></trkpt><trkpt lat="40.7980757" lon="9.5914526"><ele>182.0</ele><time>2026-04-13T08:19:01.713Z</time></trkpt><trkpt lat="40.7979612" lon="9.5914108"><ele>182.0</ele><time>2026-04-13T08:19:02.72Z</time></trkpt><trkpt lat="40.7978484" lon="9.5913942"><ele>182.0</ele><time>2026-04-13T08:19:03.716Z</time></trkpt><trkpt lat="40.7977292" lon="9.591386"><ele>182.0</ele><time>2026-04-13T08:19:04.714Z</time></trkpt><trkpt lat="40.7976093" lon="9.591395"><ele>185.5</ele><time>2026-04-13T08:19:05.719Z</time></trkpt><trkpt lat="40.7974847" lon="9.5914331"><ele>189.0</ele><time>2026-04-13T08:19:06.725Z</time></trkpt><trkpt lat="40.7973585" lon="9.5914856"><ele>192.5</ele><time>2026-04-13T08:19:07.719Z</time></trkpt><trkpt lat="40.7972296" lon="9.5915444"><ele>196.0</ele><time>2026-04-13T08:19:08.719Z</time></trkpt><trkpt lat="40.7970941" lon="9.5916008"><ele>196.0</ele><time>2026-04-13T08:19:09.718Z</time></trkpt><trkpt lat="40.7969636" lon="9.5916736"><ele>196.0</ele><time>2026-04-13T08:19:10.721Z</time></trkpt><trkpt lat="40.7968273" lon="9.5917472"><ele>196.0</ele><time>2026-04-13T08:19:11.717Z</time></trkpt><trkpt lat="40.7966872" lon="9.5918081"><ele>196.0</ele><time>2026-04-13T08:19:12.72Z</time></trkpt><trkpt lat="40.7965483" lon="9.5918536"><ele>197.0</ele><time>2026-04-13T08:19:13.721Z</time></trkpt><trkpt lat="40.7964082" lon="9.5918829"><ele>198.0</ele><time>2026-04-13T08:19:14.708Z</time></trkpt><trkpt lat="40.7962764" lon="9.5919071"><ele>199.0</ele><time>2026-04-13T08:19:15.719Z</time></trkpt><trkpt lat="40.7961164" lon="9.5918857"><ele>200.0</ele><time>2026-04-13T08:19:16.721Z</time></trkpt><trkpt lat="40.7959808" lon="9.5918563"><ele>200.25</ele><time>2026-04-13T08:19:17.708Z</time></trkpt><trkpt lat="40.7958359" lon="9.5918076"><ele>200.5</ele><time>2026-04-13T08:19:18.73Z</time></trkpt><trkpt lat="40.7957047" lon="9.591771"><ele>200.75</ele><time>2026-04-13T08:19:19.705Z</time></trkpt><trkpt lat="40.7955849" lon="9.5917589"><ele>201.0</ele><time>2026-04-13T08:19:20.708Z</time></trkpt><trkpt lat="40.7954523" lon="9.5917549"><ele>201.0</ele><time>2026-04-13T08:19:21.703Z</time></trkpt><trkpt lat="40.7953227" lon="9.5917655"><ele>201.0</ele><time>2026-04-13T08:19:22.719Z</time></trkpt><trkpt lat="40.7951933" lon="9.5917833"><ele>201.0</ele><time>2026-04-13T08:19:23.707Z</time></trkpt><trkpt lat="40.7950529" lon="9.5918083"><ele>201.0</ele><time>2026-04-13T08:19:24.709Z</time></trkpt><trkpt lat="40.7949139" lon="9.5918512"><ele>202.0</ele><time>2026-04-13T08:19:25.71Z</time></trkpt><trkpt lat="40.7947716" lon="9.5918889"><ele>203.0</ele><time>2026-04-13T08:19:26.712Z</time></trkpt><trkpt lat="40.7946304" lon="9.5919226"><ele>204.0</ele><time>2026-04-13T08:19:27.808Z</time></trkpt><trkpt lat="40.7945004" lon="9.5919509"><ele>205.0</ele><time>2026-04-13T08:19:28.804Z</time></trkpt><trkpt lat="40.7943758" lon="9.5919692"><ele>204.0</ele><time>2026-04-13T08:19:29.803Z</time></trkpt><trkpt lat="40.7942544" lon="9.5919713"><ele>203.0</ele><time>2026-04-13T08:19:30.807Z</time></trkpt><trkpt lat="40.7941325" lon="9.5919395"><ele>202.0</ele><time>2026-04-13T08:19:31.804Z</time></trkpt><trkpt lat="40.7940125" lon="9.5918894"><ele>201.0</ele><time>2026-04-13T08:19:32.804Z</time></trkpt><trkpt lat="40.7938884" lon="9.5918236"><ele>201.0</ele><time>2026-04-13T08:19:33.801Z</time></trkpt><trkpt lat="40.7937675" lon="9.5917472"><ele>201.0</ele><time>2026-04-13T08:19:34.814Z</time></trkpt><trkpt lat="40.793643" lon="9.5916628"><ele>201.0</ele><time>2026-04-13T08:19:35.809Z</time></trkpt><trkpt lat="40.7935408" lon="9.5915747"><ele>201.0</ele><time>2026-04-13T08:19:36.798Z</time></trkpt><trkpt lat="40.7934533" lon="9.5914641"><ele>200.25</ele><time>2026-04-13T08:19:37.803Z</time></trkpt><trkpt lat="40.7933772" lon="9.5913248"><ele>199.5</ele><time>2026-04-13T08:19:38.798Z</time></trkpt><trkpt lat="40.7933022" lon="9.591167"><ele>198.75</ele><time>2026-04-13T08:19:39.801Z</time></trkpt><trkpt lat="40.7932293" lon="9.5910049"><ele>198.0</ele><time>2026-04-13T08:19:40.805Z</time></trkpt><trkpt lat="40.7931514" lon="9.5908387"><ele>198.0</ele><time>2026-04-13T08:19:41.804Z</time></trkpt><trkpt lat="40.7930675" lon="9.590673"><ele>198.0</ele><time>2026-04-13T08:19:42.802Z</time></trkpt><trkpt lat="40.7929811" lon="9.590514"><ele>198.0</ele><time>2026-04-13T08:19:43.803Z</time></trkpt><trkpt lat="40.7928976" lon="9.5903674"><ele>198.0</ele><time>2026-04-13T08:19:44.795Z</time></trkpt><trkpt lat="40.7928187" lon="9.5902272"><ele>198.75</ele><time>2026-04-13T08:19:45.801Z</time></trkpt><trkpt lat="40.7927357" lon="9.5900881"><ele>199.5</ele><time>2026-04-13T08:19:46.798Z</time></trkpt><trkpt lat="40.7926537" lon="9.5899546"><ele>200.25</ele><time>2026-04-13T08:19:47.795Z</time></trkpt><trkpt lat="40.792575" lon="9.5898211"><ele>201.0</ele><time>2026-04-13T08:19:48.795Z</time></trkpt><trkpt lat="40.7924963" lon="9.5896915"><ele>200.25</ele><time>2026-04-13T08:19:49.804Z</time></trkpt><trkpt lat="40.79242" lon="9.5895547"><ele>199.5</ele><time>2026-04-13T08:19:50.802Z</time></trkpt><trkpt lat="40.7923378" lon="9.5894196"><ele>198.75</ele><time>2026-04-13T08:19:51.785Z</time></trkpt><trkpt lat="40.7922449" lon="9.5892955"><ele>198.0</ele><time>2026-04-13T08:19:52.792Z</time></trkpt><trkpt lat="40.7921389" lon="9.5891801"><ele>198.0</ele><time>2026-04-13T08:19:53.802Z</time></trkpt><trkpt lat="40.7920178" lon="9.5890883"><ele>198.0</ele><time>2026-04-13T08:19:54.789Z</time></trkpt><trkpt lat="40.7918884" lon="9.5890159"><ele>198.0</ele><time>2026-04-13T08:19:55.791Z</time></trkpt><trkpt lat="40.7917508" lon="9.5889585"><ele>198.0</ele><time>2026-04-13T08:19:56.792Z</time></trkpt><trkpt lat="40.7916138" lon="9.5889112"><ele>196.25</ele><time>2026-04-13T08:19:57.79Z</time></trkpt><trkpt lat="40.7914823" lon="9.5888635"><ele>194.5</ele><time>2026-04-13T08:19:58.793Z</time></trkpt><trkpt lat="40.791357" lon="9.5887944"><ele>192.75</ele><time>2026-04-13T08:19:59.791Z</time></trkpt><trkpt lat="40.7912347" lon="9.5886951"><ele>191.0</ele><time>2026-04-13T08:20:00.79Z</time></trkpt><trkpt lat="40.7911103" lon="9.5885873"><ele>195.0</ele><time>2026-04-13T08:20:01.797Z</time></trkpt><trkpt lat="40.7909837" lon="9.5884767"><ele>199.0</ele><time>2026-04-13T08:20:02.783Z</time></trkpt><trkpt lat="40.7908517" lon="9.5883642"><ele>203.0</ele><time>2026-04-13T08:20:03.789Z</time></trkpt><trkpt lat="40.7907167" lon="9.5882567"><ele>203.0</ele><time>2026-04-13T08:20:04.791Z</time></trkpt><trkpt lat="40.79058" lon="9.5881489"><ele>203.0</ele><time>2026-04-13T08:20:05.791Z</time></trkpt><trkpt lat="40.7904455" lon="9.5880301"><ele>203.0</ele><time>2026-04-13T08:20:06.791Z</time></trkpt><trkpt lat="40.790321" lon="9.5879113"><ele>207.0</ele><time>2026-04-13T08:20:07.787Z</time></trkpt><trkpt lat="40.7902071" lon="9.5878154"><ele>211.0</ele><time>2026-04-13T08:20:08.787Z</time></trkpt><trkpt lat="40.7900814" lon="9.587752"><ele>215.0</ele><time>2026-04-13T08:20:09.785Z</time></trkpt><trkpt lat="40.7899521" lon="9.587719"><ele>219.0</ele><time>2026-04-13T08:20:10.785Z</time></trkpt><trkpt lat="40.7898204" lon="9.5877129"><ele>219.0</ele><time>2026-04-13T08:20:11.801Z</time></trkpt><trkpt lat="40.7896911" lon="9.5877019"><ele>219.0</ele><time>2026-04-13T08:20:12.782Z</time></trkpt><trkpt lat="40.7895821" lon="9.5876746"><ele>219.0</ele><time>2026-04-13T08:20:13.798Z</time></trkpt><trkpt lat="40.7894887" lon="9.587612"><ele>219.0</ele><time>2026-04-13T08:20:14.786Z</time></trkpt><trkpt lat="40.7894149" lon="9.5875129"><ele>219.0</ele><time>2026-04-13T08:20:15.797Z</time></trkpt><trkpt lat="40.7893584" lon="9.5873835"><ele>219.0</ele><time>2026-04-13T08:20:16.783Z</time></trkpt><trkpt lat="40.7893176" lon="9.587239"><ele>219.0</ele><time>2026-04-13T08:20:17.789Z</time></trkpt><trkpt lat="40.789279" lon="9.5870846"><ele>219.0</ele><time>2026-04-13T08:20:18.788Z</time></trkpt><trkpt lat="40.7891544" lon="9.5867775"><ele>218.75</ele><time>2026-04-13T08:20:20.78Z</time></trkpt><trkpt lat="40.7890834" lon="9.586629"><ele>218.5</ele><time>2026-04-13T08:20:21.79Z</time></trkpt><trkpt lat="40.7890085" lon="9.5864588"><ele>218.25</ele><time>2026-04-13T08:20:22.776Z</time></trkpt><trkpt lat="40.788935" lon="9.5862863"><ele>218.0</ele><time>2026-04-13T08:20:23.78Z</time></trkpt><trkpt lat="40.7888662" lon="9.5861114"><ele>221.5</ele><time>2026-04-13T08:20:24.774Z</time></trkpt><trkpt lat="40.7887927" lon="9.5859384"><ele>225.0</ele><time>2026-04-13T08:20:25.771Z</time></trkpt><trkpt lat="40.7887412" lon="9.5857873"><ele>228.5</ele><time>2026-04-13T08:20:26.777Z</time></trkpt><trkpt lat="40.7886865" lon="9.5856345"><ele>232.0</ele><time>2026-04-13T08:20:27.779Z</time></trkpt><trkpt lat="40.788648" lon="9.5854858"><ele>234.0</ele><time>2026-04-13T08:20:28.779Z</time></trkpt><trkpt lat="40.7886406" lon="9.585324"><ele>236.0</ele><time>2026-04-13T08:20:29.787Z</time></trkpt><trkpt lat="40.7886331" lon="9.5851567"><ele>238.0</ele><time>2026-04-13T08:20:30.778Z</time></trkpt><trkpt lat="40.7886135" lon="9.5849889"><ele>240.0</ele><time>2026-04-13T08:20:31.791Z</time></trkpt><trkpt lat="40.7885867" lon="9.5848016"><ele>240.0</ele><time>2026-04-13T08:20:32.769Z</time></trkpt><trkpt lat="40.7885446" lon="9.5846169"><ele>240.0</ele><time>2026-04-13T08:20:33.793Z</time></trkpt><trkpt lat="40.788502" lon="9.5844387"><ele>240.0</ele><time>2026-04-13T08:20:34.78Z</time></trkpt><trkpt lat="40.7884611" lon="9.5842809"><ele>240.0</ele><time>2026-04-13T08:20:35.784Z</time></trkpt><trkpt lat="40.7884369" lon="9.5841335"><ele>237.8</ele><time>2026-04-13T08:20:36.772Z</time></trkpt><trkpt lat="40.7884295" lon="9.5839908"><ele>235.6</ele><time>2026-04-13T08:20:37.775Z</time></trkpt><trkpt lat="40.788447" lon="9.5838588"><ele>233.39999999999998</ele><time>2026-04-13T08:20:38.771Z</time></trkpt><trkpt lat="40.7884829" lon="9.5837409"><ele>231.2</ele><time>2026-04-13T08:20:39.779Z</time></trkpt><trkpt lat="40.7885443" lon="9.583631"><ele>229.0</ele><time>2026-04-13T08:20:40.774Z</time></trkpt><trkpt lat="40.7886174" lon="9.5835295"><ele>229.0</ele><time>2026-04-13T08:20:41.772Z</time></trkpt><trkpt lat="40.7887208" lon="9.58345"><ele>229.0</ele><time>2026-04-13T08:20:42.776Z</time></trkpt><trkpt lat="40.7888537" lon="9.5833813"><ele>229.0</ele><time>2026-04-13T08:20:43.773Z</time></trkpt><trkpt lat="40.7890062" lon="9.5833233"><ele>229.0</ele><time>2026-04-13T08:20:44.782Z</time></trkpt><trkpt lat="40.7891776" lon="9.5832726"><ele>227.66666666666666</ele><time>2026-04-13T08:20:45.775Z</time></trkpt><trkpt lat="40.7893531" lon="9.5831992"><ele>226.33333333333331</ele><time>2026-04-13T08:20:46.766Z</time></trkpt><trkpt lat="40.7895333" lon="9.5831106"><ele>225.0</ele><time>2026-04-13T08:20:47.781Z</time></trkpt><trkpt lat="40.7897144" lon="9.5830324"><ele>225.0</ele><time>2026-04-13T08:20:48.781Z</time></trkpt><trkpt lat="40.7899077" lon="9.5829498"><ele>225.0</ele><time>2026-04-13T08:20:49.775Z</time></trkpt><trkpt lat="40.7900885" lon="9.5828726"><ele>225.0</ele><time>2026-04-13T08:20:50.777Z</time></trkpt><trkpt lat="40.7902552" lon="9.5827825"><ele>222.66666666666669</ele><time>2026-04-13T08:20:51.764Z</time></trkpt><trkpt lat="40.7904088" lon="9.5827006"><ele>220.33333333333334</ele><time>2026-04-13T08:20:52.763Z</time></trkpt><trkpt lat="40.7905619" lon="9.5826138"><ele>218.0</ele><time>2026-04-13T08:20:53.756Z</time></trkpt><trkpt lat="40.7907064" lon="9.5825251"><ele>218.0</ele><time>2026-04-13T08:20:54.765Z</time></trkpt><trkpt lat="40.7908378" lon="9.5824293"><ele>218.0</ele><time>2026-04-13T08:20:55.77Z</time></trkpt><trkpt lat="40.7909533" lon="9.5823346"><ele>218.0</ele><time>2026-04-13T08:20:56.775Z</time></trkpt><trkpt lat="40.7910449" lon="9.5822632"><ele>218.0</ele><time>2026-04-13T08:20:57.763Z</time></trkpt><trkpt lat="40.7911097" lon="9.5821459"><ele>218.75</ele><time>2026-04-13T08:20:58.765Z</time></trkpt><trkpt lat="40.7911564" lon="9.5820072"><ele>219.5</ele><time>2026-04-13T08:20:59.752Z</time></trkpt><trkpt lat="40.791174" lon="9.5818413"><ele>220.25</ele><time>2026-04-13T08:21:00.764Z</time></trkpt><trkpt lat="40.7911878" lon="9.5816643"><ele>221.0</ele><time>2026-04-13T08:21:01.771Z</time></trkpt><trkpt lat="40.7912077" lon="9.5814762"><ele>221.0</ele><time>2026-04-13T08:21:02.768Z</time></trkpt><trkpt lat="40.7912242" lon="9.5812801"><ele>221.0</ele><time>2026-04-13T08:21:03.744Z</time></trkpt><trkpt lat="40.7912278" lon="9.5810772"><ele>221.0</ele><time>2026-04-13T08:21:04.776Z</time></trkpt><trkpt lat="40.791216" lon="9.5808724"><ele>218.33333333333334</ele><time>2026-04-13T08:21:05.753Z</time></trkpt><trkpt lat="40.7912023" lon="9.5806579"><ele>215.66666666666669</ele><time>2026-04-13T08:21:06.761Z</time></trkpt><trkpt lat="40.7911959" lon="9.5804449"><ele>213.0</ele><time>2026-04-13T08:21:07.756Z</time></trkpt><trkpt lat="40.7912002" lon="9.5802352"><ele>212.66666666666669</ele><time>2026-04-13T08:21:08.76Z</time></trkpt><trkpt lat="40.7912168" lon="9.5800207"><ele>212.33333333333334</ele><time>2026-04-13T08:21:09.776Z</time></trkpt><trkpt lat="40.7912248" lon="9.5798133"><ele>212.0</ele><time>2026-04-13T08:21:10.754Z</time></trkpt><trkpt lat="40.7912327" lon="9.5796074"><ele>211.0</ele><time>2026-04-13T08:21:11.75Z</time></trkpt><trkpt lat="40.7912442" lon="9.579412"><ele>210.0</ele><time>2026-04-13T08:21:12.746Z</time></trkpt><trkpt lat="40.7912559" lon="9.5792218"><ele>209.0</ele><time>2026-04-13T08:21:13.749Z</time></trkpt><trkpt lat="40.791274" lon="9.57903"><ele>208.0</ele><time>2026-04-13T08:21:14.751Z</time></trkpt><trkpt lat="40.7912981" lon="9.5788342"><ele>206.5</ele><time>2026-04-13T08:21:15.751Z</time></trkpt><trkpt lat="40.7913201" lon="9.5786453"><ele>205.0</ele><time>2026-04-13T08:21:16.755Z</time></trkpt><trkpt lat="40.7913439" lon="9.578459"><ele>203.5</ele><time>2026-04-13T08:21:17.743Z</time></trkpt><trkpt lat="40.7913641" lon="9.5782849"><ele>202.0</ele><time>2026-04-13T08:21:18.753Z</time></trkpt><trkpt lat="40.7913713" lon="9.5781268"><ele>202.0</ele><time>2026-04-13T08:21:19.751Z</time></trkpt><trkpt lat="40.7913585" lon="9.5779696"><ele>202.0</ele><time>2026-04-13T08:21:20.752Z</time></trkpt><trkpt lat="40.7913212" lon="9.5778246"><ele>202.0</ele><time>2026-04-13T08:21:21.74Z</time></trkpt><trkpt lat="40.7912512" lon="9.5776825"><ele>202.0</ele><time>2026-04-13T08:21:22.745Z</time></trkpt><trkpt lat="40.7911723" lon="9.577529"><ele>201.0</ele><time>2026-04-13T08:21:23.748Z</time></trkpt><trkpt lat="40.7910954" lon="9.5773805"><ele>200.0</ele><time>2026-04-13T08:21:24.779Z</time></trkpt><trkpt lat="40.7910287" lon="9.5772214"><ele>199.0</ele><time>2026-04-13T08:21:25.739Z</time></trkpt><trkpt lat="40.7909819" lon="9.5770493"><ele>198.0</ele><time>2026-04-13T08:21:26.743Z</time></trkpt><trkpt lat="40.7909589" lon="9.5768713"><ele>197.5</ele><time>2026-04-13T08:21:27.749Z</time></trkpt><trkpt lat="40.7909492" lon="9.5766825"><ele>197.0</ele><time>2026-04-13T08:21:28.751Z</time></trkpt><trkpt lat="40.7909671" lon="9.5765106"><ele>196.5</ele><time>2026-04-13T08:21:29.752Z</time></trkpt><trkpt lat="40.7910133" lon="9.5763359"><ele>196.0</ele><time>2026-04-13T08:21:30.75Z</time></trkpt><trkpt lat="40.7910649" lon="9.5761737"><ele>195.5</ele><time>2026-04-13T08:21:31.757Z</time></trkpt><trkpt lat="40.7911118" lon="9.5760143"><ele>195.0</ele><time>2026-04-13T08:21:32.743Z</time></trkpt><trkpt lat="40.7911243" lon="9.5758389"><ele>194.5</ele><time>2026-04-13T08:21:33.744Z</time></trkpt><trkpt lat="40.7911126" lon="9.5756454"><ele>194.0</ele><time>2026-04-13T08:21:34.751Z</time></trkpt><trkpt lat="40.791094" lon="9.5754527"><ele>192.66666666666669</ele><time>2026-04-13T08:21:35.74Z</time></trkpt><trkpt lat="40.7910645" lon="9.5752502"><ele>191.33333333333334</ele><time>2026-04-13T08:21:36.738Z</time></trkpt><trkpt lat="40.7910277" lon="9.5750505"><ele>190.0</ele><time>2026-04-13T08:21:37.742Z</time></trkpt><trkpt lat="40.7909787" lon="9.5748534"><ele>184.0</ele><time>2026-04-13T08:21:38.74Z</time></trkpt><trkpt lat="40.7909163" lon="9.5746625"><ele>178.0</ele><time>2026-04-13T08:21:39.736Z</time></trkpt><trkpt lat="40.7908573" lon="9.5744778"><ele>172.0</ele><time>2026-04-13T08:21:40.736Z</time></trkpt><trkpt lat="40.7908133" lon="9.5743005"><ele>171.25</ele><time>2026-04-13T08:21:41.74Z</time></trkpt><trkpt lat="40.7907746" lon="9.5741287"><ele>170.5</ele><time>2026-04-13T08:21:42.739Z</time></trkpt><trkpt lat="40.7907484" lon="9.5739466"><ele>169.75</ele><time>2026-04-13T08:21:43.73Z</time></trkpt><trkpt lat="40.7907404" lon="9.5737523"><ele>169.0</ele><time>2026-04-13T08:21:44.738Z</time></trkpt><trkpt lat="40.7907547" lon="9.5735356"><ele>168.66666666666669</ele><time>2026-04-13T08:21:45.745Z</time></trkpt><trkpt lat="40.7907652" lon="9.5733157"><ele>168.33333333333334</ele><time>2026-04-13T08:21:46.737Z</time></trkpt><trkpt lat="40.7907725" lon="9.5730895"><ele>168.0</ele><time>2026-04-13T08:21:47.74Z</time></trkpt><trkpt lat="40.7907825" lon="9.5728696"><ele>166.75</ele><time>2026-04-13T08:21:48.736Z</time></trkpt><trkpt lat="40.7907932" lon="9.5726595"><ele>165.5</ele><time>2026-04-13T08:21:49.73Z</time></trkpt><trkpt lat="40.7908009" lon="9.5724716"><ele>164.25</ele><time>2026-04-13T08:21:50.751Z</time></trkpt><trkpt lat="40.7908094" lon="9.5723031"><ele>163.0</ele><time>2026-04-13T08:21:51.734Z</time></trkpt><trkpt lat="40.7908342" lon="9.5721473"><ele>161.75</ele><time>2026-04-13T08:21:52.727Z</time></trkpt><trkpt lat="40.7908814" lon="9.5720048"><ele>160.5</ele><time>2026-04-13T08:21:53.73Z</time></trkpt><trkpt lat="40.7909469" lon="9.5718704"><ele>159.25</ele><time>2026-04-13T08:21:54.73Z</time></trkpt><trkpt lat="40.7910312" lon="9.5717594"><ele>158.0</ele><time>2026-04-13T08:21:55.727Z</time></trkpt><trkpt lat="40.791125" lon="9.5716585"><ele>158.0</ele><time>2026-04-13T08:21:56.738Z</time></trkpt><trkpt lat="40.7912078" lon="9.5715532"><ele>158.0</ele><time>2026-04-13T08:21:57.735Z</time></trkpt><trkpt lat="40.7912586" lon="9.5714249"><ele>158.0</ele><time>2026-04-13T08:21:58.72Z</time></trkpt><trkpt lat="40.7912768" lon="9.5712828"><ele>158.0</ele><time>2026-04-13T08:21:59.75Z</time></trkpt><trkpt lat="40.7912741" lon="9.5711414"><ele>158.0</ele><time>2026-04-13T08:22:00.74Z</time></trkpt><trkpt lat="40.7912453" lon="9.5709828"><ele>156.5</ele><time>2026-04-13T08:22:01.731Z</time></trkpt><trkpt lat="40.7912074" lon="9.570808"><ele>155.0</ele><time>2026-04-13T08:22:02.733Z</time></trkpt><trkpt lat="40.7911619" lon="9.5706157"><ele>153.5</ele><time>2026-04-13T08:22:03.732Z</time></trkpt><trkpt lat="40.7911099" lon="9.5704181"><ele>152.0</ele><time>2026-04-13T08:22:04.719Z</time></trkpt><trkpt lat="40.7910591" lon="9.5701987"><ele>148.66666666666666</ele><time>2026-04-13T08:22:05.716Z</time></trkpt><trkpt lat="40.7910027" lon="9.5699685"><ele>145.33333333333334</ele><time>2026-04-13T08:22:06.723Z</time></trkpt><trkpt lat="40.7909443" lon="9.5697526"><ele>142.0</ele><time>2026-04-13T08:22:07.72Z</time></trkpt><trkpt lat="40.790884" lon="9.5695331"><ele>142.0</ele><time>2026-04-13T08:22:08.72Z</time></trkpt><trkpt lat="40.7908215" lon="9.5693207"><ele>142.0</ele><time>2026-04-13T08:22:09.722Z</time></trkpt><trkpt lat="40.790759" lon="9.5691069"><ele>142.0</ele><time>2026-04-13T08:22:10.732Z</time></trkpt><trkpt lat="40.7906969" lon="9.5688978"><ele>142.66666666666669</ele><time>2026-04-13T08:22:11.728Z</time></trkpt><trkpt lat="40.7906323" lon="9.5686865"><ele>143.33333333333334</ele><time>2026-04-13T08:22:12.721Z</time></trkpt><trkpt lat="40.7905676" lon="9.568477"><ele>144.0</ele><time>2026-04-13T08:22:13.719Z</time></trkpt><trkpt lat="40.7905017" lon="9.5682679"><ele>144.0</ele><time>2026-04-13T08:22:14.714Z</time></trkpt><trkpt lat="40.7904396" lon="9.5680596"><ele>144.0</ele><time>2026-04-13T08:22:15.721Z</time></trkpt><trkpt lat="40.7903744" lon="9.5678561"><ele>144.0</ele><time>2026-04-13T08:22:16.723Z</time></trkpt><trkpt lat="40.7902895" lon="9.5676685"><ele>144.66666666666666</ele><time>2026-04-13T08:22:17.723Z</time></trkpt><trkpt lat="40.7901875" lon="9.5674903"><ele>145.33333333333331</ele><time>2026-04-13T08:22:18.715Z</time></trkpt><trkpt lat="40.7900846" lon="9.5673133"><ele>146.0</ele><time>2026-04-13T08:22:19.711Z</time></trkpt><trkpt lat="40.7899805" lon="9.5671355"><ele>143.66666666666666</ele><time>2026-04-13T08:22:20.709Z</time></trkpt><trkpt lat="40.7898769" lon="9.5669574"><ele>141.33333333333334</ele><time>2026-04-13T08:22:21.723Z</time></trkpt><trkpt lat="40.789772" lon="9.5667788"><ele>139.0</ele><time>2026-04-13T08:22:22.709Z</time></trkpt><trkpt lat="40.7896612" lon="9.5666012"><ele>139.0</ele><time>2026-04-13T08:22:23.709Z</time></trkpt><trkpt lat="40.7895578" lon="9.5664218"><ele>139.0</ele><time>2026-04-13T08:22:24.729Z</time></trkpt><trkpt lat="40.789462" lon="9.5662524"><ele>139.0</ele><time>2026-04-13T08:22:25.719Z</time></trkpt><trkpt lat="40.7893669" lon="9.5660964"><ele>137.75</ele><time>2026-04-13T08:22:26.709Z</time></trkpt><trkpt lat="40.789268" lon="9.5659695"><ele>136.5</ele><time>2026-04-13T08:22:27.706Z</time></trkpt><trkpt lat="40.7891604" lon="9.565866"><ele>135.25</ele><time>2026-04-13T08:22:28.717Z</time></trkpt><trkpt lat="40.7890389" lon="9.5657931"><ele>134.0</ele><time>2026-04-13T08:22:29.707Z</time></trkpt><trkpt lat="40.7889114" lon="9.5657379"><ele>134.0</ele><time>2026-04-13T08:22:30.706Z</time></trkpt><trkpt lat="40.7887761" lon="9.5656877"><ele>134.0</ele><time>2026-04-13T08:22:31.723Z</time></trkpt><trkpt lat="40.7886337" lon="9.5656422"><ele>134.0</ele><time>2026-04-13T08:22:32.707Z</time></trkpt><trkpt lat="40.7884977" lon="9.5655847"><ele>134.0</ele><time>2026-04-13T08:22:33.704Z</time></trkpt><trkpt lat="40.7883625" lon="9.5655112"><ele>133.75</ele><time>2026-04-13T08:22:34.715Z</time></trkpt><trkpt lat="40.7882364" lon="9.5654254"><ele>133.5</ele><time>2026-04-13T08:22:35.704Z</time></trkpt><trkpt lat="40.7881324" lon="9.5653177"><ele>133.25</ele><time>2026-04-13T08:22:36.701Z</time></trkpt><trkpt lat="40.7880321" lon="9.5651851"><ele>133.0</ele><time>2026-04-13T08:22:37.705Z</time></trkpt><trkpt lat="40.7879333" lon="9.5650367"><ele>132.66666666666669</ele><time>2026-04-13T08:22:38.806Z</time></trkpt><trkpt lat="40.7878285" lon="9.5648792"><ele>132.33333333333334</ele><time>2026-04-13T08:22:39.711Z</time></trkpt><trkpt lat="40.787723" lon="9.5647183"><ele>132.0</ele><time>2026-04-13T08:22:40.704Z</time></trkpt><trkpt lat="40.7876133" lon="9.5645486"><ele>131.66666666666666</ele><time>2026-04-13T08:22:41.711Z</time></trkpt><trkpt lat="40.7874949" lon="9.5643766"><ele>131.33333333333331</ele><time>2026-04-13T08:22:42.702Z</time></trkpt><trkpt lat="40.7873754" lon="9.5642029"><ele>131.0</ele><time>2026-04-13T08:22:43.839Z</time></trkpt><trkpt lat="40.7872541" lon="9.5640385"><ele>131.0</ele><time>2026-04-13T08:22:44.811Z</time></trkpt><trkpt lat="40.7871298" lon="9.5638791"><ele>131.0</ele><time>2026-04-13T08:22:45.803Z</time></trkpt><trkpt lat="40.7870027" lon="9.5637251"><ele>131.0</ele><time>2026-04-13T08:22:46.706Z</time></trkpt><trkpt lat="40.7868759" lon="9.5635777"><ele>131.33333333333331</ele><time>2026-04-13T08:22:47.711Z</time></trkpt><trkpt lat="40.7867501" lon="9.5634307"><ele>131.66666666666666</ele><time>2026-04-13T08:22:48.801Z</time></trkpt><trkpt lat="40.786628" lon="9.5632857"><ele>132.0</ele><time>2026-04-13T08:22:49.801Z</time></trkpt><trkpt lat="40.7865093" lon="9.5631464"><ele>132.0</ele><time>2026-04-13T08:22:50.796Z</time></trkpt><trkpt lat="40.7863942" lon="9.5630105"><ele>132.0</ele><time>2026-04-13T08:22:51.798Z</time></trkpt><trkpt lat="40.7862829" lon="9.5628794"><ele>132.0</ele><time>2026-04-13T08:22:52.796Z</time></trkpt><trkpt lat="40.786177" lon="9.5627555"><ele>132.0</ele><time>2026-04-13T08:22:53.81Z</time></trkpt><trkpt lat="40.7860722" lon="9.5626321"><ele>133.0</ele><time>2026-04-13T08:22:54.794Z</time></trkpt><trkpt lat="40.7859732" lon="9.5625119"><ele>134.0</ele><time>2026-04-13T08:22:55.795Z</time></trkpt><trkpt lat="40.7858806" lon="9.5623999"><ele>135.0</ele><time>2026-04-13T08:22:56.798Z</time></trkpt><trkpt lat="40.7857928" lon="9.5622968"><ele>136.0</ele><time>2026-04-13T08:22:57.802Z</time></trkpt><trkpt lat="40.7857122" lon="9.5621989"><ele>136.0</ele><time>2026-04-13T08:22:58.807Z</time></trkpt><trkpt lat="40.785637" lon="9.5621034"><ele>136.0</ele><time>2026-04-13T08:22:59.799Z</time></trkpt><trkpt lat="40.7855704" lon="9.5620221"><ele>136.0</ele><time>2026-04-13T08:23:00.793Z</time></trkpt><trkpt lat="40.7855115" lon="9.5619502"><ele>136.0</ele><time>2026-04-13T08:23:01.804Z</time></trkpt><trkpt lat="40.7854296" lon="9.5618472"><ele>136.0</ele><time>2026-04-13T08:23:03.821Z</time></trkpt><trkpt lat="40.7853811" lon="9.5617759"><ele>135.83333333333334</ele><time>2026-04-13T08:23:06.796Z</time></trkpt><trkpt lat="40.7852959" lon="9.5617048"><ele>135.66666666666669</ele><time>2026-04-13T08:30:42.806Z</time></trkpt><trkpt lat="40.7852159" lon="9.5616197"><ele>135.5</ele><time>2026-04-13T08:30:44.802Z</time></trkpt><trkpt lat="40.7851661" lon="9.5615583"><ele>135.33333333333334</ele><time>2026-04-13T08:30:45.802Z</time></trkpt><trkpt lat="40.7851124" lon="9.5614952"><ele>135.16666666666666</ele><time>2026-04-13T08:30:46.795Z</time></trkpt><trkpt lat="40.7850513" lon="9.5614284"><ele>135.0</ele><time>2026-04-13T08:30:47.794Z</time></trkpt><trkpt lat="40.7849757" lon="9.5613476"><ele>136.6</ele><time>2026-04-13T08:30:48.796Z</time></trkpt><trkpt lat="40.7848933" lon="9.5612654"><ele>138.2</ele><time>2026-04-13T08:30:49.804Z</time></trkpt><trkpt lat="40.7848027" lon="9.5611793"><ele>139.8</ele><time>2026-04-13T08:30:50.786Z</time></trkpt><trkpt lat="40.7847124" lon="9.5610905"><ele>141.4</ele><time>2026-04-13T08:30:51.787Z</time></trkpt><trkpt lat="40.784618" lon="9.5609957"><ele>143.0</ele><time>2026-04-13T08:30:52.792Z</time></trkpt><trkpt lat="40.7845162" lon="9.5609004"><ele>143.0</ele><time>2026-04-13T08:30:53.799Z</time></trkpt><trkpt lat="40.7844115" lon="9.5608008"><ele>143.0</ele><time>2026-04-13T08:30:54.789Z</time></trkpt><trkpt lat="40.7843064" lon="9.5606978"><ele>143.0</ele><time>2026-04-13T08:30:55.801Z</time></trkpt><trkpt lat="40.784206" lon="9.5605962"><ele>143.0</ele><time>2026-04-13T08:30:56.793Z</time></trkpt><trkpt lat="40.7841033" lon="9.56049"><ele>142.5</ele><time>2026-04-13T08:30:57.793Z</time></trkpt><trkpt lat="40.7840051" lon="9.5603909"><ele>142.0</ele><time>2026-04-13T08:30:58.791Z</time></trkpt><trkpt lat="40.7839077" lon="9.5602838"><ele>141.5</ele><time>2026-04-13T08:30:59.792Z</time></trkpt><trkpt lat="40.7838217" lon="9.5601583"><ele>141.0</ele><time>2026-04-13T08:31:00.79Z</time></trkpt><trkpt lat="40.7837452" lon="9.5600223"><ele>141.0</ele><time>2026-04-13T08:31:01.798Z</time></trkpt><trkpt lat="40.7836642" lon="9.5598789"><ele>141.0</ele><time>2026-04-13T08:31:02.793Z</time></trkpt><trkpt lat="40.7835829" lon="9.5597368"><ele>141.0</ele><time>2026-04-13T08:31:03.797Z</time></trkpt><trkpt lat="40.7834984" lon="9.5595894"><ele>141.0</ele><time>2026-04-13T08:31:04.796Z</time></trkpt><trkpt lat="40.783415" lon="9.5594394"><ele>141.75</ele><time>2026-04-13T08:31:05.793Z</time></trkpt><trkpt lat="40.7833233" lon="9.5592916"><ele>142.5</ele><time>2026-04-13T08:31:06.786Z</time></trkpt><trkpt lat="40.7832355" lon="9.5591408"><ele>143.25</ele><time>2026-04-13T08:31:07.789Z</time></trkpt><trkpt lat="40.7831484" lon="9.5589873"><ele>144.0</ele><time>2026-04-13T08:31:08.788Z</time></trkpt><trkpt lat="40.7830583" lon="9.5588294"><ele>143.0</ele><time>2026-04-13T08:31:09.789Z</time></trkpt><trkpt lat="40.782966" lon="9.5586715"><ele>142.0</ele><time>2026-04-13T08:31:10.788Z</time></trkpt><trkpt lat="40.7828707" lon="9.5585086"><ele>141.0</ele><time>2026-04-13T08:31:11.784Z</time></trkpt><trkpt lat="40.782771" lon="9.5583367"><ele>141.66666666666666</ele><time>2026-04-13T08:31:12.786Z</time></trkpt><trkpt lat="40.7826643" lon="9.5581612"><ele>142.33333333333331</ele><time>2026-04-13T08:31:13.79Z</time></trkpt><trkpt lat="40.7825535" lon="9.5579807"><ele>143.0</ele><time>2026-04-13T08:31:14.791Z</time></trkpt><trkpt lat="40.7824403" lon="9.5577942"><ele>143.0</ele><time>2026-04-13T08:31:15.81Z</time></trkpt><trkpt lat="40.7823248" lon="9.5576086"><ele>143.0</ele><time>2026-04-13T08:31:16.777Z</time></trkpt><trkpt lat="40.7822087" lon="9.5574203"><ele>143.0</ele><time>2026-04-13T08:31:17.783Z</time></trkpt><trkpt lat="40.7820939" lon="9.5572353"><ele>143.0</ele><time>2026-04-13T08:31:18.781Z</time></trkpt><trkpt lat="40.7819854" lon="9.5570526"><ele>143.0</ele><time>2026-04-13T08:31:19.79Z</time></trkpt><trkpt lat="40.7818766" lon="9.5568687"><ele>143.0</ele><time>2026-04-13T08:31:20.772Z</time></trkpt><trkpt lat="40.7817676" lon="9.5566867"><ele>145.66666666666666</ele><time>2026-04-13T08:31:21.779Z</time></trkpt><trkpt lat="40.7816567" lon="9.5565032"><ele>148.33333333333334</ele><time>2026-04-13T08:31:22.802Z</time></trkpt><trkpt lat="40.7815486" lon="9.5563212"><ele>151.0</ele><time>2026-04-13T08:31:23.784Z</time></trkpt><trkpt lat="40.7814364" lon="9.5561423"><ele>151.33333333333334</ele><time>2026-04-13T08:31:24.798Z</time></trkpt><trkpt lat="40.7813252" lon="9.555963"><ele>151.66666666666666</ele><time>2026-04-13T08:31:25.78Z</time></trkpt><trkpt lat="40.7812157" lon="9.5557875"><ele>152.0</ele><time>2026-04-13T08:31:26.776Z</time></trkpt><trkpt lat="40.7811075" lon="9.5556236"><ele>153.33333333333331</ele><time>2026-04-13T08:31:27.777Z</time></trkpt><trkpt lat="40.7809972" lon="9.5554749"><ele>154.66666666666666</ele><time>2026-04-13T08:31:28.768Z</time></trkpt><trkpt lat="40.7808817" lon="9.5553497"><ele>156.0</ele><time>2026-04-13T08:31:29.776Z</time></trkpt><trkpt lat="40.7807655" lon="9.5552321"><ele>156.25</ele><time>2026-04-13T08:31:30.772Z</time></trkpt><trkpt lat="40.780653" lon="9.5551162"><ele>156.5</ele><time>2026-04-13T08:31:31.777Z</time></trkpt><trkpt lat="40.7805497" lon="9.5550012"><ele>156.75</ele><time>2026-04-13T08:31:32.771Z</time></trkpt><trkpt lat="40.7804425" lon="9.5548936"><ele>157.0</ele><time>2026-04-13T08:31:33.782Z</time></trkpt><trkpt lat="40.780327" lon="9.5548005"><ele>157.0</ele><time>2026-04-13T08:31:34.783Z</time></trkpt><trkpt lat="40.7802015" lon="9.554715"><ele>157.0</ele><time>2026-04-13T08:31:35.777Z</time></trkpt><trkpt lat="40.7800687" lon="9.5546489"><ele>157.0</ele><time>2026-04-13T08:31:36.76Z</time></trkpt><trkpt lat="40.779927" lon="9.5545939"><ele>157.0</ele><time>2026-04-13T08:31:37.774Z</time></trkpt><trkpt lat="40.7797819" lon="9.5545418"><ele>158.66666666666669</ele><time>2026-04-13T08:31:38.758Z</time></trkpt><trkpt lat="40.7796343" lon="9.5544838"><ele>160.33333333333334</ele><time>2026-04-13T08:31:39.757Z</time></trkpt><trkpt lat="40.7794826" lon="9.5544256"><ele>162.0</ele><time>2026-04-13T08:31:40.77Z</time></trkpt><trkpt lat="40.7793302" lon="9.5543676"><ele>164.0</ele><time>2026-04-13T08:31:41.772Z</time></trkpt><trkpt lat="40.7791777" lon="9.5543154"><ele>166.0</ele><time>2026-04-13T08:31:42.756Z</time></trkpt><trkpt lat="40.779019" lon="9.5542802"><ele>168.0</ele><time>2026-04-13T08:31:43.756Z</time></trkpt><trkpt lat="40.7788538" lon="9.5542524"><ele>168.0</ele><time>2026-04-13T08:31:44.756Z</time></trkpt><trkpt lat="40.7786922" lon="9.554226"><ele>168.0</ele><time>2026-04-13T08:31:45.75Z</time></trkpt><trkpt lat="40.7785361" lon="9.5542012"><ele>168.0</ele><time>2026-04-13T08:31:46.757Z</time></trkpt><trkpt lat="40.7783935" lon="9.5541794"><ele>167.5</ele><time>2026-04-13T08:31:47.753Z</time></trkpt><trkpt lat="40.7782569" lon="9.5541713"><ele>167.0</ele><time>2026-04-13T08:31:48.753Z</time></trkpt><trkpt lat="40.7781276" lon="9.5541792"><ele>166.5</ele><time>2026-04-13T08:31:49.743Z</time></trkpt><trkpt lat="40.7780059" lon="9.5542125"><ele>166.0</ele><time>2026-04-13T08:31:50.789Z</time></trkpt><trkpt lat="40.7778832" lon="9.5542789"><ele>166.0</ele><time>2026-04-13T08:31:51.759Z</time></trkpt><trkpt lat="40.7777517" lon="9.55436"><ele>166.0</ele><time>2026-04-13T08:31:52.748Z</time></trkpt><trkpt lat="40.7776165" lon="9.5544471"><ele>166.0</ele><time>2026-04-13T08:31:53.758Z</time></trkpt><trkpt lat="40.777468" lon="9.5545383"><ele>163.33333333333334</ele><time>2026-04-13T08:31:54.759Z</time></trkpt><trkpt lat="40.7773113" lon="9.5546308"><ele>160.66666666666666</ele><time>2026-04-13T08:31:55.746Z</time></trkpt><trkpt lat="40.7771495" lon="9.5547253"><ele>158.0</ele><time>2026-04-13T08:31:56.744Z</time></trkpt><trkpt lat="40.7769882" lon="9.5548286"><ele>157.0</ele><time>2026-04-13T08:31:57.753Z</time></trkpt><trkpt lat="40.7768241" lon="9.5549341"><ele>156.0</ele><time>2026-04-13T08:31:58.746Z</time></trkpt><trkpt lat="40.7766604" lon="9.5550436"><ele>155.0</ele><time>2026-04-13T08:31:59.74Z</time></trkpt><trkpt lat="40.7765007" lon="9.5551474"><ele>155.0</ele><time>2026-04-13T08:32:00.748Z</time></trkpt><trkpt lat="40.7763482" lon="9.5552439"><ele>155.0</ele><time>2026-04-13T08:32:01.745Z</time></trkpt><trkpt lat="40.7762102" lon="9.55533"><ele>155.0</ele><time>2026-04-13T08:32:02.739Z</time></trkpt><trkpt lat="40.7760861" lon="9.5554011"><ele>153.5</ele><time>2026-04-13T08:32:03.758Z</time></trkpt><trkpt lat="40.7759682" lon="9.5554461"><ele>152.0</ele><time>2026-04-13T08:32:04.761Z</time></trkpt><trkpt lat="40.7758586" lon="9.5554674"><ele>150.5</ele><time>2026-04-13T08:32:05.755Z</time></trkpt><trkpt lat="40.7757435" lon="9.5554601"><ele>149.0</ele><time>2026-04-13T08:32:06.736Z</time></trkpt><trkpt lat="40.7756324" lon="9.5554162"><ele>149.5</ele><time>2026-04-13T08:32:07.739Z</time></trkpt><trkpt lat="40.7755177" lon="9.5553624"><ele>150.0</ele><time>2026-04-13T08:32:08.739Z</time></trkpt><trkpt lat="40.7754106" lon="9.5552816"><ele>150.5</ele><time>2026-04-13T08:32:09.73Z</time></trkpt><trkpt lat="40.7753123" lon="9.5551928"><ele>151.0</ele><time>2026-04-13T08:32:10.734Z</time></trkpt><trkpt lat="40.7752276" lon="9.5550853"><ele>150.5</ele><time>2026-04-13T08:32:11.742Z</time></trkpt><trkpt lat="40.7751535" lon="9.5549574"><ele>150.0</ele><time>2026-04-13T08:32:12.741Z</time></trkpt><trkpt lat="40.7751015" lon="9.5548011"><ele>149.5</ele><time>2026-04-13T08:32:13.735Z</time></trkpt><trkpt lat="40.7750561" lon="9.5546351"><ele>149.0</ele><time>2026-04-13T08:32:14.737Z</time></trkpt><trkpt lat="40.7750126" lon="9.5544615"><ele>148.25</ele><time>2026-04-13T08:32:15.73Z</time></trkpt><trkpt lat="40.7749693" lon="9.5542975"><ele>147.5</ele><time>2026-04-13T08:32:16.754Z</time></trkpt><trkpt lat="40.7749239" lon="9.5541477"><ele>146.75</ele><time>2026-04-13T08:32:17.728Z</time></trkpt><trkpt lat="40.7748591" lon="9.5540164"><ele>146.0</ele><time>2026-04-13T08:32:18.726Z</time></trkpt><trkpt lat="40.7747847" lon="9.5539087"><ele>146.0</ele><time>2026-04-13T08:32:19.755Z</time></trkpt><trkpt lat="40.7746917" lon="9.5538284"><ele>146.0</ele><time>2026-04-13T08:32:20.735Z</time></trkpt><trkpt lat="40.7745888" lon="9.5537644"><ele>146.0</ele><time>2026-04-13T08:32:21.745Z</time></trkpt><trkpt lat="40.7744737" lon="9.553713"><ele>146.0</ele><time>2026-04-13T08:32:22.733Z</time></trkpt><trkpt lat="40.7743445" lon="9.5536573"><ele>143.66666666666666</ele><time>2026-04-13T08:32:23.733Z</time></trkpt><trkpt lat="40.7742007" lon="9.5536041"><ele>141.33333333333334</ele><time>2026-04-13T08:32:24.731Z</time></trkpt><trkpt lat="40.7740514" lon="9.5535421"><ele>139.0</ele><time>2026-04-13T08:32:25.72Z</time></trkpt><trkpt lat="40.7738972" lon="9.5534837"><ele>139.0</ele><time>2026-04-13T08:32:26.737Z</time></trkpt><trkpt lat="40.773737" lon="9.5534221"><ele>139.0</ele><time>2026-04-13T08:32:27.721Z</time></trkpt><trkpt lat="40.7735765" lon="9.5533571"><ele>139.0</ele><time>2026-04-13T08:32:28.728Z</time></trkpt><trkpt lat="40.7734305" lon="9.5532941"><ele>139.5</ele><time>2026-04-13T08:32:29.729Z</time></trkpt><trkpt lat="40.7733001" lon="9.5532228"><ele>140.0</ele><time>2026-04-13T08:32:30.728Z</time></trkpt><trkpt lat="40.7731864" lon="9.5531333"><ele>140.5</ele><time>2026-04-13T08:32:31.718Z</time></trkpt><trkpt lat="40.7730906" lon="9.5530146"><ele>141.0</ele><time>2026-04-13T08:32:32.726Z</time></trkpt><trkpt lat="40.7730148" lon="9.5528743"><ele>140.75</ele><time>2026-04-13T08:32:33.725Z</time></trkpt><trkpt lat="40.772954" lon="9.5527119"><ele>140.5</ele><time>2026-04-13T08:32:34.712Z</time></trkpt><trkpt lat="40.7728993" lon="9.5525361"><ele>140.25</ele><time>2026-04-13T08:32:35.715Z</time></trkpt><trkpt lat="40.772845" lon="9.5523571"><ele>140.0</ele><time>2026-04-13T08:32:36.72Z</time></trkpt><trkpt lat="40.7727833" lon="9.5521719"><ele>140.0</ele><time>2026-04-13T08:32:37.721Z</time></trkpt><trkpt lat="40.7727227" lon="9.5519928"><ele>140.0</ele><time>2026-04-13T08:32:38.719Z</time></trkpt><trkpt lat="40.7726708" lon="9.5518231"><ele>140.0</ele><time>2026-04-13T08:32:39.717Z</time></trkpt><trkpt lat="40.7726186" lon="9.5516761"><ele>140.0</ele><time>2026-04-13T08:32:40.734Z</time></trkpt><trkpt lat="40.7725731" lon="9.5515491"><ele>140.33333333333331</ele><time>2026-04-13T08:32:41.711Z</time></trkpt><trkpt lat="40.7725337" lon="9.5514366"><ele>140.66666666666666</ele><time>2026-04-13T08:32:42.71Z</time></trkpt><trkpt lat="40.7725" lon="9.5513406"><ele>141.0</ele><time>2026-04-13T08:32:43.731Z</time></trkpt><trkpt lat="40.7724746" lon="9.5512557"><ele>141.33333333333334</ele><time>2026-04-13T08:32:44.722Z</time></trkpt><trkpt lat="40.7724349" lon="9.5511287"><ele>141.66666666666669</ele><time>2026-04-13T08:32:46.716Z</time></trkpt><trkpt lat="40.7723904" lon="9.5510375"><ele>142.0</ele><time>2026-04-13T08:32:48.727Z</time></trkpt><trkpt lat="40.7723391" lon="9.5509456"><ele>142.0</ele><time>2026-04-13T08:32:50.716Z</time></trkpt><trkpt lat="40.7722768" lon="9.5508279"><ele>142.0</ele><time>2026-04-13T08:32:52.727Z</time></trkpt><trkpt lat="40.7722265" lon="9.550693"><ele>142.0</ele><time>2026-04-13T08:32:54.706Z</time></trkpt><trkpt lat="40.7721741" lon="9.5505511"><ele>142.0</ele><time>2026-04-13T08:32:56.712Z</time></trkpt><trkpt lat="40.7721395" lon="9.5504765"><ele>142.0</ele><time>2026-04-13T08:32:57.725Z</time></trkpt><trkpt lat="40.772103" lon="9.5503978"><ele>141.6</ele><time>2026-04-13T08:32:58.725Z</time></trkpt><trkpt lat="40.7720361" lon="9.5502831"><ele>141.2</ele><time>2026-04-13T08:33:00.705Z</time></trkpt><trkpt lat="40.7719602" lon="9.5501904"><ele>140.8</ele><time>2026-04-13T08:33:02.704Z</time></trkpt><trkpt lat="40.7718799" lon="9.5501185"><ele>140.4</ele><time>2026-04-13T08:33:04.707Z</time></trkpt><trkpt lat="40.7717683" lon="9.550069"><ele>140.0</ele><time>2026-04-13T08:33:06.713Z</time></trkpt><trkpt lat="40.7716963" lon="9.550047"><ele>140.0</ele><time>2026-04-13T08:33:07.711Z</time></trkpt><trkpt lat="40.7716153" lon="9.5500218"><ele>140.0</ele><time>2026-04-13T08:33:08.709Z</time></trkpt><trkpt lat="40.7715411" lon="9.5499956"><ele>140.0</ele><time>2026-04-13T08:33:09.697Z</time></trkpt><trkpt lat="40.7714632" lon="9.5499678"><ele>140.0</ele><time>2026-04-13T08:33:10.701Z</time></trkpt><trkpt lat="40.7713862" lon="9.5499428"><ele>140.0</ele><time>2026-04-13T08:33:11.705Z</time></trkpt><trkpt lat="40.7713179" lon="9.5499173"><ele>140.0</ele><time>2026-04-13T08:33:12.704Z</time></trkpt><trkpt lat="40.7712089" lon="9.549874"><ele>140.0</ele><time>2026-04-13T08:33:14.809Z</time></trkpt><trkpt lat="40.7711043" lon="9.5498228"><ele>140.0</ele><time>2026-04-13T08:33:16.804Z</time></trkpt><trkpt lat="40.7710169" lon="9.549748"><ele>140.0</ele><time>2026-04-13T08:33:18.7Z</time></trkpt><trkpt lat="40.7709548" lon="9.5496191"><ele>140.0</ele><time>2026-04-13T08:33:20.807Z</time></trkpt><trkpt lat="40.7708893" lon="9.5494951"><ele>140.0</ele><time>2026-04-13T08:33:22.802Z</time></trkpt><trkpt lat="40.7708298" lon="9.5493833"><ele>139.0</ele><time>2026-04-13T08:33:24.81Z</time></trkpt><trkpt lat="40.7707625" lon="9.5492407"><ele>138.0</ele><time>2026-04-13T08:33:26.819Z</time></trkpt><trkpt lat="40.7707331" lon="9.5491657"><ele>137.0</ele><time>2026-04-13T08:33:27.791Z</time></trkpt><trkpt lat="40.7707071" lon="9.5490818"><ele>136.0</ele><time>2026-04-13T08:33:28.804Z</time></trkpt><trkpt lat="40.7706699" lon="9.5489268"><ele>135.0</ele><time>2026-04-13T08:33:30.803Z</time></trkpt><trkpt lat="40.770633" lon="9.5487879"><ele>134.75</ele><time>2026-04-13T08:33:32.797Z</time></trkpt><trkpt lat="40.7705931" lon="9.5486467"><ele>134.5</ele><time>2026-04-13T08:33:34.813Z</time></trkpt><trkpt lat="40.7705449" lon="9.5484982"><ele>134.25</ele><time>2026-04-13T08:33:36.794Z</time></trkpt><trkpt lat="40.770501" lon="9.5483433"><ele>134.0</ele><time>2026-04-13T08:33:38.802Z</time></trkpt><trkpt lat="40.7704523" lon="9.5481864"><ele>134.0</ele><time>2026-04-13T08:33:40.793Z</time></trkpt><trkpt lat="40.7704241" lon="9.5480946"><ele>134.0</ele><time>2026-04-13T08:33:41.805Z</time></trkpt><trkpt lat="40.7703904" lon="9.5480034"><ele>134.0</ele><time>2026-04-13T08:33:42.799Z</time></trkpt><trkpt lat="40.7703575" lon="9.5479127"><ele>134.0</ele><time>2026-04-13T08:33:43.791Z</time></trkpt><trkpt lat="40.770335" lon="9.5478341"><ele>134.0</ele><time>2026-04-13T08:33:44.791Z</time></trkpt><trkpt lat="40.7702974" lon="9.5476797"><ele>134.0</ele><time>2026-04-13T08:33:46.83Z</time></trkpt><trkpt lat="40.770276" lon="9.5475956"><ele>133.85714285714286</ele><time>2026-04-13T08:33:47.793Z</time></trkpt><trkpt lat="40.7702551" lon="9.5475151"><ele>133.71428571428572</ele><time>2026-04-13T08:33:48.794Z</time></trkpt><trkpt lat="40.7702355" lon="9.5474349"><ele>133.57142857142856</ele><time>2026-04-13T08:33:49.791Z</time></trkpt><trkpt lat="40.7702133" lon="9.5473481"><ele>133.42857142857144</ele><time>2026-04-13T08:33:50.787Z</time></trkpt><trkpt lat="40.770187" lon="9.5472517"><ele>133.28571428571428</ele><time>2026-04-13T08:33:51.787Z</time></trkpt><trkpt lat="40.7701613" lon="9.5471548"><ele>133.14285714285714</ele><time>2026-04-13T08:33:52.798Z</time></trkpt><trkpt lat="40.7701314" lon="9.5470616"><ele>133.0</ele><time>2026-04-13T08:33:53.795Z</time></trkpt><trkpt lat="40.7701068" lon="9.5469726"><ele>133.6</ele><time>2026-04-13T08:33:54.787Z</time></trkpt><trkpt lat="40.7700807" lon="9.5468844"><ele>134.20000000000002</ele><time>2026-04-13T08:33:55.801Z</time></trkpt><trkpt lat="40.7700403" lon="9.5467409"><ele>134.8</ele><time>2026-04-13T08:33:57.792Z</time></trkpt><trkpt lat="40.7700111" lon="9.5465748"><ele>135.4</ele><time>2026-04-13T08:33:59.801Z</time></trkpt><trkpt lat="40.7699906" lon="9.5464799"><ele>136.0</ele><time>2026-04-13T08:34:00.798Z</time></trkpt><trkpt lat="40.7699768" lon="9.5463656"><ele>136.0</ele><time>2026-04-13T08:34:01.783Z</time></trkpt><trkpt lat="40.7699623" lon="9.546233"><ele>136.0</ele><time>2026-04-13T08:34:02.8Z</time></trkpt><trkpt lat="40.7699486" lon="9.5460975"><ele>136.0</ele><time>2026-04-13T08:34:03.793Z</time></trkpt><trkpt lat="40.7699372" lon="9.5459681"><ele>136.0</ele><time>2026-04-13T08:34:04.791Z</time></trkpt><trkpt lat="40.769924" lon="9.5458496"><ele>136.0</ele><time>2026-04-13T08:34:05.789Z</time></trkpt><trkpt lat="40.7699081" lon="9.5457441"><ele>136.0</ele><time>2026-04-13T08:34:06.782Z</time></trkpt><trkpt lat="40.7698814" lon="9.5456362"><ele>136.0</ele><time>2026-04-13T08:34:07.795Z</time></trkpt><trkpt lat="40.7698489" lon="9.5455188"><ele>136.0</ele><time>2026-04-13T08:34:08.783Z</time></trkpt><trkpt lat="40.7698134" lon="9.5453985"><ele>136.0</ele><time>2026-04-13T08:34:09.791Z</time></trkpt><trkpt lat="40.7697756" lon="9.5452714"><ele>136.0</ele><time>2026-04-13T08:34:10.779Z</time></trkpt><trkpt lat="40.7697403" lon="9.5451298"><ele>136.0</ele><time>2026-04-13T08:34:11.789Z</time></trkpt><trkpt lat="40.7697068" lon="9.5449941"><ele>136.0</ele><time>2026-04-13T08:34:12.777Z</time></trkpt><trkpt lat="40.7696738" lon="9.5448752"><ele>136.0</ele><time>2026-04-13T08:34:13.787Z</time></trkpt><trkpt lat="40.7696442" lon="9.5447569"><ele>136.0</ele><time>2026-04-13T08:34:14.785Z</time></trkpt><trkpt lat="40.7696155" lon="9.54464"><ele>136.0</ele><time>2026-04-13T08:34:15.786Z</time></trkpt><trkpt lat="40.7695899" lon="9.5445261"><ele>135.4</ele><time>2026-04-13T08:34:16.776Z</time></trkpt><trkpt lat="40.7695687" lon="9.5444259"><ele>134.8</ele><time>2026-04-13T08:34:17.807Z</time></trkpt><trkpt lat="40.7695449" lon="9.5443322"><ele>134.20000000000002</ele><time>2026-04-13T08:34:18.781Z</time></trkpt><trkpt lat="40.7695152" lon="9.5442328"><ele>133.6</ele><time>2026-04-13T08:34:19.79Z</time></trkpt><trkpt lat="40.7694747" lon="9.5441141"><ele>133.0</ele><time>2026-04-13T08:34:20.786Z</time></trkpt><trkpt lat="40.769428" lon="9.5439667"><ele>133.0</ele><time>2026-04-13T08:34:21.778Z</time></trkpt><trkpt lat="40.7693748" lon="9.5438042"><ele>133.0</ele><time>2026-04-13T08:34:22.78Z</time></trkpt><trkpt lat="40.7693269" lon="9.5436391"><ele>133.0</ele><time>2026-04-13T08:34:23.778Z</time></trkpt><trkpt lat="40.7692894" lon="9.5434947"><ele>133.0</ele><time>2026-04-13T08:34:24.78Z</time></trkpt><trkpt lat="40.7692584" lon="9.5433666"><ele>133.0</ele><time>2026-04-13T08:34:25.795Z</time></trkpt><trkpt lat="40.7692277" lon="9.5432508"><ele>133.0</ele><time>2026-04-13T08:34:26.782Z</time></trkpt><trkpt lat="40.7691971" lon="9.5431454"><ele>133.0</ele><time>2026-04-13T08:34:27.79Z</time></trkpt><trkpt lat="40.769161" lon="9.543027"><ele>133.0</ele><time>2026-04-13T08:34:28.785Z</time></trkpt><trkpt lat="40.769127" lon="9.5429075"><ele>133.0</ele><time>2026-04-13T08:34:29.785Z</time></trkpt><trkpt lat="40.769099" lon="9.542783"><ele>133.0</ele><time>2026-04-13T08:34:30.78Z</time></trkpt><trkpt lat="40.7690731" lon="9.5426661"><ele>133.0</ele><time>2026-04-13T08:34:31.784Z</time></trkpt><trkpt lat="40.7690451" lon="9.5425632"><ele>133.0</ele><time>2026-04-13T08:34:32.777Z</time></trkpt><trkpt lat="40.7690244" lon="9.5424617"><ele>133.0</ele><time>2026-04-13T08:34:33.776Z</time></trkpt><trkpt lat="40.7690081" lon="9.5423749"><ele>133.0</ele><time>2026-04-13T08:34:34.782Z</time></trkpt><trkpt lat="40.7689704" lon="9.5422227"><ele>133.0</ele><time>2026-04-13T08:34:36.767Z</time></trkpt><trkpt lat="40.7689412" lon="9.542068"><ele>132.4</ele><time>2026-04-13T08:34:38.778Z</time></trkpt><trkpt lat="40.7689032" lon="9.5419232"><ele>131.8</ele><time>2026-04-13T08:34:40.766Z</time></trkpt><trkpt lat="40.7688804" lon="9.5418331"><ele>131.2</ele><time>2026-04-13T08:34:41.781Z</time></trkpt><trkpt lat="40.768852" lon="9.5417426"><ele>130.6</ele><time>2026-04-13T08:34:42.77Z</time></trkpt><trkpt lat="40.7688246" lon="9.541661"><ele>130.0</ele><time>2026-04-13T08:34:43.773Z</time></trkpt><trkpt lat="40.7687784" lon="9.5415057"><ele>130.0</ele><time>2026-04-13T08:34:45.77Z</time></trkpt><trkpt lat="40.7687689" lon="9.5414209"><ele>130.0</ele><time>2026-04-13T08:34:46.787Z</time></trkpt><trkpt lat="40.7687395" lon="9.5412599"><ele>130.0</ele><time>2026-04-13T08:34:48.775Z</time></trkpt><trkpt lat="40.7687186" lon="9.5411782"><ele>130.0</ele><time>2026-04-13T08:34:49.776Z</time></trkpt><trkpt lat="40.768691" lon="9.5411012"><ele>130.0</ele><time>2026-04-13T08:34:50.787Z</time></trkpt><trkpt lat="40.7686675" lon="9.541022"><ele>130.0</ele><time>2026-04-13T08:34:51.791Z</time></trkpt><trkpt lat="40.7686465" lon="9.5409382"><ele>129.85714285714286</ele><time>2026-04-13T08:34:52.766Z</time></trkpt><trkpt lat="40.7686205" lon="9.5408524"><ele>129.71428571428572</ele><time>2026-04-13T08:34:53.821Z</time></trkpt><trkpt lat="40.7685922" lon="9.5407706"><ele>129.57142857142856</ele><time>2026-04-13T08:34:54.767Z</time></trkpt><trkpt lat="40.7685621" lon="9.5406947"><ele>129.42857142857144</ele><time>2026-04-13T08:34:55.793Z</time></trkpt><trkpt lat="40.7685315" lon="9.5406186"><ele>129.28571428571428</ele><time>2026-04-13T08:34:56.779Z</time></trkpt><trkpt lat="40.7685015" lon="9.5405318"><ele>129.14285714285714</ele><time>2026-04-13T08:34:57.763Z</time></trkpt><trkpt lat="40.7684695" lon="9.54044"><ele>129.0</ele><time>2026-04-13T08:34:58.766Z</time></trkpt><trkpt lat="40.7684312" lon="9.540344"><ele>129.6</ele><time>2026-04-13T08:34:59.801Z</time></trkpt><trkpt lat="40.7683946" lon="9.5402493"><ele>130.2</ele><time>2026-04-13T08:35:00.757Z</time></trkpt><trkpt lat="40.7683513" lon="9.5401628"><ele>130.79999999999998</ele><time>2026-04-13T08:35:01.769Z</time></trkpt><trkpt lat="40.7683138" lon="9.5400853"><ele>131.4</ele><time>2026-04-13T08:35:02.778Z</time></trkpt><trkpt lat="40.7682725" lon="9.5399454"><ele>132.0</ele><time>2026-04-13T08:35:04.769Z</time></trkpt><trkpt lat="40.768291" lon="9.5397799"><ele>132.0</ele><time>2026-04-13T08:35:06.771Z</time></trkpt><trkpt lat="40.7683191" lon="9.5396898"><ele>132.0</ele><time>2026-04-13T08:35:07.783Z</time></trkpt><trkpt lat="40.7683534" lon="9.5396073"><ele>132.0</ele><time>2026-04-13T08:35:08.759Z</time></trkpt><trkpt lat="40.7684036" lon="9.5395434"><ele>132.0</ele><time>2026-04-13T08:35:09.757Z</time></trkpt><trkpt lat="40.7684695" lon="9.5394976"><ele>132.0</ele><time>2026-04-13T08:35:10.769Z</time></trkpt><trkpt lat="40.7685236" lon="9.5394507"><ele>132.0</ele><time>2026-04-13T08:35:11.769Z</time></trkpt><trkpt lat="40.7685963" lon="9.5393355"><ele>131.0</ele><time>2026-04-13T08:35:13.76Z</time></trkpt><trkpt lat="40.7686078" lon="9.5392417"><ele>130.0</ele><time>2026-04-13T08:35:14.761Z</time></trkpt><trkpt lat="40.7686178" lon="9.5391472"><ele>129.0</ele><time>2026-04-13T08:35:15.762Z</time></trkpt><trkpt lat="40.7686199" lon="9.5389858"><ele>128.0</ele><time>2026-04-13T08:35:17.756Z</time></trkpt><trkpt lat="40.7685958" lon="9.5388216"><ele>127.0</ele><time>2026-04-13T08:35:19.761Z</time></trkpt><trkpt lat="40.7685797" lon="9.5387273"><ele>127.0</ele><time>2026-04-13T08:35:20.765Z</time></trkpt><trkpt lat="40.7685904" lon="9.5385801"><ele>126.99999999999999</ele><time>2026-04-13T08:35:22.761Z</time></trkpt><trkpt lat="40.7686352" lon="9.538448"><ele>126.99999999999999</ele><time>2026-04-13T08:35:24.766Z</time></trkpt><trkpt lat="40.7686598" lon="9.5383562"><ele>127.0</ele><time>2026-04-13T08:35:25.769Z</time></trkpt><trkpt lat="40.7686808" lon="9.5382564"><ele>127.0</ele><time>2026-04-13T08:35:26.773Z</time></trkpt><trkpt lat="40.768705" lon="9.5381503"><ele>127.0</ele><time>2026-04-13T08:35:27.771Z</time></trkpt><trkpt lat="40.7687336" lon="9.5380383"><ele>126.99999999999999</ele><time>2026-04-13T08:35:28.767Z</time></trkpt><trkpt lat="40.7687671" lon="9.5379264"><ele>126.99999999999999</ele><time>2026-04-13T08:35:29.746Z</time></trkpt><trkpt lat="40.768805" lon="9.5378073"><ele>127.0</ele><time>2026-04-13T08:35:30.749Z</time></trkpt><trkpt lat="40.7688393" lon="9.5376855"><ele>127.0</ele><time>2026-04-13T08:35:31.767Z</time></trkpt><trkpt lat="40.7688705" lon="9.537558"><ele>127.0</ele><time>2026-04-13T08:35:32.758Z</time></trkpt><trkpt lat="40.7689035" lon="9.5374268"><ele>126.99999999999999</ele><time>2026-04-13T08:35:33.754Z</time></trkpt><trkpt lat="40.768936" lon="9.5372857"><ele>126.99999999999999</ele><time>2026-04-13T08:35:34.763Z</time></trkpt><trkpt lat="40.7689735" lon="9.5371475"><ele>127.0</ele><time>2026-04-13T08:35:35.761Z</time></trkpt><trkpt lat="40.7690175" lon="9.5370083"><ele>127.0</ele><time>2026-04-13T08:35:36.746Z</time></trkpt><trkpt lat="40.7690576" lon="9.5368682"><ele>127.25</ele><time>2026-04-13T08:35:37.743Z</time></trkpt><trkpt lat="40.7690941" lon="9.5367211"><ele>127.5</ele><time>2026-04-13T08:35:38.757Z</time></trkpt><trkpt lat="40.7691328" lon="9.5365709"><ele>127.75</ele><time>2026-04-13T08:35:39.748Z</time></trkpt><trkpt lat="40.7691757" lon="9.5364215"><ele>128.0</ele><time>2026-04-13T08:35:40.765Z</time></trkpt><trkpt lat="40.7692152" lon="9.536281"><ele>128.20000000000002</ele><time>2026-04-13T08:35:41.752Z</time></trkpt><trkpt lat="40.7692498" lon="9.5361466"><ele>128.4</ele><time>2026-04-13T08:35:42.749Z</time></trkpt><trkpt lat="40.7692857" lon="9.5360157"><ele>128.60000000000002</ele><time>2026-04-13T08:35:43.76Z</time></trkpt><trkpt lat="40.7693207" lon="9.5358826"><ele>128.8</ele><time>2026-04-13T08:35:44.751Z</time></trkpt><trkpt lat="40.7693588" lon="9.5357472"><ele>129.0</ele><time>2026-04-13T08:35:45.743Z</time></trkpt><trkpt lat="40.7693908" lon="9.5356174"><ele>129.0</ele><time>2026-04-13T08:35:46.764Z</time></trkpt><trkpt lat="40.7694205" lon="9.5355018"><ele>129.0</ele><time>2026-04-13T08:35:47.755Z</time></trkpt><trkpt lat="40.7694481" lon="9.5353976"><ele>129.0</ele><time>2026-04-13T08:35:48.764Z</time></trkpt><trkpt lat="40.7694738" lon="9.5352936"><ele>129.0</ele><time>2026-04-13T08:35:49.743Z</time></trkpt><trkpt lat="40.7694978" lon="9.5352086"><ele>129.0</ele><time>2026-04-13T08:35:50.757Z</time></trkpt><trkpt lat="40.7695349" lon="9.5350802"><ele>129.0</ele><time>2026-04-13T08:35:52.759Z</time></trkpt><trkpt lat="40.7695619" lon="9.5349952"><ele>129.66666666666666</ele><time>2026-04-13T08:35:54.738Z</time></trkpt><trkpt lat="40.769577" lon="9.5348959"><ele>130.33333333333334</ele><time>2026-04-13T08:35:56.769Z</time></trkpt><trkpt lat="40.7695811" lon="9.5348069"><ele>131.0</ele><time>2026-04-13T08:35:57.737Z</time></trkpt><trkpt lat="40.7695752" lon="9.5347086"><ele>131.66666666666669</ele><time>2026-04-13T08:35:58.74Z</time></trkpt><trkpt lat="40.7695625" lon="9.5345913"><ele>132.33333333333334</ele><time>2026-04-13T08:35:59.773Z</time></trkpt><trkpt lat="40.76954" lon="9.534464"><ele>133.0</ele><time>2026-04-13T08:36:00.75Z</time></trkpt><trkpt lat="40.7695223" lon="9.5343298"><ele>134.0</ele><time>2026-04-13T08:36:01.742Z</time></trkpt><trkpt lat="40.7695014" lon="9.5341909"><ele>135.0</ele><time>2026-04-13T08:36:02.735Z</time></trkpt><trkpt lat="40.7694807" lon="9.5340458"><ele>136.0</ele><time>2026-04-13T08:36:03.744Z</time></trkpt><trkpt lat="40.7694544" lon="9.5338982"><ele>137.0</ele><time>2026-04-13T08:36:04.742Z</time></trkpt><trkpt lat="40.7694276" lon="9.5337471"><ele>137.75</ele><time>2026-04-13T08:36:05.74Z</time></trkpt><trkpt lat="40.7694004" lon="9.5335877"><ele>138.5</ele><time>2026-04-13T08:36:06.748Z</time></trkpt><trkpt lat="40.7693738" lon="9.5334252"><ele>139.25</ele><time>2026-04-13T08:36:07.747Z</time></trkpt><trkpt lat="40.7693475" lon="9.5332633"><ele>140.0</ele><time>2026-04-13T08:36:08.752Z</time></trkpt><trkpt lat="40.7693223" lon="9.5331023"><ele>140.25</ele><time>2026-04-13T08:36:09.748Z</time></trkpt><trkpt lat="40.769306" lon="9.5329422"><ele>140.5</ele><time>2026-04-13T08:36:10.734Z</time></trkpt><trkpt lat="40.7692975" lon="9.5327861"><ele>140.75</ele><time>2026-04-13T08:36:11.8Z</time></trkpt><trkpt lat="40.769298" lon="9.5326276"><ele>141.0</ele><time>2026-04-13T08:36:12.746Z</time></trkpt><trkpt lat="40.7693073" lon="9.532474"><ele>141.0</ele><time>2026-04-13T08:36:13.735Z</time></trkpt><trkpt lat="40.7693181" lon="9.5323237"><ele>141.0</ele><time>2026-04-13T08:36:14.739Z</time></trkpt><trkpt lat="40.7693281" lon="9.5321677"><ele>141.0</ele><time>2026-04-13T08:36:15.738Z</time></trkpt><trkpt lat="40.7693352" lon="9.5320023"><ele>141.0</ele><time>2026-04-13T08:36:16.741Z</time></trkpt><trkpt lat="40.769347" lon="9.5318332"><ele>141.25</ele><time>2026-04-13T08:36:17.743Z</time></trkpt><trkpt lat="40.7693564" lon="9.531661"><ele>141.5</ele><time>2026-04-13T08:36:18.744Z</time></trkpt><trkpt lat="40.7693672" lon="9.5314893"><ele>141.75</ele><time>2026-04-13T08:36:19.747Z</time></trkpt><trkpt lat="40.7693768" lon="9.5313131"><ele>142.0</ele><time>2026-04-13T08:36:20.747Z</time></trkpt><trkpt lat="40.7693817" lon="9.531139"><ele>143.25</ele><time>2026-04-13T08:36:21.736Z</time></trkpt><trkpt lat="40.7693925" lon="9.5309606"><ele>144.5</ele><time>2026-04-13T08:36:22.735Z</time></trkpt><trkpt lat="40.7694047" lon="9.530785"><ele>145.75</ele><time>2026-04-13T08:36:23.739Z</time></trkpt><trkpt lat="40.7694148" lon="9.5305982"><ele>147.0</ele><time>2026-04-13T08:36:24.753Z</time></trkpt><trkpt lat="40.7694211" lon="9.5304047"><ele>148.0</ele><time>2026-04-13T08:36:25.748Z</time></trkpt><trkpt lat="40.7694277" lon="9.5302007"><ele>149.0</ele><time>2026-04-13T08:36:26.765Z</time></trkpt><trkpt lat="40.7694352" lon="9.5299889"><ele>150.0</ele><time>2026-04-13T08:36:27.73Z</time></trkpt><trkpt lat="40.7694441" lon="9.5297766"><ele>150.0</ele><time>2026-04-13T08:36:28.737Z</time></trkpt><trkpt lat="40.7694529" lon="9.5295645"><ele>150.0</ele><time>2026-04-13T08:36:29.743Z</time></trkpt><trkpt lat="40.7694626" lon="9.5293719"><ele>150.0</ele><time>2026-04-13T08:36:30.733Z</time></trkpt><trkpt lat="40.7694699" lon="9.5291932"><ele>150.0</ele><time>2026-04-13T08:36:31.81Z</time></trkpt><trkpt lat="40.7694624" lon="9.5290266"><ele>150.5</ele><time>2026-04-13T08:36:32.734Z</time></trkpt><trkpt lat="40.7694451" lon="9.5288667"><ele>151.0</ele><time>2026-04-13T08:36:33.74Z</time></trkpt><trkpt lat="40.7694069" lon="9.5287083"><ele>151.5</ele><time>2026-04-13T08:36:34.736Z</time></trkpt><trkpt lat="40.7693511" lon="9.5285543"><ele>152.0</ele><time>2026-04-13T08:36:35.759Z</time></trkpt><trkpt lat="40.7692767" lon="9.5284007"><ele>150.33333333333331</ele><time>2026-04-13T08:36:36.728Z</time></trkpt><trkpt lat="40.7691931" lon="9.5282438"><ele>148.66666666666666</ele><time>2026-04-13T08:36:37.727Z</time></trkpt><trkpt lat="40.7691049" lon="9.528079"><ele>147.0</ele><time>2026-04-13T08:36:38.733Z</time></trkpt><trkpt lat="40.7690117" lon="9.5279118"><ele>147.33333333333334</ele><time>2026-04-13T08:36:39.73Z</time></trkpt><trkpt lat="40.7689138" lon="9.5277376"><ele>147.66666666666669</ele><time>2026-04-13T08:36:40.736Z</time></trkpt><trkpt lat="40.7688142" lon="9.5275601"><ele>148.0</ele><time>2026-04-13T08:36:41.724Z</time></trkpt><trkpt lat="40.7687141" lon="9.5273773"><ele>148.0</ele><time>2026-04-13T08:36:42.727Z</time></trkpt><trkpt lat="40.768615" lon="9.5271982"><ele>148.0</ele><time>2026-04-13T08:36:43.735Z</time></trkpt><trkpt lat="40.7685145" lon="9.5270193"><ele>148.0</ele><time>2026-04-13T08:36:44.728Z</time></trkpt><trkpt lat="40.7684157" lon="9.5268458"><ele>147.0</ele><time>2026-04-13T08:36:45.737Z</time></trkpt><trkpt lat="40.7683181" lon="9.5266754"><ele>146.0</ele><time>2026-04-13T08:36:46.739Z</time></trkpt><trkpt lat="40.7682236" lon="9.5265009"><ele>145.0</ele><time>2026-04-13T08:36:47.73Z</time></trkpt><trkpt lat="40.7681291" lon="9.5263321"><ele>146.0</ele><time>2026-04-13T08:36:48.733Z</time></trkpt><trkpt lat="40.768035" lon="9.5261635"><ele>147.0</ele><time>2026-04-13T08:36:49.733Z</time></trkpt><trkpt lat="40.7679467" lon="9.5260021"><ele>148.0</ele><time>2026-04-13T08:36:50.722Z</time></trkpt><trkpt lat="40.7678594" lon="9.5258416"><ele>148.0</ele><time>2026-04-13T08:36:51.747Z</time></trkpt><trkpt lat="40.7677748" lon="9.5256824"><ele>148.0</ele><time>2026-04-13T08:36:52.742Z</time></trkpt><trkpt lat="40.7676908" lon="9.5255248"><ele>148.0</ele><time>2026-04-13T08:36:53.739Z</time></trkpt><trkpt lat="40.7676066" lon="9.5253738"><ele>148.0</ele><time>2026-04-13T08:36:54.72Z</time></trkpt><trkpt lat="40.7675198" lon="9.5252263"><ele>148.75</ele><time>2026-04-13T08:36:55.74Z</time></trkpt><trkpt lat="40.7674357" lon="9.5250762"><ele>149.5</ele><time>2026-04-13T08:36:56.733Z</time></trkpt><trkpt lat="40.7673523" lon="9.5249286"><ele>150.25</ele><time>2026-04-13T08:36:57.726Z</time></trkpt><trkpt lat="40.7672675" lon="9.52478"><ele>151.0</ele><time>2026-04-13T08:36:58.729Z</time></trkpt><trkpt lat="40.7671851" lon="9.5246324"><ele>151.5</ele><time>2026-04-13T08:36:59.724Z</time></trkpt><trkpt lat="40.767117" lon="9.5244997"><ele>152.0</ele><time>2026-04-13T08:37:00.733Z</time></trkpt><trkpt lat="40.7670562" lon="9.5243671"><ele>152.5</ele><time>2026-04-13T08:37:01.726Z</time></trkpt><trkpt lat="40.7670062" lon="9.5242382"><ele>153.0</ele><time>2026-04-13T08:37:02.718Z</time></trkpt><trkpt lat="40.7669665" lon="9.5240964"><ele>153.0</ele><time>2026-04-13T08:37:03.719Z</time></trkpt><trkpt lat="40.7669525" lon="9.523942"><ele>153.0</ele><time>2026-04-13T08:37:04.723Z</time></trkpt><trkpt lat="40.7669573" lon="9.5237833"><ele>153.0</ele><time>2026-04-13T08:37:05.734Z</time></trkpt><trkpt lat="40.7669614" lon="9.5236306"><ele>153.0</ele><time>2026-04-13T08:37:06.735Z</time></trkpt><trkpt lat="40.7669669" lon="9.5234897"><ele>153.4</ele><time>2026-04-13T08:37:07.726Z</time></trkpt><trkpt lat="40.766974" lon="9.5233668"><ele>153.8</ele><time>2026-04-13T08:37:08.727Z</time></trkpt><trkpt lat="40.7669878" lon="9.5232534"><ele>154.2</ele><time>2026-04-13T08:37:09.719Z</time></trkpt><trkpt lat="40.7670048" lon="9.5231632"><ele>154.6</ele><time>2026-04-13T08:37:10.722Z</time></trkpt><trkpt lat="40.7669893" lon="9.5230203"><ele>155.0</ele><time>2026-04-13T08:37:12.731Z</time></trkpt><trkpt lat="40.7669114" lon="9.5229447"><ele>155.0</ele><time>2026-04-13T08:37:14.713Z</time></trkpt><trkpt lat="40.7668571" lon="9.5228368"><ele>155.0</ele><time>2026-04-13T08:37:16.727Z</time></trkpt><trkpt lat="40.7668066" lon="9.522725"><ele>155.0</ele><time>2026-04-13T08:37:18.725Z</time></trkpt><trkpt lat="40.7667438" lon="9.5226021"><ele>155.0</ele><time>2026-04-13T08:37:20.729Z</time></trkpt><trkpt lat="40.7667053" lon="9.5225351"><ele>155.0</ele><time>2026-04-13T08:37:21.725Z</time></trkpt><trkpt lat="40.7666701" lon="9.5224614"><ele>155.0</ele><time>2026-04-13T08:37:22.711Z</time></trkpt><trkpt lat="40.7666361" lon="9.5223855"><ele>155.0</ele><time>2026-04-13T08:37:23.739Z</time></trkpt><trkpt lat="40.7665978" lon="9.5222977"><ele>155.0</ele><time>2026-04-13T08:37:24.733Z</time></trkpt><trkpt lat="40.7665598" lon="9.5222051"><ele>155.0</ele><time>2026-04-13T08:37:25.71Z</time></trkpt><trkpt lat="40.7665137" lon="9.522115"><ele>155.0</ele><time>2026-04-13T08:37:26.75Z</time></trkpt><trkpt lat="40.7664587" lon="9.5220344"><ele>155.0</ele><time>2026-04-13T08:37:27.713Z</time></trkpt><trkpt lat="40.7664067" lon="9.521959"><ele>155.0</ele><time>2026-04-13T08:37:28.706Z</time></trkpt><trkpt lat="40.7663551" lon="9.5218863"><ele>155.4</ele><time>2026-04-13T08:37:29.714Z</time></trkpt><trkpt lat="40.7663057" lon="9.521813"><ele>155.8</ele><time>2026-04-13T08:37:30.713Z</time></trkpt><trkpt lat="40.7662678" lon="9.521746"><ele>156.2</ele><time>2026-04-13T08:37:31.713Z</time></trkpt><trkpt lat="40.7661987" lon="9.5216392"><ele>156.6</ele><time>2026-04-13T08:37:33.724Z</time></trkpt><trkpt lat="40.7661193" lon="9.5215382"><ele>157.0</ele><time>2026-04-13T08:37:35.73Z</time></trkpt><trkpt lat="40.7660453" lon="9.5214206"><ele>157.5</ele><time>2026-04-13T08:37:37.706Z</time></trkpt><trkpt lat="40.7660159" lon="9.5213061"><ele>158.0</ele><time>2026-04-13T08:37:39.728Z</time></trkpt><trkpt lat="40.7660208" lon="9.5212173"><ele>158.5</ele><time>2026-04-13T08:37:41.734Z</time></trkpt><trkpt lat="40.7660117" lon="9.5211334"><ele>159.0</ele><time>2026-04-13T08:37:45.713Z</time></trkpt><trkpt lat="40.7660087" lon="9.5210145"><ele>159.5</ele><time>2026-04-13T08:37:50.708Z</time></trkpt><trkpt lat="40.7660035" lon="9.5209283"><ele>160.0</ele><time>2026-04-13T08:37:52.713Z</time></trkpt><trkpt lat="40.7659947" lon="9.5208233"><ele>160.2</ele><time>2026-04-13T08:37:54.729Z</time></trkpt><trkpt lat="40.7660462" lon="9.5207447"><ele>160.4</ele><time>2026-04-13T08:37:57.703Z</time></trkpt><trkpt lat="40.7661404" lon="9.520728"><ele>160.60000000000002</ele><time>2026-04-13T08:37:59.7Z</time></trkpt><trkpt lat="40.7662435" lon="9.5206839"><ele>160.8</ele><time>2026-04-13T08:38:01.718Z</time></trkpt><trkpt lat="40.7663472" lon="9.5206181"><ele>161.0</ele><time>2026-04-13T08:38:03.722Z</time></trkpt><trkpt lat="40.7664073" lon="9.5205521"><ele>161.0</ele><time>2026-04-13T08:38:05.751Z</time></trkpt><trkpt lat="40.7664448" lon="9.5204663"><ele>161.0</ele><time>2026-04-13T08:38:08.712Z</time></trkpt><trkpt lat="40.7664121" lon="9.5203415"><ele>161.0</ele><time>2026-04-13T08:38:10.698Z</time></trkpt><trkpt lat="40.76635" lon="9.5202212"><ele>161.0</ele><time>2026-04-13T08:38:12.701Z</time></trkpt><trkpt lat="40.7662923" lon="9.5201127"><ele>161.0</ele><time>2026-04-13T08:38:14.699Z</time></trkpt><trkpt lat="40.7662477" lon="9.5200117"><ele>161.33333333333331</ele><time>2026-04-13T08:38:16.701Z</time></trkpt><trkpt lat="40.7662619" lon="9.5199175"><ele>161.66666666666666</ele><time>2026-04-13T08:38:18.712Z</time></trkpt><trkpt lat="40.7663516" lon="9.5198444"><ele>162.0</ele><time>2026-04-13T08:38:20.732Z</time></trkpt><trkpt lat="40.7663996" lon="9.5197882"><ele>162.33333333333334</ele><time>2026-04-13T08:38:21.703Z</time></trkpt><trkpt lat="40.7664353" lon="9.5197065"><ele>162.66666666666669</ele><time>2026-04-13T08:38:22.697Z</time></trkpt><trkpt lat="40.7664656" lon="9.5196205"><ele>163.0</ele><time>2026-04-13T08:38:23.724Z</time></trkpt><trkpt lat="40.7664889" lon="9.5195215"><ele>163.66666666666669</ele><time>2026-04-13T08:38:24.713Z</time></trkpt><trkpt lat="40.7665061" lon="9.5194056"><ele>164.33333333333334</ele><time>2026-04-13T08:38:25.722Z</time></trkpt><trkpt lat="40.7665238" lon="9.5192909"><ele>165.0</ele><time>2026-04-13T08:38:26.702Z</time></trkpt><trkpt lat="40.7665382" lon="9.5191754"><ele>165.66666666666666</ele><time>2026-04-13T08:38:27.702Z</time></trkpt><trkpt lat="40.7665428" lon="9.5190563"><ele>166.33333333333331</ele><time>2026-04-13T08:38:28.711Z</time></trkpt><trkpt lat="40.7665403" lon="9.518943"><ele>167.0</ele><time>2026-04-13T08:38:29.701Z</time></trkpt><trkpt lat="40.766538" lon="9.5188448"><ele>167.0</ele><time>2026-04-13T08:38:30.709Z</time></trkpt><trkpt lat="40.7665327" lon="9.5187577"><ele>167.0</ele><time>2026-04-13T08:38:31.721Z</time></trkpt><trkpt lat="40.7665188" lon="9.5185994"><ele>167.0</ele><time>2026-04-13T08:38:33.708Z</time></trkpt><trkpt lat="40.7665223" lon="9.5184576"><ele>167.0</ele><time>2026-04-13T08:38:35.713Z</time></trkpt><trkpt lat="40.7665274" lon="9.5183696"><ele>167.0</ele><time>2026-04-13T08:38:42.709Z</time></trkpt><trkpt lat="40.7665139" lon="9.5182829"><ele>167.0</ele><time>2026-04-13T08:38:44.709Z</time></trkpt><trkpt lat="40.7664539" lon="9.5181571"><ele>167.33333333333331</ele><time>2026-04-13T08:38:46.706Z</time></trkpt><trkpt lat="40.7663805" lon="9.518035"><ele>167.66666666666666</ele><time>2026-04-13T08:38:48.743Z</time></trkpt><trkpt lat="40.7663643" lon="9.5179515"><ele>168.0</ele><time>2026-04-13T08:38:49.708Z</time></trkpt><trkpt lat="40.7663578" lon="9.5178558"><ele>168.33333333333334</ele><time>2026-04-13T08:38:50.703Z</time></trkpt><trkpt lat="40.7663562" lon="9.517755"><ele>168.66666666666669</ele><time>2026-04-13T08:38:51.801Z</time></trkpt><trkpt lat="40.7663593" lon="9.5176488"><ele>169.0</ele><time>2026-04-13T08:38:52.701Z</time></trkpt><trkpt lat="40.7663629" lon="9.5175341"><ele>169.66666666666669</ele><time>2026-04-13T08:38:53.704Z</time></trkpt><trkpt lat="40.7663636" lon="9.5174212"><ele>170.33333333333334</ele><time>2026-04-13T08:38:54.701Z</time></trkpt><trkpt lat="40.7663513" lon="9.5172993"><ele>171.0</ele><time>2026-04-13T08:38:55.714Z</time></trkpt><trkpt lat="40.7663394" lon="9.5171906"><ele>171.66666666666666</ele><time>2026-04-13T08:38:56.801Z</time></trkpt><trkpt lat="40.7663443" lon="9.5171028"><ele>172.33333333333331</ele><time>2026-04-13T08:38:57.81Z</time></trkpt><trkpt lat="40.7663625" lon="9.5170202"><ele>173.0</ele><time>2026-04-13T08:38:58.795Z</time></trkpt><trkpt lat="40.7664144" lon="9.5168694"><ele>173.2</ele><time>2026-04-13T08:39:00.694Z</time></trkpt><trkpt lat="40.7664932" lon="9.5167728"><ele>173.4</ele><time>2026-04-13T08:39:02.802Z</time></trkpt><trkpt lat="40.766533" lon="9.5166684"><ele>173.6</ele><time>2026-04-13T08:39:04.789Z</time></trkpt><trkpt lat="40.7665514" lon="9.5165166"><ele>173.79999999999998</ele><time>2026-04-13T08:39:06.704Z</time></trkpt><trkpt lat="40.7665547" lon="9.5164253"><ele>174.0</ele><time>2026-04-13T08:39:07.738Z</time></trkpt><trkpt lat="40.7665517" lon="9.5163173"><ele>174.79999999999998</ele><time>2026-04-13T08:39:08.801Z</time></trkpt><trkpt lat="40.7665415" lon="9.5161961"><ele>175.6</ele><time>2026-04-13T08:39:09.816Z</time></trkpt><trkpt lat="40.7665425" lon="9.5160755"><ele>176.4</ele><time>2026-04-13T08:39:10.804Z</time></trkpt><trkpt lat="40.7665542" lon="9.5159732"><ele>177.2</ele><time>2026-04-13T08:39:11.807Z</time></trkpt><trkpt lat="40.7665663" lon="9.5158722"><ele>178.0</ele><time>2026-04-13T08:39:12.796Z</time></trkpt><trkpt lat="40.7665929" lon="9.5156609"><ele>178.0</ele><time>2026-04-13T08:39:14.702Z</time></trkpt><trkpt lat="40.7666132" lon="9.51555"><ele>178.0</ele><time>2026-04-13T08:39:15.803Z</time></trkpt><trkpt lat="40.7666406" lon="9.5154487"><ele>178.0</ele><time>2026-04-13T08:39:16.795Z</time></trkpt><trkpt lat="40.7666727" lon="9.5153538"><ele>178.0</ele><time>2026-04-13T08:39:17.815Z</time></trkpt><trkpt lat="40.7667105" lon="9.5152729"><ele>178.0</ele><time>2026-04-13T08:39:18.79Z</time></trkpt><trkpt lat="40.7667515" lon="9.5152073"><ele>178.0</ele><time>2026-04-13T08:39:19.794Z</time></trkpt><trkpt lat="40.7668111" lon="9.5150899"><ele>179.0</ele><time>2026-04-13T08:39:21.803Z</time></trkpt><trkpt lat="40.7668467" lon="9.5149382"><ele>180.0</ele><time>2026-04-13T08:39:23.796Z</time></trkpt><trkpt lat="40.7668458" lon="9.5147831"><ele>181.0</ele><time>2026-04-13T08:39:25.796Z</time></trkpt><trkpt lat="40.7668313" lon="9.5146889"><ele>182.0</ele><time>2026-04-13T08:39:26.813Z</time></trkpt><trkpt lat="40.7668131" lon="9.5145775"><ele>183.0</ele><time>2026-04-13T08:39:27.788Z</time></trkpt><trkpt lat="40.766797" lon="9.5144645"><ele>183.33333333333334</ele><time>2026-04-13T08:39:28.787Z</time></trkpt><trkpt lat="40.7667821" lon="9.5143583"><ele>183.66666666666666</ele><time>2026-04-13T08:39:29.792Z</time></trkpt><trkpt lat="40.7667704" lon="9.5142588"><ele>184.0</ele><time>2026-04-13T08:39:30.798Z</time></trkpt><trkpt lat="40.7667602" lon="9.5141543"><ele>184.33333333333331</ele><time>2026-04-13T08:39:31.795Z</time></trkpt><trkpt lat="40.766748" lon="9.5140472"><ele>184.66666666666666</ele><time>2026-04-13T08:39:32.79Z</time></trkpt><trkpt lat="40.7667379" lon="9.5139397"><ele>185.0</ele><time>2026-04-13T08:39:33.797Z</time></trkpt><trkpt lat="40.7667355" lon="9.5138267"><ele>185.2</ele><time>2026-04-13T08:39:34.793Z</time></trkpt><trkpt lat="40.7667421" lon="9.5137183"><ele>185.4</ele><time>2026-04-13T08:39:35.789Z</time></trkpt><trkpt lat="40.7667636" lon="9.513602"><ele>185.60000000000002</ele><time>2026-04-13T08:39:36.793Z</time></trkpt><trkpt lat="40.7667959" lon="9.5134818"><ele>185.8</ele><time>2026-04-13T08:39:37.784Z</time></trkpt><trkpt lat="40.7668219" lon="9.5133594"><ele>186.0</ele><time>2026-04-13T08:39:38.791Z</time></trkpt><trkpt lat="40.7668514" lon="9.5132267"><ele>185.8</ele><time>2026-04-13T08:39:39.793Z</time></trkpt><trkpt lat="40.7668829" lon="9.5131024"><ele>185.60000000000002</ele><time>2026-04-13T08:39:40.79Z</time></trkpt><trkpt lat="40.7669123" lon="9.5129772"><ele>185.4</ele><time>2026-04-13T08:39:41.79Z</time></trkpt><trkpt lat="40.7669467" lon="9.5128621"><ele>185.2</ele><time>2026-04-13T08:39:42.79Z</time></trkpt><trkpt lat="40.7669825" lon="9.5127426"><ele>185.0</ele><time>2026-04-13T08:39:43.79Z</time></trkpt><trkpt lat="40.7670094" lon="9.5126304"><ele>185.0</ele><time>2026-04-13T08:39:44.793Z</time></trkpt><trkpt lat="40.7670334" lon="9.512523"><ele>185.0</ele><time>2026-04-13T08:39:45.81Z</time></trkpt><trkpt lat="40.7670604" lon="9.5124059"><ele>185.0</ele><time>2026-04-13T08:39:46.788Z</time></trkpt><trkpt lat="40.7670892" lon="9.5122819"><ele>185.0</ele><time>2026-04-13T08:39:47.784Z</time></trkpt><trkpt lat="40.7671214" lon="9.5121597"><ele>185.0</ele><time>2026-04-13T08:39:48.789Z</time></trkpt><trkpt lat="40.7671539" lon="9.5120316"><ele>186.8</ele><time>2026-04-13T08:39:49.792Z</time></trkpt><trkpt lat="40.7671906" lon="9.5118991"><ele>188.6</ele><time>2026-04-13T08:39:50.795Z</time></trkpt><trkpt lat="40.7672217" lon="9.511765"><ele>190.39999999999998</ele><time>2026-04-13T08:39:51.787Z</time></trkpt><trkpt lat="40.7672533" lon="9.5116286"><ele>192.2</ele><time>2026-04-13T08:39:52.796Z</time></trkpt><trkpt lat="40.767278" lon="9.5114899"><ele>194.0</ele><time>2026-04-13T08:39:53.794Z</time></trkpt><trkpt lat="40.7673003" lon="9.5113505"><ele>195.39999999999998</ele><time>2026-04-13T08:39:54.787Z</time></trkpt><trkpt lat="40.7673162" lon="9.5112079"><ele>196.8</ele><time>2026-04-13T08:39:55.782Z</time></trkpt><trkpt lat="40.7673227" lon="9.5110713"><ele>198.2</ele><time>2026-04-13T08:39:56.796Z</time></trkpt><trkpt lat="40.767327" lon="9.5109351"><ele>199.60000000000002</ele><time>2026-04-13T08:39:57.789Z</time></trkpt><trkpt lat="40.7673342" lon="9.5108118"><ele>201.0</ele><time>2026-04-13T08:39:58.786Z</time></trkpt><trkpt lat="40.7673403" lon="9.5106948"><ele>201.0</ele><time>2026-04-13T08:39:59.785Z</time></trkpt><trkpt lat="40.7673516" lon="9.5105946"><ele>201.0</ele><time>2026-04-13T08:40:00.786Z</time></trkpt><trkpt lat="40.7673673" lon="9.5104893"><ele>201.0</ele><time>2026-04-13T08:40:01.796Z</time></trkpt><trkpt lat="40.7673873" lon="9.5103833"><ele>201.0</ele><time>2026-04-13T08:40:02.783Z</time></trkpt><trkpt lat="40.7674026" lon="9.5102757"><ele>201.0</ele><time>2026-04-13T08:40:03.831Z</time></trkpt><trkpt lat="40.767407" lon="9.5101733"><ele>201.0</ele><time>2026-04-13T08:40:04.798Z</time></trkpt><trkpt lat="40.7674047" lon="9.5100811"><ele>202.0</ele><time>2026-04-13T08:40:05.789Z</time></trkpt><trkpt lat="40.7674538" lon="9.5099397"><ele>203.0</ele><time>2026-04-13T08:40:07.797Z</time></trkpt><trkpt lat="40.7675737" lon="9.5098544"><ele>204.0</ele><time>2026-04-13T08:40:09.793Z</time></trkpt><trkpt lat="40.7676488" lon="9.5098208"><ele>205.0</ele><time>2026-04-13T08:40:10.792Z</time></trkpt><trkpt lat="40.7677202" lon="9.5097961"><ele>206.0</ele><time>2026-04-13T08:40:11.789Z</time></trkpt><trkpt lat="40.7677979" lon="9.5097802"><ele>206.00000000000003</ele><time>2026-04-13T08:40:12.785Z</time></trkpt><trkpt lat="40.7678759" lon="9.5097753"><ele>206.0</ele><time>2026-04-13T08:40:13.788Z</time></trkpt><trkpt lat="40.7679583" lon="9.5097823"><ele>206.0</ele><time>2026-04-13T08:40:14.779Z</time></trkpt><trkpt lat="40.7680389" lon="9.5097851"><ele>206.0</ele><time>2026-04-13T08:40:15.782Z</time></trkpt><trkpt lat="40.768119" lon="9.5097796"><ele>206.00000000000003</ele><time>2026-04-13T08:40:16.787Z</time></trkpt><trkpt lat="40.768201" lon="9.5097737"><ele>206.0</ele><time>2026-04-13T08:40:17.806Z</time></trkpt><trkpt lat="40.7682696" lon="9.5097665"><ele>206.00000000000003</ele><time>2026-04-13T08:40:18.784Z</time></trkpt><trkpt lat="40.768364" lon="9.509722"><ele>206.0</ele><time>2026-04-13T08:40:20.797Z</time></trkpt><trkpt lat="40.7684309" lon="9.509605"><ele>206.0</ele><time>2026-04-13T08:40:22.789Z</time></trkpt><trkpt lat="40.7684545" lon="9.5095262"><ele>206.0</ele><time>2026-04-13T08:40:23.792Z</time></trkpt><trkpt lat="40.7684752" lon="9.5094362"><ele>206.00000000000003</ele><time>2026-04-13T08:40:24.793Z</time></trkpt><trkpt lat="40.7685013" lon="9.5093466"><ele>206.0</ele><time>2026-04-13T08:40:25.78Z</time></trkpt><trkpt lat="40.7685365" lon="9.5092658"><ele>208.4</ele><time>2026-04-13T08:40:26.781Z</time></trkpt><trkpt lat="40.7685806" lon="9.5091899"><ele>210.8</ele><time>2026-04-13T08:40:27.785Z</time></trkpt><trkpt lat="40.7686276" lon="9.5090665"><ele>213.20000000000002</ele><time>2026-04-13T08:40:29.804Z</time></trkpt><trkpt lat="40.7685812" lon="9.5089684"><ele>215.60000000000002</ele><time>2026-04-13T08:40:32.788Z</time></trkpt><trkpt lat="40.7685108" lon="9.5089987"><ele>218.0</ele><time>2026-04-13T08:40:34.79Z</time></trkpt><trkpt lat="40.7684312" lon="9.5091145"><ele>218.00000000000003</ele><time>2026-04-13T08:40:36.778Z</time></trkpt><trkpt lat="40.7683767" lon="9.5091904"><ele>218.0</ele><time>2026-04-13T08:40:37.784Z</time></trkpt><trkpt lat="40.7683171" lon="9.5092363"><ele>218.0</ele><time>2026-04-13T08:40:38.8Z</time></trkpt><trkpt lat="40.7682047" lon="9.5092244"><ele>218.0</ele><time>2026-04-13T08:40:40.791Z</time></trkpt><trkpt lat="40.7681497" lon="9.5091819"><ele>218.00000000000003</ele><time>2026-04-13T08:40:41.788Z</time></trkpt><trkpt lat="40.7680855" lon="9.5091211"><ele>218.0</ele><time>2026-04-13T08:40:42.788Z</time></trkpt><trkpt lat="40.7680312" lon="9.5090469"><ele>218.00000000000003</ele><time>2026-04-13T08:40:43.786Z</time></trkpt><trkpt lat="40.7679797" lon="9.5089649"><ele>218.0</ele><time>2026-04-13T08:40:44.787Z</time></trkpt><trkpt lat="40.7679468" lon="9.5088693"><ele>218.0</ele><time>2026-04-13T08:40:45.791Z</time></trkpt><trkpt lat="40.7679128" lon="9.5087613"><ele>218.0</ele><time>2026-04-13T08:40:46.791Z</time></trkpt><trkpt lat="40.7678835" lon="9.5086582"><ele>218.00000000000003</ele><time>2026-04-13T08:40:47.787Z</time></trkpt><trkpt lat="40.767852" lon="9.5085568"><ele>218.0</ele><time>2026-04-13T08:40:48.79Z</time></trkpt><trkpt lat="40.7678224" lon="9.5084739"><ele>219.28571428571428</ele><time>2026-04-13T08:40:49.801Z</time></trkpt><trkpt lat="40.7678023" lon="9.5083841"><ele>220.57142857142858</ele><time>2026-04-13T08:40:50.794Z</time></trkpt><trkpt lat="40.7677938" lon="9.5082963"><ele>221.85714285714286</ele><time>2026-04-13T08:40:51.792Z</time></trkpt><trkpt lat="40.7677924" lon="9.5082013"><ele>223.14285714285717</ele><time>2026-04-13T08:40:52.798Z</time></trkpt><trkpt lat="40.7677946" lon="9.508105"><ele>224.42857142857144</ele><time>2026-04-13T08:40:53.792Z</time></trkpt><trkpt lat="40.7677939" lon="9.5080147"><ele>225.71428571428572</ele><time>2026-04-13T08:40:54.782Z</time></trkpt><trkpt lat="40.7677983" lon="9.5079138"><ele>227.0</ele><time>2026-04-13T08:40:55.784Z</time></trkpt><trkpt lat="40.7678051" lon="9.5078084"><ele>229.0</ele><time>2026-04-13T08:40:56.783Z</time></trkpt><trkpt lat="40.7678192" lon="9.5077015"><ele>231.00000000000003</ele><time>2026-04-13T08:40:57.785Z</time></trkpt><trkpt lat="40.7678491" lon="9.5076141"><ele>233.0</ele><time>2026-04-13T08:40:58.805Z</time></trkpt><trkpt lat="40.7678808" lon="9.5075195"><ele>235.0</ele><time>2026-04-13T08:40:59.79Z</time></trkpt><trkpt lat="40.7679169" lon="9.507446"><ele>237.00000000000003</ele><time>2026-04-13T08:41:00.79Z</time></trkpt><trkpt lat="40.7679624" lon="9.507381"><ele>239.0</ele><time>2026-04-13T08:41:01.782Z</time></trkpt><trkpt lat="40.7679975" lon="9.5072878"><ele>241.0</ele><time>2026-04-13T08:41:02.8Z</time></trkpt><trkpt lat="40.7680326" lon="9.507203"><ele>240.99999999999997</ele><time>2026-04-13T08:41:03.797Z</time></trkpt><trkpt lat="40.7680723" lon="9.507113"><ele>241.0</ele><time>2026-04-13T08:41:04.793Z</time></trkpt><trkpt lat="40.7681166" lon="9.5070325"><ele>241.0</ele><time>2026-04-13T08:41:05.807Z</time></trkpt><trkpt lat="40.7681653" lon="9.5069612"><ele>241.0</ele><time>2026-04-13T08:41:06.784Z</time></trkpt><trkpt lat="40.7682148" lon="9.5068935"><ele>240.99999999999997</ele><time>2026-04-13T08:41:07.789Z</time></trkpt><trkpt lat="40.7682702" lon="9.5068176"><ele>241.0</ele><time>2026-04-13T08:41:08.786Z</time></trkpt><trkpt lat="40.768333" lon="9.5067544"><ele>241.66666666666666</ele><time>2026-04-13T08:41:09.789Z</time></trkpt><trkpt lat="40.7684058" lon="9.5067109"><ele>242.33333333333331</ele><time>2026-04-13T08:41:10.792Z</time></trkpt><trkpt lat="40.7684799" lon="9.5066779"><ele>243.0</ele><time>2026-04-13T08:41:11.79Z</time></trkpt><trkpt lat="40.7685587" lon="9.5066515"><ele>243.66666666666669</ele><time>2026-04-13T08:41:12.783Z</time></trkpt><trkpt lat="40.7686366" lon="9.5066152"><ele>244.33333333333334</ele><time>2026-04-13T08:41:13.785Z</time></trkpt><trkpt lat="40.7687273" lon="9.5065408"><ele>245.0</ele><time>2026-04-13T08:41:15.784Z</time></trkpt><trkpt lat="40.7687725" lon="9.5064181"><ele>248.8</ele><time>2026-04-13T08:41:17.794Z</time></trkpt><trkpt lat="40.768781" lon="9.5062351"><ele>252.6</ele><time>2026-04-13T08:41:19.792Z</time></trkpt><trkpt lat="40.7687919" lon="9.5061278"><ele>256.4</ele><time>2026-04-13T08:41:20.787Z</time></trkpt><trkpt lat="40.7688137" lon="9.5060141"><ele>260.2</ele><time>2026-04-13T08:41:21.788Z</time></trkpt><trkpt lat="40.7688484" lon="9.5059132"><ele>264.0</ele><time>2026-04-13T08:41:22.786Z</time></trkpt><trkpt lat="40.7688962" lon="9.505833"><ele>264.0</ele><time>2026-04-13T08:41:23.784Z</time></trkpt><trkpt lat="40.7689376" lon="9.5057535"><ele>264.0</ele><time>2026-04-13T08:41:24.789Z</time></trkpt><trkpt lat="40.7689748" lon="9.5056529"><ele>264.0</ele><time>2026-04-13T08:41:25.789Z</time></trkpt><trkpt lat="40.7690141" lon="9.5055531"><ele>264.0</ele><time>2026-04-13T08:41:26.786Z</time></trkpt><trkpt lat="40.76905" lon="9.5054571"><ele>264.0</ele><time>2026-04-13T08:41:27.783Z</time></trkpt><trkpt lat="40.7691053" lon="9.5053783"><ele>264.0</ele><time>2026-04-13T08:41:28.783Z</time></trkpt><trkpt lat="40.7691662" lon="9.5053181"><ele>267.1666666666667</ele><time>2026-04-13T08:41:29.781Z</time></trkpt><trkpt lat="40.7692217" lon="9.5052278"><ele>270.3333333333333</ele><time>2026-04-13T08:41:30.784Z</time></trkpt><trkpt lat="40.7692827" lon="9.5051578"><ele>273.5</ele><time>2026-04-13T08:41:31.791Z</time></trkpt><trkpt lat="40.7693458" lon="9.5050994"><ele>276.66666666666663</ele><time>2026-04-13T08:41:32.785Z</time></trkpt><trkpt lat="40.7694083" lon="9.5050545"><ele>279.8333333333333</ele><time>2026-04-13T08:41:33.855Z</time></trkpt><trkpt lat="40.7694657" lon="9.505017"><ele>283.0</ele><time>2026-04-13T08:41:34.79Z</time></trkpt><trkpt lat="40.7695284" lon="9.5049732"><ele>283.0</ele><time>2026-04-13T08:41:35.785Z</time></trkpt><trkpt lat="40.7695908" lon="9.5049198"><ele>283.0</ele><time>2026-04-13T08:41:36.789Z</time></trkpt><trkpt lat="40.7696621" lon="9.50488"><ele>283.0</ele><time>2026-04-13T08:41:37.792Z</time></trkpt><trkpt lat="40.7697345" lon="9.5048683"><ele>283.0</ele><time>2026-04-13T08:41:38.783Z</time></trkpt><trkpt lat="40.7698012" lon="9.5048641"><ele>283.0</ele><time>2026-04-13T08:41:39.782Z</time></trkpt><trkpt lat="40.7698653" lon="9.5048232"><ele>283.0</ele><time>2026-04-13T08:41:40.827Z</time></trkpt><trkpt lat="40.7699308" lon="9.5047994"><ele>283.0</ele><time>2026-04-13T08:41:41.785Z</time></trkpt><trkpt lat="40.7699933" lon="9.5047674"><ele>283.0</ele><time>2026-04-13T08:41:42.79Z</time></trkpt><trkpt lat="40.7700832" lon="9.5047255"><ele>283.0</ele><time>2026-04-13T08:41:44.783Z</time></trkpt><trkpt lat="40.7701532" lon="9.504718"><ele>283.0</ele><time>2026-04-13T08:41:46.781Z</time></trkpt><trkpt lat="40.7702195" lon="9.5046426"><ele>283.0</ele><time>2026-04-13T08:41:49.793Z</time></trkpt><trkpt lat="40.7701454" lon="9.5045946"><ele>283.0</ele><time>2026-04-13T08:41:52.792Z</time></trkpt><trkpt lat="40.7700785" lon="9.5045909"><ele>283.0</ele><time>2026-04-13T08:41:53.786Z</time></trkpt><trkpt lat="40.7700096" lon="9.5045987"><ele>283.0</ele><time>2026-04-13T08:41:54.777Z</time></trkpt><trkpt lat="40.7699323" lon="9.5046037"><ele>283.0</ele><time>2026-04-13T08:41:55.786Z</time></trkpt><trkpt lat="40.76986" lon="9.5046038"><ele>283.0</ele><time>2026-04-13T08:41:56.795Z</time></trkpt><trkpt lat="40.7697846" lon="9.5045832"><ele>283.0</ele><time>2026-04-13T08:41:57.792Z</time></trkpt><trkpt lat="40.7697125" lon="9.5045645"><ele>283.0</ele><time>2026-04-13T08:41:58.779Z</time></trkpt><trkpt lat="40.7696386" lon="9.5045516"><ele>283.0</ele><time>2026-04-13T08:41:59.789Z</time></trkpt><trkpt lat="40.7695596" lon="9.5045296"><ele>286.66666666666663</ele><time>2026-04-13T08:42:00.793Z</time></trkpt><trkpt lat="40.7694882" lon="9.5045163"><ele>290.3333333333333</ele><time>2026-04-13T08:42:01.792Z</time></trkpt><trkpt lat="40.7694115" lon="9.5045241"><ele>294.0</ele><time>2026-04-13T08:42:02.787Z</time></trkpt><trkpt lat="40.7693305" lon="9.5045317"><ele>297.6666666666667</ele><time>2026-04-13T08:42:03.784Z</time></trkpt><trkpt lat="40.7692089" lon="9.5045226"><ele>301.33333333333337</ele><time>2026-04-13T08:42:05.785Z</time></trkpt><trkpt lat="40.7691366" lon="9.5045174"><ele>305.0</ele><time>2026-04-13T08:42:06.795Z</time></trkpt><trkpt lat="40.7690312" lon="9.5045273"><ele>306.5714285714286</ele><time>2026-04-13T08:42:08.779Z</time></trkpt><trkpt lat="40.7689374" lon="9.50453"><ele>308.1428571428571</ele><time>2026-04-13T08:42:10.78Z</time></trkpt><trkpt lat="40.7688592" lon="9.504508"><ele>309.7142857142857</ele><time>2026-04-13T08:42:13.782Z</time></trkpt><trkpt lat="40.7687976" lon="9.5044867"><ele>311.28571428571433</ele><time>2026-04-13T08:42:15.797Z</time></trkpt><trkpt lat="40.7687318" lon="9.5044761"><ele>312.8571428571429</ele><time>2026-04-13T08:42:17.791Z</time></trkpt><trkpt lat="40.768662" lon="9.5044842"><ele>314.42857142857144</ele><time>2026-04-13T08:42:19.789Z</time></trkpt><trkpt lat="40.7685982" lon="9.5044579"><ele>316.0</ele><time>2026-04-13T08:42:21.772Z</time></trkpt><trkpt lat="40.7686159" lon="9.5043538"><ele>316.0</ele><time>2026-04-13T08:42:24.805Z</time></trkpt><trkpt lat="40.7687157" lon="9.5043326"><ele>316.0</ele><time>2026-04-13T08:42:26.782Z</time></trkpt><trkpt lat="40.768796" lon="9.5043328"><ele>316.0</ele><time>2026-04-13T08:42:27.803Z</time></trkpt><trkpt lat="40.7688683" lon="9.504329"><ele>316.0</ele><time>2026-04-13T08:42:28.792Z</time></trkpt><trkpt lat="40.7689419" lon="9.5043183"><ele>316.0</ele><time>2026-04-13T08:42:29.818Z</time></trkpt><trkpt lat="40.7690177" lon="9.5042964"><ele>316.0</ele><time>2026-04-13T08:42:30.776Z</time></trkpt><trkpt lat="40.7690959" lon="9.5042576"><ele>316.0</ele><time>2026-04-13T08:42:31.778Z</time></trkpt><trkpt lat="40.7691771" lon="9.5041996"><ele>316.0</ele><time>2026-04-13T08:42:32.776Z</time></trkpt><trkpt lat="40.7692656" lon="9.5041311"><ele>316.0</ele><time>2026-04-13T08:42:33.779Z</time></trkpt><trkpt lat="40.7693521" lon="9.5040517"><ele>316.0</ele><time>2026-04-13T08:42:34.77Z</time></trkpt><trkpt lat="40.7694412" lon="9.5039827"><ele>316.0</ele><time>2026-04-13T08:42:35.78Z</time></trkpt><trkpt lat="40.7695303" lon="9.5039067"><ele>313.8</ele><time>2026-04-13T08:42:36.765Z</time></trkpt><trkpt lat="40.7696202" lon="9.5038357"><ele>311.6</ele><time>2026-04-13T08:42:37.786Z</time></trkpt><trkpt lat="40.7696978" lon="9.5037857"><ele>309.4</ele><time>2026-04-13T08:42:38.777Z</time></trkpt><trkpt lat="40.7698211" lon="9.5037984"><ele>307.2</ele><time>2026-04-13T08:42:40.765Z</time></trkpt><trkpt lat="40.7698859" lon="9.5038518"><ele>305.0</ele><time>2026-04-13T08:42:41.784Z</time></trkpt><trkpt lat="40.7699861" lon="9.5038703"><ele>305.0</ele><time>2026-04-13T08:42:43.783Z</time></trkpt><trkpt lat="40.770034" lon="9.5037728"><ele>305.0</ele><time>2026-04-13T08:42:45.79Z</time></trkpt><trkpt lat="40.7700172" lon="9.5036207"><ele>305.0</ele><time>2026-04-13T08:42:47.804Z</time></trkpt><trkpt lat="40.7699899" lon="9.5035385"><ele>305.0</ele><time>2026-04-13T08:42:48.763Z</time></trkpt><trkpt lat="40.7699637" lon="9.5034472"><ele>305.0</ele><time>2026-04-13T08:42:49.765Z</time></trkpt><trkpt lat="40.7699571" lon="9.5033538"><ele>305.0</ele><time>2026-04-13T08:42:50.769Z</time></trkpt><trkpt lat="40.769984" lon="9.5032597"><ele>307.33333333333337</ele><time>2026-04-13T08:42:51.774Z</time></trkpt><trkpt lat="40.7700162" lon="9.5031604"><ele>309.6666666666667</ele><time>2026-04-13T08:42:52.771Z</time></trkpt><trkpt lat="40.7700347" lon="9.5030493"><ele>312.0</ele><time>2026-04-13T08:42:53.774Z</time></trkpt><trkpt lat="40.7700465" lon="9.5029389"><ele>314.3333333333333</ele><time>2026-04-13T08:42:54.779Z</time></trkpt><trkpt lat="40.7700367" lon="9.5028341"><ele>316.66666666666663</ele><time>2026-04-13T08:42:55.775Z</time></trkpt><trkpt lat="40.7700128" lon="9.502708"><ele>319.0</ele><time>2026-04-13T08:42:56.774Z</time></trkpt><trkpt lat="40.7699934" lon="9.5026101"><ele>319.4</ele><time>2026-04-13T08:42:57.79Z</time></trkpt><trkpt lat="40.76992" lon="9.5024776"><ele>319.79999999999995</ele><time>2026-04-13T08:42:59.769Z</time></trkpt><trkpt lat="40.7698196" lon="9.5024128"><ele>320.20000000000005</ele><time>2026-04-13T08:43:01.779Z</time></trkpt><trkpt lat="40.7697108" lon="9.502325"><ele>320.6</ele><time>2026-04-13T08:43:03.787Z</time></trkpt><trkpt lat="40.7696621" lon="9.5022528"><ele>321.0</ele><time>2026-04-13T08:43:04.774Z</time></trkpt><trkpt lat="40.7696189" lon="9.5021665"><ele>323.6</ele><time>2026-04-13T08:43:05.771Z</time></trkpt><trkpt lat="40.7695824" lon="9.5020773"><ele>326.20000000000005</ele><time>2026-04-13T08:43:06.766Z</time></trkpt><trkpt lat="40.7695403" lon="9.5019642"><ele>328.79999999999995</ele><time>2026-04-13T08:43:07.78Z</time></trkpt><trkpt lat="40.7695001" lon="9.5018512"><ele>331.4</ele><time>2026-04-13T08:43:08.776Z</time></trkpt><trkpt lat="40.7694613" lon="9.5017316"><ele>334.0</ele><time>2026-04-13T08:43:09.773Z</time></trkpt><trkpt lat="40.7694291" lon="9.5016151"><ele>334.0</ele><time>2026-04-13T08:43:10.76Z</time></trkpt><trkpt lat="40.7694035" lon="9.5015127"><ele>334.0</ele><time>2026-04-13T08:43:11.761Z</time></trkpt><trkpt lat="40.7693825" lon="9.5014125"><ele>334.0</ele><time>2026-04-13T08:43:12.77Z</time></trkpt><trkpt lat="40.769363" lon="9.5013074"><ele>334.0</ele><time>2026-04-13T08:43:13.767Z</time></trkpt><trkpt lat="40.769335" lon="9.5012151"><ele>334.0</ele><time>2026-04-13T08:43:14.762Z</time></trkpt><trkpt lat="40.7692995" lon="9.5011214"><ele>334.0</ele><time>2026-04-13T08:43:15.787Z</time></trkpt><trkpt lat="40.7692673" lon="9.5010446"><ele>337.5</ele><time>2026-04-13T08:43:16.762Z</time></trkpt><trkpt lat="40.7692097" lon="9.500947"><ele>341.0</ele><time>2026-04-13T08:43:18.765Z</time></trkpt><trkpt lat="40.7691989" lon="9.5008634"><ele>344.5</ele><time>2026-04-13T08:43:20.766Z</time></trkpt><trkpt lat="40.769245" lon="9.5007857"><ele>348.0</ele><time>2026-04-13T08:43:22.763Z</time></trkpt><trkpt lat="40.7693447" lon="9.5007686"><ele>351.5</ele><time>2026-04-13T08:43:24.751Z</time></trkpt><trkpt lat="40.7694558" lon="9.5008024"><ele>355.0</ele><time>2026-04-13T08:43:26.787Z</time></trkpt><trkpt lat="40.7695231" lon="9.5008365"><ele>355.0</ele><time>2026-04-13T08:43:27.775Z</time></trkpt><trkpt lat="40.7695948" lon="9.5008783"><ele>355.0</ele><time>2026-04-13T08:43:28.79Z</time></trkpt><trkpt lat="40.7696637" lon="9.5009157"><ele>355.0</ele><time>2026-04-13T08:43:29.769Z</time></trkpt><trkpt lat="40.7697257" lon="9.5009539"><ele>355.0</ele><time>2026-04-13T08:43:30.763Z</time></trkpt><trkpt lat="40.7697824" lon="9.5009946"><ele>355.0</ele><time>2026-04-13T08:43:31.772Z</time></trkpt><trkpt lat="40.7698955" lon="9.5010376"><ele>355.0</ele><time>2026-04-13T08:43:33.756Z</time></trkpt><trkpt lat="40.7699677" lon="9.5010064"><ele>355.0</ele><time>2026-04-13T08:43:34.752Z</time></trkpt><trkpt lat="40.770031" lon="9.5009727"><ele>355.0</ele><time>2026-04-13T08:43:35.77Z</time></trkpt><trkpt lat="40.7700886" lon="9.5009372"><ele>355.0</ele><time>2026-04-13T08:43:36.763Z</time></trkpt><trkpt lat="40.7701593" lon="9.500823"><ele>355.0</ele><time>2026-04-13T08:43:38.755Z</time></trkpt><trkpt lat="40.7701789" lon="9.5006651"><ele>355.0</ele><time>2026-04-13T08:43:40.772Z</time></trkpt><trkpt lat="40.7702001" lon="9.5005131"><ele>352.6</ele><time>2026-04-13T08:43:42.754Z</time></trkpt><trkpt lat="40.7702721" lon="9.5003682"><ele>350.2</ele><time>2026-04-13T08:43:44.769Z</time></trkpt><trkpt lat="40.7703104" lon="9.5002883"><ele>347.79999999999995</ele><time>2026-04-13T08:43:45.747Z</time></trkpt><trkpt lat="40.7703309" lon="9.5001951"><ele>345.4</ele><time>2026-04-13T08:43:46.747Z</time></trkpt><trkpt lat="40.7703656" lon="9.5000459"><ele>343.0</ele><time>2026-04-13T08:43:48.763Z</time></trkpt><trkpt lat="40.7703697" lon="9.4999223"><ele>343.0</ele><time>2026-04-13T08:43:49.78Z</time></trkpt><trkpt lat="40.7703956" lon="9.499841"><ele>343.0</ele><time>2026-04-13T08:43:50.772Z</time></trkpt><trkpt lat="40.7704113" lon="9.499749"><ele>343.0</ele><time>2026-04-13T08:43:51.764Z</time></trkpt><trkpt lat="40.7704319" lon="9.4996678"><ele>343.0</ele><time>2026-04-13T08:43:52.749Z</time></trkpt><trkpt lat="40.770445" lon="9.4995647"><ele>343.0</ele><time>2026-04-13T08:43:53.748Z</time></trkpt><trkpt lat="40.7704374" lon="9.4994692"><ele>343.0</ele><time>2026-04-13T08:43:54.747Z</time></trkpt><trkpt lat="40.7704256" lon="9.4993719"><ele>343.0</ele><time>2026-04-13T08:43:55.762Z</time></trkpt><trkpt lat="40.7704169" lon="9.4992838"><ele>346.5</ele><time>2026-04-13T08:43:56.75Z</time></trkpt><trkpt lat="40.7704035" lon="9.4991943"><ele>350.0</ele><time>2026-04-13T08:43:57.766Z</time></trkpt><trkpt lat="40.7703979" lon="9.4991054"><ele>353.5</ele><time>2026-04-13T08:43:58.74Z</time></trkpt><trkpt lat="40.7703915" lon="9.4990142"><ele>357.0</ele><time>2026-04-13T08:43:59.764Z</time></trkpt><trkpt lat="40.7703808" lon="9.4989193"><ele>360.5</ele><time>2026-04-13T08:44:00.771Z</time></trkpt><trkpt lat="40.7703598" lon="9.4988279"><ele>364.0</ele><time>2026-04-13T08:44:01.746Z</time></trkpt><trkpt lat="40.7703518" lon="9.49868"><ele>368.2</ele><time>2026-04-13T08:44:03.754Z</time></trkpt><trkpt lat="40.7704319" lon="9.4985482"><ele>372.4</ele><time>2026-04-13T08:44:05.741Z</time></trkpt><trkpt lat="40.7704686" lon="9.4984702"><ele>376.6</ele><time>2026-04-13T08:44:06.739Z</time></trkpt><trkpt lat="40.7705063" lon="9.4983444"><ele>380.8</ele><time>2026-04-13T08:44:08.736Z</time></trkpt><trkpt lat="40.7705487" lon="9.4981921"><ele>385.0</ele><time>2026-04-13T08:44:10.741Z</time></trkpt><trkpt lat="40.7705815" lon="9.4980319"><ele>387.8</ele><time>2026-04-13T08:44:12.741Z</time></trkpt><trkpt lat="40.7705943" lon="9.4978661"><ele>390.6</ele><time>2026-04-13T08:44:14.736Z</time></trkpt><trkpt lat="40.770595" lon="9.4977383"><ele>393.4</ele><time>2026-04-13T08:44:16.741Z</time></trkpt><trkpt lat="40.7706314" lon="9.4976493"><ele>396.2</ele><time>2026-04-13T08:44:18.754Z</time></trkpt><trkpt lat="40.7706906" lon="9.4976083"><ele>399.0</ele><time>2026-04-13T08:44:20.746Z</time></trkpt><trkpt lat="40.7707524" lon="9.4976944"><ele>399.0</ele><time>2026-04-13T08:44:22.738Z</time></trkpt><trkpt lat="40.7707922" lon="9.4977937"><ele>399.0</ele><time>2026-04-13T08:44:23.736Z</time></trkpt><trkpt lat="40.7708372" lon="9.4979088"><ele>399.0</ele><time>2026-04-13T08:44:24.74Z</time></trkpt><trkpt lat="40.7708818" lon="9.4980221"><ele>399.0</ele><time>2026-04-13T08:44:25.736Z</time></trkpt><trkpt lat="40.7709514" lon="9.4982054"><ele>399.0</ele><time>2026-04-13T08:44:27.746Z</time></trkpt><trkpt lat="40.7709946" lon="9.498282"><ele>399.4</ele><time>2026-04-13T08:44:28.741Z</time></trkpt><trkpt lat="40.7710512" lon="9.4984082"><ele>399.79999999999995</ele><time>2026-04-13T08:44:30.733Z</time></trkpt><trkpt lat="40.7711341" lon="9.4984589"><ele>400.20000000000005</ele><time>2026-04-13T08:44:32.737Z</time></trkpt><trkpt lat="40.7712567" lon="9.4984606"><ele>400.6</ele><time>2026-04-13T08:44:34.735Z</time></trkpt><trkpt lat="40.7713391" lon="9.4984383"><ele>401.0</ele><time>2026-04-13T08:44:35.731Z</time></trkpt><trkpt lat="40.7714337" lon="9.4984115"><ele>401.0</ele><time>2026-04-13T08:44:36.74Z</time></trkpt><trkpt lat="40.7715244" lon="9.4983859"><ele>401.0</ele><time>2026-04-13T08:44:37.742Z</time></trkpt><trkpt lat="40.7716003" lon="9.4983685"><ele>401.0</ele><time>2026-04-13T08:44:38.756Z</time></trkpt><trkpt lat="40.7717016" lon="9.4984283"><ele>401.0</ele><time>2026-04-13T08:44:40.742Z</time></trkpt><trkpt lat="40.7717831" lon="9.4985724"><ele>401.0</ele><time>2026-04-13T08:44:42.732Z</time></trkpt><trkpt lat="40.7718221" lon="9.4986472"><ele>405.25</ele><time>2026-04-13T08:44:43.737Z</time></trkpt><trkpt lat="40.7720387" lon="9.4986915"><ele>409.5</ele><time>2026-04-13T08:44:46.725Z</time></trkpt><trkpt lat="40.7721269" lon="9.4986846"><ele>413.75</ele><time>2026-04-13T08:44:47.734Z</time></trkpt><trkpt lat="40.7722133" lon="9.4986829"><ele>418.0</ele><time>2026-04-13T08:44:48.75Z</time></trkpt><trkpt lat="40.7722966" lon="9.4986965"><ele>418.00000000000006</ele><time>2026-04-13T08:44:49.748Z</time></trkpt><trkpt lat="40.772382" lon="9.4987307"><ele>418.0</ele><time>2026-04-13T08:44:50.738Z</time></trkpt><trkpt lat="40.7724493" lon="9.4987561"><ele>418.0</ele><time>2026-04-13T08:44:51.747Z</time></trkpt><trkpt lat="40.7725127" lon="9.4987782"><ele>418.0</ele><time>2026-04-13T08:44:52.728Z</time></trkpt><trkpt lat="40.7726215" lon="9.4987643"><ele>418.00000000000006</ele><time>2026-04-13T08:44:54.727Z</time></trkpt><trkpt lat="40.7726933" lon="9.4987378"><ele>418.0</ele><time>2026-04-13T08:44:55.731Z</time></trkpt><trkpt lat="40.7727756" lon="9.4987122"><ele>418.6666666666667</ele><time>2026-04-13T08:44:56.728Z</time></trkpt><trkpt lat="40.7728574" lon="9.4987099"><ele>419.33333333333337</ele><time>2026-04-13T08:44:57.74Z</time></trkpt><trkpt lat="40.772945" lon="9.4987317"><ele>420.0</ele><time>2026-04-13T08:44:58.725Z</time></trkpt><trkpt lat="40.7730342" lon="9.4987469"><ele>420.66666666666663</ele><time>2026-04-13T08:44:59.745Z</time></trkpt><trkpt lat="40.7731162" lon="9.4987468"><ele>421.3333333333333</ele><time>2026-04-13T08:45:00.748Z</time></trkpt><trkpt lat="40.7731856" lon="9.4987324"><ele>422.0</ele><time>2026-04-13T08:45:01.732Z</time></trkpt><trkpt lat="40.7732549" lon="9.4986913"><ele>421.99999999999994</ele><time>2026-04-13T08:45:02.746Z</time></trkpt><trkpt lat="40.7733213" lon="9.4986436"><ele>422.0</ele><time>2026-04-13T08:45:03.73Z</time></trkpt><trkpt lat="40.773384" lon="9.4985906"><ele>422.0</ele><time>2026-04-13T08:45:04.73Z</time></trkpt><trkpt lat="40.7734567" lon="9.4985461"><ele>422.0</ele><time>2026-04-13T08:45:05.726Z</time></trkpt><trkpt lat="40.7735241" lon="9.4984914"><ele>421.99999999999994</ele><time>2026-04-13T08:45:06.726Z</time></trkpt><trkpt lat="40.7735851" lon="9.4984294"><ele>422.0</ele><time>2026-04-13T08:45:07.724Z</time></trkpt><trkpt lat="40.7736367" lon="9.498358"><ele>422.66666666666663</ele><time>2026-04-13T08:45:08.722Z</time></trkpt><trkpt lat="40.7736876" lon="9.4982596"><ele>423.3333333333333</ele><time>2026-04-13T08:45:09.729Z</time></trkpt><trkpt lat="40.7737449" lon="9.4981753"><ele>424.0</ele><time>2026-04-13T08:45:10.716Z</time></trkpt><trkpt lat="40.773794" lon="9.4980869"><ele>424.66666666666663</ele><time>2026-04-13T08:45:11.725Z</time></trkpt><trkpt lat="40.7738324" lon="9.4979796"><ele>425.3333333333333</ele><time>2026-04-13T08:45:12.732Z</time></trkpt><trkpt lat="40.7738759" lon="9.4978808"><ele>426.0</ele><time>2026-04-13T08:45:13.724Z</time></trkpt><trkpt lat="40.7739159" lon="9.4977849"><ele>428.0</ele><time>2026-04-13T08:45:14.716Z</time></trkpt><trkpt lat="40.7739642" lon="9.4977072"><ele>430.0</ele><time>2026-04-13T08:45:15.727Z</time></trkpt><trkpt lat="40.7740227" lon="9.4976506"><ele>432.0</ele><time>2026-04-13T08:45:16.731Z</time></trkpt><trkpt lat="40.7741287" lon="9.4975966"><ele>434.0</ele><time>2026-04-13T08:45:18.726Z</time></trkpt><trkpt lat="40.7742183" lon="9.4975657"><ele>436.0</ele><time>2026-04-13T08:45:20.735Z</time></trkpt><trkpt lat="40.7742683" lon="9.4976306"><ele>438.0</ele><time>2026-04-13T08:45:22.727Z</time></trkpt><trkpt lat="40.7742733" lon="9.4977698"><ele>437.8333333333333</ele><time>2026-04-13T08:45:24.714Z</time></trkpt><trkpt lat="40.774284" lon="9.4979386"><ele>437.66666666666663</ele><time>2026-04-13T08:45:26.72Z</time></trkpt><trkpt lat="40.7743077" lon="9.4980409"><ele>437.5</ele><time>2026-04-13T08:45:27.716Z</time></trkpt><trkpt lat="40.7743296" lon="9.4981444"><ele>437.3333333333333</ele><time>2026-04-13T08:45:28.711Z</time></trkpt><trkpt lat="40.7743561" lon="9.4982343"><ele>437.16666666666663</ele><time>2026-04-13T08:45:29.729Z</time></trkpt><trkpt lat="40.7743888" lon="9.4983253"><ele>437.0</ele><time>2026-04-13T08:45:30.713Z</time></trkpt><trkpt lat="40.7744411" lon="9.4984214"><ele>436.99999999999994</ele><time>2026-04-13T08:45:31.712Z</time></trkpt><trkpt lat="40.7744881" lon="9.4984915"><ele>437.0</ele><time>2026-04-13T08:45:32.73Z</time></trkpt><trkpt lat="40.774545" lon="9.4985652"><ele>437.0</ele><time>2026-04-13T08:45:33.717Z</time></trkpt><trkpt lat="40.7746014" lon="9.4986279"><ele>437.0</ele><time>2026-04-13T08:45:34.71Z</time></trkpt><trkpt lat="40.7747104" lon="9.4986808"><ele>436.99999999999994</ele><time>2026-04-13T08:45:36.711Z</time></trkpt><trkpt lat="40.7747722" lon="9.4986649"><ele>437.0</ele><time>2026-04-13T08:45:37.72Z</time></trkpt><trkpt lat="40.7748671" lon="9.4986171"><ele>437.0</ele><time>2026-04-13T08:45:39.731Z</time></trkpt><trkpt lat="40.7749229" lon="9.4985085"><ele>437.00000000000006</ele><time>2026-04-13T08:45:41.713Z</time></trkpt><trkpt lat="40.774931" lon="9.4983863"><ele>437.00000000000006</ele><time>2026-04-13T08:45:43.734Z</time></trkpt><trkpt lat="40.7749254" lon="9.4982601"><ele>437.0</ele><time>2026-04-13T08:45:45.721Z</time></trkpt><trkpt lat="40.7749428" lon="9.4981261"><ele>437.0</ele><time>2026-04-13T08:45:47.72Z</time></trkpt><trkpt lat="40.7749531" lon="9.4980071"><ele>438.6</ele><time>2026-04-13T08:45:49.706Z</time></trkpt><trkpt lat="40.7749503" lon="9.4978795"><ele>440.20000000000005</ele><time>2026-04-13T08:45:51.722Z</time></trkpt><trkpt lat="40.774939" lon="9.4977589"><ele>441.8</ele><time>2026-04-13T08:45:53.738Z</time></trkpt><trkpt lat="40.7749362" lon="9.4976522"><ele>443.4</ele><time>2026-04-13T08:45:55.721Z</time></trkpt><trkpt lat="40.7749393" lon="9.4975426"><ele>445.0</ele><time>2026-04-13T08:45:57.72Z</time></trkpt><trkpt lat="40.7749528" lon="9.4974112"><ele>445.0</ele><time>2026-04-13T08:45:59.708Z</time></trkpt><trkpt lat="40.7749376" lon="9.4972959"><ele>445.0</ele><time>2026-04-13T08:46:01.737Z</time></trkpt><trkpt lat="40.7749229" lon="9.4971632"><ele>445.0</ele><time>2026-04-13T08:46:03.742Z</time></trkpt><trkpt lat="40.7749207" lon="9.4970263"><ele>445.0</ele><time>2026-04-13T08:46:05.721Z</time></trkpt><trkpt lat="40.7749461" lon="9.4969114"><ele>445.0</ele><time>2026-04-13T08:46:07.717Z</time></trkpt><trkpt lat="40.7749947" lon="9.4968023"><ele>446.1666666666667</ele><time>2026-04-13T08:46:09.71Z</time></trkpt><trkpt lat="40.7750745" lon="9.4967326"><ele>447.33333333333337</ele><time>2026-04-13T08:46:11.725Z</time></trkpt><trkpt lat="40.7751864" lon="9.4966736"><ele>448.5</ele><time>2026-04-13T08:46:13.744Z</time></trkpt><trkpt lat="40.7752416" lon="9.4966336"><ele>449.66666666666663</ele><time>2026-04-13T08:46:14.71Z</time></trkpt><trkpt lat="40.7752959" lon="9.4965785"><ele>450.8333333333333</ele><time>2026-04-13T08:46:15.705Z</time></trkpt><trkpt lat="40.7753447" lon="9.4965238"><ele>452.0</ele><time>2026-04-13T08:46:16.707Z</time></trkpt><trkpt lat="40.7754262" lon="9.4964111"><ele>454.66666666666663</ele><time>2026-04-13T08:46:18.725Z</time></trkpt><trkpt lat="40.7754894" lon="9.4962624"><ele>457.3333333333333</ele><time>2026-04-13T08:46:20.756Z</time></trkpt><trkpt lat="40.7755206" lon="9.4961878"><ele>460.0</ele><time>2026-04-13T08:46:21.718Z</time></trkpt><trkpt lat="40.7755457" lon="9.4961111"><ele>462.66666666666663</ele><time>2026-04-13T08:46:22.705Z</time></trkpt><trkpt lat="40.7755781" lon="9.4960378"><ele>465.3333333333333</ele><time>2026-04-13T08:46:23.712Z</time></trkpt><trkpt lat="40.7756389" lon="9.4959195"><ele>468.0</ele><time>2026-04-13T08:46:25.704Z</time></trkpt><trkpt lat="40.7756921" lon="9.4957847"><ele>468.0</ele><time>2026-04-13T08:46:27.704Z</time></trkpt><trkpt lat="40.7757517" lon="9.4956375"><ele>467.99999999999994</ele><time>2026-04-13T08:46:29.714Z</time></trkpt><trkpt lat="40.7757733" lon="9.4955502"><ele>467.99999999999994</ele><time>2026-04-13T08:46:30.706Z</time></trkpt><trkpt lat="40.7757863" lon="9.4954606"><ele>468.0</ele><time>2026-04-13T08:46:31.72Z</time></trkpt><trkpt lat="40.7757887" lon="9.4953717"><ele>468.0</ele><time>2026-04-13T08:46:32.713Z</time></trkpt><trkpt lat="40.7757621" lon="9.4952164"><ele>468.0</ele><time>2026-04-13T08:46:34.713Z</time></trkpt><trkpt lat="40.7757547" lon="9.4950585"><ele>468.0</ele><time>2026-04-13T08:46:36.707Z</time></trkpt><trkpt lat="40.7757527" lon="9.4948992"><ele>468.0</ele><time>2026-04-13T08:46:38.712Z</time></trkpt><trkpt lat="40.7757515" lon="9.494739"><ele>468.0</ele><time>2026-04-13T08:46:40.716Z</time></trkpt><trkpt lat="40.7757547" lon="9.494575"><ele>468.8333333333333</ele><time>2026-04-13T08:46:42.705Z</time></trkpt><trkpt lat="40.7757693" lon="9.4944781"><ele>469.66666666666663</ele><time>2026-04-13T08:46:43.706Z</time></trkpt><trkpt lat="40.7757816" lon="9.4943723"><ele>470.5</ele><time>2026-04-13T08:46:44.709Z</time></trkpt><trkpt lat="40.7757951" lon="9.4942717"><ele>471.3333333333333</ele><time>2026-04-13T08:46:45.696Z</time></trkpt><trkpt lat="40.775798" lon="9.4941744"><ele>472.16666666666663</ele><time>2026-04-13T08:46:46.704Z</time></trkpt><trkpt lat="40.7757963" lon="9.4940759"><ele>473.0</ele><time>2026-04-13T08:46:47.701Z</time></trkpt><trkpt lat="40.7758" lon="9.4939615"><ele>472.99999999999994</ele><time>2026-04-13T08:46:48.708Z</time></trkpt><trkpt lat="40.775811" lon="9.4938499"><ele>473.0</ele><time>2026-04-13T08:46:49.702Z</time></trkpt><trkpt lat="40.775824" lon="9.4937346"><ele>473.0</ele><time>2026-04-13T08:46:50.698Z</time></trkpt><trkpt lat="40.7758393" lon="9.4936185"><ele>473.0</ele><time>2026-04-13T08:46:51.7Z</time></trkpt><trkpt lat="40.7758477" lon="9.4934948"><ele>472.99999999999994</ele><time>2026-04-13T08:46:52.705Z</time></trkpt><trkpt lat="40.7758549" lon="9.4933745"><ele>473.0</ele><time>2026-04-13T08:46:53.734Z</time></trkpt><trkpt lat="40.7758609" lon="9.4932637"><ele>473.3333333333333</ele><time>2026-04-13T08:46:54.703Z</time></trkpt><trkpt lat="40.7758626" lon="9.4931643"><ele>473.66666666666663</ele><time>2026-04-13T08:46:55.715Z</time></trkpt><trkpt lat="40.7758729" lon="9.4930605"><ele>474.0</ele><time>2026-04-13T08:46:56.722Z</time></trkpt><trkpt lat="40.775889" lon="9.4929643"><ele>474.33333333333337</ele><time>2026-04-13T08:46:57.698Z</time></trkpt><trkpt lat="40.7759015" lon="9.4928565"><ele>474.6666666666667</ele><time>2026-04-13T08:46:58.708Z</time></trkpt><trkpt lat="40.7759159" lon="9.4927509"><ele>475.0</ele><time>2026-04-13T08:46:59.709Z</time></trkpt><trkpt lat="40.7759299" lon="9.4926551"><ele>475.33333333333337</ele><time>2026-04-13T08:47:00.704Z</time></trkpt><trkpt lat="40.7759408" lon="9.4925635"><ele>475.6666666666667</ele><time>2026-04-13T08:47:01.704Z</time></trkpt><trkpt lat="40.7759472" lon="9.4924736"><ele>476.0</ele><time>2026-04-13T08:47:02.704Z</time></trkpt><trkpt lat="40.7759538" lon="9.4923842"><ele>476.33333333333337</ele><time>2026-04-13T08:47:03.705Z</time></trkpt><trkpt lat="40.7759744" lon="9.4922184"><ele>476.6666666666667</ele><time>2026-04-13T08:47:05.695Z</time></trkpt><trkpt lat="40.775992" lon="9.4920846"><ele>477.0</ele><time>2026-04-13T08:47:07.713Z</time></trkpt><trkpt lat="40.7759806" lon="9.4919736"><ele>477.0</ele><time>2026-04-13T08:47:09.694Z</time></trkpt><trkpt lat="40.7759481" lon="9.4918408"><ele>477.0</ele><time>2026-04-13T08:47:11.712Z</time></trkpt><trkpt lat="40.7759419" lon="9.4917545"><ele>477.0</ele><time>2026-04-13T08:47:12.705Z</time></trkpt><trkpt lat="40.7759428" lon="9.4916587"><ele>477.0</ele><time>2026-04-13T08:47:13.706Z</time></trkpt><trkpt lat="40.7759458" lon="9.4915682"><ele>477.0</ele><time>2026-04-13T08:47:14.712Z</time></trkpt><trkpt lat="40.7759488" lon="9.4914812"><ele>477.0</ele><time>2026-04-13T08:47:15.702Z</time></trkpt><trkpt lat="40.7759426" lon="9.4913336"><ele>475.6666666666667</ele><time>2026-04-13T08:47:17.696Z</time></trkpt><trkpt lat="40.7759282" lon="9.4912141"><ele>474.33333333333337</ele><time>2026-04-13T08:47:19.714Z</time></trkpt><trkpt lat="40.775913" lon="9.4911181"><ele>473.0</ele><time>2026-04-13T08:47:21.801Z</time></trkpt><trkpt lat="40.7759014" lon="9.491025"><ele>471.6666666666667</ele><time>2026-04-13T08:47:23.813Z</time></trkpt><trkpt lat="40.7758882" lon="9.4909432"><ele>470.33333333333337</ele><time>2026-04-13T08:47:25.698Z</time></trkpt><trkpt lat="40.7758728" lon="9.4908412"><ele>469.0</ele><time>2026-04-13T08:47:27.793Z</time></trkpt><trkpt lat="40.7758505" lon="9.4907218"><ele>469.0</ele><time>2026-04-13T08:47:29.799Z</time></trkpt><trkpt lat="40.775836" lon="9.4906385"><ele>469.0</ele><time>2026-04-13T08:47:31.717Z</time></trkpt><trkpt lat="40.7757871" lon="9.4905748"><ele>469.0</ele><time>2026-04-13T08:47:33.813Z</time></trkpt><trkpt lat="40.7757235" lon="9.4905108"><ele>469.0</ele><time>2026-04-13T08:47:35.798Z</time></trkpt><trkpt lat="40.775683" lon="9.4904353"><ele>469.0</ele><time>2026-04-13T08:47:37.79Z</time></trkpt><trkpt lat="40.7756357" lon="9.4903618"><ele>469.0</ele><time>2026-04-13T08:47:39.81Z</time></trkpt><trkpt lat="40.7755835" lon="9.4903104"><ele>469.0</ele><time>2026-04-13T08:47:41.807Z</time></trkpt><trkpt lat="40.7755307" lon="9.4902058"><ele>466.79999999999995</ele><time>2026-04-13T08:47:44.791Z</time></trkpt><trkpt lat="40.7755161" lon="9.4900972"><ele>464.59999999999997</ele><time>2026-04-13T08:47:46.802Z</time></trkpt><trkpt lat="40.7755094" lon="9.4899841"><ele>462.4</ele><time>2026-04-13T08:47:48.791Z</time></trkpt><trkpt lat="40.7754993" lon="9.4898524"><ele>460.2</ele><time>2026-04-13T08:47:50.792Z</time></trkpt><trkpt lat="40.775489" lon="9.489655"><ele>458.0</ele><time>2026-04-13T08:47:53.799Z</time></trkpt><trkpt lat="40.7754714" lon="9.4895221"><ele>455.0</ele><time>2026-04-13T08:47:55.796Z</time></trkpt><trkpt lat="40.7754644" lon="9.4893595"><ele>451.99999999999994</ele><time>2026-04-13T08:47:57.798Z</time></trkpt><trkpt lat="40.7754729" lon="9.4892247"><ele>448.99999999999994</ele><time>2026-04-13T08:47:59.789Z</time></trkpt><trkpt lat="40.7755027" lon="9.4890516"><ele>446.0</ele><time>2026-04-13T08:48:01.797Z</time></trkpt><trkpt lat="40.7755227" lon="9.4889603"><ele>443.0</ele><time>2026-04-13T08:48:02.788Z</time></trkpt><trkpt lat="40.7755393" lon="9.4888699"><ele>442.99999999999994</ele><time>2026-04-13T08:48:03.812Z</time></trkpt><trkpt lat="40.775552" lon="9.4887846"><ele>443.0</ele><time>2026-04-13T08:48:04.803Z</time></trkpt><trkpt lat="40.7755665" lon="9.4886972"><ele>443.0</ele><time>2026-04-13T08:48:05.794Z</time></trkpt><trkpt lat="40.7755791" lon="9.4886127"><ele>443.0</ele><time>2026-04-13T08:48:06.793Z</time></trkpt><trkpt lat="40.7755991" lon="9.4884644"><ele>442.99999999999994</ele><time>2026-04-13T08:48:08.802Z</time></trkpt><trkpt lat="40.7756175" lon="9.488313"><ele>443.0</ele><time>2026-04-13T08:48:10.796Z</time></trkpt><trkpt lat="40.7756354" lon="9.488152"><ele>442.2</ele><time>2026-04-13T08:48:12.792Z</time></trkpt><trkpt lat="40.7756677" lon="9.4880073"><ele>441.4</ele><time>2026-04-13T08:48:14.801Z</time></trkpt><trkpt lat="40.7757171" lon="9.4878895"><ele>440.59999999999997</ele><time>2026-04-13T08:48:16.833Z</time></trkpt><trkpt lat="40.7758029" lon="9.4878134"><ele>439.79999999999995</ele><time>2026-04-13T08:48:18.794Z</time></trkpt><trkpt lat="40.7758648" lon="9.4877783"><ele>439.0</ele><time>2026-04-13T08:48:19.799Z</time></trkpt><trkpt lat="40.7759796" lon="9.4877131"><ele>436.57142857142856</ele><time>2026-04-13T08:48:21.802Z</time></trkpt><trkpt lat="40.7760311" lon="9.4876405"><ele>434.1428571428571</ele><time>2026-04-13T08:48:22.789Z</time></trkpt><trkpt lat="40.7760816" lon="9.48756"><ele>431.7142857142857</ele><time>2026-04-13T08:48:23.797Z</time></trkpt><trkpt lat="40.7761219" lon="9.4874842"><ele>429.2857142857143</ele><time>2026-04-13T08:48:24.791Z</time></trkpt><trkpt lat="40.7761535" lon="9.4874055"><ele>426.8571428571429</ele><time>2026-04-13T08:48:25.788Z</time></trkpt><trkpt lat="40.7761846" lon="9.4873272"><ele>424.42857142857144</ele><time>2026-04-13T08:48:26.799Z</time></trkpt><trkpt lat="40.7762144" lon="9.4872405"><ele>422.0</ele><time>2026-04-13T08:48:27.807Z</time></trkpt><trkpt lat="40.7762432" lon="9.4871556"><ele>421.8</ele><time>2026-04-13T08:48:28.792Z</time></trkpt><trkpt lat="40.7762654" lon="9.4870776"><ele>421.6</ele><time>2026-04-13T08:48:29.818Z</time></trkpt><trkpt lat="40.7763096" lon="9.4869367"><ele>421.40000000000003</ele><time>2026-04-13T08:48:31.788Z</time></trkpt><trkpt lat="40.7763335" lon="9.4868582"><ele>421.20000000000005</ele><time>2026-04-13T08:48:32.804Z</time></trkpt><trkpt lat="40.7763873" lon="9.4867336"><ele>421.0</ele><time>2026-04-13T08:48:34.791Z</time></trkpt><trkpt lat="40.7764707" lon="9.4866377"><ele>421.0</ele><time>2026-04-13T08:48:36.804Z</time></trkpt><trkpt lat="40.7765583" lon="9.4865679"><ele>421.0</ele><time>2026-04-13T08:48:38.785Z</time></trkpt><trkpt lat="40.7766089" lon="9.4864956"><ele>421.0</ele><time>2026-04-13T08:48:40.804Z</time></trkpt><trkpt lat="40.7766962" lon="9.4864467"><ele>421.0</ele><time>2026-04-13T08:48:42.788Z</time></trkpt><trkpt lat="40.7768141" lon="9.4863962"><ele>421.0</ele><time>2026-04-13T08:48:44.792Z</time></trkpt><trkpt lat="40.776879" lon="9.4863689"><ele>419.50000000000006</ele><time>2026-04-13T08:48:45.794Z</time></trkpt><trkpt lat="40.7769459" lon="9.4863431"><ele>418.0</ele><time>2026-04-13T08:48:46.786Z</time></trkpt><trkpt lat="40.7770631" lon="9.4863052"><ele>416.5</ele><time>2026-04-13T08:48:48.789Z</time></trkpt><trkpt lat="40.7771546" lon="9.4862738"><ele>415.0</ele><time>2026-04-13T08:48:50.792Z</time></trkpt><trkpt lat="40.7772207" lon="9.4862471"><ele>413.50000000000006</ele><time>2026-04-13T08:48:52.802Z</time></trkpt><trkpt lat="40.7772861" lon="9.4862244"><ele>412.0</ele><time>2026-04-13T08:48:54.847Z</time></trkpt><trkpt lat="40.7773683" lon="9.4862061"><ele>410.40000000000003</ele><time>2026-04-13T08:48:56.791Z</time></trkpt><trkpt lat="40.7774707" lon="9.4861944"><ele>408.8</ele><time>2026-04-13T08:48:58.796Z</time></trkpt><trkpt lat="40.7775836" lon="9.4861799"><ele>407.2</ele><time>2026-04-13T08:49:00.788Z</time></trkpt><trkpt lat="40.7776671" lon="9.4861364"><ele>405.6</ele><time>2026-04-13T08:49:02.803Z</time></trkpt><trkpt lat="40.7777322" lon="9.4860592"><ele>404.0</ele><time>2026-04-13T08:49:05.804Z</time></trkpt><trkpt lat="40.7777809" lon="9.4859996"><ele>401.8333333333333</ele><time>2026-04-13T08:49:07.789Z</time></trkpt><trkpt lat="40.7778262" lon="9.4859364"><ele>399.66666666666663</ele><time>2026-04-13T08:49:09.786Z</time></trkpt><trkpt lat="40.7778728" lon="9.4858367"><ele>397.5</ele><time>2026-04-13T08:49:12.811Z</time></trkpt><trkpt lat="40.7778988" lon="9.4857437"><ele>395.33333333333337</ele><time>2026-04-13T08:49:14.784Z</time></trkpt><trkpt lat="40.7779399" lon="9.4856255"><ele>393.1666666666667</ele><time>2026-04-13T08:49:16.787Z</time></trkpt><trkpt lat="40.7779828" lon="9.4854945"><ele>391.0</ele><time>2026-04-13T08:49:18.787Z</time></trkpt><trkpt lat="40.7780136" lon="9.4853455"><ele>389.00000000000006</ele><time>2026-04-13T08:49:20.786Z</time></trkpt><trkpt lat="40.7780278" lon="9.4852611"><ele>387.0</ele><time>2026-04-13T08:49:21.781Z</time></trkpt><trkpt lat="40.7780309" lon="9.4851682"><ele>385.0</ele><time>2026-04-13T08:49:22.782Z</time></trkpt><trkpt lat="40.7780286" lon="9.485066"><ele>383.0</ele><time>2026-04-13T08:49:23.788Z</time></trkpt><trkpt lat="40.7780273" lon="9.4849585"><ele>381.0</ele><time>2026-04-13T08:49:24.786Z</time></trkpt><trkpt lat="40.7780184" lon="9.4848692"><ele>379.0</ele><time>2026-04-13T08:49:25.783Z</time></trkpt><trkpt lat="40.7780164" lon="9.4847366"><ele>379.0</ele><time>2026-04-13T08:49:27.779Z</time></trkpt><trkpt lat="40.7780197" lon="9.4846359"><ele>379.0</ele><time>2026-04-13T08:49:29.789Z</time></trkpt><trkpt lat="40.7780252" lon="9.4845432"><ele>379.0</ele><time>2026-04-13T08:49:31.8Z</time></trkpt><trkpt lat="40.7780456" lon="9.4844387"><ele>379.0</ele><time>2026-04-13T08:49:33.794Z</time></trkpt><trkpt lat="40.7780631" lon="9.4843238"><ele>379.0</ele><time>2026-04-13T08:49:35.791Z</time></trkpt><trkpt lat="40.7780904" lon="9.4841954"><ele>379.0</ele><time>2026-04-13T08:49:37.791Z</time></trkpt><trkpt lat="40.7781127" lon="9.4840932"><ele>378.5</ele><time>2026-04-13T08:49:39.774Z</time></trkpt><trkpt lat="40.7781358" lon="9.4839752"><ele>378.0</ele><time>2026-04-13T08:49:41.793Z</time></trkpt><trkpt lat="40.7781518" lon="9.4838545"><ele>377.5</ele><time>2026-04-13T08:49:43.825Z</time></trkpt><trkpt lat="40.7781729" lon="9.4837465"><ele>377.0</ele><time>2026-04-13T08:49:46.782Z</time></trkpt><trkpt lat="40.7781221" lon="9.4836483"><ele>376.5</ele><time>2026-04-13T08:49:49.789Z</time></trkpt><trkpt lat="40.7780545" lon="9.4835709"><ele>376.0</ele><time>2026-04-13T08:49:51.782Z</time></trkpt><trkpt lat="40.7779637" lon="9.4835005"><ele>375.8</ele><time>2026-04-13T08:49:53.778Z</time></trkpt><trkpt lat="40.7778488" lon="9.4834326"><ele>375.6</ele><time>2026-04-13T08:49:55.79Z</time></trkpt><trkpt lat="40.7777353" lon="9.4833952"><ele>375.4</ele><time>2026-04-13T08:49:57.797Z</time></trkpt><trkpt lat="40.7776145" lon="9.4833604"><ele>375.2</ele><time>2026-04-13T08:49:59.777Z</time></trkpt><trkpt lat="40.7775486" lon="9.4833435"><ele>375.0</ele><time>2026-04-13T08:50:00.786Z</time></trkpt><trkpt lat="40.7774854" lon="9.4833217"><ele>373.0</ele><time>2026-04-13T08:50:01.79Z</time></trkpt><trkpt lat="40.7773657" lon="9.4832805"><ele>371.0</ele><time>2026-04-13T08:50:03.777Z</time></trkpt><trkpt lat="40.7772984" lon="9.4832489"><ele>369.0</ele><time>2026-04-13T08:50:04.774Z</time></trkpt><trkpt lat="40.7772284" lon="9.4832206"><ele>367.0</ele><time>2026-04-13T08:50:05.792Z</time></trkpt><trkpt lat="40.7771612" lon="9.4831926"><ele>365.0</ele><time>2026-04-13T08:50:06.783Z</time></trkpt><trkpt lat="40.7770899" lon="9.4831728"><ele>363.0</ele><time>2026-04-13T08:50:07.768Z</time></trkpt><trkpt lat="40.7770143" lon="9.4831516"><ele>362.99999999999994</ele><time>2026-04-13T08:50:08.771Z</time></trkpt><trkpt lat="40.7769394" lon="9.4831319"><ele>363.0</ele><time>2026-04-13T08:50:09.771Z</time></trkpt><trkpt lat="40.7768649" lon="9.4831107"><ele>363.0</ele><time>2026-04-13T08:50:10.767Z</time></trkpt><trkpt lat="40.7767929" lon="9.4830917"><ele>363.0</ele><time>2026-04-13T08:50:11.774Z</time></trkpt><trkpt lat="40.7767212" lon="9.4830718"><ele>363.0</ele><time>2026-04-13T08:50:12.783Z</time></trkpt><trkpt lat="40.7766511" lon="9.4830506"><ele>362.99999999999994</ele><time>2026-04-13T08:50:13.781Z</time></trkpt><trkpt lat="40.7765794" lon="9.4830319"><ele>363.0</ele><time>2026-04-13T08:50:14.781Z</time></trkpt><trkpt lat="40.7765027" lon="9.4830182"><ele>361.6666666666667</ele><time>2026-04-13T08:50:15.762Z</time></trkpt><trkpt lat="40.7764254" lon="9.4829978"><ele>360.3333333333333</ele><time>2026-04-13T08:50:16.766Z</time></trkpt><trkpt lat="40.7763492" lon="9.4829768"><ele>359.0</ele><time>2026-04-13T08:50:17.773Z</time></trkpt><trkpt lat="40.7762715" lon="9.4829606"><ele>357.66666666666663</ele><time>2026-04-13T08:50:18.784Z</time></trkpt><trkpt lat="40.7761967" lon="9.4829463"><ele>356.3333333333333</ele><time>2026-04-13T08:50:19.783Z</time></trkpt><trkpt lat="40.7761259" lon="9.4829252"><ele>355.0</ele><time>2026-04-13T08:50:20.765Z</time></trkpt><trkpt lat="40.7760164" lon="9.4828524"><ele>354.0</ele><time>2026-04-13T08:50:22.77Z</time></trkpt><trkpt lat="40.7759635" lon="9.4828039"><ele>353.0</ele><time>2026-04-13T08:50:23.785Z</time></trkpt><trkpt lat="40.7759033" lon="9.4827518"><ele>352.0</ele><time>2026-04-13T08:50:24.776Z</time></trkpt><trkpt lat="40.7758437" lon="9.4826983"><ele>351.0</ele><time>2026-04-13T08:50:25.763Z</time></trkpt><trkpt lat="40.7757433" lon="9.4826065"><ele>350.0</ele><time>2026-04-13T08:50:27.773Z</time></trkpt><trkpt lat="40.7756521" lon="9.482531"><ele>349.0</ele><time>2026-04-13T08:50:29.783Z</time></trkpt><trkpt lat="40.7755636" lon="9.4824477"><ele>349.0</ele><time>2026-04-13T08:50:31.785Z</time></trkpt><trkpt lat="40.7754713" lon="9.4823543"><ele>349.0</ele><time>2026-04-13T08:50:33.791Z</time></trkpt><trkpt lat="40.7754176" lon="9.4823064"><ele>349.0</ele><time>2026-04-13T08:50:34.769Z</time></trkpt><trkpt lat="40.7753608" lon="9.4822609"><ele>349.0</ele><time>2026-04-13T08:50:35.775Z</time></trkpt><trkpt lat="40.7753022" lon="9.4822109"><ele>349.0</ele><time>2026-04-13T08:50:36.768Z</time></trkpt><trkpt lat="40.7752486" lon="9.4821542"><ele>349.0</ele><time>2026-04-13T08:50:37.776Z</time></trkpt><trkpt lat="40.7751438" lon="9.4820679"><ele>348.4</ele><time>2026-04-13T08:50:39.772Z</time></trkpt><trkpt lat="40.775034" lon="9.4819907"><ele>347.79999999999995</ele><time>2026-04-13T08:50:41.772Z</time></trkpt><trkpt lat="40.7749629" lon="9.4819379"><ele>347.20000000000005</ele><time>2026-04-13T08:50:42.772Z</time></trkpt><trkpt lat="40.774887" lon="9.4818737"><ele>346.6</ele><time>2026-04-13T08:50:43.766Z</time></trkpt><trkpt lat="40.7748146" lon="9.481811"><ele>346.0</ele><time>2026-04-13T08:50:44.84Z</time></trkpt><trkpt lat="40.7747559" lon="9.4817525"><ele>346.0</ele><time>2026-04-13T08:50:45.771Z</time></trkpt><trkpt lat="40.7747062" lon="9.481697"><ele>346.0</ele><time>2026-04-13T08:50:46.767Z</time></trkpt><trkpt lat="40.7746468" lon="9.4815594"><ele>346.0</ele><time>2026-04-13T08:50:48.773Z</time></trkpt><trkpt lat="40.7746352" lon="9.4814681"><ele>346.0</ele><time>2026-04-13T08:50:49.789Z</time></trkpt><trkpt lat="40.7746357" lon="9.4813476"><ele>346.0</ele><time>2026-04-13T08:50:50.762Z</time></trkpt><trkpt lat="40.7746384" lon="9.4812244"><ele>346.0</ele><time>2026-04-13T08:50:51.786Z</time></trkpt><trkpt lat="40.7746402" lon="9.4811349"><ele>346.4</ele><time>2026-04-13T08:50:52.763Z</time></trkpt><trkpt lat="40.7745917" lon="9.4810024"><ele>346.8</ele><time>2026-04-13T08:50:54.787Z</time></trkpt><trkpt lat="40.7745326" lon="9.4808782"><ele>347.2</ele><time>2026-04-13T08:50:56.779Z</time></trkpt><trkpt lat="40.7744707" lon="9.4807617"><ele>347.59999999999997</ele><time>2026-04-13T08:50:58.797Z</time></trkpt><trkpt lat="40.7744115" lon="9.4806858"><ele>348.0</ele><time>2026-04-13T08:51:00.767Z</time></trkpt><trkpt lat="40.7743272" lon="9.4806112"><ele>348.0</ele><time>2026-04-13T08:51:02.784Z</time></trkpt><trkpt lat="40.7742233" lon="9.4805426"><ele>348.0</ele><time>2026-04-13T08:51:04.764Z</time></trkpt><trkpt lat="40.77414" lon="9.4804675"><ele>348.0</ele><time>2026-04-13T08:51:06.763Z</time></trkpt><trkpt lat="40.7740298" lon="9.4803973"><ele>348.0</ele><time>2026-04-13T08:51:08.77Z</time></trkpt><trkpt lat="40.7739673" lon="9.4803604"><ele>348.0</ele><time>2026-04-13T08:51:09.761Z</time></trkpt><trkpt lat="40.7739031" lon="9.4803297"><ele>347.5</ele><time>2026-04-13T08:51:10.76Z</time></trkpt><trkpt lat="40.773842" lon="9.4802879"><ele>347.0</ele><time>2026-04-13T08:51:11.785Z</time></trkpt><trkpt lat="40.7737794" lon="9.4802412"><ele>346.5</ele><time>2026-04-13T08:51:12.765Z</time></trkpt><trkpt lat="40.7737169" lon="9.4801926"><ele>346.0</ele><time>2026-04-13T08:51:13.754Z</time></trkpt><trkpt lat="40.7736456" lon="9.4801437"><ele>345.5</ele><time>2026-04-13T08:51:14.745Z</time></trkpt><trkpt lat="40.7735757" lon="9.4800904"><ele>345.0</ele><time>2026-04-13T08:51:15.762Z</time></trkpt><trkpt lat="40.7735013" lon="9.4800456"><ele>345.0</ele><time>2026-04-13T08:51:16.761Z</time></trkpt><trkpt lat="40.7734283" lon="9.479999"><ele>345.0</ele><time>2026-04-13T08:51:17.767Z</time></trkpt><trkpt lat="40.7733553" lon="9.4799474"><ele>345.0</ele><time>2026-04-13T08:51:18.756Z</time></trkpt><trkpt lat="40.7732737" lon="9.4798955"><ele>345.0</ele><time>2026-04-13T08:51:19.756Z</time></trkpt><trkpt lat="40.7731875" lon="9.4798456"><ele>345.0</ele><time>2026-04-13T08:51:20.754Z</time></trkpt><trkpt lat="40.7731043" lon="9.4797843"><ele>345.0</ele><time>2026-04-13T08:51:21.752Z</time></trkpt><trkpt lat="40.7730285" lon="9.4797335"><ele>345.0</ele><time>2026-04-13T08:51:22.751Z</time></trkpt><trkpt lat="40.7729559" lon="9.4796998"><ele>345.0</ele><time>2026-04-13T08:51:23.755Z</time></trkpt><trkpt lat="40.7728806" lon="9.4796607"><ele>345.0</ele><time>2026-04-13T08:51:24.748Z</time></trkpt><trkpt lat="40.772803" lon="9.4796027"><ele>345.0</ele><time>2026-04-13T08:51:25.755Z</time></trkpt><trkpt lat="40.7727211" lon="9.4795397"><ele>345.0</ele><time>2026-04-13T08:51:26.744Z</time></trkpt><trkpt lat="40.7726459" lon="9.4794807"><ele>345.0</ele><time>2026-04-13T08:51:27.756Z</time></trkpt><trkpt lat="40.772575" lon="9.479425"><ele>344.8333333333333</ele><time>2026-04-13T08:51:28.759Z</time></trkpt><trkpt lat="40.7725037" lon="9.4793712"><ele>344.6666666666667</ele><time>2026-04-13T08:51:29.76Z</time></trkpt><trkpt lat="40.7724291" lon="9.4793255"><ele>344.5</ele><time>2026-04-13T08:51:30.751Z</time></trkpt><trkpt lat="40.7723534" lon="9.4792835"><ele>344.33333333333337</ele><time>2026-04-13T08:51:31.748Z</time></trkpt><trkpt lat="40.7722737" lon="9.4792483"><ele>344.1666666666667</ele><time>2026-04-13T08:51:32.755Z</time></trkpt><trkpt lat="40.7721961" lon="9.4792044"><ele>344.0</ele><time>2026-04-13T08:51:33.759Z</time></trkpt><trkpt lat="40.7721262" lon="9.4791665"><ele>344.0</ele><time>2026-04-13T08:51:34.754Z</time></trkpt><trkpt lat="40.7720634" lon="9.4791363"><ele>344.0</ele><time>2026-04-13T08:51:35.747Z</time></trkpt><trkpt lat="40.7719518" lon="9.4790836"><ele>344.0</ele><time>2026-04-13T08:51:37.761Z</time></trkpt><trkpt lat="40.7718447" lon="9.4790488"><ele>344.0</ele><time>2026-04-13T08:51:39.775Z</time></trkpt><trkpt lat="40.7717299" lon="9.4790108"><ele>344.0</ele><time>2026-04-13T08:51:41.748Z</time></trkpt><trkpt lat="40.7716681" lon="9.4789856"><ele>344.0</ele><time>2026-04-13T08:51:42.741Z</time></trkpt><trkpt lat="40.7716016" lon="9.4789564"><ele>344.0</ele><time>2026-04-13T08:51:43.754Z</time></trkpt><trkpt lat="40.7715283" lon="9.4789329"><ele>344.0</ele><time>2026-04-13T08:51:44.751Z</time></trkpt><trkpt lat="40.7714563" lon="9.4788951"><ele>344.0</ele><time>2026-04-13T08:51:45.754Z</time></trkpt><trkpt lat="40.7713832" lon="9.4788389"><ele>344.0</ele><time>2026-04-13T08:51:46.747Z</time></trkpt><trkpt lat="40.7713193" lon="9.4787718"><ele>344.0</ele><time>2026-04-13T08:51:47.775Z</time></trkpt><trkpt lat="40.7712626" lon="9.4786979"><ele>342.83333333333337</ele><time>2026-04-13T08:51:48.748Z</time></trkpt><trkpt lat="40.7712087" lon="9.4786198"><ele>341.6666666666667</ele><time>2026-04-13T08:51:49.747Z</time></trkpt><trkpt lat="40.77116" lon="9.4785343"><ele>340.5</ele><time>2026-04-13T08:51:50.747Z</time></trkpt><trkpt lat="40.7711085" lon="9.4784403"><ele>339.3333333333333</ele><time>2026-04-13T08:51:51.749Z</time></trkpt><trkpt lat="40.7710683" lon="9.4783559"><ele>338.16666666666663</ele><time>2026-04-13T08:51:52.744Z</time></trkpt><trkpt lat="40.7710521" lon="9.4782439"><ele>337.0</ele><time>2026-04-13T08:51:54.757Z</time></trkpt><trkpt lat="40.7711319" lon="9.4781471"><ele>337.0</ele><time>2026-04-13T08:51:57.752Z</time></trkpt><trkpt lat="40.7712367" lon="9.4780709"><ele>337.0</ele><time>2026-04-13T08:51:59.755Z</time></trkpt><trkpt lat="40.7712968" lon="9.4780347"><ele>337.0</ele><time>2026-04-13T08:52:00.757Z</time></trkpt><trkpt lat="40.7713639" lon="9.4780113"><ele>337.0</ele><time>2026-04-13T08:52:01.809Z</time></trkpt><trkpt lat="40.7714403" lon="9.4779834"><ele>337.0</ele><time>2026-04-13T08:52:02.745Z</time></trkpt><trkpt lat="40.7715168" lon="9.4779451"><ele>337.0</ele><time>2026-04-13T08:52:03.753Z</time></trkpt><trkpt lat="40.7715912" lon="9.4778902"><ele>337.0</ele><time>2026-04-13T08:52:04.737Z</time></trkpt><trkpt lat="40.7716531" lon="9.4778104"><ele>337.0</ele><time>2026-04-13T08:52:05.758Z</time></trkpt><trkpt lat="40.7716983" lon="9.4777335"><ele>337.0</ele><time>2026-04-13T08:52:06.744Z</time></trkpt><trkpt lat="40.7717348" lon="9.4776624"><ele>337.0</ele><time>2026-04-13T08:52:07.755Z</time></trkpt><trkpt lat="40.771793" lon="9.4775211"><ele>337.0</ele><time>2026-04-13T08:52:09.74Z</time></trkpt><trkpt lat="40.7718395" lon="9.47744"><ele>337.0</ele><time>2026-04-13T08:52:10.751Z</time></trkpt><trkpt lat="40.7718877" lon="9.4773488"><ele>337.0</ele><time>2026-04-13T08:52:11.755Z</time></trkpt><trkpt lat="40.7719379" lon="9.4772572"><ele>337.0</ele><time>2026-04-13T08:52:12.751Z</time></trkpt><trkpt lat="40.7719864" lon="9.4771682"><ele>337.0</ele><time>2026-04-13T08:52:13.757Z</time></trkpt><trkpt lat="40.7720353" lon="9.4770822"><ele>337.0</ele><time>2026-04-13T08:52:14.746Z</time></trkpt><trkpt lat="40.7720815" lon="9.4770009"><ele>337.0</ele><time>2026-04-13T08:52:15.737Z</time></trkpt><trkpt lat="40.7721253" lon="9.4769173"><ele>337.0</ele><time>2026-04-13T08:52:16.742Z</time></trkpt><trkpt lat="40.7721665" lon="9.4768312"><ele>336.5</ele><time>2026-04-13T08:52:17.745Z</time></trkpt><trkpt lat="40.7722034" lon="9.4767335"><ele>336.0</ele><time>2026-04-13T08:52:18.739Z</time></trkpt><trkpt lat="40.7722308" lon="9.4766438"><ele>335.5</ele><time>2026-04-13T08:52:19.766Z</time></trkpt><trkpt lat="40.7722551" lon="9.476541"><ele>335.0</ele><time>2026-04-13T08:52:20.756Z</time></trkpt><trkpt lat="40.7722789" lon="9.4764388"><ele>334.5</ele><time>2026-04-13T08:52:21.738Z</time></trkpt><trkpt lat="40.7723061" lon="9.4763318"><ele>334.0</ele><time>2026-04-13T08:52:22.737Z</time></trkpt><trkpt lat="40.7723347" lon="9.4762215"><ele>333.79999999999995</ele><time>2026-04-13T08:52:23.753Z</time></trkpt><trkpt lat="40.7723628" lon="9.4760997"><ele>333.59999999999997</ele><time>2026-04-13T08:52:24.734Z</time></trkpt><trkpt lat="40.7723937" lon="9.4759715"><ele>333.4</ele><time>2026-04-13T08:52:25.748Z</time></trkpt><trkpt lat="40.7724319" lon="9.4758422"><ele>333.2</ele><time>2026-04-13T08:52:26.741Z</time></trkpt><trkpt lat="40.7724694" lon="9.4757131"><ele>333.0</ele><time>2026-04-13T08:52:27.74Z</time></trkpt><trkpt lat="40.7725023" lon="9.4755835"><ele>333.0</ele><time>2026-04-13T08:52:28.748Z</time></trkpt><trkpt lat="40.7725336" lon="9.4754628"><ele>333.0</ele><time>2026-04-13T08:52:29.745Z</time></trkpt><trkpt lat="40.7725566" lon="9.475351"><ele>333.0</ele><time>2026-04-13T08:52:30.782Z</time></trkpt><trkpt lat="40.7725847" lon="9.4752301"><ele>333.0</ele><time>2026-04-13T08:52:31.759Z</time></trkpt><trkpt lat="40.7726148" lon="9.475106"><ele>333.0</ele><time>2026-04-13T08:52:32.732Z</time></trkpt><trkpt lat="40.772642" lon="9.4749852"><ele>332.79999999999995</ele><time>2026-04-13T08:52:33.743Z</time></trkpt><trkpt lat="40.7726775" lon="9.4748545"><ele>332.6</ele><time>2026-04-13T08:52:34.744Z</time></trkpt><trkpt lat="40.7727074" lon="9.4747271"><ele>332.4</ele><time>2026-04-13T08:52:35.728Z</time></trkpt><trkpt lat="40.7727385" lon="9.4745971"><ele>332.20000000000005</ele><time>2026-04-13T08:52:36.74Z</time></trkpt><trkpt lat="40.77277" lon="9.4744607"><ele>332.0</ele><time>2026-04-13T08:52:37.728Z</time></trkpt><trkpt lat="40.7728015" lon="9.4743216"><ele>331.20000000000005</ele><time>2026-04-13T08:52:38.735Z</time></trkpt><trkpt lat="40.7728266" lon="9.474189"><ele>330.4</ele><time>2026-04-13T08:52:39.749Z</time></trkpt><trkpt lat="40.7728466" lon="9.4740666"><ele>329.6</ele><time>2026-04-13T08:52:40.748Z</time></trkpt><trkpt lat="40.7728609" lon="9.4739506"><ele>328.79999999999995</ele><time>2026-04-13T08:52:41.731Z</time></trkpt><trkpt lat="40.7728795" lon="9.4738331"><ele>328.0</ele><time>2026-04-13T08:52:42.734Z</time></trkpt><trkpt lat="40.7728972" lon="9.4736894"><ele>328.0</ele><time>2026-04-13T08:52:43.73Z</time></trkpt><trkpt lat="40.7729159" lon="9.4735389"><ele>328.0</ele><time>2026-04-13T08:52:44.727Z</time></trkpt><trkpt lat="40.7729333" lon="9.4733948"><ele>328.0</ele><time>2026-04-13T08:52:45.742Z</time></trkpt><trkpt lat="40.7729518" lon="9.4732574"><ele>328.0</ele><time>2026-04-13T08:52:46.74Z</time></trkpt><trkpt lat="40.7729692" lon="9.473116"><ele>328.0</ele><time>2026-04-13T08:52:47.737Z</time></trkpt><trkpt lat="40.7729937" lon="9.4729589"><ele>327.59999999999997</ele><time>2026-04-13T08:52:48.733Z</time></trkpt><trkpt lat="40.7730201" lon="9.4728105"><ele>327.2</ele><time>2026-04-13T08:52:49.723Z</time></trkpt><trkpt lat="40.7730463" lon="9.4726794"><ele>326.8</ele><time>2026-04-13T08:52:50.723Z</time></trkpt><trkpt lat="40.773067" lon="9.4725686"><ele>326.4</ele><time>2026-04-13T08:52:51.731Z</time></trkpt><trkpt lat="40.7730869" lon="9.4724781"><ele>326.0</ele><time>2026-04-13T08:52:52.735Z</time></trkpt><trkpt lat="40.7731149" lon="9.4723338"><ele>326.0</ele><time>2026-04-13T08:52:54.736Z</time></trkpt><trkpt lat="40.7731488" lon="9.4722087"><ele>326.0</ele><time>2026-04-13T08:52:56.737Z</time></trkpt><trkpt lat="40.7731933" lon="9.4721388"><ele>326.0</ele><time>2026-04-13T08:52:58.733Z</time></trkpt><trkpt lat="40.7732532" lon="9.4720886"><ele>326.0</ele><time>2026-04-13T08:53:58.716Z</time></trkpt><trkpt lat="40.7733164" lon="9.4720397"><ele>326.0</ele><time>2026-04-13T08:54:00.72Z</time></trkpt><trkpt lat="40.7733773" lon="9.4720032"><ele>326.0</ele><time>2026-04-13T08:54:02.707Z</time></trkpt><trkpt lat="40.7734717" lon="9.4719213"><ele>326.0</ele><time>2026-04-13T08:54:04.71Z</time></trkpt><trkpt lat="40.7735429" lon="9.4718634"><ele>326.0</ele><time>2026-04-13T08:54:05.709Z</time></trkpt><trkpt lat="40.7736164" lon="9.4717968"><ele>326.0</ele><time>2026-04-13T08:54:06.716Z</time></trkpt><trkpt lat="40.7736969" lon="9.4717261"><ele>326.0</ele><time>2026-04-13T08:54:07.708Z</time></trkpt><trkpt lat="40.7737855" lon="9.4716642"><ele>326.0</ele><time>2026-04-13T08:54:08.704Z</time></trkpt><trkpt lat="40.7738805" lon="9.4716157"><ele>326.0</ele><time>2026-04-13T08:54:09.705Z</time></trkpt><trkpt lat="40.7739864" lon="9.4715896"><ele>326.0</ele><time>2026-04-13T08:54:10.716Z</time></trkpt><trkpt lat="40.7740968" lon="9.4715818"><ele>326.0</ele><time>2026-04-13T08:54:11.701Z</time></trkpt><trkpt lat="40.7742051" lon="9.4715904"><ele>326.0</ele><time>2026-04-13T08:54:12.704Z</time></trkpt><trkpt lat="40.7743138" lon="9.4716105"><ele>326.0</ele><time>2026-04-13T08:54:13.711Z</time></trkpt><trkpt lat="40.7744242" lon="9.4716268"><ele>324.8</ele><time>2026-04-13T08:54:14.702Z</time></trkpt><trkpt lat="40.7745392" lon="9.4716413"><ele>323.6</ele><time>2026-04-13T08:54:15.703Z</time></trkpt><trkpt lat="40.7746537" lon="9.4716577"><ele>322.4</ele><time>2026-04-13T08:54:16.714Z</time></trkpt><trkpt lat="40.7747605" lon="9.4716663"><ele>321.2</ele><time>2026-04-13T08:54:17.706Z</time></trkpt><trkpt lat="40.7748652" lon="9.4716667"><ele>320.0</ele><time>2026-04-13T08:54:18.704Z</time></trkpt><trkpt lat="40.7749761" lon="9.4716542"><ele>320.0</ele><time>2026-04-13T08:54:19.7Z</time></trkpt><trkpt lat="40.7750858" lon="9.4716252"><ele>320.0</ele><time>2026-04-13T08:54:20.711Z</time></trkpt><trkpt lat="40.7751949" lon="9.4715775"><ele>320.0</ele><time>2026-04-13T08:54:21.707Z</time></trkpt><trkpt lat="40.7753105" lon="9.4715078"><ele>320.0</ele><time>2026-04-13T08:54:22.699Z</time></trkpt><trkpt lat="40.7754238" lon="9.4714332"><ele>317.75</ele><time>2026-04-13T08:54:23.703Z</time></trkpt><trkpt lat="40.7755398" lon="9.47135"><ele>315.5</ele><time>2026-04-13T08:54:24.717Z</time></trkpt><trkpt lat="40.7756604" lon="9.4712641"><ele>313.25</ele><time>2026-04-13T08:54:25.697Z</time></trkpt><trkpt lat="40.7757855" lon="9.4711798"><ele>311.0</ele><time>2026-04-13T08:54:26.698Z</time></trkpt><trkpt lat="40.7759103" lon="9.4710938"><ele>309.0</ele><time>2026-04-13T08:54:27.715Z</time></trkpt><trkpt lat="40.7760332" lon="9.4710068"><ele>307.0</ele><time>2026-04-13T08:54:28.698Z</time></trkpt><trkpt lat="40.7761531" lon="9.4709129"><ele>305.0</ele><time>2026-04-13T08:54:29.698Z</time></trkpt><trkpt lat="40.7762761" lon="9.4708143"><ele>303.0</ele><time>2026-04-13T08:54:30.713Z</time></trkpt><trkpt lat="40.7763948" lon="9.4707028"><ele>303.0</ele><time>2026-04-13T08:54:31.704Z</time></trkpt><trkpt lat="40.7764947" lon="9.4705712"><ele>303.0</ele><time>2026-04-13T08:54:32.698Z</time></trkpt><trkpt lat="40.7765886" lon="9.4704245"><ele>303.0</ele><time>2026-04-13T08:54:33.705Z</time></trkpt><trkpt lat="40.7766841" lon="9.4702751"><ele>303.0</ele><time>2026-04-13T08:54:34.718Z</time></trkpt><trkpt lat="40.7767807" lon="9.4701179"><ele>301.0</ele><time>2026-04-13T08:54:35.704Z</time></trkpt><trkpt lat="40.7768684" lon="9.4699615"><ele>299.0</ele><time>2026-04-13T08:54:36.709Z</time></trkpt><trkpt lat="40.7769602" lon="9.4698067"><ele>297.0</ele><time>2026-04-13T08:54:37.7Z</time></trkpt><trkpt lat="40.7771517" lon="9.469509"><ele>296.75</ele><time>2026-04-13T08:54:39.706Z</time></trkpt><trkpt lat="40.7772417" lon="9.4693552"><ele>296.5</ele><time>2026-04-13T08:54:40.69Z</time></trkpt><trkpt lat="40.777325" lon="9.4692156"><ele>296.25</ele><time>2026-04-13T08:54:41.696Z</time></trkpt><trkpt lat="40.7774038" lon="9.469083"><ele>296.0</ele><time>2026-04-13T08:54:42.702Z</time></trkpt><trkpt lat="40.7774837" lon="9.4689699"><ele>296.0</ele><time>2026-04-13T08:54:43.704Z</time></trkpt><trkpt lat="40.7775657" lon="9.4688636"><ele>296.0</ele><time>2026-04-13T08:54:44.706Z</time></trkpt><trkpt lat="40.7777197" lon="9.4686951"><ele>296.0</ele><time>2026-04-13T08:54:46.694Z</time></trkpt><trkpt lat="40.7778327" lon="9.4685745"><ele>295.6666666666667</ele><time>2026-04-13T08:54:48.7Z</time></trkpt><trkpt lat="40.7779775" lon="9.4685751"><ele>295.3333333333333</ele><time>2026-04-13T08:54:51.693Z</time></trkpt><trkpt lat="40.7780663" lon="9.4687343"><ele>295.0</ele><time>2026-04-13T08:54:53.707Z</time></trkpt><trkpt lat="40.7781758" lon="9.4689231"><ele>294.66666666666663</ele><time>2026-04-13T08:54:55.792Z</time></trkpt><trkpt lat="40.7782406" lon="9.4690214"><ele>294.3333333333333</ele><time>2026-04-13T08:54:56.806Z</time></trkpt><trkpt lat="40.7784631" lon="9.4693545"><ele>294.0</ele><time>2026-04-13T08:54:59.702Z</time></trkpt><trkpt lat="40.7785501" lon="9.469462"><ele>293.2</ele><time>2026-04-13T08:55:00.801Z</time></trkpt><trkpt lat="40.7786352" lon="9.469559"><ele>292.4</ele><time>2026-04-13T08:55:01.798Z</time></trkpt><trkpt lat="40.7787263" lon="9.4696461"><ele>291.6</ele><time>2026-04-13T08:55:02.802Z</time></trkpt><trkpt lat="40.7788213" lon="9.4697151"><ele>290.8</ele><time>2026-04-13T08:55:03.792Z</time></trkpt><trkpt lat="40.7789175" lon="9.4697706"><ele>290.0</ele><time>2026-04-13T08:55:04.801Z</time></trkpt><trkpt lat="40.7790161" lon="9.4698149"><ele>289.4</ele><time>2026-04-13T08:55:05.793Z</time></trkpt><trkpt lat="40.7791146" lon="9.469859"><ele>288.8</ele><time>2026-04-13T08:55:06.788Z</time></trkpt><trkpt lat="40.779218" lon="9.4699049"><ele>288.2</ele><time>2026-04-13T08:55:07.803Z</time></trkpt><trkpt lat="40.7793198" lon="9.4699566"><ele>287.6</ele><time>2026-04-13T08:55:08.811Z</time></trkpt><trkpt lat="40.7794251" lon="9.4700187"><ele>287.0</ele><time>2026-04-13T08:55:09.805Z</time></trkpt><trkpt lat="40.7795193" lon="9.4700936"><ele>287.0</ele><time>2026-04-13T08:55:10.795Z</time></trkpt><trkpt lat="40.7795955" lon="9.470181"><ele>287.0</ele><time>2026-04-13T08:55:11.785Z</time></trkpt><trkpt lat="40.779646" lon="9.470274"><ele>287.0</ele><time>2026-04-13T08:55:12.807Z</time></trkpt><trkpt lat="40.779678" lon="9.4703769"><ele>287.0</ele><time>2026-04-13T08:55:13.79Z</time></trkpt><trkpt lat="40.7796927" lon="9.4704852"><ele>287.0</ele><time>2026-04-13T08:55:14.787Z</time></trkpt><trkpt lat="40.7797018" lon="9.4706023"><ele>287.0</ele><time>2026-04-13T08:55:15.786Z</time></trkpt><trkpt lat="40.7797061" lon="9.4707312"><ele>287.0</ele><time>2026-04-13T08:55:16.796Z</time></trkpt><trkpt lat="40.7797048" lon="9.4708749"><ele>287.0</ele><time>2026-04-13T08:55:17.804Z</time></trkpt><trkpt lat="40.7797037" lon="9.4710338"><ele>287.0</ele><time>2026-04-13T08:55:18.789Z</time></trkpt><trkpt lat="40.7797058" lon="9.4711824"><ele>287.0</ele><time>2026-04-13T08:55:19.823Z</time></trkpt><trkpt lat="40.7797107" lon="9.4713243"><ele>287.0</ele><time>2026-04-13T08:55:20.787Z</time></trkpt><trkpt lat="40.7797217" lon="9.4714467"><ele>287.2</ele><time>2026-04-13T08:55:21.795Z</time></trkpt><trkpt lat="40.7797461" lon="9.4715689"><ele>287.4</ele><time>2026-04-13T08:55:22.782Z</time></trkpt><trkpt lat="40.7797803" lon="9.4716836"><ele>287.6</ele><time>2026-04-13T08:55:23.788Z</time></trkpt><trkpt lat="40.7798268" lon="9.4718003"><ele>287.8</ele><time>2026-04-13T08:55:24.793Z</time></trkpt><trkpt lat="40.7798878" lon="9.4719017"><ele>288.0</ele><time>2026-04-13T08:55:25.811Z</time></trkpt><trkpt lat="40.7799562" lon="9.4719879"><ele>288.0</ele><time>2026-04-13T08:55:26.789Z</time></trkpt><trkpt lat="40.7800459" lon="9.4720572"><ele>288.0</ele><time>2026-04-13T08:55:27.804Z</time></trkpt><trkpt lat="40.780141" lon="9.4721129"><ele>288.0</ele><time>2026-04-13T08:55:28.797Z</time></trkpt><trkpt lat="40.7802429" lon="9.4721649"><ele>288.0</ele><time>2026-04-13T08:55:29.788Z</time></trkpt><trkpt lat="40.7803445" lon="9.4722174"><ele>288.0</ele><time>2026-04-13T08:55:30.784Z</time></trkpt><trkpt lat="40.7804418" lon="9.4722688"><ele>289.0</ele><time>2026-04-13T08:55:31.795Z</time></trkpt><trkpt lat="40.7805454" lon="9.4723068"><ele>290.0</ele><time>2026-04-13T08:55:32.785Z</time></trkpt><trkpt lat="40.7806456" lon="9.4723312"><ele>291.0</ele><time>2026-04-13T08:55:33.781Z</time></trkpt><trkpt lat="40.7807481" lon="9.4723416"><ele>292.0</ele><time>2026-04-13T08:55:34.781Z</time></trkpt><trkpt lat="40.7808521" lon="9.4723479"><ele>293.0</ele><time>2026-04-13T08:55:35.792Z</time></trkpt><trkpt lat="40.7809523" lon="9.4723605"><ele>291.8</ele><time>2026-04-13T08:55:36.79Z</time></trkpt><trkpt lat="40.7810492" lon="9.4723705"><ele>290.6</ele><time>2026-04-13T08:55:37.785Z</time></trkpt><trkpt lat="40.7811422" lon="9.4723769"><ele>289.4</ele><time>2026-04-13T08:55:38.774Z</time></trkpt><trkpt lat="40.7812355" lon="9.4723833"><ele>288.2</ele><time>2026-04-13T08:55:39.784Z</time></trkpt><trkpt lat="40.781333" lon="9.4723814"><ele>287.0</ele><time>2026-04-13T08:55:40.776Z</time></trkpt><trkpt lat="40.781426" lon="9.4723878"><ele>287.0</ele><time>2026-04-13T08:55:41.818Z</time></trkpt><trkpt lat="40.7815184" lon="9.472393"><ele>287.0</ele><time>2026-04-13T08:55:42.774Z</time></trkpt><trkpt lat="40.7816029" lon="9.4723967"><ele>287.0</ele><time>2026-04-13T08:55:43.792Z</time></trkpt><trkpt lat="40.7816895" lon="9.4723946"><ele>287.0</ele><time>2026-04-13T08:55:44.782Z</time></trkpt><trkpt lat="40.781778" lon="9.4723871"><ele>287.0</ele><time>2026-04-13T08:55:45.773Z</time></trkpt><trkpt lat="40.7818688" lon="9.4723647"><ele>287.0</ele><time>2026-04-13T08:55:46.792Z</time></trkpt><trkpt lat="40.7819633" lon="9.4723267"><ele>287.2</ele><time>2026-04-13T08:55:47.794Z</time></trkpt><trkpt lat="40.782061" lon="9.4722694"><ele>287.4</ele><time>2026-04-13T08:55:48.779Z</time></trkpt><trkpt lat="40.7821581" lon="9.4721972"><ele>287.6</ele><time>2026-04-13T08:55:49.803Z</time></trkpt><trkpt lat="40.7822487" lon="9.4721314"><ele>287.8</ele><time>2026-04-13T08:55:50.783Z</time></trkpt><trkpt lat="40.7823351" lon="9.4720682"><ele>288.0</ele><time>2026-04-13T08:55:51.782Z</time></trkpt><trkpt lat="40.782417" lon="9.4720086"><ele>288.0</ele><time>2026-04-13T08:55:52.781Z</time></trkpt><trkpt lat="40.7824895" lon="9.4719548"><ele>288.0</ele><time>2026-04-13T08:55:53.791Z</time></trkpt><trkpt lat="40.7825523" lon="9.471904"><ele>288.0</ele><time>2026-04-13T08:55:54.785Z</time></trkpt><trkpt lat="40.7826305" lon="9.471811"><ele>288.0</ele><time>2026-04-13T08:55:56.777Z</time></trkpt><trkpt lat="40.7826333" lon="9.4717037"><ele>288.0</ele><time>2026-04-13T08:55:58.784Z</time></trkpt><trkpt lat="40.7826102" lon="9.4715595"><ele>288.0</ele><time>2026-04-13T08:56:00.781Z</time></trkpt><trkpt lat="40.782601" lon="9.4714574"><ele>288.0</ele><time>2026-04-13T08:56:01.782Z</time></trkpt><trkpt lat="40.7825975" lon="9.471348"><ele>288.0</ele><time>2026-04-13T08:56:02.774Z</time></trkpt><trkpt lat="40.7825986" lon="9.4712422"><ele>288.0</ele><time>2026-04-13T08:56:03.791Z</time></trkpt><trkpt lat="40.7826023" lon="9.4711356"><ele>288.0</ele><time>2026-04-13T08:56:04.787Z</time></trkpt><trkpt lat="40.782611" lon="9.4710254"><ele>288.0</ele><time>2026-04-13T08:56:05.782Z</time></trkpt><trkpt lat="40.7826341" lon="9.4709178"><ele>287.8333333333333</ele><time>2026-04-13T08:56:06.793Z</time></trkpt><trkpt lat="40.7826668" lon="9.4708183"><ele>287.6666666666667</ele><time>2026-04-13T08:56:07.775Z</time></trkpt><trkpt lat="40.7826962" lon="9.4707249"><ele>287.5</ele><time>2026-04-13T08:56:08.793Z</time></trkpt><trkpt lat="40.7827199" lon="9.4706366"><ele>287.33333333333337</ele><time>2026-04-13T08:56:09.774Z</time></trkpt><trkpt lat="40.7827426" lon="9.4705461"><ele>287.1666666666667</ele><time>2026-04-13T08:56:10.768Z</time></trkpt><trkpt lat="40.7827554" lon="9.4704474"><ele>287.0</ele><time>2026-04-13T08:56:11.789Z</time></trkpt><trkpt lat="40.7827601" lon="9.470347"><ele>288.0</ele><time>2026-04-13T08:56:12.776Z</time></trkpt><trkpt lat="40.7827653" lon="9.4702425"><ele>289.0</ele><time>2026-04-13T08:56:13.785Z</time></trkpt><trkpt lat="40.7827831" lon="9.4701293"><ele>290.0</ele><time>2026-04-13T08:56:14.78Z</time></trkpt><trkpt lat="40.7828089" lon="9.4700139"><ele>291.0</ele><time>2026-04-13T08:56:15.775Z</time></trkpt><trkpt lat="40.782832" lon="9.4699023"><ele>292.0</ele><time>2026-04-13T08:56:16.778Z</time></trkpt><trkpt lat="40.7828543" lon="9.4697879"><ele>293.0</ele><time>2026-04-13T08:56:17.794Z</time></trkpt><trkpt lat="40.7828787" lon="9.4696774"><ele>293.83333333333337</ele><time>2026-04-13T08:56:18.774Z</time></trkpt><trkpt lat="40.7828887" lon="9.4695629"><ele>294.6666666666667</ele><time>2026-04-13T08:56:19.776Z</time></trkpt><trkpt lat="40.7828943" lon="9.4694502"><ele>295.5</ele><time>2026-04-13T08:56:20.764Z</time></trkpt><trkpt lat="40.7829106" lon="9.469342"><ele>296.3333333333333</ele><time>2026-04-13T08:56:21.811Z</time></trkpt><trkpt lat="40.7829258" lon="9.469239"><ele>297.16666666666663</ele><time>2026-04-13T08:56:22.766Z</time></trkpt><trkpt lat="40.7829337" lon="9.4691371"><ele>298.0</ele><time>2026-04-13T08:56:23.773Z</time></trkpt><trkpt lat="40.7829448" lon="9.4690454"><ele>298.0</ele><time>2026-04-13T08:56:24.775Z</time></trkpt><trkpt lat="40.78296" lon="9.4689518"><ele>298.0</ele><time>2026-04-13T08:56:25.774Z</time></trkpt><trkpt lat="40.7829852" lon="9.4688529"><ele>298.0</ele><time>2026-04-13T08:56:26.767Z</time></trkpt><trkpt lat="40.7830109" lon="9.4687409"><ele>298.0</ele><time>2026-04-13T08:56:27.776Z</time></trkpt><trkpt lat="40.7830383" lon="9.4686209"><ele>298.0</ele><time>2026-04-13T08:56:28.76Z</time></trkpt><trkpt lat="40.7830497" lon="9.4685039"><ele>298.0</ele><time>2026-04-13T08:56:29.769Z</time></trkpt><trkpt lat="40.7830491" lon="9.4683924"><ele>297.8333333333333</ele><time>2026-04-13T08:56:30.761Z</time></trkpt><trkpt lat="40.7830487" lon="9.468292"><ele>297.66666666666663</ele><time>2026-04-13T08:56:31.768Z</time></trkpt><trkpt lat="40.7830451" lon="9.4681924"><ele>297.5</ele><time>2026-04-13T08:56:32.762Z</time></trkpt><trkpt lat="40.7830378" lon="9.4680899"><ele>297.3333333333333</ele><time>2026-04-13T08:56:33.774Z</time></trkpt><trkpt lat="40.7830315" lon="9.4679886"><ele>297.1666666666667</ele><time>2026-04-13T08:56:34.754Z</time></trkpt><trkpt lat="40.7830232" lon="9.4678897"><ele>297.0</ele><time>2026-04-13T08:56:35.767Z</time></trkpt><trkpt lat="40.7830196" lon="9.4677858"><ele>296.1666666666667</ele><time>2026-04-13T08:56:36.759Z</time></trkpt><trkpt lat="40.783016" lon="9.467677"><ele>295.3333333333333</ele><time>2026-04-13T08:56:37.77Z</time></trkpt><trkpt lat="40.7830182" lon="9.4675647"><ele>294.5</ele><time>2026-04-13T08:56:38.763Z</time></trkpt><trkpt lat="40.783026" lon="9.4674573"><ele>293.66666666666663</ele><time>2026-04-13T08:56:39.778Z</time></trkpt><trkpt lat="40.7830327" lon="9.4673559"><ele>292.8333333333333</ele><time>2026-04-13T08:56:40.766Z</time></trkpt><trkpt lat="40.7830412" lon="9.4672558"><ele>292.0</ele><time>2026-04-13T08:56:41.756Z</time></trkpt><trkpt lat="40.783057" lon="9.4671624"><ele>291.0</ele><time>2026-04-13T08:56:42.767Z</time></trkpt><trkpt lat="40.7830844" lon="9.4670594"><ele>290.0</ele><time>2026-04-13T08:56:43.762Z</time></trkpt><trkpt lat="40.7831171" lon="9.4669432"><ele>289.0</ele><time>2026-04-13T08:56:44.751Z</time></trkpt><trkpt lat="40.783159" lon="9.4668229"><ele>288.0</ele><time>2026-04-13T08:56:45.755Z</time></trkpt><trkpt lat="40.7831954" lon="9.4667104"><ele>287.0</ele><time>2026-04-13T08:56:46.763Z</time></trkpt><trkpt lat="40.7832247" lon="9.4666045"><ele>287.0</ele><time>2026-04-13T08:56:47.769Z</time></trkpt><trkpt lat="40.7832524" lon="9.4665007"><ele>287.0</ele><time>2026-04-13T08:56:48.78Z</time></trkpt><trkpt lat="40.7832794" lon="9.4664078"><ele>287.0</ele><time>2026-04-13T08:56:49.785Z</time></trkpt><trkpt lat="40.7832982" lon="9.4663099"><ele>287.0</ele><time>2026-04-13T08:56:50.754Z</time></trkpt><trkpt lat="40.7833223" lon="9.4662062"><ele>287.0</ele><time>2026-04-13T08:56:51.761Z</time></trkpt><trkpt lat="40.7833477" lon="9.4660987"><ele>287.0</ele><time>2026-04-13T08:56:52.759Z</time></trkpt><trkpt lat="40.7833781" lon="9.465995"><ele>286.6666666666667</ele><time>2026-04-13T08:56:53.81Z</time></trkpt><trkpt lat="40.7834067" lon="9.4658922"><ele>286.33333333333337</ele><time>2026-04-13T08:56:54.759Z</time></trkpt><trkpt lat="40.7834316" lon="9.4657935"><ele>286.0</ele><time>2026-04-13T08:56:55.754Z</time></trkpt><trkpt lat="40.7834573" lon="9.4656906"><ele>285.6666666666667</ele><time>2026-04-13T08:56:56.762Z</time></trkpt><trkpt lat="40.7834879" lon="9.4655942"><ele>285.3333333333333</ele><time>2026-04-13T08:56:57.749Z</time></trkpt><trkpt lat="40.7835156" lon="9.4654906"><ele>285.0</ele><time>2026-04-13T08:56:58.783Z</time></trkpt><trkpt lat="40.7835464" lon="9.4653788"><ele>284.6</ele><time>2026-04-13T08:56:59.76Z</time></trkpt><trkpt lat="40.7835736" lon="9.4652605"><ele>284.2</ele><time>2026-04-13T08:57:00.761Z</time></trkpt><trkpt lat="40.7836086" lon="9.4651384"><ele>283.8</ele><time>2026-04-13T08:57:01.758Z</time></trkpt><trkpt lat="40.7836469" lon="9.4650249"><ele>283.4</ele><time>2026-04-13T08:57:02.766Z</time></trkpt><trkpt lat="40.783685" lon="9.4649231"><ele>283.0</ele><time>2026-04-13T08:57:03.758Z</time></trkpt><trkpt lat="40.7837077" lon="9.4648243"><ele>283.0</ele><time>2026-04-13T08:57:04.769Z</time></trkpt><trkpt lat="40.7837278" lon="9.4647223"><ele>283.0</ele><time>2026-04-13T08:57:05.759Z</time></trkpt><trkpt lat="40.7837524" lon="9.4646322"><ele>283.0</ele><time>2026-04-13T08:57:06.751Z</time></trkpt><trkpt lat="40.7837868" lon="9.4645436"><ele>283.0</ele><time>2026-04-13T08:57:07.753Z</time></trkpt><trkpt lat="40.7838235" lon="9.4644479"><ele>283.0</ele><time>2026-04-13T08:57:08.76Z</time></trkpt><trkpt lat="40.7838509" lon="9.4643422"><ele>283.0</ele><time>2026-04-13T08:57:09.81Z</time></trkpt><trkpt lat="40.7838756" lon="9.4642227"><ele>283.0</ele><time>2026-04-13T08:57:10.777Z</time></trkpt><trkpt lat="40.7839096" lon="9.4641015"><ele>283.0</ele><time>2026-04-13T08:57:11.75Z</time></trkpt><trkpt lat="40.783954" lon="9.4639828"><ele>283.0</ele><time>2026-04-13T08:57:12.748Z</time></trkpt><trkpt lat="40.7840004" lon="9.4638584"><ele>283.0</ele><time>2026-04-13T08:57:13.759Z</time></trkpt><trkpt lat="40.7840455" lon="9.4637443"><ele>283.0</ele><time>2026-04-13T08:57:14.745Z</time></trkpt><trkpt lat="40.7840899" lon="9.4636431"><ele>282.8333333333333</ele><time>2026-04-13T08:57:15.759Z</time></trkpt><trkpt lat="40.7841431" lon="9.4635549"><ele>282.66666666666663</ele><time>2026-04-13T08:57:16.753Z</time></trkpt><trkpt lat="40.7842028" lon="9.4634735"><ele>282.5</ele><time>2026-04-13T08:57:17.752Z</time></trkpt><trkpt lat="40.7842651" lon="9.4633889"><ele>282.3333333333333</ele><time>2026-04-13T08:57:18.743Z</time></trkpt><trkpt lat="40.7843272" lon="9.4632972"><ele>282.1666666666667</ele><time>2026-04-13T08:57:19.748Z</time></trkpt><trkpt lat="40.7843819" lon="9.4632037"><ele>282.0</ele><time>2026-04-13T08:57:20.742Z</time></trkpt><trkpt lat="40.7844293" lon="9.4630891"><ele>283.2</ele><time>2026-04-13T08:57:21.744Z</time></trkpt><trkpt lat="40.7844661" lon="9.4629594"><ele>284.4</ele><time>2026-04-13T08:57:22.769Z</time></trkpt><trkpt lat="40.7844965" lon="9.4628327"><ele>285.6</ele><time>2026-04-13T08:57:23.744Z</time></trkpt><trkpt lat="40.7845253" lon="9.46271"><ele>286.8</ele><time>2026-04-13T08:57:24.774Z</time></trkpt><trkpt lat="40.7845523" lon="9.4625916"><ele>288.0</ele><time>2026-04-13T08:57:25.743Z</time></trkpt><trkpt lat="40.7845848" lon="9.4624727"><ele>288.0</ele><time>2026-04-13T08:57:26.744Z</time></trkpt><trkpt lat="40.7846229" lon="9.4623482"><ele>288.0</ele><time>2026-04-13T08:57:27.759Z</time></trkpt><trkpt lat="40.7846571" lon="9.4622325"><ele>288.0</ele><time>2026-04-13T08:57:28.741Z</time></trkpt><trkpt lat="40.7846821" lon="9.4621065"><ele>288.0</ele><time>2026-04-13T08:57:29.738Z</time></trkpt><trkpt lat="40.7846989" lon="9.4619892"><ele>288.0</ele><time>2026-04-13T08:57:30.753Z</time></trkpt><trkpt lat="40.7847204" lon="9.4618635"><ele>287.8</ele><time>2026-04-13T08:57:31.761Z</time></trkpt><trkpt lat="40.7847469" lon="9.4617294"><ele>287.6</ele><time>2026-04-13T08:57:32.75Z</time></trkpt><trkpt lat="40.7847683" lon="9.4616093"><ele>287.4</ele><time>2026-04-13T08:57:33.773Z</time></trkpt><trkpt lat="40.7847877" lon="9.4614975"><ele>287.2</ele><time>2026-04-13T08:57:34.751Z</time></trkpt><trkpt lat="40.784807" lon="9.4613857"><ele>287.0</ele><time>2026-04-13T08:57:35.754Z</time></trkpt><trkpt lat="40.7848256" lon="9.4612693"><ele>286.4</ele><time>2026-04-13T08:57:36.738Z</time></trkpt><trkpt lat="40.7848348" lon="9.461159"><ele>285.79999999999995</ele><time>2026-04-13T08:57:37.742Z</time></trkpt><trkpt lat="40.7848379" lon="9.4610482"><ele>285.2</ele><time>2026-04-13T08:57:38.747Z</time></trkpt><trkpt lat="40.7848404" lon="9.4609266"><ele>284.59999999999997</ele><time>2026-04-13T08:57:39.745Z</time></trkpt><trkpt lat="40.7848401" lon="9.4607943"><ele>284.0</ele><time>2026-04-13T08:57:40.74Z</time></trkpt><trkpt lat="40.7848408" lon="9.4606576"><ele>284.0</ele><time>2026-04-13T08:57:41.739Z</time></trkpt><trkpt lat="40.7848489" lon="9.4605125"><ele>284.0</ele><time>2026-04-13T08:57:42.743Z</time></trkpt><trkpt lat="40.7848606" lon="9.4603614"><ele>284.0</ele><time>2026-04-13T08:57:43.743Z</time></trkpt><trkpt lat="40.784875" lon="9.4602281"><ele>284.0</ele><time>2026-04-13T08:57:44.751Z</time></trkpt><trkpt lat="40.7848855" lon="9.4601082"><ele>284.0</ele><time>2026-04-13T08:57:45.761Z</time></trkpt><trkpt lat="40.7848932" lon="9.4599954"><ele>283.5</ele><time>2026-04-13T08:57:46.748Z</time></trkpt><trkpt lat="40.7848973" lon="9.4598777"><ele>283.0</ele><time>2026-04-13T08:57:47.741Z</time></trkpt><trkpt lat="40.7848978" lon="9.4597625"><ele>282.5</ele><time>2026-04-13T08:57:48.744Z</time></trkpt><trkpt lat="40.7848981" lon="9.4596527"><ele>282.0</ele><time>2026-04-13T08:57:49.743Z</time></trkpt><trkpt lat="40.7848955" lon="9.4595625"><ele>281.5</ele><time>2026-04-13T08:57:50.739Z</time></trkpt><trkpt lat="40.784889" lon="9.4594739"><ele>281.0</ele><time>2026-04-13T08:57:51.744Z</time></trkpt><trkpt lat="40.7848811" lon="9.459317"><ele>279.5</ele><time>2026-04-13T08:57:53.803Z</time></trkpt><trkpt lat="40.7849318" lon="9.4591713"><ele>278.0</ele><time>2026-04-13T08:57:55.734Z</time></trkpt><trkpt lat="40.7850029" lon="9.4590463"><ele>276.5</ele><time>2026-04-13T08:57:57.736Z</time></trkpt><trkpt lat="40.7850706" lon="9.458894"><ele>275.0</ele><time>2026-04-13T08:57:59.765Z</time></trkpt><trkpt lat="40.7851011" lon="9.4587963"><ele>274.6</ele><time>2026-04-13T08:58:00.746Z</time></trkpt><trkpt lat="40.7851345" lon="9.4586865"><ele>274.2</ele><time>2026-04-13T08:58:01.74Z</time></trkpt><trkpt lat="40.7851734" lon="9.4585692"><ele>273.8</ele><time>2026-04-13T08:58:02.743Z</time></trkpt><trkpt lat="40.7852212" lon="9.4584545"><ele>273.4</ele><time>2026-04-13T08:58:03.756Z</time></trkpt><trkpt lat="40.7852791" lon="9.4583526"><ele>273.0</ele><time>2026-04-13T08:58:04.743Z</time></trkpt><trkpt lat="40.7853381" lon="9.4582503"><ele>273.0</ele><time>2026-04-13T08:58:05.728Z</time></trkpt><trkpt lat="40.7854105" lon="9.4581488"><ele>273.0</ele><time>2026-04-13T08:58:06.736Z</time></trkpt><trkpt lat="40.7854894" lon="9.4580453"><ele>273.0</ele><time>2026-04-13T08:58:07.742Z</time></trkpt><trkpt lat="40.7855782" lon="9.4579473"><ele>273.0</ele><time>2026-04-13T08:58:08.761Z</time></trkpt><trkpt lat="40.7856712" lon="9.4578612"><ele>273.0</ele><time>2026-04-13T08:58:09.746Z</time></trkpt><trkpt lat="40.7857659" lon="9.4577816"><ele>271.5</ele><time>2026-04-13T08:58:10.734Z</time></trkpt><trkpt lat="40.7858655" lon="9.457702"><ele>270.0</ele><time>2026-04-13T08:58:11.746Z</time></trkpt><trkpt lat="40.7859619" lon="9.4576222"><ele>268.5</ele><time>2026-04-13T08:58:12.735Z</time></trkpt><trkpt lat="40.7860508" lon="9.4575319"><ele>267.0</ele><time>2026-04-13T08:58:13.75Z</time></trkpt><trkpt lat="40.7861304" lon="9.4574317"><ele>267.0</ele><time>2026-04-13T08:58:14.733Z</time></trkpt><trkpt lat="40.7861937" lon="9.4573314"><ele>267.0</ele><time>2026-04-13T08:58:15.734Z</time></trkpt><trkpt lat="40.7862327" lon="9.4572177"><ele>267.0</ele><time>2026-04-13T08:58:16.733Z</time></trkpt><trkpt lat="40.786249" lon="9.4571021"><ele>267.0</ele><time>2026-04-13T08:58:17.736Z</time></trkpt><trkpt lat="40.7862392" lon="9.456988"><ele>267.0</ele><time>2026-04-13T08:58:18.742Z</time></trkpt><trkpt lat="40.7862214" lon="9.4568608"><ele>268.2</ele><time>2026-04-13T08:58:19.739Z</time></trkpt><trkpt lat="40.7862016" lon="9.4567284"><ele>269.4</ele><time>2026-04-13T08:58:20.728Z</time></trkpt><trkpt lat="40.7861848" lon="9.456588"><ele>270.6</ele><time>2026-04-13T08:58:21.732Z</time></trkpt><trkpt lat="40.7861577" lon="9.4564395"><ele>271.8</ele><time>2026-04-13T08:58:22.731Z</time></trkpt><trkpt lat="40.78612" lon="9.4562888"><ele>273.0</ele><time>2026-04-13T08:58:23.739Z</time></trkpt><trkpt lat="40.7860754" lon="9.4561446"><ele>274.0</ele><time>2026-04-13T08:58:24.733Z</time></trkpt><trkpt lat="40.7860304" lon="9.4560068"><ele>275.0</ele><time>2026-04-13T08:58:25.738Z</time></trkpt><trkpt lat="40.7859825" lon="9.455872"><ele>276.0</ele><time>2026-04-13T08:58:26.726Z</time></trkpt><trkpt lat="40.7859427" lon="9.4557419"><ele>277.0</ele><time>2026-04-13T08:58:27.731Z</time></trkpt><trkpt lat="40.7859085" lon="9.4556131"><ele>278.0</ele><time>2026-04-13T08:58:28.727Z</time></trkpt><trkpt lat="40.7858872" lon="9.4554833"><ele>274.4</ele><time>2026-04-13T08:58:29.726Z</time></trkpt><trkpt lat="40.7858657" lon="9.4553472"><ele>270.8</ele><time>2026-04-13T08:58:30.732Z</time></trkpt><trkpt lat="40.7858374" lon="9.4552053"><ele>267.2</ele><time>2026-04-13T08:58:31.747Z</time></trkpt><trkpt lat="40.7858018" lon="9.4550684"><ele>263.6</ele><time>2026-04-13T08:58:32.728Z</time></trkpt><trkpt lat="40.7857537" lon="9.4549443"><ele>260.0</ele><time>2026-04-13T08:58:33.742Z</time></trkpt><trkpt lat="40.7856927" lon="9.4548221"><ele>260.0</ele><time>2026-04-13T08:58:34.734Z</time></trkpt><trkpt lat="40.7856192" lon="9.4547038"><ele>260.0</ele><time>2026-04-13T08:58:35.744Z</time></trkpt><trkpt lat="40.7855447" lon="9.4545851"><ele>260.0</ele><time>2026-04-13T08:58:36.728Z</time></trkpt><trkpt lat="40.7854783" lon="9.4544744"><ele>260.0</ele><time>2026-04-13T08:58:37.729Z</time></trkpt><trkpt lat="40.7854156" lon="9.4543726"><ele>260.0</ele><time>2026-04-13T08:58:38.735Z</time></trkpt><trkpt lat="40.7853552" lon="9.4542671"><ele>259.25</ele><time>2026-04-13T08:58:39.724Z</time></trkpt><trkpt lat="40.7852893" lon="9.4541507"><ele>258.5</ele><time>2026-04-13T08:58:40.719Z</time></trkpt><trkpt lat="40.7852175" lon="9.4540264"><ele>257.75</ele><time>2026-04-13T08:58:41.73Z</time></trkpt><trkpt lat="40.7851454" lon="9.4538937"><ele>257.0</ele><time>2026-04-13T08:58:42.722Z</time></trkpt><trkpt lat="40.7850695" lon="9.4537555"><ele>257.0</ele><time>2026-04-13T08:58:43.723Z</time></trkpt><trkpt lat="40.7849998" lon="9.4536091"><ele>257.0</ele><time>2026-04-13T08:58:44.726Z</time></trkpt><trkpt lat="40.7849284" lon="9.4534603"><ele>257.0</ele><time>2026-04-13T08:58:45.724Z</time></trkpt><trkpt lat="40.7848585" lon="9.453308"><ele>257.0</ele><time>2026-04-13T08:58:46.722Z</time></trkpt><trkpt lat="40.7847898" lon="9.4531539"><ele>257.0</ele><time>2026-04-13T08:58:47.724Z</time></trkpt><trkpt lat="40.7847193" lon="9.4529969"><ele>257.0</ele><time>2026-04-13T08:58:48.718Z</time></trkpt><trkpt lat="40.7846551" lon="9.4528487"><ele>257.0</ele><time>2026-04-13T08:58:49.724Z</time></trkpt><trkpt lat="40.7846014" lon="9.4526976"><ele>257.0</ele><time>2026-04-13T08:58:50.731Z</time></trkpt><trkpt lat="40.7845553" lon="9.452537"><ele>257.0</ele><time>2026-04-13T08:58:51.728Z</time></trkpt><trkpt lat="40.7845215" lon="9.4523676"><ele>257.0</ele><time>2026-04-13T08:58:52.719Z</time></trkpt><trkpt lat="40.7845064" lon="9.4521899"><ele>257.0</ele><time>2026-04-13T08:58:53.723Z</time></trkpt><trkpt lat="40.7845003" lon="9.4520133"><ele>257.0</ele><time>2026-04-13T08:58:54.719Z</time></trkpt><trkpt lat="40.7845078" lon="9.4518227"><ele>257.0</ele><time>2026-04-13T08:58:55.732Z</time></trkpt><trkpt lat="40.7845319" lon="9.4516321"><ele>257.0</ele><time>2026-04-13T08:58:56.73Z</time></trkpt><trkpt lat="40.7845671" lon="9.4514357"><ele>257.0</ele><time>2026-04-13T08:58:57.719Z</time></trkpt><trkpt lat="40.7846102" lon="9.4512386"><ele>255.33333333333334</ele><time>2026-04-13T08:58:58.718Z</time></trkpt><trkpt lat="40.7846526" lon="9.4510343"><ele>253.66666666666669</ele><time>2026-04-13T08:58:59.716Z</time></trkpt><trkpt lat="40.7846897" lon="9.4508372"><ele>252.0</ele><time>2026-04-13T08:59:00.73Z</time></trkpt><trkpt lat="40.7847226" lon="9.4506538"><ele>252.0</ele><time>2026-04-13T08:59:01.716Z</time></trkpt><trkpt lat="40.7847561" lon="9.4504791"><ele>252.0</ele><time>2026-04-13T08:59:02.736Z</time></trkpt><trkpt lat="40.7847877" lon="9.4503173"><ele>252.0</ele><time>2026-04-13T08:59:03.721Z</time></trkpt><trkpt lat="40.7848174" lon="9.4501642"><ele>252.0</ele><time>2026-04-13T08:59:04.714Z</time></trkpt><trkpt lat="40.7848439" lon="9.450028"><ele>251.66666666666666</ele><time>2026-04-13T08:59:05.744Z</time></trkpt><trkpt lat="40.784869" lon="9.4499155"><ele>251.33333333333331</ele><time>2026-04-13T08:59:06.722Z</time></trkpt><trkpt lat="40.7848906" lon="9.4498203"><ele>251.0</ele><time>2026-04-13T08:59:07.714Z</time></trkpt><trkpt lat="40.7849327" lon="9.4496788"><ele>250.66666666666666</ele><time>2026-04-13T08:59:09.723Z</time></trkpt><trkpt lat="40.7849221" lon="9.4495799"><ele>250.33333333333331</ele><time>2026-04-13T08:59:11.734Z</time></trkpt><trkpt lat="40.7848401" lon="9.4495619"><ele>250.0</ele><time>2026-04-13T08:59:13.73Z</time></trkpt><trkpt lat="40.7847125" lon="9.4495956"><ele>249.66666666666666</ele><time>2026-04-13T08:59:15.732Z</time></trkpt><trkpt lat="40.7846363" lon="9.4495928"><ele>249.33333333333331</ele><time>2026-04-13T08:59:16.737Z</time></trkpt><trkpt lat="40.7845583" lon="9.4495783"><ele>249.0</ele><time>2026-04-13T08:59:17.714Z</time></trkpt><trkpt lat="40.7844796" lon="9.4495494"><ele>248.66666666666669</ele><time>2026-04-13T08:59:18.714Z</time></trkpt><trkpt lat="40.7843984" lon="9.4495001"><ele>248.33333333333334</ele><time>2026-04-13T08:59:19.715Z</time></trkpt><trkpt lat="40.7843118" lon="9.4494177"><ele>248.0</ele><time>2026-04-13T08:59:20.728Z</time></trkpt><trkpt lat="40.7842324" lon="9.4493213"><ele>247.2</ele><time>2026-04-13T08:59:21.72Z</time></trkpt><trkpt lat="40.7841514" lon="9.4492449"><ele>246.4</ele><time>2026-04-13T08:59:22.712Z</time></trkpt><trkpt lat="40.7840707" lon="9.4491803"><ele>245.59999999999997</ele><time>2026-04-13T08:59:23.72Z</time></trkpt><trkpt lat="40.7839836" lon="9.4491126"><ele>244.79999999999998</ele><time>2026-04-13T08:59:24.711Z</time></trkpt><trkpt lat="40.7838971" lon="9.4490348"><ele>244.0</ele><time>2026-04-13T08:59:25.722Z</time></trkpt><trkpt lat="40.7838196" lon="9.4489358"><ele>244.0</ele><time>2026-04-13T08:59:26.711Z</time></trkpt><trkpt lat="40.7837422" lon="9.4488357"><ele>243.99999999999997</ele><time>2026-04-13T08:59:27.726Z</time></trkpt><trkpt lat="40.7836619" lon="9.4487315"><ele>243.99999999999997</ele><time>2026-04-13T08:59:28.717Z</time></trkpt><trkpt lat="40.7835813" lon="9.4486412"><ele>244.0</ele><time>2026-04-13T08:59:29.708Z</time></trkpt><trkpt lat="40.7834991" lon="9.4485744"><ele>244.0</ele><time>2026-04-13T08:59:30.72Z</time></trkpt><trkpt lat="40.7834126" lon="9.4485274"><ele>243.49999999999997</ele><time>2026-04-13T08:59:31.728Z</time></trkpt><trkpt lat="40.7833294" lon="9.4485067"><ele>243.0</ele><time>2026-04-13T08:59:32.706Z</time></trkpt><trkpt lat="40.7832509" lon="9.4485141"><ele>242.5</ele><time>2026-04-13T08:59:33.705Z</time></trkpt><trkpt lat="40.7831758" lon="9.4485602"><ele>242.0</ele><time>2026-04-13T08:59:34.711Z</time></trkpt><trkpt lat="40.7831076" lon="9.4486402"><ele>241.49999999999997</ele><time>2026-04-13T08:59:35.72Z</time></trkpt><trkpt lat="40.7830524" lon="9.4487448"><ele>241.0</ele><time>2026-04-13T08:59:36.712Z</time></trkpt><trkpt lat="40.7830134" lon="9.4488531"><ele>240.99999999999997</ele><time>2026-04-13T08:59:37.714Z</time></trkpt><trkpt lat="40.7829667" lon="9.4489326"><ele>241.0</ele><time>2026-04-13T08:59:38.704Z</time></trkpt><trkpt lat="40.7829009" lon="9.4489597"><ele>241.0</ele><time>2026-04-13T08:59:39.715Z</time></trkpt><trkpt lat="40.7828264" lon="9.4489643"><ele>241.0</ele><time>2026-04-13T08:59:40.714Z</time></trkpt><trkpt lat="40.7827499" lon="9.4489566"><ele>240.99999999999997</ele><time>2026-04-13T08:59:41.734Z</time></trkpt><trkpt lat="40.7826717" lon="9.448928"><ele>241.0</ele><time>2026-04-13T08:59:42.706Z</time></trkpt><trkpt lat="40.7825968" lon="9.4488869"><ele>240.49999999999997</ele><time>2026-04-13T08:59:43.722Z</time></trkpt><trkpt lat="40.782519" lon="9.4488487"><ele>240.0</ele><time>2026-04-13T08:59:44.712Z</time></trkpt><trkpt lat="40.7824327" lon="9.4488141"><ele>239.5</ele><time>2026-04-13T08:59:45.703Z</time></trkpt><trkpt lat="40.7823547" lon="9.4487763"><ele>239.0</ele><time>2026-04-13T08:59:46.711Z</time></trkpt><trkpt lat="40.7822929" lon="9.4487365"><ele>238.49999999999997</ele><time>2026-04-13T08:59:47.707Z</time></trkpt><trkpt lat="40.7822334" lon="9.4486975"><ele>238.0</ele><time>2026-04-13T08:59:48.753Z</time></trkpt><trkpt lat="40.7821763" lon="9.4486526"><ele>238.0</ele><time>2026-04-13T08:59:49.71Z</time></trkpt><trkpt lat="40.7821131" lon="9.4486182"><ele>238.0</ele><time>2026-04-13T08:59:50.706Z</time></trkpt><trkpt lat="40.7820515" lon="9.448584"><ele>238.0</ele><time>2026-04-13T08:59:51.71Z</time></trkpt><trkpt lat="40.7819878" lon="9.4485483"><ele>238.0</ele><time>2026-04-13T08:59:52.719Z</time></trkpt><trkpt lat="40.7819147" lon="9.4485053"><ele>238.0</ele><time>2026-04-13T08:59:53.704Z</time></trkpt><trkpt lat="40.7818404" lon="9.4484596"><ele>238.0</ele><time>2026-04-13T08:59:54.709Z</time></trkpt><trkpt lat="40.7817644" lon="9.4484185"><ele>238.0</ele><time>2026-04-13T08:59:55.727Z</time></trkpt><trkpt lat="40.7816938" lon="9.4483736"><ele>239.83333333333331</ele><time>2026-04-13T08:59:56.713Z</time></trkpt><trkpt lat="40.7816306" lon="9.4483228"><ele>241.66666666666666</ele><time>2026-04-13T08:59:57.704Z</time></trkpt><trkpt lat="40.7815668" lon="9.4482638"><ele>243.5</ele><time>2026-04-13T08:59:58.713Z</time></trkpt><trkpt lat="40.7815077" lon="9.4481929"><ele>245.33333333333331</ele><time>2026-04-13T08:59:59.702Z</time></trkpt><trkpt lat="40.781462" lon="9.4481118"><ele>247.16666666666666</ele><time>2026-04-13T09:00:00.72Z</time></trkpt><trkpt lat="40.7814231" lon="9.4480269"><ele>249.0</ele><time>2026-04-13T09:00:01.702Z</time></trkpt><trkpt lat="40.7813967" lon="9.4479283"><ele>249.0</ele><time>2026-04-13T09:00:02.705Z</time></trkpt><trkpt lat="40.7813676" lon="9.447818"><ele>249.0</ele><time>2026-04-13T09:00:03.704Z</time></trkpt><trkpt lat="40.7813364" lon="9.4477168"><ele>249.0</ele><time>2026-04-13T09:00:04.719Z</time></trkpt><trkpt lat="40.7812865" lon="9.4476239"><ele>249.0</ele><time>2026-04-13T09:00:05.712Z</time></trkpt><trkpt lat="40.7812246" lon="9.4475394"><ele>249.0</ele><time>2026-04-13T09:00:06.714Z</time></trkpt><trkpt lat="40.7811504" lon="9.4474657"><ele>249.0</ele><time>2026-04-13T09:00:07.7Z</time></trkpt><trkpt lat="40.7810704" lon="9.4473923"><ele>251.75</ele><time>2026-04-13T09:00:08.699Z</time></trkpt><trkpt lat="40.7809828" lon="9.4473198"><ele>254.5</ele><time>2026-04-13T09:00:09.709Z</time></trkpt><trkpt lat="40.7808893" lon="9.4472388"><ele>257.25</ele><time>2026-04-13T09:00:10.719Z</time></trkpt><trkpt lat="40.7807944" lon="9.4471468"><ele>260.0</ele><time>2026-04-13T09:00:11.703Z</time></trkpt><trkpt lat="40.7806991" lon="9.4470524"><ele>261.75</ele><time>2026-04-13T09:00:12.703Z</time></trkpt><trkpt lat="40.7806027" lon="9.4469599"><ele>263.5</ele><time>2026-04-13T09:00:13.701Z</time></trkpt><trkpt lat="40.7805181" lon="9.4468527"><ele>265.25</ele><time>2026-04-13T09:00:14.705Z</time></trkpt><trkpt lat="40.7804442" lon="9.4467395"><ele>267.0</ele><time>2026-04-13T09:00:15.698Z</time></trkpt><trkpt lat="40.7803862" lon="9.4466137"><ele>267.0</ele><time>2026-04-13T09:00:16.721Z</time></trkpt><trkpt lat="40.7803435" lon="9.4464871"><ele>267.0</ele><time>2026-04-13T09:00:17.718Z</time></trkpt><trkpt lat="40.7803058" lon="9.4463535"><ele>267.0</ele><time>2026-04-13T09:00:18.712Z</time></trkpt><trkpt lat="40.7802601" lon="9.4462255"><ele>267.0</ele><time>2026-04-13T09:00:19.705Z</time></trkpt><trkpt lat="40.7801956" lon="9.4461112"><ele>267.0</ele><time>2026-04-13T09:00:20.741Z</time></trkpt><trkpt lat="40.7801112" lon="9.4460023"><ele>269.25</ele><time>2026-04-13T09:00:21.703Z</time></trkpt><trkpt lat="40.7800218" lon="9.4458979"><ele>271.5</ele><time>2026-04-13T09:00:22.712Z</time></trkpt><trkpt lat="40.7799196" lon="9.4457902"><ele>273.75</ele><time>2026-04-13T09:00:23.703Z</time></trkpt><trkpt lat="40.7798068" lon="9.4456758"><ele>276.0</ele><time>2026-04-13T09:00:24.697Z</time></trkpt><trkpt lat="40.7796944" lon="9.4455538"><ele>274.3333333333333</ele><time>2026-04-13T09:00:25.697Z</time></trkpt><trkpt lat="40.7795776" lon="9.445428"><ele>272.66666666666663</ele><time>2026-04-13T09:00:26.706Z</time></trkpt><trkpt lat="40.7794568" lon="9.4453014"><ele>271.0</ele><time>2026-04-13T09:00:27.7Z</time></trkpt><trkpt lat="40.7793386" lon="9.4451851"><ele>274.5</ele><time>2026-04-13T09:00:28.713Z</time></trkpt><trkpt lat="40.7792209" lon="9.4450674"><ele>278.0</ele><time>2026-04-13T09:00:29.691Z</time></trkpt><trkpt lat="40.7791045" lon="9.4449503"><ele>281.5</ele><time>2026-04-13T09:00:30.699Z</time></trkpt><trkpt lat="40.7789858" lon="9.4448361"><ele>285.0</ele><time>2026-04-13T09:00:31.712Z</time></trkpt><trkpt lat="40.7788702" lon="9.4447229"><ele>285.0</ele><time>2026-04-13T09:00:32.699Z</time></trkpt><trkpt lat="40.7787539" lon="9.4446238"><ele>285.0</ele><time>2026-04-13T09:00:33.697Z</time></trkpt><trkpt lat="40.778632" lon="9.4445348"><ele>285.0</ele><time>2026-04-13T09:00:34.7Z</time></trkpt><trkpt lat="40.7785072" lon="9.444447"><ele>285.0</ele><time>2026-04-13T09:00:35.696Z</time></trkpt><trkpt lat="40.7783848" lon="9.444363"><ele>287.75</ele><time>2026-04-13T09:00:36.697Z</time></trkpt><trkpt lat="40.7782656" lon="9.4442853"><ele>290.5</ele><time>2026-04-13T09:00:37.695Z</time></trkpt><trkpt lat="40.7781526" lon="9.4442102"><ele>293.25</ele><time>2026-04-13T09:00:38.732Z</time></trkpt><trkpt lat="40.7780442" lon="9.4441232"><ele>296.0</ele><time>2026-04-13T09:00:39.794Z</time></trkpt><trkpt lat="40.7779468" lon="9.4440133"><ele>297.6666666666667</ele><time>2026-04-13T09:00:40.799Z</time></trkpt><trkpt lat="40.777776" lon="9.4437573"><ele>299.3333333333333</ele><time>2026-04-13T09:00:42.687Z</time></trkpt><trkpt lat="40.7776931" lon="9.4436157"><ele>301.0</ele><time>2026-04-13T09:00:43.685Z</time></trkpt><trkpt lat="40.7776063" lon="9.4434739"><ele>301.75</ele><time>2026-04-13T09:00:44.795Z</time></trkpt><trkpt lat="40.7775161" lon="9.4433303"><ele>302.5</ele><time>2026-04-13T09:00:45.8Z</time></trkpt><trkpt lat="40.777427" lon="9.4431851"><ele>303.25</ele><time>2026-04-13T09:00:46.794Z</time></trkpt><trkpt lat="40.7773401" lon="9.4430381"><ele>304.0</ele><time>2026-04-13T09:00:47.792Z</time></trkpt><trkpt lat="40.7772512" lon="9.4428939"><ele>304.75</ele><time>2026-04-13T09:00:48.824Z</time></trkpt><trkpt lat="40.7771618" lon="9.4427477"><ele>305.5</ele><time>2026-04-13T09:00:49.788Z</time></trkpt><trkpt lat="40.7770749" lon="9.4426066"><ele>306.25</ele><time>2026-04-13T09:00:50.798Z</time></trkpt><trkpt lat="40.7769878" lon="9.4424649"><ele>307.0</ele><time>2026-04-13T09:00:51.785Z</time></trkpt><trkpt lat="40.7769021" lon="9.4423247"><ele>309.0</ele><time>2026-04-13T09:00:52.793Z</time></trkpt><trkpt lat="40.7768152" lon="9.4421863"><ele>311.0</ele><time>2026-04-13T09:00:53.79Z</time></trkpt><trkpt lat="40.7767273" lon="9.4420455"><ele>313.0</ele><time>2026-04-13T09:00:54.796Z</time></trkpt><trkpt lat="40.7766462" lon="9.4418971"><ele>315.0</ele><time>2026-04-13T09:00:55.792Z</time></trkpt><trkpt lat="40.7765716" lon="9.4417503"><ele>315.0</ele><time>2026-04-13T09:00:56.792Z</time></trkpt><trkpt lat="40.7765044" lon="9.4415907"><ele>315.0</ele><time>2026-04-13T09:00:57.783Z</time></trkpt><trkpt lat="40.7764404" lon="9.4414338"><ele>315.0</ele><time>2026-04-13T09:00:58.794Z</time></trkpt><trkpt lat="40.7763776" lon="9.4412763"><ele>315.0</ele><time>2026-04-13T09:00:59.787Z</time></trkpt><trkpt lat="40.776309" lon="9.4411235"><ele>315.0</ele><time>2026-04-13T09:01:00.79Z</time></trkpt><trkpt lat="40.7762383" lon="9.4409673"><ele>315.0</ele><time>2026-04-13T09:01:01.787Z</time></trkpt><trkpt lat="40.7761553" lon="9.44082"><ele>315.0</ele><time>2026-04-13T09:01:02.788Z</time></trkpt><trkpt lat="40.7760639" lon="9.4406881"><ele>315.0</ele><time>2026-04-13T09:01:03.796Z</time></trkpt><trkpt lat="40.7759806" lon="9.4405526"><ele>320.0</ele><time>2026-04-13T09:01:04.791Z</time></trkpt><trkpt lat="40.7759014" lon="9.4404074"><ele>325.0</ele><time>2026-04-13T09:01:05.788Z</time></trkpt><trkpt lat="40.7758342" lon="9.4402592"><ele>330.0</ele><time>2026-04-13T09:01:06.782Z</time></trkpt><trkpt lat="40.7757781" lon="9.4400974"><ele>335.0</ele><time>2026-04-13T09:01:07.786Z</time></trkpt><trkpt lat="40.7757283" lon="9.4399322"><ele>335.0</ele><time>2026-04-13T09:01:08.79Z</time></trkpt><trkpt lat="40.7756904" lon="9.4397683"><ele>335.0</ele><time>2026-04-13T09:01:09.78Z</time></trkpt><trkpt lat="40.7756562" lon="9.439606"><ele>335.0</ele><time>2026-04-13T09:01:10.777Z</time></trkpt><trkpt lat="40.7756187" lon="9.4394519"><ele>335.0</ele><time>2026-04-13T09:01:11.781Z</time></trkpt><trkpt lat="40.7755793" lon="9.4392951"><ele>334.25</ele><time>2026-04-13T09:01:12.786Z</time></trkpt><trkpt lat="40.7755366" lon="9.4391372"><ele>333.5</ele><time>2026-04-13T09:01:13.792Z</time></trkpt><trkpt lat="40.7754822" lon="9.4389763"><ele>332.75</ele><time>2026-04-13T09:01:14.793Z</time></trkpt><trkpt lat="40.7754203" lon="9.4388135"><ele>332.0</ele><time>2026-04-13T09:01:15.786Z</time></trkpt><trkpt lat="40.7753481" lon="9.4386481"><ele>332.0</ele><time>2026-04-13T09:01:16.816Z</time></trkpt><trkpt lat="40.7752647" lon="9.4384784"><ele>332.0</ele><time>2026-04-13T09:01:17.784Z</time></trkpt><trkpt lat="40.7751828" lon="9.4383274"><ele>332.0</ele><time>2026-04-13T09:01:18.78Z</time></trkpt><trkpt lat="40.7751064" lon="9.4381705"><ele>332.0</ele><time>2026-04-13T09:01:19.788Z</time></trkpt><trkpt lat="40.7750406" lon="9.4380018"><ele>336.75</ele><time>2026-04-13T09:01:20.78Z</time></trkpt><trkpt lat="40.774979" lon="9.4378302"><ele>341.5</ele><time>2026-04-13T09:01:21.786Z</time></trkpt><trkpt lat="40.7749233" lon="9.4376496"><ele>346.25</ele><time>2026-04-13T09:01:22.779Z</time></trkpt><trkpt lat="40.774874" lon="9.4374595"><ele>351.0</ele><time>2026-04-13T09:01:23.773Z</time></trkpt><trkpt lat="40.7748278" lon="9.4372732"><ele>350.75</ele><time>2026-04-13T09:01:24.782Z</time></trkpt><trkpt lat="40.7747862" lon="9.4370897"><ele>350.5</ele><time>2026-04-13T09:01:25.773Z</time></trkpt><trkpt lat="40.774754" lon="9.4369106"><ele>350.25</ele><time>2026-04-13T09:01:26.771Z</time></trkpt><trkpt lat="40.7747301" lon="9.4367328"><ele>350.0</ele><time>2026-04-13T09:01:27.778Z</time></trkpt><trkpt lat="40.7747062" lon="9.4365529"><ele>350.0</ele><time>2026-04-13T09:01:28.769Z</time></trkpt><trkpt lat="40.7746857" lon="9.4363632"><ele>350.0</ele><time>2026-04-13T09:01:29.805Z</time></trkpt><trkpt lat="40.7746758" lon="9.4361672"><ele>350.0</ele><time>2026-04-13T09:01:30.785Z</time></trkpt><trkpt lat="40.7746698" lon="9.4359754"><ele>350.0</ele><time>2026-04-13T09:01:31.765Z</time></trkpt><trkpt lat="40.7746625" lon="9.4357973"><ele>352.2</ele><time>2026-04-13T09:01:32.776Z</time></trkpt><trkpt lat="40.7746555" lon="9.4356309"><ele>354.4</ele><time>2026-04-13T09:01:33.766Z</time></trkpt><trkpt lat="40.7746468" lon="9.4354825"><ele>356.6</ele><time>2026-04-13T09:01:34.784Z</time></trkpt><trkpt lat="40.7746266" lon="9.4353614"><ele>358.8</ele><time>2026-04-13T09:01:35.774Z</time></trkpt><trkpt lat="40.77459" lon="9.4352533"><ele>361.0</ele><time>2026-04-13T09:01:36.778Z</time></trkpt><trkpt lat="40.7745327" lon="9.4351637"><ele>364.4</ele><time>2026-04-13T09:01:37.78Z</time></trkpt><trkpt lat="40.7744607" lon="9.4351"><ele>367.8</ele><time>2026-04-13T09:01:38.775Z</time></trkpt><trkpt lat="40.7743771" lon="9.43506"><ele>371.2</ele><time>2026-04-13T09:01:39.766Z</time></trkpt><trkpt lat="40.7742842" lon="9.4350357"><ele>374.59999999999997</ele><time>2026-04-13T09:01:40.768Z</time></trkpt><trkpt lat="40.7741927" lon="9.4350211"><ele>378.0</ele><time>2026-04-13T09:01:41.778Z</time></trkpt><trkpt lat="40.774091" lon="9.4350145"><ele>380.59999999999997</ele><time>2026-04-13T09:01:42.762Z</time></trkpt><trkpt lat="40.7739818" lon="9.4350067"><ele>383.2</ele><time>2026-04-13T09:01:43.783Z</time></trkpt><trkpt lat="40.7738743" lon="9.4349766"><ele>385.8</ele><time>2026-04-13T09:01:44.78Z</time></trkpt><trkpt lat="40.7737665" lon="9.4349338"><ele>388.4</ele><time>2026-04-13T09:01:45.779Z</time></trkpt><trkpt lat="40.7736596" lon="9.4348697"><ele>391.0</ele><time>2026-04-13T09:01:46.778Z</time></trkpt><trkpt lat="40.7735422" lon="9.4347973"><ele>395.25</ele><time>2026-04-13T09:01:47.795Z</time></trkpt><trkpt lat="40.7734282" lon="9.4347117"><ele>399.5</ele><time>2026-04-13T09:01:48.778Z</time></trkpt><trkpt lat="40.7733251" lon="9.4346104"><ele>403.75</ele><time>2026-04-13T09:01:49.781Z</time></trkpt><trkpt lat="40.7732282" lon="9.4345042"><ele>408.0</ele><time>2026-04-13T09:01:50.767Z</time></trkpt><trkpt lat="40.773125" lon="9.4344012"><ele>408.5</ele><time>2026-04-13T09:01:51.771Z</time></trkpt><trkpt lat="40.7730252" lon="9.4343008"><ele>409.0</ele><time>2026-04-13T09:01:52.774Z</time></trkpt><trkpt lat="40.7729248" lon="9.4342021"><ele>409.5</ele><time>2026-04-13T09:01:53.772Z</time></trkpt><trkpt lat="40.7728257" lon="9.4341019"><ele>410.0</ele><time>2026-04-13T09:01:54.774Z</time></trkpt><trkpt lat="40.7727259" lon="9.4339977"><ele>414.75</ele><time>2026-04-13T09:01:55.767Z</time></trkpt><trkpt lat="40.7726255" lon="9.4338924"><ele>419.5</ele><time>2026-04-13T09:01:56.777Z</time></trkpt><trkpt lat="40.7725229" lon="9.4337766"><ele>424.25</ele><time>2026-04-13T09:01:57.792Z</time></trkpt><trkpt lat="40.7724239" lon="9.4336581"><ele>429.0</ele><time>2026-04-13T09:01:58.765Z</time></trkpt><trkpt lat="40.7723265" lon="9.4335367"><ele>429.25</ele><time>2026-04-13T09:01:59.754Z</time></trkpt><trkpt lat="40.7722395" lon="9.433404"><ele>429.5</ele><time>2026-04-13T09:02:00.757Z</time></trkpt><trkpt lat="40.7721553" lon="9.4332583"><ele>429.75</ele><time>2026-04-13T09:02:01.761Z</time></trkpt><trkpt lat="40.7720624" lon="9.4331204"><ele>430.0</ele><time>2026-04-13T09:02:02.758Z</time></trkpt><trkpt lat="40.7719583" lon="9.4329896"><ele>434.0</ele><time>2026-04-13T09:02:03.765Z</time></trkpt><trkpt lat="40.771854" lon="9.4328643"><ele>438.0</ele><time>2026-04-13T09:02:04.776Z</time></trkpt><trkpt lat="40.7717443" lon="9.4327537"><ele>442.0</ele><time>2026-04-13T09:02:05.764Z</time></trkpt><trkpt lat="40.7716299" lon="9.4326575"><ele>446.0</ele><time>2026-04-13T09:02:06.764Z</time></trkpt><trkpt lat="40.771509" lon="9.4325694"><ele>446.0</ele><time>2026-04-13T09:02:07.757Z</time></trkpt><trkpt lat="40.7713892" lon="9.4324878"><ele>446.0</ele><time>2026-04-13T09:02:08.755Z</time></trkpt><trkpt lat="40.7712705" lon="9.4324059"><ele>446.0</ele><time>2026-04-13T09:02:09.758Z</time></trkpt><trkpt lat="40.7711599" lon="9.4323265"><ele>446.0</ele><time>2026-04-13T09:02:10.757Z</time></trkpt><trkpt lat="40.7710682" lon="9.4322545"><ele>449.49999999999994</ele><time>2026-04-13T09:02:11.783Z</time></trkpt><trkpt lat="40.7710121" lon="9.4321779"><ele>453.0</ele><time>2026-04-13T09:02:12.773Z</time></trkpt><trkpt lat="40.7709906" lon="9.4320983"><ele>456.5</ele><time>2026-04-13T09:02:13.764Z</time></trkpt><trkpt lat="40.7709821" lon="9.4319981"><ele>460.0</ele><time>2026-04-13T09:02:14.758Z</time></trkpt><trkpt lat="40.7709761" lon="9.4318879"><ele>463.49999999999994</ele><time>2026-04-13T09:02:15.756Z</time></trkpt><trkpt lat="40.7709594" lon="9.431766"><ele>467.0</ele><time>2026-04-13T09:02:16.757Z</time></trkpt><trkpt lat="40.7709329" lon="9.4316272"><ele>467.5</ele><time>2026-04-13T09:02:17.757Z</time></trkpt><trkpt lat="40.7708959" lon="9.4314758"><ele>468.0</ele><time>2026-04-13T09:02:18.755Z</time></trkpt><trkpt lat="40.7708546" lon="9.4313245"><ele>468.5</ele><time>2026-04-13T09:02:19.765Z</time></trkpt><trkpt lat="40.7708125" lon="9.4311841"><ele>469.0</ele><time>2026-04-13T09:02:20.784Z</time></trkpt><trkpt lat="40.7707628" lon="9.4310526"><ele>470.0</ele><time>2026-04-13T09:02:21.755Z</time></trkpt><trkpt lat="40.7706983" lon="9.4309326"><ele>471.0</ele><time>2026-04-13T09:02:22.806Z</time></trkpt><trkpt lat="40.770623" lon="9.4308207"><ele>472.0</ele><time>2026-04-13T09:02:23.744Z</time></trkpt><trkpt lat="40.7705329" lon="9.4307299"><ele>473.0</ele><time>2026-04-13T09:02:24.736Z</time></trkpt><trkpt lat="40.7704314" lon="9.4306549"><ele>473.0</ele><time>2026-04-13T09:02:25.742Z</time></trkpt><trkpt lat="40.7703192" lon="9.4305912"><ele>473.0</ele><time>2026-04-13T09:02:26.738Z</time></trkpt><trkpt lat="40.7702003" lon="9.4305358"><ele>473.0</ele><time>2026-04-13T09:02:27.753Z</time></trkpt><trkpt lat="40.7700912" lon="9.4304912"><ele>473.0</ele><time>2026-04-13T09:02:28.737Z</time></trkpt><trkpt lat="40.7700012" lon="9.430459"><ele>478.0</ele><time>2026-04-13T09:02:29.745Z</time></trkpt><trkpt lat="40.7699278" lon="9.4304225"><ele>482.99999999999994</ele><time>2026-04-13T09:02:30.739Z</time></trkpt><trkpt lat="40.7698563" lon="9.4302945"><ele>487.99999999999994</ele><time>2026-04-13T09:02:32.724Z</time></trkpt><trkpt lat="40.7698653" lon="9.4302048"><ele>493.0</ele><time>2026-04-13T09:02:33.735Z</time></trkpt><trkpt lat="40.7698999" lon="9.4300934"><ele>498.0</ele><time>2026-04-13T09:02:34.72Z</time></trkpt><trkpt lat="40.7699501" lon="9.4299851"><ele>498.0</ele><time>2026-04-13T09:02:35.734Z</time></trkpt><trkpt lat="40.7699951" lon="9.4298593"><ele>498.0</ele><time>2026-04-13T09:02:36.733Z</time></trkpt><trkpt lat="40.7700312" lon="9.4297088"><ele>498.0</ele><time>2026-04-13T09:02:37.721Z</time></trkpt><trkpt lat="40.7700478" lon="9.4295489"><ele>498.0</ele><time>2026-04-13T09:02:38.731Z</time></trkpt><trkpt lat="40.7700612" lon="9.4293866"><ele>499.2</ele><time>2026-04-13T09:02:39.71Z</time></trkpt><trkpt lat="40.7700878" lon="9.4292529"><ele>500.4</ele><time>2026-04-13T09:02:40.709Z</time></trkpt><trkpt lat="40.7701371" lon="9.4291305"><ele>501.59999999999997</ele><time>2026-04-13T09:02:41.716Z</time></trkpt><trkpt lat="40.7702019" lon="9.4290139"><ele>502.79999999999995</ele><time>2026-04-13T09:02:42.707Z</time></trkpt><trkpt lat="40.7702582" lon="9.4289079"><ele>504.0</ele><time>2026-04-13T09:02:43.707Z</time></trkpt><trkpt lat="40.7702977" lon="9.4288123"><ele>505.6666666666667</ele><time>2026-04-13T09:02:44.705Z</time></trkpt><trkpt lat="40.7703057" lon="9.4287227"><ele>507.33333333333337</ele><time>2026-04-13T09:02:45.715Z</time></trkpt><trkpt lat="40.7702866" lon="9.4286414"><ele>509.0</ele><time>2026-04-13T09:02:46.719Z</time></trkpt><trkpt lat="40.7701813" lon="9.4285662"><ele>510.6666666666667</ele><time>2026-04-13T09:02:48.692Z</time></trkpt><trkpt lat="40.7701079" lon="9.4285836"><ele>512.3333333333334</ele><time>2026-04-13T09:02:49.682Z</time></trkpt><trkpt lat="40.7700324" lon="9.4286479"><ele>514.0</ele><time>2026-04-13T09:02:50.692Z</time></trkpt><trkpt lat="40.769954" lon="9.4287396"><ele>514.0</ele><time>2026-04-13T09:02:51.7Z</time></trkpt><trkpt lat="40.7698654" lon="9.4288493"><ele>514.0</ele><time>2026-04-13T09:02:52.683Z</time></trkpt><trkpt lat="40.7697708" lon="9.4289771"><ele>514.0</ele><time>2026-04-13T09:02:53.694Z</time></trkpt><trkpt lat="40.7696878" lon="9.4291178"><ele>514.0</ele><time>2026-04-13T09:02:54.685Z</time></trkpt><trkpt lat="40.7696256" lon="9.4292665"><ele>514.0</ele><time>2026-04-13T09:02:55.681Z</time></trkpt><trkpt lat="40.769575" lon="9.4294013"><ele>514.0</ele><time>2026-04-13T09:02:56.686Z</time></trkpt><trkpt lat="40.7695162" lon="9.4294988"><ele>514.0</ele><time>2026-04-13T09:02:57.679Z</time></trkpt><trkpt lat="40.7694446" lon="9.4295557"><ele>514.0</ele><time>2026-04-13T09:02:58.785Z</time></trkpt><trkpt lat="40.7693607" lon="9.429622"><ele>514.0</ele><time>2026-04-13T09:02:59.786Z</time></trkpt><trkpt lat="40.7692614" lon="9.42968"><ele>516.25</ele><time>2026-04-13T09:03:00.778Z</time></trkpt><trkpt lat="40.7691545" lon="9.4297259"><ele>518.5</ele><time>2026-04-13T09:03:01.781Z</time></trkpt><trkpt lat="40.7690373" lon="9.4297419"><ele>520.75</ele><time>2026-04-13T09:03:02.77Z</time></trkpt><trkpt lat="40.7689107" lon="9.4297414"><ele>523.0</ele><time>2026-04-13T09:03:03.773Z</time></trkpt><trkpt lat="40.76879" lon="9.4297272"><ele>523.0</ele><time>2026-04-13T09:03:04.777Z</time></trkpt><trkpt lat="40.7686878" lon="9.4296839"><ele>523.0</ele><time>2026-04-13T09:03:05.772Z</time></trkpt><trkpt lat="40.7685905" lon="9.4296154"><ele>523.0</ele><time>2026-04-13T09:03:06.784Z</time></trkpt><trkpt lat="40.7684873" lon="9.429532"><ele>523.0</ele><time>2026-04-13T09:03:07.768Z</time></trkpt><trkpt lat="40.7683739" lon="9.4294398"><ele>527.0</ele><time>2026-04-13T09:03:08.766Z</time></trkpt><trkpt lat="40.7682457" lon="9.4293361"><ele>531.0</ele><time>2026-04-13T09:03:09.763Z</time></trkpt><trkpt lat="40.7681117" lon="9.4292221"><ele>535.0</ele><time>2026-04-13T09:03:10.776Z</time></trkpt><trkpt lat="40.7679687" lon="9.4290996"><ele>535.0</ele><time>2026-04-13T09:03:11.766Z</time></trkpt><trkpt lat="40.7678173" lon="9.4289662"><ele>535.0</ele><time>2026-04-13T09:03:12.76Z</time></trkpt><trkpt lat="40.7676616" lon="9.428824"><ele>535.0</ele><time>2026-04-13T09:03:13.769Z</time></trkpt><trkpt lat="40.7675005" lon="9.4286792"><ele>533.0</ele><time>2026-04-13T09:03:14.757Z</time></trkpt><trkpt lat="40.7673279" lon="9.4285233"><ele>531.0</ele><time>2026-04-13T09:03:15.77Z</time></trkpt><trkpt lat="40.7671568" lon="9.4283577"><ele>529.0</ele><time>2026-04-13T09:03:16.757Z</time></trkpt><trkpt lat="40.766992" lon="9.4281903"><ele>530.3333333333334</ele><time>2026-04-13T09:03:17.77Z</time></trkpt><trkpt lat="40.7668405" lon="9.4280369"><ele>531.6666666666666</ele><time>2026-04-13T09:03:18.756Z</time></trkpt><trkpt lat="40.7666983" lon="9.4278928"><ele>533.0</ele><time>2026-04-13T09:03:19.753Z</time></trkpt><trkpt lat="40.7665586" lon="9.4277499"><ele>533.0</ele><time>2026-04-13T09:03:20.764Z</time></trkpt><trkpt lat="40.7664209" lon="9.4276121"><ele>533.0</ele><time>2026-04-13T09:03:21.77Z</time></trkpt><trkpt lat="40.7662798" lon="9.4274802"><ele>533.0</ele><time>2026-04-13T09:03:22.758Z</time></trkpt><trkpt lat="40.7661317" lon="9.4273579"><ele>533.3333333333333</ele><time>2026-04-13T09:03:23.794Z</time></trkpt><trkpt lat="40.7659809" lon="9.4272457"><ele>533.6666666666666</ele><time>2026-04-13T09:03:24.747Z</time></trkpt><trkpt lat="40.7658309" lon="9.4271423"><ele>534.0</ele><time>2026-04-13T09:03:25.76Z</time></trkpt><trkpt lat="40.7656926" lon="9.4270599"><ele>534.0</ele><time>2026-04-13T09:03:26.76Z</time></trkpt><trkpt lat="40.7655699" lon="9.4270006"><ele>534.0</ele><time>2026-04-13T09:03:27.762Z</time></trkpt><trkpt lat="40.7654675" lon="9.4269656"><ele>534.0</ele><time>2026-04-13T09:03:28.748Z</time></trkpt><trkpt lat="40.7653765" lon="9.4269835"><ele>534.0</ele><time>2026-04-13T09:03:29.749Z</time></trkpt><trkpt lat="40.7652936" lon="9.4270302"><ele>534.0</ele><time>2026-04-13T09:03:30.755Z</time></trkpt><trkpt lat="40.7652101" lon="9.4271071"><ele>531.5</ele><time>2026-04-13T09:03:31.761Z</time></trkpt><trkpt lat="40.7651246" lon="9.4272136"><ele>529.0</ele><time>2026-04-13T09:03:32.731Z</time></trkpt><trkpt lat="40.7650333" lon="9.4273202"><ele>526.5</ele><time>2026-04-13T09:03:33.75Z</time></trkpt><trkpt lat="40.7649321" lon="9.4274237"><ele>524.0</ele><time>2026-04-13T09:03:34.742Z</time></trkpt><trkpt lat="40.7648166" lon="9.42751"><ele>524.0</ele><time>2026-04-13T09:03:35.736Z</time></trkpt><trkpt lat="40.7646812" lon="9.4275797"><ele>524.0</ele><time>2026-04-13T09:03:36.73Z</time></trkpt><trkpt lat="40.7645314" lon="9.427641"><ele>524.0</ele><time>2026-04-13T09:03:37.765Z</time></trkpt><trkpt lat="40.7643793" lon="9.4276845"><ele>523.0</ele><time>2026-04-13T09:03:38.755Z</time></trkpt><trkpt lat="40.7642378" lon="9.4277092"><ele>522.0</ele><time>2026-04-13T09:03:39.744Z</time></trkpt><trkpt lat="40.7641088" lon="9.4277138"><ele>521.0</ele><time>2026-04-13T09:03:40.747Z</time></trkpt><trkpt lat="40.7639821" lon="9.4276849"><ele>520.0</ele><time>2026-04-13T09:03:41.739Z</time></trkpt><trkpt lat="40.763847" lon="9.4276423"><ele>520.0</ele><time>2026-04-13T09:03:42.747Z</time></trkpt><trkpt lat="40.7636974" lon="9.4276271"><ele>520.0</ele><time>2026-04-13T09:03:43.735Z</time></trkpt><trkpt lat="40.7635421" lon="9.4276449"><ele>520.0</ele><time>2026-04-13T09:03:44.73Z</time></trkpt><trkpt lat="40.7633846" lon="9.4276823"><ele>519.3333333333334</ele><time>2026-04-13T09:03:45.736Z</time></trkpt><trkpt lat="40.7632354" lon="9.4277391"><ele>518.6666666666666</ele><time>2026-04-13T09:03:46.741Z</time></trkpt><trkpt lat="40.7630827" lon="9.4277906"><ele>518.0</ele><time>2026-04-13T09:03:47.731Z</time></trkpt><trkpt lat="40.762921" lon="9.4278354"><ele>518.0</ele><time>2026-04-13T09:03:48.74Z</time></trkpt><trkpt lat="40.7627482" lon="9.4278649"><ele>518.0</ele><time>2026-04-13T09:03:49.725Z</time></trkpt><trkpt lat="40.7625716" lon="9.4278758"><ele>518.0</ele><time>2026-04-13T09:03:50.748Z</time></trkpt><trkpt lat="40.7623938" lon="9.4278815"><ele>520.0</ele><time>2026-04-13T09:03:51.728Z</time></trkpt><trkpt lat="40.7622276" lon="9.4278847"><ele>522.0</ele><time>2026-04-13T09:03:52.728Z</time></trkpt><trkpt lat="40.7620683" lon="9.4278789"><ele>524.0</ele><time>2026-04-13T09:03:53.73Z</time></trkpt><trkpt lat="40.7619026" lon="9.4278521"><ele>524.3333333333333</ele><time>2026-04-13T09:03:54.727Z</time></trkpt><trkpt lat="40.7617364" lon="9.4278005"><ele>524.6666666666666</ele><time>2026-04-13T09:03:55.768Z</time></trkpt><trkpt lat="40.761576" lon="9.4277268"><ele>525.0</ele><time>2026-04-13T09:03:56.721Z</time></trkpt><trkpt lat="40.7614355" lon="9.4276399"><ele>525.0</ele><time>2026-04-13T09:03:57.738Z</time></trkpt><trkpt lat="40.7613149" lon="9.4275429"><ele>525.0</ele><time>2026-04-13T09:03:58.732Z</time></trkpt><trkpt lat="40.7612024" lon="9.4274206"><ele>525.0</ele><time>2026-04-13T09:03:59.727Z</time></trkpt><trkpt lat="40.7610973" lon="9.4272815"><ele>525.0</ele><time>2026-04-13T09:04:00.737Z</time></trkpt><trkpt lat="40.7609848" lon="9.4271179"><ele>524.6666666666666</ele><time>2026-04-13T09:04:01.716Z</time></trkpt><trkpt lat="40.7608745" lon="9.4269465"><ele>524.3333333333333</ele><time>2026-04-13T09:04:02.732Z</time></trkpt><trkpt lat="40.7607624" lon="9.4267524"><ele>524.0</ele><time>2026-04-13T09:04:03.721Z</time></trkpt><trkpt lat="40.7606561" lon="9.4265499"><ele>524.0</ele><time>2026-04-13T09:04:04.722Z</time></trkpt><trkpt lat="40.7605535" lon="9.4263284"><ele>524.0</ele><time>2026-04-13T09:04:05.728Z</time></trkpt><trkpt lat="40.7604496" lon="9.4261158"><ele>524.0</ele><time>2026-04-13T09:04:06.731Z</time></trkpt><trkpt lat="40.7603605" lon="9.425922"><ele>525.0</ele><time>2026-04-13T09:04:07.73Z</time></trkpt><trkpt lat="40.7602715" lon="9.425756"><ele>526.0</ele><time>2026-04-13T09:04:08.722Z</time></trkpt><trkpt lat="40.7601831" lon="9.4256256"><ele>527.0</ele><time>2026-04-13T09:04:09.719Z</time></trkpt><trkpt lat="40.7600805" lon="9.4255374"><ele>528.0</ele><time>2026-04-13T09:04:10.728Z</time></trkpt><trkpt lat="40.7599655" lon="9.4254704"><ele>525.0</ele><time>2026-04-13T09:04:11.729Z</time></trkpt><trkpt lat="40.7598423" lon="9.425406"><ele>522.0</ele><time>2026-04-13T09:04:12.736Z</time></trkpt><trkpt lat="40.7597203" lon="9.4253135"><ele>519.0</ele><time>2026-04-13T09:04:13.719Z</time></trkpt><trkpt lat="40.759613" lon="9.4251858"><ele>516.0</ele><time>2026-04-13T09:04:14.733Z</time></trkpt><trkpt lat="40.7595267" lon="9.4250366"><ele>516.0</ele><time>2026-04-13T09:04:15.744Z</time></trkpt><trkpt lat="40.7594609" lon="9.4248638"><ele>516.0</ele><time>2026-04-13T09:04:16.714Z</time></trkpt><trkpt lat="40.7594102" lon="9.4246799"><ele>516.0</ele><time>2026-04-13T09:04:17.712Z</time></trkpt><trkpt lat="40.7593775" lon="9.4244911"><ele>516.0</ele><time>2026-04-13T09:04:18.821Z</time></trkpt><trkpt lat="40.7593601" lon="9.4242969"><ele>516.0</ele><time>2026-04-13T09:04:19.726Z</time></trkpt><trkpt lat="40.7593556" lon="9.4241109"><ele>516.0</ele><time>2026-04-13T09:04:20.714Z</time></trkpt><trkpt lat="40.7593438" lon="9.4239378"><ele>516.0</ele><time>2026-04-13T09:04:21.711Z</time></trkpt><trkpt lat="40.7593131" lon="9.4237791"><ele>516.0</ele><time>2026-04-13T09:04:22.726Z</time></trkpt><trkpt lat="40.7592578" lon="9.4236271"><ele>515.75</ele><time>2026-04-13T09:04:23.717Z</time></trkpt><trkpt lat="40.759188" lon="9.4234666"><ele>515.5</ele><time>2026-04-13T09:04:24.715Z</time></trkpt><trkpt lat="40.7591165" lon="9.4233117"><ele>515.25</ele><time>2026-04-13T09:04:25.704Z</time></trkpt><trkpt lat="40.7590317" lon="9.4231522"><ele>515.0</ele><time>2026-04-13T09:04:26.721Z</time></trkpt><trkpt lat="40.7589301" lon="9.4229972"><ele>515.0</ele><time>2026-04-13T09:04:27.728Z</time></trkpt><trkpt lat="40.7588277" lon="9.4228471"><ele>515.0</ele><time>2026-04-13T09:04:28.725Z</time></trkpt><trkpt lat="40.7587205" lon="9.4226935"><ele>515.0</ele><time>2026-04-13T09:04:29.717Z</time></trkpt><trkpt lat="40.7586081" lon="9.4225394"><ele>515.0</ele><time>2026-04-13T09:04:30.724Z</time></trkpt><trkpt lat="40.7584958" lon="9.4223813"><ele>515.0</ele><time>2026-04-13T09:04:31.709Z</time></trkpt><trkpt lat="40.7583812" lon="9.4222227"><ele>515.0</ele><time>2026-04-13T09:04:32.707Z</time></trkpt><trkpt lat="40.7582736" lon="9.4220567"><ele>514.3333333333333</ele><time>2026-04-13T09:04:33.718Z</time></trkpt><trkpt lat="40.75818" lon="9.4218762"><ele>513.6666666666666</ele><time>2026-04-13T09:04:34.738Z</time></trkpt><trkpt lat="40.758103" lon="9.4216768"><ele>513.0</ele><time>2026-04-13T09:04:35.722Z</time></trkpt><trkpt lat="40.7580263" lon="9.4214914"><ele>513.0</ele><time>2026-04-13T09:04:36.706Z</time></trkpt><trkpt lat="40.7579419" lon="9.4213194"><ele>513.0</ele><time>2026-04-13T09:04:37.7Z</time></trkpt><trkpt lat="40.7578591" lon="9.4211609"><ele>513.0</ele><time>2026-04-13T09:04:38.705Z</time></trkpt><trkpt lat="40.7577786" lon="9.4210125"><ele>513.0</ele><time>2026-04-13T09:04:39.708Z</time></trkpt><trkpt lat="40.7577095" lon="9.4208624"><ele>512.5</ele><time>2026-04-13T09:04:40.695Z</time></trkpt><trkpt lat="40.7576605" lon="9.4207059"><ele>512.0</ele><time>2026-04-13T09:04:41.698Z</time></trkpt><trkpt lat="40.7576274" lon="9.4205274"><ele>511.5</ele><time>2026-04-13T09:04:42.702Z</time></trkpt><trkpt lat="40.7576077" lon="9.4203423"><ele>511.0</ele><time>2026-04-13T09:04:43.697Z</time></trkpt><trkpt lat="40.7575816" lon="9.4201622"><ele>511.0</ele><time>2026-04-13T09:04:44.696Z</time></trkpt><trkpt lat="40.7575318" lon="9.4199911"><ele>511.0</ele><time>2026-04-13T09:04:45.697Z</time></trkpt><trkpt lat="40.7574568" lon="9.4198248"><ele>511.0</ele><time>2026-04-13T09:04:46.691Z</time></trkpt><trkpt lat="40.7573715" lon="9.4196587"><ele>511.0</ele><time>2026-04-13T09:04:47.693Z</time></trkpt><trkpt lat="40.7572811" lon="9.4194832"><ele>512.6666666666667</ele><time>2026-04-13T09:04:48.686Z</time></trkpt><trkpt lat="40.7571925" lon="9.419292"><ele>514.3333333333334</ele><time>2026-04-13T09:04:49.692Z</time></trkpt><trkpt lat="40.7571029" lon="9.4190945"><ele>516.0</ele><time>2026-04-13T09:04:50.695Z</time></trkpt><trkpt lat="40.7570025" lon="9.4189004"><ele>514.6666666666666</ele><time>2026-04-13T09:04:51.741Z</time></trkpt><trkpt lat="40.7568978" lon="9.4187111"><ele>513.3333333333333</ele><time>2026-04-13T09:04:52.687Z</time></trkpt><trkpt lat="40.7567941" lon="9.4185138"><ele>512.0</ele><time>2026-04-13T09:04:53.702Z</time></trkpt><trkpt lat="40.7566933" lon="9.4183205"><ele>512.0</ele><time>2026-04-13T09:04:54.694Z</time></trkpt><trkpt lat="40.7565909" lon="9.4181271"><ele>512.0</ele><time>2026-04-13T09:04:55.704Z</time></trkpt><trkpt lat="40.7564864" lon="9.4179392"><ele>512.0</ele><time>2026-04-13T09:04:56.691Z</time></trkpt><trkpt lat="40.7563821" lon="9.4177502"><ele>512.0</ele><time>2026-04-13T09:04:57.692Z</time></trkpt><trkpt lat="40.7562947" lon="9.4175671"><ele>512.0</ele><time>2026-04-13T09:04:58.681Z</time></trkpt><trkpt lat="40.7562303" lon="9.4173903"><ele>512.0</ele><time>2026-04-13T09:04:59.699Z</time></trkpt><trkpt lat="40.7561761" lon="9.4172061"><ele>511.75</ele><time>2026-04-13T09:05:00.695Z</time></trkpt><trkpt lat="40.7561323" lon="9.4170204"><ele>511.5</ele><time>2026-04-13T09:05:01.697Z</time></trkpt><trkpt lat="40.7560928" lon="9.4168328"><ele>511.25</ele><time>2026-04-13T09:05:02.679Z</time></trkpt><trkpt lat="40.7560594" lon="9.4166479"><ele>511.0</ele><time>2026-04-13T09:05:03.683Z</time></trkpt><trkpt lat="40.7560338" lon="9.4164581"><ele>510.25</ele><time>2026-04-13T09:05:04.778Z</time></trkpt><trkpt lat="40.7560023" lon="9.4162676"><ele>509.5</ele><time>2026-04-13T09:05:05.772Z</time></trkpt><trkpt lat="40.7559673" lon="9.4160779"><ele>508.75</ele><time>2026-04-13T09:05:06.772Z</time></trkpt><trkpt lat="40.7559343" lon="9.415903"><ele>508.0</ele><time>2026-04-13T09:05:07.774Z</time></trkpt><trkpt lat="40.7559052" lon="9.415762"><ele>508.00000000000006</ele><time>2026-04-13T09:05:08.786Z</time></trkpt><trkpt lat="40.7558856" lon="9.4156528"><ele>508.0</ele><time>2026-04-13T09:05:09.781Z</time></trkpt><trkpt lat="40.7558679" lon="9.4155635"><ele>508.0</ele><time>2026-04-13T09:05:10.784Z</time></trkpt><trkpt lat="40.7558439" lon="9.4154413"><ele>508.0</ele><time>2026-04-13T09:05:12.787Z</time></trkpt><trkpt lat="40.7558258" lon="9.4153557"><ele>508.00000000000006</ele><time>2026-04-13T09:05:14.774Z</time></trkpt><trkpt lat="40.755803" lon="9.4152767"><ele>508.0</ele><time>2026-04-13T09:17:39.721Z</time></trkpt><trkpt lat="40.7557511" lon="9.4151508"><ele>508.79999999999995</ele><time>2026-04-13T09:17:42.726Z</time></trkpt><trkpt lat="40.7557139" lon="9.4149732"><ele>509.59999999999997</ele><time>2026-04-13T09:17:44.722Z</time></trkpt><trkpt lat="40.7556965" lon="9.4148689"><ele>510.40000000000003</ele><time>2026-04-13T09:17:45.763Z</time></trkpt><trkpt lat="40.7556758" lon="9.4147559"><ele>511.20000000000005</ele><time>2026-04-13T09:17:46.706Z</time></trkpt><trkpt lat="40.755652" lon="9.4146365"><ele>512.0</ele><time>2026-04-13T09:17:47.712Z</time></trkpt><trkpt lat="40.755629" lon="9.4145097"><ele>513.25</ele><time>2026-04-13T09:17:48.703Z</time></trkpt><trkpt lat="40.7556019" lon="9.4143749"><ele>514.5</ele><time>2026-04-13T09:17:49.711Z</time></trkpt><trkpt lat="40.7555751" lon="9.4142313"><ele>515.75</ele><time>2026-04-13T09:17:50.709Z</time></trkpt><trkpt lat="40.7555539" lon="9.4140773"><ele>517.0</ele><time>2026-04-13T09:17:51.699Z</time></trkpt><trkpt lat="40.755533" lon="9.4139135"><ele>517.75</ele><time>2026-04-13T09:17:52.702Z</time></trkpt><trkpt lat="40.7555171" lon="9.413745"><ele>518.5</ele><time>2026-04-13T09:17:53.704Z</time></trkpt><trkpt lat="40.7554997" lon="9.4135793"><ele>519.25</ele><time>2026-04-13T09:17:54.695Z</time></trkpt><trkpt lat="40.7554873" lon="9.413408"><ele>520.0</ele><time>2026-04-13T09:17:55.737Z</time></trkpt><trkpt lat="40.7554809" lon="9.413236"><ele>520.0</ele><time>2026-04-13T09:17:56.737Z</time></trkpt><trkpt lat="40.7554758" lon="9.4130668"><ele>520.0</ele><time>2026-04-13T09:17:57.69Z</time></trkpt><trkpt lat="40.7554781" lon="9.4128978"><ele>520.0</ele><time>2026-04-13T09:17:58.699Z</time></trkpt><trkpt lat="40.7554799" lon="9.4127315"><ele>520.0</ele><time>2026-04-13T09:17:59.699Z</time></trkpt><trkpt lat="40.7554798" lon="9.412575"><ele>520.0</ele><time>2026-04-13T09:18:00.69Z</time></trkpt><trkpt lat="40.7554735" lon="9.4124332"><ele>520.0</ele><time>2026-04-13T09:18:01.698Z</time></trkpt><trkpt lat="40.7554627" lon="9.4122987"><ele>520.0</ele><time>2026-04-13T09:18:02.713Z</time></trkpt><trkpt lat="40.7554381" lon="9.4121716"><ele>520.0</ele><time>2026-04-13T09:18:03.692Z</time></trkpt><trkpt lat="40.7554001" lon="9.4120477"><ele>520.0</ele><time>2026-04-13T09:18:04.692Z</time></trkpt><trkpt lat="40.7553533" lon="9.4119264"><ele>519.0</ele><time>2026-04-13T09:18:05.688Z</time></trkpt><trkpt lat="40.7552934" lon="9.4118004"><ele>518.0</ele><time>2026-04-13T09:18:06.694Z</time></trkpt><trkpt lat="40.7552241" lon="9.4116754"><ele>517.0</ele><time>2026-04-13T09:18:07.683Z</time></trkpt><trkpt lat="40.7551389" lon="9.4115569"><ele>516.0</ele><time>2026-04-13T09:18:08.696Z</time></trkpt><trkpt lat="40.7550408" lon="9.4114487"><ele>516.0</ele><time>2026-04-13T09:18:09.687Z</time></trkpt><trkpt lat="40.7549305" lon="9.4113378"><ele>516.0</ele><time>2026-04-13T09:18:10.695Z</time></trkpt><trkpt lat="40.7548136" lon="9.4112347"><ele>516.0</ele><time>2026-04-13T09:18:11.689Z</time></trkpt><trkpt lat="40.7546857" lon="9.411119"><ele>516.0</ele><time>2026-04-13T09:18:12.689Z</time></trkpt><trkpt lat="40.754558" lon="9.4109936"><ele>517.3333333333334</ele><time>2026-04-13T09:18:13.687Z</time></trkpt><trkpt lat="40.7544324" lon="9.4108596"><ele>518.6666666666667</ele><time>2026-04-13T09:18:14.689Z</time></trkpt><trkpt lat="40.7543022" lon="9.4107239"><ele>520.0</ele><time>2026-04-13T09:18:15.683Z</time></trkpt><trkpt lat="40.7541716" lon="9.410584"><ele>518.3333333333334</ele><time>2026-04-13T09:18:16.692Z</time></trkpt><trkpt lat="40.7540496" lon="9.4104347"><ele>516.6666666666666</ele><time>2026-04-13T09:18:17.704Z</time></trkpt><trkpt lat="40.7539353" lon="9.4102753"><ele>515.0</ele><time>2026-04-13T09:18:18.682Z</time></trkpt><trkpt lat="40.7538278" lon="9.4101099"><ele>515.0</ele><time>2026-04-13T09:18:19.691Z</time></trkpt><trkpt lat="40.753721" lon="9.4099458"><ele>515.0</ele><time>2026-04-13T09:18:20.68Z</time></trkpt><trkpt lat="40.7536156" lon="9.4097812"><ele>515.0</ele><time>2026-04-13T09:18:21.692Z</time></trkpt><trkpt lat="40.7535161" lon="9.409614"><ele>514.5</ele><time>2026-04-13T09:18:22.684Z</time></trkpt><trkpt lat="40.7534207" lon="9.4094511"><ele>514.0</ele><time>2026-04-13T09:18:23.686Z</time></trkpt><trkpt lat="40.7533303" lon="9.4092998"><ele>513.5</ele><time>2026-04-13T09:18:24.778Z</time></trkpt><trkpt lat="40.7532498" lon="9.4091653"><ele>513.0</ele><time>2026-04-13T09:18:25.782Z</time></trkpt><trkpt lat="40.7530648" lon="9.4089689"><ele>513.0</ele><time>2026-04-13T09:18:27.777Z</time></trkpt><trkpt lat="40.7529634" lon="9.4089071"><ele>513.0</ele><time>2026-04-13T09:18:28.774Z</time></trkpt><trkpt lat="40.7528478" lon="9.4088772"><ele>513.0</ele><time>2026-04-13T09:18:29.774Z</time></trkpt><trkpt lat="40.7527179" lon="9.408864"><ele>513.0</ele><time>2026-04-13T09:18:30.772Z</time></trkpt><trkpt lat="40.7525826" lon="9.4088581"><ele>513.5</ele><time>2026-04-13T09:18:31.764Z</time></trkpt><trkpt lat="40.7524422" lon="9.4088494"><ele>514.0</ele><time>2026-04-13T09:18:32.777Z</time></trkpt><trkpt lat="40.7522971" lon="9.408844"><ele>514.5</ele><time>2026-04-13T09:18:33.784Z</time></trkpt><trkpt lat="40.752155" lon="9.4088327"><ele>515.0</ele><time>2026-04-13T09:18:34.779Z</time></trkpt><trkpt lat="40.7520328" lon="9.4088146"><ele>515.0</ele><time>2026-04-13T09:18:35.788Z</time></trkpt><trkpt lat="40.7519299" lon="9.4087685"><ele>515.0</ele><time>2026-04-13T09:18:36.78Z</time></trkpt><trkpt lat="40.7518444" lon="9.4086969"><ele>515.0</ele><time>2026-04-13T09:18:37.773Z</time></trkpt><trkpt lat="40.7517664" lon="9.4086004"><ele>515.0</ele><time>2026-04-13T09:18:38.772Z</time></trkpt><trkpt lat="40.7516877" lon="9.4084888"><ele>515.0</ele><time>2026-04-13T09:18:39.77Z</time></trkpt><trkpt lat="40.7516187" lon="9.4083654"><ele>515.75</ele><time>2026-04-13T09:18:40.772Z</time></trkpt><trkpt lat="40.7515528" lon="9.4082296"><ele>516.5</ele><time>2026-04-13T09:18:41.759Z</time></trkpt><trkpt lat="40.7514835" lon="9.4080924"><ele>517.25</ele><time>2026-04-13T09:18:42.778Z</time></trkpt><trkpt lat="40.7514006" lon="9.4079664"><ele>518.0</ele><time>2026-04-13T09:18:43.774Z</time></trkpt><trkpt lat="40.7513088" lon="9.4078594"><ele>518.0</ele><time>2026-04-13T09:18:44.774Z</time></trkpt><trkpt lat="40.7512149" lon="9.4077692"><ele>518.0</ele><time>2026-04-13T09:18:45.764Z</time></trkpt><trkpt lat="40.7511153" lon="9.4076938"><ele>518.0</ele><time>2026-04-13T09:18:46.764Z</time></trkpt><trkpt lat="40.7509987" lon="9.4076443"><ele>518.0</ele><time>2026-04-13T09:18:47.762Z</time></trkpt><trkpt lat="40.7508668" lon="9.4076132"><ele>516.0</ele><time>2026-04-13T09:18:48.762Z</time></trkpt><trkpt lat="40.7507299" lon="9.4075957"><ele>514.0</ele><time>2026-04-13T09:18:49.777Z</time></trkpt><trkpt lat="40.7505892" lon="9.4075776"><ele>512.0</ele><time>2026-04-13T09:18:50.762Z</time></trkpt><trkpt lat="40.7504531" lon="9.4075756"><ele>510.0</ele><time>2026-04-13T09:18:51.791Z</time></trkpt><trkpt lat="40.7503295" lon="9.407578"><ele>510.0</ele><time>2026-04-13T09:18:52.774Z</time></trkpt><trkpt lat="40.7502178" lon="9.4075813"><ele>510.0</ele><time>2026-04-13T09:18:53.773Z</time></trkpt><trkpt lat="40.7501135" lon="9.4075855"><ele>510.0</ele><time>2026-04-13T09:18:54.751Z</time></trkpt><trkpt lat="40.7500189" lon="9.4075908"><ele>510.0</ele><time>2026-04-13T09:18:55.76Z</time></trkpt><trkpt lat="40.7499296" lon="9.4075951"><ele>510.0</ele><time>2026-04-13T09:18:56.762Z</time></trkpt><trkpt lat="40.7498465" lon="9.4075915"><ele>509.5</ele><time>2026-04-13T09:18:57.765Z</time></trkpt><trkpt lat="40.7497793" lon="9.4075785"><ele>509.0</ele><time>2026-04-13T09:18:58.763Z</time></trkpt><trkpt lat="40.7497084" lon="9.4075563"><ele>508.5</ele><time>2026-04-13T09:19:00.762Z</time></trkpt><trkpt lat="40.7496473" lon="9.4075211"><ele>508.0</ele><time>2026-04-13T09:19:04.774Z</time></trkpt><trkpt lat="40.7495597" lon="9.4074799"><ele>507.5</ele><time>2026-04-13T09:19:20.745Z</time></trkpt><trkpt lat="40.7494359" lon="9.4074358"><ele>507.0</ele><time>2026-04-13T09:19:22.764Z</time></trkpt><trkpt lat="40.7493538" lon="9.4074062"><ele>507.0</ele><time>2026-04-13T09:19:23.74Z</time></trkpt><trkpt lat="40.7492619" lon="9.4073712"><ele>507.00000000000006</ele><time>2026-04-13T09:19:24.767Z</time></trkpt><trkpt lat="40.7491697" lon="9.4073332"><ele>507.00000000000006</ele><time>2026-04-13T09:19:25.74Z</time></trkpt><trkpt lat="40.7490831" lon="9.407281"><ele>507.0</ele><time>2026-04-13T09:19:26.767Z</time></trkpt><trkpt lat="40.7490057" lon="9.4072069"><ele>507.0</ele><time>2026-04-13T09:19:27.75Z</time></trkpt><trkpt lat="40.7489258" lon="9.4071267"><ele>507.25</ele><time>2026-04-13T09:19:28.735Z</time></trkpt><trkpt lat="40.7488399" lon="9.4070478"><ele>507.5</ele><time>2026-04-13T09:19:29.748Z</time></trkpt><trkpt lat="40.7487413" lon="9.4069651"><ele>507.75</ele><time>2026-04-13T09:19:30.75Z</time></trkpt><trkpt lat="40.7486344" lon="9.4068689"><ele>508.0</ele><time>2026-04-13T09:19:31.758Z</time></trkpt><trkpt lat="40.7485276" lon="9.4067703"><ele>508.0</ele><time>2026-04-13T09:19:32.75Z</time></trkpt><trkpt lat="40.7484234" lon="9.406675"><ele>508.0</ele><time>2026-04-13T09:19:33.737Z</time></trkpt><trkpt lat="40.7483238" lon="9.406583"><ele>508.0</ele><time>2026-04-13T09:19:34.738Z</time></trkpt><trkpt lat="40.7482287" lon="9.4065003"><ele>508.0</ele><time>2026-04-13T09:19:35.767Z</time></trkpt><trkpt lat="40.7481517" lon="9.4064316"><ele>508.00000000000006</ele><time>2026-04-13T09:19:36.735Z</time></trkpt><trkpt lat="40.7480873" lon="9.4063685"><ele>508.0</ele><time>2026-04-13T09:19:37.726Z</time></trkpt><trkpt lat="40.7480336" lon="9.4062953"><ele>508.0</ele><time>2026-04-13T09:19:38.756Z</time></trkpt><trkpt lat="40.7479976" lon="9.406199"><ele>508.0</ele><time>2026-04-13T09:19:39.738Z</time></trkpt><trkpt lat="40.7479728" lon="9.4061029"><ele>508.00000000000006</ele><time>2026-04-13T09:19:40.754Z</time></trkpt><trkpt lat="40.7479653" lon="9.4060095"><ele>508.0</ele><time>2026-04-13T09:19:41.756Z</time></trkpt><trkpt lat="40.7479903" lon="9.4059189"><ele>508.2</ele><time>2026-04-13T09:19:42.742Z</time></trkpt><trkpt lat="40.7480259" lon="9.4058302"><ele>508.4</ele><time>2026-04-13T09:19:43.761Z</time></trkpt><trkpt lat="40.7480769" lon="9.4057329"><ele>508.59999999999997</ele><time>2026-04-13T09:19:44.726Z</time></trkpt><trkpt lat="40.7481446" lon="9.4056424"><ele>508.79999999999995</ele><time>2026-04-13T09:19:45.726Z</time></trkpt><trkpt lat="40.7482162" lon="9.4055469"><ele>509.0</ele><time>2026-04-13T09:19:46.73Z</time></trkpt><trkpt lat="40.7482931" lon="9.4054566"><ele>508.6</ele><time>2026-04-13T09:19:47.722Z</time></trkpt><trkpt lat="40.7483646" lon="9.4053762"><ele>508.2</ele><time>2026-04-13T09:19:48.73Z</time></trkpt><trkpt lat="40.7484311" lon="9.4053037"><ele>507.80000000000007</ele><time>2026-04-13T09:19:49.721Z</time></trkpt><trkpt lat="40.7485071" lon="9.405248"><ele>507.40000000000003</ele><time>2026-04-13T09:19:50.727Z</time></trkpt><trkpt lat="40.7485939" lon="9.4051922"><ele>507.0</ele><time>2026-04-13T09:19:51.717Z</time></trkpt><trkpt lat="40.7486807" lon="9.4051433"><ele>507.8</ele><time>2026-04-13T09:19:52.725Z</time></trkpt><trkpt lat="40.7487646" lon="9.405094"><ele>508.6</ele><time>2026-04-13T09:19:53.717Z</time></trkpt><trkpt lat="40.748858" lon="9.4050525"><ele>509.40000000000003</ele><time>2026-04-13T09:19:54.708Z</time></trkpt><trkpt lat="40.7489533" lon="9.4050102"><ele>510.20000000000005</ele><time>2026-04-13T09:19:55.723Z</time></trkpt><trkpt lat="40.7490498" lon="9.4049673"><ele>511.0</ele><time>2026-04-13T09:19:56.717Z</time></trkpt><trkpt lat="40.749146" lon="9.4049156"><ele>511.0</ele><time>2026-04-13T09:19:57.712Z</time></trkpt><trkpt lat="40.7492373" lon="9.4048384"><ele>511.0</ele><time>2026-04-13T09:19:58.713Z</time></trkpt><trkpt lat="40.7493379" lon="9.4047306"><ele>511.0</ele><time>2026-04-13T09:19:59.706Z</time></trkpt><trkpt lat="40.7494289" lon="9.4046067"><ele>511.0</ele><time>2026-04-13T09:20:00.71Z</time></trkpt><trkpt lat="40.749512" lon="9.4045036"><ele>510.8</ele><time>2026-04-13T09:20:01.714Z</time></trkpt><trkpt lat="40.7495799" lon="9.4044151"><ele>510.6</ele><time>2026-04-13T09:20:02.696Z</time></trkpt><trkpt lat="40.7496319" lon="9.4043423"><ele>510.4</ele><time>2026-04-13T09:20:03.705Z</time></trkpt><trkpt lat="40.7496867" lon="9.4042421"><ele>510.2</ele><time>2026-04-13T09:20:04.7Z</time></trkpt><trkpt lat="40.7497517" lon="9.4041398"><ele>510.0</ele><time>2026-04-13T09:20:05.694Z</time></trkpt><trkpt lat="40.7498122" lon="9.4040573"><ele>510.0</ele><time>2026-04-13T09:20:06.703Z</time></trkpt><trkpt lat="40.7498687" lon="9.4039995"><ele>510.0</ele><time>2026-04-13T09:20:07.705Z</time></trkpt><trkpt lat="40.7499665" lon="9.4038939"><ele>510.0</ele><time>2026-04-13T09:20:09.71Z</time></trkpt><trkpt lat="40.7500342" lon="9.4038214"><ele>510.0</ele><time>2026-04-13T09:20:10.688Z</time></trkpt><trkpt lat="40.7501157" lon="9.4037434"><ele>510.0</ele><time>2026-04-13T09:20:11.697Z</time></trkpt><trkpt lat="40.7501918" lon="9.4036629"><ele>510.2</ele><time>2026-04-13T09:20:12.705Z</time></trkpt><trkpt lat="40.7502611" lon="9.4035744"><ele>510.4</ele><time>2026-04-13T09:20:13.693Z</time></trkpt><trkpt lat="40.7503232" lon="9.403481"><ele>510.6</ele><time>2026-04-13T09:20:14.703Z</time></trkpt><trkpt lat="40.7503846" lon="9.4033786"><ele>510.8</ele><time>2026-04-13T09:20:15.688Z</time></trkpt><trkpt lat="40.7504367" lon="9.4032662"><ele>511.0</ele><time>2026-04-13T09:20:16.692Z</time></trkpt><trkpt lat="40.750482" lon="9.4031583"><ele>511.00000000000006</ele><time>2026-04-13T09:20:17.688Z</time></trkpt><trkpt lat="40.750515" lon="9.4030631"><ele>511.0</ele><time>2026-04-13T09:20:18.683Z</time></trkpt><trkpt lat="40.7505427" lon="9.4029756"><ele>511.0</ele><time>2026-04-13T09:20:19.684Z</time></trkpt><trkpt lat="40.7505729" lon="9.4028879"><ele>511.0</ele><time>2026-04-13T09:20:20.677Z</time></trkpt><trkpt lat="40.7505987" lon="9.4028114"><ele>511.00000000000006</ele><time>2026-04-13T09:20:21.685Z</time></trkpt><trkpt lat="40.7506935" lon="9.4027106"><ele>511.0</ele><time>2026-04-13T09:20:23.794Z</time></trkpt><trkpt lat="40.7507585" lon="9.4026913"><ele>511.6</ele><time>2026-04-13T09:20:24.774Z</time></trkpt><trkpt lat="40.7508869" lon="9.4026688"><ele>512.2</ele><time>2026-04-13T09:20:26.778Z</time></trkpt><trkpt lat="40.750963" lon="9.4026638"><ele>512.8</ele><time>2026-04-13T09:20:27.768Z</time></trkpt><trkpt lat="40.7510447" lon="9.4026552"><ele>513.4</ele><time>2026-04-13T09:20:28.766Z</time></trkpt><trkpt lat="40.7511547" lon="9.4026327"><ele>514.0</ele><time>2026-04-13T09:20:29.775Z</time></trkpt><trkpt lat="40.7512668" lon="9.4025996"><ele>514.2</ele><time>2026-04-13T09:20:30.779Z</time></trkpt><trkpt lat="40.7513644" lon="9.4025617"><ele>514.4</ele><time>2026-04-13T09:20:31.83Z</time></trkpt><trkpt lat="40.7514428" lon="9.4025163"><ele>514.6</ele><time>2026-04-13T09:20:32.765Z</time></trkpt><trkpt lat="40.7515214" lon="9.4024493"><ele>514.8</ele><time>2026-04-13T09:20:33.774Z</time></trkpt><trkpt lat="40.751595" lon="9.4023693"><ele>515.0</ele><time>2026-04-13T09:20:34.776Z</time></trkpt><trkpt lat="40.7516568" lon="9.4023093"><ele>515.0</ele><time>2026-04-13T09:20:35.765Z</time></trkpt><trkpt lat="40.7517201" lon="9.4022752"><ele>515.0</ele><time>2026-04-13T09:20:36.763Z</time></trkpt><trkpt lat="40.7518366" lon="9.4022726"><ele>515.0</ele><time>2026-04-13T09:20:38.759Z</time></trkpt><trkpt lat="40.7518995" lon="9.4022774"><ele>515.0</ele><time>2026-04-13T09:20:39.769Z</time></trkpt><trkpt lat="40.7519692" lon="9.4022812"><ele>515.0</ele><time>2026-04-13T09:20:40.756Z</time></trkpt><trkpt lat="40.7520364" lon="9.4022897"><ele>515.0</ele><time>2026-04-13T09:20:41.771Z</time></trkpt><trkpt lat="40.7521131" lon="9.4023136"><ele>514.8333333333333</ele><time>2026-04-13T09:20:42.75Z</time></trkpt><trkpt lat="40.7521839" lon="9.4023336"><ele>514.6666666666666</ele><time>2026-04-13T09:20:43.757Z</time></trkpt><trkpt lat="40.752259" lon="9.4023545"><ele>514.5</ele><time>2026-04-13T09:20:44.749Z</time></trkpt><trkpt lat="40.7523341" lon="9.4023821"><ele>514.3333333333334</ele><time>2026-04-13T09:20:45.761Z</time></trkpt><trkpt lat="40.7524213" lon="9.4024167"><ele>514.1666666666667</ele><time>2026-04-13T09:20:46.748Z</time></trkpt><trkpt lat="40.7525057" lon="9.4024512"><ele>514.0</ele><time>2026-04-13T09:20:47.755Z</time></trkpt><trkpt lat="40.7525996" lon="9.4024748"><ele>514.0</ele><time>2026-04-13T09:20:48.748Z</time></trkpt><trkpt lat="40.7526696" lon="9.4024875"><ele>514.0</ele><time>2026-04-13T09:20:49.747Z</time></trkpt><trkpt lat="40.7527987" lon="9.402463"><ele>514.0</ele><time>2026-04-13T09:20:51.764Z</time></trkpt><trkpt lat="40.7528781" lon="9.4024539"><ele>514.0</ele><time>2026-04-13T09:20:52.746Z</time></trkpt><trkpt lat="40.7529724" lon="9.4024744"><ele>514.0</ele><time>2026-04-13T09:20:53.766Z</time></trkpt><trkpt lat="40.7530641" lon="9.4025041"><ele>514.6666666666667</ele><time>2026-04-13T09:20:54.742Z</time></trkpt><trkpt lat="40.7531405" lon="9.4025337"><ele>515.3333333333334</ele><time>2026-04-13T09:20:55.751Z</time></trkpt><trkpt lat="40.7532125" lon="9.4025625"><ele>516.0</ele><time>2026-04-13T09:20:56.748Z</time></trkpt><trkpt lat="40.7532896" lon="9.4025894"><ele>516.6666666666666</ele><time>2026-04-13T09:20:57.753Z</time></trkpt><trkpt lat="40.7533668" lon="9.4026168"><ele>517.3333333333333</ele><time>2026-04-13T09:20:58.749Z</time></trkpt><trkpt lat="40.7534492" lon="9.4026407"><ele>518.0</ele><time>2026-04-13T09:20:59.764Z</time></trkpt><trkpt lat="40.7535451" lon="9.4026627"><ele>518.6</ele><time>2026-04-13T09:21:00.758Z</time></trkpt><trkpt lat="40.753645" lon="9.4026841"><ele>519.1999999999999</ele><time>2026-04-13T09:21:01.758Z</time></trkpt><trkpt lat="40.7537512" lon="9.4027059"><ele>519.8</ele><time>2026-04-13T09:21:02.749Z</time></trkpt><trkpt lat="40.7538499" lon="9.4027203"><ele>520.4</ele><time>2026-04-13T09:21:03.746Z</time></trkpt><trkpt lat="40.7539514" lon="9.4027276"><ele>521.0</ele><time>2026-04-13T09:21:04.747Z</time></trkpt><trkpt lat="40.7540574" lon="9.402729"><ele>521.0</ele><time>2026-04-13T09:21:05.767Z</time></trkpt><trkpt lat="40.7541462" lon="9.4027072"><ele>521.0</ele><time>2026-04-13T09:21:06.766Z</time></trkpt><trkpt lat="40.7542108" lon="9.402658"><ele>521.0</ele><time>2026-04-13T09:21:07.745Z</time></trkpt><trkpt lat="40.7542909" lon="9.402556"><ele>521.0</ele><time>2026-04-13T09:21:09.739Z</time></trkpt><trkpt lat="40.7543334" lon="9.4024926"><ele>521.0</ele><time>2026-04-13T09:21:10.747Z</time></trkpt><trkpt lat="40.7543772" lon="9.4024193"><ele>521.0</ele><time>2026-04-13T09:21:11.744Z</time></trkpt><trkpt lat="40.7544264" lon="9.4023373"><ele>521.0</ele><time>2026-04-13T09:21:12.735Z</time></trkpt><trkpt lat="40.7544759" lon="9.4022504"><ele>521.0</ele><time>2026-04-13T09:21:13.743Z</time></trkpt><trkpt lat="40.7545217" lon="9.4021617"><ele>521.0</ele><time>2026-04-13T09:21:14.747Z</time></trkpt><trkpt lat="40.7545523" lon="9.402087"><ele>521.0</ele><time>2026-04-13T09:21:15.737Z</time></trkpt><trkpt lat="40.7545997" lon="9.4019597"><ele>521.0</ele><time>2026-04-13T09:21:17.747Z</time></trkpt><trkpt lat="40.7546477" lon="9.4018123"><ele>522.5</ele><time>2026-04-13T09:21:19.73Z</time></trkpt><trkpt lat="40.7546748" lon="9.4017337"><ele>524.0</ele><time>2026-04-13T09:21:20.737Z</time></trkpt><trkpt lat="40.7547043" lon="9.4015762"><ele>525.5</ele><time>2026-04-13T09:21:22.747Z</time></trkpt><trkpt lat="40.7547172" lon="9.4014876"><ele>527.0</ele><time>2026-04-13T09:21:23.73Z</time></trkpt><trkpt lat="40.7547371" lon="9.4013977"><ele>528.5</ele><time>2026-04-13T09:21:24.723Z</time></trkpt><trkpt lat="40.7547602" lon="9.4013067"><ele>530.0</ele><time>2026-04-13T09:21:25.775Z</time></trkpt><trkpt lat="40.7547832" lon="9.4012276"><ele>531.4285714285713</ele><time>2026-04-13T09:21:26.724Z</time></trkpt><trkpt lat="40.7548092" lon="9.4011492"><ele>532.8571428571429</ele><time>2026-04-13T09:21:27.711Z</time></trkpt><trkpt lat="40.7548406" lon="9.401065"><ele>534.2857142857142</ele><time>2026-04-13T09:21:28.722Z</time></trkpt><trkpt lat="40.7548742" lon="9.4009725"><ele>535.7142857142857</ele><time>2026-04-13T09:21:29.721Z</time></trkpt><trkpt lat="40.7549076" lon="9.400892"><ele>537.1428571428571</ele><time>2026-04-13T09:21:30.731Z</time></trkpt><trkpt lat="40.7549515" lon="9.4008098"><ele>538.5714285714286</ele><time>2026-04-13T09:21:31.727Z</time></trkpt><trkpt lat="40.7549964" lon="9.4007315"><ele>540.0</ele><time>2026-04-13T09:21:32.729Z</time></trkpt><trkpt lat="40.7550338" lon="9.4006634"><ele>540.0</ele><time>2026-04-13T09:21:33.718Z</time></trkpt><trkpt lat="40.7551152" lon="9.4005607"><ele>540.0</ele><time>2026-04-13T09:21:35.722Z</time></trkpt><trkpt lat="40.7552055" lon="9.4004632"><ele>540.0</ele><time>2026-04-13T09:21:37.713Z</time></trkpt><trkpt lat="40.7552687" lon="9.4003989"><ele>540.0</ele><time>2026-04-13T09:21:38.712Z</time></trkpt><trkpt lat="40.7553358" lon="9.4003227"><ele>540.0</ele><time>2026-04-13T09:21:39.706Z</time></trkpt><trkpt lat="40.7554008" lon="9.400246"><ele>539.1666666666666</ele><time>2026-04-13T09:21:40.732Z</time></trkpt><trkpt lat="40.7554548" lon="9.4001597"><ele>538.3333333333334</ele><time>2026-04-13T09:21:41.709Z</time></trkpt><trkpt lat="40.7555108" lon="9.4000586"><ele>537.5</ele><time>2026-04-13T09:21:42.717Z</time></trkpt><trkpt lat="40.7555558" lon="9.3999609"><ele>536.6666666666667</ele><time>2026-04-13T09:21:43.717Z</time></trkpt><trkpt lat="40.7556016" lon="9.3998611"><ele>535.8333333333334</ele><time>2026-04-13T09:21:44.729Z</time></trkpt><trkpt lat="40.7556456" lon="9.3997735"><ele>535.0</ele><time>2026-04-13T09:21:45.746Z</time></trkpt><trkpt lat="40.7556847" lon="9.3996837"><ele>535.0</ele><time>2026-04-13T09:21:46.718Z</time></trkpt><trkpt lat="40.7557174" lon="9.3995949"><ele>535.0</ele><time>2026-04-13T09:21:47.697Z</time></trkpt><trkpt lat="40.7557424" lon="9.3995098"><ele>535.0</ele><time>2026-04-13T09:21:48.709Z</time></trkpt><trkpt lat="40.7557516" lon="9.3994168"><ele>535.0</ele><time>2026-04-13T09:21:49.707Z</time></trkpt><trkpt lat="40.7557409" lon="9.3992996"><ele>535.0</ele><time>2026-04-13T09:21:50.7Z</time></trkpt><trkpt lat="40.7557181" lon="9.3991645"><ele>535.0</ele><time>2026-04-13T09:21:51.713Z</time></trkpt><trkpt lat="40.7556955" lon="9.3990058"><ele>535.0</ele><time>2026-04-13T09:21:52.693Z</time></trkpt><trkpt lat="40.7556771" lon="9.398856"><ele>535.0</ele><time>2026-04-13T09:21:53.687Z</time></trkpt><trkpt lat="40.755655" lon="9.3987195"><ele>535.0</ele><time>2026-04-13T09:21:54.691Z</time></trkpt><trkpt lat="40.7556279" lon="9.3985866"><ele>535.0</ele><time>2026-04-13T09:21:55.695Z</time></trkpt><trkpt lat="40.7556074" lon="9.3984638"><ele>535.0</ele><time>2026-04-13T09:21:56.687Z</time></trkpt><trkpt lat="40.7555941" lon="9.3983565"><ele>535.1666666666667</ele><time>2026-04-13T09:21:57.686Z</time></trkpt><trkpt lat="40.7555899" lon="9.3982533"><ele>535.3333333333334</ele><time>2026-04-13T09:21:58.684Z</time></trkpt><trkpt lat="40.7556063" lon="9.3981565"><ele>535.5</ele><time>2026-04-13T09:21:59.688Z</time></trkpt><trkpt lat="40.7556145" lon="9.398056"><ele>535.6666666666666</ele><time>2026-04-13T09:22:00.683Z</time></trkpt><trkpt lat="40.755594" lon="9.3979567"><ele>535.8333333333333</ele><time>2026-04-13T09:22:01.694Z</time></trkpt><trkpt lat="40.755556" lon="9.3978659"><ele>536.0</ele><time>2026-04-13T09:22:02.677Z</time></trkpt><trkpt lat="40.7555102" lon="9.3977656"><ele>536.8</ele><time>2026-04-13T09:22:03.7Z</time></trkpt><trkpt lat="40.7554601" lon="9.39765"><ele>537.6</ele><time>2026-04-13T09:22:04.686Z</time></trkpt><trkpt lat="40.7553962" lon="9.3975323"><ele>538.4</ele><time>2026-04-13T09:22:05.694Z</time></trkpt><trkpt lat="40.7553307" lon="9.397423"><ele>539.2</ele><time>2026-04-13T09:22:06.675Z</time></trkpt><trkpt lat="40.7552746" lon="9.3973261"><ele>540.0</ele><time>2026-04-13T09:22:07.684Z</time></trkpt><trkpt lat="40.7552167" lon="9.3972486"><ele>538.6666666666666</ele><time>2026-04-13T09:22:08.681Z</time></trkpt><trkpt lat="40.7551441" lon="9.3971767"><ele>537.3333333333334</ele><time>2026-04-13T09:22:09.673Z</time></trkpt><trkpt lat="40.7550796" lon="9.3970908"><ele>536.0</ele><time>2026-04-13T09:22:10.681Z</time></trkpt><trkpt lat="40.7550314" lon="9.3969968"><ele>534.6666666666667</ele><time>2026-04-13T09:22:11.672Z</time></trkpt><trkpt lat="40.7549873" lon="9.3969019"><ele>533.3333333333334</ele><time>2026-04-13T09:22:12.675Z</time></trkpt><trkpt lat="40.7549474" lon="9.3968066"><ele>532.0</ele><time>2026-04-13T09:22:13.776Z</time></trkpt><trkpt lat="40.7549051" lon="9.3967249"><ele>531.8000000000001</ele><time>2026-04-13T09:22:14.798Z</time></trkpt><trkpt lat="40.7548524" lon="9.3966499"><ele>531.6</ele><time>2026-04-13T09:22:15.776Z</time></trkpt><trkpt lat="40.7547921" lon="9.3965762"><ele>531.4000000000001</ele><time>2026-04-13T09:22:16.792Z</time></trkpt><trkpt lat="40.754645" lon="9.3964354"><ele>531.2</ele><time>2026-04-13T09:22:18.788Z</time></trkpt><trkpt lat="40.7545786" lon="9.3963637"><ele>531.0</ele><time>2026-04-13T09:22:19.771Z</time></trkpt><trkpt lat="40.7545249" lon="9.3962912"><ele>530.1666666666666</ele><time>2026-04-13T09:22:20.784Z</time></trkpt><trkpt lat="40.7544804" lon="9.3962217"><ele>529.3333333333334</ele><time>2026-04-13T09:22:21.776Z</time></trkpt><trkpt lat="40.7544311" lon="9.39616"><ele>528.5</ele><time>2026-04-13T09:22:22.77Z</time></trkpt><trkpt lat="40.7543824" lon="9.3961064"><ele>527.6666666666667</ele><time>2026-04-13T09:22:23.786Z</time></trkpt><trkpt lat="40.754294" lon="9.3960189"><ele>526.8333333333334</ele><time>2026-04-13T09:22:25.8Z</time></trkpt><trkpt lat="40.7542085" lon="9.3959253"><ele>526.0</ele><time>2026-04-13T09:22:27.769Z</time></trkpt><trkpt lat="40.7541558" lon="9.3958641"><ele>526.0</ele><time>2026-04-13T09:22:28.776Z</time></trkpt><trkpt lat="40.7541035" lon="9.3957948"><ele>526.0</ele><time>2026-04-13T09:22:29.78Z</time></trkpt><trkpt lat="40.7540539" lon="9.3957105"><ele>526.0</ele><time>2026-04-13T09:22:30.768Z</time></trkpt><trkpt lat="40.7540086" lon="9.3956105"><ele>526.0</ele><time>2026-04-13T09:22:31.77Z</time></trkpt><trkpt lat="40.7539701" lon="9.395504"><ele>526.0</ele><time>2026-04-13T09:22:32.764Z</time></trkpt><trkpt lat="40.7539377" lon="9.3953978"><ele>526.0</ele><time>2026-04-13T09:22:33.776Z</time></trkpt><trkpt lat="40.753903" lon="9.39531"><ele>526.5</ele><time>2026-04-13T09:22:34.765Z</time></trkpt><trkpt lat="40.7538723" lon="9.3952281"><ele>527.0</ele><time>2026-04-13T09:22:35.763Z</time></trkpt><trkpt lat="40.7538408" lon="9.3951522"><ele>527.5</ele><time>2026-04-13T09:22:36.766Z</time></trkpt><trkpt lat="40.7538025" lon="9.3950794"><ele>528.0</ele><time>2026-04-13T09:22:37.762Z</time></trkpt><trkpt lat="40.7537603" lon="9.3950109"><ele>528.5</ele><time>2026-04-13T09:22:38.773Z</time></trkpt><trkpt lat="40.7537162" lon="9.3949511"><ele>529.0</ele><time>2026-04-13T09:22:39.784Z</time></trkpt><trkpt lat="40.7536082" lon="9.3948791"><ele>528.1666666666667</ele><time>2026-04-13T09:22:41.809Z</time></trkpt><trkpt lat="40.7535196" lon="9.3948037"><ele>527.3333333333334</ele><time>2026-04-13T09:22:43.761Z</time></trkpt><trkpt lat="40.7534723" lon="9.3947475"><ele>526.5</ele><time>2026-04-13T09:22:44.771Z</time></trkpt><trkpt lat="40.7534289" lon="9.394681"><ele>525.6666666666666</ele><time>2026-04-13T09:22:45.76Z</time></trkpt><trkpt lat="40.7533684" lon="9.3946069"><ele>524.8333333333333</ele><time>2026-04-13T09:22:46.754Z</time></trkpt><trkpt lat="40.7532956" lon="9.3945258"><ele>524.0</ele><time>2026-04-13T09:22:47.774Z</time></trkpt><trkpt lat="40.7532181" lon="9.3944496"><ele>524.0</ele><time>2026-04-13T09:22:48.765Z</time></trkpt><trkpt lat="40.753148" lon="9.3943901"><ele>524.0</ele><time>2026-04-13T09:22:49.788Z</time></trkpt><trkpt lat="40.753073" lon="9.3943331"><ele>524.0</ele><time>2026-04-13T09:22:50.772Z</time></trkpt><trkpt lat="40.7530034" lon="9.3942747"><ele>524.0</ele><time>2026-04-13T09:22:51.757Z</time></trkpt><trkpt lat="40.7529372" lon="9.3942057"><ele>524.0</ele><time>2026-04-13T09:22:52.751Z</time></trkpt><trkpt lat="40.7528657" lon="9.3941076"><ele>524.0</ele><time>2026-04-13T09:22:53.754Z</time></trkpt><trkpt lat="40.7527889" lon="9.394013"><ele>524.0</ele><time>2026-04-13T09:22:54.749Z</time></trkpt><trkpt lat="40.7527219" lon="9.3939208"><ele>524.0</ele><time>2026-04-13T09:22:55.762Z</time></trkpt><trkpt lat="40.7526679" lon="9.3938359"><ele>524.0</ele><time>2026-04-13T09:22:56.764Z</time></trkpt><trkpt lat="40.7526167" lon="9.3937488"><ele>524.0</ele><time>2026-04-13T09:22:57.766Z</time></trkpt><trkpt lat="40.7525589" lon="9.3936501"><ele>524.0</ele><time>2026-04-13T09:22:58.754Z</time></trkpt><trkpt lat="40.7525098" lon="9.3935417"><ele>522.4</ele><time>2026-04-13T09:22:59.76Z</time></trkpt><trkpt lat="40.7524615" lon="9.3934293"><ele>520.8</ele><time>2026-04-13T09:23:00.748Z</time></trkpt><trkpt lat="40.7524146" lon="9.3933232"><ele>519.2</ele><time>2026-04-13T09:23:01.754Z</time></trkpt><trkpt lat="40.7523595" lon="9.3932146"><ele>517.6</ele><time>2026-04-13T09:23:02.754Z</time></trkpt><trkpt lat="40.7523071" lon="9.3931004"><ele>516.0</ele><time>2026-04-13T09:23:03.76Z</time></trkpt><trkpt lat="40.7522577" lon="9.3929825"><ele>516.0</ele><time>2026-04-13T09:23:04.744Z</time></trkpt><trkpt lat="40.7522166" lon="9.3928704"><ele>516.0</ele><time>2026-04-13T09:23:05.744Z</time></trkpt><trkpt lat="40.7521829" lon="9.3927702"><ele>516.0</ele><time>2026-04-13T09:23:06.738Z</time></trkpt><trkpt lat="40.7521545" lon="9.3926703"><ele>516.0</ele><time>2026-04-13T09:23:07.741Z</time></trkpt><trkpt lat="40.7521156" lon="9.3925809"><ele>516.0</ele><time>2026-04-13T09:23:08.733Z</time></trkpt><trkpt lat="40.7520627" lon="9.3924952"><ele>516.0</ele><time>2026-04-13T09:23:09.739Z</time></trkpt><trkpt lat="40.7520035" lon="9.3924061"><ele>516.0</ele><time>2026-04-13T09:23:10.736Z</time></trkpt><trkpt lat="40.7519364" lon="9.3923209"><ele>516.0</ele><time>2026-04-13T09:23:11.796Z</time></trkpt><trkpt lat="40.7518598" lon="9.3922279"><ele>516.0</ele><time>2026-04-13T09:23:12.751Z</time></trkpt><trkpt lat="40.7517767" lon="9.392118"><ele>516.0</ele><time>2026-04-13T09:23:13.751Z</time></trkpt><trkpt lat="40.7516923" lon="9.3919929"><ele>516.0</ele><time>2026-04-13T09:23:14.743Z</time></trkpt><trkpt lat="40.751613" lon="9.391873"><ele>515.0</ele><time>2026-04-13T09:23:15.75Z</time></trkpt><trkpt lat="40.7515422" lon="9.3917643"><ele>514.0</ele><time>2026-04-13T09:23:16.733Z</time></trkpt><trkpt lat="40.7514628" lon="9.3916597"><ele>513.0</ele><time>2026-04-13T09:23:17.753Z</time></trkpt><trkpt lat="40.7513914" lon="9.3915514"><ele>512.0</ele><time>2026-04-13T09:23:18.756Z</time></trkpt><trkpt lat="40.7513322" lon="9.3914515"><ele>511.0</ele><time>2026-04-13T09:23:19.751Z</time></trkpt><trkpt lat="40.751259" lon="9.3913657"><ele>511.4</ele><time>2026-04-13T09:23:20.743Z</time></trkpt><trkpt lat="40.7511806" lon="9.3912774"><ele>511.8</ele><time>2026-04-13T09:23:21.753Z</time></trkpt><trkpt lat="40.7511015" lon="9.3911849"><ele>512.1999999999999</ele><time>2026-04-13T09:23:22.737Z</time></trkpt><trkpt lat="40.7510178" lon="9.3910813"><ele>512.6</ele><time>2026-04-13T09:23:23.75Z</time></trkpt><trkpt lat="40.7509351" lon="9.3909764"><ele>513.0</ele><time>2026-04-13T09:23:24.755Z</time></trkpt><trkpt lat="40.7508681" lon="9.3908781"><ele>513.0</ele><time>2026-04-13T09:23:25.739Z</time></trkpt><trkpt lat="40.7508098" lon="9.3907799"><ele>513.0</ele><time>2026-04-13T09:23:26.796Z</time></trkpt><trkpt lat="40.7507506" lon="9.3906801"><ele>513.0</ele><time>2026-04-13T09:23:27.75Z</time></trkpt><trkpt lat="40.7506861" lon="9.3905848"><ele>513.0</ele><time>2026-04-13T09:23:28.729Z</time></trkpt><trkpt lat="40.7506118" lon="9.3905028"><ele>513.0</ele><time>2026-04-13T09:23:29.742Z</time></trkpt><trkpt lat="40.7505179" lon="9.3904304"><ele>513.5</ele><time>2026-04-13T09:23:30.728Z</time></trkpt><trkpt lat="40.7504055" lon="9.390366"><ele>514.0</ele><time>2026-04-13T09:23:31.723Z</time></trkpt><trkpt lat="40.7502784" lon="9.390314"><ele>514.5</ele><time>2026-04-13T09:23:32.737Z</time></trkpt><trkpt lat="40.7501743" lon="9.390255"><ele>515.0</ele><time>2026-04-13T09:23:33.722Z</time></trkpt><trkpt lat="40.750092" lon="9.3902008"><ele>513.8333333333333</ele><time>2026-04-13T09:23:34.719Z</time></trkpt><trkpt lat="40.7500245" lon="9.390132"><ele>512.6666666666666</ele><time>2026-04-13T09:23:35.724Z</time></trkpt><trkpt lat="40.7499543" lon="9.3900484"><ele>511.5</ele><time>2026-04-13T09:23:36.73Z</time></trkpt><trkpt lat="40.749892" lon="9.3899672"><ele>510.33333333333337</ele><time>2026-04-13T09:23:37.719Z</time></trkpt><trkpt lat="40.7498283" lon="9.3898953"><ele>509.1666666666667</ele><time>2026-04-13T09:23:38.715Z</time></trkpt><trkpt lat="40.7497586" lon="9.3898279"><ele>508.0</ele><time>2026-04-13T09:23:39.716Z</time></trkpt><trkpt lat="40.7496769" lon="9.3897475"><ele>508.0</ele><time>2026-04-13T09:23:40.716Z</time></trkpt><trkpt lat="40.7495755" lon="9.3896611"><ele>507.99999999999994</ele><time>2026-04-13T09:23:41.723Z</time></trkpt><trkpt lat="40.7494756" lon="9.3895843"><ele>507.99999999999994</ele><time>2026-04-13T09:23:42.714Z</time></trkpt><trkpt lat="40.7493885" lon="9.389528"><ele>508.0</ele><time>2026-04-13T09:23:43.706Z</time></trkpt><trkpt lat="40.7492905" lon="9.3894827"><ele>508.0</ele><time>2026-04-13T09:23:44.702Z</time></trkpt><trkpt lat="40.7491857" lon="9.3894643"><ele>508.00000000000006</ele><time>2026-04-13T09:23:45.724Z</time></trkpt><trkpt lat="40.749092" lon="9.3894692"><ele>508.0</ele><time>2026-04-13T09:23:46.708Z</time></trkpt><trkpt lat="40.749014" lon="9.3894975"><ele>508.0</ele><time>2026-04-13T09:23:47.694Z</time></trkpt><trkpt lat="40.7489364" lon="9.3895262"><ele>508.0</ele><time>2026-04-13T09:23:48.712Z</time></trkpt><trkpt lat="40.7488559" lon="9.3895441"><ele>508.00000000000006</ele><time>2026-04-13T09:23:49.703Z</time></trkpt><trkpt lat="40.7487703" lon="9.3895686"><ele>508.0</ele><time>2026-04-13T09:23:50.698Z</time></trkpt><trkpt lat="40.748676" lon="9.3895767"><ele>508.0</ele><time>2026-04-13T09:23:51.693Z</time></trkpt><trkpt lat="40.7485992" lon="9.3895802"><ele>507.99999999999994</ele><time>2026-04-13T09:23:52.697Z</time></trkpt><trkpt lat="40.7485205" lon="9.3895482"><ele>507.99999999999994</ele><time>2026-04-13T09:23:53.7Z</time></trkpt><trkpt lat="40.7484361" lon="9.3894831"><ele>508.0</ele><time>2026-04-13T09:23:54.692Z</time></trkpt><trkpt lat="40.7483519" lon="9.3893813"><ele>508.0</ele><time>2026-04-13T09:23:55.695Z</time></trkpt><trkpt lat="40.7482787" lon="9.3892776"><ele>506.4</ele><time>2026-04-13T09:23:56.697Z</time></trkpt><trkpt lat="40.7482069" lon="9.389184"><ele>504.79999999999995</ele><time>2026-04-13T09:23:57.695Z</time></trkpt><trkpt lat="40.748142" lon="9.3890885"><ele>503.2</ele><time>2026-04-13T09:23:58.694Z</time></trkpt><trkpt lat="40.7480715" lon="9.3890044"><ele>501.6</ele><time>2026-04-13T09:23:59.686Z</time></trkpt><trkpt lat="40.7479888" lon="9.3889152"><ele>500.0</ele><time>2026-04-13T09:24:00.685Z</time></trkpt><trkpt lat="40.7479184" lon="9.3888289"><ele>499.49999999999994</ele><time>2026-04-13T09:24:01.717Z</time></trkpt><trkpt lat="40.7478556" lon="9.3887484"><ele>499.0</ele><time>2026-04-13T09:24:02.702Z</time></trkpt><trkpt lat="40.7478061" lon="9.3886795"><ele>498.5</ele><time>2026-04-13T09:24:03.685Z</time></trkpt><trkpt lat="40.7477687" lon="9.3886044"><ele>498.0</ele><time>2026-04-13T09:24:04.693Z</time></trkpt><trkpt lat="40.747738" lon="9.3885087"><ele>497.49999999999994</ele><time>2026-04-13T09:24:05.696Z</time></trkpt><trkpt lat="40.7477195" lon="9.3884122"><ele>497.0</ele><time>2026-04-13T09:24:06.691Z</time></trkpt><trkpt lat="40.7477133" lon="9.3883155"><ele>496.99999999999994</ele><time>2026-04-13T09:24:07.7Z</time></trkpt><trkpt lat="40.7477073" lon="9.3882217"><ele>497.0</ele><time>2026-04-13T09:24:08.69Z</time></trkpt><trkpt lat="40.7476905" lon="9.3881279"><ele>497.0</ele><time>2026-04-13T09:24:09.687Z</time></trkpt><trkpt lat="40.7476766" lon="9.3880127"><ele>497.0</ele><time>2026-04-13T09:24:10.698Z</time></trkpt><trkpt lat="40.7476668" lon="9.387902"><ele>496.99999999999994</ele><time>2026-04-13T09:24:11.688Z</time></trkpt><trkpt lat="40.7476693" lon="9.3877865"><ele>497.0</ele><time>2026-04-13T09:24:12.696Z</time></trkpt><trkpt lat="40.7476884" lon="9.3876595"><ele>496.40000000000003</ele><time>2026-04-13T09:24:13.68Z</time></trkpt><trkpt lat="40.7477192" lon="9.3875305"><ele>495.80000000000007</ele><time>2026-04-13T09:24:14.681Z</time></trkpt><trkpt lat="40.7477466" lon="9.3874066"><ele>495.2</ele><time>2026-04-13T09:24:15.687Z</time></trkpt><trkpt lat="40.7477648" lon="9.3872701"><ele>494.6</ele><time>2026-04-13T09:24:16.68Z</time></trkpt><trkpt lat="40.7477807" lon="9.3871317"><ele>494.0</ele><time>2026-04-13T09:24:17.69Z</time></trkpt><trkpt lat="40.747793" lon="9.387004"><ele>494.0</ele><time>2026-04-13T09:24:18.691Z</time></trkpt><trkpt lat="40.7478026" lon="9.3868685"><ele>494.0</ele><time>2026-04-13T09:24:19.679Z</time></trkpt><trkpt lat="40.747808" lon="9.3867354"><ele>494.0</ele><time>2026-04-13T09:24:20.689Z</time></trkpt><trkpt lat="40.7478062" lon="9.3866137"><ele>494.0</ele><time>2026-04-13T09:24:21.681Z</time></trkpt><trkpt lat="40.7478" lon="9.3865026"><ele>494.0</ele><time>2026-04-13T09:24:22.674Z</time></trkpt><trkpt lat="40.7477893" lon="9.3864021"><ele>493.66666666666663</ele><time>2026-04-13T09:24:23.678Z</time></trkpt><trkpt lat="40.7477757" lon="9.3863118"><ele>493.3333333333333</ele><time>2026-04-13T09:24:24.685Z</time></trkpt><trkpt lat="40.7477634" lon="9.3862211"><ele>493.0</ele><time>2026-04-13T09:24:25.68Z</time></trkpt><trkpt lat="40.7477599" lon="9.3861311"><ele>492.66666666666663</ele><time>2026-04-13T09:24:26.784Z</time></trkpt><trkpt lat="40.7477534" lon="9.3860344"><ele>492.3333333333333</ele><time>2026-04-13T09:24:27.769Z</time></trkpt><trkpt lat="40.7477337" lon="9.3859199"><ele>492.0</ele><time>2026-04-13T09:24:28.767Z</time></trkpt><trkpt lat="40.7476657" lon="9.3856762"><ele>491.6666666666667</ele><time>2026-04-13T09:24:30.671Z</time></trkpt><trkpt lat="40.7476239" lon="9.3855722"><ele>491.33333333333337</ele><time>2026-04-13T09:24:31.668Z</time></trkpt><trkpt lat="40.7475876" lon="9.385472"><ele>491.0</ele><time>2026-04-13T09:24:32.773Z</time></trkpt><trkpt lat="40.7475558" lon="9.3853779"><ele>490.6666666666667</ele><time>2026-04-13T09:24:33.772Z</time></trkpt><trkpt lat="40.7475201" lon="9.3852854"><ele>490.33333333333337</ele><time>2026-04-13T09:24:34.772Z</time></trkpt><trkpt lat="40.7474799" lon="9.3851976"><ele>490.0</ele><time>2026-04-13T09:24:35.768Z</time></trkpt><trkpt lat="40.7474385" lon="9.3851238"><ele>489.00000000000006</ele><time>2026-04-13T09:24:36.777Z</time></trkpt><trkpt lat="40.7473854" lon="9.3850654"><ele>488.0</ele><time>2026-04-13T09:24:37.776Z</time></trkpt><trkpt lat="40.7473235" lon="9.3850086"><ele>487.0</ele><time>2026-04-13T09:24:38.771Z</time></trkpt><trkpt lat="40.747267" lon="9.3849397"><ele>486.0</ele><time>2026-04-13T09:24:39.77Z</time></trkpt><trkpt lat="40.7472192" lon="9.3848688"><ele>485.00000000000006</ele><time>2026-04-13T09:24:40.767Z</time></trkpt><trkpt lat="40.7471725" lon="9.3847375"><ele>484.0</ele><time>2026-04-13T09:24:42.774Z</time></trkpt><trkpt lat="40.7471449" lon="9.3846315"><ele>483.0</ele><time>2026-04-13T09:24:44.769Z</time></trkpt><trkpt lat="40.747104" lon="9.3845092"><ele>482.0</ele><time>2026-04-13T09:24:46.779Z</time></trkpt><trkpt lat="40.7470705" lon="9.3843511"><ele>481.0</ele><time>2026-04-13T09:24:48.826Z</time></trkpt><trkpt lat="40.7470541" lon="9.3841994"><ele>480.0</ele><time>2026-04-13T09:24:50.787Z</time></trkpt><trkpt lat="40.7470352" lon="9.3840403"><ele>480.0</ele><time>2026-04-13T09:24:52.768Z</time></trkpt><trkpt lat="40.7470164" lon="9.3839371"><ele>480.0</ele><time>2026-04-13T09:24:53.768Z</time></trkpt><trkpt lat="40.7469888" lon="9.383814"><ele>480.0</ele><time>2026-04-13T09:24:54.76Z</time></trkpt><trkpt lat="40.7469645" lon="9.3836907"><ele>480.0</ele><time>2026-04-13T09:24:55.764Z</time></trkpt><trkpt lat="40.7469386" lon="9.3835673"><ele>480.0</ele><time>2026-04-13T09:24:56.774Z</time></trkpt><trkpt lat="40.7469083" lon="9.3834472"><ele>480.0</ele><time>2026-04-13T09:24:57.75Z</time></trkpt><trkpt lat="40.7468728" lon="9.3833328"><ele>480.0</ele><time>2026-04-13T09:24:58.791Z</time></trkpt><trkpt lat="40.7468385" lon="9.3832319"><ele>480.0</ele><time>2026-04-13T09:24:59.77Z</time></trkpt><trkpt lat="40.7468115" lon="9.3831302"><ele>480.0</ele><time>2026-04-13T09:25:00.757Z</time></trkpt><trkpt lat="40.746782" lon="9.3830284"><ele>480.0</ele><time>2026-04-13T09:25:01.765Z</time></trkpt><trkpt lat="40.7467469" lon="9.3829407"><ele>480.0</ele><time>2026-04-13T09:25:02.746Z</time></trkpt><trkpt lat="40.7467065" lon="9.3828673"><ele>480.8333333333333</ele><time>2026-04-13T09:25:03.804Z</time></trkpt><trkpt lat="40.7466532" lon="9.3827964"><ele>481.66666666666663</ele><time>2026-04-13T09:25:04.739Z</time></trkpt><trkpt lat="40.7465982" lon="9.3827225"><ele>482.5</ele><time>2026-04-13T09:25:05.742Z</time></trkpt><trkpt lat="40.7465421" lon="9.3826463"><ele>483.3333333333333</ele><time>2026-04-13T09:25:06.74Z</time></trkpt><trkpt lat="40.7464807" lon="9.3825653"><ele>484.16666666666663</ele><time>2026-04-13T09:25:07.748Z</time></trkpt><trkpt lat="40.7464123" lon="9.3824756"><ele>485.0</ele><time>2026-04-13T09:25:08.731Z</time></trkpt><trkpt lat="40.7463423" lon="9.3823878"><ele>485.0</ele><time>2026-04-13T09:25:09.741Z</time></trkpt><trkpt lat="40.7462711" lon="9.3823013"><ele>485.0</ele><time>2026-04-13T09:25:10.744Z</time></trkpt><trkpt lat="40.7462021" lon="9.3822116"><ele>485.0</ele><time>2026-04-13T09:25:11.756Z</time></trkpt><trkpt lat="40.7461374" lon="9.3821231"><ele>485.0</ele><time>2026-04-13T09:25:12.733Z</time></trkpt><trkpt lat="40.7460734" lon="9.3820383"><ele>485.0</ele><time>2026-04-13T09:25:13.743Z</time></trkpt><trkpt lat="40.7460064" lon="9.3819545"><ele>486.99999999999994</ele><time>2026-04-13T09:25:14.731Z</time></trkpt><trkpt lat="40.7459443" lon="9.3818763"><ele>489.0</ele><time>2026-04-13T09:25:15.723Z</time></trkpt><trkpt lat="40.7458852" lon="9.3817977"><ele>491.0</ele><time>2026-04-13T09:25:16.73Z</time></trkpt><trkpt lat="40.7458177" lon="9.3817305"><ele>493.0</ele><time>2026-04-13T09:25:17.735Z</time></trkpt><trkpt lat="40.745748" lon="9.3816675"><ele>494.99999999999994</ele><time>2026-04-13T09:25:18.735Z</time></trkpt><trkpt lat="40.7456784" lon="9.3816083"><ele>497.0</ele><time>2026-04-13T09:25:19.724Z</time></trkpt><trkpt lat="40.7456117" lon="9.3815736"><ele>497.0</ele><time>2026-04-13T09:25:20.724Z</time></trkpt><trkpt lat="40.745475" lon="9.3815857"><ele>497.00000000000006</ele><time>2026-04-13T09:25:22.717Z</time></trkpt><trkpt lat="40.7453939" lon="9.3816351"><ele>497.00000000000006</ele><time>2026-04-13T09:25:23.708Z</time></trkpt><trkpt lat="40.7453022" lon="9.3817113"><ele>497.0</ele><time>2026-04-13T09:25:24.71Z</time></trkpt><trkpt lat="40.7452185" lon="9.3817949"><ele>497.0</ele><time>2026-04-13T09:25:25.717Z</time></trkpt><trkpt lat="40.7451489" lon="9.381877"><ele>498.66666666666663</ele><time>2026-04-13T09:25:26.723Z</time></trkpt><trkpt lat="40.7451022" lon="9.3819563"><ele>500.3333333333333</ele><time>2026-04-13T09:25:27.713Z</time></trkpt><trkpt lat="40.7450171" lon="9.3820286"><ele>502.0</ele><time>2026-04-13T09:25:29.731Z</time></trkpt><trkpt lat="40.7449549" lon="9.3819876"><ele>503.66666666666663</ele><time>2026-04-13T09:25:31.718Z</time></trkpt><trkpt lat="40.7449484" lon="9.3818412"><ele>505.3333333333333</ele><time>2026-04-13T09:25:33.72Z</time></trkpt><trkpt lat="40.7449782" lon="9.3817464"><ele>507.0</ele><time>2026-04-13T09:25:34.724Z</time></trkpt><trkpt lat="40.7450173" lon="9.3816325"><ele>507.0</ele><time>2026-04-13T09:25:35.718Z</time></trkpt><trkpt lat="40.7450676" lon="9.3815113"><ele>507.00000000000006</ele><time>2026-04-13T09:25:36.711Z</time></trkpt><trkpt lat="40.7451066" lon="9.3813887"><ele>507.00000000000006</ele><time>2026-04-13T09:25:37.724Z</time></trkpt><trkpt lat="40.7451291" lon="9.3812658"><ele>507.0</ele><time>2026-04-13T09:25:38.717Z</time></trkpt><trkpt lat="40.7451335" lon="9.3811434"><ele>507.0</ele><time>2026-04-13T09:25:39.72Z</time></trkpt><trkpt lat="40.7451185" lon="9.3810104"><ele>508.40000000000003</ele><time>2026-04-13T09:25:40.708Z</time></trkpt><trkpt lat="40.7450946" lon="9.3808735"><ele>509.80000000000007</ele><time>2026-04-13T09:25:41.702Z</time></trkpt><trkpt lat="40.7450564" lon="9.3807511"><ele>511.2</ele><time>2026-04-13T09:25:42.707Z</time></trkpt><trkpt lat="40.7450102" lon="9.3806483"><ele>512.6</ele><time>2026-04-13T09:25:43.722Z</time></trkpt><trkpt lat="40.7449731" lon="9.3805462"><ele>514.0</ele><time>2026-04-13T09:25:44.701Z</time></trkpt><trkpt lat="40.7449556" lon="9.3804526"><ele>514.0</ele><time>2026-04-13T09:25:45.697Z</time></trkpt><trkpt lat="40.7449502" lon="9.3803603"><ele>514.0</ele><time>2026-04-13T09:25:46.719Z</time></trkpt><trkpt lat="40.7449593" lon="9.3802727"><ele>514.0</ele><time>2026-04-13T09:25:47.713Z</time></trkpt><trkpt lat="40.7449747" lon="9.3801726"><ele>514.0</ele><time>2026-04-13T09:25:48.711Z</time></trkpt><trkpt lat="40.7449986" lon="9.3800656"><ele>514.0</ele><time>2026-04-13T09:25:49.741Z</time></trkpt><trkpt lat="40.7450207" lon="9.3799587"><ele>514.0</ele><time>2026-04-13T09:25:50.704Z</time></trkpt><trkpt lat="40.7450452" lon="9.379837"><ele>514.0</ele><time>2026-04-13T09:25:51.716Z</time></trkpt><trkpt lat="40.7450608" lon="9.3797131"><ele>514.0</ele><time>2026-04-13T09:25:52.704Z</time></trkpt><trkpt lat="40.7450769" lon="9.3795786"><ele>514.0</ele><time>2026-04-13T09:25:53.701Z</time></trkpt><trkpt lat="40.7450913" lon="9.3794482"><ele>514.0</ele><time>2026-04-13T09:25:54.707Z</time></trkpt><trkpt lat="40.7451051" lon="9.3793267"><ele>514.0</ele><time>2026-04-13T09:25:55.709Z</time></trkpt><trkpt lat="40.7451177" lon="9.3792098"><ele>514.3333333333334</ele><time>2026-04-13T09:25:56.706Z</time></trkpt><trkpt lat="40.7451277" lon="9.3790921"><ele>514.6666666666667</ele><time>2026-04-13T09:25:57.714Z</time></trkpt><trkpt lat="40.7451353" lon="9.3789842"><ele>515.0</ele><time>2026-04-13T09:25:58.695Z</time></trkpt><trkpt lat="40.7451461" lon="9.3788855"><ele>515.3333333333334</ele><time>2026-04-13T09:25:59.697Z</time></trkpt><trkpt lat="40.7451615" lon="9.3788032"><ele>515.6666666666666</ele><time>2026-04-13T09:26:00.702Z</time></trkpt><trkpt lat="40.7451452" lon="9.3786486"><ele>516.0</ele><time>2026-04-13T09:26:02.689Z</time></trkpt><trkpt lat="40.7451081" lon="9.3785627"><ele>515.9999999999999</ele><time>2026-04-13T09:26:03.697Z</time></trkpt><trkpt lat="40.7450563" lon="9.378502"><ele>516.0</ele><time>2026-04-13T09:26:04.711Z</time></trkpt><trkpt lat="40.7449951" lon="9.3784514"><ele>516.0</ele><time>2026-04-13T09:26:05.704Z</time></trkpt><trkpt lat="40.7449398" lon="9.3783875"><ele>516.0</ele><time>2026-04-13T09:26:06.69Z</time></trkpt><trkpt lat="40.7448924" lon="9.3783168"><ele>516.0</ele><time>2026-04-13T09:26:07.687Z</time></trkpt><trkpt lat="40.7448538" lon="9.3782452"><ele>515.9999999999999</ele><time>2026-04-13T09:26:08.695Z</time></trkpt><trkpt lat="40.7448206" lon="9.3781679"><ele>516.0</ele><time>2026-04-13T09:26:09.684Z</time></trkpt><trkpt lat="40.7448026" lon="9.3780821"><ele>517.3333333333334</ele><time>2026-04-13T09:26:10.679Z</time></trkpt><trkpt lat="40.744789" lon="9.3779839"><ele>518.6666666666666</ele><time>2026-04-13T09:26:11.68Z</time></trkpt><trkpt lat="40.7447753" lon="9.3778775"><ele>520.0</ele><time>2026-04-13T09:26:12.685Z</time></trkpt><trkpt lat="40.7447642" lon="9.3777661"><ele>521.3333333333333</ele><time>2026-04-13T09:26:13.676Z</time></trkpt><trkpt lat="40.7447551" lon="9.3776446"><ele>522.6666666666666</ele><time>2026-04-13T09:26:14.674Z</time></trkpt><trkpt lat="40.7447362" lon="9.3775259"><ele>524.0</ele><time>2026-04-13T09:26:15.684Z</time></trkpt><trkpt lat="40.7447216" lon="9.3774201"><ele>524.0</ele><time>2026-04-13T09:26:16.674Z</time></trkpt><trkpt lat="40.7447028" lon="9.3773046"><ele>524.0</ele><time>2026-04-13T09:26:17.669Z</time></trkpt><trkpt lat="40.7446834" lon="9.3771942"><ele>524.0</ele><time>2026-04-13T09:26:18.778Z</time></trkpt><trkpt lat="40.7446611" lon="9.3770783"><ele>524.0</ele><time>2026-04-13T09:26:19.767Z</time></trkpt><trkpt lat="40.7446462" lon="9.3769626"><ele>524.0</ele><time>2026-04-13T09:26:20.764Z</time></trkpt><trkpt lat="40.7446356" lon="9.3768337"><ele>523.8</ele><time>2026-04-13T09:26:21.773Z</time></trkpt><trkpt lat="40.7446215" lon="9.3766959"><ele>523.5999999999999</ele><time>2026-04-13T09:26:22.771Z</time></trkpt><trkpt lat="40.7445934" lon="9.3765533"><ele>523.4</ele><time>2026-04-13T09:26:23.776Z</time></trkpt><trkpt lat="40.7445692" lon="9.3764245"><ele>523.1999999999999</ele><time>2026-04-13T09:26:24.764Z</time></trkpt><trkpt lat="40.744547" lon="9.3762975"><ele>523.0</ele><time>2026-04-13T09:26:25.786Z</time></trkpt><trkpt lat="40.7445229" lon="9.3761763"><ele>522.1666666666667</ele><time>2026-04-13T09:26:26.765Z</time></trkpt><trkpt lat="40.7444949" lon="9.3760468"><ele>521.3333333333334</ele><time>2026-04-13T09:26:27.762Z</time></trkpt><trkpt lat="40.7444661" lon="9.3759257"><ele>520.5</ele><time>2026-04-13T09:26:28.769Z</time></trkpt><trkpt lat="40.7444456" lon="9.3758067"><ele>519.6666666666666</ele><time>2026-04-13T09:26:29.797Z</time></trkpt><trkpt lat="40.7444304" lon="9.3757049"><ele>518.8333333333333</ele><time>2026-04-13T09:26:30.774Z</time></trkpt><trkpt lat="40.7444344" lon="9.375609"><ele>518.0</ele><time>2026-04-13T09:26:31.794Z</time></trkpt><trkpt lat="40.7444534" lon="9.3755257"><ele>518.4</ele><time>2026-04-13T09:26:32.759Z</time></trkpt><trkpt lat="40.7444827" lon="9.375449"><ele>518.8</ele><time>2026-04-13T09:26:33.76Z</time></trkpt><trkpt lat="40.7445132" lon="9.3752968"><ele>519.2</ele><time>2026-04-13T09:26:35.767Z</time></trkpt><trkpt lat="40.7444646" lon="9.375141"><ele>519.6</ele><time>2026-04-13T09:26:37.783Z</time></trkpt><trkpt lat="40.7443957" lon="9.3750702"><ele>520.0</ele><time>2026-04-13T09:26:38.822Z</time></trkpt><trkpt lat="40.7443148" lon="9.3749947"><ele>519.2</ele><time>2026-04-13T09:26:39.769Z</time></trkpt><trkpt lat="40.7442437" lon="9.3749002"><ele>518.4</ele><time>2026-04-13T09:26:40.769Z</time></trkpt><trkpt lat="40.7441913" lon="9.3747984"><ele>517.6</ele><time>2026-04-13T09:26:41.764Z</time></trkpt><trkpt lat="40.7441601" lon="9.3746861"><ele>516.8</ele><time>2026-04-13T09:26:42.759Z</time></trkpt><trkpt lat="40.7441516" lon="9.3745668"><ele>516.0</ele><time>2026-04-13T09:26:43.781Z</time></trkpt><trkpt lat="40.7441397" lon="9.374455"><ele>516.0</ele><time>2026-04-13T09:26:44.763Z</time></trkpt><trkpt lat="40.7441218" lon="9.3743385"><ele>516.0</ele><time>2026-04-13T09:26:45.765Z</time></trkpt><trkpt lat="40.7441071" lon="9.3742229"><ele>516.0</ele><time>2026-04-13T09:26:46.758Z</time></trkpt><trkpt lat="40.7440882" lon="9.3741104"><ele>516.0</ele><time>2026-04-13T09:26:47.756Z</time></trkpt><trkpt lat="40.7440477" lon="9.3740036"><ele>516.0</ele><time>2026-04-13T09:26:48.764Z</time></trkpt><trkpt lat="40.7439954" lon="9.373898"><ele>518.6</ele><time>2026-04-13T09:26:49.774Z</time></trkpt><trkpt lat="40.7439334" lon="9.3737921"><ele>521.2</ele><time>2026-04-13T09:26:50.759Z</time></trkpt><trkpt lat="40.7438644" lon="9.3736733"><ele>523.8</ele><time>2026-04-13T09:26:51.75Z</time></trkpt><trkpt lat="40.7437957" lon="9.3735708"><ele>526.4</ele><time>2026-04-13T09:26:52.757Z</time></trkpt><trkpt lat="40.7437152" lon="9.3734789"><ele>529.0</ele><time>2026-04-13T09:26:53.756Z</time></trkpt><trkpt lat="40.7436205" lon="9.3734107"><ele>524.8</ele><time>2026-04-13T09:26:54.764Z</time></trkpt><trkpt lat="40.7435158" lon="9.3733418"><ele>520.5999999999999</ele><time>2026-04-13T09:26:55.753Z</time></trkpt><trkpt lat="40.7434272" lon="9.3732743"><ele>516.4</ele><time>2026-04-13T09:26:56.754Z</time></trkpt><trkpt lat="40.7433489" lon="9.3732005"><ele>512.1999999999999</ele><time>2026-04-13T09:26:57.754Z</time></trkpt><trkpt lat="40.7432775" lon="9.3731377"><ele>508.0</ele><time>2026-04-13T09:26:58.762Z</time></trkpt><trkpt lat="40.743222" lon="9.3730778"><ele>508.42857142857144</ele><time>2026-04-13T09:26:59.761Z</time></trkpt><trkpt lat="40.7431668" lon="9.3730128"><ele>508.85714285714283</ele><time>2026-04-13T09:27:00.781Z</time></trkpt><trkpt lat="40.743104" lon="9.3729681"><ele>509.2857142857143</ele><time>2026-04-13T09:27:01.753Z</time></trkpt><trkpt lat="40.7430397" lon="9.3729331"><ele>509.7142857142857</ele><time>2026-04-13T09:27:02.754Z</time></trkpt><trkpt lat="40.7429726" lon="9.3729205"><ele>510.1428571428571</ele><time>2026-04-13T09:27:03.756Z</time></trkpt><trkpt lat="40.742899" lon="9.3729351"><ele>510.57142857142856</ele><time>2026-04-13T09:27:04.745Z</time></trkpt><trkpt lat="40.7428249" lon="9.372961"><ele>511.0</ele><time>2026-04-13T09:27:05.775Z</time></trkpt><trkpt lat="40.7427548" lon="9.3729983"><ele>511.0</ele><time>2026-04-13T09:27:06.784Z</time></trkpt><trkpt lat="40.7426563" lon="9.3730439"><ele>511.0</ele><time>2026-04-13T09:27:08.773Z</time></trkpt><trkpt lat="40.7425912" lon="9.3729861"><ele>511.0</ele><time>2026-04-13T09:27:11.751Z</time></trkpt><trkpt lat="40.7426127" lon="9.3728818"><ele>511.0</ele><time>2026-04-13T09:27:13.788Z</time></trkpt><trkpt lat="40.7426902" lon="9.3727853"><ele>511.0</ele><time>2026-04-13T09:27:15.731Z</time></trkpt><trkpt lat="40.7427791" lon="9.3726963"><ele>511.0</ele><time>2026-04-13T09:27:17.73Z</time></trkpt><trkpt lat="40.7428448" lon="9.3725833"><ele>511.0</ele><time>2026-04-13T09:27:19.73Z</time></trkpt><trkpt lat="40.7428948" lon="9.3724511"><ele>511.0</ele><time>2026-04-13T09:27:21.735Z</time></trkpt><trkpt lat="40.7429153" lon="9.3723035"><ele>511.0</ele><time>2026-04-13T09:27:23.721Z</time></trkpt><trkpt lat="40.7429169" lon="9.3722183"><ele>511.0</ele><time>2026-04-13T09:27:24.723Z</time></trkpt><trkpt lat="40.7429195" lon="9.3721238"><ele>509.6666666666667</ele><time>2026-04-13T09:27:25.714Z</time></trkpt><trkpt lat="40.7429246" lon="9.3720225"><ele>508.33333333333337</ele><time>2026-04-13T09:27:26.734Z</time></trkpt><trkpt lat="40.7429247" lon="9.3719193"><ele>507.0</ele><time>2026-04-13T09:27:27.752Z</time></trkpt><trkpt lat="40.7429297" lon="9.3718157"><ele>505.66666666666663</ele><time>2026-04-13T09:27:28.699Z</time></trkpt><trkpt lat="40.7429324" lon="9.3717087"><ele>504.3333333333333</ele><time>2026-04-13T09:27:29.709Z</time></trkpt><trkpt lat="40.7429245" lon="9.3715986"><ele>503.0</ele><time>2026-04-13T09:27:30.705Z</time></trkpt><trkpt lat="40.7429037" lon="9.3714884"><ele>503.0</ele><time>2026-04-13T09:27:31.703Z</time></trkpt><trkpt lat="40.7428756" lon="9.3713769"><ele>502.99999999999994</ele><time>2026-04-13T09:27:32.705Z</time></trkpt><trkpt lat="40.7428475" lon="9.371262"><ele>502.99999999999994</ele><time>2026-04-13T09:27:33.699Z</time></trkpt><trkpt lat="40.7428157" lon="9.3711402"><ele>503.0</ele><time>2026-04-13T09:27:34.697Z</time></trkpt><trkpt lat="40.7427887" lon="9.3710099"><ele>503.0</ele><time>2026-04-13T09:27:35.706Z</time></trkpt><trkpt lat="40.7427624" lon="9.3708778"><ele>501.59999999999997</ele><time>2026-04-13T09:27:36.706Z</time></trkpt><trkpt lat="40.74274" lon="9.3707442"><ele>500.19999999999993</ele><time>2026-04-13T09:27:37.699Z</time></trkpt><trkpt lat="40.7427077" lon="9.3705999"><ele>498.8</ele><time>2026-04-13T09:27:38.706Z</time></trkpt><trkpt lat="40.7426718" lon="9.3704518"><ele>497.4</ele><time>2026-04-13T09:27:39.701Z</time></trkpt><trkpt lat="40.7426379" lon="9.3703098"><ele>496.0</ele><time>2026-04-13T09:27:40.705Z</time></trkpt><trkpt lat="40.7425989" lon="9.3701814"><ele>492.0</ele><time>2026-04-13T09:27:41.703Z</time></trkpt><trkpt lat="40.7425634" lon="9.370062"><ele>488.0</ele><time>2026-04-13T09:27:42.696Z</time></trkpt><trkpt lat="40.7425138" lon="9.3699441"><ele>484.0</ele><time>2026-04-13T09:27:43.698Z</time></trkpt><trkpt lat="40.7424549" lon="9.3698342"><ele>480.0</ele><time>2026-04-13T09:27:44.696Z</time></trkpt><trkpt lat="40.7424103" lon="9.3697276"><ele>476.0</ele><time>2026-04-13T09:27:45.709Z</time></trkpt><trkpt lat="40.7423745" lon="9.3696126"><ele>476.0</ele><time>2026-04-13T09:27:46.694Z</time></trkpt><trkpt lat="40.7423483" lon="9.3694841"><ele>476.0</ele><time>2026-04-13T09:27:47.711Z</time></trkpt><trkpt lat="40.7423283" lon="9.369362"><ele>476.0</ele><time>2026-04-13T09:27:48.695Z</time></trkpt><trkpt lat="40.7423297" lon="9.3692422"><ele>476.0</ele><time>2026-04-13T09:27:49.707Z</time></trkpt><trkpt lat="40.7423487" lon="9.3691118"><ele>476.0</ele><time>2026-04-13T09:27:50.7Z</time></trkpt><trkpt lat="40.7423858" lon="9.3689729"><ele>474.75</ele><time>2026-04-13T09:27:51.701Z</time></trkpt><trkpt lat="40.7424262" lon="9.3688198"><ele>473.5</ele><time>2026-04-13T09:27:52.697Z</time></trkpt><trkpt lat="40.7424634" lon="9.368659"><ele>472.25</ele><time>2026-04-13T09:27:53.695Z</time></trkpt><trkpt lat="40.7424973" lon="9.3685018"><ele>471.0</ele><time>2026-04-13T09:27:54.695Z</time></trkpt><trkpt lat="40.7425301" lon="9.368356"><ele>471.0</ele><time>2026-04-13T09:27:55.697Z</time></trkpt><trkpt lat="40.7425435" lon="9.3682192"><ele>471.0</ele><time>2026-04-13T09:27:56.716Z</time></trkpt><trkpt lat="40.7425457" lon="9.368086"><ele>471.0</ele><time>2026-04-13T09:27:57.703Z</time></trkpt><trkpt lat="40.742533" lon="9.3679616"><ele>471.0</ele><time>2026-04-13T09:27:58.705Z</time></trkpt><trkpt lat="40.7424905" lon="9.3678543"><ele>471.0</ele><time>2026-04-13T09:27:59.691Z</time></trkpt><trkpt lat="40.7424428" lon="9.3677481"><ele>470.4</ele><time>2026-04-13T09:28:00.696Z</time></trkpt><trkpt lat="40.7423988" lon="9.3676343"><ele>469.8</ele><time>2026-04-13T09:28:01.698Z</time></trkpt><trkpt lat="40.7423741" lon="9.3675152"><ele>469.19999999999993</ele><time>2026-04-13T09:28:02.698Z</time></trkpt><trkpt lat="40.7423666" lon="9.3673986"><ele>468.59999999999997</ele><time>2026-04-13T09:28:03.695Z</time></trkpt><trkpt lat="40.7423625" lon="9.36728"><ele>468.0</ele><time>2026-04-13T09:28:04.718Z</time></trkpt><trkpt lat="40.7423688" lon="9.3671608"><ele>468.0</ele><time>2026-04-13T09:28:05.701Z</time></trkpt><trkpt lat="40.7423757" lon="9.3670505"><ele>468.0</ele><time>2026-04-13T09:28:06.692Z</time></trkpt><trkpt lat="40.7423708" lon="9.3669449"><ele>468.0</ele><time>2026-04-13T09:28:07.694Z</time></trkpt><trkpt lat="40.7423531" lon="9.3668472"><ele>468.0</ele><time>2026-04-13T09:28:08.693Z</time></trkpt><trkpt lat="40.7423226" lon="9.3667557"><ele>468.0</ele><time>2026-04-13T09:28:09.682Z</time></trkpt><trkpt lat="40.7422902" lon="9.3666733"><ele>468.0</ele><time>2026-04-13T09:28:10.703Z</time></trkpt><trkpt lat="40.742249" lon="9.3666045"><ele>468.0</ele><time>2026-04-13T09:28:11.682Z</time></trkpt><trkpt lat="40.7422087" lon="9.3665351"><ele>468.00000000000006</ele><time>2026-04-13T09:28:12.677Z</time></trkpt><trkpt lat="40.7421709" lon="9.3664057"><ele>468.0</ele><time>2026-04-13T09:28:14.68Z</time></trkpt><trkpt lat="40.7421612" lon="9.3663202"><ele>468.0</ele><time>2026-04-13T09:28:16.674Z</time></trkpt><trkpt lat="40.7421617" lon="9.3662341"><ele>468.00000000000006</ele><time>2026-04-13T09:28:18.776Z</time></trkpt><trkpt lat="40.7421482" lon="9.3661397"><ele>468.0</ele><time>2026-04-13T09:29:59.746Z</time></trkpt><trkpt lat="40.7421473" lon="9.3660529"><ele>468.0</ele><time>2026-04-13T09:30:01.735Z</time></trkpt><trkpt lat="40.7421395" lon="9.3659404"><ele>468.4</ele><time>2026-04-13T09:30:04.724Z</time></trkpt><trkpt lat="40.7420627" lon="9.3658555"><ele>468.79999999999995</ele><time>2026-04-13T09:30:07.727Z</time></trkpt><trkpt lat="40.7419323" lon="9.3658353"><ele>469.2</ele><time>2026-04-13T09:30:09.721Z</time></trkpt><trkpt lat="40.7418415" lon="9.3658359"><ele>469.6</ele><time>2026-04-13T09:30:10.708Z</time></trkpt><trkpt lat="40.7417411" lon="9.3658251"><ele>470.0</ele><time>2026-04-13T09:30:11.725Z</time></trkpt><trkpt lat="40.7416249" lon="9.3658141"><ele>469.0</ele><time>2026-04-13T09:30:12.717Z</time></trkpt><trkpt lat="40.7414967" lon="9.3658147"><ele>468.0</ele><time>2026-04-13T09:30:13.711Z</time></trkpt><trkpt lat="40.7413621" lon="9.3658151"><ele>467.0</ele><time>2026-04-13T09:30:14.714Z</time></trkpt><trkpt lat="40.7412262" lon="9.3658126"><ele>466.0</ele><time>2026-04-13T09:30:15.728Z</time></trkpt><trkpt lat="40.7410903" lon="9.3658086"><ele>465.75</ele><time>2026-04-13T09:30:16.715Z</time></trkpt><trkpt lat="40.7409553" lon="9.3657947"><ele>465.5</ele><time>2026-04-13T09:30:17.707Z</time></trkpt><trkpt lat="40.740825" lon="9.3657834"><ele>465.25</ele><time>2026-04-13T09:30:18.701Z</time></trkpt><trkpt lat="40.7406961" lon="9.3657558"><ele>465.0</ele><time>2026-04-13T09:30:19.704Z</time></trkpt><trkpt lat="40.7405854" lon="9.365711"><ele>465.0</ele><time>2026-04-13T09:30:20.696Z</time></trkpt><trkpt lat="40.7404935" lon="9.3656674"><ele>465.0</ele><time>2026-04-13T09:30:21.702Z</time></trkpt><trkpt lat="40.7404189" lon="9.3656278"><ele>465.0</ele><time>2026-04-13T09:30:22.699Z</time></trkpt><trkpt lat="40.7403634" lon="9.3655879"><ele>465.0</ele><time>2026-04-13T09:30:23.698Z</time></trkpt><trkpt lat="40.7402988" lon="9.365523"><ele>465.0</ele><time>2026-04-13T09:30:25.692Z</time></trkpt><trkpt lat="40.7402406" lon="9.3654566"><ele>465.0</ele><time>2026-04-13T09:30:28.697Z</time></trkpt><trkpt lat="40.7402305" lon="9.3653451"><ele>464.8</ele><time>2026-04-13T09:30:42.691Z</time></trkpt><trkpt lat="40.7402621" lon="9.3651878"><ele>464.6</ele><time>2026-04-13T09:30:44.687Z</time></trkpt><trkpt lat="40.7402976" lon="9.3650752"><ele>464.4</ele><time>2026-04-13T09:30:45.678Z</time></trkpt><trkpt lat="40.7403416" lon="9.3649416"><ele>464.2</ele><time>2026-04-13T09:30:46.687Z</time></trkpt><trkpt lat="40.7403887" lon="9.3648"><ele>464.0</ele><time>2026-04-13T09:30:47.681Z</time></trkpt><trkpt lat="40.7404423" lon="9.3646438"><ele>463.75</ele><time>2026-04-13T09:30:48.684Z</time></trkpt><trkpt lat="40.7404951" lon="9.364483"><ele>463.5</ele><time>2026-04-13T09:30:49.682Z</time></trkpt><trkpt lat="40.7405515" lon="9.3643166"><ele>463.25</ele><time>2026-04-13T09:30:50.696Z</time></trkpt><trkpt lat="40.7406106" lon="9.3641495"><ele>463.0</ele><time>2026-04-13T09:30:51.674Z</time></trkpt><trkpt lat="40.7406694" lon="9.3639851"><ele>463.75</ele><time>2026-04-13T09:30:52.766Z</time></trkpt><trkpt lat="40.7407215" lon="9.3638228"><ele>464.5</ele><time>2026-04-13T09:30:53.789Z</time></trkpt><trkpt lat="40.7407766" lon="9.3636619"><ele>465.25</ele><time>2026-04-13T09:30:54.779Z</time></trkpt><trkpt lat="40.740825" lon="9.3635083"><ele>466.0</ele><time>2026-04-13T09:30:55.769Z</time></trkpt><trkpt lat="40.7408674" lon="9.3633692"><ele>466.0</ele><time>2026-04-13T09:30:56.766Z</time></trkpt><trkpt lat="40.7409079" lon="9.3632324"><ele>466.0</ele><time>2026-04-13T09:30:57.777Z</time></trkpt><trkpt lat="40.7409413" lon="9.3630898"><ele>466.0</ele><time>2026-04-13T09:30:58.773Z</time></trkpt><trkpt lat="40.7409702" lon="9.3629505"><ele>466.0</ele><time>2026-04-13T09:30:59.761Z</time></trkpt><trkpt lat="40.7410037" lon="9.362809"><ele>466.0</ele><time>2026-04-13T09:31:00.764Z</time></trkpt><trkpt lat="40.7410335" lon="9.3626593"><ele>465.0</ele><time>2026-04-13T09:31:01.773Z</time></trkpt><trkpt lat="40.7410607" lon="9.3625041"><ele>464.0</ele><time>2026-04-13T09:31:02.775Z</time></trkpt><trkpt lat="40.7410875" lon="9.362344"><ele>463.0</ele><time>2026-04-13T09:31:03.771Z</time></trkpt><trkpt lat="40.7411141" lon="9.3621762"><ele>462.0</ele><time>2026-04-13T09:31:04.756Z</time></trkpt><trkpt lat="40.7411419" lon="9.3620046"><ele>461.25</ele><time>2026-04-13T09:31:05.759Z</time></trkpt><trkpt lat="40.7411721" lon="9.3618272"><ele>460.5</ele><time>2026-04-13T09:31:06.754Z</time></trkpt><trkpt lat="40.7411962" lon="9.3616543"><ele>459.75</ele><time>2026-04-13T09:31:07.75Z</time></trkpt><trkpt lat="40.7412149" lon="9.3614871"><ele>459.0</ele><time>2026-04-13T09:31:08.767Z</time></trkpt><trkpt lat="40.7412174" lon="9.3613272"><ele>458.6</ele><time>2026-04-13T09:31:09.746Z</time></trkpt><trkpt lat="40.7412122" lon="9.3611799"><ele>458.2</ele><time>2026-04-13T09:31:10.767Z</time></trkpt><trkpt lat="40.7411985" lon="9.3610446"><ele>457.80000000000007</ele><time>2026-04-13T09:31:11.766Z</time></trkpt><trkpt lat="40.7411764" lon="9.3609007"><ele>457.40000000000003</ele><time>2026-04-13T09:31:12.757Z</time></trkpt><trkpt lat="40.7411404" lon="9.3607526"><ele>457.0</ele><time>2026-04-13T09:31:13.747Z</time></trkpt><trkpt lat="40.7410971" lon="9.3605999"><ele>457.25</ele><time>2026-04-13T09:31:14.754Z</time></trkpt><trkpt lat="40.7410506" lon="9.3604438"><ele>457.5</ele><time>2026-04-13T09:31:15.76Z</time></trkpt><trkpt lat="40.7410045" lon="9.3602827"><ele>457.75</ele><time>2026-04-13T09:31:16.738Z</time></trkpt><trkpt lat="40.7409664" lon="9.3601096"><ele>458.0</ele><time>2026-04-13T09:31:17.739Z</time></trkpt><trkpt lat="40.7409363" lon="9.3599315"><ele>460.0</ele><time>2026-04-13T09:31:18.753Z</time></trkpt><trkpt lat="40.7409152" lon="9.3597486"><ele>462.0</ele><time>2026-04-13T09:31:19.748Z</time></trkpt><trkpt lat="40.7409013" lon="9.3595606"><ele>464.0</ele><time>2026-04-13T09:31:20.736Z</time></trkpt><trkpt lat="40.7408877" lon="9.3593807"><ele>466.0</ele><time>2026-04-13T09:31:21.735Z</time></trkpt><trkpt lat="40.7408739" lon="9.3592161"><ele>466.4</ele><time>2026-04-13T09:31:22.738Z</time></trkpt><trkpt lat="40.7408561" lon="9.359066"><ele>466.8</ele><time>2026-04-13T09:31:23.745Z</time></trkpt><trkpt lat="40.740824" lon="9.3589333"><ele>467.19999999999993</ele><time>2026-04-13T09:31:24.739Z</time></trkpt><trkpt lat="40.7407649" lon="9.3588067"><ele>467.59999999999997</ele><time>2026-04-13T09:31:25.752Z</time></trkpt><trkpt lat="40.7406857" lon="9.3587045"><ele>468.0</ele><time>2026-04-13T09:31:26.737Z</time></trkpt><trkpt lat="40.7405931" lon="9.358602"><ele>467.25</ele><time>2026-04-13T09:31:27.747Z</time></trkpt><trkpt lat="40.7404964" lon="9.3585035"><ele>466.5</ele><time>2026-04-13T09:31:28.749Z</time></trkpt><trkpt lat="40.7403942" lon="9.3583987"><ele>465.75</ele><time>2026-04-13T09:31:29.752Z</time></trkpt><trkpt lat="40.7402929" lon="9.358281"><ele>465.0</ele><time>2026-04-13T09:31:30.733Z</time></trkpt><trkpt lat="40.7401881" lon="9.3581433"><ele>462.33333333333337</ele><time>2026-04-13T09:31:31.738Z</time></trkpt><trkpt lat="40.7400885" lon="9.3579909"><ele>459.6666666666667</ele><time>2026-04-13T09:31:32.744Z</time></trkpt><trkpt lat="40.7399888" lon="9.3578334"><ele>457.0</ele><time>2026-04-13T09:31:33.766Z</time></trkpt><trkpt lat="40.7398846" lon="9.3576626"><ele>457.0</ele><time>2026-04-13T09:31:34.753Z</time></trkpt><trkpt lat="40.7397771" lon="9.3574791"><ele>457.0</ele><time>2026-04-13T09:31:35.73Z</time></trkpt><trkpt lat="40.7396599" lon="9.3572877"><ele>457.0</ele><time>2026-04-13T09:31:36.737Z</time></trkpt><trkpt lat="40.7395395" lon="9.357101"><ele>457.0</ele><time>2026-04-13T09:31:37.743Z</time></trkpt><trkpt lat="40.7394203" lon="9.3569301"><ele>457.0</ele><time>2026-04-13T09:31:38.734Z</time></trkpt><trkpt lat="40.7393088" lon="9.3567691"><ele>457.0</ele><time>2026-04-13T09:31:39.764Z</time></trkpt><trkpt lat="40.7392163" lon="9.3566069"><ele>457.0</ele><time>2026-04-13T09:31:40.726Z</time></trkpt><trkpt lat="40.7391366" lon="9.3564303"><ele>457.0</ele><time>2026-04-13T09:31:41.73Z</time></trkpt><trkpt lat="40.739069" lon="9.3562463"><ele>457.0</ele><time>2026-04-13T09:31:42.734Z</time></trkpt><trkpt lat="40.7390094" lon="9.3560597"><ele>456.0</ele><time>2026-04-13T09:31:43.739Z</time></trkpt><trkpt lat="40.7389583" lon="9.3558719"><ele>455.0</ele><time>2026-04-13T09:31:44.715Z</time></trkpt><trkpt lat="40.7389142" lon="9.3556848"><ele>454.0</ele><time>2026-04-13T09:31:45.724Z</time></trkpt><trkpt lat="40.7388882" lon="9.355491"><ele>453.0</ele><time>2026-04-13T09:31:46.724Z</time></trkpt><trkpt lat="40.7388757" lon="9.3552953"><ele>453.0</ele><time>2026-04-13T09:31:47.718Z</time></trkpt><trkpt lat="40.7388609" lon="9.355109"><ele>453.0</ele><time>2026-04-13T09:31:48.721Z</time></trkpt><trkpt lat="40.738833" lon="9.3549349"><ele>453.0</ele><time>2026-04-13T09:31:49.714Z</time></trkpt><trkpt lat="40.7387944" lon="9.3547608"><ele>453.0</ele><time>2026-04-13T09:31:50.707Z</time></trkpt><trkpt lat="40.7387528" lon="9.3545828"><ele>453.33333333333337</ele><time>2026-04-13T09:31:51.718Z</time></trkpt><trkpt lat="40.738701" lon="9.3543942"><ele>453.6666666666667</ele><time>2026-04-13T09:31:52.721Z</time></trkpt><trkpt lat="40.7386447" lon="9.354198"><ele>454.0</ele><time>2026-04-13T09:31:53.702Z</time></trkpt><trkpt lat="40.7385898" lon="9.3539962"><ele>453.6666666666667</ele><time>2026-04-13T09:31:54.701Z</time></trkpt><trkpt lat="40.7385357" lon="9.3537834"><ele>453.33333333333337</ele><time>2026-04-13T09:31:55.712Z</time></trkpt><trkpt lat="40.7384751" lon="9.3535707"><ele>453.0</ele><time>2026-04-13T09:31:56.698Z</time></trkpt><trkpt lat="40.7384158" lon="9.3533665"><ele>453.0</ele><time>2026-04-13T09:31:57.694Z</time></trkpt><trkpt lat="40.738359" lon="9.3531691"><ele>453.0</ele><time>2026-04-13T09:31:58.701Z</time></trkpt><trkpt lat="40.7383057" lon="9.3529875"><ele>453.0</ele><time>2026-04-13T09:31:59.704Z</time></trkpt><trkpt lat="40.7382544" lon="9.3528146"><ele>453.0</ele><time>2026-04-13T09:32:00.719Z</time></trkpt><trkpt lat="40.7381992" lon="9.3526453"><ele>453.0</ele><time>2026-04-13T09:32:01.698Z</time></trkpt><trkpt lat="40.7381331" lon="9.3524864"><ele>453.0</ele><time>2026-04-13T09:32:02.707Z</time></trkpt><trkpt lat="40.7380595" lon="9.3523262"><ele>453.0</ele><time>2026-04-13T09:32:03.691Z</time></trkpt><trkpt lat="40.737978" lon="9.3521729"><ele>453.0</ele><time>2026-04-13T09:32:04.697Z</time></trkpt><trkpt lat="40.7378977" lon="9.3520158"><ele>452.75</ele><time>2026-04-13T09:32:05.69Z</time></trkpt><trkpt lat="40.7378164" lon="9.3518554"><ele>452.5</ele><time>2026-04-13T09:32:06.689Z</time></trkpt><trkpt lat="40.7377345" lon="9.3516915"><ele>452.25</ele><time>2026-04-13T09:32:07.684Z</time></trkpt><trkpt lat="40.7376507" lon="9.3515245"><ele>452.0</ele><time>2026-04-13T09:32:08.694Z</time></trkpt><trkpt lat="40.7375672" lon="9.3513555"><ele>451.0</ele><time>2026-04-13T09:32:09.684Z</time></trkpt><trkpt lat="40.737484" lon="9.3511819"><ele>450.0</ele><time>2026-04-13T09:32:10.683Z</time></trkpt><trkpt lat="40.7373992" lon="9.3510114"><ele>449.0</ele><time>2026-04-13T09:32:11.691Z</time></trkpt><trkpt lat="40.7373155" lon="9.3508463"><ele>449.0</ele><time>2026-04-13T09:32:12.685Z</time></trkpt><trkpt lat="40.7372323" lon="9.3506782"><ele>449.0</ele><time>2026-04-13T09:32:13.683Z</time></trkpt><trkpt lat="40.7371479" lon="9.3505072"><ele>449.0</ele><time>2026-04-13T09:32:14.687Z</time></trkpt><trkpt lat="40.7370646" lon="9.3503364"><ele>449.0</ele><time>2026-04-13T09:32:15.682Z</time></trkpt><trkpt lat="40.7369775" lon="9.3501602"><ele>449.0</ele><time>2026-04-13T09:32:16.685Z</time></trkpt><trkpt lat="40.7368923" lon="9.3499885"><ele>449.0</ele><time>2026-04-13T09:32:17.687Z</time></trkpt><trkpt lat="40.7368002" lon="9.3498161"><ele>448.66666666666663</ele><time>2026-04-13T09:32:18.697Z</time></trkpt><trkpt lat="40.7367112" lon="9.3496444"><ele>448.33333333333337</ele><time>2026-04-13T09:32:19.688Z</time></trkpt><trkpt lat="40.7366201" lon="9.3494751"><ele>448.0</ele><time>2026-04-13T09:32:20.678Z</time></trkpt><trkpt lat="40.736521" lon="9.3493082"><ele>448.0</ele><time>2026-04-13T09:32:21.686Z</time></trkpt><trkpt lat="40.7364213" lon="9.3491473"><ele>448.0</ele><time>2026-04-13T09:32:22.684Z</time></trkpt><trkpt lat="40.7363238" lon="9.3489879"><ele>448.0</ele><time>2026-04-13T09:32:23.678Z</time></trkpt><trkpt lat="40.7362251" lon="9.3488232"><ele>448.6666666666667</ele><time>2026-04-13T09:32:24.68Z</time></trkpt><trkpt lat="40.7361247" lon="9.3486661"><ele>449.33333333333337</ele><time>2026-04-13T09:32:25.691Z</time></trkpt><trkpt lat="40.7360261" lon="9.3485145"><ele>450.0</ele><time>2026-04-13T09:32:26.683Z</time></trkpt><trkpt lat="40.7359293" lon="9.348372"><ele>451.0</ele><time>2026-04-13T09:32:27.691Z</time></trkpt><trkpt lat="40.7358321" lon="9.3482379"><ele>452.0</ele><time>2026-04-13T09:32:28.684Z</time></trkpt><trkpt lat="40.7357369" lon="9.3481092"><ele>453.0</ele><time>2026-04-13T09:32:29.704Z</time></trkpt><trkpt lat="40.7356362" lon="9.3479858"><ele>454.0</ele><time>2026-04-13T09:32:30.685Z</time></trkpt><trkpt lat="40.735532" lon="9.3478681"><ele>454.5</ele><time>2026-04-13T09:32:31.692Z</time></trkpt><trkpt lat="40.7354182" lon="9.347765"><ele>455.0</ele><time>2026-04-13T09:32:32.687Z</time></trkpt><trkpt lat="40.7352958" lon="9.3476687"><ele>455.5</ele><time>2026-04-13T09:32:33.69Z</time></trkpt><trkpt lat="40.7351698" lon="9.3475822"><ele>456.0</ele><time>2026-04-13T09:32:34.681Z</time></trkpt><trkpt lat="40.7350424" lon="9.3474982"><ele>458.25</ele><time>2026-04-13T09:32:35.681Z</time></trkpt><trkpt lat="40.7349218" lon="9.3474071"><ele>460.5</ele><time>2026-04-13T09:32:36.687Z</time></trkpt><trkpt lat="40.7348037" lon="9.3473123"><ele>462.75</ele><time>2026-04-13T09:32:37.688Z</time></trkpt><trkpt lat="40.7346925" lon="9.3472044"><ele>465.0</ele><time>2026-04-13T09:32:38.685Z</time></trkpt><trkpt lat="40.7345921" lon="9.3470743"><ele>465.25</ele><time>2026-04-13T09:32:39.683Z</time></trkpt><trkpt lat="40.7345066" lon="9.3469259"><ele>465.5</ele><time>2026-04-13T09:32:40.694Z</time></trkpt><trkpt lat="40.7344313" lon="9.3467712"><ele>465.75</ele><time>2026-04-13T09:32:41.683Z</time></trkpt><trkpt lat="40.7343588" lon="9.3466231"><ele>466.0</ele><time>2026-04-13T09:32:42.678Z</time></trkpt><trkpt lat="40.7342804" lon="9.346497"><ele>467.0</ele><time>2026-04-13T09:32:43.689Z</time></trkpt><trkpt lat="40.7341935" lon="9.346398"><ele>468.0</ele><time>2026-04-13T09:32:44.683Z</time></trkpt><trkpt lat="40.7340958" lon="9.3463235"><ele>469.0</ele><time>2026-04-13T09:32:45.681Z</time></trkpt><trkpt lat="40.7339839" lon="9.3462618"><ele>470.0</ele><time>2026-04-13T09:32:46.683Z</time></trkpt><trkpt lat="40.7338672" lon="9.3461965"><ele>470.0</ele><time>2026-04-13T09:32:47.685Z</time></trkpt><trkpt lat="40.7337472" lon="9.3461315"><ele>470.0</ele><time>2026-04-13T09:32:48.671Z</time></trkpt><trkpt lat="40.7336273" lon="9.3460661"><ele>470.0</ele><time>2026-04-13T09:32:49.673Z</time></trkpt><trkpt lat="40.7335062" lon="9.3460041"><ele>470.0</ele><time>2026-04-13T09:32:50.681Z</time></trkpt><trkpt lat="40.7333847" lon="9.3459396"><ele>471.75</ele><time>2026-04-13T09:32:51.764Z</time></trkpt><trkpt lat="40.7332654" lon="9.3458718"><ele>473.5</ele><time>2026-04-13T09:32:52.794Z</time></trkpt><trkpt lat="40.7331524" lon="9.345794"><ele>475.25</ele><time>2026-04-13T09:32:53.781Z</time></trkpt><trkpt lat="40.7330385" lon="9.3457098"><ele>477.0</ele><time>2026-04-13T09:32:54.763Z</time></trkpt><trkpt lat="40.732919" lon="9.345613"><ele>476.25</ele><time>2026-04-13T09:32:55.771Z</time></trkpt><trkpt lat="40.7327977" lon="9.3455105"><ele>475.5</ele><time>2026-04-13T09:32:56.768Z</time></trkpt><trkpt lat="40.7326734" lon="9.3454076"><ele>474.75</ele><time>2026-04-13T09:32:57.778Z</time></trkpt><trkpt lat="40.7325433" lon="9.3453021"><ele>474.0</ele><time>2026-04-13T09:32:58.762Z</time></trkpt><trkpt lat="40.7324111" lon="9.3451964"><ele>474.0</ele><time>2026-04-13T09:32:59.792Z</time></trkpt><trkpt lat="40.7322785" lon="9.3450852"><ele>474.0</ele><time>2026-04-13T09:33:00.756Z</time></trkpt><trkpt lat="40.7321507" lon="9.344967"><ele>474.0</ele><time>2026-04-13T09:33:01.763Z</time></trkpt><trkpt lat="40.7320343" lon="9.3448377"><ele>473.33333333333337</ele><time>2026-04-13T09:33:02.757Z</time></trkpt><trkpt lat="40.731931" lon="9.3446911"><ele>472.6666666666667</ele><time>2026-04-13T09:33:03.752Z</time></trkpt><trkpt lat="40.7318326" lon="9.344542"><ele>472.0</ele><time>2026-04-13T09:33:04.763Z</time></trkpt><trkpt lat="40.7317308" lon="9.3443932"><ele>472.0</ele><time>2026-04-13T09:33:05.774Z</time></trkpt><trkpt lat="40.7316238" lon="9.3442508"><ele>472.0</ele><time>2026-04-13T09:33:06.761Z</time></trkpt><trkpt lat="40.7315174" lon="9.3441115"><ele>472.0</ele><time>2026-04-13T09:33:07.774Z</time></trkpt><trkpt lat="40.7314068" lon="9.3439687"><ele>468.0</ele><time>2026-04-13T09:33:08.761Z</time></trkpt><trkpt lat="40.7312968" lon="9.3438212"><ele>464.0</ele><time>2026-04-13T09:33:09.772Z</time></trkpt><trkpt lat="40.7311849" lon="9.3436683"><ele>460.0</ele><time>2026-04-13T09:33:10.753Z</time></trkpt><trkpt lat="40.7310696" lon="9.3435165"><ele>464.33333333333337</ele><time>2026-04-13T09:33:11.764Z</time></trkpt><trkpt lat="40.7309533" lon="9.3433686"><ele>468.66666666666663</ele><time>2026-04-13T09:33:12.749Z</time></trkpt><trkpt lat="40.7308352" lon="9.3432293"><ele>473.0</ele><time>2026-04-13T09:33:13.759Z</time></trkpt><trkpt lat="40.7307078" lon="9.3430983"><ele>470.0</ele><time>2026-04-13T09:33:14.739Z</time></trkpt><trkpt lat="40.7305739" lon="9.3429759"><ele>467.0</ele><time>2026-04-13T09:33:15.751Z</time></trkpt><trkpt lat="40.730442" lon="9.3428629"><ele>464.0</ele><time>2026-04-13T09:33:16.751Z</time></trkpt><trkpt lat="40.7303213" lon="9.3427528"><ele>466.25</ele><time>2026-04-13T09:33:17.744Z</time></trkpt><trkpt lat="40.7302157" lon="9.3426498"><ele>468.5</ele><time>2026-04-13T09:33:18.761Z</time></trkpt><trkpt lat="40.7301268" lon="9.3425311"><ele>470.75</ele><time>2026-04-13T09:33:19.755Z</time></trkpt><trkpt lat="40.7300549" lon="9.3424041"><ele>473.0</ele><time>2026-04-13T09:33:20.737Z</time></trkpt><trkpt lat="40.7299822" lon="9.342303"><ele>473.0</ele><time>2026-04-13T09:33:21.73Z</time></trkpt><trkpt lat="40.7299049" lon="9.3422285"><ele>472.99999999999994</ele><time>2026-04-13T09:33:22.747Z</time></trkpt><trkpt lat="40.7298081" lon="9.3421713"><ele>472.99999999999994</ele><time>2026-04-13T09:33:23.746Z</time></trkpt><trkpt lat="40.7297072" lon="9.342128"><ele>473.0</ele><time>2026-04-13T09:33:24.745Z</time></trkpt><trkpt lat="40.7296005" lon="9.3420903"><ele>473.0</ele><time>2026-04-13T09:33:25.741Z</time></trkpt><trkpt lat="40.7294886" lon="9.3420521"><ele>473.25</ele><time>2026-04-13T09:33:26.735Z</time></trkpt><trkpt lat="40.7293706" lon="9.3420141"><ele>473.5</ele><time>2026-04-13T09:33:27.747Z</time></trkpt><trkpt lat="40.7292493" lon="9.3419711"><ele>473.75</ele><time>2026-04-13T09:33:28.74Z</time></trkpt><trkpt lat="40.7291267" lon="9.3419233"><ele>474.0</ele><time>2026-04-13T09:33:29.737Z</time></trkpt><trkpt lat="40.7290051" lon="9.3418562"><ele>474.0</ele><time>2026-04-13T09:33:30.733Z</time></trkpt><trkpt lat="40.7288943" lon="9.3417823"><ele>474.0</ele><time>2026-04-13T09:33:31.744Z</time></trkpt><trkpt lat="40.7287975" lon="9.341708"><ele>474.0</ele><time>2026-04-13T09:33:32.736Z</time></trkpt><trkpt lat="40.7287065" lon="9.3416144"><ele>474.0</ele><time>2026-04-13T09:33:33.746Z</time></trkpt><trkpt lat="40.7286266" lon="9.3414939"><ele>474.0</ele><time>2026-04-13T09:33:34.748Z</time></trkpt><trkpt lat="40.72856" lon="9.3413572"><ele>474.0</ele><time>2026-04-13T09:33:35.754Z</time></trkpt><trkpt lat="40.7284958" lon="9.3411941"><ele>474.0</ele><time>2026-04-13T09:33:36.75Z</time></trkpt><trkpt lat="40.728433" lon="9.3410182"><ele>474.0</ele><time>2026-04-13T09:33:37.75Z</time></trkpt><trkpt lat="40.7283722" lon="9.3408362"><ele>474.33333333333337</ele><time>2026-04-13T09:33:38.749Z</time></trkpt><trkpt lat="40.7283083" lon="9.3406429"><ele>474.6666666666667</ele><time>2026-04-13T09:33:39.744Z</time></trkpt><trkpt lat="40.728251" lon="9.3404435"><ele>475.0</ele><time>2026-04-13T09:33:40.74Z</time></trkpt><trkpt lat="40.7281987" lon="9.3402416"><ele>475.0</ele><time>2026-04-13T09:33:41.754Z</time></trkpt><trkpt lat="40.7281548" lon="9.3400398"><ele>475.0</ele><time>2026-04-13T09:33:42.737Z</time></trkpt><trkpt lat="40.7281154" lon="9.3398496"><ele>475.0</ele><time>2026-04-13T09:33:43.75Z</time></trkpt><trkpt lat="40.7280814" lon="9.3396778"><ele>475.0</ele><time>2026-04-13T09:33:44.741Z</time></trkpt><trkpt lat="40.7280405" lon="9.3395324"><ele>474.25</ele><time>2026-04-13T09:33:45.738Z</time></trkpt><trkpt lat="40.7279851" lon="9.339404"><ele>473.5</ele><time>2026-04-13T09:33:46.759Z</time></trkpt><trkpt lat="40.7279058" lon="9.3392974"><ele>472.75</ele><time>2026-04-13T09:33:47.749Z</time></trkpt><trkpt lat="40.7278059" lon="9.3392158"><ele>472.0</ele><time>2026-04-13T09:33:48.739Z</time></trkpt><trkpt lat="40.727694" lon="9.339154"><ele>473.20000000000005</ele><time>2026-04-13T09:33:49.759Z</time></trkpt><trkpt lat="40.7276039" lon="9.3390837"><ele>474.40000000000003</ele><time>2026-04-13T09:33:50.74Z</time></trkpt><trkpt lat="40.727543" lon="9.3389911"><ele>475.59999999999997</ele><time>2026-04-13T09:33:51.737Z</time></trkpt><trkpt lat="40.7275025" lon="9.3388891"><ele>476.79999999999995</ele><time>2026-04-13T09:33:52.74Z</time></trkpt><trkpt lat="40.7274776" lon="9.3387793"><ele>478.0</ele><time>2026-04-13T09:33:53.728Z</time></trkpt><trkpt lat="40.7274537" lon="9.3386591"><ele>478.0</ele><time>2026-04-13T09:33:54.744Z</time></trkpt><trkpt lat="40.72741" lon="9.3385403"><ele>478.0</ele><time>2026-04-13T09:33:55.738Z</time></trkpt><trkpt lat="40.7273345" lon="9.3384141"><ele>478.0</ele><time>2026-04-13T09:33:56.733Z</time></trkpt><trkpt lat="40.7272443" lon="9.3383068"><ele>478.0</ele><time>2026-04-13T09:33:57.728Z</time></trkpt><trkpt lat="40.7271501" lon="9.3381953"><ele>478.0</ele><time>2026-04-13T09:33:58.734Z</time></trkpt><trkpt lat="40.7270448" lon="9.3380711"><ele>478.0</ele><time>2026-04-13T09:33:59.725Z</time></trkpt><trkpt lat="40.7269418" lon="9.3379295"><ele>478.0</ele><time>2026-04-13T09:34:00.721Z</time></trkpt><trkpt lat="40.7268456" lon="9.3377721"><ele>478.0</ele><time>2026-04-13T09:34:01.765Z</time></trkpt><trkpt lat="40.7267548" lon="9.3376054"><ele>479.0</ele><time>2026-04-13T09:34:02.74Z</time></trkpt><trkpt lat="40.7266762" lon="9.3374337"><ele>480.0</ele><time>2026-04-13T09:34:03.718Z</time></trkpt><trkpt lat="40.7266106" lon="9.337261"><ele>481.0</ele><time>2026-04-13T09:34:04.723Z</time></trkpt><trkpt lat="40.7265549" lon="9.337093"><ele>482.0</ele><time>2026-04-13T09:34:05.718Z</time></trkpt><trkpt lat="40.7265045" lon="9.336926"><ele>484.75</ele><time>2026-04-13T09:34:06.709Z</time></trkpt><trkpt lat="40.7264534" lon="9.3367705"><ele>487.5</ele><time>2026-04-13T09:34:07.713Z</time></trkpt><trkpt lat="40.726391" lon="9.3366314"><ele>490.25</ele><time>2026-04-13T09:34:08.715Z</time></trkpt><trkpt lat="40.7263099" lon="9.3365031"><ele>493.0</ele><time>2026-04-13T09:34:09.719Z</time></trkpt><trkpt lat="40.7262119" lon="9.3363924"><ele>494.0</ele><time>2026-04-13T09:34:10.705Z</time></trkpt><trkpt lat="40.7261037" lon="9.3363035"><ele>495.0</ele><time>2026-04-13T09:34:11.71Z</time></trkpt><trkpt lat="40.7259833" lon="9.3362452"><ele>496.0</ele><time>2026-04-13T09:34:12.705Z</time></trkpt><trkpt lat="40.7258611" lon="9.3361959"><ele>497.0</ele><time>2026-04-13T09:34:13.726Z</time></trkpt><trkpt lat="40.7257294" lon="9.3361558"><ele>497.0</ele><time>2026-04-13T09:34:14.699Z</time></trkpt><trkpt lat="40.7255978" lon="9.3361263"><ele>497.0</ele><time>2026-04-13T09:34:15.713Z</time></trkpt><trkpt lat="40.7254642" lon="9.3361098"><ele>497.0</ele><time>2026-04-13T09:34:16.699Z</time></trkpt><trkpt lat="40.7253209" lon="9.3361049"><ele>497.0</ele><time>2026-04-13T09:34:17.693Z</time></trkpt><trkpt lat="40.725173" lon="9.3361014"><ele>495.0</ele><time>2026-04-13T09:34:18.688Z</time></trkpt><trkpt lat="40.7250273" lon="9.3361029"><ele>493.0</ele><time>2026-04-13T09:34:19.69Z</time></trkpt><trkpt lat="40.7248738" lon="9.3361106"><ele>491.0</ele><time>2026-04-13T09:34:20.696Z</time></trkpt><trkpt lat="40.7247215" lon="9.3361245"><ele>491.0</ele><time>2026-04-13T09:34:21.706Z</time></trkpt><trkpt lat="40.7245756" lon="9.3361388"><ele>491.0</ele><time>2026-04-13T09:34:22.687Z</time></trkpt><trkpt lat="40.7244355" lon="9.33615"><ele>491.0</ele><time>2026-04-13T09:34:23.695Z</time></trkpt><trkpt lat="40.7243028" lon="9.3361607"><ele>491.0</ele><time>2026-04-13T09:34:24.691Z</time></trkpt><trkpt lat="40.7241739" lon="9.3361653"><ele>492.0</ele><time>2026-04-13T09:34:25.7Z</time></trkpt><trkpt lat="40.7240536" lon="9.3361722"><ele>493.0</ele><time>2026-04-13T09:34:26.685Z</time></trkpt><trkpt lat="40.7239524" lon="9.3361459"><ele>494.0</ele><time>2026-04-13T09:34:27.686Z</time></trkpt><trkpt lat="40.7238587" lon="9.3360914"><ele>495.0</ele><time>2026-04-13T09:34:28.691Z</time></trkpt><trkpt lat="40.7237755" lon="9.3360175"><ele>496.0</ele><time>2026-04-13T09:34:29.689Z</time></trkpt><trkpt lat="40.7237054" lon="9.3359204"><ele>496.0</ele><time>2026-04-13T09:34:30.686Z</time></trkpt><trkpt lat="40.7236488" lon="9.3358068"><ele>496.0</ele><time>2026-04-13T09:34:31.704Z</time></trkpt><trkpt lat="40.7236006" lon="9.335674"><ele>496.0</ele><time>2026-04-13T09:34:32.681Z</time></trkpt><trkpt lat="40.7235536" lon="9.3355286"><ele>496.0</ele><time>2026-04-13T09:34:33.681Z</time></trkpt><trkpt lat="40.7235123" lon="9.3353749"><ele>497.25</ele><time>2026-04-13T09:34:34.685Z</time></trkpt><trkpt lat="40.7234658" lon="9.3352224"><ele>498.5</ele><time>2026-04-13T09:34:35.687Z</time></trkpt><trkpt lat="40.7234176" lon="9.3350577"><ele>499.75</ele><time>2026-04-13T09:34:36.694Z</time></trkpt><trkpt lat="40.7233452" lon="9.3348986"><ele>501.0</ele><time>2026-04-13T09:34:37.685Z</time></trkpt><trkpt lat="40.7232496" lon="9.3347533"><ele>503.75</ele><time>2026-04-13T09:34:38.686Z</time></trkpt><trkpt lat="40.7231434" lon="9.3346305"><ele>506.5</ele><time>2026-04-13T09:34:39.681Z</time></trkpt><trkpt lat="40.7230282" lon="9.3345131"><ele>509.25</ele><time>2026-04-13T09:34:40.687Z</time></trkpt><trkpt lat="40.7229058" lon="9.3344069"><ele>512.0</ele><time>2026-04-13T09:34:41.682Z</time></trkpt><trkpt lat="40.7227799" lon="9.3342985"><ele>509.5</ele><time>2026-04-13T09:34:42.687Z</time></trkpt><trkpt lat="40.7226556" lon="9.3341928"><ele>507.0</ele><time>2026-04-13T09:34:43.687Z</time></trkpt><trkpt lat="40.7225289" lon="9.3340885"><ele>504.5</ele><time>2026-04-13T09:34:44.689Z</time></trkpt><trkpt lat="40.7224015" lon="9.3339895"><ele>502.0</ele><time>2026-04-13T09:34:45.692Z</time></trkpt><trkpt lat="40.7222772" lon="9.3338896"><ele>503.75</ele><time>2026-04-13T09:34:46.68Z</time></trkpt><trkpt lat="40.7221575" lon="9.3337909"><ele>505.5</ele><time>2026-04-13T09:34:47.686Z</time></trkpt><trkpt lat="40.7220469" lon="9.3336907"><ele>507.25</ele><time>2026-04-13T09:34:48.684Z</time></trkpt><trkpt lat="40.7219404" lon="9.3335809"><ele>509.0</ele><time>2026-04-13T09:34:49.692Z</time></trkpt><trkpt lat="40.7218418" lon="9.3334639"><ele>509.0</ele><time>2026-04-13T09:34:50.69Z</time></trkpt><trkpt lat="40.7217429" lon="9.3333391"><ele>509.0</ele><time>2026-04-13T09:34:51.694Z</time></trkpt><trkpt lat="40.7216525" lon="9.3332094"><ele>509.0</ele><time>2026-04-13T09:34:52.685Z</time></trkpt><trkpt lat="40.7215624" lon="9.3330763"><ele>509.0</ele><time>2026-04-13T09:34:53.689Z</time></trkpt><trkpt lat="40.7214711" lon="9.3329449"><ele>514.5</ele><time>2026-04-13T09:34:54.684Z</time></trkpt><trkpt lat="40.7213802" lon="9.3328121"><ele>520.0</ele><time>2026-04-13T09:34:55.685Z</time></trkpt><trkpt lat="40.7212955" lon="9.3326668"><ele>525.5</ele><time>2026-04-13T09:34:56.689Z</time></trkpt><trkpt lat="40.7212113" lon="9.332519"><ele>531.0</ele><time>2026-04-13T09:34:57.693Z</time></trkpt><trkpt lat="40.721121" lon="9.3323692"><ele>529.5</ele><time>2026-04-13T09:34:58.682Z</time></trkpt><trkpt lat="40.7210279" lon="9.3322316"><ele>528.0</ele><time>2026-04-13T09:34:59.69Z</time></trkpt><trkpt lat="40.7209293" lon="9.3320982"><ele>526.5</ele><time>2026-04-13T09:35:00.682Z</time></trkpt><trkpt lat="40.7208347" lon="9.3319772"><ele>525.0</ele><time>2026-04-13T09:35:01.677Z</time></trkpt><trkpt lat="40.720744" lon="9.3318629"><ele>525.0</ele><time>2026-04-13T09:35:02.671Z</time></trkpt><trkpt lat="40.7206562" lon="9.3317488"><ele>525.0</ele><time>2026-04-13T09:35:03.679Z</time></trkpt><trkpt lat="40.7205648" lon="9.331633"><ele>525.0</ele><time>2026-04-13T09:35:04.676Z</time></trkpt><trkpt lat="40.7204673" lon="9.3315125"><ele>525.0</ele><time>2026-04-13T09:35:05.675Z</time></trkpt><trkpt lat="40.7203621" lon="9.3314"><ele>523.75</ele><time>2026-04-13T09:35:06.683Z</time></trkpt><trkpt lat="40.7202419" lon="9.3313082"><ele>522.5</ele><time>2026-04-13T09:35:07.673Z</time></trkpt><trkpt lat="40.7201181" lon="9.3312286"><ele>521.25</ele><time>2026-04-13T09:35:08.666Z</time></trkpt><trkpt lat="40.7199941" lon="9.3311641"><ele>520.0</ele><time>2026-04-13T09:35:09.77Z</time></trkpt><trkpt lat="40.7198796" lon="9.331096"><ele>520.0</ele><time>2026-04-13T09:35:10.78Z</time></trkpt><trkpt lat="40.719784" lon="9.3310188"><ele>520.0</ele><time>2026-04-13T09:35:11.771Z</time></trkpt><trkpt lat="40.7197075" lon="9.3309229"><ele>520.0</ele><time>2026-04-13T09:35:12.773Z</time></trkpt><trkpt lat="40.7196414" lon="9.3308074"><ele>520.0</ele><time>2026-04-13T09:35:13.772Z</time></trkpt><trkpt lat="40.7195779" lon="9.3306733"><ele>520.0</ele><time>2026-04-13T09:35:14.761Z</time></trkpt><trkpt lat="40.719505" lon="9.3305412"><ele>520.75</ele><time>2026-04-13T09:35:15.801Z</time></trkpt><trkpt lat="40.7194157" lon="9.3304177"><ele>521.5</ele><time>2026-04-13T09:35:16.769Z</time></trkpt><trkpt lat="40.7193167" lon="9.3303071"><ele>522.25</ele><time>2026-04-13T09:35:17.759Z</time></trkpt><trkpt lat="40.7191968" lon="9.3302102"><ele>523.0</ele><time>2026-04-13T09:35:18.762Z</time></trkpt><trkpt lat="40.7190679" lon="9.3301149"><ele>523.0</ele><time>2026-04-13T09:35:19.766Z</time></trkpt><trkpt lat="40.7189374" lon="9.3300134"><ele>523.0</ele><time>2026-04-13T09:35:20.761Z</time></trkpt><trkpt lat="40.7188052" lon="9.3299024"><ele>523.0</ele><time>2026-04-13T09:35:21.76Z</time></trkpt><trkpt lat="40.718681" lon="9.3297857"><ele>523.6666666666667</ele><time>2026-04-13T09:35:22.753Z</time></trkpt><trkpt lat="40.7185585" lon="9.3296682"><ele>524.3333333333334</ele><time>2026-04-13T09:35:23.758Z</time></trkpt><trkpt lat="40.7184362" lon="9.3295472"><ele>525.0</ele><time>2026-04-13T09:35:24.76Z</time></trkpt><trkpt lat="40.7183218" lon="9.3294259"><ele>525.0</ele><time>2026-04-13T09:35:25.747Z</time></trkpt><trkpt lat="40.7182125" lon="9.3293021"><ele>525.0</ele><time>2026-04-13T09:35:26.752Z</time></trkpt><trkpt lat="40.7181064" lon="9.32918"><ele>525.0</ele><time>2026-04-13T09:35:27.744Z</time></trkpt><trkpt lat="40.7180032" lon="9.3290618"><ele>525.0</ele><time>2026-04-13T09:35:28.754Z</time></trkpt><trkpt lat="40.7179015" lon="9.3289537"><ele>526.25</ele><time>2026-04-13T09:35:29.77Z</time></trkpt><trkpt lat="40.7178011" lon="9.3288532"><ele>527.5</ele><time>2026-04-13T09:35:30.747Z</time></trkpt><trkpt lat="40.7176985" lon="9.3287604"><ele>528.75</ele><time>2026-04-13T09:35:31.742Z</time></trkpt><trkpt lat="40.7175903" lon="9.3286831"><ele>530.0</ele><time>2026-04-13T09:35:32.744Z</time></trkpt><trkpt lat="40.7174687" lon="9.3286246"><ele>530.0</ele><time>2026-04-13T09:35:33.742Z</time></trkpt><trkpt lat="40.7173431" lon="9.3285712"><ele>530.0</ele><time>2026-04-13T09:35:34.733Z</time></trkpt><trkpt lat="40.7172181" lon="9.3285219"><ele>530.0</ele><time>2026-04-13T09:35:35.755Z</time></trkpt><trkpt lat="40.7171063" lon="9.3284507"><ele>530.0</ele><time>2026-04-13T09:35:36.744Z</time></trkpt><trkpt lat="40.7170042" lon="9.3283557"><ele>530.0</ele><time>2026-04-13T09:35:37.739Z</time></trkpt><trkpt lat="40.7169112" lon="9.3282529"><ele>530.0</ele><time>2026-04-13T09:35:38.736Z</time></trkpt><trkpt lat="40.7168217" lon="9.3281552"><ele>530.0</ele><time>2026-04-13T09:35:39.744Z</time></trkpt><trkpt lat="40.7167291" lon="9.3280568"><ele>530.0</ele><time>2026-04-13T09:35:40.749Z</time></trkpt><trkpt lat="40.7166362" lon="9.3279673"><ele>530.8</ele><time>2026-04-13T09:35:41.748Z</time></trkpt><trkpt lat="40.7165446" lon="9.3278918"><ele>531.6</ele><time>2026-04-13T09:35:42.744Z</time></trkpt><trkpt lat="40.7164596" lon="9.3278306"><ele>532.4</ele><time>2026-04-13T09:35:43.749Z</time></trkpt><trkpt lat="40.7163801" lon="9.3277761"><ele>533.2</ele><time>2026-04-13T09:35:44.742Z</time></trkpt><trkpt lat="40.7163079" lon="9.3277333"><ele>534.0</ele><time>2026-04-13T09:35:45.74Z</time></trkpt><trkpt lat="40.7162363" lon="9.3276953"><ele>534.0</ele><time>2026-04-13T09:35:46.746Z</time></trkpt><trkpt lat="40.7161723" lon="9.3276546"><ele>534.0</ele><time>2026-04-13T09:35:47.75Z</time></trkpt><trkpt lat="40.7161129" lon="9.3276256"><ele>534.0</ele><time>2026-04-13T09:35:48.756Z</time></trkpt><trkpt lat="40.7160116" lon="9.3275667"><ele>534.0</ele><time>2026-04-13T09:35:50.743Z</time></trkpt><trkpt lat="40.7159154" lon="9.3275072"><ele>534.0</ele><time>2026-04-13T09:35:52.745Z</time></trkpt><trkpt lat="40.7158262" lon="9.3274376"><ele>534.6</ele><time>2026-04-13T09:35:54.752Z</time></trkpt><trkpt lat="40.7157812" lon="9.3273749"><ele>535.2</ele><time>2026-04-13T09:35:56.753Z</time></trkpt><trkpt lat="40.7156925" lon="9.3273013"><ele>535.8000000000001</ele><time>2026-04-13T09:35:59.773Z</time></trkpt><trkpt lat="40.7155966" lon="9.3272621"><ele>536.4</ele><time>2026-04-13T09:36:01.744Z</time></trkpt><trkpt lat="40.7154845" lon="9.3272103"><ele>537.0</ele><time>2026-04-13T09:36:03.755Z</time></trkpt><trkpt lat="40.7153655" lon="9.3271504"><ele>537.0</ele><time>2026-04-13T09:36:05.755Z</time></trkpt><trkpt lat="40.7153021" lon="9.3271177"><ele>537.0</ele><time>2026-04-13T09:36:06.756Z</time></trkpt><trkpt lat="40.7152447" lon="9.3270793"><ele>537.0</ele><time>2026-04-13T09:36:07.76Z</time></trkpt><trkpt lat="40.7151962" lon="9.3270256"><ele>537.0</ele><time>2026-04-13T09:36:08.753Z</time></trkpt><trkpt lat="40.7151564" lon="9.3269568"><ele>537.0</ele><time>2026-04-13T09:36:09.752Z</time></trkpt><trkpt lat="40.7151305" lon="9.3268718"><ele>537.0</ele><time>2026-04-13T09:36:10.746Z</time></trkpt><trkpt lat="40.7151399" lon="9.3267054"><ele>539.8333333333334</ele><time>2026-04-13T09:36:12.756Z</time></trkpt><trkpt lat="40.7151509" lon="9.3266116"><ele>542.6666666666666</ele><time>2026-04-13T09:36:13.772Z</time></trkpt><trkpt lat="40.7151634" lon="9.3265194"><ele>545.5</ele><time>2026-04-13T09:36:14.745Z</time></trkpt><trkpt lat="40.7151284" lon="9.3263561"><ele>548.3333333333333</ele><time>2026-04-13T09:36:16.734Z</time></trkpt><trkpt lat="40.7150899" lon="9.3262754"><ele>551.1666666666666</ele><time>2026-04-13T09:36:17.729Z</time></trkpt><trkpt lat="40.7150486" lon="9.3262034"><ele>554.0</ele><time>2026-04-13T09:36:18.733Z</time></trkpt><trkpt lat="40.715004" lon="9.3261356"><ele>554.0</ele><time>2026-04-13T09:36:19.729Z</time></trkpt><trkpt lat="40.7149582" lon="9.3260707"><ele>554.0</ele><time>2026-04-13T09:36:20.751Z</time></trkpt><trkpt lat="40.7148906" lon="9.326027"><ele>554.0</ele><time>2026-04-13T09:36:21.75Z</time></trkpt><trkpt lat="40.7148195" lon="9.326007"><ele>554.0</ele><time>2026-04-13T09:36:22.736Z</time></trkpt><trkpt lat="40.7147564" lon="9.3259962"><ele>554.0</ele><time>2026-04-13T09:36:23.762Z</time></trkpt><trkpt lat="40.7146698" lon="9.3259671"><ele>554.0</ele><time>2026-04-13T09:36:25.742Z</time></trkpt><trkpt lat="40.7146013" lon="9.325922"><ele>554.0</ele><time>2026-04-13T09:36:27.725Z</time></trkpt><trkpt lat="40.7145125" lon="9.3258768"><ele>554.0</ele><time>2026-04-13T09:36:29.719Z</time></trkpt><trkpt lat="40.7144495" lon="9.3258392"><ele>554.0</ele><time>2026-04-13T09:36:30.705Z</time></trkpt><trkpt lat="40.7143957" lon="9.325789"><ele>554.0</ele><time>2026-04-13T09:36:31.755Z</time></trkpt><trkpt lat="40.7143052" lon="9.3256851"><ele>554.0</ele><time>2026-04-13T09:36:33.715Z</time></trkpt><trkpt lat="40.7142138" lon="9.3255864"><ele>554.0</ele><time>2026-04-13T09:36:35.718Z</time></trkpt><trkpt lat="40.7141282" lon="9.3254745"><ele>552.8</ele><time>2026-04-13T09:36:37.716Z</time></trkpt><trkpt lat="40.7140599" lon="9.3253746"><ele>551.5999999999999</ele><time>2026-04-13T09:36:39.715Z</time></trkpt><trkpt lat="40.7139708" lon="9.3252616"><ele>550.4</ele><time>2026-04-13T09:36:41.701Z</time></trkpt><trkpt lat="40.7139268" lon="9.3251991"><ele>549.1999999999999</ele><time>2026-04-13T09:36:42.697Z</time></trkpt><trkpt lat="40.7138462" lon="9.3250783"><ele>548.0</ele><time>2026-04-13T09:36:44.708Z</time></trkpt><trkpt lat="40.7138095" lon="9.3250057"><ele>548.0</ele><time>2026-04-13T09:36:45.71Z</time></trkpt><trkpt lat="40.7137792" lon="9.3249318"><ele>548.0</ele><time>2026-04-13T09:36:46.713Z</time></trkpt><trkpt lat="40.7137391" lon="9.3247898"><ele>548.0</ele><time>2026-04-13T09:36:48.697Z</time></trkpt><trkpt lat="40.7136759" lon="9.3246473"><ele>548.0</ele><time>2026-04-13T09:36:50.696Z</time></trkpt><trkpt lat="40.7136349" lon="9.3245731"><ele>548.0</ele><time>2026-04-13T09:36:51.692Z</time></trkpt><trkpt lat="40.7135848" lon="9.3245057"><ele>548.0</ele><time>2026-04-13T09:36:52.716Z</time></trkpt><trkpt lat="40.7135339" lon="9.3244395"><ele>549.4285714285714</ele><time>2026-04-13T09:36:53.716Z</time></trkpt><trkpt lat="40.7134814" lon="9.3243757"><ele>550.8571428571429</ele><time>2026-04-13T09:36:54.691Z</time></trkpt><trkpt lat="40.7134322" lon="9.32431"><ele>552.2857142857142</ele><time>2026-04-13T09:36:55.705Z</time></trkpt><trkpt lat="40.7133885" lon="9.3242427"><ele>553.7142857142858</ele><time>2026-04-13T09:36:56.692Z</time></trkpt><trkpt lat="40.7133458" lon="9.3241751"><ele>555.1428571428571</ele><time>2026-04-13T09:36:57.697Z</time></trkpt><trkpt lat="40.7133023" lon="9.3241044"><ele>556.5714285714286</ele><time>2026-04-13T09:36:58.705Z</time></trkpt><trkpt lat="40.7132533" lon="9.3240396"><ele>558.0</ele><time>2026-04-13T09:36:59.701Z</time></trkpt><trkpt lat="40.7131897" lon="9.3239758"><ele>558.0</ele><time>2026-04-13T09:37:00.714Z</time></trkpt><trkpt lat="40.713113" lon="9.3239023"><ele>558.0</ele><time>2026-04-13T09:37:01.701Z</time></trkpt><trkpt lat="40.7130369" lon="9.3238216"><ele>558.0</ele><time>2026-04-13T09:37:02.711Z</time></trkpt><trkpt lat="40.7129714" lon="9.3237432"><ele>558.0</ele><time>2026-04-13T09:37:03.696Z</time></trkpt><trkpt lat="40.7129198" lon="9.323649"><ele>558.0</ele><time>2026-04-13T09:37:04.701Z</time></trkpt><trkpt lat="40.7128856" lon="9.3235492"><ele>558.1666666666666</ele><time>2026-04-13T09:37:05.699Z</time></trkpt><trkpt lat="40.7128461" lon="9.3234569"><ele>558.3333333333334</ele><time>2026-04-13T09:37:06.7Z</time></trkpt><trkpt lat="40.7128035" lon="9.3233673"><ele>558.5</ele><time>2026-04-13T09:37:07.71Z</time></trkpt><trkpt lat="40.7127613" lon="9.323285"><ele>558.6666666666667</ele><time>2026-04-13T09:37:08.722Z</time></trkpt><trkpt lat="40.7127151" lon="9.3232137"><ele>558.8333333333334</ele><time>2026-04-13T09:37:09.702Z</time></trkpt><trkpt lat="40.7126618" lon="9.3231483"><ele>559.0</ele><time>2026-04-13T09:37:10.748Z</time></trkpt><trkpt lat="40.7126038" lon="9.3230787"><ele>559.5</ele><time>2026-04-13T09:37:11.692Z</time></trkpt><trkpt lat="40.7125489" lon="9.3229974"><ele>560.0</ele><time>2026-04-13T09:37:12.694Z</time></trkpt><trkpt lat="40.7124921" lon="9.3229044"><ele>560.5</ele><time>2026-04-13T09:37:13.707Z</time></trkpt><trkpt lat="40.7124304" lon="9.3228167"><ele>561.0</ele><time>2026-04-13T09:37:14.694Z</time></trkpt><trkpt lat="40.7123587" lon="9.3227446"><ele>561.5</ele><time>2026-04-13T09:37:15.708Z</time></trkpt><trkpt lat="40.7122869" lon="9.3226771"><ele>562.0</ele><time>2026-04-13T09:37:16.698Z</time></trkpt><trkpt lat="40.7122171" lon="9.3226092"><ele>562.0</ele><time>2026-04-13T09:37:17.683Z</time></trkpt><trkpt lat="40.7121549" lon="9.3225399"><ele>562.0</ele><time>2026-04-13T09:37:18.693Z</time></trkpt><trkpt lat="40.7120936" lon="9.3224835"><ele>562.0</ele><time>2026-04-13T09:37:19.698Z</time></trkpt><trkpt lat="40.7120136" lon="9.3224373"><ele>562.0</ele><time>2026-04-13T09:37:20.692Z</time></trkpt><trkpt lat="40.7119333" lon="9.3223978"><ele>562.0</ele><time>2026-04-13T09:37:21.69Z</time></trkpt><trkpt lat="40.7118452" lon="9.3223605"><ele>562.0</ele><time>2026-04-13T09:37:22.683Z</time></trkpt><trkpt lat="40.711756" lon="9.3223375"><ele>563.1666666666667</ele><time>2026-04-13T09:37:23.688Z</time></trkpt><trkpt lat="40.7116729" lon="9.3223015"><ele>564.3333333333334</ele><time>2026-04-13T09:37:24.697Z</time></trkpt><trkpt lat="40.7115841" lon="9.3222743"><ele>565.5</ele><time>2026-04-13T09:37:25.694Z</time></trkpt><trkpt lat="40.7115005" lon="9.3222499"><ele>566.6666666666666</ele><time>2026-04-13T09:37:26.685Z</time></trkpt><trkpt lat="40.7114301" lon="9.3222297"><ele>567.8333333333333</ele><time>2026-04-13T09:37:27.676Z</time></trkpt><trkpt lat="40.7113667" lon="9.3222061"><ele>569.0</ele><time>2026-04-13T09:37:28.685Z</time></trkpt><trkpt lat="40.7112933" lon="9.3221188"><ele>569.8</ele><time>2026-04-13T09:37:30.694Z</time></trkpt><trkpt lat="40.7112616" lon="9.3219686"><ele>570.5999999999999</ele><time>2026-04-13T09:37:32.682Z</time></trkpt><trkpt lat="40.711162" lon="9.3218875"><ele>571.4</ele><time>2026-04-13T09:37:34.679Z</time></trkpt><trkpt lat="40.7110927" lon="9.3218879"><ele>572.1999999999999</ele><time>2026-04-13T09:37:35.709Z</time></trkpt><trkpt lat="40.7110056" lon="9.3218908"><ele>573.0</ele><time>2026-04-13T09:37:36.682Z</time></trkpt><trkpt lat="40.7109263" lon="9.3218868"><ele>574.1999999999999</ele><time>2026-04-13T09:37:37.701Z</time></trkpt><trkpt lat="40.710862" lon="9.3218829"><ele>575.4</ele><time>2026-04-13T09:37:38.785Z</time></trkpt><trkpt lat="40.710751" lon="9.3218606"><ele>576.5999999999999</ele><time>2026-04-13T09:37:40.784Z</time></trkpt><trkpt lat="40.7107142" lon="9.3217774"><ele>577.8</ele><time>2026-04-13T09:37:42.783Z</time></trkpt><trkpt lat="40.7107609" lon="9.3216849"><ele>579.0</ele><time>2026-04-13T09:37:44.767Z</time></trkpt><trkpt lat="40.7108856" lon="9.3216426"><ele>579.0</ele><time>2026-04-13T09:37:46.776Z</time></trkpt><trkpt lat="40.710955" lon="9.3216116"><ele>579.0</ele><time>2026-04-13T09:37:47.768Z</time></trkpt><trkpt lat="40.7110273" lon="9.3215676"><ele>579.0</ele><time>2026-04-13T09:37:48.757Z</time></trkpt><trkpt lat="40.7111055" lon="9.3215263"><ele>579.0</ele><time>2026-04-13T09:37:49.77Z</time></trkpt><trkpt lat="40.7111829" lon="9.321485"><ele>579.0</ele><time>2026-04-13T09:37:50.765Z</time></trkpt><trkpt lat="40.7112643" lon="9.3214389"><ele>579.0</ele><time>2026-04-13T09:37:51.765Z</time></trkpt><trkpt lat="40.711347" lon="9.3213884"><ele>583.0</ele><time>2026-04-13T09:37:52.76Z</time></trkpt><trkpt lat="40.7114276" lon="9.3213365"><ele>587.0</ele><time>2026-04-13T09:37:53.77Z</time></trkpt><trkpt lat="40.7115079" lon="9.3212849"><ele>591.0</ele><time>2026-04-13T09:37:54.766Z</time></trkpt><trkpt lat="40.7115867" lon="9.3212356"><ele>595.0</ele><time>2026-04-13T09:37:55.772Z</time></trkpt><trkpt lat="40.7116666" lon="9.3211937"><ele>599.0</ele><time>2026-04-13T09:37:56.771Z</time></trkpt><trkpt lat="40.7117513" lon="9.3211612"><ele>603.0</ele><time>2026-04-13T09:37:57.764Z</time></trkpt><trkpt lat="40.7118395" lon="9.3211432"><ele>603.0</ele><time>2026-04-13T09:37:58.793Z</time></trkpt><trkpt lat="40.7119179" lon="9.3211346"><ele>603.0</ele><time>2026-04-13T09:37:59.8Z</time></trkpt><trkpt lat="40.7119881" lon="9.3211218"><ele>603.0</ele><time>2026-04-13T09:38:00.775Z</time></trkpt><trkpt lat="40.7120648" lon="9.3210862"><ele>603.0</ele><time>2026-04-13T09:38:02.776Z</time></trkpt><trkpt lat="40.7119922" lon="9.320987"><ele>603.0</ele><time>2026-04-13T09:38:05.772Z</time></trkpt><trkpt lat="40.7119185" lon="9.3209534"><ele>603.0</ele><time>2026-04-13T09:38:06.777Z</time></trkpt><trkpt lat="40.7118418" lon="9.3209099"><ele>603.0</ele><time>2026-04-13T09:38:07.773Z</time></trkpt><trkpt lat="40.7117719" lon="9.3208695"><ele>603.0</ele><time>2026-04-13T09:38:08.766Z</time></trkpt><trkpt lat="40.7117099" lon="9.3208273"><ele>603.0</ele><time>2026-04-13T09:38:09.763Z</time></trkpt><trkpt lat="40.7116487" lon="9.3207772"><ele>603.0</ele><time>2026-04-13T09:38:10.767Z</time></trkpt><trkpt lat="40.7115891" lon="9.3207304"><ele>603.0</ele><time>2026-04-13T09:38:11.773Z</time></trkpt><trkpt lat="40.7115207" lon="9.3206937"><ele>603.0</ele><time>2026-04-13T09:38:12.765Z</time></trkpt><trkpt lat="40.7114438" lon="9.3206724"><ele>603.0</ele><time>2026-04-13T09:38:13.87Z</time></trkpt><trkpt lat="40.7113767" lon="9.3206575"><ele>603.0</ele><time>2026-04-13T09:38:14.77Z</time></trkpt><trkpt lat="40.7113092" lon="9.3206295"><ele>603.0</ele><time>2026-04-13T09:38:15.772Z</time></trkpt><trkpt lat="40.711242" lon="9.3205902"><ele>603.0</ele><time>2026-04-13T09:38:16.776Z</time></trkpt><trkpt lat="40.7111749" lon="9.3205508"><ele>603.0</ele><time>2026-04-13T09:38:17.775Z</time></trkpt><trkpt lat="40.711102" lon="9.3205081"><ele>603.0</ele><time>2026-04-13T09:38:18.764Z</time></trkpt><trkpt lat="40.7110301" lon="9.3204611"><ele>603.0</ele><time>2026-04-13T09:38:19.816Z</time></trkpt><trkpt lat="40.7109629" lon="9.3204139"><ele>607.0</ele><time>2026-04-13T09:38:20.761Z</time></trkpt><trkpt lat="40.7108986" lon="9.3203598"><ele>611.0</ele><time>2026-04-13T09:38:21.771Z</time></trkpt><trkpt lat="40.710832" lon="9.3202958"><ele>615.0</ele><time>2026-04-13T09:38:22.76Z</time></trkpt><trkpt lat="40.7107675" lon="9.3202214"><ele>619.0</ele><time>2026-04-13T09:38:23.78Z</time></trkpt><trkpt lat="40.7107038" lon="9.3201481"><ele>623.0</ele><time>2026-04-13T09:38:24.765Z</time></trkpt><trkpt lat="40.71064" lon="9.3200748"><ele>627.0</ele><time>2026-04-13T09:38:25.761Z</time></trkpt><trkpt lat="40.7105775" lon="9.3200019"><ele>627.0</ele><time>2026-04-13T09:38:26.764Z</time></trkpt><trkpt lat="40.7105169" lon="9.3199261"><ele>627.0</ele><time>2026-04-13T09:38:27.77Z</time></trkpt><trkpt lat="40.710456" lon="9.3198406"><ele>627.0</ele><time>2026-04-13T09:38:28.781Z</time></trkpt><trkpt lat="40.7103976" lon="9.3197457"><ele>627.0</ele><time>2026-04-13T09:38:29.77Z</time></trkpt><trkpt lat="40.7103372" lon="9.3196459"><ele>627.0</ele><time>2026-04-13T09:38:30.763Z</time></trkpt><trkpt lat="40.7102759" lon="9.3195403"><ele>630.0</ele><time>2026-04-13T09:38:31.773Z</time></trkpt><trkpt lat="40.7102146" lon="9.3194353"><ele>633.0</ele><time>2026-04-13T09:38:32.774Z</time></trkpt><trkpt lat="40.7101426" lon="9.3193361"><ele>636.0</ele><time>2026-04-13T09:38:33.778Z</time></trkpt><trkpt lat="40.7100689" lon="9.3192486"><ele>639.0</ele><time>2026-04-13T09:38:34.764Z</time></trkpt><trkpt lat="40.7099866" lon="9.3191792"><ele>642.0</ele><time>2026-04-13T09:38:35.771Z</time></trkpt><trkpt lat="40.7098953" lon="9.3191297"><ele>642.0</ele><time>2026-04-13T09:38:36.757Z</time></trkpt><trkpt lat="40.7097964" lon="9.3190983"><ele>642.0</ele><time>2026-04-13T09:38:37.762Z</time></trkpt><trkpt lat="40.7096949" lon="9.3190804"><ele>642.0</ele><time>2026-04-13T09:38:38.757Z</time></trkpt><trkpt lat="40.7095913" lon="9.319066"><ele>642.0</ele><time>2026-04-13T09:38:39.754Z</time></trkpt><trkpt lat="40.7094895" lon="9.3190456"><ele>642.0</ele><time>2026-04-13T09:38:40.749Z</time></trkpt><trkpt lat="40.7093883" lon="9.3190222"><ele>643.4000000000001</ele><time>2026-04-13T09:38:41.772Z</time></trkpt><trkpt lat="40.7092878" lon="9.3189964"><ele>644.8000000000001</ele><time>2026-04-13T09:38:42.752Z</time></trkpt><trkpt lat="40.7091857" lon="9.3189694"><ele>646.2</ele><time>2026-04-13T09:38:43.757Z</time></trkpt><trkpt lat="40.7090863" lon="9.3189502"><ele>647.6</ele><time>2026-04-13T09:38:44.751Z</time></trkpt><trkpt lat="40.7089941" lon="9.31893"><ele>649.0</ele><time>2026-04-13T09:38:45.74Z</time></trkpt><trkpt lat="40.7089043" lon="9.3189164"><ele>651.8333333333334</ele><time>2026-04-13T09:38:46.757Z</time></trkpt><trkpt lat="40.708827" lon="9.3188989"><ele>654.6666666666667</ele><time>2026-04-13T09:38:47.771Z</time></trkpt><trkpt lat="40.7087617" lon="9.3188834"><ele>657.5</ele><time>2026-04-13T09:38:48.749Z</time></trkpt><trkpt lat="40.7086908" lon="9.3188617"><ele>660.3333333333334</ele><time>2026-04-13T09:38:49.746Z</time></trkpt><trkpt lat="40.7086161" lon="9.3188158"><ele>663.1666666666666</ele><time>2026-04-13T09:38:50.741Z</time></trkpt><trkpt lat="40.7085443" lon="9.3187638"><ele>666.0</ele><time>2026-04-13T09:38:51.743Z</time></trkpt><trkpt lat="40.708476" lon="9.3186985"><ele>666.0</ele><time>2026-04-13T09:38:52.778Z</time></trkpt><trkpt lat="40.708414" lon="9.318627"><ele>666.0</ele><time>2026-04-13T09:38:53.745Z</time></trkpt><trkpt lat="40.708362" lon="9.3185554"><ele>666.0</ele><time>2026-04-13T09:38:54.741Z</time></trkpt><trkpt lat="40.7083224" lon="9.3184808"><ele>666.0</ele><time>2026-04-13T09:38:55.747Z</time></trkpt><trkpt lat="40.7082895" lon="9.318399"><ele>666.0</ele><time>2026-04-13T09:38:56.732Z</time></trkpt><trkpt lat="40.708265" lon="9.3183144"><ele>666.0</ele><time>2026-04-13T09:38:57.745Z</time></trkpt><trkpt lat="40.7082479" lon="9.3182188"><ele>666.0</ele><time>2026-04-13T09:38:58.727Z</time></trkpt><trkpt lat="40.7082357" lon="9.3181188"><ele>669.5</ele><time>2026-04-13T09:38:59.753Z</time></trkpt><trkpt lat="40.7082301" lon="9.3180129"><ele>673.0</ele><time>2026-04-13T09:39:00.725Z</time></trkpt><trkpt lat="40.7082228" lon="9.3179037"><ele>676.5</ele><time>2026-04-13T09:39:01.723Z</time></trkpt><trkpt lat="40.7082071" lon="9.3177904"><ele>680.0</ele><time>2026-04-13T09:39:02.745Z</time></trkpt><trkpt lat="40.7081796" lon="9.3176899"><ele>683.5</ele><time>2026-04-13T09:39:03.723Z</time></trkpt><trkpt lat="40.7081439" lon="9.317616"><ele>687.0</ele><time>2026-04-13T09:39:04.724Z</time></trkpt><trkpt lat="40.7080443" lon="9.3175324"><ele>687.0</ele><time>2026-04-13T09:39:06.753Z</time></trkpt><trkpt lat="40.7079787" lon="9.3174964"><ele>687.0</ele><time>2026-04-13T09:39:07.72Z</time></trkpt><trkpt lat="40.7079194" lon="9.317461"><ele>687.0</ele><time>2026-04-13T09:39:08.712Z</time></trkpt><trkpt lat="40.7078495" lon="9.3173972"><ele>687.0</ele><time>2026-04-13T09:39:10.727Z</time></trkpt><trkpt lat="40.7078875" lon="9.3173221"><ele>687.0</ele><time>2026-04-13T09:39:12.747Z</time></trkpt><trkpt lat="40.7079926" lon="9.3173366"><ele>687.0</ele><time>2026-04-13T09:39:14.715Z</time></trkpt><trkpt lat="40.7080566" lon="9.317352"><ele>687.0</ele><time>2026-04-13T09:39:15.723Z</time></trkpt><trkpt lat="40.7081238" lon="9.3173655"><ele>687.0</ele><time>2026-04-13T09:39:16.716Z</time></trkpt><trkpt lat="40.7081919" lon="9.3173795"><ele>687.0</ele><time>2026-04-13T09:39:17.704Z</time></trkpt><trkpt lat="40.7082687" lon="9.3173986"><ele>687.0</ele><time>2026-04-13T09:39:18.704Z</time></trkpt><trkpt lat="40.7083637" lon="9.3174212"><ele>687.0</ele><time>2026-04-13T09:39:19.743Z</time></trkpt><trkpt lat="40.7084652" lon="9.3174471"><ele>687.0</ele><time>2026-04-13T09:39:20.721Z</time></trkpt><trkpt lat="40.7085634" lon="9.3174726"><ele>690.4000000000001</ele><time>2026-04-13T09:39:21.702Z</time></trkpt><trkpt lat="40.7086607" lon="9.3174981"><ele>693.8000000000001</ele><time>2026-04-13T09:39:22.702Z</time></trkpt><trkpt lat="40.7087551" lon="9.3175224"><ele>697.2</ele><time>2026-04-13T09:39:23.698Z</time></trkpt><trkpt lat="40.7088457" lon="9.3175481"><ele>700.6</ele><time>2026-04-13T09:39:24.705Z</time></trkpt><trkpt lat="40.7089345" lon="9.3175768"><ele>704.0</ele><time>2026-04-13T09:39:25.696Z</time></trkpt><trkpt lat="40.7090163" lon="9.3176063"><ele>704.0</ele><time>2026-04-13T09:39:26.697Z</time></trkpt><trkpt lat="40.7090926" lon="9.3176308"><ele>704.0</ele><time>2026-04-13T09:39:27.704Z</time></trkpt><trkpt lat="40.7091621" lon="9.3176531"><ele>704.0</ele><time>2026-04-13T09:39:28.705Z</time></trkpt><trkpt lat="40.7092523" lon="9.3176423"><ele>704.0</ele><time>2026-04-13T09:39:30.752Z</time></trkpt><trkpt lat="40.7092409" lon="9.3175505"><ele>704.0</ele><time>2026-04-13T09:39:32.712Z</time></trkpt><trkpt lat="40.709129" lon="9.3174944"><ele>704.0</ele><time>2026-04-13T09:39:34.697Z</time></trkpt><trkpt lat="40.7090685" lon="9.3174304"><ele>704.0</ele><time>2026-04-13T09:39:35.702Z</time></trkpt><trkpt lat="40.709009" lon="9.3173615"><ele>704.0</ele><time>2026-04-13T09:39:36.711Z</time></trkpt><trkpt lat="40.7089454" lon="9.3172797"><ele>704.0</ele><time>2026-04-13T09:39:37.698Z</time></trkpt><trkpt lat="40.7088833" lon="9.3171879"><ele>704.0</ele><time>2026-04-13T09:39:38.687Z</time></trkpt><trkpt lat="40.7088337" lon="9.3170873"><ele>704.0</ele><time>2026-04-13T09:39:39.703Z</time></trkpt><trkpt lat="40.7087905" lon="9.3169819"><ele>704.0</ele><time>2026-04-13T09:39:40.684Z</time></trkpt><trkpt lat="40.7087478" lon="9.3168818"><ele>708.0</ele><time>2026-04-13T09:39:41.695Z</time></trkpt><trkpt lat="40.7087021" lon="9.3167777"><ele>712.0</ele><time>2026-04-13T09:39:42.72Z</time></trkpt><trkpt lat="40.7086584" lon="9.3166723"><ele>716.0</ele><time>2026-04-13T09:39:43.697Z</time></trkpt><trkpt lat="40.708619" lon="9.3165654"><ele>720.0</ele><time>2026-04-13T09:39:44.685Z</time></trkpt><trkpt lat="40.7085823" lon="9.3164675"><ele>724.0</ele><time>2026-04-13T09:39:45.717Z</time></trkpt><trkpt lat="40.7085539" lon="9.316363"><ele>728.0</ele><time>2026-04-13T09:39:46.696Z</time></trkpt><trkpt lat="40.708547" lon="9.3162567"><ele>728.5</ele><time>2026-04-13T09:39:47.694Z</time></trkpt><trkpt lat="40.7085684" lon="9.3161481"><ele>729.0</ele><time>2026-04-13T09:39:48.692Z</time></trkpt><trkpt lat="40.7086082" lon="9.3160436"><ele>729.5</ele><time>2026-04-13T09:39:49.694Z</time></trkpt><trkpt lat="40.7086535" lon="9.3159522"><ele>730.0</ele><time>2026-04-13T09:39:50.708Z</time></trkpt><trkpt lat="40.7087045" lon="9.3158856"><ele>730.5</ele><time>2026-04-13T09:39:51.699Z</time></trkpt><trkpt lat="40.7087547" lon="9.3158323"><ele>731.0</ele><time>2026-04-13T09:39:52.683Z</time></trkpt><trkpt lat="40.7088204" lon="9.3158048"><ele>731.0</ele><time>2026-04-13T09:39:53.69Z</time></trkpt><trkpt lat="40.7088906" lon="9.3157914"><ele>731.0</ele><time>2026-04-13T09:39:54.678Z</time></trkpt><trkpt lat="40.7089712" lon="9.3158031"><ele>731.0</ele><time>2026-04-13T09:39:55.687Z</time></trkpt><trkpt lat="40.7090502" lon="9.3158383"><ele>731.0</ele><time>2026-04-13T09:39:56.72Z</time></trkpt><trkpt lat="40.7091195" lon="9.3158483"><ele>731.0</ele><time>2026-04-13T09:39:57.685Z</time></trkpt><trkpt lat="40.7092118" lon="9.3157743"><ele>731.0</ele><time>2026-04-13T09:39:59.689Z</time></trkpt><trkpt lat="40.709235" lon="9.3156966"><ele>733.0</ele><time>2026-04-13T09:40:00.682Z</time></trkpt><trkpt lat="40.7092634" lon="9.3155404"><ele>735.0</ele><time>2026-04-13T09:40:02.685Z</time></trkpt><trkpt lat="40.7092598" lon="9.3154567"><ele>737.0</ele><time>2026-04-13T09:40:03.67Z</time></trkpt><trkpt lat="40.7092391" lon="9.3153758"><ele>739.0</ele><time>2026-04-13T09:40:04.688Z</time></trkpt><trkpt lat="40.7092036" lon="9.3152987"><ele>741.0</ele><time>2026-04-13T09:40:05.782Z</time></trkpt><trkpt lat="40.7091623" lon="9.3152293"><ele>743.0</ele><time>2026-04-13T09:40:06.766Z</time></trkpt><trkpt lat="40.7091162" lon="9.3151595"><ele>743.0</ele><time>2026-04-13T09:40:07.807Z</time></trkpt><trkpt lat="40.7090295" lon="9.31502"><ele>743.0</ele><time>2026-04-13T09:40:09.669Z</time></trkpt><trkpt lat="40.7089839" lon="9.3149489"><ele>743.0</ele><time>2026-04-13T09:40:10.675Z</time></trkpt><trkpt lat="40.7089452" lon="9.3148818"><ele>743.0</ele><time>2026-04-13T09:40:11.765Z</time></trkpt><trkpt lat="40.7089251" lon="9.3147296"><ele>743.0</ele><time>2026-04-13T09:40:13.768Z</time></trkpt><trkpt lat="40.7089348" lon="9.314638"><ele>743.0</ele><time>2026-04-13T09:40:14.762Z</time></trkpt><trkpt lat="40.7089614" lon="9.3145512"><ele>743.0</ele><time>2026-04-13T09:40:15.784Z</time></trkpt><trkpt lat="40.7089854" lon="9.3144677"><ele>743.0</ele><time>2026-04-13T09:40:17.835Z</time></trkpt><trkpt lat="40.7091061" lon="9.3136321"><ele>741.2</ele><time>2026-04-13T09:42:01.76Z</time></trkpt><trkpt lat="40.709084" lon="9.3135494"><ele>739.4</ele><time>2026-04-13T09:42:30.74Z</time></trkpt><trkpt lat="40.7090309" lon="9.3134728"><ele>737.6</ele><time>2026-04-13T09:42:33.778Z</time></trkpt><trkpt lat="40.7089579" lon="9.3133774"><ele>735.8000000000001</ele><time>2026-04-13T09:42:36.726Z</time></trkpt><trkpt lat="40.7088905" lon="9.3132966"><ele>734.0</ele><time>2026-04-13T09:42:38.722Z</time></trkpt><trkpt lat="40.7088162" lon="9.3131873"><ele>734.0</ele><time>2026-04-13T09:42:40.727Z</time></trkpt><trkpt lat="40.7087425" lon="9.3130837"><ele>734.0</ele><time>2026-04-13T09:42:42.735Z</time></trkpt><trkpt lat="40.708657" lon="9.3129636"><ele>734.0</ele><time>2026-04-13T09:42:44.718Z</time></trkpt><trkpt lat="40.7086049" lon="9.3128828"><ele>734.0</ele><time>2026-04-13T09:42:45.723Z</time></trkpt><trkpt lat="40.7085534" lon="9.3127922"><ele>734.0</ele><time>2026-04-13T09:42:46.723Z</time></trkpt><trkpt lat="40.7085017" lon="9.3126957"><ele>733.8000000000001</ele><time>2026-04-13T09:42:47.722Z</time></trkpt><trkpt lat="40.7084494" lon="9.3125958"><ele>733.6</ele><time>2026-04-13T09:42:48.722Z</time></trkpt><trkpt lat="40.7083965" lon="9.3124979"><ele>733.4</ele><time>2026-04-13T09:42:49.718Z</time></trkpt><trkpt lat="40.7083409" lon="9.3123895"><ele>733.2</ele><time>2026-04-13T09:42:50.716Z</time></trkpt><trkpt lat="40.7082848" lon="9.3122792"><ele>733.0</ele><time>2026-04-13T09:42:51.724Z</time></trkpt><trkpt lat="40.7082296" lon="9.3121679"><ele>730.4</ele><time>2026-04-13T09:42:52.712Z</time></trkpt><trkpt lat="40.7081713" lon="9.3120583"><ele>727.8</ele><time>2026-04-13T09:42:53.725Z</time></trkpt><trkpt lat="40.7081168" lon="9.3119486"><ele>725.2</ele><time>2026-04-13T09:42:54.72Z</time></trkpt><trkpt lat="40.7080621" lon="9.3118396"><ele>722.6</ele><time>2026-04-13T09:42:55.72Z</time></trkpt><trkpt lat="40.7080049" lon="9.3117198"><ele>720.0</ele><time>2026-04-13T09:42:56.715Z</time></trkpt><trkpt lat="40.7079401" lon="9.3115983"><ele>720.0</ele><time>2026-04-13T09:42:57.722Z</time></trkpt><trkpt lat="40.707876" lon="9.3114694"><ele>720.0</ele><time>2026-04-13T09:42:58.716Z</time></trkpt><trkpt lat="40.7078085" lon="9.3113346"><ele>720.0</ele><time>2026-04-13T09:42:59.715Z</time></trkpt><trkpt lat="40.7077429" lon="9.3112042"><ele>720.0</ele><time>2026-04-13T09:43:00.709Z</time></trkpt><trkpt lat="40.7076735" lon="9.3110735"><ele>721.0</ele><time>2026-04-13T09:43:01.712Z</time></trkpt><trkpt lat="40.7076022" lon="9.3109407"><ele>722.0</ele><time>2026-04-13T09:43:02.719Z</time></trkpt><trkpt lat="40.707531" lon="9.3108081"><ele>723.0</ele><time>2026-04-13T09:43:03.71Z</time></trkpt><trkpt lat="40.707465" lon="9.3106764"><ele>724.0</ele><time>2026-04-13T09:43:04.705Z</time></trkpt><trkpt lat="40.7073986" lon="9.310539"><ele>722.2</ele><time>2026-04-13T09:43:05.727Z</time></trkpt><trkpt lat="40.7073367" lon="9.310409"><ele>720.4000000000001</ele><time>2026-04-13T09:43:06.709Z</time></trkpt><trkpt lat="40.7072812" lon="9.3102839"><ele>718.6</ele><time>2026-04-13T09:43:07.702Z</time></trkpt><trkpt lat="40.7072367" lon="9.3101648"><ele>716.8</ele><time>2026-04-13T09:43:08.713Z</time></trkpt><trkpt lat="40.7072002" lon="9.310055"><ele>715.0</ele><time>2026-04-13T09:43:09.701Z</time></trkpt><trkpt lat="40.7071585" lon="9.3099559"><ele>715.0</ele><time>2026-04-13T09:43:10.72Z</time></trkpt><trkpt lat="40.7071029" lon="9.3098642"><ele>715.0</ele><time>2026-04-13T09:43:11.704Z</time></trkpt><trkpt lat="40.7070427" lon="9.3097617"><ele>715.0</ele><time>2026-04-13T09:43:12.696Z</time></trkpt><trkpt lat="40.7069763" lon="9.3096611"><ele>715.0</ele><time>2026-04-13T09:43:13.701Z</time></trkpt><trkpt lat="40.706912" lon="9.3095629"><ele>715.0</ele><time>2026-04-13T09:43:14.705Z</time></trkpt><trkpt lat="40.7068508" lon="9.3094638"><ele>717.6</ele><time>2026-04-13T09:43:15.702Z</time></trkpt><trkpt lat="40.706785" lon="9.3093737"><ele>720.2</ele><time>2026-04-13T09:43:16.693Z</time></trkpt><trkpt lat="40.7067102" lon="9.3093089"><ele>722.8</ele><time>2026-04-13T09:43:17.699Z</time></trkpt><trkpt lat="40.7066312" lon="9.3092388"><ele>725.4</ele><time>2026-04-13T09:43:18.695Z</time></trkpt><trkpt lat="40.7065451" lon="9.3091499"><ele>728.0</ele><time>2026-04-13T09:43:19.701Z</time></trkpt><trkpt lat="40.7064573" lon="9.3090561"><ele>728.0</ele><time>2026-04-13T09:43:20.697Z</time></trkpt><trkpt lat="40.7063694" lon="9.3089619"><ele>728.0</ele><time>2026-04-13T09:43:21.706Z</time></trkpt><trkpt lat="40.7062781" lon="9.3088759"><ele>728.0</ele><time>2026-04-13T09:43:22.711Z</time></trkpt><trkpt lat="40.7061904" lon="9.308796"><ele>728.0</ele><time>2026-04-13T09:43:23.715Z</time></trkpt><trkpt lat="40.7061099" lon="9.3087198"><ele>728.0</ele><time>2026-04-13T09:43:24.699Z</time></trkpt><trkpt lat="40.7060178" lon="9.3086496"><ele>728.0</ele><time>2026-04-13T09:43:25.693Z</time></trkpt><trkpt lat="40.7059145" lon="9.3085802"><ele>728.0</ele><time>2026-04-13T09:43:26.694Z</time></trkpt><trkpt lat="40.7058094" lon="9.308521"><ele>728.0</ele><time>2026-04-13T09:43:27.684Z</time></trkpt><trkpt lat="40.7057007" lon="9.3084558"><ele>728.0</ele><time>2026-04-13T09:43:28.681Z</time></trkpt><trkpt lat="40.7055874" lon="9.3083981"><ele>728.0</ele><time>2026-04-13T09:43:29.687Z</time></trkpt><trkpt lat="40.7054746" lon="9.3083483"><ele>728.0</ele><time>2026-04-13T09:43:30.687Z</time></trkpt><trkpt lat="40.7053742" lon="9.3083021"><ele>728.0</ele><time>2026-04-13T09:43:31.686Z</time></trkpt><trkpt lat="40.7052851" lon="9.3082524"><ele>728.0</ele><time>2026-04-13T09:43:32.705Z</time></trkpt><trkpt lat="40.7052022" lon="9.3082"><ele>728.0</ele><time>2026-04-13T09:43:33.692Z</time></trkpt><trkpt lat="40.7051135" lon="9.3081575"><ele>731.8</ele><time>2026-04-13T09:43:34.683Z</time></trkpt><trkpt lat="40.7050346" lon="9.3081451"><ele>735.5999999999999</ele><time>2026-04-13T09:43:35.682Z</time></trkpt><trkpt lat="40.7049302" lon="9.3081121"><ele>739.4000000000001</ele><time>2026-04-13T09:43:37.704Z</time></trkpt><trkpt lat="40.7049129" lon="9.3079487"><ele>743.2</ele><time>2026-04-13T09:43:39.717Z</time></trkpt><trkpt lat="40.7049269" lon="9.3078467"><ele>747.0</ele><time>2026-04-13T09:43:40.683Z</time></trkpt><trkpt lat="40.7049559" lon="9.3077499"><ele>747.0</ele><time>2026-04-13T09:43:41.688Z</time></trkpt><trkpt lat="40.7050066" lon="9.3076548"><ele>747.0</ele><time>2026-04-13T09:43:42.675Z</time></trkpt><trkpt lat="40.705083" lon="9.3075559"><ele>747.0</ele><time>2026-04-13T09:43:43.674Z</time></trkpt><trkpt lat="40.7051533" lon="9.3074601"><ele>747.0</ele><time>2026-04-13T09:43:44.671Z</time></trkpt><trkpt lat="40.7052017" lon="9.3073747"><ele>747.0</ele><time>2026-04-13T09:43:45.672Z</time></trkpt><trkpt lat="40.7052245" lon="9.307223"><ele>748.2</ele><time>2026-04-13T09:43:47.672Z</time></trkpt><trkpt lat="40.7052257" lon="9.3070889"><ele>749.4000000000001</ele><time>2026-04-13T09:43:49.777Z</time></trkpt><trkpt lat="40.7051899" lon="9.306917"><ele>750.5999999999999</ele><time>2026-04-13T09:43:51.794Z</time></trkpt><trkpt lat="40.705169" lon="9.3067972"><ele>751.8</ele><time>2026-04-13T09:43:52.797Z</time></trkpt><trkpt lat="40.7051495" lon="9.3066581"><ele>753.0</ele><time>2026-04-13T09:43:53.785Z</time></trkpt><trkpt lat="40.7051342" lon="9.3065081"><ele>752.5999999999999</ele><time>2026-04-13T09:43:54.774Z</time></trkpt><trkpt lat="40.7051191" lon="9.3063615"><ele>752.1999999999999</ele><time>2026-04-13T09:43:55.767Z</time></trkpt><trkpt lat="40.705109" lon="9.3062258"><ele>751.8</ele><time>2026-04-13T09:43:56.778Z</time></trkpt><trkpt lat="40.7051019" lon="9.3061041"><ele>751.4</ele><time>2026-04-13T09:43:57.779Z</time></trkpt><trkpt lat="40.7050943" lon="9.3059843"><ele>751.0</ele><time>2026-04-13T09:43:58.764Z</time></trkpt><trkpt lat="40.7050809" lon="9.3058562"><ele>751.0</ele><time>2026-04-13T09:43:59.764Z</time></trkpt><trkpt lat="40.7050608" lon="9.3057192"><ele>751.0</ele><time>2026-04-13T09:44:00.78Z</time></trkpt><trkpt lat="40.7050392" lon="9.3055893"><ele>751.0</ele><time>2026-04-13T09:44:01.767Z</time></trkpt><trkpt lat="40.7050118" lon="9.3054607"><ele>751.0</ele><time>2026-04-13T09:44:02.795Z</time></trkpt><trkpt lat="40.7049814" lon="9.3053427"><ele>751.0</ele><time>2026-04-13T09:44:03.754Z</time></trkpt><trkpt lat="40.7049455" lon="9.3052322"><ele>750.1999999999999</ele><time>2026-04-13T09:44:04.758Z</time></trkpt><trkpt lat="40.7049059" lon="9.3051193"><ele>749.4</ele><time>2026-04-13T09:44:05.771Z</time></trkpt><trkpt lat="40.704864" lon="9.3050105"><ele>748.6</ele><time>2026-04-13T09:44:06.763Z</time></trkpt><trkpt lat="40.7048186" lon="9.3049014"><ele>747.8</ele><time>2026-04-13T09:44:07.756Z</time></trkpt><trkpt lat="40.7047677" lon="9.3047952"><ele>747.0</ele><time>2026-04-13T09:44:08.755Z</time></trkpt><trkpt lat="40.7047206" lon="9.3046857"><ele>746.0</ele><time>2026-04-13T09:44:09.757Z</time></trkpt><trkpt lat="40.7046711" lon="9.3045816"><ele>745.0</ele><time>2026-04-13T09:44:10.764Z</time></trkpt><trkpt lat="40.7046237" lon="9.3044771"><ele>744.0</ele><time>2026-04-13T09:44:11.756Z</time></trkpt><trkpt lat="40.7045669" lon="9.3043704"><ele>743.0</ele><time>2026-04-13T09:44:12.792Z</time></trkpt><trkpt lat="40.7045078" lon="9.3042613"><ele>742.0</ele><time>2026-04-13T09:44:13.76Z</time></trkpt><trkpt lat="40.7044498" lon="9.3041558"><ele>745.8333333333334</ele><time>2026-04-13T09:44:14.754Z</time></trkpt><trkpt lat="40.7043936" lon="9.3040439"><ele>749.6666666666667</ele><time>2026-04-13T09:44:15.748Z</time></trkpt><trkpt lat="40.7043415" lon="9.3039371"><ele>753.5</ele><time>2026-04-13T09:44:16.762Z</time></trkpt><trkpt lat="40.7043021" lon="9.3038346"><ele>757.3333333333334</ele><time>2026-04-13T09:44:17.756Z</time></trkpt><trkpt lat="40.7042653" lon="9.3037424"><ele>761.1666666666666</ele><time>2026-04-13T09:44:18.738Z</time></trkpt><trkpt lat="40.7042306" lon="9.3036554"><ele>765.0</ele><time>2026-04-13T09:44:19.749Z</time></trkpt><trkpt lat="40.7042013" lon="9.3035703"><ele>765.0</ele><time>2026-04-13T09:44:20.732Z</time></trkpt><trkpt lat="40.7041638" lon="9.3034345"><ele>765.0</ele><time>2026-04-13T09:44:22.759Z</time></trkpt><trkpt lat="40.7041692" lon="9.3033084"><ele>765.0</ele><time>2026-04-13T09:44:24.737Z</time></trkpt><trkpt lat="40.7042569" lon="9.3032001"><ele>765.0</ele><time>2026-04-13T09:44:26.736Z</time></trkpt><trkpt lat="40.7043216" lon="9.3031699"><ele>765.0</ele><time>2026-04-13T09:44:27.74Z</time></trkpt><trkpt lat="40.7043919" lon="9.3031457"><ele>763.2</ele><time>2026-04-13T09:44:28.741Z</time></trkpt><trkpt lat="40.7044634" lon="9.3031171"><ele>761.4</ele><time>2026-04-13T09:44:29.738Z</time></trkpt><trkpt lat="40.7045523" lon="9.3030839"><ele>759.5999999999999</ele><time>2026-04-13T09:44:30.734Z</time></trkpt><trkpt lat="40.7046444" lon="9.3030474"><ele>757.8</ele><time>2026-04-13T09:44:31.725Z</time></trkpt><trkpt lat="40.7047402" lon="9.303009"><ele>756.0</ele><time>2026-04-13T09:44:32.741Z</time></trkpt><trkpt lat="40.7048383" lon="9.3029753"><ele>759.1999999999999</ele><time>2026-04-13T09:44:33.745Z</time></trkpt><trkpt lat="40.7049418" lon="9.3029334"><ele>762.4</ele><time>2026-04-13T09:44:34.728Z</time></trkpt><trkpt lat="40.7050472" lon="9.3028941"><ele>765.6</ele><time>2026-04-13T09:44:35.75Z</time></trkpt><trkpt lat="40.7051541" lon="9.302852"><ele>768.8</ele><time>2026-04-13T09:44:36.727Z</time></trkpt><trkpt lat="40.7052587" lon="9.3028146"><ele>772.0</ele><time>2026-04-13T09:44:37.733Z</time></trkpt><trkpt lat="40.7053562" lon="9.3027795"><ele>771.9999999999999</ele><time>2026-04-13T09:44:38.731Z</time></trkpt><trkpt lat="40.7054524" lon="9.302739"><ele>772.0</ele><time>2026-04-13T09:44:39.755Z</time></trkpt><trkpt lat="40.7055413" lon="9.3026929"><ele>772.0</ele><time>2026-04-13T09:44:40.728Z</time></trkpt><trkpt lat="40.7056291" lon="9.3026408"><ele>772.0</ele><time>2026-04-13T09:44:41.733Z</time></trkpt><trkpt lat="40.7057104" lon="9.3026018"><ele>771.9999999999999</ele><time>2026-04-13T09:44:42.722Z</time></trkpt><trkpt lat="40.7057753" lon="9.3025736"><ele>772.0</ele><time>2026-04-13T09:44:43.74Z</time></trkpt><trkpt lat="40.7058397" lon="9.30253"><ele>771.9999999999999</ele><time>2026-04-13T09:44:44.73Z</time></trkpt><trkpt lat="40.7059013" lon="9.3024632"><ele>772.0</ele><time>2026-04-13T09:44:45.735Z</time></trkpt><trkpt lat="40.7059611" lon="9.3023997"><ele>772.0</ele><time>2026-04-13T09:44:46.729Z</time></trkpt><trkpt lat="40.7060218" lon="9.3023407"><ele>772.0</ele><time>2026-04-13T09:44:47.731Z</time></trkpt><trkpt lat="40.7060889" lon="9.3022786"><ele>771.9999999999999</ele><time>2026-04-13T09:44:48.756Z</time></trkpt><trkpt lat="40.7061532" lon="9.3022164"><ele>772.0</ele><time>2026-04-13T09:44:49.731Z</time></trkpt><trkpt lat="40.7062269" lon="9.3021523"><ele>773.8</ele><time>2026-04-13T09:44:50.725Z</time></trkpt><trkpt lat="40.7063095" lon="9.3020824"><ele>775.6</ele><time>2026-04-13T09:44:51.727Z</time></trkpt><trkpt lat="40.7064093" lon="9.3020286"><ele>777.4</ele><time>2026-04-13T09:44:52.727Z</time></trkpt><trkpt lat="40.7065201" lon="9.3019878"><ele>779.1999999999999</ele><time>2026-04-13T09:44:53.722Z</time></trkpt><trkpt lat="40.7066345" lon="9.3019498"><ele>781.0</ele><time>2026-04-13T09:44:54.736Z</time></trkpt><trkpt lat="40.7067515" lon="9.3019087"><ele>781.0</ele><time>2026-04-13T09:44:55.727Z</time></trkpt><trkpt lat="40.7068619" lon="9.3018726"><ele>781.0</ele><time>2026-04-13T09:44:56.731Z</time></trkpt><trkpt lat="40.7069604" lon="9.3018388"><ele>781.0</ele><time>2026-04-13T09:44:57.734Z</time></trkpt><trkpt lat="40.7070563" lon="9.3018131"><ele>781.0</ele><time>2026-04-13T09:44:58.726Z</time></trkpt><trkpt lat="40.7071494" lon="9.3018012"><ele>781.0</ele><time>2026-04-13T09:44:59.728Z</time></trkpt><trkpt lat="40.7072404" lon="9.301788"><ele>779.8</ele><time>2026-04-13T09:45:00.728Z</time></trkpt><trkpt lat="40.7073375" lon="9.3017776"><ele>778.5999999999999</ele><time>2026-04-13T09:45:01.725Z</time></trkpt><trkpt lat="40.7074437" lon="9.3017605"><ele>777.4</ele><time>2026-04-13T09:45:02.736Z</time></trkpt><trkpt lat="40.7075563" lon="9.3017367"><ele>776.2</ele><time>2026-04-13T09:45:03.723Z</time></trkpt><trkpt lat="40.7076729" lon="9.3017087"><ele>775.0</ele><time>2026-04-13T09:45:04.721Z</time></trkpt><trkpt lat="40.7077882" lon="9.3016854"><ele>772.75</ele><time>2026-04-13T09:45:05.74Z</time></trkpt><trkpt lat="40.7079096" lon="9.3016505"><ele>770.5</ele><time>2026-04-13T09:45:06.746Z</time></trkpt><trkpt lat="40.7080329" lon="9.3016186"><ele>768.25</ele><time>2026-04-13T09:45:07.721Z</time></trkpt><trkpt lat="40.7081611" lon="9.3015948"><ele>766.0</ele><time>2026-04-13T09:45:08.722Z</time></trkpt><trkpt lat="40.7082993" lon="9.3015717"><ele>766.0</ele><time>2026-04-13T09:45:09.748Z</time></trkpt><trkpt lat="40.7084305" lon="9.3015478"><ele>766.0</ele><time>2026-04-13T09:45:10.728Z</time></trkpt><trkpt lat="40.7085512" lon="9.3015445"><ele>766.0</ele><time>2026-04-13T09:45:11.746Z</time></trkpt><trkpt lat="40.708665" lon="9.3015675"><ele>766.0</ele><time>2026-04-13T09:45:12.754Z</time></trkpt><trkpt lat="40.7087755" lon="9.3016034"><ele>766.0</ele><time>2026-04-13T09:45:13.72Z</time></trkpt><trkpt lat="40.7088783" lon="9.3016464"><ele>766.0</ele><time>2026-04-13T09:45:14.739Z</time></trkpt><trkpt lat="40.7089801" lon="9.3016853"><ele>766.0</ele><time>2026-04-13T09:45:15.708Z</time></trkpt><trkpt lat="40.7090829" lon="9.3017105"><ele>766.0</ele><time>2026-04-13T09:45:16.721Z</time></trkpt><trkpt lat="40.709179" lon="9.3017229"><ele>766.0</ele><time>2026-04-13T09:45:17.713Z</time></trkpt><trkpt lat="40.7092727" lon="9.3017204"><ele>766.0</ele><time>2026-04-13T09:45:18.721Z</time></trkpt><trkpt lat="40.7093652" lon="9.3017087"><ele>766.0</ele><time>2026-04-13T09:45:19.72Z</time></trkpt><trkpt lat="40.7094658" lon="9.3016844"><ele>766.0</ele><time>2026-04-13T09:45:20.717Z</time></trkpt><trkpt lat="40.7095757" lon="9.3016495"><ele>766.0</ele><time>2026-04-13T09:45:21.716Z</time></trkpt><trkpt lat="40.7096863" lon="9.3016072"><ele>766.0</ele><time>2026-04-13T09:45:22.723Z</time></trkpt><trkpt lat="40.7097921" lon="9.3015654"><ele>765.6666666666667</ele><time>2026-04-13T09:45:23.702Z</time></trkpt><trkpt lat="40.7098817" lon="9.3015196"><ele>765.3333333333334</ele><time>2026-04-13T09:45:24.729Z</time></trkpt><trkpt lat="40.7099552" lon="9.3014713"><ele>765.0</ele><time>2026-04-13T09:45:25.713Z</time></trkpt><trkpt lat="40.7100081" lon="9.3014043"><ele>764.6666666666666</ele><time>2026-04-13T09:45:26.711Z</time></trkpt><trkpt lat="40.7100491" lon="9.3013267"><ele>764.3333333333333</ele><time>2026-04-13T09:45:27.717Z</time></trkpt><trkpt lat="40.7100922" lon="9.3012368"><ele>764.0</ele><time>2026-04-13T09:45:28.703Z</time></trkpt><trkpt lat="40.7101498" lon="9.3011393"><ele>764.0</ele><time>2026-04-13T09:45:29.716Z</time></trkpt><trkpt lat="40.7102141" lon="9.3010374"><ele>764.0</ele><time>2026-04-13T09:45:30.705Z</time></trkpt><trkpt lat="40.7102748" lon="9.3009331"><ele>764.0</ele><time>2026-04-13T09:45:31.694Z</time></trkpt><trkpt lat="40.710336" lon="9.3008263"><ele>764.0</ele><time>2026-04-13T09:45:32.699Z</time></trkpt><trkpt lat="40.7103956" lon="9.3007121"><ele>764.0</ele><time>2026-04-13T09:45:33.695Z</time></trkpt><trkpt lat="40.7104559" lon="9.3005979"><ele>767.6</ele><time>2026-04-13T09:45:34.698Z</time></trkpt><trkpt lat="40.7105171" lon="9.3004893"><ele>771.2</ele><time>2026-04-13T09:45:35.687Z</time></trkpt><trkpt lat="40.7105785" lon="9.3003829"><ele>774.8000000000001</ele><time>2026-04-13T09:45:36.684Z</time></trkpt><trkpt lat="40.710641" lon="9.3002771"><ele>778.4000000000001</ele><time>2026-04-13T09:45:37.687Z</time></trkpt><trkpt lat="40.7107061" lon="9.3001723"><ele>782.0</ele><time>2026-04-13T09:45:38.687Z</time></trkpt><trkpt lat="40.7107698" lon="9.300075"><ele>782.0000000000001</ele><time>2026-04-13T09:45:39.674Z</time></trkpt><trkpt lat="40.7108296" lon="9.2999788"><ele>782.0</ele><time>2026-04-13T09:45:40.676Z</time></trkpt><trkpt lat="40.7108824" lon="9.2998817"><ele>782.0</ele><time>2026-04-13T09:45:41.68Z</time></trkpt><trkpt lat="40.7109222" lon="9.2997801"><ele>782.0</ele><time>2026-04-13T09:45:42.679Z</time></trkpt><trkpt lat="40.7109469" lon="9.299678"><ele>782.0000000000001</ele><time>2026-04-13T09:45:43.683Z</time></trkpt><trkpt lat="40.7109674" lon="9.2995741"><ele>782.0</ele><time>2026-04-13T09:45:44.666Z</time></trkpt><trkpt lat="40.7109759" lon="9.2994803"><ele>783.8571428571428</ele><time>2026-04-13T09:45:45.666Z</time></trkpt><trkpt lat="40.7109671" lon="9.2993921"><ele>785.7142857142857</ele><time>2026-04-13T09:45:46.672Z</time></trkpt><trkpt lat="40.7109386" lon="9.299315"><ele>787.5714285714286</ele><time>2026-04-13T09:45:47.683Z</time></trkpt><trkpt lat="40.7108938" lon="9.2992466"><ele>789.4285714285713</ele><time>2026-04-13T09:45:48.685Z</time></trkpt><trkpt lat="40.7108475" lon="9.2991803"><ele>791.2857142857143</ele><time>2026-04-13T09:45:49.678Z</time></trkpt><trkpt lat="40.7107915" lon="9.2991099"><ele>793.1428571428571</ele><time>2026-04-13T09:45:50.68Z</time></trkpt><trkpt lat="40.7107358" lon="9.2990374"><ele>795.0</ele><time>2026-04-13T09:45:51.676Z</time></trkpt><trkpt lat="40.7106777" lon="9.2989567"><ele>798.0</ele><time>2026-04-13T09:45:52.67Z</time></trkpt><trkpt lat="40.7106147" lon="9.2988755"><ele>801.0</ele><time>2026-04-13T09:45:53.673Z</time></trkpt><trkpt lat="40.7105443" lon="9.2987974"><ele>804.0</ele><time>2026-04-13T09:45:54.677Z</time></trkpt><trkpt lat="40.7104666" lon="9.2987286"><ele>807.0</ele><time>2026-04-13T09:45:55.759Z</time></trkpt><trkpt lat="40.7103861" lon="9.2986566"><ele>810.0</ele><time>2026-04-13T09:45:56.763Z</time></trkpt><trkpt lat="40.7103018" lon="9.2985781"><ele>810.6</ele><time>2026-04-13T09:45:57.756Z</time></trkpt><trkpt lat="40.710218" lon="9.2984931"><ele>811.2</ele><time>2026-04-13T09:45:58.767Z</time></trkpt><trkpt lat="40.7101382" lon="9.2983987"><ele>811.8</ele><time>2026-04-13T09:45:59.753Z</time></trkpt><trkpt lat="40.7100545" lon="9.2983019"><ele>812.4</ele><time>2026-04-13T09:46:00.778Z</time></trkpt><trkpt lat="40.7099625" lon="9.2982139"><ele>813.0</ele><time>2026-04-13T09:46:01.765Z</time></trkpt><trkpt lat="40.7098704" lon="9.2981301"><ele>813.2</ele><time>2026-04-13T09:46:02.753Z</time></trkpt><trkpt lat="40.7097863" lon="9.2980546"><ele>813.4</ele><time>2026-04-13T09:46:03.751Z</time></trkpt><trkpt lat="40.7097072" lon="9.2979985"><ele>813.6</ele><time>2026-04-13T09:46:04.766Z</time></trkpt><trkpt lat="40.7096262" lon="9.2979591"><ele>813.8000000000001</ele><time>2026-04-13T09:46:05.753Z</time></trkpt><trkpt lat="40.709532" lon="9.297928"><ele>814.0</ele><time>2026-04-13T09:46:06.786Z</time></trkpt><trkpt lat="40.7094256" lon="9.2979003"><ele>814.75</ele><time>2026-04-13T09:46:07.757Z</time></trkpt><trkpt lat="40.7093124" lon="9.2978748"><ele>815.5</ele><time>2026-04-13T09:46:08.754Z</time></trkpt><trkpt lat="40.7091848" lon="9.2978654"><ele>816.25</ele><time>2026-04-13T09:46:09.745Z</time></trkpt><trkpt lat="40.7090513" lon="9.2978664"><ele>817.0</ele><time>2026-04-13T09:46:10.746Z</time></trkpt><trkpt lat="40.7089226" lon="9.2978655"><ele>817.0</ele><time>2026-04-13T09:46:11.77Z</time></trkpt><trkpt lat="40.7087952" lon="9.2978484"><ele>817.0</ele><time>2026-04-13T09:46:12.744Z</time></trkpt><trkpt lat="40.7086719" lon="9.2978293"><ele>817.0</ele><time>2026-04-13T09:46:13.755Z</time></trkpt><trkpt lat="40.7085504" lon="9.2978068"><ele>817.0</ele><time>2026-04-13T09:46:14.752Z</time></trkpt><trkpt lat="40.708431" lon="9.297784"><ele>820.5</ele><time>2026-04-13T09:46:15.751Z</time></trkpt><trkpt lat="40.7083174" lon="9.2977677"><ele>824.0</ele><time>2026-04-13T09:46:16.747Z</time></trkpt><trkpt lat="40.7082" lon="9.2977582"><ele>827.5</ele><time>2026-04-13T09:46:17.739Z</time></trkpt><trkpt lat="40.7080855" lon="9.2977602"><ele>831.0</ele><time>2026-04-13T09:46:18.742Z</time></trkpt><trkpt lat="40.7079811" lon="9.2977823"><ele>831.0</ele><time>2026-04-13T09:46:19.741Z</time></trkpt><trkpt lat="40.707874" lon="9.2978331"><ele>831.0</ele><time>2026-04-13T09:46:20.759Z</time></trkpt><trkpt lat="40.7077708" lon="9.2979034"><ele>831.0</ele><time>2026-04-13T09:46:21.741Z</time></trkpt><trkpt lat="40.7076695" lon="9.2979832"><ele>831.0</ele><time>2026-04-13T09:46:22.732Z</time></trkpt><trkpt lat="40.7075695" lon="9.2980636"><ele>834.4</ele><time>2026-04-13T09:46:23.739Z</time></trkpt><trkpt lat="40.7074758" lon="9.2981324"><ele>837.8</ele><time>2026-04-13T09:46:24.741Z</time></trkpt><trkpt lat="40.7073883" lon="9.2981827"><ele>841.1999999999999</ele><time>2026-04-13T09:46:25.728Z</time></trkpt><trkpt lat="40.7073025" lon="9.2982109"><ele>844.5999999999999</ele><time>2026-04-13T09:46:26.75Z</time></trkpt><trkpt lat="40.7072089" lon="9.2982187"><ele>848.0</ele><time>2026-04-13T09:46:27.722Z</time></trkpt><trkpt lat="40.7071162" lon="9.2982101"><ele>848.0000000000001</ele><time>2026-04-13T09:46:28.767Z</time></trkpt><trkpt lat="40.7070342" lon="9.2981892"><ele>848.0</ele><time>2026-04-13T09:46:29.749Z</time></trkpt><trkpt lat="40.706964" lon="9.2981515"><ele>848.0</ele><time>2026-04-13T09:46:30.715Z</time></trkpt><trkpt lat="40.7069014" lon="9.2980972"><ele>848.0</ele><time>2026-04-13T09:46:31.722Z</time></trkpt><trkpt lat="40.706852" lon="9.2980237"><ele>848.0000000000001</ele><time>2026-04-13T09:46:32.727Z</time></trkpt><trkpt lat="40.7068105" lon="9.297936"><ele>848.0</ele><time>2026-04-13T09:46:33.715Z</time></trkpt><trkpt lat="40.7067759" lon="9.2978454"><ele>851.2</ele><time>2026-04-13T09:46:34.714Z</time></trkpt><trkpt lat="40.7067416" lon="9.2977471"><ele>854.4</ele><time>2026-04-13T09:46:35.715Z</time></trkpt><trkpt lat="40.7067094" lon="9.2976451"><ele>857.6000000000001</ele><time>2026-04-13T09:46:36.715Z</time></trkpt><trkpt lat="40.7066735" lon="9.2975331"><ele>860.8000000000001</ele><time>2026-04-13T09:46:37.767Z</time></trkpt><trkpt lat="40.7066437" lon="9.2974061"><ele>864.0</ele><time>2026-04-13T09:46:38.715Z</time></trkpt><trkpt lat="40.7066239" lon="9.2972798"><ele>864.4285714285714</ele><time>2026-04-13T09:46:39.721Z</time></trkpt><trkpt lat="40.7066091" lon="9.2971656"><ele>864.8571428571429</ele><time>2026-04-13T09:46:40.716Z</time></trkpt><trkpt lat="40.7066019" lon="9.2970661"><ele>865.2857142857142</ele><time>2026-04-13T09:46:41.716Z</time></trkpt><trkpt lat="40.7066099" lon="9.2969643"><ele>865.7142857142858</ele><time>2026-04-13T09:46:42.7Z</time></trkpt><trkpt lat="40.7066296" lon="9.2968723"><ele>866.1428571428572</ele><time>2026-04-13T09:46:43.701Z</time></trkpt><trkpt lat="40.7066537" lon="9.2967882"><ele>866.5714285714286</ele><time>2026-04-13T09:46:44.737Z</time></trkpt><trkpt lat="40.7066582" lon="9.2966995"><ele>867.0</ele><time>2026-04-13T09:46:45.722Z</time></trkpt><trkpt lat="40.7066482" lon="9.2966038"><ele>867.0</ele><time>2026-04-13T09:46:46.717Z</time></trkpt><trkpt lat="40.7066198" lon="9.2965216"><ele>867.0</ele><time>2026-04-13T09:46:47.7Z</time></trkpt><trkpt lat="40.7065753" lon="9.2964537"><ele>867.0</ele><time>2026-04-13T09:46:48.715Z</time></trkpt><trkpt lat="40.7065151" lon="9.2963988"><ele>867.0</ele><time>2026-04-13T09:46:49.7Z</time></trkpt><trkpt lat="40.7064479" lon="9.2963645"><ele>867.0</ele><time>2026-04-13T09:46:50.711Z</time></trkpt><trkpt lat="40.7063748" lon="9.2963537"><ele>867.0</ele><time>2026-04-13T09:46:51.73Z</time></trkpt><trkpt lat="40.7063058" lon="9.2963699"><ele>867.0</ele><time>2026-04-13T09:46:52.698Z</time></trkpt><trkpt lat="40.7062355" lon="9.2964017"><ele>867.0</ele><time>2026-04-13T09:46:53.685Z</time></trkpt><trkpt lat="40.7061716" lon="9.2964489"><ele>867.0</ele><time>2026-04-13T09:46:54.692Z</time></trkpt><trkpt lat="40.7060974" lon="9.2965004"><ele>867.0</ele><time>2026-04-13T09:46:55.69Z</time></trkpt><trkpt lat="40.7060215" lon="9.296523"><ele>867.0</ele><time>2026-04-13T09:46:56.686Z</time></trkpt><trkpt lat="40.705955" lon="9.2965257"><ele>867.0</ele><time>2026-04-13T09:46:57.691Z</time></trkpt><trkpt lat="40.7058891" lon="9.2965141"><ele>867.0</ele><time>2026-04-13T09:46:58.683Z</time></trkpt><trkpt lat="40.7058222" lon="9.29648"><ele>867.0</ele><time>2026-04-13T09:46:59.686Z</time></trkpt><trkpt lat="40.7057472" lon="9.2964247"><ele>867.8</ele><time>2026-04-13T09:47:00.678Z</time></trkpt><trkpt lat="40.7056713" lon="9.2963536"><ele>868.6</ele><time>2026-04-13T09:47:01.684Z</time></trkpt><trkpt lat="40.705583" lon="9.2962797"><ele>869.3999999999999</ele><time>2026-04-13T09:47:02.706Z</time></trkpt><trkpt lat="40.7054991" lon="9.2962006"><ele>870.1999999999999</ele><time>2026-04-13T09:47:03.676Z</time></trkpt><trkpt lat="40.7054113" lon="9.2961302"><ele>871.0</ele><time>2026-04-13T09:47:04.673Z</time></trkpt><trkpt lat="40.7053247" lon="9.2960712"><ele>872.8333333333333</ele><time>2026-04-13T09:47:05.686Z</time></trkpt><trkpt lat="40.7052338" lon="9.2960244"><ele>874.6666666666666</ele><time>2026-04-13T09:47:06.678Z</time></trkpt><trkpt lat="40.7051476" lon="9.2959831"><ele>876.5</ele><time>2026-04-13T09:47:07.671Z</time></trkpt><trkpt lat="40.7050678" lon="9.2959566"><ele>878.3333333333333</ele><time>2026-04-13T09:47:08.691Z</time></trkpt><trkpt lat="40.7049911" lon="9.2959351"><ele>880.1666666666666</ele><time>2026-04-13T09:47:09.668Z</time></trkpt><trkpt lat="40.7049075" lon="9.2959235"><ele>882.0</ele><time>2026-04-13T09:47:10.671Z</time></trkpt><trkpt lat="40.704819" lon="9.2959059"><ele>882.0</ele><time>2026-04-13T09:47:11.669Z</time></trkpt><trkpt lat="40.7047243" lon="9.2958807"><ele>882.0</ele><time>2026-04-13T09:47:12.673Z</time></trkpt><trkpt lat="40.7046242" lon="9.2958532"><ele>882.0</ele><time>2026-04-13T09:47:13.667Z</time></trkpt><trkpt lat="40.7045222" lon="9.2958202"><ele>882.0</ele><time>2026-04-13T09:47:14.671Z</time></trkpt><trkpt lat="40.7044133" lon="9.2957776"><ele>882.0</ele><time>2026-04-13T09:47:15.669Z</time></trkpt><trkpt lat="40.7042975" lon="9.2957337"><ele>883.0</ele><time>2026-04-13T09:47:16.668Z</time></trkpt><trkpt lat="40.7041762" lon="9.2956945"><ele>884.0</ele><time>2026-04-13T09:47:17.67Z</time></trkpt><trkpt lat="40.7040569" lon="9.2956525"><ele>885.0</ele><time>2026-04-13T09:47:18.664Z</time></trkpt><trkpt lat="40.7039442" lon="9.2956033"><ele>886.0</ele><time>2026-04-13T09:47:19.662Z</time></trkpt><trkpt lat="40.703834" lon="9.2955587"><ele>885.0</ele><time>2026-04-13T09:47:20.662Z</time></trkpt><trkpt lat="40.7037163" lon="9.2955294"><ele>884.0</ele><time>2026-04-13T09:47:21.662Z</time></trkpt><trkpt lat="40.7035974" lon="9.2955061"><ele>883.0</ele><time>2026-04-13T09:47:22.656Z</time></trkpt><trkpt lat="40.7034802" lon="9.2954919"><ele>882.0</ele><time>2026-04-13T09:47:23.76Z</time></trkpt><trkpt lat="40.7033657" lon="9.2954875"><ele>882.0</ele><time>2026-04-13T09:47:24.759Z</time></trkpt><trkpt lat="40.7032558" lon="9.295503"><ele>882.0</ele><time>2026-04-13T09:47:25.759Z</time></trkpt><trkpt lat="40.703157" lon="9.2955392"><ele>882.0</ele><time>2026-04-13T09:47:26.749Z</time></trkpt><trkpt lat="40.7030751" lon="9.2955993"><ele>882.0</ele><time>2026-04-13T09:47:27.747Z</time></trkpt><trkpt lat="40.7030132" lon="9.295676"><ele>882.0</ele><time>2026-04-13T09:47:28.748Z</time></trkpt><trkpt lat="40.7029694" lon="9.2957673"><ele>884.3333333333334</ele><time>2026-04-13T09:47:29.748Z</time></trkpt><trkpt lat="40.702931" lon="9.2958701"><ele>886.6666666666667</ele><time>2026-04-13T09:47:30.771Z</time></trkpt><trkpt lat="40.7028918" lon="9.2959759"><ele>889.0</ele><time>2026-04-13T09:47:31.761Z</time></trkpt><trkpt lat="40.7028546" lon="9.2960784"><ele>891.3333333333334</ele><time>2026-04-13T09:47:32.751Z</time></trkpt><trkpt lat="40.7028087" lon="9.2961769"><ele>893.6666666666667</ele><time>2026-04-13T09:47:33.746Z</time></trkpt><trkpt lat="40.7027509" lon="9.2962687"><ele>896.0</ele><time>2026-04-13T09:47:34.748Z</time></trkpt><trkpt lat="40.7026759" lon="9.2963414"><ele>897.8</ele><time>2026-04-13T09:47:35.749Z</time></trkpt><trkpt lat="40.7025858" lon="9.2964028"><ele>899.5999999999999</ele><time>2026-04-13T09:47:36.751Z</time></trkpt><trkpt lat="40.7024932" lon="9.2964648"><ele>901.4</ele><time>2026-04-13T09:47:37.747Z</time></trkpt><trkpt lat="40.702394" lon="9.2965291"><ele>903.2</ele><time>2026-04-13T09:47:38.743Z</time></trkpt><trkpt lat="40.7022871" lon="9.2965956"><ele>905.0</ele><time>2026-04-13T09:47:39.74Z</time></trkpt><trkpt lat="40.702176" lon="9.2966533"><ele>906.25</ele><time>2026-04-13T09:47:40.737Z</time></trkpt><trkpt lat="40.7020584" lon="9.2967032"><ele>907.5</ele><time>2026-04-13T09:47:41.745Z</time></trkpt><trkpt lat="40.701939" lon="9.2967431"><ele>908.75</ele><time>2026-04-13T09:47:42.748Z</time></trkpt><trkpt lat="40.701816" lon="9.2967786"><ele>910.0</ele><time>2026-04-13T09:47:43.733Z</time></trkpt><trkpt lat="40.7016933" lon="9.2968063"><ele>913.25</ele><time>2026-04-13T09:47:44.779Z</time></trkpt><trkpt lat="40.701566" lon="9.2968243"><ele>916.5</ele><time>2026-04-13T09:47:45.737Z</time></trkpt><trkpt lat="40.7014371" lon="9.2968408"><ele>919.75</ele><time>2026-04-13T09:47:46.733Z</time></trkpt><trkpt lat="40.7013069" lon="9.2968531"><ele>923.0</ele><time>2026-04-13T09:47:47.752Z</time></trkpt><trkpt lat="40.7011795" lon="9.2968602"><ele>927.25</ele><time>2026-04-13T09:47:48.726Z</time></trkpt><trkpt lat="40.7010571" lon="9.2968716"><ele>931.5</ele><time>2026-04-13T09:47:49.726Z</time></trkpt><trkpt lat="40.7009388" lon="9.2968933"><ele>935.75</ele><time>2026-04-13T09:47:50.725Z</time></trkpt><trkpt lat="40.7008227" lon="9.296916"><ele>940.0</ele><time>2026-04-13T09:47:51.734Z</time></trkpt><trkpt lat="40.7007044" lon="9.2969303"><ele>940.0</ele><time>2026-04-13T09:47:52.716Z</time></trkpt><trkpt lat="40.70058" lon="9.2969355"><ele>940.0</ele><time>2026-04-13T09:47:53.735Z</time></trkpt><trkpt lat="40.700458" lon="9.2969314"><ele>940.0</ele><time>2026-04-13T09:47:54.723Z</time></trkpt><trkpt lat="40.7003446" lon="9.2969271"><ele>940.0</ele><time>2026-04-13T09:47:55.726Z</time></trkpt><trkpt lat="40.7002571" lon="9.2969147"><ele>940.0</ele><time>2026-04-13T09:47:56.721Z</time></trkpt><trkpt lat="40.700158" lon="9.2968203"><ele>941.1666666666666</ele><time>2026-04-13T09:47:58.721Z</time></trkpt><trkpt lat="40.7001226" lon="9.2967449"><ele>942.3333333333333</ele><time>2026-04-13T09:47:59.715Z</time></trkpt><trkpt lat="40.7000885" lon="9.2966569"><ele>943.5</ele><time>2026-04-13T09:48:00.714Z</time></trkpt><trkpt lat="40.700055" lon="9.2965578"><ele>944.6666666666667</ele><time>2026-04-13T09:48:01.727Z</time></trkpt><trkpt lat="40.7000131" lon="9.2964507"><ele>945.8333333333334</ele><time>2026-04-13T09:48:02.709Z</time></trkpt><trkpt lat="40.6999649" lon="9.2963536"><ele>947.0</ele><time>2026-04-13T09:48:03.727Z</time></trkpt><trkpt lat="40.6999135" lon="9.2962722"><ele>947.0</ele><time>2026-04-13T09:48:04.706Z</time></trkpt><trkpt lat="40.6998613" lon="9.2962115"><ele>947.0</ele><time>2026-04-13T09:48:05.706Z</time></trkpt><trkpt lat="40.6997922" lon="9.2961509"><ele>947.0</ele><time>2026-04-13T09:48:06.71Z</time></trkpt><trkpt lat="40.6997043" lon="9.2960759"><ele>947.0</ele><time>2026-04-13T09:48:07.709Z</time></trkpt><trkpt lat="40.6996037" lon="9.2959928"><ele>947.0</ele><time>2026-04-13T09:48:08.703Z</time></trkpt><trkpt lat="40.6994925" lon="9.2959099"><ele>948.25</ele><time>2026-04-13T09:48:09.709Z</time></trkpt><trkpt lat="40.6993735" lon="9.2958376"><ele>949.5</ele><time>2026-04-13T09:48:10.706Z</time></trkpt><trkpt lat="40.6992461" lon="9.2957718"><ele>950.75</ele><time>2026-04-13T09:48:11.707Z</time></trkpt><trkpt lat="40.6991191" lon="9.2956903"><ele>952.0</ele><time>2026-04-13T09:48:12.696Z</time></trkpt><trkpt lat="40.6990026" lon="9.2956083"><ele>951.5</ele><time>2026-04-13T09:48:13.701Z</time></trkpt><trkpt lat="40.6988919" lon="9.2955405"><ele>951.0</ele><time>2026-04-13T09:48:14.702Z</time></trkpt><trkpt lat="40.6987831" lon="9.2954988"><ele>950.5</ele><time>2026-04-13T09:48:15.7Z</time></trkpt><trkpt lat="40.6986699" lon="9.2954839"><ele>950.0</ele><time>2026-04-13T09:48:16.691Z</time></trkpt><trkpt lat="40.6985575" lon="9.2954736"><ele>950.0</ele><time>2026-04-13T09:48:17.683Z</time></trkpt><trkpt lat="40.6984465" lon="9.2954428"><ele>950.0</ele><time>2026-04-13T09:48:18.681Z</time></trkpt><trkpt lat="40.6983276" lon="9.2954022"><ele>950.0</ele><time>2026-04-13T09:48:19.693Z</time></trkpt><trkpt lat="40.6982247" lon="9.2953886"><ele>950.0</ele><time>2026-04-13T09:48:20.69Z</time></trkpt><trkpt lat="40.6981557" lon="9.2954076"><ele>950.0</ele><time>2026-04-13T09:48:21.687Z</time></trkpt><trkpt lat="40.6980925" lon="9.2954553"><ele>950.0</ele><time>2026-04-13T09:48:22.69Z</time></trkpt><trkpt lat="40.6980347" lon="9.2955258"><ele>950.0</ele><time>2026-04-13T09:48:23.686Z</time></trkpt><trkpt lat="40.6979778" lon="9.2956128"><ele>950.0</ele><time>2026-04-13T09:48:24.676Z</time></trkpt><trkpt lat="40.6979174" lon="9.2957072"><ele>950.0</ele><time>2026-04-13T09:48:25.679Z</time></trkpt><trkpt lat="40.6978527" lon="9.2958148"><ele>950.0</ele><time>2026-04-13T09:48:26.689Z</time></trkpt><trkpt lat="40.6977875" lon="9.2959206"><ele>955.0</ele><time>2026-04-13T09:48:27.673Z</time></trkpt><trkpt lat="40.6977132" lon="9.2959968"><ele>960.0</ele><time>2026-04-13T09:48:28.681Z</time></trkpt><trkpt lat="40.697627" lon="9.296044"><ele>965.0</ele><time>2026-04-13T09:48:29.676Z</time></trkpt><trkpt lat="40.697537" lon="9.2960972"><ele>970.0</ele><time>2026-04-13T09:48:30.678Z</time></trkpt><trkpt lat="40.6974481" lon="9.2961632"><ele>975.0</ele><time>2026-04-13T09:48:31.666Z</time></trkpt><trkpt lat="40.6973577" lon="9.29621"><ele>975.0</ele><time>2026-04-13T09:48:32.67Z</time></trkpt><trkpt lat="40.6972648" lon="9.2962328"><ele>975.0</ele><time>2026-04-13T09:48:33.67Z</time></trkpt><trkpt lat="40.6971713" lon="9.2962412"><ele>975.0</ele><time>2026-04-13T09:48:34.686Z</time></trkpt><trkpt lat="40.6970983" lon="9.2962413"><ele>975.0</ele><time>2026-04-13T09:48:35.686Z</time></trkpt><trkpt lat="40.6969829" lon="9.2962052"><ele>975.0</ele><time>2026-04-13T09:48:37.675Z</time></trkpt><trkpt lat="40.6969068" lon="9.2961317"><ele>978.2</ele><time>2026-04-13T09:48:39.675Z</time></trkpt><trkpt lat="40.6968534" lon="9.2960555"><ele>981.4</ele><time>2026-04-13T09:48:42.682Z</time></trkpt><trkpt lat="40.6967732" lon="9.2959903"><ele>984.5999999999999</ele><time>2026-04-13T10:00:12.669Z</time></trkpt><trkpt lat="40.6966674" lon="9.2959785"><ele>987.8</ele><time>2026-04-13T10:00:14.755Z</time></trkpt><trkpt lat="40.6965473" lon="9.2959835"><ele>991.0</ele><time>2026-04-13T10:00:16.775Z</time></trkpt><trkpt lat="40.69648" lon="9.2959893"><ele>991.0000000000001</ele><time>2026-04-13T10:00:17.77Z</time></trkpt><trkpt lat="40.6964062" lon="9.2959948"><ele>991.0</ele><time>2026-04-13T10:00:18.803Z</time></trkpt><trkpt lat="40.6963342" lon="9.2959987"><ele>991.0000000000001</ele><time>2026-04-13T10:00:19.757Z</time></trkpt><trkpt lat="40.6962647" lon="9.2959933"><ele>991.0000000000001</ele><time>2026-04-13T10:00:20.755Z</time></trkpt><trkpt lat="40.6961932" lon="9.2959871"><ele>991.0</ele><time>2026-04-13T10:00:21.759Z</time></trkpt><trkpt lat="40.6961204" lon="9.2959715"><ele>991.0000000000001</ele><time>2026-04-13T10:00:22.739Z</time></trkpt><trkpt lat="40.6960429" lon="9.2959547"><ele>991.0000000000001</ele><time>2026-04-13T10:00:23.768Z</time></trkpt><trkpt lat="40.6959649" lon="9.2959397"><ele>992.3333333333333</ele><time>2026-04-13T10:00:24.758Z</time></trkpt><trkpt lat="40.6958889" lon="9.2959246"><ele>993.6666666666666</ele><time>2026-04-13T10:00:25.761Z</time></trkpt><trkpt lat="40.6958122" lon="9.2959076"><ele>995.0</ele><time>2026-04-13T10:00:26.742Z</time></trkpt><trkpt lat="40.6957332" lon="9.2958844"><ele>996.3333333333333</ele><time>2026-04-13T10:00:27.747Z</time></trkpt><trkpt lat="40.6956502" lon="9.2958535"><ele>997.6666666666666</ele><time>2026-04-13T10:00:28.752Z</time></trkpt><trkpt lat="40.695564" lon="9.2958234"><ele>999.0</ele><time>2026-04-13T10:00:29.761Z</time></trkpt><trkpt lat="40.6954785" lon="9.2958019"><ele>999.0</ele><time>2026-04-13T10:00:30.735Z</time></trkpt><trkpt lat="40.6953937" lon="9.2957772"><ele>999.0</ele><time>2026-04-13T10:00:31.801Z</time></trkpt><trkpt lat="40.695308" lon="9.2957568"><ele>999.0</ele><time>2026-04-13T10:00:32.752Z</time></trkpt><trkpt lat="40.6952211" lon="9.2957388"><ele>999.0</ele><time>2026-04-13T10:00:33.746Z</time></trkpt><trkpt lat="40.6951297" lon="9.2957233"><ele>999.0</ele><time>2026-04-13T10:00:34.751Z</time></trkpt><trkpt lat="40.6950381" lon="9.2957158"><ele>999.0</ele><time>2026-04-13T10:00:35.751Z</time></trkpt><trkpt lat="40.694949" lon="9.2957035"><ele>1000.0</ele><time>2026-04-13T10:00:36.749Z</time></trkpt><trkpt lat="40.6948671" lon="9.29568"><ele>1001.0</ele><time>2026-04-13T10:00:37.744Z</time></trkpt><trkpt lat="40.6947869" lon="9.2956505"><ele>1002.0</ele><time>2026-04-13T10:00:38.75Z</time></trkpt><trkpt lat="40.6947102" lon="9.2956238"><ele>1003.0</ele><time>2026-04-13T10:00:39.742Z</time></trkpt><trkpt lat="40.6946368" lon="9.2955901"><ele>1004.0</ele><time>2026-04-13T10:00:40.739Z</time></trkpt><trkpt lat="40.6945577" lon="9.2955515"><ele>1005.0</ele><time>2026-04-13T10:00:41.739Z</time></trkpt><trkpt lat="40.6944756" lon="9.2955069"><ele>1005.2</ele><time>2026-04-13T10:00:42.739Z</time></trkpt><trkpt lat="40.6943811" lon="9.2954612"><ele>1005.4</ele><time>2026-04-13T10:00:43.732Z</time></trkpt><trkpt lat="40.6942798" lon="9.2954106"><ele>1005.5999999999999</ele><time>2026-04-13T10:00:44.745Z</time></trkpt><trkpt lat="40.69417" lon="9.2953687"><ele>1005.8</ele><time>2026-04-13T10:00:45.724Z</time></trkpt><trkpt lat="40.6940636" lon="9.2953251"><ele>1006.0</ele><time>2026-04-13T10:00:46.739Z</time></trkpt><trkpt lat="40.6939696" lon="9.295271"><ele>1006.0</ele><time>2026-04-13T10:00:47.728Z</time></trkpt><trkpt lat="40.6938787" lon="9.2952139"><ele>1005.9999999999999</ele><time>2026-04-13T10:00:48.734Z</time></trkpt><trkpt lat="40.6937907" lon="9.2951582"><ele>1005.9999999999999</ele><time>2026-04-13T10:00:49.728Z</time></trkpt><trkpt lat="40.6936993" lon="9.2951101"><ele>1006.0</ele><time>2026-04-13T10:00:50.724Z</time></trkpt><trkpt lat="40.693603" lon="9.295067"><ele>1006.0</ele><time>2026-04-13T10:00:51.731Z</time></trkpt><trkpt lat="40.6935117" lon="9.2950143"><ele>1006.1999999999999</ele><time>2026-04-13T10:00:52.716Z</time></trkpt><trkpt lat="40.6934242" lon="9.2949608"><ele>1006.3999999999999</ele><time>2026-04-13T10:00:53.734Z</time></trkpt><trkpt lat="40.6933434" lon="9.2949197"><ele>1006.6</ele><time>2026-04-13T10:00:54.725Z</time></trkpt><trkpt lat="40.6932581" lon="9.2948888"><ele>1006.8</ele><time>2026-04-13T10:00:55.737Z</time></trkpt><trkpt lat="40.6931678" lon="9.2948629"><ele>1007.0</ele><time>2026-04-13T10:00:56.722Z</time></trkpt><trkpt lat="40.6930683" lon="9.2948394"><ele>1007.0</ele><time>2026-04-13T10:00:57.723Z</time></trkpt><trkpt lat="40.692964" lon="9.2948196"><ele>1007.0</ele><time>2026-04-13T10:00:58.714Z</time></trkpt><trkpt lat="40.6928548" lon="9.2948048"><ele>1007.0</ele><time>2026-04-13T10:00:59.743Z</time></trkpt><trkpt lat="40.6927415" lon="9.294798"><ele>1007.0</ele><time>2026-04-13T10:01:00.717Z</time></trkpt><trkpt lat="40.6926285" lon="9.2947894"><ele>1007.0</ele><time>2026-04-13T10:01:01.722Z</time></trkpt><trkpt lat="40.6925155" lon="9.2947744"><ele>1007.0</ele><time>2026-04-13T10:01:02.719Z</time></trkpt><trkpt lat="40.6924076" lon="9.2947564"><ele>1007.0</ele><time>2026-04-13T10:01:03.712Z</time></trkpt><trkpt lat="40.6923023" lon="9.2947307"><ele>1007.0</ele><time>2026-04-13T10:01:04.758Z</time></trkpt><trkpt lat="40.6922076" lon="9.2946916"><ele>1007.0</ele><time>2026-04-13T10:01:05.728Z</time></trkpt><trkpt lat="40.6921163" lon="9.2946345"><ele>1007.0</ele><time>2026-04-13T10:01:06.719Z</time></trkpt><trkpt lat="40.6920345" lon="9.2945691"><ele>1006.2857142857142</ele><time>2026-04-13T10:01:07.713Z</time></trkpt><trkpt lat="40.6919637" lon="9.294499"><ele>1005.5714285714287</ele><time>2026-04-13T10:01:08.716Z</time></trkpt><trkpt lat="40.6918986" lon="9.2944356"><ele>1004.8571428571429</ele><time>2026-04-13T10:01:09.719Z</time></trkpt><trkpt lat="40.691846" lon="9.2943739"><ele>1004.1428571428571</ele><time>2026-04-13T10:01:10.724Z</time></trkpt><trkpt lat="40.6918073" lon="9.2943064"><ele>1003.4285714285713</ele><time>2026-04-13T10:01:11.691Z</time></trkpt><trkpt lat="40.6917822" lon="9.2942279"><ele>1002.7142857142858</ele><time>2026-04-13T10:01:12.704Z</time></trkpt><trkpt lat="40.6917684" lon="9.2941442"><ele>1002.0</ele><time>2026-04-13T10:01:13.712Z</time></trkpt><trkpt lat="40.6917761" lon="9.2940577"><ele>1002.0</ele><time>2026-04-13T10:01:14.697Z</time></trkpt><trkpt lat="40.6918028" lon="9.2939773"><ele>1002.0</ele><time>2026-04-13T10:01:15.702Z</time></trkpt><trkpt lat="40.691849" lon="9.2939194"><ele>1002.0</ele><time>2026-04-13T10:01:16.697Z</time></trkpt><trkpt lat="40.6919023" lon="9.2938726"><ele>1002.0</ele><time>2026-04-13T10:01:17.717Z</time></trkpt><trkpt lat="40.6919633" lon="9.2938289"><ele>1002.0</ele><time>2026-04-13T10:01:18.696Z</time></trkpt><trkpt lat="40.692025" lon="9.2937772"><ele>1002.0</ele><time>2026-04-13T10:01:19.701Z</time></trkpt><trkpt lat="40.6920894" lon="9.2937094"><ele>1002.0</ele><time>2026-04-13T10:01:20.687Z</time></trkpt><trkpt lat="40.6921477" lon="9.2936365"><ele>1000.5</ele><time>2026-04-13T10:01:21.7Z</time></trkpt><trkpt lat="40.692204" lon="9.2935596"><ele>999.0</ele><time>2026-04-13T10:01:22.708Z</time></trkpt><trkpt lat="40.6922582" lon="9.2934786"><ele>997.5</ele><time>2026-04-13T10:01:23.682Z</time></trkpt><trkpt lat="40.6923041" lon="9.2933942"><ele>996.0</ele><time>2026-04-13T10:01:24.696Z</time></trkpt><trkpt lat="40.6923429" lon="9.2933101"><ele>994.5</ele><time>2026-04-13T10:01:25.677Z</time></trkpt><trkpt lat="40.6923737" lon="9.2932189"><ele>993.0</ele><time>2026-04-13T10:01:26.682Z</time></trkpt><trkpt lat="40.6923955" lon="9.2931225"><ele>992.3333333333334</ele><time>2026-04-13T10:01:27.681Z</time></trkpt><trkpt lat="40.6924025" lon="9.2930272"><ele>991.6666666666667</ele><time>2026-04-13T10:01:28.695Z</time></trkpt><trkpt lat="40.6923901" lon="9.2929258"><ele>991.0</ele><time>2026-04-13T10:01:29.685Z</time></trkpt><trkpt lat="40.6923688" lon="9.2928208"><ele>990.3333333333334</ele><time>2026-04-13T10:01:30.702Z</time></trkpt><trkpt lat="40.6923445" lon="9.292714"><ele>989.6666666666667</ele><time>2026-04-13T10:01:31.673Z</time></trkpt><trkpt lat="40.6923152" lon="9.2926124"><ele>989.0</ele><time>2026-04-13T10:01:32.675Z</time></trkpt><trkpt lat="40.6922821" lon="9.292512"><ele>989.0000000000001</ele><time>2026-04-13T10:01:33.689Z</time></trkpt><trkpt lat="40.6922452" lon="9.2924106"><ele>989.0</ele><time>2026-04-13T10:01:34.679Z</time></trkpt><trkpt lat="40.6922022" lon="9.2923142"><ele>989.0</ele><time>2026-04-13T10:01:35.678Z</time></trkpt><trkpt lat="40.6921516" lon="9.2922318"><ele>989.0</ele><time>2026-04-13T10:01:36.664Z</time></trkpt><trkpt lat="40.6920945" lon="9.2921572"><ele>989.0000000000001</ele><time>2026-04-13T10:01:37.662Z</time></trkpt><trkpt lat="40.6920268" lon="9.2920926"><ele>989.0</ele><time>2026-04-13T10:01:38.699Z</time></trkpt><trkpt lat="40.6919558" lon="9.2920317"><ele>988.3333333333334</ele><time>2026-04-13T10:01:39.67Z</time></trkpt><trkpt lat="40.6918832" lon="9.2919731"><ele>987.6666666666667</ele><time>2026-04-13T10:01:40.669Z</time></trkpt><trkpt lat="40.6918108" lon="9.2918999"><ele>987.0</ele><time>2026-04-13T10:01:41.653Z</time></trkpt><trkpt lat="40.691743" lon="9.2918225"><ele>986.3333333333333</ele><time>2026-04-13T10:01:42.661Z</time></trkpt><trkpt lat="40.6916806" lon="9.2917362"><ele>985.6666666666666</ele><time>2026-04-13T10:01:43.657Z</time></trkpt><trkpt lat="40.6916251" lon="9.2916438"><ele>985.0</ele><time>2026-04-13T10:01:44.68Z</time></trkpt><trkpt lat="40.6915783" lon="9.2915475"><ele>984.9999999999999</ele><time>2026-04-13T10:01:45.663Z</time></trkpt><trkpt lat="40.6915441" lon="9.291458"><ele>985.0</ele><time>2026-04-13T10:01:46.76Z</time></trkpt><trkpt lat="40.6915111" lon="9.2913651"><ele>985.0</ele><time>2026-04-13T10:01:47.787Z</time></trkpt><trkpt lat="40.6914742" lon="9.2912802"><ele>985.0</ele><time>2026-04-13T10:01:48.779Z</time></trkpt><trkpt lat="40.6914245" lon="9.2911964"><ele>984.9999999999999</ele><time>2026-04-13T10:01:49.77Z</time></trkpt><trkpt lat="40.6913668" lon="9.2911092"><ele>985.0</ele><time>2026-04-13T10:01:50.747Z</time></trkpt><trkpt lat="40.691302" lon="9.291023"><ele>984.25</ele><time>2026-04-13T10:01:51.754Z</time></trkpt><trkpt lat="40.6912264" lon="9.2909341"><ele>983.5</ele><time>2026-04-13T10:01:52.745Z</time></trkpt><trkpt lat="40.6911448" lon="9.2908329"><ele>982.75</ele><time>2026-04-13T10:01:53.755Z</time></trkpt><trkpt lat="40.6910596" lon="9.2907214"><ele>982.0</ele><time>2026-04-13T10:01:54.745Z</time></trkpt><trkpt lat="40.6909723" lon="9.2905985"><ele>978.5</ele><time>2026-04-13T10:01:55.764Z</time></trkpt><trkpt lat="40.6908919" lon="9.2904774"><ele>975.0</ele><time>2026-04-13T10:01:56.741Z</time></trkpt><trkpt lat="40.6908186" lon="9.2903663"><ele>971.5</ele><time>2026-04-13T10:01:57.758Z</time></trkpt><trkpt lat="40.690743" lon="9.2902583"><ele>968.0</ele><time>2026-04-13T10:01:58.768Z</time></trkpt><trkpt lat="40.6906743" lon="9.2901525"><ele>968.0</ele><time>2026-04-13T10:01:59.75Z</time></trkpt><trkpt lat="40.690604" lon="9.2900498"><ele>968.0</ele><time>2026-04-13T10:02:00.785Z</time></trkpt><trkpt lat="40.6905351" lon="9.2899477"><ele>968.0</ele><time>2026-04-13T10:02:01.757Z</time></trkpt><trkpt lat="40.6904651" lon="9.2898522"><ele>968.0</ele><time>2026-04-13T10:02:02.746Z</time></trkpt><trkpt lat="40.6903982" lon="9.2897629"><ele>968.0</ele><time>2026-04-13T10:02:03.747Z</time></trkpt><trkpt lat="40.690331" lon="9.289668"><ele>967.2</ele><time>2026-04-13T10:02:04.735Z</time></trkpt><trkpt lat="40.6902617" lon="9.2895737"><ele>966.4</ele><time>2026-04-13T10:02:05.745Z</time></trkpt><trkpt lat="40.6901805" lon="9.2894811"><ele>965.6000000000001</ele><time>2026-04-13T10:02:06.742Z</time></trkpt><trkpt lat="40.6900935" lon="9.2893933"><ele>964.8000000000001</ele><time>2026-04-13T10:02:07.742Z</time></trkpt><trkpt lat="40.6900067" lon="9.2893107"><ele>964.0</ele><time>2026-04-13T10:02:08.756Z</time></trkpt><trkpt lat="40.689921" lon="9.2892233"><ele>962.8000000000001</ele><time>2026-04-13T10:02:09.726Z</time></trkpt><trkpt lat="40.6898333" lon="9.2891372"><ele>961.6000000000001</ele><time>2026-04-13T10:02:10.733Z</time></trkpt><trkpt lat="40.6897505" lon="9.2890473"><ele>960.4</ele><time>2026-04-13T10:02:11.75Z</time></trkpt><trkpt lat="40.6896638" lon="9.2889698"><ele>959.2</ele><time>2026-04-13T10:02:12.733Z</time></trkpt><trkpt lat="40.6895733" lon="9.2889087"><ele>958.0</ele><time>2026-04-13T10:02:13.737Z</time></trkpt><trkpt lat="40.6894861" lon="9.2888533"><ele>956.5999999999999</ele><time>2026-04-13T10:02:14.733Z</time></trkpt><trkpt lat="40.6894073" lon="9.2887799"><ele>955.1999999999999</ele><time>2026-04-13T10:02:15.746Z</time></trkpt><trkpt lat="40.689342" lon="9.2886978"><ele>953.8</ele><time>2026-04-13T10:02:16.722Z</time></trkpt><trkpt lat="40.6892836" lon="9.288602"><ele>952.4</ele><time>2026-04-13T10:02:17.722Z</time></trkpt><trkpt lat="40.6892387" lon="9.2884809"><ele>951.0</ele><time>2026-04-13T10:02:18.716Z</time></trkpt><trkpt lat="40.6892024" lon="9.2883495"><ele>951.0</ele><time>2026-04-13T10:02:19.727Z</time></trkpt><trkpt lat="40.6891671" lon="9.2882221"><ele>950.9999999999999</ele><time>2026-04-13T10:02:20.717Z</time></trkpt><trkpt lat="40.6891181" lon="9.2881044"><ele>950.9999999999999</ele><time>2026-04-13T10:02:21.722Z</time></trkpt><trkpt lat="40.6890572" lon="9.287988"><ele>951.0</ele><time>2026-04-13T10:02:22.714Z</time></trkpt><trkpt lat="40.6889815" lon="9.2878759"><ele>951.0</ele><time>2026-04-13T10:02:23.724Z</time></trkpt><trkpt lat="40.6889035" lon="9.2877694"><ele>951.0</ele><time>2026-04-13T10:02:24.747Z</time></trkpt><trkpt lat="40.6888317" lon="9.2876679"><ele>950.9999999999999</ele><time>2026-04-13T10:02:25.721Z</time></trkpt><trkpt lat="40.6887536" lon="9.2875839"><ele>950.9999999999999</ele><time>2026-04-13T10:02:26.72Z</time></trkpt><trkpt lat="40.6886744" lon="9.2875237"><ele>951.0</ele><time>2026-04-13T10:02:27.742Z</time></trkpt><trkpt lat="40.688593" lon="9.2874806"><ele>951.0</ele><time>2026-04-13T10:02:28.713Z</time></trkpt><trkpt lat="40.6885094" lon="9.2874539"><ele>951.0</ele><time>2026-04-13T10:02:29.725Z</time></trkpt><trkpt lat="40.6884205" lon="9.2874423"><ele>950.9999999999999</ele><time>2026-04-13T10:02:30.718Z</time></trkpt><trkpt lat="40.6883263" lon="9.2874293"><ele>950.9999999999999</ele><time>2026-04-13T10:02:31.718Z</time></trkpt><trkpt lat="40.6882294" lon="9.2874255"><ele>951.0</ele><time>2026-04-13T10:02:32.73Z</time></trkpt><trkpt lat="40.6881323" lon="9.287431"><ele>951.0</ele><time>2026-04-13T10:02:33.703Z</time></trkpt><trkpt lat="40.6880387" lon="9.2874391"><ele>951.0</ele><time>2026-04-13T10:02:34.718Z</time></trkpt><trkpt lat="40.6879522" lon="9.2874459"><ele>951.0</ele><time>2026-04-13T10:02:35.718Z</time></trkpt><trkpt lat="40.6878721" lon="9.2874437"><ele>951.0</ele><time>2026-04-13T10:02:36.697Z</time></trkpt><trkpt lat="40.6877964" lon="9.2874239"><ele>951.0</ele><time>2026-04-13T10:02:37.704Z</time></trkpt><trkpt lat="40.6877261" lon="9.2873878"><ele>951.0</ele><time>2026-04-13T10:02:38.707Z</time></trkpt><trkpt lat="40.6876629" lon="9.2873498"><ele>951.0</ele><time>2026-04-13T10:02:39.707Z</time></trkpt><trkpt lat="40.6875968" lon="9.2873311"><ele>950.8333333333334</ele><time>2026-04-13T10:02:40.709Z</time></trkpt><trkpt lat="40.6875178" lon="9.2873361"><ele>950.6666666666667</ele><time>2026-04-13T10:02:41.701Z</time></trkpt><trkpt lat="40.6874379" lon="9.2873579"><ele>950.5</ele><time>2026-04-13T10:02:42.691Z</time></trkpt><trkpt lat="40.6873648" lon="9.2874009"><ele>950.3333333333334</ele><time>2026-04-13T10:02:43.687Z</time></trkpt><trkpt lat="40.6873007" lon="9.2874797"><ele>950.1666666666667</ele><time>2026-04-13T10:02:44.692Z</time></trkpt><trkpt lat="40.6872454" lon="9.2875681"><ele>950.0</ele><time>2026-04-13T10:02:45.692Z</time></trkpt><trkpt lat="40.6871964" lon="9.2876755"><ele>950.0</ele><time>2026-04-13T10:02:46.691Z</time></trkpt><trkpt lat="40.6871521" lon="9.2877982"><ele>950.0</ele><time>2026-04-13T10:02:47.686Z</time></trkpt><trkpt lat="40.6871052" lon="9.2879292"><ele>950.0</ele><time>2026-04-13T10:02:48.686Z</time></trkpt><trkpt lat="40.6870543" lon="9.2880682"><ele>950.0</ele><time>2026-04-13T10:02:49.684Z</time></trkpt><trkpt lat="40.6869952" lon="9.2882041"><ele>950.0</ele><time>2026-04-13T10:02:50.686Z</time></trkpt><trkpt lat="40.6869358" lon="9.288339"><ele>949.6</ele><time>2026-04-13T10:02:51.677Z</time></trkpt><trkpt lat="40.6868839" lon="9.2884643"><ele>949.2</ele><time>2026-04-13T10:02:52.676Z</time></trkpt><trkpt lat="40.6868358" lon="9.2885874"><ele>948.8</ele><time>2026-04-13T10:02:53.683Z</time></trkpt><trkpt lat="40.6867947" lon="9.2887036"><ele>948.4</ele><time>2026-04-13T10:02:54.705Z</time></trkpt><trkpt lat="40.6867609" lon="9.2888321"><ele>948.0</ele><time>2026-04-13T10:02:55.677Z</time></trkpt><trkpt lat="40.6867341" lon="9.2889626"><ele>948.0</ele><time>2026-04-13T10:02:56.682Z</time></trkpt><trkpt lat="40.686713" lon="9.2890988"><ele>948.0</ele><time>2026-04-13T10:02:57.676Z</time></trkpt><trkpt lat="40.6866932" lon="9.2892387"><ele>948.0</ele><time>2026-04-13T10:02:58.679Z</time></trkpt><trkpt lat="40.6866779" lon="9.2893768"><ele>948.0</ele><time>2026-04-13T10:02:59.674Z</time></trkpt><trkpt lat="40.6866676" lon="9.2895078"><ele>948.0</ele><time>2026-04-13T10:03:00.668Z</time></trkpt><trkpt lat="40.6866642" lon="9.2896286"><ele>948.0</ele><time>2026-04-13T10:03:01.67Z</time></trkpt><trkpt lat="40.6866609" lon="9.2897488"><ele>948.0</ele><time>2026-04-13T10:03:02.673Z</time></trkpt><trkpt lat="40.6866687" lon="9.289877"><ele>948.0</ele><time>2026-04-13T10:03:03.669Z</time></trkpt><trkpt lat="40.6866834" lon="9.2900189"><ele>948.0</ele><time>2026-04-13T10:03:04.798Z</time></trkpt><trkpt lat="40.6866961" lon="9.2901612"><ele>948.0</ele><time>2026-04-13T10:03:05.767Z</time></trkpt><trkpt lat="40.6867104" lon="9.2902977"><ele>947.8</ele><time>2026-04-13T10:03:06.765Z</time></trkpt><trkpt lat="40.68672" lon="9.2904262"><ele>947.5999999999999</ele><time>2026-04-13T10:03:07.769Z</time></trkpt><trkpt lat="40.6867204" lon="9.2905557"><ele>947.4000000000001</ele><time>2026-04-13T10:03:08.767Z</time></trkpt><trkpt lat="40.6867157" lon="9.2906871"><ele>947.2</ele><time>2026-04-13T10:03:09.761Z</time></trkpt><trkpt lat="40.6866981" lon="9.2908138"><ele>947.0</ele><time>2026-04-13T10:03:10.755Z</time></trkpt><trkpt lat="40.6866743" lon="9.2909343"><ele>946.8</ele><time>2026-04-13T10:03:11.752Z</time></trkpt><trkpt lat="40.6866456" lon="9.291052"><ele>946.6</ele><time>2026-04-13T10:03:12.763Z</time></trkpt><trkpt lat="40.6866081" lon="9.2911704"><ele>946.3999999999999</ele><time>2026-04-13T10:03:13.771Z</time></trkpt><trkpt lat="40.6865628" lon="9.2912793"><ele>946.1999999999999</ele><time>2026-04-13T10:03:14.755Z</time></trkpt><trkpt lat="40.6865087" lon="9.2913828"><ele>946.0</ele><time>2026-04-13T10:03:15.771Z</time></trkpt><trkpt lat="40.68645" lon="9.2914706"><ele>945.1999999999999</ele><time>2026-04-13T10:03:16.757Z</time></trkpt><trkpt lat="40.686385" lon="9.2915462"><ele>944.3999999999999</ele><time>2026-04-13T10:03:17.742Z</time></trkpt><trkpt lat="40.6862998" lon="9.2916041"><ele>943.6</ele><time>2026-04-13T10:03:18.752Z</time></trkpt><trkpt lat="40.6861939" lon="9.2916557"><ele>942.8</ele><time>2026-04-13T10:03:19.74Z</time></trkpt><trkpt lat="40.686075" lon="9.2917057"><ele>942.0</ele><time>2026-04-13T10:03:20.766Z</time></trkpt><trkpt lat="40.6859483" lon="9.2917611"><ele>942.0</ele><time>2026-04-13T10:03:21.762Z</time></trkpt><trkpt lat="40.6858225" lon="9.291816"><ele>942.0</ele><time>2026-04-13T10:03:22.75Z</time></trkpt><trkpt lat="40.6857077" lon="9.2918675"><ele>942.0</ele><time>2026-04-13T10:03:23.751Z</time></trkpt><trkpt lat="40.6856083" lon="9.2919151"><ele>942.0</ele><time>2026-04-13T10:03:24.728Z</time></trkpt><trkpt lat="40.6855049" lon="9.2919548"><ele>942.0</ele><time>2026-04-13T10:03:25.722Z</time></trkpt><trkpt lat="40.6853987" lon="9.2919883"><ele>942.0</ele><time>2026-04-13T10:03:26.727Z</time></trkpt><trkpt lat="40.6853001" lon="9.2920183"><ele>942.0</ele><time>2026-04-13T10:03:27.739Z</time></trkpt><trkpt lat="40.6852045" lon="9.2920494"><ele>942.0</ele><time>2026-04-13T10:03:28.749Z</time></trkpt><trkpt lat="40.6851043" lon="9.2920764"><ele>942.0</ele><time>2026-04-13T10:03:29.726Z</time></trkpt><trkpt lat="40.6849978" lon="9.292084"><ele>942.0</ele><time>2026-04-13T10:03:30.723Z</time></trkpt><trkpt lat="40.6848802" lon="9.2920701"><ele>942.0</ele><time>2026-04-13T10:03:31.736Z</time></trkpt><trkpt lat="40.6847611" lon="9.2920577"><ele>942.0</ele><time>2026-04-13T10:03:32.714Z</time></trkpt><trkpt lat="40.6846449" lon="9.2920518"><ele>942.0</ele><time>2026-04-13T10:03:33.719Z</time></trkpt><trkpt lat="40.6845282" lon="9.2920499"><ele>940.25</ele><time>2026-04-13T10:03:34.711Z</time></trkpt><trkpt lat="40.6844087" lon="9.2920562"><ele>938.5</ele><time>2026-04-13T10:03:35.718Z</time></trkpt><trkpt lat="40.6842853" lon="9.2920656"><ele>936.75</ele><time>2026-04-13T10:03:36.714Z</time></trkpt><trkpt lat="40.6841657" lon="9.292066"><ele>935.0</ele><time>2026-04-13T10:03:37.725Z</time></trkpt><trkpt lat="40.6840545" lon="9.2920563"><ele>935.0</ele><time>2026-04-13T10:03:38.72Z</time></trkpt><trkpt lat="40.6839459" lon="9.2920355"><ele>935.0</ele><time>2026-04-13T10:03:39.722Z</time></trkpt><trkpt lat="40.6838387" lon="9.2919886"><ele>935.0</ele><time>2026-04-13T10:03:40.716Z</time></trkpt><trkpt lat="40.6837276" lon="9.2919309"><ele>935.0</ele><time>2026-04-13T10:03:41.728Z</time></trkpt><trkpt lat="40.683611" lon="9.2918826"><ele>931.75</ele><time>2026-04-13T10:03:42.718Z</time></trkpt><trkpt lat="40.6834943" lon="9.2918474"><ele>928.5</ele><time>2026-04-13T10:03:43.705Z</time></trkpt><trkpt lat="40.6833796" lon="9.2918178"><ele>925.25</ele><time>2026-04-13T10:03:44.711Z</time></trkpt><trkpt lat="40.6832691" lon="9.2917953"><ele>922.0</ele><time>2026-04-13T10:03:45.7Z</time></trkpt><trkpt lat="40.6831511" lon="9.2917845"><ele>922.0</ele><time>2026-04-13T10:03:46.697Z</time></trkpt><trkpt lat="40.6830164" lon="9.2917847"><ele>922.0</ele><time>2026-04-13T10:03:47.693Z</time></trkpt><trkpt lat="40.682876" lon="9.2917959"><ele>922.0</ele><time>2026-04-13T10:03:48.689Z</time></trkpt><trkpt lat="40.6827301" lon="9.291808"><ele>922.0</ele><time>2026-04-13T10:03:49.713Z</time></trkpt><trkpt lat="40.6825753" lon="9.29182"><ele>918.3333333333333</ele><time>2026-04-13T10:03:50.711Z</time></trkpt><trkpt lat="40.6824172" lon="9.291835"><ele>914.6666666666667</ele><time>2026-04-13T10:03:51.687Z</time></trkpt><trkpt lat="40.6822679" lon="9.2918531"><ele>911.0</ele><time>2026-04-13T10:03:52.698Z</time></trkpt><trkpt lat="40.6821271" lon="9.2918668"><ele>911.0</ele><time>2026-04-13T10:03:53.685Z</time></trkpt><trkpt lat="40.6819951" lon="9.2918704"><ele>911.0</ele><time>2026-04-13T10:03:54.704Z</time></trkpt><trkpt lat="40.6818687" lon="9.2918583"><ele>911.0</ele><time>2026-04-13T10:03:55.685Z</time></trkpt><trkpt lat="40.6817382" lon="9.2918293"><ele>911.0</ele><time>2026-04-13T10:03:56.687Z</time></trkpt><trkpt lat="40.6816064" lon="9.2917957"><ele>910.25</ele><time>2026-04-13T10:03:57.685Z</time></trkpt><trkpt lat="40.6814713" lon="9.2917596"><ele>909.5</ele><time>2026-04-13T10:03:58.703Z</time></trkpt><trkpt lat="40.6813333" lon="9.2917228"><ele>908.75</ele><time>2026-04-13T10:03:59.7Z</time></trkpt><trkpt lat="40.6811933" lon="9.2916878"><ele>908.0</ele><time>2026-04-13T10:04:00.712Z</time></trkpt><trkpt lat="40.681058" lon="9.2916551"><ele>908.0</ele><time>2026-04-13T10:04:01.7Z</time></trkpt><trkpt lat="40.6809362" lon="9.2916184"><ele>908.0</ele><time>2026-04-13T10:04:02.676Z</time></trkpt><trkpt lat="40.6808232" lon="9.2915772"><ele>908.0</ele><time>2026-04-13T10:04:03.68Z</time></trkpt><trkpt lat="40.6807184" lon="9.2915255"><ele>908.0</ele><time>2026-04-13T10:04:04.694Z</time></trkpt><trkpt lat="40.6806178" lon="9.2914526"><ele>907.25</ele><time>2026-04-13T10:04:05.672Z</time></trkpt><trkpt lat="40.6805151" lon="9.2913587"><ele>906.5</ele><time>2026-04-13T10:04:06.682Z</time></trkpt><trkpt lat="40.68041" lon="9.2912719"><ele>905.75</ele><time>2026-04-13T10:04:07.688Z</time></trkpt><trkpt lat="40.6803012" lon="9.2911865"><ele>905.0</ele><time>2026-04-13T10:04:08.714Z</time></trkpt><trkpt lat="40.6801882" lon="9.2911088"><ele>903.0</ele><time>2026-04-13T10:04:09.677Z</time></trkpt><trkpt lat="40.6800731" lon="9.2910375"><ele>901.0</ele><time>2026-04-13T10:04:10.679Z</time></trkpt><trkpt lat="40.6799556" lon="9.2909787"><ele>899.0</ele><time>2026-04-13T10:04:11.685Z</time></trkpt><trkpt lat="40.6798419" lon="9.2909374"><ele>897.0</ele><time>2026-04-13T10:04:12.677Z</time></trkpt><trkpt lat="40.6797266" lon="9.2909016"><ele>897.0</ele><time>2026-04-13T10:04:13.665Z</time></trkpt><trkpt lat="40.6796051" lon="9.290868"><ele>897.0</ele><time>2026-04-13T10:04:14.663Z</time></trkpt><trkpt lat="40.6794753" lon="9.2908417"><ele>897.0</ele><time>2026-04-13T10:04:15.657Z</time></trkpt><trkpt lat="40.6793366" lon="9.2908162"><ele>897.0</ele><time>2026-04-13T10:04:16.659Z</time></trkpt><trkpt lat="40.6791937" lon="9.2907916"><ele>896.5</ele><time>2026-04-13T10:04:17.653Z</time></trkpt><trkpt lat="40.679054" lon="9.2907601"><ele>896.0</ele><time>2026-04-13T10:04:18.654Z</time></trkpt><trkpt lat="40.6789288" lon="9.2907365"><ele>895.5</ele><time>2026-04-13T10:04:19.772Z</time></trkpt><trkpt lat="40.678808" lon="9.2907253"><ele>895.0</ele><time>2026-04-13T10:04:20.763Z</time></trkpt><trkpt lat="40.6786931" lon="9.2907241"><ele>895.2</ele><time>2026-04-13T10:04:21.756Z</time></trkpt><trkpt lat="40.6785764" lon="9.2907285"><ele>895.4</ele><time>2026-04-13T10:04:22.753Z</time></trkpt><trkpt lat="40.67847" lon="9.2907373"><ele>895.5999999999999</ele><time>2026-04-13T10:04:23.755Z</time></trkpt><trkpt lat="40.6783759" lon="9.2907539"><ele>895.8</ele><time>2026-04-13T10:04:24.76Z</time></trkpt><trkpt lat="40.678285" lon="9.2907812"><ele>896.0</ele><time>2026-04-13T10:04:25.761Z</time></trkpt><trkpt lat="40.6781937" lon="9.2908202"><ele>896.0</ele><time>2026-04-13T10:04:26.745Z</time></trkpt><trkpt lat="40.6780909" lon="9.2908716"><ele>896.0</ele><time>2026-04-13T10:04:27.753Z</time></trkpt><trkpt lat="40.6779799" lon="9.2909392"><ele>896.0</ele><time>2026-04-13T10:04:28.746Z</time></trkpt><trkpt lat="40.6778618" lon="9.2910176"><ele>896.0</ele><time>2026-04-13T10:04:29.74Z</time></trkpt><trkpt lat="40.6777381" lon="9.291089"><ele>895.0</ele><time>2026-04-13T10:04:30.749Z</time></trkpt><trkpt lat="40.6776161" lon="9.291145"><ele>894.0</ele><time>2026-04-13T10:04:31.738Z</time></trkpt><trkpt lat="40.6774976" lon="9.2911826"><ele>893.0</ele><time>2026-04-13T10:04:32.788Z</time></trkpt><trkpt lat="40.6773807" lon="9.291217"><ele>892.0</ele><time>2026-04-13T10:04:33.739Z</time></trkpt><trkpt lat="40.6772686" lon="9.2912592"><ele>891.9999999999999</ele><time>2026-04-13T10:04:34.737Z</time></trkpt><trkpt lat="40.6771668" lon="9.2912968"><ele>892.0</ele><time>2026-04-13T10:04:35.739Z</time></trkpt><trkpt lat="40.6770721" lon="9.2913117"><ele>892.0</ele><time>2026-04-13T10:04:36.729Z</time></trkpt><trkpt lat="40.6769878" lon="9.2913023"><ele>892.0</ele><time>2026-04-13T10:04:37.764Z</time></trkpt><trkpt lat="40.6769071" lon="9.2912868"><ele>891.9999999999999</ele><time>2026-04-13T10:04:38.733Z</time></trkpt><trkpt lat="40.6768317" lon="9.2912855"><ele>892.0</ele><time>2026-04-13T10:04:39.724Z</time></trkpt><trkpt lat="40.6767554" lon="9.2913062"><ele>891.8</ele><time>2026-04-13T10:04:40.752Z</time></trkpt><trkpt lat="40.6766804" lon="9.2913432"><ele>891.6</ele><time>2026-04-13T10:04:41.743Z</time></trkpt><trkpt lat="40.6765993" lon="9.2913918"><ele>891.3999999999999</ele><time>2026-04-13T10:04:42.728Z</time></trkpt><trkpt lat="40.676506" lon="9.2914405"><ele>891.1999999999999</ele><time>2026-04-13T10:04:43.721Z</time></trkpt><trkpt lat="40.6764053" lon="9.2914985"><ele>891.0</ele><time>2026-04-13T10:04:44.721Z</time></trkpt><trkpt lat="40.6762981" lon="9.2915606"><ele>890.25</ele><time>2026-04-13T10:04:45.736Z</time></trkpt><trkpt lat="40.6761888" lon="9.2916295"><ele>889.5</ele><time>2026-04-13T10:04:46.717Z</time></trkpt><trkpt lat="40.6760769" lon="9.2916967"><ele>888.75</ele><time>2026-04-13T10:04:47.751Z</time></trkpt><trkpt lat="40.6759676" lon="9.2917624"><ele>888.0</ele><time>2026-04-13T10:04:48.781Z</time></trkpt><trkpt lat="40.675866" lon="9.2918215"><ele>888.0</ele><time>2026-04-13T10:04:49.722Z</time></trkpt><trkpt lat="40.6757718" lon="9.2918796"><ele>888.0</ele><time>2026-04-13T10:04:50.732Z</time></trkpt><trkpt lat="40.6756835" lon="9.2919367"><ele>888.0</ele><time>2026-04-13T10:04:51.711Z</time></trkpt><trkpt lat="40.6756057" lon="9.2919827"><ele>888.0</ele><time>2026-04-13T10:04:52.721Z</time></trkpt><trkpt lat="40.6755362" lon="9.2920033"><ele>888.0</ele><time>2026-04-13T10:04:53.717Z</time></trkpt><trkpt lat="40.6754698" lon="9.2919931"><ele>888.0</ele><time>2026-04-13T10:04:54.717Z</time></trkpt><trkpt lat="40.6754094" lon="9.2919561"><ele>888.0</ele><time>2026-04-13T10:04:55.72Z</time></trkpt><trkpt lat="40.6753544" lon="9.2918883"><ele>888.0</ele><time>2026-04-13T10:04:56.735Z</time></trkpt><trkpt lat="40.6752938" lon="9.2918014"><ele>888.0</ele><time>2026-04-13T10:04:57.709Z</time></trkpt><trkpt lat="40.6752234" lon="9.2916934"><ele>888.0</ele><time>2026-04-13T10:04:58.718Z</time></trkpt><trkpt lat="40.6751329" lon="9.2915798"><ele>888.0</ele><time>2026-04-13T10:04:59.711Z</time></trkpt><trkpt lat="40.6750292" lon="9.2914633"><ele>885.5</ele><time>2026-04-13T10:05:00.704Z</time></trkpt><trkpt lat="40.6749224" lon="9.2913491"><ele>883.0</ele><time>2026-04-13T10:05:01.736Z</time></trkpt><trkpt lat="40.6748106" lon="9.2912457"><ele>880.5</ele><time>2026-04-13T10:05:02.701Z</time></trkpt><trkpt lat="40.674705" lon="9.291148"><ele>878.0</ele><time>2026-04-13T10:05:03.697Z</time></trkpt><trkpt lat="40.6746033" lon="9.2910657"><ele>878.0</ele><time>2026-04-13T10:05:04.697Z</time></trkpt><trkpt lat="40.6745061" lon="9.2909958"><ele>878.0</ele><time>2026-04-13T10:05:05.708Z</time></trkpt><trkpt lat="40.674408" lon="9.2909391"><ele>878.0</ele><time>2026-04-13T10:05:06.71Z</time></trkpt><trkpt lat="40.674308" lon="9.290894"><ele>878.0</ele><time>2026-04-13T10:05:07.726Z</time></trkpt><trkpt lat="40.6742038" lon="9.2908546"><ele>878.0</ele><time>2026-04-13T10:05:08.695Z</time></trkpt><trkpt lat="40.6740975" lon="9.2908145"><ele>876.75</ele><time>2026-04-13T10:05:09.69Z</time></trkpt><trkpt lat="40.673988" lon="9.2907764"><ele>875.5</ele><time>2026-04-13T10:05:10.708Z</time></trkpt><trkpt lat="40.6738779" lon="9.2907398"><ele>874.25</ele><time>2026-04-13T10:05:11.697Z</time></trkpt><trkpt lat="40.6737673" lon="9.2907061"><ele>873.0</ele><time>2026-04-13T10:05:12.703Z</time></trkpt><trkpt lat="40.6736605" lon="9.2906682"><ele>872.2</ele><time>2026-04-13T10:05:13.693Z</time></trkpt><trkpt lat="40.6735573" lon="9.2906302"><ele>871.4</ele><time>2026-04-13T10:05:14.685Z</time></trkpt><trkpt lat="40.6734596" lon="9.2905793"><ele>870.6000000000001</ele><time>2026-04-13T10:05:15.687Z</time></trkpt><trkpt lat="40.6733711" lon="9.2905195"><ele>869.8000000000001</ele><time>2026-04-13T10:05:16.685Z</time></trkpt><trkpt lat="40.6733021" lon="9.290465"><ele>869.0</ele><time>2026-04-13T10:05:17.687Z</time></trkpt><trkpt lat="40.6732201" lon="9.290388"><ele>868.5000000000001</ele><time>2026-04-13T10:05:19.687Z</time></trkpt><trkpt lat="40.6731666" lon="9.2902923"><ele>868.0</ele><time>2026-04-13T10:05:22.681Z</time></trkpt><trkpt lat="40.6731812" lon="9.2901914"><ele>867.5</ele><time>2026-04-13T10:05:25.691Z</time></trkpt><trkpt lat="40.6732234" lon="9.2900701"><ele>867.0</ele><time>2026-04-13T10:05:27.676Z</time></trkpt><trkpt lat="40.6732371" lon="9.2899712"><ele>866.5000000000001</ele><time>2026-04-13T10:05:28.685Z</time></trkpt><trkpt lat="40.6732544" lon="9.2898553"><ele>866.0</ele><time>2026-04-13T10:05:29.668Z</time></trkpt><trkpt lat="40.6732886" lon="9.2897389"><ele>865.5000000000001</ele><time>2026-04-13T10:05:30.683Z</time></trkpt><trkpt lat="40.673325" lon="9.2896291"><ele>865.0</ele><time>2026-04-13T10:05:31.668Z</time></trkpt><trkpt lat="40.6733596" lon="9.2895273"><ele>864.5</ele><time>2026-04-13T10:05:32.666Z</time></trkpt><trkpt lat="40.6733943" lon="9.2894324"><ele>864.0</ele><time>2026-04-13T10:05:33.662Z</time></trkpt><trkpt lat="40.6734202" lon="9.2893423"><ele>863.5000000000001</ele><time>2026-04-13T10:05:34.676Z</time></trkpt><trkpt lat="40.673445" lon="9.2892576"><ele>863.0</ele><time>2026-04-13T10:05:35.665Z</time></trkpt><trkpt lat="40.6734826" lon="9.2891736"><ele>863.0</ele><time>2026-04-13T10:05:36.655Z</time></trkpt><trkpt lat="40.6735336" lon="9.2890949"><ele>863.0</ele><time>2026-04-13T10:05:37.657Z</time></trkpt><trkpt lat="40.6735928" lon="9.289024"><ele>863.0</ele><time>2026-04-13T10:05:38.656Z</time></trkpt><trkpt lat="40.6736667" lon="9.2889512"><ele>863.0</ele><time>2026-04-13T10:05:39.664Z</time></trkpt><trkpt lat="40.6737426" lon="9.2888832"><ele>863.0</ele><time>2026-04-13T10:05:40.774Z</time></trkpt><trkpt lat="40.6738937" lon="9.2887819"><ele>861.6666666666667</ele><time>2026-04-13T10:05:42.659Z</time></trkpt><trkpt lat="40.6739672" lon="9.2887213"><ele>860.3333333333334</ele><time>2026-04-13T10:05:43.747Z</time></trkpt><trkpt lat="40.6740388" lon="9.2886622"><ele>859.0</ele><time>2026-04-13T10:05:44.794Z</time></trkpt><trkpt lat="40.674114" lon="9.2885979"><ele>857.6666666666667</ele><time>2026-04-13T10:05:45.768Z</time></trkpt><trkpt lat="40.6741914" lon="9.2885271"><ele>856.3333333333334</ele><time>2026-04-13T10:05:46.758Z</time></trkpt><trkpt lat="40.674267" lon="9.2884572"><ele>855.0</ele><time>2026-04-13T10:05:47.758Z</time></trkpt><trkpt lat="40.6743346" lon="9.2883902"><ele>855.0</ele><time>2026-04-13T10:05:48.77Z</time></trkpt><trkpt lat="40.6743957" lon="9.2883234"><ele>855.0</ele><time>2026-04-13T10:05:49.756Z</time></trkpt><trkpt lat="40.6744532" lon="9.2882591"><ele>855.0</ele><time>2026-04-13T10:05:50.798Z</time></trkpt><trkpt lat="40.6745068" lon="9.288196"><ele>855.0</ele><time>2026-04-13T10:05:51.746Z</time></trkpt><trkpt lat="40.6745648" lon="9.2881296"><ele>855.0</ele><time>2026-04-13T10:05:52.746Z</time></trkpt><trkpt lat="40.6746241" lon="9.2880625"><ele>855.0</ele><time>2026-04-13T10:05:53.758Z</time></trkpt><trkpt lat="40.6746852" lon="9.2879986"><ele>853.1666666666666</ele><time>2026-04-13T10:05:54.745Z</time></trkpt><trkpt lat="40.6747518" lon="9.2879513"><ele>851.3333333333333</ele><time>2026-04-13T10:05:55.748Z</time></trkpt><trkpt lat="40.6748239" lon="9.2879183"><ele>849.5</ele><time>2026-04-13T10:05:56.744Z</time></trkpt><trkpt lat="40.6749028" lon="9.2878954"><ele>847.6666666666666</ele><time>2026-04-13T10:05:57.738Z</time></trkpt><trkpt lat="40.67499" lon="9.2878836"><ele>845.8333333333333</ele><time>2026-04-13T10:05:58.748Z</time></trkpt><trkpt lat="40.675089" lon="9.2878744"><ele>844.0</ele><time>2026-04-13T10:05:59.746Z</time></trkpt><trkpt lat="40.6751958" lon="9.2878722"><ele>844.4000000000001</ele><time>2026-04-13T10:06:00.739Z</time></trkpt><trkpt lat="40.6753" lon="9.2878707"><ele>844.8</ele><time>2026-04-13T10:06:01.737Z</time></trkpt><trkpt lat="40.6754027" lon="9.2878655"><ele>845.2</ele><time>2026-04-13T10:06:02.731Z</time></trkpt><trkpt lat="40.6755021" lon="9.287864"><ele>845.5999999999999</ele><time>2026-04-13T10:06:03.759Z</time></trkpt><trkpt lat="40.6755956" lon="9.2878583"><ele>846.0</ele><time>2026-04-13T10:06:04.746Z</time></trkpt><trkpt lat="40.675679" lon="9.2878546"><ele>846.0</ele><time>2026-04-13T10:06:05.74Z</time></trkpt><trkpt lat="40.6757587" lon="9.2878482"><ele>846.0</ele><time>2026-04-13T10:06:06.725Z</time></trkpt><trkpt lat="40.6758278" lon="9.2878349"><ele>846.0</ele><time>2026-04-13T10:06:07.727Z</time></trkpt><trkpt lat="40.675934" lon="9.287795"><ele>846.0</ele><time>2026-04-13T10:06:09.728Z</time></trkpt><trkpt lat="40.6759767" lon="9.2877259"><ele>846.0</ele><time>2026-04-13T10:06:11.722Z</time></trkpt><trkpt lat="40.6759787" lon="9.2876128"><ele>846.0</ele><time>2026-04-13T10:06:14.731Z</time></trkpt><trkpt lat="40.6759241" lon="9.2874969"><ele>846.0</ele><time>2026-04-13T10:06:16.722Z</time></trkpt><trkpt lat="40.6758802" lon="9.2874324"><ele>846.0</ele><time>2026-04-13T10:06:17.722Z</time></trkpt><trkpt lat="40.6758291" lon="9.2873601"><ele>846.0</ele><time>2026-04-13T10:06:18.721Z</time></trkpt><trkpt lat="40.6757665" lon="9.2872661"><ele>846.0</ele><time>2026-04-13T10:06:19.705Z</time></trkpt><trkpt lat="40.6756986" lon="9.2871617"><ele>846.0</ele><time>2026-04-13T10:06:20.712Z</time></trkpt><trkpt lat="40.6756305" lon="9.2870605"><ele>846.0</ele><time>2026-04-13T10:06:21.707Z</time></trkpt><trkpt lat="40.6755594" lon="9.2869676"><ele>844.5</ele><time>2026-04-13T10:06:22.719Z</time></trkpt><trkpt lat="40.6754967" lon="9.2868755"><ele>843.0</ele><time>2026-04-13T10:06:23.705Z</time></trkpt><trkpt lat="40.6754396" lon="9.2867856"><ele>841.5</ele><time>2026-04-13T10:06:24.748Z</time></trkpt><trkpt lat="40.6753807" lon="9.2866962"><ele>840.0</ele><time>2026-04-13T10:06:25.708Z</time></trkpt><trkpt lat="40.6753228" lon="9.2866103"><ele>838.5</ele><time>2026-04-13T10:06:26.708Z</time></trkpt><trkpt lat="40.6752653" lon="9.2865233"><ele>837.0</ele><time>2026-04-13T10:06:27.697Z</time></trkpt><trkpt lat="40.6752066" lon="9.2864359"><ele>837.8333333333334</ele><time>2026-04-13T10:06:28.697Z</time></trkpt><trkpt lat="40.6751488" lon="9.2863477"><ele>838.6666666666667</ele><time>2026-04-13T10:06:29.696Z</time></trkpt><trkpt lat="40.6750857" lon="9.2862557"><ele>839.5</ele><time>2026-04-13T10:06:30.711Z</time></trkpt><trkpt lat="40.6750217" lon="9.2861657"><ele>840.3333333333334</ele><time>2026-04-13T10:06:31.688Z</time></trkpt><trkpt lat="40.6749597" lon="9.2860813"><ele>841.1666666666667</ele><time>2026-04-13T10:06:32.684Z</time></trkpt><trkpt lat="40.6749015" lon="9.2860037"><ele>842.0</ele><time>2026-04-13T10:06:33.703Z</time></trkpt><trkpt lat="40.674849" lon="9.2859218"><ele>842.0000000000001</ele><time>2026-04-13T10:06:34.679Z</time></trkpt><trkpt lat="40.6748018" lon="9.2858387"><ele>842.0</ele><time>2026-04-13T10:06:35.683Z</time></trkpt><trkpt lat="40.6747543" lon="9.2857448"><ele>842.0</ele><time>2026-04-13T10:06:36.69Z</time></trkpt><trkpt lat="40.6747084" lon="9.2856378"><ele>842.0</ele><time>2026-04-13T10:06:37.686Z</time></trkpt><trkpt lat="40.6746573" lon="9.2855419"><ele>842.0000000000001</ele><time>2026-04-13T10:06:38.674Z</time></trkpt><trkpt lat="40.6746083" lon="9.2854526"><ele>842.0</ele><time>2026-04-13T10:06:39.683Z</time></trkpt><trkpt lat="40.6745646" lon="9.2853681"><ele>843.2857142857143</ele><time>2026-04-13T10:06:40.679Z</time></trkpt><trkpt lat="40.67452" lon="9.2852873"><ele>844.5714285714286</ele><time>2026-04-13T10:06:41.672Z</time></trkpt><trkpt lat="40.6744787" lon="9.2852091"><ele>845.8571428571429</ele><time>2026-04-13T10:06:42.67Z</time></trkpt><trkpt lat="40.6744332" lon="9.2851368"><ele>847.1428571428571</ele><time>2026-04-13T10:06:43.68Z</time></trkpt><trkpt lat="40.6743803" lon="9.2850728"><ele>848.4285714285714</ele><time>2026-04-13T10:06:44.681Z</time></trkpt><trkpt lat="40.6743245" lon="9.2850032"><ele>849.7142857142858</ele><time>2026-04-13T10:06:45.698Z</time></trkpt><trkpt lat="40.6742724" lon="9.2849317"><ele>851.0</ele><time>2026-04-13T10:06:46.674Z</time></trkpt><trkpt lat="40.6742284" lon="9.2848627"><ele>848.0000000000001</ele><time>2026-04-13T10:06:47.674Z</time></trkpt><trkpt lat="40.674185" lon="9.2847881"><ele>845.0</ele><time>2026-04-13T10:06:48.676Z</time></trkpt><trkpt lat="40.674142" lon="9.2847271"><ele>842.0</ele><time>2026-04-13T10:06:49.668Z</time></trkpt><trkpt lat="40.6740351" lon="9.2846963"><ele>839.0</ele><time>2026-04-13T10:06:51.67Z</time></trkpt><trkpt lat="40.6739087" lon="9.2846945"><ele>836.0000000000001</ele><time>2026-04-13T10:06:53.665Z</time></trkpt><trkpt lat="40.6738359" lon="9.2846926"><ele>833.0</ele><time>2026-04-13T10:06:54.665Z</time></trkpt><trkpt lat="40.6737663" lon="9.2846771"><ele>833.0</ele><time>2026-04-13T10:06:55.661Z</time></trkpt><trkpt lat="40.6736978" lon="9.2846475"><ele>833.0</ele><time>2026-04-13T10:06:56.676Z</time></trkpt><trkpt lat="40.6736365" lon="9.2846077"><ele>833.0</ele><time>2026-04-13T10:06:57.655Z</time></trkpt><trkpt lat="40.6735828" lon="9.2845628"><ele>833.0</ele><time>2026-04-13T10:06:58.692Z</time></trkpt><trkpt lat="40.6735335" lon="9.284504"><ele>833.0</ele><time>2026-04-13T10:06:59.657Z</time></trkpt><trkpt lat="40.6734864" lon="9.2844264"><ele>833.0</ele><time>2026-04-13T10:07:00.662Z</time></trkpt><trkpt lat="40.6734449" lon="9.2843514"><ele>833.0</ele><time>2026-04-13T10:07:01.655Z</time></trkpt><trkpt lat="40.6734067" lon="9.2842687"><ele>831.4</ele><time>2026-04-13T10:07:02.653Z</time></trkpt><trkpt lat="40.673376" lon="9.2841713"><ele>829.8</ele><time>2026-04-13T10:07:03.761Z</time></trkpt><trkpt lat="40.6733441" lon="9.2840768"><ele>828.2</ele><time>2026-04-13T10:07:04.773Z</time></trkpt><trkpt lat="40.6732764" lon="9.2838602"><ele>826.6</ele><time>2026-04-13T10:07:06.781Z</time></trkpt><trkpt lat="40.6732466" lon="9.2837536"><ele>825.0</ele><time>2026-04-13T10:07:07.777Z</time></trkpt><trkpt lat="40.6732224" lon="9.2836616"><ele>828.2</ele><time>2026-04-13T10:07:08.754Z</time></trkpt><trkpt lat="40.6731844" lon="9.283566"><ele>831.4</ele><time>2026-04-13T10:07:09.753Z</time></trkpt><trkpt lat="40.6731395" lon="9.2834675"><ele>834.5999999999999</ele><time>2026-04-13T10:07:10.747Z</time></trkpt><trkpt lat="40.673089" lon="9.2833515"><ele>837.8</ele><time>2026-04-13T10:07:11.753Z</time></trkpt><trkpt lat="40.6730439" lon="9.2832429"><ele>841.0</ele><time>2026-04-13T10:07:12.74Z</time></trkpt><trkpt lat="40.6730012" lon="9.2831322"><ele>842.1999999999999</ele><time>2026-04-13T10:07:13.753Z</time></trkpt><trkpt lat="40.6729706" lon="9.2830056"><ele>843.4</ele><time>2026-04-13T10:07:14.753Z</time></trkpt><trkpt lat="40.6729386" lon="9.2828777"><ele>844.6</ele><time>2026-04-13T10:07:15.742Z</time></trkpt><trkpt lat="40.6729053" lon="9.2827509"><ele>845.8</ele><time>2026-04-13T10:07:16.757Z</time></trkpt><trkpt lat="40.6728784" lon="9.2826211"><ele>847.0</ele><time>2026-04-13T10:07:17.758Z</time></trkpt><trkpt lat="40.672861" lon="9.2824834"><ele>847.0</ele><time>2026-04-13T10:07:18.732Z</time></trkpt><trkpt lat="40.6728484" lon="9.2823541"><ele>847.0</ele><time>2026-04-13T10:07:19.744Z</time></trkpt><trkpt lat="40.6728315" lon="9.2822321"><ele>847.0</ele><time>2026-04-13T10:07:20.746Z</time></trkpt><trkpt lat="40.6728049" lon="9.2821142"><ele>847.0</ele><time>2026-04-13T10:07:21.742Z</time></trkpt><trkpt lat="40.6727794" lon="9.2820018"><ele>847.0</ele><time>2026-04-13T10:07:22.764Z</time></trkpt><trkpt lat="40.6727458" lon="9.2818903"><ele>845.4999999999999</ele><time>2026-04-13T10:07:23.741Z</time></trkpt><trkpt lat="40.6727088" lon="9.2817846"><ele>844.0</ele><time>2026-04-13T10:07:24.727Z</time></trkpt><trkpt lat="40.6726596" lon="9.2816898"><ele>842.5</ele><time>2026-04-13T10:07:25.743Z</time></trkpt><trkpt lat="40.6726039" lon="9.2816073"><ele>841.0</ele><time>2026-04-13T10:07:26.733Z</time></trkpt><trkpt lat="40.6725387" lon="9.2815394"><ele>839.4999999999999</ele><time>2026-04-13T10:07:27.74Z</time></trkpt><trkpt lat="40.6724686" lon="9.2814804"><ele>838.0</ele><time>2026-04-13T10:07:28.749Z</time></trkpt><trkpt lat="40.6723965" lon="9.2814111"><ele>837.9999999999999</ele><time>2026-04-13T10:07:29.739Z</time></trkpt><trkpt lat="40.6723226" lon="9.2813411"><ele>838.0</ele><time>2026-04-13T10:07:30.722Z</time></trkpt><trkpt lat="40.6722594" lon="9.2812707"><ele>838.0</ele><time>2026-04-13T10:07:31.739Z</time></trkpt><trkpt lat="40.6722054" lon="9.281191"><ele>838.0</ele><time>2026-04-13T10:07:32.735Z</time></trkpt><trkpt lat="40.6721546" lon="9.2811077"><ele>837.9999999999999</ele><time>2026-04-13T10:07:33.735Z</time></trkpt><trkpt lat="40.6721118" lon="9.2810121"><ele>838.0</ele><time>2026-04-13T10:07:34.734Z</time></trkpt><trkpt lat="40.6720747" lon="9.2809019"><ele>838.0</ele><time>2026-04-13T10:07:35.744Z</time></trkpt><trkpt lat="40.6720419" lon="9.280784"><ele>838.0</ele><time>2026-04-13T10:07:36.718Z</time></trkpt><trkpt lat="40.6720033" lon="9.2806645"><ele>838.0</ele><time>2026-04-13T10:07:37.728Z</time></trkpt><trkpt lat="40.6719704" lon="9.2805431"><ele>838.0</ele><time>2026-04-13T10:07:38.712Z</time></trkpt><trkpt lat="40.6719393" lon="9.2804283"><ele>838.0</ele><time>2026-04-13T10:07:39.716Z</time></trkpt><trkpt lat="40.6719099" lon="9.2803122"><ele>838.3333333333333</ele><time>2026-04-13T10:07:40.713Z</time></trkpt><trkpt lat="40.6718704" lon="9.2802051"><ele>838.6666666666666</ele><time>2026-04-13T10:07:41.728Z</time></trkpt><trkpt lat="40.6718212" lon="9.2801062"><ele>839.0</ele><time>2026-04-13T10:07:42.717Z</time></trkpt><trkpt lat="40.6717689" lon="9.2800097"><ele>839.3333333333333</ele><time>2026-04-13T10:07:43.72Z</time></trkpt><trkpt lat="40.6717177" lon="9.2799183"><ele>839.6666666666666</ele><time>2026-04-13T10:07:44.749Z</time></trkpt><trkpt lat="40.6716665" lon="9.2798265"><ele>840.0</ele><time>2026-04-13T10:07:45.724Z</time></trkpt><trkpt lat="40.6716175" lon="9.2797331"><ele>840.0</ele><time>2026-04-13T10:07:46.706Z</time></trkpt><trkpt lat="40.671559" lon="9.2796446"><ele>840.0</ele><time>2026-04-13T10:07:47.712Z</time></trkpt><trkpt lat="40.6714963" lon="9.2795605"><ele>840.0</ele><time>2026-04-13T10:07:48.711Z</time></trkpt><trkpt lat="40.6714406" lon="9.2794707"><ele>840.0</ele><time>2026-04-13T10:07:49.722Z</time></trkpt><trkpt lat="40.6713946" lon="9.2793849"><ele>840.0</ele><time>2026-04-13T10:07:50.7Z</time></trkpt><trkpt lat="40.6713498" lon="9.2793088"><ele>840.0</ele><time>2026-04-13T10:07:51.706Z</time></trkpt><trkpt lat="40.6712969" lon="9.2792438"><ele>840.0</ele><time>2026-04-13T10:07:52.699Z</time></trkpt><trkpt lat="40.6712386" lon="9.2791954"><ele>840.0</ele><time>2026-04-13T10:07:53.696Z</time></trkpt><trkpt lat="40.6711772" lon="9.279149"><ele>840.0</ele><time>2026-04-13T10:07:54.712Z</time></trkpt><trkpt lat="40.6711174" lon="9.2790975"><ele>840.0</ele><time>2026-04-13T10:07:55.732Z</time></trkpt><trkpt lat="40.671062" lon="9.2790289"><ele>840.0</ele><time>2026-04-13T10:07:56.704Z</time></trkpt><trkpt lat="40.6710176" lon="9.2789435"><ele>840.0</ele><time>2026-04-13T10:07:57.705Z</time></trkpt><trkpt lat="40.6709764" lon="9.278851"><ele>840.0</ele><time>2026-04-13T10:07:58.697Z</time></trkpt><trkpt lat="40.6709349" lon="9.2787477"><ele>838.8</ele><time>2026-04-13T10:07:59.7Z</time></trkpt><trkpt lat="40.6708909" lon="9.2786469"><ele>837.6</ele><time>2026-04-13T10:08:00.698Z</time></trkpt><trkpt lat="40.6708458" lon="9.2785348"><ele>836.4000000000001</ele><time>2026-04-13T10:08:01.709Z</time></trkpt><trkpt lat="40.6708005" lon="9.2784193"><ele>835.2</ele><time>2026-04-13T10:08:02.705Z</time></trkpt><trkpt lat="40.6707496" lon="9.2782957"><ele>834.0</ele><time>2026-04-13T10:08:03.689Z</time></trkpt><trkpt lat="40.6707022" lon="9.2781696"><ele>836.8000000000001</ele><time>2026-04-13T10:08:04.69Z</time></trkpt><trkpt lat="40.6706603" lon="9.2780476"><ele>839.6</ele><time>2026-04-13T10:08:05.687Z</time></trkpt><trkpt lat="40.6706281" lon="9.2779259"><ele>842.4</ele><time>2026-04-13T10:08:06.685Z</time></trkpt><trkpt lat="40.6706041" lon="9.2778079"><ele>845.2</ele><time>2026-04-13T10:08:07.692Z</time></trkpt><trkpt lat="40.6705831" lon="9.2776846"><ele>848.0</ele><time>2026-04-13T10:08:08.689Z</time></trkpt><trkpt lat="40.6705602" lon="9.2775692"><ele>848.0000000000001</ele><time>2026-04-13T10:08:09.689Z</time></trkpt><trkpt lat="40.6705364" lon="9.2774658"><ele>848.0</ele><time>2026-04-13T10:08:10.688Z</time></trkpt><trkpt lat="40.6705" lon="9.2773791"><ele>848.0</ele><time>2026-04-13T10:08:11.677Z</time></trkpt><trkpt lat="40.6704548" lon="9.2772949"><ele>848.0</ele><time>2026-04-13T10:08:12.672Z</time></trkpt><trkpt lat="40.6704038" lon="9.2772048"><ele>848.0000000000001</ele><time>2026-04-13T10:08:13.68Z</time></trkpt><trkpt lat="40.6703588" lon="9.2771095"><ele>848.0</ele><time>2026-04-13T10:08:14.682Z</time></trkpt><trkpt lat="40.6703099" lon="9.2770152"><ele>848.3333333333334</ele><time>2026-04-13T10:08:15.674Z</time></trkpt><trkpt lat="40.6702533" lon="9.2769189"><ele>848.6666666666667</ele><time>2026-04-13T10:08:16.68Z</time></trkpt><trkpt lat="40.6701905" lon="9.2768321"><ele>849.0</ele><time>2026-04-13T10:08:17.673Z</time></trkpt><trkpt lat="40.6701251" lon="9.2767647"><ele>849.3333333333333</ele><time>2026-04-13T10:08:18.694Z</time></trkpt><trkpt lat="40.6700527" lon="9.2767042"><ele>849.6666666666666</ele><time>2026-04-13T10:08:19.672Z</time></trkpt><trkpt lat="40.6699751" lon="9.2766419"><ele>850.0</ele><time>2026-04-13T10:08:20.677Z</time></trkpt><trkpt lat="40.6699004" lon="9.2765759"><ele>850.0</ele><time>2026-04-13T10:08:21.674Z</time></trkpt><trkpt lat="40.669823" lon="9.2765018"><ele>850.0</ele><time>2026-04-13T10:08:22.682Z</time></trkpt><trkpt lat="40.6697469" lon="9.2764239"><ele>850.0</ele><time>2026-04-13T10:08:23.665Z</time></trkpt><trkpt lat="40.6696758" lon="9.2763482"><ele>850.0</ele><time>2026-04-13T10:08:24.676Z</time></trkpt><trkpt lat="40.669612" lon="9.2762703"><ele>850.0</ele><time>2026-04-13T10:08:25.683Z</time></trkpt><trkpt lat="40.669554" lon="9.2761813"><ele>850.4999999999999</ele><time>2026-04-13T10:08:26.675Z</time></trkpt><trkpt lat="40.6694991" lon="9.2760872"><ele>851.0</ele><time>2026-04-13T10:08:27.68Z</time></trkpt><trkpt lat="40.6694492" lon="9.2759894"><ele>851.5</ele><time>2026-04-13T10:08:28.696Z</time></trkpt><trkpt lat="40.6694054" lon="9.2758896"><ele>852.0</ele><time>2026-04-13T10:08:29.668Z</time></trkpt><trkpt lat="40.6693734" lon="9.2757974"><ele>852.4999999999999</ele><time>2026-04-13T10:08:30.688Z</time></trkpt><trkpt lat="40.669349" lon="9.2756993"><ele>853.0</ele><time>2026-04-13T10:08:31.661Z</time></trkpt><trkpt lat="40.6693285" lon="9.2755908"><ele>852.9999999999999</ele><time>2026-04-13T10:08:32.668Z</time></trkpt><trkpt lat="40.6693172" lon="9.2754873"><ele>853.0</ele><time>2026-04-13T10:08:33.683Z</time></trkpt><trkpt lat="40.6693121" lon="9.2753871"><ele>853.0</ele><time>2026-04-13T10:08:34.668Z</time></trkpt><trkpt lat="40.6693164" lon="9.2752788"><ele>853.0</ele><time>2026-04-13T10:08:35.655Z</time></trkpt><trkpt lat="40.6693355" lon="9.2751655"><ele>852.9999999999999</ele><time>2026-04-13T10:08:36.656Z</time></trkpt><trkpt lat="40.6693671" lon="9.2750514"><ele>853.0</ele><time>2026-04-13T10:08:37.656Z</time></trkpt><trkpt lat="40.6694022" lon="9.2749412"><ele>853.0</ele><time>2026-04-13T10:08:38.662Z</time></trkpt><trkpt lat="40.669436" lon="9.2748308"><ele>853.0</ele><time>2026-04-13T10:08:39.667Z</time></trkpt><trkpt lat="40.6694722" lon="9.274721"><ele>853.0</ele><time>2026-04-13T10:08:40.672Z</time></trkpt><trkpt lat="40.6695095" lon="9.2746082"><ele>853.0</ele><time>2026-04-13T10:08:41.662Z</time></trkpt><trkpt lat="40.6695455" lon="9.2744915"><ele>853.0</ele><time>2026-04-13T10:08:42.663Z</time></trkpt><trkpt lat="40.6695776" lon="9.2743649"><ele>856.0</ele><time>2026-04-13T10:08:43.661Z</time></trkpt><trkpt lat="40.6696015" lon="9.2742326"><ele>859.0</ele><time>2026-04-13T10:08:44.664Z</time></trkpt><trkpt lat="40.6696253" lon="9.27409"><ele>862.0</ele><time>2026-04-13T10:08:45.666Z</time></trkpt><trkpt lat="40.6696486" lon="9.2739516"><ele>865.0</ele><time>2026-04-13T10:08:46.663Z</time></trkpt><trkpt lat="40.6696757" lon="9.2738132"><ele>868.0</ele><time>2026-04-13T10:08:47.653Z</time></trkpt><trkpt lat="40.6696963" lon="9.2736858"><ele>869.1666666666666</ele><time>2026-04-13T10:08:48.654Z</time></trkpt><trkpt lat="40.6697035" lon="9.2735736"><ele>870.3333333333333</ele><time>2026-04-13T10:08:49.75Z</time></trkpt><trkpt lat="40.6697093" lon="9.2734627"><ele>871.5</ele><time>2026-04-13T10:08:50.66Z</time></trkpt><trkpt lat="40.669716" lon="9.2733562"><ele>872.6666666666667</ele><time>2026-04-13T10:08:51.657Z</time></trkpt><trkpt lat="40.6697208" lon="9.2732472"><ele>873.8333333333334</ele><time>2026-04-13T10:08:52.767Z</time></trkpt><trkpt lat="40.6697377" lon="9.2731433"><ele>875.0</ele><time>2026-04-13T10:08:53.761Z</time></trkpt><trkpt lat="40.6697642" lon="9.2730352"><ele>875.3333333333334</ele><time>2026-04-13T10:08:54.754Z</time></trkpt><trkpt lat="40.6698029" lon="9.2729263"><ele>875.6666666666667</ele><time>2026-04-13T10:08:55.772Z</time></trkpt><trkpt lat="40.6698405" lon="9.2728194"><ele>876.0</ele><time>2026-04-13T10:08:56.77Z</time></trkpt><trkpt lat="40.6698783" lon="9.2727124"><ele>876.3333333333333</ele><time>2026-04-13T10:08:57.781Z</time></trkpt><trkpt lat="40.6699152" lon="9.2726064"><ele>876.6666666666666</ele><time>2026-04-13T10:08:58.752Z</time></trkpt><trkpt lat="40.6699359" lon="9.2724992"><ele>877.0</ele><time>2026-04-13T10:08:59.756Z</time></trkpt><trkpt lat="40.6699396" lon="9.2723904"><ele>876.9999999999999</ele><time>2026-04-13T10:09:00.75Z</time></trkpt><trkpt lat="40.6699356" lon="9.2722797"><ele>877.0</ele><time>2026-04-13T10:09:01.742Z</time></trkpt><trkpt lat="40.6699249" lon="9.2721729"><ele>877.0</ele><time>2026-04-13T10:09:02.746Z</time></trkpt><trkpt lat="40.669909" lon="9.2720636"><ele>877.0</ele><time>2026-04-13T10:09:03.747Z</time></trkpt><trkpt lat="40.6698815" lon="9.2719543"><ele>876.9999999999999</ele><time>2026-04-13T10:09:04.76Z</time></trkpt><trkpt lat="40.6698446" lon="9.2718512"><ele>877.0</ele><time>2026-04-13T10:09:05.743Z</time></trkpt><trkpt lat="40.6698071" lon="9.2717636"><ele>877.6666666666666</ele><time>2026-04-13T10:09:06.762Z</time></trkpt><trkpt lat="40.6697781" lon="9.2716816"><ele>878.3333333333333</ele><time>2026-04-13T10:09:07.747Z</time></trkpt><trkpt lat="40.6697589" lon="9.2715903"><ele>879.0</ele><time>2026-04-13T10:09:08.762Z</time></trkpt><trkpt lat="40.6697429" lon="9.2714904"><ele>879.6666666666667</ele><time>2026-04-13T10:09:09.744Z</time></trkpt><trkpt lat="40.6697386" lon="9.2713871"><ele>880.3333333333334</ele><time>2026-04-13T10:09:10.741Z</time></trkpt><trkpt lat="40.6697426" lon="9.2712789"><ele>881.0</ele><time>2026-04-13T10:09:11.743Z</time></trkpt><trkpt lat="40.6697492" lon="9.271174"><ele>881.6666666666667</ele><time>2026-04-13T10:09:12.744Z</time></trkpt><trkpt lat="40.6697528" lon="9.2710677"><ele>882.3333333333334</ele><time>2026-04-13T10:09:13.733Z</time></trkpt><trkpt lat="40.6697484" lon="9.2709598"><ele>883.0</ele><time>2026-04-13T10:09:14.754Z</time></trkpt><trkpt lat="40.6697406" lon="9.2708431"><ele>883.6666666666667</ele><time>2026-04-13T10:09:15.736Z</time></trkpt><trkpt lat="40.6697351" lon="9.270725"><ele>884.3333333333334</ele><time>2026-04-13T10:09:16.741Z</time></trkpt><trkpt lat="40.6697274" lon="9.2706033"><ele>885.0</ele><time>2026-04-13T10:09:17.738Z</time></trkpt><trkpt lat="40.6697175" lon="9.2704858"><ele>885.3333333333334</ele><time>2026-04-13T10:09:18.736Z</time></trkpt><trkpt lat="40.6696969" lon="9.2703746"><ele>885.6666666666667</ele><time>2026-04-13T10:09:19.733Z</time></trkpt><trkpt lat="40.669669" lon="9.2702763"><ele>886.0</ele><time>2026-04-13T10:09:20.726Z</time></trkpt><trkpt lat="40.669636" lon="9.2701948"><ele>886.3333333333334</ele><time>2026-04-13T10:09:21.734Z</time></trkpt><trkpt lat="40.6695998" lon="9.2701172"><ele>886.6666666666667</ele><time>2026-04-13T10:09:22.74Z</time></trkpt><trkpt lat="40.6695624" lon="9.2700305"><ele>887.0</ele><time>2026-04-13T10:09:23.743Z</time></trkpt><trkpt lat="40.6695301" lon="9.2699371"><ele>887.0000000000001</ele><time>2026-04-13T10:09:24.724Z</time></trkpt><trkpt lat="40.6695034" lon="9.2698338"><ele>887.0</ele><time>2026-04-13T10:09:25.739Z</time></trkpt><trkpt lat="40.6694917" lon="9.2697289"><ele>887.0</ele><time>2026-04-13T10:09:26.719Z</time></trkpt><trkpt lat="40.6694884" lon="9.2696186"><ele>887.0</ele><time>2026-04-13T10:09:27.717Z</time></trkpt><trkpt lat="40.6694987" lon="9.2695023"><ele>887.0000000000001</ele><time>2026-04-13T10:09:28.74Z</time></trkpt><trkpt lat="40.6695209" lon="9.269387"><ele>887.0</ele><time>2026-04-13T10:09:29.721Z</time></trkpt><trkpt lat="40.6695474" lon="9.2692769"><ele>887.1666666666667</ele><time>2026-04-13T10:09:30.714Z</time></trkpt><trkpt lat="40.6695651" lon="9.26918"><ele>887.3333333333334</ele><time>2026-04-13T10:09:31.722Z</time></trkpt><trkpt lat="40.6695797" lon="9.2690919"><ele>887.5</ele><time>2026-04-13T10:09:32.723Z</time></trkpt><trkpt lat="40.6695817" lon="9.2690072"><ele>887.6666666666667</ele><time>2026-04-13T10:09:33.796Z</time></trkpt><trkpt lat="40.6695478" lon="9.2688338"><ele>887.8333333333334</ele><time>2026-04-13T10:09:35.727Z</time></trkpt><trkpt lat="40.6695134" lon="9.268732"><ele>888.0</ele><time>2026-04-13T10:09:36.738Z</time></trkpt><trkpt lat="40.6694841" lon="9.268634"><ele>888.5</ele><time>2026-04-13T10:09:37.712Z</time></trkpt><trkpt lat="40.669475" lon="9.2685385"><ele>889.0</ele><time>2026-04-13T10:09:38.723Z</time></trkpt><trkpt lat="40.6694768" lon="9.2684398"><ele>889.5</ele><time>2026-04-13T10:09:39.716Z</time></trkpt><trkpt lat="40.6694899" lon="9.2683412"><ele>890.0</ele><time>2026-04-13T10:09:40.71Z</time></trkpt><trkpt lat="40.6695012" lon="9.2682408"><ele>890.5</ele><time>2026-04-13T10:09:41.721Z</time></trkpt><trkpt lat="40.6695135" lon="9.2681351"><ele>891.0</ele><time>2026-04-13T10:09:42.714Z</time></trkpt><trkpt lat="40.6695262" lon="9.2680244"><ele>889.4285714285714</ele><time>2026-04-13T10:09:43.739Z</time></trkpt><trkpt lat="40.6695353" lon="9.2679167"><ele>887.8571428571429</ele><time>2026-04-13T10:09:44.707Z</time></trkpt><trkpt lat="40.6695448" lon="9.2678129"><ele>886.2857142857142</ele><time>2026-04-13T10:09:45.709Z</time></trkpt><trkpt lat="40.6695601" lon="9.2677229"><ele>884.7142857142858</ele><time>2026-04-13T10:09:46.713Z</time></trkpt><trkpt lat="40.6695718" lon="9.2676329"><ele>883.1428571428571</ele><time>2026-04-13T10:09:47.706Z</time></trkpt><trkpt lat="40.6695886" lon="9.2675393"><ele>881.5714285714286</ele><time>2026-04-13T10:09:48.702Z</time></trkpt><trkpt lat="40.669611" lon="9.2674522"><ele>880.0</ele><time>2026-04-13T10:09:49.696Z</time></trkpt><trkpt lat="40.6696521" lon="9.2673699"><ele>880.0</ele><time>2026-04-13T10:09:50.705Z</time></trkpt><trkpt lat="40.6697074" lon="9.2672893"><ele>880.0</ele><time>2026-04-13T10:09:51.704Z</time></trkpt><trkpt lat="40.6697755" lon="9.2672158"><ele>880.0</ele><time>2026-04-13T10:09:52.706Z</time></trkpt><trkpt lat="40.6698521" lon="9.2671494"><ele>880.0</ele><time>2026-04-13T10:09:53.706Z</time></trkpt><trkpt lat="40.6699356" lon="9.2670814"><ele>880.0</ele><time>2026-04-13T10:09:54.695Z</time></trkpt><trkpt lat="40.6700208" lon="9.2670046"><ele>878.5</ele><time>2026-04-13T10:09:55.705Z</time></trkpt><trkpt lat="40.6701056" lon="9.266915"><ele>877.0</ele><time>2026-04-13T10:09:56.713Z</time></trkpt><trkpt lat="40.6701918" lon="9.2668168"><ele>875.5</ele><time>2026-04-13T10:09:57.692Z</time></trkpt><trkpt lat="40.6702758" lon="9.2667094"><ele>874.0</ele><time>2026-04-13T10:09:58.694Z</time></trkpt><trkpt lat="40.6703535" lon="9.2665949"><ele>875.2</ele><time>2026-04-13T10:09:59.702Z</time></trkpt><trkpt lat="40.670416" lon="9.2664816"><ele>876.4000000000001</ele><time>2026-04-13T10:10:00.697Z</time></trkpt><trkpt lat="40.6704709" lon="9.2663644"><ele>877.6</ele><time>2026-04-13T10:10:01.688Z</time></trkpt><trkpt lat="40.6705319" lon="9.2662461"><ele>878.8</ele><time>2026-04-13T10:10:02.696Z</time></trkpt><trkpt lat="40.6705935" lon="9.2661321"><ele>880.0</ele><time>2026-04-13T10:10:03.691Z</time></trkpt><trkpt lat="40.6706511" lon="9.2660245"><ele>879.9999999999999</ele><time>2026-04-13T10:10:04.707Z</time></trkpt><trkpt lat="40.6706959" lon="9.265935"><ele>880.0</ele><time>2026-04-13T10:10:05.712Z</time></trkpt><trkpt lat="40.6707363" lon="9.2658544"><ele>880.0</ele><time>2026-04-13T10:10:06.703Z</time></trkpt><trkpt lat="40.6707753" lon="9.2657321"><ele>880.0</ele><time>2026-04-13T10:10:08.706Z</time></trkpt><trkpt lat="40.670792" lon="9.2656377"><ele>879.9999999999999</ele><time>2026-04-13T10:10:10.74Z</time></trkpt><trkpt lat="40.6708001" lon="9.2655454"><ele>880.0</ele><time>2026-04-13T10:10:12.747Z</time></trkpt><trkpt lat="40.6708064" lon="9.2654587"><ele>879.4999999999999</ele><time>2026-04-13T10:10:14.74Z</time></trkpt><trkpt lat="40.6708233" lon="9.2653719"><ele>879.0</ele><time>2026-04-13T10:10:17.747Z</time></trkpt><trkpt lat="40.6708906" lon="9.2652526"><ele>878.5</ele><time>2026-04-13T10:10:19.751Z</time></trkpt><trkpt lat="40.6709285" lon="9.2651697"><ele>878.0</ele><time>2026-04-13T10:10:20.75Z</time></trkpt><trkpt lat="40.6709669" lon="9.2650841"><ele>877.4999999999999</ele><time>2026-04-13T10:10:21.743Z</time></trkpt><trkpt lat="40.6710037" lon="9.2649865"><ele>877.0</ele><time>2026-04-13T10:10:22.75Z</time></trkpt><trkpt lat="40.671035" lon="9.264886"><ele>876.9999999999999</ele><time>2026-04-13T10:10:23.747Z</time></trkpt><trkpt lat="40.6710584" lon="9.2647924"><ele>877.0</ele><time>2026-04-13T10:10:24.749Z</time></trkpt><trkpt lat="40.6710769" lon="9.264705"><ele>877.0</ele><time>2026-04-13T10:10:25.773Z</time></trkpt><trkpt lat="40.6710862" lon="9.264613"><ele>877.0</ele><time>2026-04-13T10:10:26.762Z</time></trkpt><trkpt lat="40.6710956" lon="9.2645191"><ele>876.9999999999999</ele><time>2026-04-13T10:10:27.784Z</time></trkpt><trkpt lat="40.6711124" lon="9.2644163"><ele>877.0</ele><time>2026-04-13T10:10:28.752Z</time></trkpt><trkpt lat="40.6711313" lon="9.2643017"><ele>876.3333333333333</ele><time>2026-04-13T10:10:29.75Z</time></trkpt><trkpt lat="40.6711536" lon="9.2641855"><ele>875.6666666666666</ele><time>2026-04-13T10:10:30.746Z</time></trkpt><trkpt lat="40.6711775" lon="9.26407"><ele>875.0</ele><time>2026-04-13T10:10:31.75Z</time></trkpt><trkpt lat="40.6712047" lon="9.2639557"><ele>874.3333333333333</ele><time>2026-04-13T10:10:32.757Z</time></trkpt><trkpt lat="40.6712252" lon="9.2638436"><ele>873.6666666666666</ele><time>2026-04-13T10:10:33.746Z</time></trkpt><trkpt lat="40.6712494" lon="9.2637345"><ele>873.0</ele><time>2026-04-13T10:10:34.763Z</time></trkpt><trkpt lat="40.6712812" lon="9.2636265"><ele>872.0</ele><time>2026-04-13T10:10:35.749Z</time></trkpt><trkpt lat="40.6713169" lon="9.2635228"><ele>871.0</ele><time>2026-04-13T10:10:36.749Z</time></trkpt><trkpt lat="40.671357" lon="9.2634227"><ele>870.0</ele><time>2026-04-13T10:10:37.763Z</time></trkpt><trkpt lat="40.6714005" lon="9.2633267"><ele>869.0</ele><time>2026-04-13T10:10:38.746Z</time></trkpt><trkpt lat="40.6714485" lon="9.2632375"><ele>868.0</ele><time>2026-04-13T10:10:39.772Z</time></trkpt><trkpt lat="40.6714975" lon="9.2631592"><ele>867.0</ele><time>2026-04-13T10:10:40.746Z</time></trkpt><trkpt lat="40.6715519" lon="9.2630815"><ele>865.3333333333334</ele><time>2026-04-13T10:10:41.78Z</time></trkpt><trkpt lat="40.671607" lon="9.2630033"><ele>863.6666666666667</ele><time>2026-04-13T10:10:42.748Z</time></trkpt><trkpt lat="40.6716639" lon="9.2629165"><ele>862.0</ele><time>2026-04-13T10:10:43.757Z</time></trkpt><trkpt lat="40.6717214" lon="9.2628188"><ele>860.3333333333334</ele><time>2026-04-13T10:10:44.757Z</time></trkpt><trkpt lat="40.6717776" lon="9.2627166"><ele>858.6666666666667</ele><time>2026-04-13T10:10:45.751Z</time></trkpt><trkpt lat="40.6718261" lon="9.2626153"><ele>857.0</ele><time>2026-04-13T10:10:46.758Z</time></trkpt><trkpt lat="40.6718692" lon="9.2625146"><ele>857.0000000000001</ele><time>2026-04-13T10:10:47.778Z</time></trkpt><trkpt lat="40.6719051" lon="9.2624042"><ele>857.0</ele><time>2026-04-13T10:10:48.755Z</time></trkpt><trkpt lat="40.6719279" lon="9.2622926"><ele>857.0</ele><time>2026-04-13T10:10:49.762Z</time></trkpt><trkpt lat="40.6719393" lon="9.2621816"><ele>857.0</ele><time>2026-04-13T10:10:50.757Z</time></trkpt><trkpt lat="40.6719432" lon="9.2620714"><ele>857.0000000000001</ele><time>2026-04-13T10:10:51.754Z</time></trkpt><trkpt lat="40.6719319" lon="9.2619536"><ele>857.0</ele><time>2026-04-13T10:10:52.752Z</time></trkpt><trkpt lat="40.6719126" lon="9.2618297"><ele>855.8</ele><time>2026-04-13T10:10:53.755Z</time></trkpt><trkpt lat="40.6718867" lon="9.2617119"><ele>854.6</ele><time>2026-04-13T10:10:54.758Z</time></trkpt><trkpt lat="40.67186" lon="9.2615868"><ele>853.4</ele><time>2026-04-13T10:10:55.776Z</time></trkpt><trkpt lat="40.6718398" lon="9.2614423"><ele>852.1999999999999</ele><time>2026-04-13T10:10:56.755Z</time></trkpt><trkpt lat="40.6718279" lon="9.2612949"><ele>851.0</ele><time>2026-04-13T10:10:57.776Z</time></trkpt><trkpt lat="40.6718245" lon="9.2611502"><ele>850.5</ele><time>2026-04-13T10:10:58.753Z</time></trkpt><trkpt lat="40.6718317" lon="9.261"><ele>850.0</ele><time>2026-04-13T10:10:59.783Z</time></trkpt><trkpt lat="40.6718445" lon="9.2608428"><ele>849.5</ele><time>2026-04-13T10:11:00.762Z</time></trkpt><trkpt lat="40.6718666" lon="9.2606828"><ele>849.0</ele><time>2026-04-13T10:11:01.755Z</time></trkpt><trkpt lat="40.6718902" lon="9.260523"><ele>849.0</ele><time>2026-04-13T10:11:02.773Z</time></trkpt><trkpt lat="40.6719188" lon="9.2603744"><ele>849.0</ele><time>2026-04-13T10:11:03.753Z</time></trkpt><trkpt lat="40.6719457" lon="9.2602427"><ele>849.0</ele><time>2026-04-13T10:11:04.775Z</time></trkpt><trkpt lat="40.6719648" lon="9.2601067"><ele>849.0</ele><time>2026-04-13T10:11:05.773Z</time></trkpt><trkpt lat="40.6719808" lon="9.25996"><ele>849.0</ele><time>2026-04-13T10:11:06.759Z</time></trkpt><trkpt lat="40.6719914" lon="9.2598109"><ele>847.0</ele><time>2026-04-13T10:11:07.769Z</time></trkpt><trkpt lat="40.6720014" lon="9.2596702"><ele>845.0</ele><time>2026-04-13T10:11:08.755Z</time></trkpt><trkpt lat="40.6720069" lon="9.2595395"><ele>843.0</ele><time>2026-04-13T10:11:09.77Z</time></trkpt><trkpt lat="40.6720198" lon="9.2594162"><ele>841.0</ele><time>2026-04-13T10:11:10.776Z</time></trkpt><trkpt lat="40.6720535" lon="9.2593004"><ele>839.0</ele><time>2026-04-13T10:11:11.783Z</time></trkpt><trkpt lat="40.6721054" lon="9.259199"><ele>839.0</ele><time>2026-04-13T10:11:12.758Z</time></trkpt><trkpt lat="40.6721629" lon="9.259098"><ele>839.0</ele><time>2026-04-13T10:11:13.775Z</time></trkpt><trkpt lat="40.6722125" lon="9.2589805"><ele>839.0</ele><time>2026-04-13T10:11:14.761Z</time></trkpt><trkpt lat="40.6722526" lon="9.2588616"><ele>839.0</ele><time>2026-04-13T10:11:15.789Z</time></trkpt><trkpt lat="40.6722832" lon="9.2587333"><ele>839.0</ele><time>2026-04-13T10:11:16.772Z</time></trkpt><trkpt lat="40.6723016" lon="9.2585965"><ele>838.0</ele><time>2026-04-13T10:11:17.776Z</time></trkpt><trkpt lat="40.6723102" lon="9.2584539"><ele>837.0</ele><time>2026-04-13T10:11:18.759Z</time></trkpt><trkpt lat="40.6723104" lon="9.258313"><ele>836.0</ele><time>2026-04-13T10:11:19.77Z</time></trkpt><trkpt lat="40.6723099" lon="9.2581823"><ele>835.0</ele><time>2026-04-13T10:11:20.784Z</time></trkpt><trkpt lat="40.672312" lon="9.258059"><ele>834.0</ele><time>2026-04-13T10:11:21.789Z</time></trkpt><trkpt lat="40.6723074" lon="9.2579413"><ele>833.5</ele><time>2026-04-13T10:11:22.781Z</time></trkpt><trkpt lat="40.6722945" lon="9.2578336"><ele>833.0</ele><time>2026-04-13T10:11:23.777Z</time></trkpt><trkpt lat="40.6722765" lon="9.2577309"><ele>832.5</ele><time>2026-04-13T10:11:24.768Z</time></trkpt><trkpt lat="40.6722447" lon="9.2576288"><ele>832.0</ele><time>2026-04-13T10:11:25.778Z</time></trkpt><trkpt lat="40.6722032" lon="9.25753"><ele>831.5</ele><time>2026-04-13T10:11:26.761Z</time></trkpt><trkpt lat="40.6721474" lon="9.257445"><ele>831.0</ele><time>2026-04-13T10:11:27.766Z</time></trkpt><trkpt lat="40.6720841" lon="9.2573718"><ele>831.0</ele><time>2026-04-13T10:11:28.774Z</time></trkpt><trkpt lat="40.6720154" lon="9.2572953"><ele>831.0</ele><time>2026-04-13T10:11:29.779Z</time></trkpt><trkpt lat="40.6719539" lon="9.2572298"><ele>831.0</ele><time>2026-04-13T10:11:30.771Z</time></trkpt><trkpt lat="40.6718936" lon="9.2571614"><ele>831.0</ele><time>2026-04-13T10:11:31.766Z</time></trkpt><trkpt lat="40.6718292" lon="9.2570783"><ele>831.0</ele><time>2026-04-13T10:11:32.789Z</time></trkpt><trkpt lat="40.6717745" lon="9.2569845"><ele>831.0</ele><time>2026-04-13T10:11:33.783Z</time></trkpt><trkpt lat="40.6717304" lon="9.2568722"><ele>829.8</ele><time>2026-04-13T10:11:34.786Z</time></trkpt><trkpt lat="40.6716839" lon="9.2567525"><ele>828.5999999999999</ele><time>2026-04-13T10:11:35.776Z</time></trkpt><trkpt lat="40.6716324" lon="9.2566263"><ele>827.4</ele><time>2026-04-13T10:11:36.766Z</time></trkpt><trkpt lat="40.6715785" lon="9.2564919"><ele>826.2</ele><time>2026-04-13T10:11:37.789Z</time></trkpt><trkpt lat="40.6715263" lon="9.2563558"><ele>825.0</ele><time>2026-04-13T10:11:38.779Z</time></trkpt><trkpt lat="40.6714699" lon="9.2562192"><ele>824.0</ele><time>2026-04-13T10:11:39.789Z</time></trkpt><trkpt lat="40.6714103" lon="9.2560851"><ele>823.0</ele><time>2026-04-13T10:11:40.785Z</time></trkpt><trkpt lat="40.6713501" lon="9.2559516"><ele>822.0</ele><time>2026-04-13T10:11:41.79Z</time></trkpt><trkpt lat="40.6712937" lon="9.2558299"><ele>821.0</ele><time>2026-04-13T10:11:42.779Z</time></trkpt><trkpt lat="40.6712377" lon="9.2557162"><ele>820.0</ele><time>2026-04-13T10:11:43.787Z</time></trkpt><trkpt lat="40.6711867" lon="9.2555982"><ele>820.0</ele><time>2026-04-13T10:11:44.773Z</time></trkpt><trkpt lat="40.6711396" lon="9.2554831"><ele>820.0</ele><time>2026-04-13T10:11:45.797Z</time></trkpt><trkpt lat="40.6710954" lon="9.2553642"><ele>820.0</ele><time>2026-04-13T10:11:46.787Z</time></trkpt><trkpt lat="40.6710522" lon="9.2552429"><ele>820.0</ele><time>2026-04-13T10:11:47.793Z</time></trkpt><trkpt lat="40.6710158" lon="9.2551234"><ele>820.0</ele><time>2026-04-13T10:11:48.814Z</time></trkpt><trkpt lat="40.6709862" lon="9.2550081"><ele>821.0</ele><time>2026-04-13T10:11:49.811Z</time></trkpt><trkpt lat="40.6709608" lon="9.254887"><ele>822.0</ele><time>2026-04-13T10:11:50.787Z</time></trkpt><trkpt lat="40.6709359" lon="9.2547579"><ele>823.0</ele><time>2026-04-13T10:11:51.793Z</time></trkpt><trkpt lat="40.6709134" lon="9.2546248"><ele>824.0</ele><time>2026-04-13T10:11:52.784Z</time></trkpt><trkpt lat="40.6709002" lon="9.2544843"><ele>825.0</ele><time>2026-04-13T10:11:53.795Z</time></trkpt><trkpt lat="40.6708883" lon="9.2543377"><ele>825.0</ele><time>2026-04-13T10:11:54.793Z</time></trkpt><trkpt lat="40.6708809" lon="9.2541991"><ele>825.0</ele><time>2026-04-13T10:11:55.793Z</time></trkpt><trkpt lat="40.6708827" lon="9.2540675"><ele>825.0</ele><time>2026-04-13T10:11:56.792Z</time></trkpt><trkpt lat="40.6708869" lon="9.2539265"><ele>825.0</ele><time>2026-04-13T10:11:57.787Z</time></trkpt><trkpt lat="40.6708937" lon="9.2537884"><ele>825.0</ele><time>2026-04-13T10:11:58.78Z</time></trkpt><trkpt lat="40.6708942" lon="9.253657"><ele>824.4</ele><time>2026-04-13T10:11:59.794Z</time></trkpt><trkpt lat="40.6708897" lon="9.2535347"><ele>823.8</ele><time>2026-04-13T10:12:00.784Z</time></trkpt><trkpt lat="40.6708889" lon="9.2534136"><ele>823.2</ele><time>2026-04-13T10:12:01.793Z</time></trkpt><trkpt lat="40.6708956" lon="9.2532854"><ele>822.6</ele><time>2026-04-13T10:12:02.792Z</time></trkpt><trkpt lat="40.6709067" lon="9.2531465"><ele>822.0</ele><time>2026-04-13T10:12:03.794Z</time></trkpt><trkpt lat="40.6709226" lon="9.2530002"><ele>821.8</ele><time>2026-04-13T10:12:04.791Z</time></trkpt><trkpt lat="40.670945" lon="9.252851"><ele>821.6</ele><time>2026-04-13T10:12:05.801Z</time></trkpt><trkpt lat="40.670975" lon="9.2527055"><ele>821.4</ele><time>2026-04-13T10:12:06.785Z</time></trkpt><trkpt lat="40.6710064" lon="9.2525684"><ele>821.1999999999999</ele><time>2026-04-13T10:12:07.797Z</time></trkpt><trkpt lat="40.6710358" lon="9.2524307"><ele>821.0</ele><time>2026-04-13T10:12:08.79Z</time></trkpt><trkpt lat="40.6710667" lon="9.2522921"><ele>821.25</ele><time>2026-04-13T10:12:09.795Z</time></trkpt><trkpt lat="40.6711086" lon="9.25215"><ele>821.5</ele><time>2026-04-13T10:12:10.785Z</time></trkpt><trkpt lat="40.6711645" lon="9.2520074"><ele>821.75</ele><time>2026-04-13T10:12:11.794Z</time></trkpt><trkpt lat="40.6712281" lon="9.251862"><ele>822.0</ele><time>2026-04-13T10:12:12.782Z</time></trkpt><trkpt lat="40.6713004" lon="9.2517221"><ele>822.0</ele><time>2026-04-13T10:12:13.78Z</time></trkpt><trkpt lat="40.6713816" lon="9.2515861"><ele>822.0</ele><time>2026-04-13T10:12:14.787Z</time></trkpt><trkpt lat="40.6714627" lon="9.2514582"><ele>822.0</ele><time>2026-04-13T10:12:15.789Z</time></trkpt><trkpt lat="40.6715456" lon="9.2513354"><ele>822.0</ele><time>2026-04-13T10:12:16.794Z</time></trkpt><trkpt lat="40.6716205" lon="9.2512016"><ele>822.0</ele><time>2026-04-13T10:12:17.798Z</time></trkpt><trkpt lat="40.6716901" lon="9.2510532"><ele>822.0</ele><time>2026-04-13T10:12:18.778Z</time></trkpt><trkpt lat="40.6717536" lon="9.2508944"><ele>822.0</ele><time>2026-04-13T10:12:19.799Z</time></trkpt><trkpt lat="40.6718079" lon="9.2507332"><ele>822.0</ele><time>2026-04-13T10:12:20.8Z</time></trkpt><trkpt lat="40.6718509" lon="9.2505718"><ele>822.25</ele><time>2026-04-13T10:12:21.802Z</time></trkpt><trkpt lat="40.6718891" lon="9.2504124"><ele>822.5</ele><time>2026-04-13T10:12:22.796Z</time></trkpt><trkpt lat="40.6719348" lon="9.2502568"><ele>822.75</ele><time>2026-04-13T10:12:23.787Z</time></trkpt><trkpt lat="40.6719869" lon="9.2501244"><ele>823.0</ele><time>2026-04-13T10:12:24.777Z</time></trkpt><trkpt lat="40.6720379" lon="9.2500116"><ele>823.1666666666666</ele><time>2026-04-13T10:12:25.79Z</time></trkpt><trkpt lat="40.6720841" lon="9.2499202"><ele>823.3333333333333</ele><time>2026-04-13T10:12:26.783Z</time></trkpt><trkpt lat="40.6721285" lon="9.2498425"><ele>823.5</ele><time>2026-04-13T10:12:27.792Z</time></trkpt><trkpt lat="40.6721726" lon="9.2497668"><ele>823.6666666666667</ele><time>2026-04-13T10:12:28.79Z</time></trkpt><trkpt lat="40.6722093" lon="9.2496978"><ele>823.8333333333334</ele><time>2026-04-13T10:12:29.814Z</time></trkpt><trkpt lat="40.6722474" lon="9.2495944"><ele>824.0</ele><time>2026-04-13T10:12:31.81Z</time></trkpt><trkpt lat="40.6722158" lon="9.2494877"><ele>824.1666666666667</ele><time>2026-04-13T10:12:34.783Z</time></trkpt><trkpt lat="40.6721545" lon="9.2494633"><ele>824.3333333333334</ele><time>2026-04-13T10:12:36.789Z</time></trkpt><trkpt lat="40.6720811" lon="9.2495127"><ele>824.5</ele><time>2026-04-13T10:12:38.782Z</time></trkpt><trkpt lat="40.6720292" lon="9.2495752"><ele>824.6666666666667</ele><time>2026-04-13T10:12:39.823Z</time></trkpt><trkpt lat="40.6719667" lon="9.2496534"><ele>824.8333333333334</ele><time>2026-04-13T10:12:40.798Z</time></trkpt><trkpt lat="40.6718894" lon="9.2497423"><ele>825.0</ele><time>2026-04-13T10:12:41.803Z</time></trkpt><trkpt lat="40.6718093" lon="9.2498465"><ele>824.6</ele><time>2026-04-13T10:12:42.793Z</time></trkpt><trkpt lat="40.671721" lon="9.2499493"><ele>824.2</ele><time>2026-04-13T10:12:43.788Z</time></trkpt><trkpt lat="40.6716332" lon="9.2500544"><ele>823.8</ele><time>2026-04-13T10:12:44.798Z</time></trkpt><trkpt lat="40.6715512" lon="9.250143"><ele>823.4</ele><time>2026-04-13T10:12:45.8Z</time></trkpt><trkpt lat="40.6714769" lon="9.2502279"><ele>823.0</ele><time>2026-04-13T10:12:46.807Z</time></trkpt><trkpt lat="40.6714049" lon="9.2503069"><ele>823.0</ele><time>2026-04-13T10:12:47.808Z</time></trkpt><trkpt lat="40.671328" lon="9.2503786"><ele>823.0</ele><time>2026-04-13T10:12:48.818Z</time></trkpt><trkpt lat="40.6712467" lon="9.2504456"><ele>823.0</ele><time>2026-04-13T10:12:49.804Z</time></trkpt><trkpt lat="40.67116" lon="9.2505014"><ele>823.0</ele><time>2026-04-13T10:12:50.799Z</time></trkpt><trkpt lat="40.6710702" lon="9.2505439"><ele>823.0</ele><time>2026-04-13T10:12:51.798Z</time></trkpt><trkpt lat="40.6709814" lon="9.2505879"><ele>822.2</ele><time>2026-04-13T10:12:52.801Z</time></trkpt><trkpt lat="40.670895" lon="9.2506446"><ele>821.4</ele><time>2026-04-13T10:12:53.791Z</time></trkpt><trkpt lat="40.6708097" lon="9.2507023"><ele>820.6</ele><time>2026-04-13T10:12:54.803Z</time></trkpt><trkpt lat="40.6707212" lon="9.2507656"><ele>819.8000000000001</ele><time>2026-04-13T10:12:55.836Z</time></trkpt><trkpt lat="40.6706354" lon="9.2508298"><ele>819.0</ele><time>2026-04-13T10:12:56.792Z</time></trkpt><trkpt lat="40.670554" lon="9.2508961"><ele>819.0</ele><time>2026-04-13T10:12:57.792Z</time></trkpt><trkpt lat="40.6704771" lon="9.250965"><ele>819.0</ele><time>2026-04-13T10:12:58.804Z</time></trkpt><trkpt lat="40.670399" lon="9.2510471"><ele>819.0</ele><time>2026-04-13T10:12:59.8Z</time></trkpt><trkpt lat="40.6703209" lon="9.2511381"><ele>819.0</ele><time>2026-04-13T10:13:00.843Z</time></trkpt><trkpt lat="40.6702438" lon="9.2512443"><ele>819.0</ele><time>2026-04-13T10:13:01.81Z</time></trkpt><trkpt lat="40.6701708" lon="9.2513542"><ele>819.2</ele><time>2026-04-13T10:13:02.798Z</time></trkpt><trkpt lat="40.6701112" lon="9.2514532"><ele>819.4000000000001</ele><time>2026-04-13T10:13:03.812Z</time></trkpt><trkpt lat="40.6700628" lon="9.2515393"><ele>819.6</ele><time>2026-04-13T10:13:04.799Z</time></trkpt><trkpt lat="40.6700035" lon="9.251663"><ele>819.8</ele><time>2026-04-13T10:13:06.816Z</time></trkpt><trkpt lat="40.6699618" lon="9.251749"><ele>820.0</ele><time>2026-04-13T10:13:08.798Z</time></trkpt><trkpt lat="40.6699105" lon="9.2518628"><ele>820.4</ele><time>2026-04-13T10:13:10.797Z</time></trkpt><trkpt lat="40.6698411" lon="9.2520027"><ele>820.8</ele><time>2026-04-13T10:13:12.809Z</time></trkpt><trkpt lat="40.6697745" lon="9.2521146"><ele>821.2</ele><time>2026-04-13T10:13:14.791Z</time></trkpt><trkpt lat="40.6697227" lon="9.2521906"><ele>821.6</ele><time>2026-04-13T10:13:16.79Z</time></trkpt><trkpt lat="40.6696657" lon="9.2522686"><ele>822.0</ele><time>2026-04-13T10:13:18.805Z</time></trkpt><trkpt lat="40.669602" lon="9.2523531"><ele>822.2</ele><time>2026-04-13T10:13:20.798Z</time></trkpt><trkpt lat="40.6695336" lon="9.2524315"><ele>822.4000000000001</ele><time>2026-04-13T10:13:22.804Z</time></trkpt><trkpt lat="40.6694487" lon="9.2525145"><ele>822.5999999999999</ele><time>2026-04-13T10:13:24.802Z</time></trkpt><trkpt lat="40.6693498" lon="9.2526133"><ele>822.8</ele><time>2026-04-13T10:13:26.798Z</time></trkpt><trkpt lat="40.6692926" lon="9.2526731"><ele>823.0</ele><time>2026-04-13T10:13:27.802Z</time></trkpt><trkpt lat="40.669231" lon="9.2527283"><ele>824.1666666666666</ele><time>2026-04-13T10:13:28.794Z</time></trkpt><trkpt lat="40.6691647" lon="9.2527796"><ele>825.3333333333333</ele><time>2026-04-13T10:13:29.797Z</time></trkpt><trkpt lat="40.6690922" lon="9.2528334"><ele>826.5</ele><time>2026-04-13T10:13:30.804Z</time></trkpt><trkpt lat="40.6690177" lon="9.2528866"><ele>827.6666666666667</ele><time>2026-04-13T10:13:31.806Z</time></trkpt><trkpt lat="40.6689345" lon="9.2529424"><ele>828.8333333333334</ele><time>2026-04-13T10:13:32.816Z</time></trkpt><trkpt lat="40.6688428" lon="9.2529953"><ele>830.0</ele><time>2026-04-13T10:13:33.807Z</time></trkpt><trkpt lat="40.6687545" lon="9.253042"><ele>830.0</ele><time>2026-04-13T10:13:34.803Z</time></trkpt><trkpt lat="40.6686673" lon="9.2530887"><ele>830.0</ele><time>2026-04-13T10:13:35.799Z</time></trkpt><trkpt lat="40.6685753" lon="9.2531304"><ele>830.0</ele><time>2026-04-13T10:13:36.808Z</time></trkpt><trkpt lat="40.6684844" lon="9.2531775"><ele>830.0</ele><time>2026-04-13T10:13:37.803Z</time></trkpt><trkpt lat="40.6683914" lon="9.2532391"><ele>830.0</ele><time>2026-04-13T10:13:38.808Z</time></trkpt><trkpt lat="40.6682961" lon="9.2533082"><ele>830.2</ele><time>2026-04-13T10:13:39.796Z</time></trkpt><trkpt lat="40.6682022" lon="9.253384"><ele>830.4</ele><time>2026-04-13T10:13:40.806Z</time></trkpt><trkpt lat="40.6681142" lon="9.253467"><ele>830.5999999999999</ele><time>2026-04-13T10:13:41.819Z</time></trkpt><trkpt lat="40.6680267" lon="9.2535507"><ele>830.8</ele><time>2026-04-13T10:13:42.799Z</time></trkpt><trkpt lat="40.6679326" lon="9.2536239"><ele>831.0</ele><time>2026-04-13T10:13:43.81Z</time></trkpt><trkpt lat="40.6677323" lon="9.2537554"><ele>831.0</ele><time>2026-04-13T10:13:45.804Z</time></trkpt><trkpt lat="40.6676253" lon="9.2538286"><ele>831.0</ele><time>2026-04-13T10:13:46.811Z</time></trkpt><trkpt lat="40.6675157" lon="9.2539067"><ele>831.0</ele><time>2026-04-13T10:13:47.797Z</time></trkpt><trkpt lat="40.6674184" lon="9.2540042"><ele>831.0</ele><time>2026-04-13T10:13:48.804Z</time></trkpt><trkpt lat="40.6672408" lon="9.2542262"><ele>831.0</ele><time>2026-04-13T10:13:50.705Z</time></trkpt><trkpt lat="40.6671541" lon="9.2543357"><ele>831.0</ele><time>2026-04-13T10:13:51.713Z</time></trkpt><trkpt lat="40.667071" lon="9.2544473"><ele>831.0</ele><time>2026-04-13T10:13:52.697Z</time></trkpt><trkpt lat="40.6669862" lon="9.2545527"><ele>831.0</ele><time>2026-04-13T10:13:53.698Z</time></trkpt><trkpt lat="40.6668978" lon="9.254661"><ele>832.5</ele><time>2026-04-13T10:13:54.713Z</time></trkpt><trkpt lat="40.6668083" lon="9.2547691"><ele>834.0</ele><time>2026-04-13T10:13:55.701Z</time></trkpt><trkpt lat="40.6667181" lon="9.2548812"><ele>835.5</ele><time>2026-04-13T10:13:56.705Z</time></trkpt><trkpt lat="40.6666297" lon="9.2549868"><ele>837.0</ele><time>2026-04-13T10:13:57.712Z</time></trkpt><trkpt lat="40.6665464" lon="9.2550782"><ele>837.0</ele><time>2026-04-13T10:13:58.705Z</time></trkpt><trkpt lat="40.6664665" lon="9.2551529"><ele>837.0</ele><time>2026-04-13T10:13:59.71Z</time></trkpt><trkpt lat="40.6663762" lon="9.2552193"><ele>837.0</ele><time>2026-04-13T10:14:00.726Z</time></trkpt><trkpt lat="40.6662721" lon="9.255273"><ele>837.0</ele><time>2026-04-13T10:14:01.707Z</time></trkpt><trkpt lat="40.6661611" lon="9.2553196"><ele>837.0</ele><time>2026-04-13T10:14:02.727Z</time></trkpt><trkpt lat="40.6660457" lon="9.2553625"><ele>837.5</ele><time>2026-04-13T10:14:03.718Z</time></trkpt><trkpt lat="40.6659279" lon="9.2553902"><ele>838.0</ele><time>2026-04-13T10:14:04.719Z</time></trkpt><trkpt lat="40.6658081" lon="9.2554075"><ele>838.5</ele><time>2026-04-13T10:14:05.729Z</time></trkpt><trkpt lat="40.6656865" lon="9.2554251"><ele>839.0</ele><time>2026-04-13T10:14:06.705Z</time></trkpt><trkpt lat="40.6655615" lon="9.2554492"><ele>839.0</ele><time>2026-04-13T10:14:07.728Z</time></trkpt><trkpt lat="40.665438" lon="9.255481"><ele>839.0</ele><time>2026-04-13T10:14:08.722Z</time></trkpt><trkpt lat="40.6653148" lon="9.2555062"><ele>839.0</ele><time>2026-04-13T10:14:09.718Z</time></trkpt><trkpt lat="40.6651866" lon="9.255518"><ele>839.0</ele><time>2026-04-13T10:14:10.706Z</time></trkpt><trkpt lat="40.6650615" lon="9.2555212"><ele>838.75</ele><time>2026-04-13T10:14:11.71Z</time></trkpt><trkpt lat="40.6649436" lon="9.2555174"><ele>838.5</ele><time>2026-04-13T10:14:12.714Z</time></trkpt><trkpt lat="40.6648281" lon="9.2555114"><ele>838.25</ele><time>2026-04-13T10:14:13.716Z</time></trkpt><trkpt lat="40.6647159" lon="9.255501"><ele>838.0</ele><time>2026-04-13T10:14:14.714Z</time></trkpt><trkpt lat="40.6646048" lon="9.2554904"><ele>838.0</ele><time>2026-04-13T10:14:15.71Z</time></trkpt><trkpt lat="40.6644982" lon="9.2554857"><ele>838.0</ele><time>2026-04-13T10:14:16.731Z</time></trkpt><trkpt lat="40.6643913" lon="9.2554743"><ele>838.0</ele><time>2026-04-13T10:14:17.712Z</time></trkpt><trkpt lat="40.6642788" lon="9.2554485"><ele>838.0</ele><time>2026-04-13T10:14:18.736Z</time></trkpt><trkpt lat="40.6641655" lon="9.2554126"><ele>838.0</ele><time>2026-04-13T10:14:19.731Z</time></trkpt><trkpt lat="40.6640523" lon="9.2553712"><ele>837.25</ele><time>2026-04-13T10:14:20.729Z</time></trkpt><trkpt lat="40.6639399" lon="9.2553336"><ele>836.5</ele><time>2026-04-13T10:14:21.717Z</time></trkpt><trkpt lat="40.6638252" lon="9.2553023"><ele>835.75</ele><time>2026-04-13T10:14:22.717Z</time></trkpt><trkpt lat="40.6636979" lon="9.2552843"><ele>835.0</ele><time>2026-04-13T10:14:23.725Z</time></trkpt><trkpt lat="40.6635648" lon="9.2552744"><ele>833.25</ele><time>2026-04-13T10:14:24.75Z</time></trkpt><trkpt lat="40.6634379" lon="9.2552676"><ele>831.5</ele><time>2026-04-13T10:14:25.723Z</time></trkpt><trkpt lat="40.6633159" lon="9.2552672"><ele>829.75</ele><time>2026-04-13T10:14:26.721Z</time></trkpt><trkpt lat="40.6631898" lon="9.2552675"><ele>828.0</ele><time>2026-04-13T10:14:27.715Z</time></trkpt><trkpt lat="40.6630571" lon="9.2552573"><ele>828.0</ele><time>2026-04-13T10:14:28.738Z</time></trkpt><trkpt lat="40.6629199" lon="9.2552444"><ele>828.0</ele><time>2026-04-13T10:14:29.727Z</time></trkpt><trkpt lat="40.6627767" lon="9.2552271"><ele>828.0</ele><time>2026-04-13T10:14:30.722Z</time></trkpt><trkpt lat="40.6626375" lon="9.2552014"><ele>828.0</ele><time>2026-04-13T10:14:31.732Z</time></trkpt><trkpt lat="40.6625006" lon="9.2551624"><ele>827.75</ele><time>2026-04-13T10:14:32.73Z</time></trkpt><trkpt lat="40.6623709" lon="9.2551173"><ele>827.5</ele><time>2026-04-13T10:14:33.718Z</time></trkpt><trkpt lat="40.6622457" lon="9.2550563"><ele>827.25</ele><time>2026-04-13T10:14:34.732Z</time></trkpt><trkpt lat="40.6621256" lon="9.2549853"><ele>827.0</ele><time>2026-04-13T10:14:35.729Z</time></trkpt><trkpt lat="40.6620124" lon="9.2549073"><ele>827.75</ele><time>2026-04-13T10:14:36.717Z</time></trkpt><trkpt lat="40.6619006" lon="9.2548354"><ele>828.5</ele><time>2026-04-13T10:14:37.729Z</time></trkpt><trkpt lat="40.6617839" lon="9.2547785"><ele>829.25</ele><time>2026-04-13T10:14:38.72Z</time></trkpt><trkpt lat="40.6616612" lon="9.2547223"><ele>830.0</ele><time>2026-04-13T10:14:39.714Z</time></trkpt><trkpt lat="40.6615348" lon="9.2546524"><ele>828.5</ele><time>2026-04-13T10:14:40.725Z</time></trkpt><trkpt lat="40.6614142" lon="9.2545784"><ele>827.0</ele><time>2026-04-13T10:14:41.728Z</time></trkpt><trkpt lat="40.6613057" lon="9.2545049"><ele>825.5</ele><time>2026-04-13T10:14:42.715Z</time></trkpt><trkpt lat="40.661211" lon="9.2544315"><ele>824.0</ele><time>2026-04-13T10:14:43.721Z</time></trkpt><trkpt lat="40.6611225" lon="9.2543554"><ele>825.0</ele><time>2026-04-13T10:14:44.72Z</time></trkpt><trkpt lat="40.6610339" lon="9.2542596"><ele>826.0</ele><time>2026-04-13T10:14:45.735Z</time></trkpt><trkpt lat="40.6609455" lon="9.2541466"><ele>827.0</ele><time>2026-04-13T10:14:46.717Z</time></trkpt><trkpt lat="40.6608578" lon="9.2540163"><ele>828.0</ele><time>2026-04-13T10:14:47.718Z</time></trkpt><trkpt lat="40.6607699" lon="9.2538741"><ele>828.0</ele><time>2026-04-13T10:14:48.73Z</time></trkpt><trkpt lat="40.6606816" lon="9.253724"><ele>828.0</ele><time>2026-04-13T10:14:49.721Z</time></trkpt><trkpt lat="40.6605967" lon="9.253579"><ele>828.0</ele><time>2026-04-13T10:14:50.72Z</time></trkpt><trkpt lat="40.6605245" lon="9.2534513"><ele>828.0</ele><time>2026-04-13T10:14:51.723Z</time></trkpt><trkpt lat="40.6604555" lon="9.2533247"><ele>828.0</ele><time>2026-04-13T10:14:52.726Z</time></trkpt><trkpt lat="40.6603889" lon="9.2532142"><ele>828.0</ele><time>2026-04-13T10:14:53.721Z</time></trkpt><trkpt lat="40.6603224" lon="9.2531178"><ele>828.0</ele><time>2026-04-13T10:14:54.719Z</time></trkpt><trkpt lat="40.6602586" lon="9.2530331"><ele>828.0</ele><time>2026-04-13T10:14:55.732Z</time></trkpt><trkpt lat="40.6601866" lon="9.2529626"><ele>828.0</ele><time>2026-04-13T10:14:56.724Z</time></trkpt><trkpt lat="40.6601059" lon="9.2529104"><ele>827.0</ele><time>2026-04-13T10:14:57.741Z</time></trkpt><trkpt lat="40.6600072" lon="9.2528771"><ele>826.0</ele><time>2026-04-13T10:14:58.734Z</time></trkpt><trkpt lat="40.6599031" lon="9.252854"><ele>825.0</ele><time>2026-04-13T10:14:59.741Z</time></trkpt><trkpt lat="40.6597929" lon="9.2528545"><ele>824.0</ele><time>2026-04-13T10:15:00.734Z</time></trkpt><trkpt lat="40.6596783" lon="9.2528635"><ele>823.0</ele><time>2026-04-13T10:15:01.739Z</time></trkpt><trkpt lat="40.6595631" lon="9.2528718"><ele>822.0</ele><time>2026-04-13T10:15:02.738Z</time></trkpt><trkpt lat="40.6594436" lon="9.2528797"><ele>821.0</ele><time>2026-04-13T10:15:03.717Z</time></trkpt><trkpt lat="40.6593246" lon="9.2528869"><ele>820.0</ele><time>2026-04-13T10:15:04.752Z</time></trkpt><trkpt lat="40.6592099" lon="9.2528902"><ele>819.0</ele><time>2026-04-13T10:15:05.732Z</time></trkpt><trkpt lat="40.6590996" lon="9.2528929"><ele>819.0</ele><time>2026-04-13T10:15:06.729Z</time></trkpt><trkpt lat="40.6589985" lon="9.2529028"><ele>819.0</ele><time>2026-04-13T10:15:07.731Z</time></trkpt><trkpt lat="40.658906" lon="9.2529278"><ele>819.0</ele><time>2026-04-13T10:15:08.726Z</time></trkpt><trkpt lat="40.6588276" lon="9.252989"><ele>819.0</ele><time>2026-04-13T10:15:09.734Z</time></trkpt><trkpt lat="40.6587554" lon="9.2530607"><ele>819.0</ele><time>2026-04-13T10:15:10.731Z</time></trkpt><trkpt lat="40.6586925" lon="9.2531577"><ele>819.0</ele><time>2026-04-13T10:15:11.724Z</time></trkpt><trkpt lat="40.6586304" lon="9.2532687"><ele>819.0</ele><time>2026-04-13T10:15:12.731Z</time></trkpt><trkpt lat="40.6585682" lon="9.2533831"><ele>819.0</ele><time>2026-04-13T10:15:13.736Z</time></trkpt><trkpt lat="40.6585088" lon="9.2535043"><ele>819.0</ele><time>2026-04-13T10:15:14.752Z</time></trkpt><trkpt lat="40.6584565" lon="9.2536173"><ele>819.0</ele><time>2026-04-13T10:15:15.765Z</time></trkpt><trkpt lat="40.6584154" lon="9.253729"><ele>817.5</ele><time>2026-04-13T10:15:16.754Z</time></trkpt><trkpt lat="40.6583734" lon="9.2538313"><ele>816.0</ele><time>2026-04-13T10:15:17.739Z</time></trkpt><trkpt lat="40.6583222" lon="9.2539147"><ele>814.5</ele><time>2026-04-13T10:15:18.738Z</time></trkpt><trkpt lat="40.6582538" lon="9.2539748"><ele>813.0</ele><time>2026-04-13T10:15:19.744Z</time></trkpt><trkpt lat="40.6581755" lon="9.2540033"><ele>811.5</ele><time>2026-04-13T10:15:20.741Z</time></trkpt><trkpt lat="40.6580949" lon="9.2539855"><ele>810.0</ele><time>2026-04-13T10:15:21.731Z</time></trkpt><trkpt lat="40.6580238" lon="9.2539403"><ele>810.0</ele><time>2026-04-13T10:15:22.766Z</time></trkpt><trkpt lat="40.6579608" lon="9.2538765"><ele>810.0</ele><time>2026-04-13T10:15:23.754Z</time></trkpt><trkpt lat="40.6579029" lon="9.253801"><ele>810.0</ele><time>2026-04-13T10:15:24.738Z</time></trkpt><trkpt lat="40.6578459" lon="9.2537386"><ele>810.0</ele><time>2026-04-13T10:15:25.738Z</time></trkpt><trkpt lat="40.6577677" lon="9.2536836"><ele>810.0</ele><time>2026-04-13T10:15:26.737Z</time></trkpt><trkpt lat="40.6576795" lon="9.2536317"><ele>810.0</ele><time>2026-04-13T10:15:27.751Z</time></trkpt><trkpt lat="40.6575806" lon="9.2536001"><ele>807.6</ele><time>2026-04-13T10:15:28.735Z</time></trkpt><trkpt lat="40.6574758" lon="9.2535681"><ele>805.2</ele><time>2026-04-13T10:15:29.736Z</time></trkpt><trkpt lat="40.6573712" lon="9.2535426"><ele>802.8</ele><time>2026-04-13T10:15:30.755Z</time></trkpt><trkpt lat="40.6572629" lon="9.2535149"><ele>800.4</ele><time>2026-04-13T10:15:31.74Z</time></trkpt><trkpt lat="40.6571528" lon="9.2534869"><ele>798.0</ele><time>2026-04-13T10:15:32.744Z</time></trkpt><trkpt lat="40.6570338" lon="9.2534421"><ele>796.0</ele><time>2026-04-13T10:15:33.752Z</time></trkpt><trkpt lat="40.6569174" lon="9.2533871"><ele>794.0</ele><time>2026-04-13T10:15:34.745Z</time></trkpt><trkpt lat="40.6568046" lon="9.2533442"><ele>792.0</ele><time>2026-04-13T10:15:35.749Z</time></trkpt><trkpt lat="40.6566994" lon="9.2533021"><ele>790.0</ele><time>2026-04-13T10:15:36.755Z</time></trkpt><trkpt lat="40.656594" lon="9.2532662"><ele>790.0</ele><time>2026-04-13T10:15:37.748Z</time></trkpt><trkpt lat="40.6564907" lon="9.2532353"><ele>790.0</ele><time>2026-04-13T10:15:38.759Z</time></trkpt><trkpt lat="40.6563854" lon="9.2532004"><ele>790.0</ele><time>2026-04-13T10:15:39.756Z</time></trkpt><trkpt lat="40.6562789" lon="9.2531621"><ele>790.0</ele><time>2026-04-13T10:15:40.75Z</time></trkpt><trkpt lat="40.6561774" lon="9.2531148"><ele>790.0</ele><time>2026-04-13T10:15:41.775Z</time></trkpt><trkpt lat="40.6560742" lon="9.2530653"><ele>788.2</ele><time>2026-04-13T10:15:42.753Z</time></trkpt><trkpt lat="40.6559694" lon="9.2530165"><ele>786.4</ele><time>2026-04-13T10:15:43.764Z</time></trkpt><trkpt lat="40.6558683" lon="9.2529684"><ele>784.5999999999999</ele><time>2026-04-13T10:15:44.798Z</time></trkpt><trkpt lat="40.6557715" lon="9.2529297"><ele>782.8</ele><time>2026-04-13T10:15:45.766Z</time></trkpt><trkpt lat="40.6556781" lon="9.2528961"><ele>781.0</ele><time>2026-04-13T10:15:46.748Z</time></trkpt><trkpt lat="40.6555819" lon="9.2528715"><ele>781.0</ele><time>2026-04-13T10:15:47.76Z</time></trkpt><trkpt lat="40.6554836" lon="9.2528541"><ele>781.0</ele><time>2026-04-13T10:15:48.761Z</time></trkpt><trkpt lat="40.6553895" lon="9.2528635"><ele>781.0</ele><time>2026-04-13T10:15:49.785Z</time></trkpt><trkpt lat="40.6553021" lon="9.2528924"><ele>781.0</ele><time>2026-04-13T10:15:50.767Z</time></trkpt><trkpt lat="40.6552243" lon="9.2529456"><ele>781.0</ele><time>2026-04-13T10:15:51.753Z</time></trkpt><trkpt lat="40.6551503" lon="9.2530169"><ele>780.25</ele><time>2026-04-13T10:15:52.751Z</time></trkpt><trkpt lat="40.6550832" lon="9.2531066"><ele>779.5</ele><time>2026-04-13T10:15:53.768Z</time></trkpt><trkpt lat="40.6550165" lon="9.2532292"><ele>778.75</ele><time>2026-04-13T10:15:54.765Z</time></trkpt><trkpt lat="40.6549468" lon="9.2533608"><ele>778.0</ele><time>2026-04-13T10:15:55.767Z</time></trkpt><trkpt lat="40.6548685" lon="9.25348"><ele>777.25</ele><time>2026-04-13T10:15:56.754Z</time></trkpt><trkpt lat="40.6547781" lon="9.2535716"><ele>776.5</ele><time>2026-04-13T10:15:57.775Z</time></trkpt><trkpt lat="40.6546753" lon="9.2536465"><ele>775.75</ele><time>2026-04-13T10:15:58.759Z</time></trkpt><trkpt lat="40.6545707" lon="9.2537066"><ele>775.0</ele><time>2026-04-13T10:15:59.755Z</time></trkpt><trkpt lat="40.654471" lon="9.2537711"><ele>775.75</ele><time>2026-04-13T10:16:00.765Z</time></trkpt><trkpt lat="40.6543727" lon="9.2538497"><ele>776.5</ele><time>2026-04-13T10:16:01.776Z</time></trkpt><trkpt lat="40.6542772" lon="9.2539417"><ele>777.25</ele><time>2026-04-13T10:16:02.783Z</time></trkpt><trkpt lat="40.6541861" lon="9.2540361"><ele>778.0</ele><time>2026-04-13T10:16:03.781Z</time></trkpt><trkpt lat="40.6540991" lon="9.2541284"><ele>775.5999999999999</ele><time>2026-04-13T10:16:04.777Z</time></trkpt><trkpt lat="40.6540186" lon="9.2542152"><ele>773.1999999999999</ele><time>2026-04-13T10:16:05.772Z</time></trkpt><trkpt lat="40.6539452" lon="9.2543057"><ele>770.8</ele><time>2026-04-13T10:16:06.764Z</time></trkpt><trkpt lat="40.6538835" lon="9.254406"><ele>768.4</ele><time>2026-04-13T10:16:07.771Z</time></trkpt><trkpt lat="40.6538302" lon="9.2545258"><ele>766.0</ele><time>2026-04-13T10:16:08.766Z</time></trkpt><trkpt lat="40.6537776" lon="9.2546567"><ele>766.0</ele><time>2026-04-13T10:16:09.778Z</time></trkpt><trkpt lat="40.6537203" lon="9.2547723"><ele>766.0</ele><time>2026-04-13T10:16:10.765Z</time></trkpt><trkpt lat="40.6536483" lon="9.25486"><ele>766.0</ele><time>2026-04-13T10:16:11.767Z</time></trkpt><trkpt lat="40.6535569" lon="9.2549376"><ele>766.0</ele><time>2026-04-13T10:16:12.78Z</time></trkpt><trkpt lat="40.6534576" lon="9.255006"><ele>766.0</ele><time>2026-04-13T10:16:13.781Z</time></trkpt><trkpt lat="40.6533505" lon="9.2550753"><ele>763.5</ele><time>2026-04-13T10:16:14.768Z</time></trkpt><trkpt lat="40.6532487" lon="9.2551348"><ele>761.0</ele><time>2026-04-13T10:16:15.772Z</time></trkpt><trkpt lat="40.6531429" lon="9.2551671"><ele>758.5</ele><time>2026-04-13T10:16:16.771Z</time></trkpt><trkpt lat="40.6530313" lon="9.255179"><ele>756.0</ele><time>2026-04-13T10:16:17.774Z</time></trkpt><trkpt lat="40.6529137" lon="9.2551825"><ele>756.0</ele><time>2026-04-13T10:16:18.784Z</time></trkpt><trkpt lat="40.6527986" lon="9.255165"><ele>756.0</ele><time>2026-04-13T10:16:19.764Z</time></trkpt><trkpt lat="40.6526882" lon="9.2551324"><ele>756.0</ele><time>2026-04-13T10:16:20.819Z</time></trkpt><trkpt lat="40.6525784" lon="9.2550732"><ele>756.0</ele><time>2026-04-13T10:16:21.766Z</time></trkpt><trkpt lat="40.6524785" lon="9.2550032"><ele>755.5999999999999</ele><time>2026-04-13T10:16:22.785Z</time></trkpt><trkpt lat="40.6523862" lon="9.2549349"><ele>755.2</ele><time>2026-04-13T10:16:23.801Z</time></trkpt><trkpt lat="40.6522944" lon="9.2548949"><ele>754.8</ele><time>2026-04-13T10:16:24.764Z</time></trkpt><trkpt lat="40.6522069" lon="9.2548744"><ele>754.4000000000001</ele><time>2026-04-13T10:16:25.815Z</time></trkpt><trkpt lat="40.6521249" lon="9.2548888"><ele>754.0</ele><time>2026-04-13T10:16:26.793Z</time></trkpt><trkpt lat="40.6520358" lon="9.254921"><ele>753.0</ele><time>2026-04-13T10:16:27.771Z</time></trkpt><trkpt lat="40.6519393" lon="9.2549495"><ele>752.0</ele><time>2026-04-13T10:16:28.766Z</time></trkpt><trkpt lat="40.6518343" lon="9.2549659"><ele>751.0</ele><time>2026-04-13T10:16:29.781Z</time></trkpt><trkpt lat="40.6517325" lon="9.2549809"><ele>750.0</ele><time>2026-04-13T10:16:30.771Z</time></trkpt><trkpt lat="40.6516324" lon="9.2550005"><ele>749.0</ele><time>2026-04-13T10:16:31.801Z</time></trkpt><trkpt lat="40.6515364" lon="9.2550366"><ele>749.0</ele><time>2026-04-13T10:16:32.774Z</time></trkpt><trkpt lat="40.6514405" lon="9.2550836"><ele>749.0</ele><time>2026-04-13T10:16:33.778Z</time></trkpt><trkpt lat="40.6513466" lon="9.255138"><ele>749.0</ele><time>2026-04-13T10:16:34.781Z</time></trkpt><trkpt lat="40.6512502" lon="9.2551977"><ele>749.0</ele><time>2026-04-13T10:16:35.785Z</time></trkpt><trkpt lat="40.6511551" lon="9.2552679"><ele>749.0</ele><time>2026-04-13T10:16:36.783Z</time></trkpt><trkpt lat="40.6510654" lon="9.2553561"><ele>747.0</ele><time>2026-04-13T10:16:37.826Z</time></trkpt><trkpt lat="40.6509827" lon="9.2554481"><ele>745.0</ele><time>2026-04-13T10:16:38.786Z</time></trkpt><trkpt lat="40.6508977" lon="9.2555554"><ele>743.0</ele><time>2026-04-13T10:16:39.793Z</time></trkpt><trkpt lat="40.6508103" lon="9.2556759"><ele>741.0</ele><time>2026-04-13T10:16:40.78Z</time></trkpt><trkpt lat="40.6507286" lon="9.2558001"><ele>740.1999999999999</ele><time>2026-04-13T10:16:41.792Z</time></trkpt><trkpt lat="40.6506618" lon="9.2559252"><ele>739.4</ele><time>2026-04-13T10:16:42.793Z</time></trkpt><trkpt lat="40.6506127" lon="9.2560531"><ele>738.6</ele><time>2026-04-13T10:16:43.793Z</time></trkpt><trkpt lat="40.6505762" lon="9.2561892"><ele>737.8</ele><time>2026-04-13T10:16:44.792Z</time></trkpt><trkpt lat="40.6505515" lon="9.2563269"><ele>737.0</ele><time>2026-04-13T10:16:45.82Z</time></trkpt><trkpt lat="40.6505284" lon="9.2564593"><ele>736.6</ele><time>2026-04-13T10:16:46.797Z</time></trkpt><trkpt lat="40.6504857" lon="9.2565826"><ele>736.2</ele><time>2026-04-13T10:16:47.828Z</time></trkpt><trkpt lat="40.6504243" lon="9.2566794"><ele>735.8</ele><time>2026-04-13T10:16:48.789Z</time></trkpt><trkpt lat="40.650358" lon="9.2567782"><ele>735.4</ele><time>2026-04-13T10:16:49.797Z</time></trkpt><trkpt lat="40.650289" lon="9.2568879"><ele>735.0</ele><time>2026-04-13T10:16:50.803Z</time></trkpt><trkpt lat="40.6502209" lon="9.2569777"><ele>734.8</ele><time>2026-04-13T10:16:51.786Z</time></trkpt><trkpt lat="40.6501479" lon="9.2570345"><ele>734.6</ele><time>2026-04-13T10:16:52.791Z</time></trkpt><trkpt lat="40.650067" lon="9.2570575"><ele>734.4000000000001</ele><time>2026-04-13T10:16:53.803Z</time></trkpt><trkpt lat="40.6499679" lon="9.2570578"><ele>734.2</ele><time>2026-04-13T10:16:54.797Z</time></trkpt><trkpt lat="40.6498563" lon="9.2570544"><ele>734.0</ele><time>2026-04-13T10:16:55.807Z</time></trkpt><trkpt lat="40.6497346" lon="9.257061"><ele>734.0</ele><time>2026-04-13T10:16:56.797Z</time></trkpt><trkpt lat="40.6496127" lon="9.2571011"><ele>734.0</ele><time>2026-04-13T10:16:57.799Z</time></trkpt><trkpt lat="40.64949" lon="9.2571504"><ele>734.0</ele><time>2026-04-13T10:16:58.799Z</time></trkpt><trkpt lat="40.6493769" lon="9.2572141"><ele>734.0</ele><time>2026-04-13T10:16:59.812Z</time></trkpt><trkpt lat="40.6492649" lon="9.2572823"><ele>730.25</ele><time>2026-04-13T10:17:00.808Z</time></trkpt><trkpt lat="40.6491468" lon="9.2573554"><ele>726.5</ele><time>2026-04-13T10:17:01.795Z</time></trkpt><trkpt lat="40.649026" lon="9.2574197"><ele>722.75</ele><time>2026-04-13T10:17:02.799Z</time></trkpt><trkpt lat="40.6489042" lon="9.2574679"><ele>719.0</ele><time>2026-04-13T10:17:03.809Z</time></trkpt><trkpt lat="40.6487826" lon="9.2575078"><ele>719.0</ele><time>2026-04-13T10:17:04.799Z</time></trkpt><trkpt lat="40.6486598" lon="9.2575453"><ele>719.0</ele><time>2026-04-13T10:17:05.847Z</time></trkpt><trkpt lat="40.6485408" lon="9.2575763"><ele>719.0</ele><time>2026-04-13T10:17:06.8Z</time></trkpt><trkpt lat="40.6484278" lon="9.2576084"><ele>719.0</ele><time>2026-04-13T10:17:07.79Z</time></trkpt><trkpt lat="40.6483176" lon="9.2576328"><ele>717.25</ele><time>2026-04-13T10:17:08.808Z</time></trkpt><trkpt lat="40.648203" lon="9.2576466"><ele>715.5</ele><time>2026-04-13T10:17:09.804Z</time></trkpt><trkpt lat="40.6480845" lon="9.2576602"><ele>713.75</ele><time>2026-04-13T10:17:10.799Z</time></trkpt><trkpt lat="40.6479612" lon="9.257676"><ele>712.0</ele><time>2026-04-13T10:17:11.807Z</time></trkpt><trkpt lat="40.6478363" lon="9.2576857"><ele>710.0</ele><time>2026-04-13T10:17:12.794Z</time></trkpt><trkpt lat="40.6477105" lon="9.2576728"><ele>708.0</ele><time>2026-04-13T10:17:13.833Z</time></trkpt><trkpt lat="40.6475874" lon="9.2576478"><ele>706.0</ele><time>2026-04-13T10:17:14.806Z</time></trkpt><trkpt lat="40.6474729" lon="9.2576099"><ele>704.0</ele><time>2026-04-13T10:17:15.809Z</time></trkpt><trkpt lat="40.6473706" lon="9.2575597"><ele>704.0</ele><time>2026-04-13T10:17:16.799Z</time></trkpt><trkpt lat="40.6472704" lon="9.2575044"><ele>704.0</ele><time>2026-04-13T10:17:17.81Z</time></trkpt><trkpt lat="40.6471711" lon="9.2574439"><ele>704.0</ele><time>2026-04-13T10:17:18.797Z</time></trkpt><trkpt lat="40.6470761" lon="9.2573857"><ele>704.0</ele><time>2026-04-13T10:17:19.82Z</time></trkpt><trkpt lat="40.646987" lon="9.257335"><ele>704.0</ele><time>2026-04-13T10:17:20.833Z</time></trkpt><trkpt lat="40.6468204" lon="9.2572566"><ele>704.1666666666666</ele><time>2026-04-13T10:17:22.702Z</time></trkpt><trkpt lat="40.6467493" lon="9.2572407"><ele>704.3333333333333</ele><time>2026-04-13T10:17:23.703Z</time></trkpt><trkpt lat="40.646685" lon="9.2572545"><ele>704.5</ele><time>2026-04-13T10:17:24.717Z</time></trkpt><trkpt lat="40.6466284" lon="9.2572964"><ele>704.6666666666666</ele><time>2026-04-13T10:17:25.721Z</time></trkpt><trkpt lat="40.6465687" lon="9.2573973"><ele>704.8333333333334</ele><time>2026-04-13T10:17:27.703Z</time></trkpt><trkpt lat="40.6465253" lon="9.2574849"><ele>705.0</ele><time>2026-04-13T10:17:30.716Z</time></trkpt><trkpt lat="40.6464824" lon="9.2575702"><ele>705.0</ele><time>2026-04-13T10:20:32.728Z</time></trkpt><trkpt lat="40.6464404" lon="9.2576602"><ele>705.0</ele><time>2026-04-13T10:20:34.734Z</time></trkpt><trkpt lat="40.646373" lon="9.2577515"><ele>705.0</ele><time>2026-04-13T10:20:36.769Z</time></trkpt><trkpt lat="40.6463253" lon="9.2578067"><ele>705.0</ele><time>2026-04-13T10:20:37.734Z</time></trkpt><trkpt lat="40.6462693" lon="9.2578635"><ele>705.0</ele><time>2026-04-13T10:20:38.74Z</time></trkpt><trkpt lat="40.6462088" lon="9.2579153"><ele>705.0</ele><time>2026-04-13T10:20:39.731Z</time></trkpt><trkpt lat="40.6461429" lon="9.2579701"><ele>705.8</ele><time>2026-04-13T10:20:40.761Z</time></trkpt><trkpt lat="40.6460691" lon="9.2580234"><ele>706.6</ele><time>2026-04-13T10:20:41.734Z</time></trkpt><trkpt lat="40.6459833" lon="9.2580669"><ele>707.4000000000001</ele><time>2026-04-13T10:20:42.731Z</time></trkpt><trkpt lat="40.6458925" lon="9.2581047"><ele>708.2</ele><time>2026-04-13T10:20:43.75Z</time></trkpt><trkpt lat="40.6457962" lon="9.2581336"><ele>709.0</ele><time>2026-04-13T10:20:44.742Z</time></trkpt><trkpt lat="40.6456918" lon="9.2581668"><ele>709.0</ele><time>2026-04-13T10:20:45.733Z</time></trkpt><trkpt lat="40.6455849" lon="9.2582032"><ele>709.0</ele><time>2026-04-13T10:20:46.747Z</time></trkpt><trkpt lat="40.645473" lon="9.258243"><ele>709.0</ele><time>2026-04-13T10:20:47.736Z</time></trkpt><trkpt lat="40.6453552" lon="9.2582876"><ele>709.0</ele><time>2026-04-13T10:20:48.75Z</time></trkpt><trkpt lat="40.6452359" lon="9.2583329"><ele>710.25</ele><time>2026-04-13T10:20:49.734Z</time></trkpt><trkpt lat="40.6451183" lon="9.2583773"><ele>711.5</ele><time>2026-04-13T10:20:50.747Z</time></trkpt><trkpt lat="40.6450029" lon="9.2584128"><ele>712.75</ele><time>2026-04-13T10:20:51.732Z</time></trkpt><trkpt lat="40.6448852" lon="9.2584458"><ele>714.0</ele><time>2026-04-13T10:20:52.745Z</time></trkpt><trkpt lat="40.6447687" lon="9.2584712"><ele>714.0</ele><time>2026-04-13T10:20:53.751Z</time></trkpt><trkpt lat="40.6446493" lon="9.2584914"><ele>714.0</ele><time>2026-04-13T10:20:54.748Z</time></trkpt><trkpt lat="40.6445257" lon="9.2585134"><ele>714.0</ele><time>2026-04-13T10:20:55.757Z</time></trkpt><trkpt lat="40.644396" lon="9.2585325"><ele>714.0</ele><time>2026-04-13T10:20:56.745Z</time></trkpt><trkpt lat="40.6442605" lon="9.2585514"><ele>713.5</ele><time>2026-04-13T10:20:57.747Z</time></trkpt><trkpt lat="40.6441207" lon="9.2585703"><ele>713.0</ele><time>2026-04-13T10:20:58.747Z</time></trkpt><trkpt lat="40.6439805" lon="9.2585886"><ele>712.5</ele><time>2026-04-13T10:20:59.733Z</time></trkpt><trkpt lat="40.6438439" lon="9.2586124"><ele>712.0</ele><time>2026-04-13T10:21:00.763Z</time></trkpt><trkpt lat="40.6437168" lon="9.258631"><ele>710.8</ele><time>2026-04-13T10:21:01.746Z</time></trkpt><trkpt lat="40.6436013" lon="9.2586383"><ele>709.6</ele><time>2026-04-13T10:21:02.759Z</time></trkpt><trkpt lat="40.643498" lon="9.2586331"><ele>708.4</ele><time>2026-04-13T10:21:03.732Z</time></trkpt><trkpt lat="40.6434115" lon="9.258616"><ele>707.1999999999999</ele><time>2026-04-13T10:21:04.753Z</time></trkpt><trkpt lat="40.6433417" lon="9.2585853"><ele>706.0</ele><time>2026-04-13T10:21:05.749Z</time></trkpt><trkpt lat="40.6432426" lon="9.2585311"><ele>706.0</ele><time>2026-04-13T10:21:07.747Z</time></trkpt><trkpt lat="40.6431835" lon="9.2584838"><ele>706.0</ele><time>2026-04-13T10:21:10.754Z</time></trkpt><trkpt lat="40.6431066" lon="9.2584556"><ele>706.0</ele><time>2026-04-13T10:21:23.751Z</time></trkpt><trkpt lat="40.6430056" lon="9.2584062"><ele>706.0</ele><time>2026-04-13T10:21:25.74Z</time></trkpt><trkpt lat="40.6429359" lon="9.258371"><ele>706.0</ele><time>2026-04-13T10:21:26.745Z</time></trkpt><trkpt lat="40.6428589" lon="9.2583205"><ele>706.0</ele><time>2026-04-13T10:21:27.757Z</time></trkpt><trkpt lat="40.6427787" lon="9.2582623"><ele>706.8</ele><time>2026-04-13T10:21:28.736Z</time></trkpt><trkpt lat="40.6426894" lon="9.2582167"><ele>707.5999999999999</ele><time>2026-04-13T10:21:29.758Z</time></trkpt><trkpt lat="40.6426056" lon="9.2581683"><ele>708.4</ele><time>2026-04-13T10:21:30.751Z</time></trkpt><trkpt lat="40.6425149" lon="9.2581192"><ele>709.2</ele><time>2026-04-13T10:21:31.745Z</time></trkpt><trkpt lat="40.642422" lon="9.2580737"><ele>710.0</ele><time>2026-04-13T10:21:32.74Z</time></trkpt><trkpt lat="40.6423257" lon="9.2580379"><ele>710.0</ele><time>2026-04-13T10:21:33.752Z</time></trkpt><trkpt lat="40.642227" lon="9.2580089"><ele>710.0</ele><time>2026-04-13T10:21:34.751Z</time></trkpt><trkpt lat="40.6421273" lon="9.2579866"><ele>710.0</ele><time>2026-04-13T10:21:35.763Z</time></trkpt><trkpt lat="40.6420314" lon="9.2579719"><ele>710.0</ele><time>2026-04-13T10:21:36.74Z</time></trkpt><trkpt lat="40.641941" lon="9.2579614"><ele>710.0</ele><time>2026-04-13T10:21:37.754Z</time></trkpt><trkpt lat="40.6418651" lon="9.2579554"><ele>709.6666666666666</ele><time>2026-04-13T10:21:38.761Z</time></trkpt><trkpt lat="40.6417953" lon="9.2579438"><ele>709.3333333333333</ele><time>2026-04-13T10:21:39.752Z</time></trkpt><trkpt lat="40.6416947" lon="9.2579306"><ele>709.0</ele><time>2026-04-13T10:21:41.768Z</time></trkpt><trkpt lat="40.6416298" lon="9.2579165"><ele>708.6666666666666</ele><time>2026-04-13T10:21:45.741Z</time></trkpt><trkpt lat="40.6415544" lon="9.2579394"><ele>708.3333333333334</ele><time>2026-04-13T10:21:49.782Z</time></trkpt><trkpt lat="40.6415339" lon="9.2580322"><ele>708.0</ele><time>2026-04-13T10:21:52.754Z</time></trkpt><trkpt lat="40.6415239" lon="9.2581438"><ele>707.0</ele><time>2026-04-13T10:21:55.749Z</time></trkpt><trkpt lat="40.6415074" lon="9.2582246"><ele>706.0</ele><time>2026-04-13T10:21:57.769Z</time></trkpt><trkpt lat="40.6414764" lon="9.2583104"><ele>705.0</ele><time>2026-04-13T10:21:59.763Z</time></trkpt><trkpt lat="40.6414558" lon="9.2583955"><ele>704.0</ele><time>2026-04-13T10:22:01.768Z</time></trkpt><trkpt lat="40.6414361" lon="9.2584813"><ele>703.0</ele><time>2026-04-13T10:22:03.758Z</time></trkpt><trkpt lat="40.6414348" lon="9.2585643"><ele>702.0</ele><time>2026-04-13T10:22:05.788Z</time></trkpt><trkpt lat="40.6414507" lon="9.2586708"><ele>701.0</ele><time>2026-04-13T10:22:08.74Z</time></trkpt><trkpt lat="40.6414744" lon="9.2587561"><ele>701.0</ele><time>2026-04-13T10:22:11.775Z</time></trkpt><trkpt lat="40.6414719" lon="9.2588526"><ele>701.0</ele><time>2026-04-13T10:22:15.79Z</time></trkpt><trkpt lat="40.6414142" lon="9.2588985"><ele>701.0</ele><time>2026-04-13T10:22:21.754Z</time></trkpt></trkseg><trkseg><trkpt lat="40.6457303" lon="9.3240465"><ele>664.0</ele><time>2026-04-13T13:22:20.167Z</time></trkpt><trkpt lat="40.6452873" lon="9.3234152"><ele>664.0</ele><time>2026-04-13T13:22:25.179Z</time></trkpt><trkpt lat="40.645247" lon="9.3232462"><ele>664.0</ele><time>2026-04-13T13:22:26.176Z</time></trkpt><trkpt lat="40.6452307" lon="9.3230566"><ele>664.0</ele><time>2026-04-13T13:22:27.17Z</time></trkpt><trkpt lat="40.6452256" lon="9.3228572"><ele>664.0</ele><time>2026-04-13T13:22:28.171Z</time></trkpt><trkpt lat="40.6452245" lon="9.3226519"><ele>663.6666666666667</ele><time>2026-04-13T13:22:29.168Z</time></trkpt><trkpt lat="40.6452261" lon="9.322437"><ele>663.3333333333334</ele><time>2026-04-13T13:22:30.181Z</time></trkpt><trkpt lat="40.6452286" lon="9.3222157"><ele>663.0</ele><time>2026-04-13T13:22:31.181Z</time></trkpt><trkpt lat="40.6452313" lon="9.3219863"><ele>663.0</ele><time>2026-04-13T13:22:32.168Z</time></trkpt><trkpt lat="40.6452343" lon="9.3217491"><ele>663.0</ele><time>2026-04-13T13:22:33.176Z</time></trkpt><trkpt lat="40.6452357" lon="9.3215111"><ele>663.0</ele><time>2026-04-13T13:22:34.174Z</time></trkpt><trkpt lat="40.6452357" lon="9.3212725"><ele>663.0</ele><time>2026-04-13T13:22:35.182Z</time></trkpt><trkpt lat="40.6452369" lon="9.3210371"><ele>663.0</ele><time>2026-04-13T13:22:36.18Z</time></trkpt><trkpt lat="40.6452412" lon="9.3208061"><ele>663.0</ele><time>2026-04-13T13:22:37.189Z</time></trkpt><trkpt lat="40.6452515" lon="9.3205793"><ele>662.3333333333334</ele><time>2026-04-13T13:22:38.183Z</time></trkpt><trkpt lat="40.6452694" lon="9.3203517"><ele>661.6666666666667</ele><time>2026-04-13T13:22:39.174Z</time></trkpt><trkpt lat="40.6452976" lon="9.3201274"><ele>661.0</ele><time>2026-04-13T13:22:40.181Z</time></trkpt><trkpt lat="40.6453308" lon="9.3199063"><ele>660.0</ele><time>2026-04-13T13:22:41.179Z</time></trkpt><trkpt lat="40.6453659" lon="9.3196874"><ele>659.0</ele><time>2026-04-13T13:22:42.179Z</time></trkpt><trkpt lat="40.6454004" lon="9.3194686"><ele>658.0</ele><time>2026-04-13T13:22:43.182Z</time></trkpt><trkpt lat="40.6454313" lon="9.3192508"><ele>658.0</ele><time>2026-04-13T13:22:44.191Z</time></trkpt><trkpt lat="40.6454529" lon="9.3190313"><ele>658.0</ele><time>2026-04-13T13:22:45.189Z</time></trkpt><trkpt lat="40.6454583" lon="9.318806"><ele>658.0</ele><time>2026-04-13T13:22:46.191Z</time></trkpt><trkpt lat="40.6454514" lon="9.3185827"><ele>657.3333333333334</ele><time>2026-04-13T13:22:47.188Z</time></trkpt><trkpt lat="40.6454355" lon="9.3183582"><ele>656.6666666666666</ele><time>2026-04-13T13:22:48.191Z</time></trkpt><trkpt lat="40.6454086" lon="9.3181325"><ele>656.0</ele><time>2026-04-13T13:22:49.194Z</time></trkpt><trkpt lat="40.6453326" lon="9.3176883"><ele>656.0</ele><time>2026-04-13T13:22:51.088Z</time></trkpt><trkpt lat="40.6452847" lon="9.3174552"><ele>656.0</ele><time>2026-04-13T13:22:52.193Z</time></trkpt><trkpt lat="40.6452387" lon="9.3172357"><ele>656.0</ele><time>2026-04-13T13:22:53.186Z</time></trkpt><trkpt lat="40.6451938" lon="9.3170232"><ele>656.0</ele><time>2026-04-13T13:22:54.092Z</time></trkpt><trkpt lat="40.6451454" lon="9.3168052"><ele>656.0</ele><time>2026-04-13T13:22:55.09Z</time></trkpt><trkpt lat="40.6450875" lon="9.3165952"><ele>656.0</ele><time>2026-04-13T13:22:56.192Z</time></trkpt><trkpt lat="40.6449358" lon="9.3162478"><ele>655.75</ele><time>2026-04-13T13:22:58.089Z</time></trkpt><trkpt lat="40.6448498" lon="9.3160891"><ele>655.5</ele><time>2026-04-13T13:22:59.091Z</time></trkpt><trkpt lat="40.644772" lon="9.3159515"><ele>655.25</ele><time>2026-04-13T13:23:00.087Z</time></trkpt><trkpt lat="40.6446965" lon="9.3158235"><ele>655.0</ele><time>2026-04-13T13:23:01.089Z</time></trkpt><trkpt lat="40.6446252" lon="9.3157042"><ele>655.0</ele><time>2026-04-13T13:23:02.095Z</time></trkpt><trkpt lat="40.6445604" lon="9.3155946"><ele>655.0</ele><time>2026-04-13T13:23:03.195Z</time></trkpt><trkpt lat="40.6445045" lon="9.3154993"><ele>655.0</ele><time>2026-04-13T13:23:04.227Z</time></trkpt><trkpt lat="40.6444145" lon="9.3153448"><ele>655.0</ele><time>2026-04-13T13:23:06.091Z</time></trkpt><trkpt lat="40.6443707" lon="9.315206"><ele>655.6666666666667</ele><time>2026-04-13T13:23:08.108Z</time></trkpt><trkpt lat="40.6443524" lon="9.3150926"><ele>656.3333333333334</ele><time>2026-04-13T13:23:10.109Z</time></trkpt><trkpt lat="40.6443159" lon="9.3150216"><ele>657.0</ele><time>2026-04-13T13:23:12.097Z</time></trkpt><trkpt lat="40.6442642" lon="9.3149463"><ele>657.6666666666666</ele><time>2026-04-13T13:23:15.106Z</time></trkpt><trkpt lat="40.6441873" lon="9.3148296"><ele>658.3333333333333</ele><time>2026-04-13T13:30:47.118Z</time></trkpt><trkpt lat="40.6441474" lon="9.3149445"><ele>659.0</ele><time>2026-04-13T13:31:04.136Z</time></trkpt><trkpt lat="40.6442136" lon="9.3150953"><ele>659.0</ele><time>2026-04-13T13:31:06.125Z</time></trkpt><trkpt lat="40.6442663" lon="9.3151802"><ele>659.0</ele><time>2026-04-13T13:31:07.116Z</time></trkpt><trkpt lat="40.6443258" lon="9.3152784"><ele>659.0</ele><time>2026-04-13T13:31:08.118Z</time></trkpt><trkpt lat="40.6443872" lon="9.3153831"><ele>659.0</ele><time>2026-04-13T13:31:09.123Z</time></trkpt><trkpt lat="40.6444545" lon="9.3154974"><ele>659.0</ele><time>2026-04-13T13:31:10.127Z</time></trkpt><trkpt lat="40.6445272" lon="9.3156198"><ele>658.0</ele><time>2026-04-13T13:31:11.139Z</time></trkpt><trkpt lat="40.6446035" lon="9.3157499"><ele>657.0</ele><time>2026-04-13T13:31:12.122Z</time></trkpt><trkpt lat="40.6446814" lon="9.3158884"><ele>656.0</ele><time>2026-04-13T13:31:13.124Z</time></trkpt><trkpt lat="40.6447565" lon="9.3160225"><ele>655.0</ele><time>2026-04-13T13:31:14.131Z</time></trkpt><trkpt lat="40.6448207" lon="9.3161444"><ele>655.0</ele><time>2026-04-13T13:31:15.124Z</time></trkpt><trkpt lat="40.6448822" lon="9.3162595"><ele>655.0</ele><time>2026-04-13T13:31:16.118Z</time></trkpt><trkpt lat="40.6449421" lon="9.3163744"><ele>655.0</ele><time>2026-04-13T13:31:17.118Z</time></trkpt><trkpt lat="40.6449985" lon="9.3164975"><ele>655.0</ele><time>2026-04-13T13:31:18.122Z</time></trkpt><trkpt lat="40.6450503" lon="9.3166285"><ele>655.0</ele><time>2026-04-13T13:31:19.123Z</time></trkpt><trkpt lat="40.6450936" lon="9.3167634"><ele>655.25</ele><time>2026-04-13T13:31:20.119Z</time></trkpt><trkpt lat="40.6451287" lon="9.3169098"><ele>655.5</ele><time>2026-04-13T13:31:21.127Z</time></trkpt><trkpt lat="40.6451597" lon="9.3170624"><ele>655.75</ele><time>2026-04-13T13:31:22.125Z</time></trkpt><trkpt lat="40.6451914" lon="9.3172216"><ele>656.0</ele><time>2026-04-13T13:31:23.117Z</time></trkpt><trkpt lat="40.6452258" lon="9.3173924"><ele>656.0</ele><time>2026-04-13T13:31:24.115Z</time></trkpt><trkpt lat="40.6452622" lon="9.3175711"><ele>656.0</ele><time>2026-04-13T13:31:25.125Z</time></trkpt><trkpt lat="40.6452986" lon="9.3177489"><ele>656.0</ele><time>2026-04-13T13:31:26.123Z</time></trkpt><trkpt lat="40.6453314" lon="9.3179255"><ele>656.0</ele><time>2026-04-13T13:31:27.141Z</time></trkpt><trkpt lat="40.6453612" lon="9.3181013"><ele>656.0</ele><time>2026-04-13T13:31:28.121Z</time></trkpt><trkpt lat="40.6453857" lon="9.3182791"><ele>656.0</ele><time>2026-04-13T13:31:29.129Z</time></trkpt><trkpt lat="40.6454031" lon="9.3184548"><ele>656.0</ele><time>2026-04-13T13:31:30.127Z</time></trkpt><trkpt lat="40.6454144" lon="9.3186282"><ele>656.0</ele><time>2026-04-13T13:31:31.135Z</time></trkpt><trkpt lat="40.6454212" lon="9.3187975"><ele>656.5</ele><time>2026-04-13T13:31:32.132Z</time></trkpt><trkpt lat="40.6454203" lon="9.3189637"><ele>657.0</ele><time>2026-04-13T13:31:33.126Z</time></trkpt><trkpt lat="40.6454122" lon="9.3191314"><ele>657.5</ele><time>2026-04-13T13:31:34.132Z</time></trkpt><trkpt lat="40.6453977" lon="9.3192965"><ele>658.0</ele><time>2026-04-13T13:31:35.127Z</time></trkpt><trkpt lat="40.6453791" lon="9.3194647"><ele>658.0</ele><time>2026-04-13T13:31:36.126Z</time></trkpt><trkpt lat="40.6453551" lon="9.3196333"><ele>658.0</ele><time>2026-04-13T13:31:37.137Z</time></trkpt><trkpt lat="40.6453253" lon="9.3198047"><ele>658.0</ele><time>2026-04-13T13:31:38.139Z</time></trkpt><trkpt lat="40.6452935" lon="9.319979"><ele>658.0</ele><time>2026-04-13T13:31:39.124Z</time></trkpt><trkpt lat="40.6452632" lon="9.3201588"><ele>658.75</ele><time>2026-04-13T13:31:40.133Z</time></trkpt><trkpt lat="40.6452395" lon="9.3203434"><ele>659.5</ele><time>2026-04-13T13:31:41.133Z</time></trkpt><trkpt lat="40.6452215" lon="9.320532"><ele>660.25</ele><time>2026-04-13T13:31:42.127Z</time></trkpt><trkpt lat="40.6452093" lon="9.3207278"><ele>661.0</ele><time>2026-04-13T13:31:43.124Z</time></trkpt><trkpt lat="40.6452054" lon="9.3209275"><ele>661.0</ele><time>2026-04-13T13:31:44.123Z</time></trkpt><trkpt lat="40.6452011" lon="9.3211318"><ele>661.0</ele><time>2026-04-13T13:31:45.135Z</time></trkpt><trkpt lat="40.6451984" lon="9.3213366"><ele>661.0</ele><time>2026-04-13T13:31:46.121Z</time></trkpt><trkpt lat="40.6451963" lon="9.3215436"><ele>661.0</ele><time>2026-04-13T13:31:47.131Z</time></trkpt><trkpt lat="40.6451953" lon="9.3217489"><ele>661.0</ele><time>2026-04-13T13:31:48.132Z</time></trkpt><trkpt lat="40.6451933" lon="9.3219535"><ele>661.0</ele><time>2026-04-13T13:31:49.132Z</time></trkpt><trkpt lat="40.6451921" lon="9.3221587"><ele>661.6666666666667</ele><time>2026-04-13T13:31:50.139Z</time></trkpt><trkpt lat="40.6451909" lon="9.322361"><ele>662.3333333333334</ele><time>2026-04-13T13:31:51.129Z</time></trkpt><trkpt lat="40.6451896" lon="9.3225645"><ele>663.0</ele><time>2026-04-13T13:31:52.127Z</time></trkpt><trkpt lat="40.64519" lon="9.3227623"><ele>663.0</ele><time>2026-04-13T13:31:53.142Z</time></trkpt><trkpt lat="40.645192" lon="9.3229465"><ele>663.0</ele><time>2026-04-13T13:31:54.134Z</time></trkpt><trkpt lat="40.6451998" lon="9.3231184"><ele>663.0</ele><time>2026-04-13T13:31:55.136Z</time></trkpt><trkpt lat="40.6452193" lon="9.3232867"><ele>663.0</ele><time>2026-04-13T13:31:56.146Z</time></trkpt><trkpt lat="40.6452547" lon="9.3234441"><ele>662.5</ele><time>2026-04-13T13:31:57.137Z</time></trkpt><trkpt lat="40.6453106" lon="9.3235955"><ele>662.0</ele><time>2026-04-13T13:31:58.135Z</time></trkpt><trkpt lat="40.6453841" lon="9.3237333"><ele>661.5</ele><time>2026-04-13T13:31:59.136Z</time></trkpt><trkpt lat="40.6454732" lon="9.323861"><ele>661.0</ele><time>2026-04-13T13:32:00.142Z</time></trkpt><trkpt lat="40.6455753" lon="9.3239802"><ele>661.0</ele><time>2026-04-13T13:32:01.141Z</time></trkpt><trkpt lat="40.6456907" lon="9.324092"><ele>661.0</ele><time>2026-04-13T13:32:02.143Z</time></trkpt><trkpt lat="40.6458137" lon="9.3241955"><ele>661.0</ele><time>2026-04-13T13:32:03.134Z</time></trkpt><trkpt lat="40.6459448" lon="9.3242907"><ele>661.0</ele><time>2026-04-13T13:32:04.133Z</time></trkpt><trkpt lat="40.6460769" lon="9.3243882"><ele>661.5</ele><time>2026-04-13T13:32:05.135Z</time></trkpt><trkpt lat="40.6462062" lon="9.3244874"><ele>662.0</ele><time>2026-04-13T13:32:06.142Z</time></trkpt><trkpt lat="40.646332" lon="9.3245854"><ele>662.5</ele><time>2026-04-13T13:32:07.144Z</time></trkpt><trkpt lat="40.6464564" lon="9.3246786"><ele>663.0</ele><time>2026-04-13T13:32:08.149Z</time></trkpt><trkpt lat="40.646578" lon="9.3247718"><ele>663.5</ele><time>2026-04-13T13:32:09.139Z</time></trkpt><trkpt lat="40.6466988" lon="9.3248695"><ele>664.0</ele><time>2026-04-13T13:32:10.155Z</time></trkpt><trkpt lat="40.6468183" lon="9.3249645"><ele>664.5</ele><time>2026-04-13T13:32:11.147Z</time></trkpt><trkpt lat="40.6469369" lon="9.3250547"><ele>665.0</ele><time>2026-04-13T13:32:12.146Z</time></trkpt><trkpt lat="40.6470512" lon="9.3251423"><ele>665.25</ele><time>2026-04-13T13:32:13.146Z</time></trkpt><trkpt lat="40.6471653" lon="9.3252257"><ele>665.5</ele><time>2026-04-13T13:32:14.145Z</time></trkpt><trkpt lat="40.6472824" lon="9.3253004"><ele>665.75</ele><time>2026-04-13T13:32:15.141Z</time></trkpt><trkpt lat="40.6474015" lon="9.3253637"><ele>666.0</ele><time>2026-04-13T13:32:16.144Z</time></trkpt><trkpt lat="40.6475188" lon="9.3254187"><ele>666.0</ele><time>2026-04-13T13:32:17.152Z</time></trkpt><trkpt lat="40.6476327" lon="9.3254699"><ele>666.0</ele><time>2026-04-13T13:32:18.156Z</time></trkpt><trkpt lat="40.6477405" lon="9.3255176"><ele>666.0</ele><time>2026-04-13T13:32:19.142Z</time></trkpt><trkpt lat="40.6478489" lon="9.3255654"><ele>666.0</ele><time>2026-04-13T13:32:20.157Z</time></trkpt><trkpt lat="40.6479547" lon="9.3256123"><ele>665.5</ele><time>2026-04-13T13:32:21.147Z</time></trkpt><trkpt lat="40.6480633" lon="9.3256612"><ele>665.0</ele><time>2026-04-13T13:32:22.157Z</time></trkpt><trkpt lat="40.648171" lon="9.3257108"><ele>664.5</ele><time>2026-04-13T13:32:23.15Z</time></trkpt><trkpt lat="40.64828" lon="9.3257603"><ele>664.0</ele><time>2026-04-13T13:32:24.144Z</time></trkpt><trkpt lat="40.6483915" lon="9.325816"><ele>664.0</ele><time>2026-04-13T13:32:25.142Z</time></trkpt><trkpt lat="40.6484998" lon="9.3258828"><ele>664.0</ele><time>2026-04-13T13:32:26.14Z</time></trkpt><trkpt lat="40.6486042" lon="9.3259647"><ele>664.0</ele><time>2026-04-13T13:32:27.141Z</time></trkpt><trkpt lat="40.6487035" lon="9.3260575"><ele>664.0</ele><time>2026-04-13T13:32:28.15Z</time></trkpt><trkpt lat="40.6487963" lon="9.3261592"><ele>664.25</ele><time>2026-04-13T13:32:29.146Z</time></trkpt><trkpt lat="40.6488839" lon="9.3262683"><ele>664.5</ele><time>2026-04-13T13:32:30.144Z</time></trkpt><trkpt lat="40.648969" lon="9.3263815"><ele>664.75</ele><time>2026-04-13T13:32:31.145Z</time></trkpt><trkpt lat="40.6490533" lon="9.3264985"><ele>665.0</ele><time>2026-04-13T13:32:32.156Z</time></trkpt><trkpt lat="40.6491375" lon="9.3266185"><ele>665.0</ele><time>2026-04-13T13:32:33.154Z</time></trkpt><trkpt lat="40.6492205" lon="9.3267411"><ele>665.0</ele><time>2026-04-13T13:32:34.189Z</time></trkpt><trkpt lat="40.6493021" lon="9.3268605"><ele>665.0</ele><time>2026-04-13T13:32:35.143Z</time></trkpt><trkpt lat="40.649389" lon="9.3269804"><ele>665.0</ele><time>2026-04-13T13:32:36.144Z</time></trkpt><trkpt lat="40.649481" lon="9.3270996"><ele>665.25</ele><time>2026-04-13T13:32:37.153Z</time></trkpt><trkpt lat="40.6495726" lon="9.3272202"><ele>665.5</ele><time>2026-04-13T13:32:38.152Z</time></trkpt><trkpt lat="40.6496647" lon="9.3273415"><ele>665.75</ele><time>2026-04-13T13:32:39.142Z</time></trkpt><trkpt lat="40.649756" lon="9.3274629"><ele>666.0</ele><time>2026-04-13T13:32:40.152Z</time></trkpt><trkpt lat="40.649846" lon="9.3275828"><ele>665.25</ele><time>2026-04-13T13:32:41.144Z</time></trkpt><trkpt lat="40.6499358" lon="9.3277065"><ele>664.5</ele><time>2026-04-13T13:32:42.146Z</time></trkpt><trkpt lat="40.6500269" lon="9.3278305"><ele>663.75</ele><time>2026-04-13T13:32:43.151Z</time></trkpt><trkpt lat="40.6501089" lon="9.327962"><ele>663.0</ele><time>2026-04-13T13:32:44.153Z</time></trkpt><trkpt lat="40.6501847" lon="9.3281"><ele>663.0</ele><time>2026-04-13T13:32:45.153Z</time></trkpt><trkpt lat="40.650249" lon="9.328241"><ele>663.0</ele><time>2026-04-13T13:32:46.15Z</time></trkpt><trkpt lat="40.6503118" lon="9.328385"><ele>663.0</ele><time>2026-04-13T13:32:47.146Z</time></trkpt><trkpt lat="40.6503774" lon="9.3285327"><ele>663.0</ele><time>2026-04-13T13:32:48.146Z</time></trkpt><trkpt lat="40.6504433" lon="9.3286804"><ele>664.25</ele><time>2026-04-13T13:32:49.149Z</time></trkpt><trkpt lat="40.6505081" lon="9.3288279"><ele>665.5</ele><time>2026-04-13T13:32:50.147Z</time></trkpt><trkpt lat="40.6505734" lon="9.3289753"><ele>666.75</ele><time>2026-04-13T13:32:51.153Z</time></trkpt><trkpt lat="40.6506392" lon="9.3291187"><ele>668.0</ele><time>2026-04-13T13:32:52.152Z</time></trkpt><trkpt lat="40.6507058" lon="9.3292597"><ele>668.0</ele><time>2026-04-13T13:32:53.152Z</time></trkpt><trkpt lat="40.6507704" lon="9.3294039"><ele>668.0</ele><time>2026-04-13T13:32:54.172Z</time></trkpt><trkpt lat="40.650836" lon="9.3295462"><ele>668.0</ele><time>2026-04-13T13:32:55.157Z</time></trkpt><trkpt lat="40.6509012" lon="9.3296899"><ele>668.0</ele><time>2026-04-13T13:32:56.148Z</time></trkpt><trkpt lat="40.6509645" lon="9.3298266"><ele>668.0</ele><time>2026-04-13T13:32:57.15Z</time></trkpt><trkpt lat="40.651019" lon="9.3299552"><ele>668.0</ele><time>2026-04-13T13:32:58.157Z</time></trkpt><trkpt lat="40.6510648" lon="9.3300803"><ele>668.0</ele><time>2026-04-13T13:32:59.158Z</time></trkpt><trkpt lat="40.6510984" lon="9.3302062"><ele>668.0</ele><time>2026-04-13T13:33:00.146Z</time></trkpt><trkpt lat="40.6511159" lon="9.330342"><ele>668.0</ele><time>2026-04-13T13:33:01.15Z</time></trkpt><trkpt lat="40.6511158" lon="9.3304781"><ele>667.0</ele><time>2026-04-13T13:33:02.154Z</time></trkpt><trkpt lat="40.6511089" lon="9.3306224"><ele>666.0</ele><time>2026-04-13T13:33:03.15Z</time></trkpt><trkpt lat="40.6510895" lon="9.3307738"><ele>665.0</ele><time>2026-04-13T13:33:04.164Z</time></trkpt><trkpt lat="40.6510698" lon="9.3309296"><ele>664.0</ele><time>2026-04-13T13:33:05.184Z</time></trkpt><trkpt lat="40.6510531" lon="9.3310862"><ele>664.0</ele><time>2026-04-13T13:33:06.144Z</time></trkpt><trkpt lat="40.6510374" lon="9.3312415"><ele>664.0</ele><time>2026-04-13T13:33:07.139Z</time></trkpt><trkpt lat="40.6510225" lon="9.3313942"><ele>664.0</ele><time>2026-04-13T13:33:08.15Z</time></trkpt><trkpt lat="40.6510057" lon="9.3315446"><ele>664.0</ele><time>2026-04-13T13:33:09.138Z</time></trkpt><trkpt lat="40.6509759" lon="9.3316885"><ele>662.5</ele><time>2026-04-13T13:33:10.139Z</time></trkpt><trkpt lat="40.6509351" lon="9.3318317"><ele>661.0</ele><time>2026-04-13T13:33:11.172Z</time></trkpt><trkpt lat="40.650887" lon="9.3319708"><ele>659.5</ele><time>2026-04-13T13:33:12.141Z</time></trkpt><trkpt lat="40.6508336" lon="9.3321127"><ele>658.0</ele><time>2026-04-13T13:33:13.149Z</time></trkpt><trkpt lat="40.6507788" lon="9.3322515"><ele>657.8</ele><time>2026-04-13T13:33:14.145Z</time></trkpt><trkpt lat="40.650722" lon="9.3323842"><ele>657.5999999999999</ele><time>2026-04-13T13:33:15.156Z</time></trkpt><trkpt lat="40.6506699" lon="9.3325119"><ele>657.4000000000001</ele><time>2026-04-13T13:33:16.15Z</time></trkpt><trkpt lat="40.6506169" lon="9.3326406"><ele>657.2</ele><time>2026-04-13T13:33:17.178Z</time></trkpt><trkpt lat="40.6505657" lon="9.3327689"><ele>657.0</ele><time>2026-04-13T13:33:18.17Z</time></trkpt><trkpt lat="40.650513" lon="9.3328946"><ele>657.0</ele><time>2026-04-13T13:33:19.145Z</time></trkpt><trkpt lat="40.6504542" lon="9.3330144"><ele>657.0</ele><time>2026-04-13T13:33:20.151Z</time></trkpt><trkpt lat="40.6503882" lon="9.3331277"><ele>657.0</ele><time>2026-04-13T13:33:21.15Z</time></trkpt><trkpt lat="40.6503183" lon="9.3332418"><ele>657.0</ele><time>2026-04-13T13:33:22.154Z</time></trkpt><trkpt lat="40.6502448" lon="9.3333614"><ele>657.0</ele><time>2026-04-13T13:33:23.153Z</time></trkpt><trkpt lat="40.650173" lon="9.3334954"><ele>654.75</ele><time>2026-04-13T13:33:24.142Z</time></trkpt><trkpt lat="40.6501046" lon="9.3336431"><ele>652.5</ele><time>2026-04-13T13:33:25.161Z</time></trkpt><trkpt lat="40.6500424" lon="9.3337973"><ele>650.25</ele><time>2026-04-13T13:33:26.155Z</time></trkpt><trkpt lat="40.6499808" lon="9.3339596"><ele>648.0</ele><time>2026-04-13T13:33:27.144Z</time></trkpt><trkpt lat="40.6499226" lon="9.3341203"><ele>648.0</ele><time>2026-04-13T13:33:28.148Z</time></trkpt><trkpt lat="40.649872" lon="9.3342796"><ele>648.0</ele><time>2026-04-13T13:33:29.147Z</time></trkpt><trkpt lat="40.6498356" lon="9.3344456"><ele>648.0</ele><time>2026-04-13T13:33:30.149Z</time></trkpt><trkpt lat="40.6498183" lon="9.3346151"><ele>648.0</ele><time>2026-04-13T13:33:31.157Z</time></trkpt><trkpt lat="40.6498166" lon="9.334791"><ele>647.5</ele><time>2026-04-13T13:33:32.15Z</time></trkpt><trkpt lat="40.6498288" lon="9.3349739"><ele>647.0</ele><time>2026-04-13T13:33:33.145Z</time></trkpt><trkpt lat="40.6498499" lon="9.3351631"><ele>646.5</ele><time>2026-04-13T13:33:34.141Z</time></trkpt><trkpt lat="40.6498753" lon="9.3353571"><ele>646.0</ele><time>2026-04-13T13:33:35.154Z</time></trkpt><trkpt lat="40.6499059" lon="9.3355422"><ele>644.75</ele><time>2026-04-13T13:33:36.15Z</time></trkpt><trkpt lat="40.6499467" lon="9.3357194"><ele>643.5</ele><time>2026-04-13T13:33:37.157Z</time></trkpt><trkpt lat="40.6499968" lon="9.3358859"><ele>642.25</ele><time>2026-04-13T13:33:38.172Z</time></trkpt><trkpt lat="40.650048" lon="9.3360475"><ele>641.0</ele><time>2026-04-13T13:33:39.149Z</time></trkpt><trkpt lat="40.6500836" lon="9.3362074"><ele>641.0</ele><time>2026-04-13T13:33:40.148Z</time></trkpt><trkpt lat="40.6500833" lon="9.3363641"><ele>641.0</ele><time>2026-04-13T13:33:41.151Z</time></trkpt><trkpt lat="40.6500513" lon="9.3365126"><ele>641.0</ele><time>2026-04-13T13:33:42.14Z</time></trkpt><trkpt lat="40.6500024" lon="9.3366561"><ele>641.0</ele><time>2026-04-13T13:33:43.139Z</time></trkpt><trkpt lat="40.6499465" lon="9.3367902"><ele>640.1999999999999</ele><time>2026-04-13T13:33:44.146Z</time></trkpt><trkpt lat="40.6499041" lon="9.3369225"><ele>639.4</ele><time>2026-04-13T13:33:45.151Z</time></trkpt><trkpt lat="40.6498883" lon="9.3370558"><ele>638.6</ele><time>2026-04-13T13:33:46.156Z</time></trkpt><trkpt lat="40.6499136" lon="9.3371917"><ele>637.8</ele><time>2026-04-13T13:33:47.159Z</time></trkpt><trkpt lat="40.6499653" lon="9.3373263"><ele>637.0</ele><time>2026-04-13T13:33:48.164Z</time></trkpt><trkpt lat="40.6500287" lon="9.3374614"><ele>635.75</ele><time>2026-04-13T13:33:49.159Z</time></trkpt><trkpt lat="40.650101" lon="9.337596"><ele>634.5</ele><time>2026-04-13T13:33:50.155Z</time></trkpt><trkpt lat="40.65018" lon="9.3377234"><ele>633.25</ele><time>2026-04-13T13:33:51.144Z</time></trkpt><trkpt lat="40.6502756" lon="9.3378419"><ele>632.0</ele><time>2026-04-13T13:33:52.149Z</time></trkpt><trkpt lat="40.6503833" lon="9.3379458"><ele>632.0</ele><time>2026-04-13T13:33:53.164Z</time></trkpt><trkpt lat="40.6504947" lon="9.3380457"><ele>632.0</ele><time>2026-04-13T13:33:54.154Z</time></trkpt><trkpt lat="40.6506013" lon="9.3381426"><ele>632.0</ele><time>2026-04-13T13:33:55.145Z</time></trkpt><trkpt lat="40.6507038" lon="9.3382454"><ele>632.0</ele><time>2026-04-13T13:33:56.15Z</time></trkpt><trkpt lat="40.6507897" lon="9.3383657"><ele>632.0</ele><time>2026-04-13T13:33:57.156Z</time></trkpt><trkpt lat="40.6508499" lon="9.3385031"><ele>632.0</ele><time>2026-04-13T13:33:58.148Z</time></trkpt><trkpt lat="40.650887" lon="9.338654"><ele>632.0</ele><time>2026-04-13T13:33:59.152Z</time></trkpt><trkpt lat="40.6509132" lon="9.3388144"><ele>632.0</ele><time>2026-04-13T13:34:00.163Z</time></trkpt><trkpt lat="40.6509421" lon="9.338981"><ele>634.5</ele><time>2026-04-13T13:34:01.175Z</time></trkpt><trkpt lat="40.6509799" lon="9.3391502"><ele>637.0</ele><time>2026-04-13T13:34:02.168Z</time></trkpt><trkpt lat="40.6510301" lon="9.3393178"><ele>639.5</ele><time>2026-04-13T13:34:03.157Z</time></trkpt><trkpt lat="40.6510863" lon="9.339486"><ele>642.0</ele><time>2026-04-13T13:34:04.157Z</time></trkpt><trkpt lat="40.6511496" lon="9.3396509"><ele>637.75</ele><time>2026-04-13T13:34:05.166Z</time></trkpt><trkpt lat="40.651225" lon="9.3398056"><ele>633.5</ele><time>2026-04-13T13:34:06.149Z</time></trkpt><trkpt lat="40.6513188" lon="9.3399489"><ele>629.25</ele><time>2026-04-13T13:34:07.175Z</time></trkpt><trkpt lat="40.6514168" lon="9.3400858"><ele>625.0</ele><time>2026-04-13T13:34:08.15Z</time></trkpt><trkpt lat="40.6515172" lon="9.3402295"><ele>625.0</ele><time>2026-04-13T13:34:09.158Z</time></trkpt><trkpt lat="40.6516125" lon="9.3403828"><ele>625.0</ele><time>2026-04-13T13:34:10.154Z</time></trkpt><trkpt lat="40.651695" lon="9.3405448"><ele>625.0</ele><time>2026-04-13T13:34:11.159Z</time></trkpt><trkpt lat="40.6517725" lon="9.3407096"><ele>625.0</ele><time>2026-04-13T13:34:12.15Z</time></trkpt><trkpt lat="40.6518559" lon="9.3408729"><ele>624.75</ele><time>2026-04-13T13:34:13.155Z</time></trkpt><trkpt lat="40.6519429" lon="9.3410266"><ele>624.5</ele><time>2026-04-13T13:34:14.149Z</time></trkpt><trkpt lat="40.6520314" lon="9.3411725"><ele>624.25</ele><time>2026-04-13T13:34:15.152Z</time></trkpt><trkpt lat="40.6521184" lon="9.3413068"><ele>624.0</ele><time>2026-04-13T13:34:16.156Z</time></trkpt><trkpt lat="40.6521995" lon="9.341434"><ele>621.2</ele><time>2026-04-13T13:34:17.162Z</time></trkpt><trkpt lat="40.6522744" lon="9.3415451"><ele>618.4</ele><time>2026-04-13T13:34:18.15Z</time></trkpt><trkpt lat="40.652339" lon="9.3416432"><ele>615.6</ele><time>2026-04-13T13:34:19.151Z</time></trkpt><trkpt lat="40.65239" lon="9.3417289"><ele>612.8</ele><time>2026-04-13T13:34:20.159Z</time></trkpt><trkpt lat="40.6524244" lon="9.3418049"><ele>610.0</ele><time>2026-04-13T13:34:21.179Z</time></trkpt><trkpt lat="40.6524249" lon="9.3419301"><ele>610.0</ele><time>2026-04-13T13:34:23.156Z</time></trkpt><trkpt lat="40.6524151" lon="9.3420324"><ele>610.0</ele><time>2026-04-13T13:34:25.163Z</time></trkpt><trkpt lat="40.65241" lon="9.3421237"><ele>610.0</ele><time>2026-04-13T13:34:27.181Z</time></trkpt><trkpt lat="40.6524602" lon="9.3422322"><ele>610.0</ele><time>2026-04-13T13:34:29.189Z</time></trkpt><trkpt lat="40.6525671" lon="9.3423154"><ele>610.0</ele><time>2026-04-13T13:34:31.169Z</time></trkpt><trkpt lat="40.6526419" lon="9.3423605"><ele>609.8</ele><time>2026-04-13T13:34:32.155Z</time></trkpt><trkpt lat="40.6527269" lon="9.3424136"><ele>609.6</ele><time>2026-04-13T13:34:33.179Z</time></trkpt><trkpt lat="40.6528151" lon="9.3424719"><ele>609.4</ele><time>2026-04-13T13:34:34.165Z</time></trkpt><trkpt lat="40.6529106" lon="9.3425365"><ele>609.2</ele><time>2026-04-13T13:34:35.179Z</time></trkpt><trkpt lat="40.6530114" lon="9.3425981"><ele>609.0</ele><time>2026-04-13T13:34:36.174Z</time></trkpt><trkpt lat="40.6531196" lon="9.342648"><ele>609.0</ele><time>2026-04-13T13:34:37.177Z</time></trkpt><trkpt lat="40.6532323" lon="9.3426774"><ele>609.0</ele><time>2026-04-13T13:34:38.165Z</time></trkpt><trkpt lat="40.6533483" lon="9.3426847"><ele>609.0</ele><time>2026-04-13T13:34:39.163Z</time></trkpt><trkpt lat="40.6534615" lon="9.3426781"><ele>609.0</ele><time>2026-04-13T13:34:40.169Z</time></trkpt><trkpt lat="40.653571" lon="9.3426644"><ele>609.3333333333334</ele><time>2026-04-13T13:34:41.181Z</time></trkpt><trkpt lat="40.6536716" lon="9.3426517"><ele>609.6666666666666</ele><time>2026-04-13T13:34:42.171Z</time></trkpt><trkpt lat="40.6537606" lon="9.3426522"><ele>610.0</ele><time>2026-04-13T13:34:43.177Z</time></trkpt><trkpt lat="40.6538423" lon="9.3426843"><ele>610.3333333333333</ele><time>2026-04-13T13:34:44.173Z</time></trkpt><trkpt lat="40.653905" lon="9.342754"><ele>610.6666666666666</ele><time>2026-04-13T13:34:45.175Z</time></trkpt><trkpt lat="40.6539457" lon="9.3428529"><ele>611.0</ele><time>2026-04-13T13:34:46.176Z</time></trkpt><trkpt lat="40.6539769" lon="9.3429787"><ele>608.75</ele><time>2026-04-13T13:34:47.168Z</time></trkpt><trkpt lat="40.6540048" lon="9.343119"><ele>606.5</ele><time>2026-04-13T13:34:48.176Z</time></trkpt><trkpt lat="40.6540404" lon="9.3432657"><ele>604.25</ele><time>2026-04-13T13:34:49.182Z</time></trkpt><trkpt lat="40.6540871" lon="9.3434162"><ele>602.0</ele><time>2026-04-13T13:34:50.175Z</time></trkpt><trkpt lat="40.654145" lon="9.3435752"><ele>602.0</ele><time>2026-04-13T13:34:51.179Z</time></trkpt><trkpt lat="40.6542061" lon="9.3437386"><ele>602.0</ele><time>2026-04-13T13:34:52.178Z</time></trkpt><trkpt lat="40.6542692" lon="9.343899"><ele>602.0</ele><time>2026-04-13T13:34:53.172Z</time></trkpt><trkpt lat="40.6543315" lon="9.3440467"><ele>602.0</ele><time>2026-04-13T13:34:54.174Z</time></trkpt><trkpt lat="40.6543996" lon="9.3441863"><ele>603.0</ele><time>2026-04-13T13:34:55.169Z</time></trkpt><trkpt lat="40.6544781" lon="9.3443196"><ele>604.0</ele><time>2026-04-13T13:34:56.182Z</time></trkpt><trkpt lat="40.654565" lon="9.3444431"><ele>605.0</ele><time>2026-04-13T13:34:57.181Z</time></trkpt><trkpt lat="40.6546664" lon="9.3445614"><ele>606.0</ele><time>2026-04-13T13:34:58.17Z</time></trkpt><trkpt lat="40.654774" lon="9.3446762"><ele>602.5</ele><time>2026-04-13T13:34:59.175Z</time></trkpt><trkpt lat="40.6548823" lon="9.3447812"><ele>599.0</ele><time>2026-04-13T13:35:00.177Z</time></trkpt><trkpt lat="40.6549858" lon="9.3448718"><ele>595.5</ele><time>2026-04-13T13:35:01.174Z</time></trkpt><trkpt lat="40.6550873" lon="9.3449546"><ele>592.0</ele><time>2026-04-13T13:35:02.181Z</time></trkpt><trkpt lat="40.655182" lon="9.3450363"><ele>592.0</ele><time>2026-04-13T13:35:03.179Z</time></trkpt><trkpt lat="40.6552729" lon="9.345124"><ele>592.0</ele><time>2026-04-13T13:35:04.184Z</time></trkpt><trkpt lat="40.6553616" lon="9.3452198"><ele>592.0</ele><time>2026-04-13T13:35:05.174Z</time></trkpt><trkpt lat="40.6554532" lon="9.3453283"><ele>592.0</ele><time>2026-04-13T13:35:06.168Z</time></trkpt><trkpt lat="40.6555427" lon="9.3454577"><ele>591.0</ele><time>2026-04-13T13:35:07.178Z</time></trkpt><trkpt lat="40.6556302" lon="9.3456011"><ele>590.0</ele><time>2026-04-13T13:35:08.172Z</time></trkpt><trkpt lat="40.6557198" lon="9.3457555"><ele>589.0</ele><time>2026-04-13T13:35:09.174Z</time></trkpt><trkpt lat="40.655807" lon="9.3459097"><ele>588.0</ele><time>2026-04-13T13:35:10.169Z</time></trkpt><trkpt lat="40.6558925" lon="9.3460576"><ele>588.0</ele><time>2026-04-13T13:35:11.178Z</time></trkpt><trkpt lat="40.6559775" lon="9.3461979"><ele>588.0</ele><time>2026-04-13T13:35:12.179Z</time></trkpt><trkpt lat="40.656061" lon="9.3463344"><ele>588.0</ele><time>2026-04-13T13:35:13.176Z</time></trkpt><trkpt lat="40.6561483" lon="9.3464604"><ele>588.0</ele><time>2026-04-13T13:35:14.166Z</time></trkpt><trkpt lat="40.6562395" lon="9.346575"><ele>585.6</ele><time>2026-04-13T13:35:15.181Z</time></trkpt><trkpt lat="40.6563291" lon="9.346661"><ele>583.1999999999999</ele><time>2026-04-13T13:35:16.175Z</time></trkpt><trkpt lat="40.6564232" lon="9.346726"><ele>580.8</ele><time>2026-04-13T13:35:17.174Z</time></trkpt><trkpt lat="40.656522" lon="9.3467824"><ele>578.4</ele><time>2026-04-13T13:35:18.17Z</time></trkpt><trkpt lat="40.6566281" lon="9.3468332"><ele>576.0</ele><time>2026-04-13T13:35:19.179Z</time></trkpt><trkpt lat="40.6567349" lon="9.3468879"><ele>576.0</ele><time>2026-04-13T13:35:20.174Z</time></trkpt><trkpt lat="40.6568384" lon="9.3469417"><ele>576.0</ele><time>2026-04-13T13:35:21.181Z</time></trkpt><trkpt lat="40.6569374" lon="9.3469919"><ele>576.0</ele><time>2026-04-13T13:35:22.18Z</time></trkpt><trkpt lat="40.6570265" lon="9.347043"><ele>576.0</ele><time>2026-04-13T13:35:23.18Z</time></trkpt><trkpt lat="40.6570972" lon="9.3471053"><ele>576.0</ele><time>2026-04-13T13:35:24.173Z</time></trkpt><trkpt lat="40.6571325" lon="9.3471839"><ele>574.8</ele><time>2026-04-13T13:35:25.177Z</time></trkpt><trkpt lat="40.6571352" lon="9.3472827"><ele>573.6</ele><time>2026-04-13T13:35:26.178Z</time></trkpt><trkpt lat="40.6571232" lon="9.3473946"><ele>572.4</ele><time>2026-04-13T13:35:27.178Z</time></trkpt><trkpt lat="40.6570941" lon="9.3475097"><ele>571.2</ele><time>2026-04-13T13:35:28.175Z</time></trkpt><trkpt lat="40.6570544" lon="9.3476323"><ele>570.0</ele><time>2026-04-13T13:35:29.182Z</time></trkpt><trkpt lat="40.6570032" lon="9.3477659"><ele>570.5</ele><time>2026-04-13T13:35:30.183Z</time></trkpt><trkpt lat="40.6569476" lon="9.3479124"><ele>571.0</ele><time>2026-04-13T13:35:31.187Z</time></trkpt><trkpt lat="40.6568862" lon="9.3480686"><ele>571.5</ele><time>2026-04-13T13:35:32.177Z</time></trkpt><trkpt lat="40.6568126" lon="9.3482395"><ele>572.0</ele><time>2026-04-13T13:35:33.18Z</time></trkpt><trkpt lat="40.6567291" lon="9.3484181"><ele>572.0</ele><time>2026-04-13T13:35:34.185Z</time></trkpt><trkpt lat="40.6566474" lon="9.3485972"><ele>572.0</ele><time>2026-04-13T13:35:35.174Z</time></trkpt><trkpt lat="40.6565703" lon="9.3487759"><ele>572.0</ele><time>2026-04-13T13:35:36.166Z</time></trkpt><trkpt lat="40.6565012" lon="9.3489488"><ele>572.0</ele><time>2026-04-13T13:35:37.178Z</time></trkpt><trkpt lat="40.6564393" lon="9.3491087"><ele>572.0</ele><time>2026-04-13T13:35:38.184Z</time></trkpt><trkpt lat="40.6563871" lon="9.3492498"><ele>572.0</ele><time>2026-04-13T13:35:39.177Z</time></trkpt><trkpt lat="40.6563452" lon="9.3493674"><ele>572.0</ele><time>2026-04-13T13:35:40.175Z</time></trkpt><trkpt lat="40.656314" lon="9.3494571"><ele>572.0</ele><time>2026-04-13T13:35:41.175Z</time></trkpt><trkpt lat="40.6562808" lon="9.3495878"><ele>572.0</ele><time>2026-04-13T13:35:43.173Z</time></trkpt><trkpt lat="40.6562914" lon="9.3496816"><ele>572.0</ele><time>2026-04-13T13:35:45.638Z</time></trkpt><trkpt lat="40.6563339" lon="9.3497742"><ele>572.0</ele><time>2026-04-13T13:35:49.614Z</time></trkpt><trkpt lat="40.6564204" lon="9.3498382"><ele>572.0</ele><time>2026-04-13T13:37:24.557Z</time></trkpt><trkpt lat="40.6565083" lon="9.3499269"><ele>572.0</ele><time>2026-04-13T13:37:26.555Z</time></trkpt><trkpt lat="40.6565971" lon="9.3500234"><ele>572.0</ele><time>2026-04-13T13:37:28.558Z</time></trkpt><trkpt lat="40.6566514" lon="9.3501273"><ele>572.0</ele><time>2026-04-13T13:37:30.58Z</time></trkpt><trkpt lat="40.6566959" lon="9.3502453"><ele>572.0</ele><time>2026-04-13T13:37:32.559Z</time></trkpt><trkpt lat="40.6567437" lon="9.3503847"><ele>572.0</ele><time>2026-04-13T13:37:34.576Z</time></trkpt><trkpt lat="40.6567922" lon="9.3505311"><ele>572.0</ele><time>2026-04-13T13:37:36.558Z</time></trkpt><trkpt lat="40.6568408" lon="9.3506878"><ele>572.0</ele><time>2026-04-13T13:37:38.565Z</time></trkpt><trkpt lat="40.6568643" lon="9.3507651"><ele>572.0</ele><time>2026-04-13T13:37:39.57Z</time></trkpt><trkpt lat="40.6569072" lon="9.3509167"><ele>572.0</ele><time>2026-04-13T13:37:41.569Z</time></trkpt><trkpt lat="40.656951" lon="9.3510619"><ele>572.0</ele><time>2026-04-13T13:37:43.579Z</time></trkpt><trkpt lat="40.6570164" lon="9.3511611"><ele>572.0</ele><time>2026-04-13T13:37:45.584Z</time></trkpt><trkpt lat="40.6571108" lon="9.3511812"><ele>572.4</ele><time>2026-04-13T13:37:47.599Z</time></trkpt><trkpt lat="40.6572225" lon="9.3511588"><ele>572.8000000000001</ele><time>2026-04-13T13:37:49.587Z</time></trkpt><trkpt lat="40.6573303" lon="9.3511554"><ele>573.2</ele><time>2026-04-13T13:37:51.591Z</time></trkpt><trkpt lat="40.6574242" lon="9.3511879"><ele>573.6</ele><time>2026-04-13T13:37:53.567Z</time></trkpt><trkpt lat="40.6574961" lon="9.3512808"><ele>574.0</ele><time>2026-04-13T13:37:55.575Z</time></trkpt><trkpt lat="40.6575567" lon="9.3514237"><ele>574.8333333333334</ele><time>2026-04-13T13:37:57.594Z</time></trkpt><trkpt lat="40.6575834" lon="9.351506"><ele>575.6666666666667</ele><time>2026-04-13T13:37:58.574Z</time></trkpt><trkpt lat="40.6576149" lon="9.3515949"><ele>576.5</ele><time>2026-04-13T13:37:59.575Z</time></trkpt><trkpt lat="40.6576496" lon="9.3516905"><ele>577.3333333333334</ele><time>2026-04-13T13:38:00.595Z</time></trkpt><trkpt lat="40.6576875" lon="9.3517975"><ele>578.1666666666666</ele><time>2026-04-13T13:38:01.582Z</time></trkpt><trkpt lat="40.6577261" lon="9.3519142"><ele>579.0</ele><time>2026-04-13T13:38:02.577Z</time></trkpt><trkpt lat="40.6577659" lon="9.3520351"><ele>581.3333333333334</ele><time>2026-04-13T13:38:03.581Z</time></trkpt><trkpt lat="40.6578095" lon="9.3521546"><ele>583.6666666666666</ele><time>2026-04-13T13:38:04.575Z</time></trkpt><trkpt lat="40.6578547" lon="9.3522631"><ele>586.0</ele><time>2026-04-13T13:38:05.585Z</time></trkpt><trkpt lat="40.6579002" lon="9.3523604"><ele>588.3333333333333</ele><time>2026-04-13T13:38:06.577Z</time></trkpt><trkpt lat="40.6579433" lon="9.3524461"><ele>590.6666666666666</ele><time>2026-04-13T13:38:07.58Z</time></trkpt><trkpt lat="40.657974" lon="9.3525203"><ele>593.0</ele><time>2026-04-13T13:38:08.581Z</time></trkpt><trkpt lat="40.6580133" lon="9.3526387"><ele>594.1666666666666</ele><time>2026-04-13T13:38:10.572Z</time></trkpt><trkpt lat="40.6581036" lon="9.3526678"><ele>595.3333333333333</ele><time>2026-04-13T13:38:13.598Z</time></trkpt><trkpt lat="40.6581844" lon="9.3525922"><ele>596.5</ele><time>2026-04-13T13:38:15.617Z</time></trkpt><trkpt lat="40.6582374" lon="9.3525433"><ele>597.6666666666666</ele><time>2026-04-13T13:38:16.591Z</time></trkpt><trkpt lat="40.6582959" lon="9.3524984"><ele>598.8333333333334</ele><time>2026-04-13T13:38:17.577Z</time></trkpt><trkpt lat="40.6583575" lon="9.3524482"><ele>600.0</ele><time>2026-04-13T13:38:18.574Z</time></trkpt><trkpt lat="40.6584157" lon="9.3523993"><ele>599.9999999999999</ele><time>2026-04-13T13:38:19.577Z</time></trkpt><trkpt lat="40.6584662" lon="9.3523482"><ele>600.0</ele><time>2026-04-13T13:38:20.58Z</time></trkpt><trkpt lat="40.6585155" lon="9.3522943"><ele>600.0</ele><time>2026-04-13T13:38:21.587Z</time></trkpt><trkpt lat="40.6585649" lon="9.3522405"><ele>600.0</ele><time>2026-04-13T13:38:22.576Z</time></trkpt><trkpt lat="40.6586164" lon="9.3521823"><ele>600.0</ele><time>2026-04-13T13:38:23.573Z</time></trkpt><trkpt lat="40.6586722" lon="9.3521187"><ele>599.9999999999999</ele><time>2026-04-13T13:38:24.58Z</time></trkpt><trkpt lat="40.6587336" lon="9.3520521"><ele>600.0</ele><time>2026-04-13T13:38:25.593Z</time></trkpt><trkpt lat="40.6587957" lon="9.3519852"><ele>600.3333333333334</ele><time>2026-04-13T13:38:26.581Z</time></trkpt><trkpt lat="40.658851" lon="9.3519252"><ele>600.6666666666666</ele><time>2026-04-13T13:38:27.584Z</time></trkpt><trkpt lat="40.6589396" lon="9.3518675"><ele>601.0</ele><time>2026-04-13T13:38:29.581Z</time></trkpt><trkpt lat="40.6590273" lon="9.3519128"><ele>601.3333333333333</ele><time>2026-04-13T13:38:31.584Z</time></trkpt><trkpt lat="40.6590822" lon="9.3519715"><ele>601.6666666666666</ele><time>2026-04-13T13:38:32.586Z</time></trkpt><trkpt lat="40.6591394" lon="9.3520485"><ele>602.0</ele><time>2026-04-13T13:38:33.586Z</time></trkpt><trkpt lat="40.6591934" lon="9.3521211"><ele>602.0</ele><time>2026-04-13T13:38:34.598Z</time></trkpt><trkpt lat="40.6592416" lon="9.3521853"><ele>602.0</ele><time>2026-04-13T13:38:35.588Z</time></trkpt><trkpt lat="40.6592872" lon="9.3522438"><ele>602.0</ele><time>2026-04-13T13:38:36.61Z</time></trkpt><trkpt lat="40.6593691" lon="9.3523223"><ele>602.0</ele><time>2026-04-13T13:38:38.586Z</time></trkpt><trkpt lat="40.6594623" lon="9.35239"><ele>602.0</ele><time>2026-04-13T13:38:40.592Z</time></trkpt><trkpt lat="40.6595749" lon="9.3524915"><ele>600.3333333333333</ele><time>2026-04-13T13:38:42.583Z</time></trkpt><trkpt lat="40.6596378" lon="9.3525529"><ele>598.6666666666666</ele><time>2026-04-13T13:38:43.591Z</time></trkpt><trkpt lat="40.6597012" lon="9.352616"><ele>597.0</ele><time>2026-04-13T13:38:44.591Z</time></trkpt><trkpt lat="40.6597569" lon="9.3526641"><ele>595.3333333333334</ele><time>2026-04-13T13:38:45.593Z</time></trkpt><trkpt lat="40.6598333" lon="9.3527374"><ele>593.6666666666667</ele><time>2026-04-13T13:38:47.597Z</time></trkpt><trkpt lat="40.6598922" lon="9.3528392"><ele>592.0</ele><time>2026-04-13T13:38:49.608Z</time></trkpt><trkpt lat="40.6599232" lon="9.3529121"><ele>592.0</ele><time>2026-04-13T13:38:50.587Z</time></trkpt><trkpt lat="40.6599596" lon="9.352992"><ele>592.0</ele><time>2026-04-13T13:38:51.591Z</time></trkpt><trkpt lat="40.6600051" lon="9.3530732"><ele>592.0</ele><time>2026-04-13T13:38:52.594Z</time></trkpt><trkpt lat="40.6600567" lon="9.3531494"><ele>592.0</ele><time>2026-04-13T13:38:53.606Z</time></trkpt><trkpt lat="40.6601078" lon="9.3532266"><ele>592.0</ele><time>2026-04-13T13:38:54.595Z</time></trkpt><trkpt lat="40.6601519" lon="9.353309"><ele>592.0</ele><time>2026-04-13T13:38:55.588Z</time></trkpt><trkpt lat="40.6601928" lon="9.3533918"><ele>592.8000000000001</ele><time>2026-04-13T13:38:56.585Z</time></trkpt><trkpt lat="40.6602309" lon="9.3534725"><ele>593.6</ele><time>2026-04-13T13:38:57.608Z</time></trkpt><trkpt lat="40.660268" lon="9.3535465"><ele>594.4000000000001</ele><time>2026-04-13T13:38:58.609Z</time></trkpt><trkpt lat="40.6603398" lon="9.353669"><ele>595.2</ele><time>2026-04-13T13:39:00.587Z</time></trkpt><trkpt lat="40.6604417" lon="9.353768"><ele>596.0</ele><time>2026-04-13T13:39:02.59Z</time></trkpt><trkpt lat="40.6605027" lon="9.3538074"><ele>594.0</ele><time>2026-04-13T13:39:03.583Z</time></trkpt><trkpt lat="40.6605636" lon="9.3538352"><ele>592.0</ele><time>2026-04-13T13:39:04.578Z</time></trkpt><trkpt lat="40.6606268" lon="9.3538623"><ele>590.0</ele><time>2026-04-13T13:39:05.578Z</time></trkpt><trkpt lat="40.6607426" lon="9.3538942"><ele>588.0</ele><time>2026-04-13T13:39:07.578Z</time></trkpt><trkpt lat="40.6608685" lon="9.3539277"><ele>586.0</ele><time>2026-04-13T13:39:09.589Z</time></trkpt><trkpt lat="40.6609319" lon="9.353937"><ele>584.0</ele><time>2026-04-13T13:39:10.572Z</time></trkpt><trkpt lat="40.6610532" lon="9.3539392"><ele>582.3333333333333</ele><time>2026-04-13T13:39:12.587Z</time></trkpt><trkpt lat="40.6611721" lon="9.3539475"><ele>580.6666666666666</ele><time>2026-04-13T13:39:14.567Z</time></trkpt><trkpt lat="40.6612359" lon="9.3539565"><ele>579.0</ele><time>2026-04-13T13:39:15.585Z</time></trkpt><trkpt lat="40.661308" lon="9.3539836"><ele>577.3333333333334</ele><time>2026-04-13T13:39:16.593Z</time></trkpt><trkpt lat="40.6613766" lon="9.3540177"><ele>575.6666666666667</ele><time>2026-04-13T13:39:17.572Z</time></trkpt><trkpt lat="40.6614451" lon="9.3540573"><ele>574.0</ele><time>2026-04-13T13:39:18.595Z</time></trkpt><trkpt lat="40.661517" lon="9.3541017"><ele>574.0</ele><time>2026-04-13T13:39:19.571Z</time></trkpt><trkpt lat="40.6615865" lon="9.3541493"><ele>574.0</ele><time>2026-04-13T13:39:20.568Z</time></trkpt><trkpt lat="40.6616525" lon="9.3541848"><ele>574.0</ele><time>2026-04-13T13:39:21.589Z</time></trkpt><trkpt lat="40.6617148" lon="9.3542119"><ele>574.0</ele><time>2026-04-13T13:39:22.586Z</time></trkpt><trkpt lat="40.6618355" lon="9.3542367"><ele>574.0</ele><time>2026-04-13T13:39:24.577Z</time></trkpt><trkpt lat="40.6619523" lon="9.3542452"><ele>571.3333333333334</ele><time>2026-04-13T13:39:26.569Z</time></trkpt><trkpt lat="40.6620786" lon="9.3542798"><ele>568.6666666666667</ele><time>2026-04-13T13:39:28.578Z</time></trkpt><trkpt lat="40.6621432" lon="9.3543049"><ele>566.0</ele><time>2026-04-13T13:39:29.575Z</time></trkpt><trkpt lat="40.6622105" lon="9.3543273"><ele>563.3333333333334</ele><time>2026-04-13T13:39:30.575Z</time></trkpt><trkpt lat="40.6622798" lon="9.3543461"><ele>560.6666666666666</ele><time>2026-04-13T13:39:31.573Z</time></trkpt><trkpt lat="40.6623496" lon="9.3543643"><ele>558.0</ele><time>2026-04-13T13:39:32.57Z</time></trkpt><trkpt lat="40.6624193" lon="9.3543896"><ele>557.9999999999999</ele><time>2026-04-13T13:39:33.593Z</time></trkpt><trkpt lat="40.662486" lon="9.3544246"><ele>558.0</ele><time>2026-04-13T13:39:34.575Z</time></trkpt><trkpt lat="40.6625494" lon="9.3544593"><ele>558.0</ele><time>2026-04-13T13:39:35.57Z</time></trkpt><trkpt lat="40.6626147" lon="9.3544961"><ele>558.0</ele><time>2026-04-13T13:39:36.584Z</time></trkpt><trkpt lat="40.6626751" lon="9.3545235"><ele>558.0</ele><time>2026-04-13T13:39:37.599Z</time></trkpt><trkpt lat="40.6627354" lon="9.3545478"><ele>557.9999999999999</ele><time>2026-04-13T13:39:38.568Z</time></trkpt><trkpt lat="40.662799" lon="9.3545656"><ele>558.0</ele><time>2026-04-13T13:39:39.572Z</time></trkpt><trkpt lat="40.6628659" lon="9.3545834"><ele>557.2857142857142</ele><time>2026-04-13T13:39:40.576Z</time></trkpt><trkpt lat="40.6629349" lon="9.3546127"><ele>556.5714285714286</ele><time>2026-04-13T13:39:41.586Z</time></trkpt><trkpt lat="40.6629947" lon="9.3546557"><ele>555.8571428571429</ele><time>2026-04-13T13:39:42.573Z</time></trkpt><trkpt lat="40.6630504" lon="9.3547103"><ele>555.1428571428571</ele><time>2026-04-13T13:39:43.601Z</time></trkpt><trkpt lat="40.663108" lon="9.3547699"><ele>554.4285714285714</ele><time>2026-04-13T13:39:44.584Z</time></trkpt><trkpt lat="40.6631666" lon="9.3548257"><ele>553.7142857142857</ele><time>2026-04-13T13:39:45.588Z</time></trkpt><trkpt lat="40.6632237" lon="9.3548751"><ele>553.0</ele><time>2026-04-13T13:39:46.578Z</time></trkpt><trkpt lat="40.6633269" lon="9.3549585"><ele>552.6</ele><time>2026-04-13T13:39:48.584Z</time></trkpt><trkpt lat="40.6634395" lon="9.354977"><ele>552.1999999999999</ele><time>2026-04-13T13:39:50.592Z</time></trkpt><trkpt lat="40.6635613" lon="9.3550364"><ele>551.8</ele><time>2026-04-13T13:39:52.577Z</time></trkpt><trkpt lat="40.6636226" lon="9.3550876"><ele>551.4</ele><time>2026-04-13T13:39:53.594Z</time></trkpt><trkpt lat="40.6636819" lon="9.3551431"><ele>551.0</ele><time>2026-04-13T13:39:54.595Z</time></trkpt><trkpt lat="40.6637356" lon="9.3551899"><ele>550.5714285714286</ele><time>2026-04-13T13:39:55.583Z</time></trkpt><trkpt lat="40.6637917" lon="9.355237"><ele>550.1428571428571</ele><time>2026-04-13T13:39:56.583Z</time></trkpt><trkpt lat="40.6638454" lon="9.3552856"><ele>549.7142857142858</ele><time>2026-04-13T13:39:57.593Z</time></trkpt><trkpt lat="40.6639009" lon="9.3553412"><ele>549.2857142857142</ele><time>2026-04-13T13:39:58.576Z</time></trkpt><trkpt lat="40.6639563" lon="9.3554011"><ele>548.8571428571429</ele><time>2026-04-13T13:39:59.585Z</time></trkpt><trkpt lat="40.664011" lon="9.3554698"><ele>548.4285714285714</ele><time>2026-04-13T13:40:00.584Z</time></trkpt><trkpt lat="40.6640657" lon="9.3555344"><ele>548.0</ele><time>2026-04-13T13:40:01.576Z</time></trkpt><trkpt lat="40.6641127" lon="9.3556009"><ele>547.1666666666666</ele><time>2026-04-13T13:40:02.579Z</time></trkpt><trkpt lat="40.6641579" lon="9.3556624"><ele>546.3333333333333</ele><time>2026-04-13T13:40:03.581Z</time></trkpt><trkpt lat="40.6642034" lon="9.3557301"><ele>545.5</ele><time>2026-04-13T13:40:04.576Z</time></trkpt><trkpt lat="40.664251" lon="9.3558038"><ele>544.6666666666666</ele><time>2026-04-13T13:40:05.587Z</time></trkpt><trkpt lat="40.6642965" lon="9.3558729"><ele>543.8333333333334</ele><time>2026-04-13T13:40:06.575Z</time></trkpt><trkpt lat="40.664376" lon="9.3559768"><ele>543.0</ele><time>2026-04-13T13:40:08.57Z</time></trkpt><trkpt lat="40.6644335" lon="9.3560416"><ele>542.3333333333334</ele><time>2026-04-13T13:40:10.559Z</time></trkpt><trkpt lat="40.6644892" lon="9.3561051"><ele>541.6666666666666</ele><time>2026-04-13T13:40:12.572Z</time></trkpt><trkpt lat="40.664548" lon="9.3561799"><ele>541.0</ele><time>2026-04-13T13:40:14.575Z</time></trkpt><trkpt lat="40.6645969" lon="9.3562552"><ele>540.3333333333333</ele><time>2026-04-13T13:40:16.571Z</time></trkpt><trkpt lat="40.6646573" lon="9.3563075"><ele>539.6666666666666</ele><time>2026-04-13T13:40:18.574Z</time></trkpt><trkpt lat="40.6647337" lon="9.3563428"><ele>539.0</ele><time>2026-04-13T13:40:20.562Z</time></trkpt><trkpt lat="40.6648345" lon="9.3563772"><ele>538.6666666666666</ele><time>2026-04-13T13:40:22.576Z</time></trkpt><trkpt lat="40.6648955" lon="9.3564208"><ele>538.3333333333333</ele><time>2026-04-13T13:40:23.564Z</time></trkpt><trkpt lat="40.6649573" lon="9.3564899"><ele>538.0</ele><time>2026-04-13T13:40:24.578Z</time></trkpt><trkpt lat="40.6650143" lon="9.3565779"><ele>537.6666666666666</ele><time>2026-04-13T13:40:25.575Z</time></trkpt><trkpt lat="40.6650609" lon="9.3566702"><ele>537.3333333333334</ele><time>2026-04-13T13:40:26.588Z</time></trkpt><trkpt lat="40.6651089" lon="9.3567467"><ele>537.0</ele><time>2026-04-13T13:40:27.591Z</time></trkpt><trkpt lat="40.6651584" lon="9.3567998"><ele>537.0</ele><time>2026-04-13T13:40:28.581Z</time></trkpt><trkpt lat="40.6652186" lon="9.3568399"><ele>537.0</ele><time>2026-04-13T13:40:29.579Z</time></trkpt><trkpt lat="40.6652846" lon="9.3568752"><ele>537.0</ele><time>2026-04-13T13:40:30.573Z</time></trkpt><trkpt lat="40.6653585" lon="9.3569032"><ele>537.0</ele><time>2026-04-13T13:40:31.578Z</time></trkpt><trkpt lat="40.665442" lon="9.3569266"><ele>537.0</ele><time>2026-04-13T13:40:32.576Z</time></trkpt><trkpt lat="40.6655289" lon="9.356954"><ele>537.0</ele><time>2026-04-13T13:40:33.573Z</time></trkpt><trkpt lat="40.6656163" lon="9.3569894"><ele>536.8333333333334</ele><time>2026-04-13T13:40:34.578Z</time></trkpt><trkpt lat="40.6656993" lon="9.357026"><ele>536.6666666666666</ele><time>2026-04-13T13:40:35.577Z</time></trkpt><trkpt lat="40.6657783" lon="9.3570655"><ele>536.5</ele><time>2026-04-13T13:40:36.584Z</time></trkpt><trkpt lat="40.6658532" lon="9.3571072"><ele>536.3333333333333</ele><time>2026-04-13T13:40:37.578Z</time></trkpt><trkpt lat="40.6659343" lon="9.3571571"><ele>536.1666666666666</ele><time>2026-04-13T13:40:38.575Z</time></trkpt><trkpt lat="40.6660242" lon="9.3572183"><ele>536.0</ele><time>2026-04-13T13:40:39.578Z</time></trkpt><trkpt lat="40.6661089" lon="9.3572817"><ele>536.1666666666666</ele><time>2026-04-13T13:40:40.587Z</time></trkpt><trkpt lat="40.6661888" lon="9.3573454"><ele>536.3333333333333</ele><time>2026-04-13T13:40:41.581Z</time></trkpt><trkpt lat="40.666265" lon="9.3574077"><ele>536.5</ele><time>2026-04-13T13:40:42.58Z</time></trkpt><trkpt lat="40.6663415" lon="9.357466"><ele>536.6666666666666</ele><time>2026-04-13T13:40:43.59Z</time></trkpt><trkpt lat="40.6664185" lon="9.3575161"><ele>536.8333333333334</ele><time>2026-04-13T13:40:44.584Z</time></trkpt><trkpt lat="40.6664958" lon="9.3575636"><ele>537.0</ele><time>2026-04-13T13:40:45.603Z</time></trkpt><trkpt lat="40.666563" lon="9.3575989"><ele>537.0</ele><time>2026-04-13T13:40:46.59Z</time></trkpt><trkpt lat="40.6666224" lon="9.3576309"><ele>537.0</ele><time>2026-04-13T13:40:47.599Z</time></trkpt><trkpt lat="40.6667438" lon="9.3577533"><ele>537.0</ele><time>2026-04-13T13:40:49.585Z</time></trkpt><trkpt lat="40.6668177" lon="9.3578325"><ele>537.0</ele><time>2026-04-13T13:40:50.585Z</time></trkpt><trkpt lat="40.6668823" lon="9.3578993"><ele>537.0</ele><time>2026-04-13T13:40:51.59Z</time></trkpt><trkpt lat="40.6669442" lon="9.3579438"><ele>536.7142857142857</ele><time>2026-04-13T13:40:52.59Z</time></trkpt><trkpt lat="40.667006" lon="9.3579697"><ele>536.4285714285714</ele><time>2026-04-13T13:40:53.6Z</time></trkpt><trkpt lat="40.6670746" lon="9.3579771"><ele>536.1428571428571</ele><time>2026-04-13T13:40:54.584Z</time></trkpt><trkpt lat="40.6671496" lon="9.3579743"><ele>535.8571428571429</ele><time>2026-04-13T13:40:55.596Z</time></trkpt><trkpt lat="40.6672259" lon="9.3579742"><ele>535.5714285714286</ele><time>2026-04-13T13:40:56.589Z</time></trkpt><trkpt lat="40.6672977" lon="9.3579838"><ele>535.2857142857142</ele><time>2026-04-13T13:40:57.588Z</time></trkpt><trkpt lat="40.667364" lon="9.3580045"><ele>535.0</ele><time>2026-04-13T13:40:58.593Z</time></trkpt><trkpt lat="40.6674328" lon="9.358037"><ele>535.0</ele><time>2026-04-13T13:40:59.589Z</time></trkpt><trkpt lat="40.6675011" lon="9.3580772"><ele>535.0</ele><time>2026-04-13T13:41:00.594Z</time></trkpt><trkpt lat="40.6675631" lon="9.3581235"><ele>535.0</ele><time>2026-04-13T13:41:01.596Z</time></trkpt><trkpt lat="40.6676173" lon="9.3581713"><ele>535.0</ele><time>2026-04-13T13:41:02.599Z</time></trkpt><trkpt lat="40.667667" lon="9.3582254"><ele>535.0</ele><time>2026-04-13T13:41:03.596Z</time></trkpt><trkpt lat="40.6677182" lon="9.3582826"><ele>535.0</ele><time>2026-04-13T13:41:04.613Z</time></trkpt><trkpt lat="40.667775" lon="9.3583372"><ele>535.0</ele><time>2026-04-13T13:41:05.621Z</time></trkpt><trkpt lat="40.6678362" lon="9.3583951"><ele>536.3333333333334</ele><time>2026-04-13T13:41:06.6Z</time></trkpt><trkpt lat="40.6678963" lon="9.3584516"><ele>537.6666666666667</ele><time>2026-04-13T13:41:07.597Z</time></trkpt><trkpt lat="40.6679602" lon="9.3585086"><ele>539.0</ele><time>2026-04-13T13:41:08.614Z</time></trkpt><trkpt lat="40.6680338" lon="9.3585647"><ele>540.3333333333334</ele><time>2026-04-13T13:41:09.599Z</time></trkpt><trkpt lat="40.6681033" lon="9.3586143"><ele>541.6666666666666</ele><time>2026-04-13T13:41:10.597Z</time></trkpt><trkpt lat="40.6681709" lon="9.3586644"><ele>543.0</ele><time>2026-04-13T13:41:11.609Z</time></trkpt><trkpt lat="40.6682385" lon="9.3587034"><ele>543.0</ele><time>2026-04-13T13:41:12.599Z</time></trkpt><trkpt lat="40.6683029" lon="9.3587331"><ele>543.0</ele><time>2026-04-13T13:41:13.608Z</time></trkpt><trkpt lat="40.6683687" lon="9.3587469"><ele>543.0</ele><time>2026-04-13T13:41:14.606Z</time></trkpt><trkpt lat="40.6684323" lon="9.3587546"><ele>543.0</ele><time>2026-04-13T13:41:15.612Z</time></trkpt><trkpt lat="40.668498" lon="9.3587597"><ele>543.0</ele><time>2026-04-13T13:41:16.61Z</time></trkpt><trkpt lat="40.6685644" lon="9.358766"><ele>543.0</ele><time>2026-04-13T13:41:17.616Z</time></trkpt><trkpt lat="40.6686321" lon="9.3587866"><ele>543.0</ele><time>2026-04-13T13:41:18.608Z</time></trkpt><trkpt lat="40.6687025" lon="9.3588279"><ele>543.7142857142858</ele><time>2026-04-13T13:41:19.622Z</time></trkpt><trkpt lat="40.6687739" lon="9.358875"><ele>544.4285714285714</ele><time>2026-04-13T13:41:20.619Z</time></trkpt><trkpt lat="40.6688506" lon="9.3589058"><ele>545.1428571428571</ele><time>2026-04-13T13:41:21.614Z</time></trkpt><trkpt lat="40.6689236" lon="9.3589157"><ele>545.8571428571429</ele><time>2026-04-13T13:41:22.615Z</time></trkpt><trkpt lat="40.668995" lon="9.3589282"><ele>546.5714285714286</ele><time>2026-04-13T13:41:23.618Z</time></trkpt><trkpt lat="40.6690589" lon="9.3589601"><ele>547.2857142857143</ele><time>2026-04-13T13:41:24.613Z</time></trkpt><trkpt lat="40.6691208" lon="9.3590126"><ele>548.0</ele><time>2026-04-13T13:41:25.606Z</time></trkpt><trkpt lat="40.6691713" lon="9.3590842"><ele>548.0000000000001</ele><time>2026-04-13T13:41:26.611Z</time></trkpt><trkpt lat="40.6692147" lon="9.3591757"><ele>548.0</ele><time>2026-04-13T13:41:27.62Z</time></trkpt><trkpt lat="40.6692554" lon="9.3592618"><ele>548.0</ele><time>2026-04-13T13:41:28.612Z</time></trkpt><trkpt lat="40.6692919" lon="9.3593399"><ele>548.0</ele><time>2026-04-13T13:41:29.614Z</time></trkpt><trkpt lat="40.6693251" lon="9.3594126"><ele>548.0</ele><time>2026-04-13T13:41:30.623Z</time></trkpt><trkpt lat="40.6693628" lon="9.3594916"><ele>548.0000000000001</ele><time>2026-04-13T13:41:31.623Z</time></trkpt><trkpt lat="40.6693985" lon="9.3595777"><ele>548.0</ele><time>2026-04-13T13:41:32.605Z</time></trkpt><trkpt lat="40.6694391" lon="9.3596671"><ele>549.3333333333333</ele><time>2026-04-13T13:41:33.616Z</time></trkpt><trkpt lat="40.6694728" lon="9.3597549"><ele>550.6666666666666</ele><time>2026-04-13T13:41:34.623Z</time></trkpt><trkpt lat="40.6695002" lon="9.3598444"><ele>552.0</ele><time>2026-04-13T13:41:35.616Z</time></trkpt><trkpt lat="40.6695224" lon="9.3599367"><ele>553.3333333333334</ele><time>2026-04-13T13:41:36.607Z</time></trkpt><trkpt lat="40.6695416" lon="9.3600338"><ele>554.6666666666667</ele><time>2026-04-13T13:41:37.603Z</time></trkpt><trkpt lat="40.6695543" lon="9.3601402"><ele>556.0</ele><time>2026-04-13T13:41:38.607Z</time></trkpt><trkpt lat="40.6695696" lon="9.3602457"><ele>556.0</ele><time>2026-04-13T13:41:39.609Z</time></trkpt><trkpt lat="40.6695884" lon="9.3603399"><ele>556.0</ele><time>2026-04-13T13:41:40.618Z</time></trkpt><trkpt lat="40.6696455" lon="9.3604839"><ele>556.0</ele><time>2026-04-13T13:41:42.645Z</time></trkpt><trkpt lat="40.6697193" lon="9.360608"><ele>556.0</ele><time>2026-04-13T13:41:44.619Z</time></trkpt><trkpt lat="40.6698033" lon="9.3607282"><ele>556.0</ele><time>2026-04-13T13:41:46.616Z</time></trkpt><trkpt lat="40.6698488" lon="9.3607988"><ele>554.8571428571429</ele><time>2026-04-13T13:41:47.639Z</time></trkpt><trkpt lat="40.6698926" lon="9.3608715"><ele>553.7142857142858</ele><time>2026-04-13T13:41:48.626Z</time></trkpt><trkpt lat="40.6699378" lon="9.3609456"><ele>552.5714285714287</ele><time>2026-04-13T13:41:49.636Z</time></trkpt><trkpt lat="40.6699854" lon="9.3610191"><ele>551.4285714285714</ele><time>2026-04-13T13:41:50.623Z</time></trkpt><trkpt lat="40.6700328" lon="9.3610923"><ele>550.2857142857143</ele><time>2026-04-13T13:41:51.613Z</time></trkpt><trkpt lat="40.6700826" lon="9.3611703"><ele>549.1428571428572</ele><time>2026-04-13T13:41:52.621Z</time></trkpt><trkpt lat="40.6701324" lon="9.3612459"><ele>548.0</ele><time>2026-04-13T13:41:53.616Z</time></trkpt><trkpt lat="40.6701858" lon="9.3613181"><ele>548.5714285714287</ele><time>2026-04-13T13:41:54.614Z</time></trkpt><trkpt lat="40.6702336" lon="9.3613922"><ele>549.1428571428571</ele><time>2026-04-13T13:41:55.609Z</time></trkpt><trkpt lat="40.6702814" lon="9.361465"><ele>549.7142857142858</ele><time>2026-04-13T13:41:56.605Z</time></trkpt><trkpt lat="40.6703311" lon="9.3615382"><ele>550.2857142857143</ele><time>2026-04-13T13:41:57.605Z</time></trkpt><trkpt lat="40.670381" lon="9.3616083"><ele>550.8571428571429</ele><time>2026-04-13T13:41:58.611Z</time></trkpt><trkpt lat="40.6704276" lon="9.3616804"><ele>551.4285714285714</ele><time>2026-04-13T13:41:59.618Z</time></trkpt><trkpt lat="40.6704756" lon="9.3617481"><ele>552.0</ele><time>2026-04-13T13:42:00.608Z</time></trkpt><trkpt lat="40.6705238" lon="9.3618105"><ele>552.0</ele><time>2026-04-13T13:42:01.64Z</time></trkpt><trkpt lat="40.6705724" lon="9.3618641"><ele>552.0</ele><time>2026-04-13T13:42:02.609Z</time></trkpt><trkpt lat="40.6706332" lon="9.3619095"><ele>552.0</ele><time>2026-04-13T13:42:03.613Z</time></trkpt><trkpt lat="40.6706993" lon="9.361947"><ele>552.0</ele><time>2026-04-13T13:42:04.643Z</time></trkpt><trkpt lat="40.670768" lon="9.3619795"><ele>552.0</ele><time>2026-04-13T13:42:05.632Z</time></trkpt><trkpt lat="40.6708353" lon="9.3620052"><ele>552.0</ele><time>2026-04-13T13:42:06.636Z</time></trkpt><trkpt lat="40.6709072" lon="9.3620158"><ele>552.0</ele><time>2026-04-13T13:42:07.619Z</time></trkpt><trkpt lat="40.6709788" lon="9.3620151"><ele>552.0</ele><time>2026-04-13T13:42:08.62Z</time></trkpt><trkpt lat="40.6710477" lon="9.3620146"><ele>552.0</ele><time>2026-04-13T13:42:09.614Z</time></trkpt><trkpt lat="40.6711122" lon="9.3620188"><ele>552.0</ele><time>2026-04-13T13:42:10.613Z</time></trkpt><trkpt lat="40.6712082" lon="9.3620565"><ele>552.0</ele><time>2026-04-13T13:42:12.627Z</time></trkpt><trkpt lat="40.6712662" lon="9.362164"><ele>552.0</ele><time>2026-04-13T13:42:14.622Z</time></trkpt><trkpt lat="40.6713159" lon="9.3623101"><ele>552.8333333333334</ele><time>2026-04-13T13:42:16.621Z</time></trkpt><trkpt lat="40.6713433" lon="9.362402"><ele>553.6666666666666</ele><time>2026-04-13T13:42:17.627Z</time></trkpt><trkpt lat="40.6713671" lon="9.3625012"><ele>554.5</ele><time>2026-04-13T13:42:18.619Z</time></trkpt><trkpt lat="40.6713928" lon="9.3626004"><ele>555.3333333333333</ele><time>2026-04-13T13:42:19.625Z</time></trkpt><trkpt lat="40.6714204" lon="9.3626992"><ele>556.1666666666666</ele><time>2026-04-13T13:42:20.622Z</time></trkpt><trkpt lat="40.6714478" lon="9.3627896"><ele>557.0</ele><time>2026-04-13T13:42:21.639Z</time></trkpt><trkpt lat="40.6714788" lon="9.3628643"><ele>557.0</ele><time>2026-04-13T13:42:22.629Z</time></trkpt><trkpt lat="40.6715203" lon="9.3629342"><ele>557.0</ele><time>2026-04-13T13:42:23.627Z</time></trkpt><trkpt lat="40.671571" lon="9.3630011"><ele>557.0</ele><time>2026-04-13T13:42:24.635Z</time></trkpt><trkpt lat="40.6716245" lon="9.3630691"><ele>557.0</ele><time>2026-04-13T13:42:25.629Z</time></trkpt><trkpt lat="40.6716742" lon="9.3631319"><ele>557.0</ele><time>2026-04-13T13:42:26.629Z</time></trkpt><trkpt lat="40.6717239" lon="9.3631884"><ele>557.0</ele><time>2026-04-13T13:42:27.63Z</time></trkpt><trkpt lat="40.6717725" lon="9.3632433"><ele>557.0</ele><time>2026-04-13T13:42:28.63Z</time></trkpt><trkpt lat="40.6718264" lon="9.363296"><ele>556.7142857142858</ele><time>2026-04-13T13:42:29.622Z</time></trkpt><trkpt lat="40.6718813" lon="9.3633526"><ele>556.4285714285714</ele><time>2026-04-13T13:42:30.641Z</time></trkpt><trkpt lat="40.6719405" lon="9.3634103"><ele>556.1428571428571</ele><time>2026-04-13T13:42:31.622Z</time></trkpt><trkpt lat="40.6720022" lon="9.3634663"><ele>555.8571428571429</ele><time>2026-04-13T13:42:32.625Z</time></trkpt><trkpt lat="40.672067" lon="9.3635254"><ele>555.5714285714286</ele><time>2026-04-13T13:42:33.625Z</time></trkpt><trkpt lat="40.6721285" lon="9.3635812"><ele>555.2857142857143</ele><time>2026-04-13T13:42:34.626Z</time></trkpt><trkpt lat="40.6721824" lon="9.3636336"><ele>555.0</ele><time>2026-04-13T13:42:35.623Z</time></trkpt><trkpt lat="40.6722781" lon="9.3637256"><ele>555.0</ele><time>2026-04-13T13:42:37.644Z</time></trkpt><trkpt lat="40.6723686" lon="9.3638244"><ele>555.0</ele><time>2026-04-13T13:42:39.624Z</time></trkpt><trkpt lat="40.6724683" lon="9.3640305"><ele>555.0</ele><time>2026-04-13T13:42:42.624Z</time></trkpt><trkpt lat="40.6724916" lon="9.3641082"><ele>555.0</ele><time>2026-04-13T13:42:43.63Z</time></trkpt><trkpt lat="40.6725566" lon="9.364232"><ele>555.3333333333334</ele><time>2026-04-13T13:42:45.626Z</time></trkpt><trkpt lat="40.6726291" lon="9.3643422"><ele>555.6666666666666</ele><time>2026-04-13T13:42:47.634Z</time></trkpt><trkpt lat="40.6726763" lon="9.3643994"><ele>556.0</ele><time>2026-04-13T13:42:48.63Z</time></trkpt><trkpt lat="40.672735" lon="9.3644614"><ele>556.3333333333333</ele><time>2026-04-13T13:42:49.629Z</time></trkpt><trkpt lat="40.6727949" lon="9.3645335"><ele>556.6666666666666</ele><time>2026-04-13T13:42:50.633Z</time></trkpt><trkpt lat="40.6728525" lon="9.3645972"><ele>557.0</ele><time>2026-04-13T13:42:51.628Z</time></trkpt><trkpt lat="40.6729163" lon="9.3646559"><ele>556.8333333333333</ele><time>2026-04-13T13:42:52.621Z</time></trkpt><trkpt lat="40.6729845" lon="9.3647048"><ele>556.6666666666666</ele><time>2026-04-13T13:42:53.632Z</time></trkpt><trkpt lat="40.6730491" lon="9.3647419"><ele>556.5</ele><time>2026-04-13T13:42:54.629Z</time></trkpt><trkpt lat="40.6731555" lon="9.3648278"><ele>556.3333333333334</ele><time>2026-04-13T13:42:56.525Z</time></trkpt><trkpt lat="40.6732143" lon="9.364872"><ele>556.1666666666667</ele><time>2026-04-13T13:42:57.54Z</time></trkpt><trkpt lat="40.6732826" lon="9.3649064"><ele>556.0</ele><time>2026-04-13T13:42:58.53Z</time></trkpt><trkpt lat="40.6733563" lon="9.3649429"><ele>556.0</ele><time>2026-04-13T13:42:59.529Z</time></trkpt><trkpt lat="40.6734291" lon="9.3649843"><ele>556.0</ele><time>2026-04-13T13:43:00.532Z</time></trkpt><trkpt lat="40.6735005" lon="9.3650355"><ele>556.0</ele><time>2026-04-13T13:43:01.537Z</time></trkpt><trkpt lat="40.6735713" lon="9.3650912"><ele>556.0</ele><time>2026-04-13T13:43:02.537Z</time></trkpt><trkpt lat="40.6736396" lon="9.3651366"><ele>556.0</ele><time>2026-04-13T13:43:03.528Z</time></trkpt><trkpt lat="40.67371" lon="9.3651675"><ele>556.0</ele><time>2026-04-13T13:43:04.541Z</time></trkpt><trkpt lat="40.6737832" lon="9.3651888"><ele>556.3333333333334</ele><time>2026-04-13T13:43:05.539Z</time></trkpt><trkpt lat="40.6738611" lon="9.3652061"><ele>556.6666666666667</ele><time>2026-04-13T13:43:06.568Z</time></trkpt><trkpt lat="40.6739383" lon="9.3652269"><ele>557.0</ele><time>2026-04-13T13:43:07.558Z</time></trkpt><trkpt lat="40.6740126" lon="9.3652462"><ele>557.3333333333334</ele><time>2026-04-13T13:43:08.547Z</time></trkpt><trkpt lat="40.6740848" lon="9.3652639"><ele>557.6666666666666</ele><time>2026-04-13T13:43:09.548Z</time></trkpt><trkpt lat="40.6741623" lon="9.3652795"><ele>558.0</ele><time>2026-04-13T13:43:10.538Z</time></trkpt><trkpt lat="40.6742383" lon="9.3652969"><ele>558.0</ele><time>2026-04-13T13:43:11.536Z</time></trkpt><trkpt lat="40.6743128" lon="9.3653132"><ele>558.0</ele><time>2026-04-13T13:43:12.544Z</time></trkpt><trkpt lat="40.6743819" lon="9.3653265"><ele>558.0</ele><time>2026-04-13T13:43:13.539Z</time></trkpt><trkpt lat="40.6744449" lon="9.3653297"><ele>558.0</ele><time>2026-04-13T13:43:14.553Z</time></trkpt><trkpt lat="40.6745441" lon="9.3653078"><ele>558.0</ele><time>2026-04-13T13:43:16.536Z</time></trkpt><trkpt lat="40.6746282" lon="9.3652249"><ele>558.0</ele><time>2026-04-13T13:43:18.546Z</time></trkpt><trkpt lat="40.6746665" lon="9.3651498"><ele>558.2857142857142</ele><time>2026-04-13T13:43:19.542Z</time></trkpt><trkpt lat="40.6747049" lon="9.3650587"><ele>558.5714285714286</ele><time>2026-04-13T13:43:20.547Z</time></trkpt><trkpt lat="40.674744" lon="9.3649654"><ele>558.8571428571429</ele><time>2026-04-13T13:43:21.56Z</time></trkpt><trkpt lat="40.6747701" lon="9.3648756"><ele>559.1428571428571</ele><time>2026-04-13T13:43:22.563Z</time></trkpt><trkpt lat="40.6747853" lon="9.3647949"><ele>559.4285714285714</ele><time>2026-04-13T13:43:23.542Z</time></trkpt><trkpt lat="40.6748057" lon="9.3647119"><ele>559.7142857142857</ele><time>2026-04-13T13:43:24.543Z</time></trkpt><trkpt lat="40.6748294" lon="9.3646232"><ele>560.0</ele><time>2026-04-13T13:43:25.55Z</time></trkpt><trkpt lat="40.6748539" lon="9.3645326"><ele>561.0</ele><time>2026-04-13T13:43:26.541Z</time></trkpt><trkpt lat="40.6748843" lon="9.3644443"><ele>562.0</ele><time>2026-04-13T13:43:27.546Z</time></trkpt><trkpt lat="40.6749163" lon="9.3643596"><ele>563.0</ele><time>2026-04-13T13:43:28.546Z</time></trkpt><trkpt lat="40.6749593" lon="9.3642771"><ele>564.0</ele><time>2026-04-13T13:43:29.546Z</time></trkpt><trkpt lat="40.675008" lon="9.3641995"><ele>565.0</ele><time>2026-04-13T13:43:30.556Z</time></trkpt><trkpt lat="40.675057" lon="9.3641276"><ele>566.0</ele><time>2026-04-13T13:43:31.563Z</time></trkpt><trkpt lat="40.6751065" lon="9.3640618"><ele>567.0</ele><time>2026-04-13T13:43:32.552Z</time></trkpt><trkpt lat="40.6751521" lon="9.3640017"><ele>567.0</ele><time>2026-04-13T13:43:33.555Z</time></trkpt><trkpt lat="40.6752286" lon="9.3639195"><ele>567.0</ele><time>2026-04-13T13:43:35.57Z</time></trkpt><trkpt lat="40.6753222" lon="9.3639477"><ele>567.0</ele><time>2026-04-13T13:43:38.556Z</time></trkpt><trkpt lat="40.6754039" lon="9.3640375"><ele>567.0</ele><time>2026-04-13T13:43:40.555Z</time></trkpt><trkpt lat="40.6754649" lon="9.3640936"><ele>567.0</ele><time>2026-04-13T13:43:41.558Z</time></trkpt><trkpt lat="40.6755383" lon="9.3641546"><ele>565.6</ele><time>2026-04-13T13:43:42.558Z</time></trkpt><trkpt lat="40.6756206" lon="9.3642202"><ele>564.2</ele><time>2026-04-13T13:43:43.555Z</time></trkpt><trkpt lat="40.6757034" lon="9.3642937"><ele>562.8</ele><time>2026-04-13T13:43:44.559Z</time></trkpt><trkpt lat="40.6757785" lon="9.3643693"><ele>561.4</ele><time>2026-04-13T13:43:45.561Z</time></trkpt><trkpt lat="40.6758557" lon="9.3644506"><ele>560.0</ele><time>2026-04-13T13:43:46.569Z</time></trkpt><trkpt lat="40.6759343" lon="9.3645374"><ele>560.0</ele><time>2026-04-13T13:43:47.567Z</time></trkpt><trkpt lat="40.67601" lon="9.3646284"><ele>560.0</ele><time>2026-04-13T13:43:48.56Z</time></trkpt><trkpt lat="40.6760843" lon="9.364721"><ele>560.0</ele><time>2026-04-13T13:43:49.568Z</time></trkpt><trkpt lat="40.6761611" lon="9.3648065"><ele>560.0</ele><time>2026-04-13T13:43:50.563Z</time></trkpt><trkpt lat="40.6762354" lon="9.364887"><ele>560.0</ele><time>2026-04-13T13:43:51.558Z</time></trkpt><trkpt lat="40.6763093" lon="9.3649655"><ele>559.2</ele><time>2026-04-13T13:43:52.566Z</time></trkpt><trkpt lat="40.6763881" lon="9.365037"><ele>558.4</ele><time>2026-04-13T13:43:53.56Z</time></trkpt><trkpt lat="40.6764706" lon="9.3651031"><ele>557.6</ele><time>2026-04-13T13:43:54.563Z</time></trkpt><trkpt lat="40.6765585" lon="9.3651695"><ele>556.8</ele><time>2026-04-13T13:43:55.578Z</time></trkpt><trkpt lat="40.6766454" lon="9.3652332"><ele>556.0</ele><time>2026-04-13T13:43:56.56Z</time></trkpt><trkpt lat="40.6767296" lon="9.3652958"><ele>556.0</ele><time>2026-04-13T13:43:57.555Z</time></trkpt><trkpt lat="40.6768045" lon="9.365353"><ele>556.0</ele><time>2026-04-13T13:43:58.563Z</time></trkpt><trkpt lat="40.676868" lon="9.3654028"><ele>556.0</ele><time>2026-04-13T13:43:59.558Z</time></trkpt><trkpt lat="40.6769145" lon="9.3654591"><ele>556.0</ele><time>2026-04-13T13:44:00.586Z</time></trkpt><trkpt lat="40.6769691" lon="9.3656143"><ele>556.0</ele><time>2026-04-13T13:44:02.562Z</time></trkpt><trkpt lat="40.6769916" lon="9.3657166"><ele>556.0</ele><time>2026-04-13T13:44:03.567Z</time></trkpt><trkpt lat="40.6770163" lon="9.3658287"><ele>555.8</ele><time>2026-04-13T13:44:04.553Z</time></trkpt><trkpt lat="40.6770417" lon="9.3659388"><ele>555.6</ele><time>2026-04-13T13:44:05.558Z</time></trkpt><trkpt lat="40.6770662" lon="9.3660391"><ele>555.4</ele><time>2026-04-13T13:44:06.55Z</time></trkpt><trkpt lat="40.6770823" lon="9.3661289"><ele>555.2</ele><time>2026-04-13T13:44:07.562Z</time></trkpt><trkpt lat="40.6771175" lon="9.3662774"><ele>555.0</ele><time>2026-04-13T13:44:09.581Z</time></trkpt><trkpt lat="40.6771992" lon="9.36641"><ele>555.0000000000001</ele><time>2026-04-13T13:44:11.553Z</time></trkpt><trkpt lat="40.6772496" lon="9.3664812"><ele>555.0</ele><time>2026-04-13T13:44:12.554Z</time></trkpt><trkpt lat="40.6773006" lon="9.3665523"><ele>555.0</ele><time>2026-04-13T13:44:13.55Z</time></trkpt><trkpt lat="40.6773495" lon="9.366627"><ele>555.0</ele><time>2026-04-13T13:44:14.543Z</time></trkpt><trkpt lat="40.6773904" lon="9.3667017"><ele>555.0</ele><time>2026-04-13T13:44:15.54Z</time></trkpt><trkpt lat="40.6774291" lon="9.3667826"><ele>555.0000000000001</ele><time>2026-04-13T13:44:16.541Z</time></trkpt><trkpt lat="40.6774664" lon="9.3668687"><ele>555.0</ele><time>2026-04-13T13:44:17.558Z</time></trkpt><trkpt lat="40.677497" lon="9.3669519"><ele>555.0000000000001</ele><time>2026-04-13T13:44:18.538Z</time></trkpt><trkpt lat="40.6775162" lon="9.367036"><ele>555.0</ele><time>2026-04-13T13:44:19.54Z</time></trkpt><trkpt lat="40.6775212" lon="9.3671269"><ele>555.0</ele><time>2026-04-13T13:44:20.542Z</time></trkpt><trkpt lat="40.6775238" lon="9.3672145"><ele>555.0</ele><time>2026-04-13T13:44:21.539Z</time></trkpt><trkpt lat="40.677527" lon="9.3673012"><ele>555.0</ele><time>2026-04-13T13:44:22.552Z</time></trkpt><trkpt lat="40.6775337" lon="9.3673849"><ele>555.0000000000001</ele><time>2026-04-13T13:44:23.538Z</time></trkpt><trkpt lat="40.6775482" lon="9.3674741"><ele>555.0</ele><time>2026-04-13T13:44:24.545Z</time></trkpt><trkpt lat="40.6775618" lon="9.3675639"><ele>554.6</ele><time>2026-04-13T13:44:25.557Z</time></trkpt><trkpt lat="40.6775734" lon="9.3676517"><ele>554.2</ele><time>2026-04-13T13:44:26.55Z</time></trkpt><trkpt lat="40.677603" lon="9.3677995"><ele>553.8</ele><time>2026-04-13T13:44:28.556Z</time></trkpt><trkpt lat="40.6776623" lon="9.3678841"><ele>553.4</ele><time>2026-04-13T13:44:30.561Z</time></trkpt><trkpt lat="40.6777482" lon="9.3679786"><ele>553.0</ele><time>2026-04-13T13:44:32.56Z</time></trkpt><trkpt lat="40.6778007" lon="9.3681035"><ele>553.0</ele><time>2026-04-13T13:44:34.546Z</time></trkpt><trkpt lat="40.6778328" lon="9.3682436"><ele>553.0</ele><time>2026-04-13T13:44:36.557Z</time></trkpt><trkpt lat="40.6778685" lon="9.3683139"><ele>553.0</ele><time>2026-04-13T13:44:37.554Z</time></trkpt><trkpt lat="40.6779158" lon="9.368401"><ele>553.0</ele><time>2026-04-13T13:44:38.565Z</time></trkpt><trkpt lat="40.67796" lon="9.3685002"><ele>553.0</ele><time>2026-04-13T13:44:39.551Z</time></trkpt><trkpt lat="40.6780051" lon="9.3686011"><ele>553.0</ele><time>2026-04-13T13:44:40.613Z</time></trkpt><trkpt lat="40.6780497" lon="9.3686965"><ele>553.0</ele><time>2026-04-13T13:44:41.564Z</time></trkpt><trkpt lat="40.6780851" lon="9.3687909"><ele>553.0</ele><time>2026-04-13T13:44:42.559Z</time></trkpt><trkpt lat="40.6781149" lon="9.368888"><ele>553.0</ele><time>2026-04-13T13:44:43.557Z</time></trkpt><trkpt lat="40.6781405" lon="9.368986"><ele>553.0</ele><time>2026-04-13T13:44:44.556Z</time></trkpt><trkpt lat="40.6781572" lon="9.3690879"><ele>553.0</ele><time>2026-04-13T13:44:45.556Z</time></trkpt><trkpt lat="40.6781772" lon="9.3692017"><ele>553.0</ele><time>2026-04-13T13:44:46.561Z</time></trkpt><trkpt lat="40.6782032" lon="9.3693174"><ele>552.4</ele><time>2026-04-13T13:44:47.586Z</time></trkpt><trkpt lat="40.6782307" lon="9.3694275"><ele>551.8</ele><time>2026-04-13T13:44:48.559Z</time></trkpt><trkpt lat="40.6782634" lon="9.3695446"><ele>551.2</ele><time>2026-04-13T13:44:49.562Z</time></trkpt><trkpt lat="40.6783019" lon="9.3696697"><ele>550.6</ele><time>2026-04-13T13:44:50.572Z</time></trkpt><trkpt lat="40.678342" lon="9.3697919"><ele>550.0</ele><time>2026-04-13T13:44:51.57Z</time></trkpt><trkpt lat="40.6783778" lon="9.3699016"><ele>549.8333333333334</ele><time>2026-04-13T13:44:52.588Z</time></trkpt><trkpt lat="40.6784087" lon="9.3700049"><ele>549.6666666666667</ele><time>2026-04-13T13:44:53.572Z</time></trkpt><trkpt lat="40.6784431" lon="9.3701099"><ele>549.5</ele><time>2026-04-13T13:44:54.582Z</time></trkpt><trkpt lat="40.6784658" lon="9.3702166"><ele>549.3333333333334</ele><time>2026-04-13T13:44:55.565Z</time></trkpt><trkpt lat="40.6784758" lon="9.3703308"><ele>549.1666666666666</ele><time>2026-04-13T13:44:56.577Z</time></trkpt><trkpt lat="40.6784787" lon="9.3704441"><ele>549.0</ele><time>2026-04-13T13:44:57.574Z</time></trkpt><trkpt lat="40.6784893" lon="9.3705544"><ele>549.0</ele><time>2026-04-13T13:44:58.574Z</time></trkpt><trkpt lat="40.6785087" lon="9.3706622"><ele>549.0</ele><time>2026-04-13T13:44:59.568Z</time></trkpt><trkpt lat="40.6785355" lon="9.370764"><ele>549.0</ele><time>2026-04-13T13:45:00.564Z</time></trkpt><trkpt lat="40.6785648" lon="9.3708584"><ele>549.0</ele><time>2026-04-13T13:45:01.586Z</time></trkpt><trkpt lat="40.6785968" lon="9.3709482"><ele>549.0</ele><time>2026-04-13T13:45:02.591Z</time></trkpt><trkpt lat="40.6786251" lon="9.3710303"><ele>549.0</ele><time>2026-04-13T13:45:03.568Z</time></trkpt><trkpt lat="40.6786481" lon="9.3711137"><ele>549.0</ele><time>2026-04-13T13:45:04.57Z</time></trkpt><trkpt lat="40.6786682" lon="9.3712002"><ele>549.0</ele><time>2026-04-13T13:45:05.572Z</time></trkpt><trkpt lat="40.6786771" lon="9.3712826"><ele>549.0</ele><time>2026-04-13T13:45:06.574Z</time></trkpt><trkpt lat="40.6786545" lon="9.3714202"><ele>549.0</ele><time>2026-04-13T13:45:08.609Z</time></trkpt><trkpt lat="40.678577" lon="9.371534"><ele>549.0</ele><time>2026-04-13T13:45:10.575Z</time></trkpt><trkpt lat="40.6785237" lon="9.3715906"><ele>549.0</ele><time>2026-04-13T13:45:11.579Z</time></trkpt><trkpt lat="40.6784647" lon="9.3716557"><ele>549.0</ele><time>2026-04-13T13:45:12.58Z</time></trkpt><trkpt lat="40.6784098" lon="9.3717222"><ele>549.0</ele><time>2026-04-13T13:45:13.603Z</time></trkpt><trkpt lat="40.6783599" lon="9.3717815"><ele>549.0</ele><time>2026-04-13T13:45:14.586Z</time></trkpt><trkpt lat="40.6783156" lon="9.3718474"><ele>549.0</ele><time>2026-04-13T13:45:15.591Z</time></trkpt><trkpt lat="40.6782725" lon="9.3720024"><ele>549.0</ele><time>2026-04-13T13:45:17.581Z</time></trkpt><trkpt lat="40.6782404" lon="9.3720755"><ele>549.0</ele><time>2026-04-13T13:45:18.587Z</time></trkpt><trkpt lat="40.6781964" lon="9.3721403"><ele>549.1666666666666</ele><time>2026-04-13T13:45:19.588Z</time></trkpt><trkpt lat="40.6781443" lon="9.3722077"><ele>549.3333333333334</ele><time>2026-04-13T13:45:20.585Z</time></trkpt><trkpt lat="40.6780875" lon="9.3722785"><ele>549.5</ele><time>2026-04-13T13:45:21.603Z</time></trkpt><trkpt lat="40.6780311" lon="9.3723481"><ele>549.6666666666667</ele><time>2026-04-13T13:45:22.584Z</time></trkpt><trkpt lat="40.6779607" lon="9.3724502"><ele>549.8333333333334</ele><time>2026-04-13T13:45:24.605Z</time></trkpt><trkpt lat="40.6779399" lon="9.3725627"><ele>550.0</ele><time>2026-04-13T13:45:26.585Z</time></trkpt><trkpt lat="40.677961" lon="9.3727234"><ele>550.0</ele><time>2026-04-13T13:45:28.59Z</time></trkpt><trkpt lat="40.6779869" lon="9.3728098"><ele>550.0</ele><time>2026-04-13T13:45:29.598Z</time></trkpt><trkpt lat="40.6780129" lon="9.3728888"><ele>550.0</ele><time>2026-04-13T13:45:30.601Z</time></trkpt><trkpt lat="40.6780567" lon="9.3730105"><ele>550.0</ele><time>2026-04-13T13:45:32.621Z</time></trkpt><trkpt lat="40.6780894" lon="9.3731183"><ele>550.0</ele><time>2026-04-13T13:45:34.598Z</time></trkpt><trkpt lat="40.67813" lon="9.3732204"><ele>550.0</ele><time>2026-04-13T13:45:36.596Z</time></trkpt><trkpt lat="40.678188" lon="9.3733258"><ele>549.3333333333334</ele><time>2026-04-13T13:45:38.615Z</time></trkpt><trkpt lat="40.6782303" lon="9.3734022"><ele>548.6666666666667</ele><time>2026-04-13T13:45:39.613Z</time></trkpt><trkpt lat="40.6782714" lon="9.373492"><ele>548.0</ele><time>2026-04-13T13:45:40.596Z</time></trkpt><trkpt lat="40.6783123" lon="9.373589"><ele>547.3333333333334</ele><time>2026-04-13T13:45:41.602Z</time></trkpt><trkpt lat="40.6783532" lon="9.3736948"><ele>546.6666666666666</ele><time>2026-04-13T13:45:42.597Z</time></trkpt><trkpt lat="40.6783913" lon="9.3738001"><ele>546.0</ele><time>2026-04-13T13:45:43.616Z</time></trkpt><trkpt lat="40.6784263" lon="9.3739038"><ele>546.0</ele><time>2026-04-13T13:45:44.623Z</time></trkpt><trkpt lat="40.6784599" lon="9.3739945"><ele>546.0</ele><time>2026-04-13T13:45:45.605Z</time></trkpt><trkpt lat="40.6784917" lon="9.3740773"><ele>546.0</ele><time>2026-04-13T13:45:46.615Z</time></trkpt><trkpt lat="40.6785219" lon="9.374158"><ele>546.0</ele><time>2026-04-13T13:45:47.611Z</time></trkpt><trkpt lat="40.6785505" lon="9.3742415"><ele>546.0</ele><time>2026-04-13T13:45:48.608Z</time></trkpt><trkpt lat="40.6785754" lon="9.3743253"><ele>546.0</ele><time>2026-04-13T13:45:49.609Z</time></trkpt><trkpt lat="40.678601" lon="9.3744037"><ele>546.0</ele><time>2026-04-13T13:45:50.605Z</time></trkpt><trkpt lat="40.678679" lon="9.3744919"><ele>545.8</ele><time>2026-04-13T13:45:52.604Z</time></trkpt><trkpt lat="40.6787384" lon="9.3745282"><ele>545.6</ele><time>2026-04-13T13:45:53.626Z</time></trkpt><trkpt lat="40.6788224" lon="9.3746004"><ele>545.4</ele><time>2026-04-13T13:45:55.631Z</time></trkpt><trkpt lat="40.6788693" lon="9.3747016"><ele>545.2</ele><time>2026-04-13T13:45:57.606Z</time></trkpt><trkpt lat="40.6788868" lon="9.3748436"><ele>545.0</ele><time>2026-04-13T13:45:59.619Z</time></trkpt><trkpt lat="40.6789121" lon="9.3750061"><ele>545.0</ele><time>2026-04-13T13:46:01.615Z</time></trkpt><trkpt lat="40.6789455" lon="9.3751033"><ele>545.0</ele><time>2026-04-13T13:46:02.606Z</time></trkpt><trkpt lat="40.6789886" lon="9.3752098"><ele>545.0</ele><time>2026-04-13T13:46:03.61Z</time></trkpt><trkpt lat="40.6790359" lon="9.37532"><ele>545.0</ele><time>2026-04-13T13:46:04.608Z</time></trkpt><trkpt lat="40.6790855" lon="9.3754386"><ele>545.0</ele><time>2026-04-13T13:46:05.63Z</time></trkpt><trkpt lat="40.6791387" lon="9.3755535"><ele>545.8333333333333</ele><time>2026-04-13T13:46:06.609Z</time></trkpt><trkpt lat="40.6791911" lon="9.3756682"><ele>546.6666666666666</ele><time>2026-04-13T13:46:07.617Z</time></trkpt><trkpt lat="40.6792366" lon="9.3757774"><ele>547.5</ele><time>2026-04-13T13:46:08.623Z</time></trkpt><trkpt lat="40.6792747" lon="9.3758795"><ele>548.3333333333334</ele><time>2026-04-13T13:46:09.613Z</time></trkpt><trkpt lat="40.6793092" lon="9.3759749"><ele>549.1666666666667</ele><time>2026-04-13T13:46:10.619Z</time></trkpt><trkpt lat="40.6793419" lon="9.3760675"><ele>550.0</ele><time>2026-04-13T13:46:11.615Z</time></trkpt><trkpt lat="40.6793705" lon="9.3761552"><ele>550.0</ele><time>2026-04-13T13:46:12.617Z</time></trkpt><trkpt lat="40.6794134" lon="9.3762843"><ele>550.0</ele><time>2026-04-13T13:46:14.642Z</time></trkpt><trkpt lat="40.679457" lon="9.3763597"><ele>550.0</ele><time>2026-04-13T13:46:30.635Z</time></trkpt><trkpt lat="40.6794423" lon="9.376479"><ele>550.0</ele><time>2026-04-13T13:46:32.639Z</time></trkpt><trkpt lat="40.6794239" lon="9.3765739"><ele>550.0</ele><time>2026-04-13T13:46:33.634Z</time></trkpt><trkpt lat="40.6794074" lon="9.3766861"><ele>550.0</ele><time>2026-04-13T13:46:34.623Z</time></trkpt><trkpt lat="40.6793942" lon="9.3768195"><ele>552.3333333333334</ele><time>2026-04-13T13:46:35.654Z</time></trkpt><trkpt lat="40.6793876" lon="9.3769699"><ele>554.6666666666666</ele><time>2026-04-13T13:46:36.628Z</time></trkpt><trkpt lat="40.6793842" lon="9.3771361"><ele>557.0</ele><time>2026-04-13T13:46:37.641Z</time></trkpt><trkpt lat="40.6793707" lon="9.3774909"><ele>557.5</ele><time>2026-04-13T13:46:39.535Z</time></trkpt><trkpt lat="40.6793626" lon="9.3776856"><ele>558.0</ele><time>2026-04-13T13:46:40.525Z</time></trkpt><trkpt lat="40.679354" lon="9.3778806"><ele>558.5</ele><time>2026-04-13T13:46:41.526Z</time></trkpt><trkpt lat="40.6793498" lon="9.378073"><ele>559.0</ele><time>2026-04-13T13:46:42.643Z</time></trkpt><trkpt lat="40.6793441" lon="9.3782491"><ele>559.25</ele><time>2026-04-13T13:46:43.629Z</time></trkpt><trkpt lat="40.6793367" lon="9.3784219"><ele>559.5</ele><time>2026-04-13T13:46:44.627Z</time></trkpt><trkpt lat="40.6793278" lon="9.3785928"><ele>559.75</ele><time>2026-04-13T13:46:45.533Z</time></trkpt><trkpt lat="40.6793228" lon="9.3787709"><ele>560.0</ele><time>2026-04-13T13:46:46.533Z</time></trkpt><trkpt lat="40.6793194" lon="9.3789439"><ele>560.0</ele><time>2026-04-13T13:46:47.529Z</time></trkpt><trkpt lat="40.6793165" lon="9.3791123"><ele>560.0</ele><time>2026-04-13T13:46:48.53Z</time></trkpt><trkpt lat="40.6793184" lon="9.3792857"><ele>560.0</ele><time>2026-04-13T13:46:49.634Z</time></trkpt><trkpt lat="40.6793239" lon="9.3794484"><ele>560.0</ele><time>2026-04-13T13:46:50.628Z</time></trkpt><trkpt lat="40.6793363" lon="9.3796149"><ele>561.6666666666666</ele><time>2026-04-13T13:46:51.63Z</time></trkpt><trkpt lat="40.6793656" lon="9.3799526"><ele>563.3333333333334</ele><time>2026-04-13T13:46:53.629Z</time></trkpt><trkpt lat="40.6793813" lon="9.380127"><ele>565.0</ele><time>2026-04-13T13:46:54.633Z</time></trkpt><trkpt lat="40.679402" lon="9.3803048"><ele>565.0</ele><time>2026-04-13T13:46:55.625Z</time></trkpt><trkpt lat="40.6794241" lon="9.3804836"><ele>565.0</ele><time>2026-04-13T13:46:56.616Z</time></trkpt><trkpt lat="40.6794453" lon="9.3806635"><ele>565.0</ele><time>2026-04-13T13:46:57.628Z</time></trkpt><trkpt lat="40.6794667" lon="9.3808411"><ele>565.0</ele><time>2026-04-13T13:46:58.617Z</time></trkpt><trkpt lat="40.6794888" lon="9.3810197"><ele>565.25</ele><time>2026-04-13T13:46:59.629Z</time></trkpt><trkpt lat="40.6795121" lon="9.381199"><ele>565.5</ele><time>2026-04-13T13:47:00.628Z</time></trkpt><trkpt lat="40.6795366" lon="9.381381"><ele>565.75</ele><time>2026-04-13T13:47:01.615Z</time></trkpt><trkpt lat="40.6795598" lon="9.381563"><ele>566.0</ele><time>2026-04-13T13:47:02.616Z</time></trkpt><trkpt lat="40.6795815" lon="9.381743"><ele>566.0</ele><time>2026-04-13T13:47:03.611Z</time></trkpt><trkpt lat="40.6795998" lon="9.381923"><ele>566.0</ele><time>2026-04-13T13:47:04.609Z</time></trkpt><trkpt lat="40.6796171" lon="9.3821014"><ele>566.0</ele><time>2026-04-13T13:47:05.619Z</time></trkpt><trkpt lat="40.6796373" lon="9.3822755"><ele>566.0</ele><time>2026-04-13T13:47:06.611Z</time></trkpt><trkpt lat="40.6796649" lon="9.3824503"><ele>567.0</ele><time>2026-04-13T13:47:07.609Z</time></trkpt><trkpt lat="40.6797029" lon="9.3826256"><ele>568.0</ele><time>2026-04-13T13:47:08.622Z</time></trkpt><trkpt lat="40.6797493" lon="9.3827982"><ele>569.0</ele><time>2026-04-13T13:47:09.612Z</time></trkpt><trkpt lat="40.6798033" lon="9.3829719"><ele>570.0</ele><time>2026-04-13T13:47:10.625Z</time></trkpt><trkpt lat="40.6798663" lon="9.3831447"><ele>571.0</ele><time>2026-04-13T13:47:11.624Z</time></trkpt><trkpt lat="40.6799375" lon="9.3833201"><ele>572.0</ele><time>2026-04-13T13:47:12.62Z</time></trkpt><trkpt lat="40.6800139" lon="9.3835018"><ele>573.0</ele><time>2026-04-13T13:47:13.617Z</time></trkpt><trkpt lat="40.6800932" lon="9.3836879"><ele>574.3333333333334</ele><time>2026-04-13T13:47:14.616Z</time></trkpt><trkpt lat="40.6801727" lon="9.3838757"><ele>575.6666666666667</ele><time>2026-04-13T13:47:15.619Z</time></trkpt><trkpt lat="40.680253" lon="9.3840642"><ele>577.0</ele><time>2026-04-13T13:47:16.616Z</time></trkpt><trkpt lat="40.6803352" lon="9.3842532"><ele>578.0</ele><time>2026-04-13T13:47:17.618Z</time></trkpt><trkpt lat="40.6804176" lon="9.3844452"><ele>579.0</ele><time>2026-04-13T13:47:18.614Z</time></trkpt><trkpt lat="40.680501" lon="9.3846365"><ele>580.0</ele><time>2026-04-13T13:47:19.619Z</time></trkpt><trkpt lat="40.6805843" lon="9.3848303"><ele>580.0</ele><time>2026-04-13T13:47:20.621Z</time></trkpt><trkpt lat="40.680671" lon="9.3850279"><ele>580.0</ele><time>2026-04-13T13:47:21.622Z</time></trkpt><trkpt lat="40.6807594" lon="9.3852291"><ele>580.0</ele><time>2026-04-13T13:47:22.618Z</time></trkpt><trkpt lat="40.680846" lon="9.3854283"><ele>580.0</ele><time>2026-04-13T13:47:23.619Z</time></trkpt><trkpt lat="40.6809327" lon="9.3856229"><ele>580.0</ele><time>2026-04-13T13:47:24.614Z</time></trkpt><trkpt lat="40.6810144" lon="9.3858152"><ele>580.0</ele><time>2026-04-13T13:47:25.625Z</time></trkpt><trkpt lat="40.6810925" lon="9.3860003"><ele>580.6666666666667</ele><time>2026-04-13T13:47:26.616Z</time></trkpt><trkpt lat="40.6811703" lon="9.3861797"><ele>581.3333333333334</ele><time>2026-04-13T13:47:27.616Z</time></trkpt><trkpt lat="40.6812453" lon="9.3863506"><ele>582.0</ele><time>2026-04-13T13:47:28.62Z</time></trkpt><trkpt lat="40.6813167" lon="9.3865162"><ele>582.0</ele><time>2026-04-13T13:47:29.615Z</time></trkpt><trkpt lat="40.6813823" lon="9.3866763"><ele>582.0</ele><time>2026-04-13T13:47:30.612Z</time></trkpt><trkpt lat="40.6814436" lon="9.3868253"><ele>582.0</ele><time>2026-04-13T13:47:31.618Z</time></trkpt><trkpt lat="40.6815012" lon="9.3869589"><ele>582.0</ele><time>2026-04-13T13:47:32.629Z</time></trkpt><trkpt lat="40.6815541" lon="9.3870762"><ele>581.8333333333334</ele><time>2026-04-13T13:47:33.619Z</time></trkpt><trkpt lat="40.6816008" lon="9.3871832"><ele>581.6666666666666</ele><time>2026-04-13T13:47:34.623Z</time></trkpt><trkpt lat="40.6816405" lon="9.387275"><ele>581.5</ele><time>2026-04-13T13:47:35.625Z</time></trkpt><trkpt lat="40.6816736" lon="9.3873535"><ele>581.3333333333333</ele><time>2026-04-13T13:47:36.622Z</time></trkpt><trkpt lat="40.6817347" lon="9.3874341"><ele>581.1666666666666</ele><time>2026-04-13T13:47:38.619Z</time></trkpt><trkpt lat="40.681797" lon="9.3874178"><ele>581.0</ele><time>2026-04-13T13:47:40.643Z</time></trkpt><trkpt lat="40.6818577" lon="9.3873438"><ele>581.0</ele><time>2026-04-13T13:47:42.622Z</time></trkpt><trkpt lat="40.6819023" lon="9.387217"><ele>581.0</ele><time>2026-04-13T13:47:44.625Z</time></trkpt><trkpt lat="40.681945" lon="9.3870989"><ele>581.0</ele><time>2026-04-13T13:47:46.626Z</time></trkpt><trkpt lat="40.682004" lon="9.3869925"><ele>581.0</ele><time>2026-04-13T13:47:48.629Z</time></trkpt><trkpt lat="40.6820738" lon="9.386883"><ele>581.0</ele><time>2026-04-13T13:47:50.639Z</time></trkpt><trkpt lat="40.6821297" lon="9.3867807"><ele>582.4</ele><time>2026-04-13T13:47:52.628Z</time></trkpt><trkpt lat="40.6821979" lon="9.3866666"><ele>583.8</ele><time>2026-04-13T13:47:54.64Z</time></trkpt><trkpt lat="40.6822463" lon="9.3865879"><ele>585.1999999999999</ele><time>2026-04-13T13:47:55.631Z</time></trkpt><trkpt lat="40.6822999" lon="9.3865005"><ele>586.6</ele><time>2026-04-13T13:47:56.534Z</time></trkpt><trkpt lat="40.6823574" lon="9.3864014"><ele>588.0</ele><time>2026-04-13T13:47:57.627Z</time></trkpt><trkpt lat="40.682415" lon="9.3863034"><ele>588.8</ele><time>2026-04-13T13:47:58.628Z</time></trkpt><trkpt lat="40.6824751" lon="9.3862003"><ele>589.5999999999999</ele><time>2026-04-13T13:47:59.632Z</time></trkpt><trkpt lat="40.682536" lon="9.3860946"><ele>590.4000000000001</ele><time>2026-04-13T13:48:00.628Z</time></trkpt><trkpt lat="40.6825973" lon="9.3859891"><ele>591.2</ele><time>2026-04-13T13:48:01.633Z</time></trkpt><trkpt lat="40.6826621" lon="9.3858815"><ele>592.0</ele><time>2026-04-13T13:48:02.632Z</time></trkpt><trkpt lat="40.6827878" lon="9.3856661"><ele>594.4</ele><time>2026-04-13T13:48:04.629Z</time></trkpt><trkpt lat="40.6828525" lon="9.3855545"><ele>596.8000000000001</ele><time>2026-04-13T13:48:05.631Z</time></trkpt><trkpt lat="40.6829131" lon="9.3854485"><ele>599.2</ele><time>2026-04-13T13:48:06.624Z</time></trkpt><trkpt lat="40.6829649" lon="9.3853428"><ele>601.6</ele><time>2026-04-13T13:48:07.624Z</time></trkpt><trkpt lat="40.6830066" lon="9.3852365"><ele>604.0</ele><time>2026-04-13T13:48:08.628Z</time></trkpt><trkpt lat="40.6830321" lon="9.3851258"><ele>604.3333333333334</ele><time>2026-04-13T13:48:09.629Z</time></trkpt><trkpt lat="40.6830487" lon="9.3850279"><ele>604.6666666666667</ele><time>2026-04-13T13:48:10.528Z</time></trkpt><trkpt lat="40.6830724" lon="9.3849484"><ele>605.0</ele><time>2026-04-13T13:48:11.656Z</time></trkpt><trkpt lat="40.6831496" lon="9.3849122"><ele>605.3333333333334</ele><time>2026-04-13T13:48:13.627Z</time></trkpt><trkpt lat="40.6832418" lon="9.3849998"><ele>605.6666666666666</ele><time>2026-04-13T13:48:15.63Z</time></trkpt><trkpt lat="40.6832889" lon="9.3850736"><ele>606.0</ele><time>2026-04-13T13:48:16.545Z</time></trkpt><trkpt lat="40.6833454" lon="9.3851478"><ele>606.0</ele><time>2026-04-13T13:48:17.534Z</time></trkpt><trkpt lat="40.6834137" lon="9.3852272"><ele>606.0</ele><time>2026-04-13T13:48:18.534Z</time></trkpt><trkpt lat="40.6834954" lon="9.385309"><ele>606.0</ele><time>2026-04-13T13:48:19.533Z</time></trkpt><trkpt lat="40.6835855" lon="9.3853805"><ele>606.0</ele><time>2026-04-13T13:48:20.541Z</time></trkpt><trkpt lat="40.6836688" lon="9.3854272"><ele>606.0</ele><time>2026-04-13T13:48:21.537Z</time></trkpt><trkpt lat="40.6837471" lon="9.3854567"><ele>608.5</ele><time>2026-04-13T13:48:22.533Z</time></trkpt><trkpt lat="40.6838238" lon="9.3854753"><ele>611.0</ele><time>2026-04-13T13:48:23.55Z</time></trkpt><trkpt lat="40.6839029" lon="9.3854864"><ele>613.5</ele><time>2026-04-13T13:48:24.552Z</time></trkpt><trkpt lat="40.6839833" lon="9.3854961"><ele>616.0</ele><time>2026-04-13T13:48:25.539Z</time></trkpt><trkpt lat="40.684062" lon="9.3854974"><ele>618.5</ele><time>2026-04-13T13:48:26.567Z</time></trkpt><trkpt lat="40.6841342" lon="9.3854897"><ele>621.0</ele><time>2026-04-13T13:48:27.592Z</time></trkpt><trkpt lat="40.6842014" lon="9.3854746"><ele>620.9999999999999</ele><time>2026-04-13T13:48:28.542Z</time></trkpt><trkpt lat="40.6842717" lon="9.3854533"><ele>621.0</ele><time>2026-04-13T13:48:29.557Z</time></trkpt><trkpt lat="40.6843417" lon="9.3854322"><ele>621.0</ele><time>2026-04-13T13:48:30.544Z</time></trkpt><trkpt lat="40.6844109" lon="9.3854137"><ele>621.0</ele><time>2026-04-13T13:48:31.545Z</time></trkpt><trkpt lat="40.6844799" lon="9.385408"><ele>621.0</ele><time>2026-04-13T13:48:32.559Z</time></trkpt><trkpt lat="40.6845465" lon="9.3854188"><ele>620.9999999999999</ele><time>2026-04-13T13:48:33.555Z</time></trkpt><trkpt lat="40.6846155" lon="9.3854451"><ele>621.0</ele><time>2026-04-13T13:48:34.566Z</time></trkpt><trkpt lat="40.6846916" lon="9.3854841"><ele>623.8</ele><time>2026-04-13T13:48:35.543Z</time></trkpt><trkpt lat="40.6847801" lon="9.3855324"><ele>626.6</ele><time>2026-04-13T13:48:36.548Z</time></trkpt><trkpt lat="40.6848787" lon="9.3855841"><ele>629.4</ele><time>2026-04-13T13:48:37.547Z</time></trkpt><trkpt lat="40.6849846" lon="9.3856353"><ele>632.2</ele><time>2026-04-13T13:48:38.561Z</time></trkpt><trkpt lat="40.6850891" lon="9.3856815"><ele>635.0</ele><time>2026-04-13T13:48:39.549Z</time></trkpt><trkpt lat="40.6851803" lon="9.385715"><ele>635.0</ele><time>2026-04-13T13:48:40.567Z</time></trkpt><trkpt lat="40.6852526" lon="9.3857425"><ele>635.0</ele><time>2026-04-13T13:48:41.542Z</time></trkpt><trkpt lat="40.6853214" lon="9.3857753"><ele>635.0</ele><time>2026-04-13T13:48:42.55Z</time></trkpt><trkpt lat="40.6853847" lon="9.3858224"><ele>635.0</ele><time>2026-04-13T13:48:43.551Z</time></trkpt><trkpt lat="40.6854538" lon="9.3858864"><ele>635.0</ele><time>2026-04-13T13:48:44.557Z</time></trkpt><trkpt lat="40.6855222" lon="9.3859629"><ele>635.0</ele><time>2026-04-13T13:48:45.544Z</time></trkpt><trkpt lat="40.6855965" lon="9.3860506"><ele>634.8</ele><time>2026-04-13T13:48:46.559Z</time></trkpt><trkpt lat="40.6856713" lon="9.3861486"><ele>634.6</ele><time>2026-04-13T13:48:47.558Z</time></trkpt><trkpt lat="40.6857458" lon="9.3862497"><ele>634.4</ele><time>2026-04-13T13:48:48.549Z</time></trkpt><trkpt lat="40.6858139" lon="9.3863524"><ele>634.2</ele><time>2026-04-13T13:48:49.548Z</time></trkpt><trkpt lat="40.6858849" lon="9.3864541"><ele>634.0</ele><time>2026-04-13T13:48:50.551Z</time></trkpt><trkpt lat="40.6859597" lon="9.3865584"><ele>634.6</ele><time>2026-04-13T13:48:51.547Z</time></trkpt><trkpt lat="40.6860418" lon="9.386661"><ele>635.2</ele><time>2026-04-13T13:48:52.544Z</time></trkpt><trkpt lat="40.6861286" lon="9.3867562"><ele>635.8000000000001</ele><time>2026-04-13T13:48:53.544Z</time></trkpt><trkpt lat="40.686212" lon="9.3868472"><ele>636.4</ele><time>2026-04-13T13:48:54.55Z</time></trkpt><trkpt lat="40.6862877" lon="9.3869271"><ele>637.0</ele><time>2026-04-13T13:48:55.554Z</time></trkpt><trkpt lat="40.6863673" lon="9.3870171"><ele>634.75</ele><time>2026-04-13T13:48:56.554Z</time></trkpt><trkpt lat="40.6864526" lon="9.3871156"><ele>632.5</ele><time>2026-04-13T13:48:57.556Z</time></trkpt><trkpt lat="40.6865427" lon="9.3872204"><ele>630.25</ele><time>2026-04-13T13:48:58.545Z</time></trkpt><trkpt lat="40.6866415" lon="9.3873324"><ele>628.0</ele><time>2026-04-13T13:48:59.553Z</time></trkpt><trkpt lat="40.6867426" lon="9.3874471"><ele>628.0</ele><time>2026-04-13T13:49:00.552Z</time></trkpt><trkpt lat="40.6868391" lon="9.3875528"><ele>628.0</ele><time>2026-04-13T13:49:01.547Z</time></trkpt><trkpt lat="40.6869288" lon="9.3876527"><ele>628.0</ele><time>2026-04-13T13:49:02.544Z</time></trkpt><trkpt lat="40.6870128" lon="9.3877445"><ele>628.0</ele><time>2026-04-13T13:49:03.552Z</time></trkpt><trkpt lat="40.6870915" lon="9.387834"><ele>627.6</ele><time>2026-04-13T13:49:04.554Z</time></trkpt><trkpt lat="40.6871668" lon="9.3879201"><ele>627.1999999999999</ele><time>2026-04-13T13:49:05.553Z</time></trkpt><trkpt lat="40.687239" lon="9.3880039"><ele>626.8</ele><time>2026-04-13T13:49:06.543Z</time></trkpt><trkpt lat="40.6873148" lon="9.388089"><ele>626.4</ele><time>2026-04-13T13:49:07.551Z</time></trkpt><trkpt lat="40.6873981" lon="9.3881669"><ele>626.0</ele><time>2026-04-13T13:49:08.557Z</time></trkpt><trkpt lat="40.6874941" lon="9.3882338"><ele>626.0</ele><time>2026-04-13T13:49:09.561Z</time></trkpt><trkpt lat="40.6876009" lon="9.3882897"><ele>626.0</ele><time>2026-04-13T13:49:10.548Z</time></trkpt><trkpt lat="40.687716" lon="9.3883495"><ele>626.0</ele><time>2026-04-13T13:49:11.559Z</time></trkpt><trkpt lat="40.6878269" lon="9.3884146"><ele>626.0</ele><time>2026-04-13T13:49:12.545Z</time></trkpt><trkpt lat="40.6879276" lon="9.3884793"><ele>627.5</ele><time>2026-04-13T13:49:13.546Z</time></trkpt><trkpt lat="40.688022" lon="9.3885474"><ele>629.0</ele><time>2026-04-13T13:49:14.55Z</time></trkpt><trkpt lat="40.6881185" lon="9.3886297"><ele>630.5</ele><time>2026-04-13T13:49:15.552Z</time></trkpt><trkpt lat="40.6882158" lon="9.3887229"><ele>632.0</ele><time>2026-04-13T13:49:16.548Z</time></trkpt><trkpt lat="40.6883165" lon="9.3888253"><ele>632.75</ele><time>2026-04-13T13:49:17.554Z</time></trkpt><trkpt lat="40.6884203" lon="9.3889303"><ele>633.5</ele><time>2026-04-13T13:49:18.553Z</time></trkpt><trkpt lat="40.6885314" lon="9.3890328"><ele>634.25</ele><time>2026-04-13T13:49:19.551Z</time></trkpt><trkpt lat="40.6886397" lon="9.3891301"><ele>635.0</ele><time>2026-04-13T13:49:20.546Z</time></trkpt><trkpt lat="40.6887399" lon="9.389216"><ele>635.0</ele><time>2026-04-13T13:49:21.549Z</time></trkpt><trkpt lat="40.6888369" lon="9.3892843"><ele>635.0</ele><time>2026-04-13T13:49:22.556Z</time></trkpt><trkpt lat="40.6889385" lon="9.3893355"><ele>635.0</ele><time>2026-04-13T13:49:23.55Z</time></trkpt><trkpt lat="40.6890392" lon="9.389359"><ele>635.0</ele><time>2026-04-13T13:49:24.553Z</time></trkpt><trkpt lat="40.6891512" lon="9.3893623"><ele>635.0</ele><time>2026-04-13T13:49:25.55Z</time></trkpt><trkpt lat="40.689269" lon="9.3893569"><ele>635.0</ele><time>2026-04-13T13:49:26.55Z</time></trkpt><trkpt lat="40.6893897" lon="9.3893518"><ele>635.0</ele><time>2026-04-13T13:49:27.554Z</time></trkpt><trkpt lat="40.6895079" lon="9.3893546"><ele>635.0</ele><time>2026-04-13T13:49:28.552Z</time></trkpt><trkpt lat="40.6896142" lon="9.3893606"><ele>635.0</ele><time>2026-04-13T13:49:29.555Z</time></trkpt><trkpt lat="40.6897151" lon="9.3893715"><ele>635.0</ele><time>2026-04-13T13:49:30.559Z</time></trkpt><trkpt lat="40.6898109" lon="9.3893863"><ele>634.8333333333333</ele><time>2026-04-13T13:49:31.554Z</time></trkpt><trkpt lat="40.6899039" lon="9.3894035"><ele>634.6666666666666</ele><time>2026-04-13T13:49:32.547Z</time></trkpt><trkpt lat="40.6899974" lon="9.3894222"><ele>634.5</ele><time>2026-04-13T13:49:33.558Z</time></trkpt><trkpt lat="40.6900841" lon="9.3894434"><ele>634.3333333333334</ele><time>2026-04-13T13:49:34.55Z</time></trkpt><trkpt lat="40.6901647" lon="9.3894645"><ele>634.1666666666667</ele><time>2026-04-13T13:49:35.561Z</time></trkpt><trkpt lat="40.6902417" lon="9.3894878"><ele>634.0</ele><time>2026-04-13T13:49:36.559Z</time></trkpt><trkpt lat="40.690318" lon="9.3895134"><ele>634.0</ele><time>2026-04-13T13:49:37.558Z</time></trkpt><trkpt lat="40.6903941" lon="9.3895413"><ele>634.0</ele><time>2026-04-13T13:49:38.572Z</time></trkpt><trkpt lat="40.6904716" lon="9.3895727"><ele>634.0</ele><time>2026-04-13T13:49:39.567Z</time></trkpt><trkpt lat="40.6905556" lon="9.3895973"><ele>634.0</ele><time>2026-04-13T13:49:40.554Z</time></trkpt><trkpt lat="40.6906511" lon="9.3896047"><ele>634.0</ele><time>2026-04-13T13:49:41.571Z</time></trkpt><trkpt lat="40.6907638" lon="9.3895975"><ele>634.0</ele><time>2026-04-13T13:49:42.553Z</time></trkpt><trkpt lat="40.6908846" lon="9.3895832"><ele>634.0</ele><time>2026-04-13T13:49:43.561Z</time></trkpt><trkpt lat="40.6909975" lon="9.3895577"><ele>634.0</ele><time>2026-04-13T13:49:44.559Z</time></trkpt><trkpt lat="40.6910969" lon="9.3895144"><ele>634.0</ele><time>2026-04-13T13:49:45.571Z</time></trkpt><trkpt lat="40.6911826" lon="9.3894577"><ele>634.0</ele><time>2026-04-13T13:49:46.552Z</time></trkpt><trkpt lat="40.6912574" lon="9.3893894"><ele>633.4</ele><time>2026-04-13T13:49:47.551Z</time></trkpt><trkpt lat="40.6913146" lon="9.3893131"><ele>632.8</ele><time>2026-04-13T13:49:48.565Z</time></trkpt><trkpt lat="40.6913675" lon="9.3892191"><ele>632.2</ele><time>2026-04-13T13:49:49.559Z</time></trkpt><trkpt lat="40.6914235" lon="9.3891121"><ele>631.6</ele><time>2026-04-13T13:49:50.555Z</time></trkpt><trkpt lat="40.6914809" lon="9.3889946"><ele>631.0</ele><time>2026-04-13T13:49:51.553Z</time></trkpt><trkpt lat="40.6915302" lon="9.3888597"><ele>630.0</ele><time>2026-04-13T13:49:52.563Z</time></trkpt><trkpt lat="40.6915749" lon="9.3887078"><ele>629.0</ele><time>2026-04-13T13:49:53.566Z</time></trkpt><trkpt lat="40.691612" lon="9.3885537"><ele>628.0</ele><time>2026-04-13T13:49:54.562Z</time></trkpt><trkpt lat="40.6916433" lon="9.3884117"><ele>627.0</ele><time>2026-04-13T13:49:55.557Z</time></trkpt><trkpt lat="40.6916737" lon="9.3882831"><ele>627.0</ele><time>2026-04-13T13:49:56.567Z</time></trkpt><trkpt lat="40.6917016" lon="9.3881639"><ele>627.0</ele><time>2026-04-13T13:49:57.586Z</time></trkpt><trkpt lat="40.6917279" lon="9.3880568"><ele>627.0</ele><time>2026-04-13T13:49:58.56Z</time></trkpt><trkpt lat="40.6917518" lon="9.3879547"><ele>627.0</ele><time>2026-04-13T13:49:59.581Z</time></trkpt><trkpt lat="40.6917705" lon="9.3878669"><ele>627.0</ele><time>2026-04-13T13:50:00.567Z</time></trkpt><trkpt lat="40.6917958" lon="9.3877202"><ele>627.0</ele><time>2026-04-13T13:50:02.561Z</time></trkpt><trkpt lat="40.6918154" lon="9.3876085"><ele>626.5</ele><time>2026-04-13T13:50:04.577Z</time></trkpt><trkpt lat="40.6918781" lon="9.3875312"><ele>626.0</ele><time>2026-04-13T13:50:07.568Z</time></trkpt><trkpt lat="40.6919533" lon="9.3875512"><ele>625.5</ele><time>2026-04-13T13:50:09.578Z</time></trkpt><trkpt lat="40.6920033" lon="9.3876556"><ele>625.0</ele><time>2026-04-13T13:50:11.594Z</time></trkpt><trkpt lat="40.6920196" lon="9.3877474"><ele>624.5</ele><time>2026-04-13T13:50:12.57Z</time></trkpt><trkpt lat="40.6920377" lon="9.3878558"><ele>624.0</ele><time>2026-04-13T13:50:13.578Z</time></trkpt><trkpt lat="40.6920589" lon="9.3879857"><ele>624.6</ele><time>2026-04-13T13:50:14.577Z</time></trkpt><trkpt lat="40.6920884" lon="9.3881364"><ele>625.2</ele><time>2026-04-13T13:50:15.58Z</time></trkpt><trkpt lat="40.6921235" lon="9.3882861"><ele>625.8000000000001</ele><time>2026-04-13T13:50:16.592Z</time></trkpt><trkpt lat="40.692147" lon="9.3884166"><ele>626.4</ele><time>2026-04-13T13:50:17.575Z</time></trkpt><trkpt lat="40.6921612" lon="9.3885469"><ele>627.0</ele><time>2026-04-13T13:50:18.57Z</time></trkpt><trkpt lat="40.6921652" lon="9.3886866"><ele>627.25</ele><time>2026-04-13T13:50:19.581Z</time></trkpt><trkpt lat="40.6921653" lon="9.3888442"><ele>627.5</ele><time>2026-04-13T13:50:20.58Z</time></trkpt><trkpt lat="40.6921683" lon="9.3890142"><ele>627.75</ele><time>2026-04-13T13:50:21.587Z</time></trkpt><trkpt lat="40.6921766" lon="9.3891776"><ele>628.0</ele><time>2026-04-13T13:50:22.575Z</time></trkpt><trkpt lat="40.6921872" lon="9.3893203"><ele>628.0</ele><time>2026-04-13T13:50:23.577Z</time></trkpt><trkpt lat="40.692199" lon="9.3894469"><ele>628.0</ele><time>2026-04-13T13:50:24.578Z</time></trkpt><trkpt lat="40.6922137" lon="9.3895634"><ele>628.0</ele><time>2026-04-13T13:50:25.603Z</time></trkpt><trkpt lat="40.692236" lon="9.3896728"><ele>628.0</ele><time>2026-04-13T13:50:26.587Z</time></trkpt><trkpt lat="40.6922705" lon="9.3897669"><ele>628.0</ele><time>2026-04-13T13:50:27.597Z</time></trkpt><trkpt lat="40.6923133" lon="9.3898484"><ele>628.0</ele><time>2026-04-13T13:50:28.588Z</time></trkpt><trkpt lat="40.6923645" lon="9.3899184"><ele>628.5</ele><time>2026-04-13T13:50:29.602Z</time></trkpt><trkpt lat="40.6924219" lon="9.3899666"><ele>629.0</ele><time>2026-04-13T13:50:30.577Z</time></trkpt><trkpt lat="40.692486" lon="9.3900043"><ele>629.5</ele><time>2026-04-13T13:50:31.574Z</time></trkpt><trkpt lat="40.69256" lon="9.3900435"><ele>630.0</ele><time>2026-04-13T13:50:32.573Z</time></trkpt><trkpt lat="40.6926406" lon="9.390103"><ele>630.5</ele><time>2026-04-13T13:50:33.612Z</time></trkpt><trkpt lat="40.6927259" lon="9.3901789"><ele>631.0</ele><time>2026-04-13T13:50:34.591Z</time></trkpt><trkpt lat="40.6928143" lon="9.3902689"><ele>631.8</ele><time>2026-04-13T13:50:35.581Z</time></trkpt><trkpt lat="40.6928956" lon="9.3903621"><ele>632.6</ele><time>2026-04-13T13:50:36.59Z</time></trkpt><trkpt lat="40.6929636" lon="9.3904513"><ele>633.4</ele><time>2026-04-13T13:50:37.583Z</time></trkpt><trkpt lat="40.6930273" lon="9.3905375"><ele>634.2</ele><time>2026-04-13T13:50:38.577Z</time></trkpt><trkpt lat="40.6930828" lon="9.3906228"><ele>635.0</ele><time>2026-04-13T13:50:39.599Z</time></trkpt><trkpt lat="40.6931369" lon="9.3907178"><ele>636.0</ele><time>2026-04-13T13:50:40.586Z</time></trkpt><trkpt lat="40.6931928" lon="9.390825"><ele>637.0</ele><time>2026-04-13T13:50:41.587Z</time></trkpt><trkpt lat="40.6932486" lon="9.3909415"><ele>638.0</ele><time>2026-04-13T13:50:42.596Z</time></trkpt><trkpt lat="40.6932977" lon="9.3910567"><ele>639.0</ele><time>2026-04-13T13:50:43.581Z</time></trkpt><trkpt lat="40.693337" lon="9.3911725"><ele>640.0</ele><time>2026-04-13T13:50:44.574Z</time></trkpt><trkpt lat="40.6933729" lon="9.3912978"><ele>640.0</ele><time>2026-04-13T13:50:45.581Z</time></trkpt><trkpt lat="40.6934077" lon="9.3914361"><ele>640.0</ele><time>2026-04-13T13:50:46.586Z</time></trkpt><trkpt lat="40.6934432" lon="9.3915822"><ele>640.0</ele><time>2026-04-13T13:50:47.581Z</time></trkpt><trkpt lat="40.6934794" lon="9.3917357"><ele>640.0</ele><time>2026-04-13T13:50:48.587Z</time></trkpt><trkpt lat="40.6935159" lon="9.3918919"><ele>640.0</ele><time>2026-04-13T13:50:49.595Z</time></trkpt><trkpt lat="40.6935554" lon="9.3920436"><ele>640.0</ele><time>2026-04-13T13:50:50.596Z</time></trkpt><trkpt lat="40.6935948" lon="9.3921885"><ele>640.0</ele><time>2026-04-13T13:50:51.581Z</time></trkpt><trkpt lat="40.6936331" lon="9.3923332"><ele>640.0</ele><time>2026-04-13T13:50:52.585Z</time></trkpt><trkpt lat="40.6936688" lon="9.3924714"><ele>639.2</ele><time>2026-04-13T13:50:53.589Z</time></trkpt><trkpt lat="40.6937007" lon="9.3925999"><ele>638.4</ele><time>2026-04-13T13:50:54.584Z</time></trkpt><trkpt lat="40.6937318" lon="9.3927213"><ele>637.6</ele><time>2026-04-13T13:50:55.582Z</time></trkpt><trkpt lat="40.69376" lon="9.3928371"><ele>636.8</ele><time>2026-04-13T13:50:56.584Z</time></trkpt><trkpt lat="40.693787" lon="9.3929487"><ele>636.0</ele><time>2026-04-13T13:50:57.579Z</time></trkpt><trkpt lat="40.6938131" lon="9.3930519"><ele>636.0</ele><time>2026-04-13T13:50:58.591Z</time></trkpt><trkpt lat="40.6938366" lon="9.3931425"><ele>636.0</ele><time>2026-04-13T13:50:59.606Z</time></trkpt><trkpt lat="40.6938626" lon="9.3932225"><ele>636.0</ele><time>2026-04-13T13:51:00.594Z</time></trkpt><trkpt lat="40.6939295" lon="9.3933511"><ele>636.0</ele><time>2026-04-13T13:51:02.579Z</time></trkpt><trkpt lat="40.6940347" lon="9.3934225"><ele>636.0</ele><time>2026-04-13T13:51:04.583Z</time></trkpt><trkpt lat="40.6941087" lon="9.3934261"><ele>636.0</ele><time>2026-04-13T13:51:05.595Z</time></trkpt><trkpt lat="40.694198" lon="9.3934266"><ele>636.0</ele><time>2026-04-13T13:51:06.587Z</time></trkpt><trkpt lat="40.6943015" lon="9.3934069"><ele>636.0</ele><time>2026-04-13T13:51:07.597Z</time></trkpt><trkpt lat="40.6944071" lon="9.3933752"><ele>636.0</ele><time>2026-04-13T13:51:08.588Z</time></trkpt><trkpt lat="40.6945187" lon="9.3933372"><ele>636.0</ele><time>2026-04-13T13:51:09.589Z</time></trkpt><trkpt lat="40.6946306" lon="9.3932945"><ele>636.0</ele><time>2026-04-13T13:51:10.586Z</time></trkpt><trkpt lat="40.6947427" lon="9.3932485"><ele>635.0</ele><time>2026-04-13T13:51:11.593Z</time></trkpt><trkpt lat="40.6948585" lon="9.3932007"><ele>634.0</ele><time>2026-04-13T13:51:12.593Z</time></trkpt><trkpt lat="40.694983" lon="9.3931554"><ele>633.0</ele><time>2026-04-13T13:51:13.605Z</time></trkpt><trkpt lat="40.695113" lon="9.3931092"><ele>632.0</ele><time>2026-04-13T13:51:14.59Z</time></trkpt><trkpt lat="40.6952391" lon="9.393063"><ele>631.8000000000001</ele><time>2026-04-13T13:51:15.597Z</time></trkpt><trkpt lat="40.6953522" lon="9.3930261"><ele>631.6</ele><time>2026-04-13T13:51:16.593Z</time></trkpt><trkpt lat="40.6954557" lon="9.3929958"><ele>631.4000000000001</ele><time>2026-04-13T13:51:17.601Z</time></trkpt><trkpt lat="40.6955582" lon="9.3929722"><ele>631.2</ele><time>2026-04-13T13:51:18.611Z</time></trkpt><trkpt lat="40.6956586" lon="9.3929553"><ele>631.0</ele><time>2026-04-13T13:51:19.607Z</time></trkpt><trkpt lat="40.6957599" lon="9.3929515"><ele>631.8</ele><time>2026-04-13T13:51:20.609Z</time></trkpt><trkpt lat="40.6958671" lon="9.3929584"><ele>632.6</ele><time>2026-04-13T13:51:21.6Z</time></trkpt><trkpt lat="40.6959799" lon="9.3929732"><ele>633.4</ele><time>2026-04-13T13:51:22.599Z</time></trkpt><trkpt lat="40.6960929" lon="9.39299"><ele>634.2</ele><time>2026-04-13T13:51:23.615Z</time></trkpt><trkpt lat="40.6962075" lon="9.3930041"><ele>635.0</ele><time>2026-04-13T13:51:24.611Z</time></trkpt><trkpt lat="40.6963299" lon="9.3930115"><ele>635.0</ele><time>2026-04-13T13:51:25.604Z</time></trkpt><trkpt lat="40.6964601" lon="9.3930151"><ele>635.0</ele><time>2026-04-13T13:51:26.597Z</time></trkpt><trkpt lat="40.6965967" lon="9.39302"><ele>635.0</ele><time>2026-04-13T13:51:27.612Z</time></trkpt><trkpt lat="40.696735" lon="9.3930271"><ele>635.0</ele><time>2026-04-13T13:51:28.619Z</time></trkpt><trkpt lat="40.6968727" lon="9.3930392"><ele>636.75</ele><time>2026-04-13T13:51:29.6Z</time></trkpt><trkpt lat="40.6970065" lon="9.3930595"><ele>638.5</ele><time>2026-04-13T13:51:30.597Z</time></trkpt><trkpt lat="40.6971326" lon="9.3930805"><ele>640.25</ele><time>2026-04-13T13:51:31.602Z</time></trkpt><trkpt lat="40.6972532" lon="9.3931047"><ele>642.0</ele><time>2026-04-13T13:51:32.602Z</time></trkpt><trkpt lat="40.6973708" lon="9.3931246"><ele>642.0</ele><time>2026-04-13T13:51:33.605Z</time></trkpt><trkpt lat="40.6974907" lon="9.3931417"><ele>642.0</ele><time>2026-04-13T13:51:34.606Z</time></trkpt><trkpt lat="40.6976042" lon="9.3931536"><ele>642.0</ele><time>2026-04-13T13:51:35.61Z</time></trkpt><trkpt lat="40.6977098" lon="9.3931618"><ele>642.0</ele><time>2026-04-13T13:51:36.606Z</time></trkpt><trkpt lat="40.6978134" lon="9.3931628"><ele>642.0</ele><time>2026-04-13T13:51:37.615Z</time></trkpt><trkpt lat="40.697917" lon="9.3931498"><ele>643.0</ele><time>2026-04-13T13:51:38.597Z</time></trkpt><trkpt lat="40.6980192" lon="9.393132"><ele>644.0</ele><time>2026-04-13T13:51:39.605Z</time></trkpt><trkpt lat="40.6981084" lon="9.3931183"><ele>645.0</ele><time>2026-04-13T13:51:40.601Z</time></trkpt><trkpt lat="40.6981886" lon="9.393118"><ele>646.0</ele><time>2026-04-13T13:51:41.599Z</time></trkpt><trkpt lat="40.698262" lon="9.3931363"><ele>647.0</ele><time>2026-04-13T13:51:42.604Z</time></trkpt><trkpt lat="40.6983333" lon="9.3931713"><ele>648.0</ele><time>2026-04-13T13:51:43.632Z</time></trkpt><trkpt lat="40.6984033" lon="9.393223"><ele>648.0</ele><time>2026-04-13T13:51:44.606Z</time></trkpt><trkpt lat="40.6984813" lon="9.3932848"><ele>648.0</ele><time>2026-04-13T13:51:45.608Z</time></trkpt><trkpt lat="40.6985704" lon="9.3933529"><ele>648.0</ele><time>2026-04-13T13:51:46.593Z</time></trkpt><trkpt lat="40.6986668" lon="9.3934154"><ele>648.0</ele><time>2026-04-13T13:51:47.595Z</time></trkpt><trkpt lat="40.6987674" lon="9.3934709"><ele>648.0</ele><time>2026-04-13T13:51:48.601Z</time></trkpt><trkpt lat="40.6988687" lon="9.3935216"><ele>648.25</ele><time>2026-04-13T13:51:49.614Z</time></trkpt><trkpt lat="40.6989742" lon="9.393577"><ele>648.5</ele><time>2026-04-13T13:51:50.599Z</time></trkpt><trkpt lat="40.6990902" lon="9.3936361"><ele>648.75</ele><time>2026-04-13T13:51:51.594Z</time></trkpt><trkpt lat="40.6992091" lon="9.3936988"><ele>649.0</ele><time>2026-04-13T13:51:52.604Z</time></trkpt><trkpt lat="40.6993345" lon="9.3937541"><ele>649.5</ele><time>2026-04-13T13:51:53.6Z</time></trkpt><trkpt lat="40.6994684" lon="9.3938135"><ele>650.0</ele><time>2026-04-13T13:51:54.599Z</time></trkpt><trkpt lat="40.699608" lon="9.3938828"><ele>650.5</ele><time>2026-04-13T13:51:55.614Z</time></trkpt><trkpt lat="40.699747" lon="9.3939564"><ele>651.0</ele><time>2026-04-13T13:51:56.593Z</time></trkpt><trkpt lat="40.6998839" lon="9.394028"><ele>651.75</ele><time>2026-04-13T13:51:57.605Z</time></trkpt><trkpt lat="40.7000114" lon="9.3940942"><ele>652.5</ele><time>2026-04-13T13:51:58.599Z</time></trkpt><trkpt lat="40.7001296" lon="9.3941589"><ele>653.25</ele><time>2026-04-13T13:51:59.605Z</time></trkpt><trkpt lat="40.7002423" lon="9.3942229"><ele>654.0</ele><time>2026-04-13T13:52:00.609Z</time></trkpt><trkpt lat="40.7003498" lon="9.3942838"><ele>654.8000000000001</ele><time>2026-04-13T13:52:01.61Z</time></trkpt><trkpt lat="40.7004521" lon="9.3943382"><ele>655.6</ele><time>2026-04-13T13:52:02.619Z</time></trkpt><trkpt lat="40.7005501" lon="9.3943843"><ele>656.4</ele><time>2026-04-13T13:52:03.61Z</time></trkpt><trkpt lat="40.7006573" lon="9.3944245"><ele>657.2</ele><time>2026-04-13T13:52:04.611Z</time></trkpt><trkpt lat="40.7007677" lon="9.3944578"><ele>658.0</ele><time>2026-04-13T13:52:05.612Z</time></trkpt><trkpt lat="40.7008831" lon="9.3944845"><ele>658.0</ele><time>2026-04-13T13:52:06.603Z</time></trkpt><trkpt lat="40.7010102" lon="9.3945026"><ele>658.0</ele><time>2026-04-13T13:52:07.616Z</time></trkpt><trkpt lat="40.701142" lon="9.3945034"><ele>658.0</ele><time>2026-04-13T13:52:08.601Z</time></trkpt><trkpt lat="40.7012802" lon="9.3944967"><ele>658.0</ele><time>2026-04-13T13:52:09.608Z</time></trkpt><trkpt lat="40.7014161" lon="9.3944822"><ele>658.75</ele><time>2026-04-13T13:52:10.603Z</time></trkpt><trkpt lat="40.7015518" lon="9.3944634"><ele>659.5</ele><time>2026-04-13T13:52:11.606Z</time></trkpt><trkpt lat="40.7016808" lon="9.3944379"><ele>660.25</ele><time>2026-04-13T13:52:12.611Z</time></trkpt><trkpt lat="40.7017949" lon="9.3944126"><ele>661.0</ele><time>2026-04-13T13:52:13.618Z</time></trkpt><trkpt lat="40.7018965" lon="9.3943888"><ele>661.4</ele><time>2026-04-13T13:52:14.616Z</time></trkpt><trkpt lat="40.7019839" lon="9.3943588"><ele>661.8</ele><time>2026-04-13T13:52:15.623Z</time></trkpt><trkpt lat="40.7020589" lon="9.3943204"><ele>662.1999999999999</ele><time>2026-04-13T13:52:16.605Z</time></trkpt><trkpt lat="40.702129" lon="9.3942596"><ele>662.5999999999999</ele><time>2026-04-13T13:52:17.617Z</time></trkpt><trkpt lat="40.7021931" lon="9.3941728"><ele>663.0</ele><time>2026-04-13T13:52:18.616Z</time></trkpt><trkpt lat="40.7022638" lon="9.394059"><ele>663.0</ele><time>2026-04-13T13:52:19.616Z</time></trkpt><trkpt lat="40.7023352" lon="9.3939378"><ele>663.0</ele><time>2026-04-13T13:52:20.602Z</time></trkpt><trkpt lat="40.7024037" lon="9.3938323"><ele>663.0</ele><time>2026-04-13T13:52:21.609Z</time></trkpt><trkpt lat="40.7024617" lon="9.393749"><ele>663.0</ele><time>2026-04-13T13:52:22.617Z</time></trkpt><trkpt lat="40.7025119" lon="9.3936856"><ele>663.0</ele><time>2026-04-13T13:52:23.63Z</time></trkpt><trkpt lat="40.7026" lon="9.3936093"><ele>663.0</ele><time>2026-04-13T13:52:25.608Z</time></trkpt><trkpt lat="40.7026775" lon="9.3935646"><ele>663.0</ele><time>2026-04-13T13:52:27.631Z</time></trkpt><trkpt lat="40.7027543" lon="9.3935602"><ele>663.0</ele><time>2026-04-13T13:52:29.618Z</time></trkpt><trkpt lat="40.7028264" lon="9.3936622"><ele>663.0</ele><time>2026-04-13T13:52:31.616Z</time></trkpt><trkpt lat="40.7028606" lon="9.3937586"><ele>663.0</ele><time>2026-04-13T13:52:32.608Z</time></trkpt><trkpt lat="40.7028978" lon="9.3938754"><ele>663.0</ele><time>2026-04-13T13:52:33.617Z</time></trkpt><trkpt lat="40.7029432" lon="9.3940021"><ele>663.0</ele><time>2026-04-13T13:52:34.608Z</time></trkpt><trkpt lat="40.7029936" lon="9.3941412"><ele>663.0</ele><time>2026-04-13T13:52:35.636Z</time></trkpt><trkpt lat="40.7030448" lon="9.3942872"><ele>663.0</ele><time>2026-04-13T13:52:36.615Z</time></trkpt><trkpt lat="40.7031008" lon="9.3944391"><ele>663.0</ele><time>2026-04-13T13:52:37.612Z</time></trkpt><trkpt lat="40.7031617" lon="9.3945978"><ele>663.75</ele><time>2026-04-13T13:52:38.61Z</time></trkpt><trkpt lat="40.7032176" lon="9.3947622"><ele>664.5</ele><time>2026-04-13T13:52:39.631Z</time></trkpt><trkpt lat="40.7032654" lon="9.3949333"><ele>665.25</ele><time>2026-04-13T13:52:40.617Z</time></trkpt><trkpt lat="40.7033077" lon="9.3951103"><ele>666.0</ele><time>2026-04-13T13:52:41.615Z</time></trkpt><trkpt lat="40.7033459" lon="9.3952896"><ele>666.0</ele><time>2026-04-13T13:52:42.624Z</time></trkpt><trkpt lat="40.703383" lon="9.3954728"><ele>666.0</ele><time>2026-04-13T13:52:43.618Z</time></trkpt><trkpt lat="40.7034228" lon="9.3956625"><ele>666.0</ele><time>2026-04-13T13:52:44.613Z</time></trkpt><trkpt lat="40.7034637" lon="9.3958559"><ele>666.0</ele><time>2026-04-13T13:52:45.616Z</time></trkpt><trkpt lat="40.7035012" lon="9.3960506"><ele>667.25</ele><time>2026-04-13T13:52:46.613Z</time></trkpt><trkpt lat="40.7035359" lon="9.3962306"><ele>668.5</ele><time>2026-04-13T13:52:47.623Z</time></trkpt><trkpt lat="40.7035678" lon="9.3963926"><ele>669.75</ele><time>2026-04-13T13:52:48.621Z</time></trkpt><trkpt lat="40.703597" lon="9.3965343"><ele>671.0</ele><time>2026-04-13T13:52:49.626Z</time></trkpt><trkpt lat="40.703625" lon="9.3966528"><ele>672.8333333333333</ele><time>2026-04-13T13:52:50.622Z</time></trkpt><trkpt lat="40.7036489" lon="9.3967411"><ele>674.6666666666666</ele><time>2026-04-13T13:52:51.635Z</time></trkpt><trkpt lat="40.7036734" lon="9.3968656"><ele>676.5</ele><time>2026-04-13T13:52:53.636Z</time></trkpt><trkpt lat="40.703692" lon="9.3969576"><ele>678.3333333333334</ele><time>2026-04-13T13:52:55.627Z</time></trkpt><trkpt lat="40.7037332" lon="9.3970652"><ele>680.1666666666667</ele><time>2026-04-13T13:52:57.625Z</time></trkpt><trkpt lat="40.7037682" lon="9.3971417"><ele>682.0</ele><time>2026-04-13T13:52:58.619Z</time></trkpt><trkpt lat="40.7038121" lon="9.3972313"><ele>682.2</ele><time>2026-04-13T13:52:59.625Z</time></trkpt><trkpt lat="40.7038605" lon="9.3973301"><ele>682.4000000000001</ele><time>2026-04-13T13:53:00.616Z</time></trkpt><trkpt lat="40.7039173" lon="9.3974434"><ele>682.5999999999999</ele><time>2026-04-13T13:53:01.614Z</time></trkpt><trkpt lat="40.7039817" lon="9.3975725"><ele>682.8</ele><time>2026-04-13T13:53:02.619Z</time></trkpt><trkpt lat="40.7040578" lon="9.3977057"><ele>683.0</ele><time>2026-04-13T13:53:03.62Z</time></trkpt><trkpt lat="40.7041401" lon="9.3978448"><ele>683.0</ele><time>2026-04-13T13:53:04.61Z</time></trkpt><trkpt lat="40.7042181" lon="9.3979869"><ele>683.0</ele><time>2026-04-13T13:53:05.609Z</time></trkpt><trkpt lat="40.704296" lon="9.3981335"><ele>683.0</ele><time>2026-04-13T13:53:06.61Z</time></trkpt><trkpt lat="40.7043722" lon="9.3982825"><ele>683.0</ele><time>2026-04-13T13:53:07.623Z</time></trkpt><trkpt lat="40.7044415" lon="9.3984255"><ele>682.5</ele><time>2026-04-13T13:53:08.618Z</time></trkpt><trkpt lat="40.7045075" lon="9.3985641"><ele>682.0</ele><time>2026-04-13T13:53:09.623Z</time></trkpt><trkpt lat="40.7045784" lon="9.3987086"><ele>681.5</ele><time>2026-04-13T13:53:10.611Z</time></trkpt><trkpt lat="40.704658" lon="9.39886"><ele>681.0</ele><time>2026-04-13T13:53:11.609Z</time></trkpt><trkpt lat="40.7047389" lon="9.3990215"><ele>681.0</ele><time>2026-04-13T13:53:12.614Z</time></trkpt><trkpt lat="40.7048217" lon="9.3991884"><ele>681.0</ele><time>2026-04-13T13:53:13.626Z</time></trkpt><trkpt lat="40.7048961" lon="9.3993503"><ele>681.0</ele><time>2026-04-13T13:53:14.629Z</time></trkpt><trkpt lat="40.704965" lon="9.3994989"><ele>681.0</ele><time>2026-04-13T13:53:15.623Z</time></trkpt><trkpt lat="40.7050249" lon="9.3996335"><ele>681.0</ele><time>2026-04-13T13:53:16.614Z</time></trkpt><trkpt lat="40.705082" lon="9.3997648"><ele>681.0</ele><time>2026-04-13T13:53:17.617Z</time></trkpt><trkpt lat="40.705137" lon="9.3998907"><ele>681.0</ele><time>2026-04-13T13:53:18.621Z</time></trkpt><trkpt lat="40.7051839" lon="9.4000068"><ele>681.0</ele><time>2026-04-13T13:53:19.616Z</time></trkpt><trkpt lat="40.7052228" lon="9.4001106"><ele>681.0</ele><time>2026-04-13T13:53:20.632Z</time></trkpt><trkpt lat="40.7052598" lon="9.4001967"><ele>681.0</ele><time>2026-04-13T13:53:21.617Z</time></trkpt><trkpt lat="40.7052985" lon="9.4002623"><ele>681.0</ele><time>2026-04-13T13:53:22.61Z</time></trkpt><trkpt lat="40.7053997" lon="9.4003352"><ele>681.0</ele><time>2026-04-13T13:53:24.616Z</time></trkpt><trkpt lat="40.7054753" lon="9.4003441"><ele>681.0</ele><time>2026-04-13T13:53:25.617Z</time></trkpt><trkpt lat="40.7055737" lon="9.4003438"><ele>681.0</ele><time>2026-04-13T13:53:26.639Z</time></trkpt><trkpt lat="40.7056903" lon="9.4003383"><ele>681.0</ele><time>2026-04-13T13:53:27.611Z</time></trkpt><trkpt lat="40.7058179" lon="9.4003296"><ele>681.0</ele><time>2026-04-13T13:53:28.61Z</time></trkpt><trkpt lat="40.7059488" lon="9.4003175"><ele>681.0</ele><time>2026-04-13T13:53:29.62Z</time></trkpt><trkpt lat="40.7060704" lon="9.4003021"><ele>681.0</ele><time>2026-04-13T13:53:30.607Z</time></trkpt><trkpt lat="40.7061823" lon="9.4002812"><ele>682.25</ele><time>2026-04-13T13:53:31.613Z</time></trkpt><trkpt lat="40.7062883" lon="9.400247"><ele>683.5</ele><time>2026-04-13T13:53:32.613Z</time></trkpt><trkpt lat="40.7064021" lon="9.400193"><ele>684.75</ele><time>2026-04-13T13:53:33.612Z</time></trkpt><trkpt lat="40.7065125" lon="9.4001333"><ele>686.0</ele><time>2026-04-13T13:53:34.616Z</time></trkpt><trkpt lat="40.7066092" lon="9.4000799"><ele>686.0</ele><time>2026-04-13T13:53:35.624Z</time></trkpt><trkpt lat="40.7066999" lon="9.4000456"><ele>686.0</ele><time>2026-04-13T13:53:36.618Z</time></trkpt><trkpt lat="40.7067972" lon="9.4000366"><ele>686.0</ele><time>2026-04-13T13:53:37.63Z</time></trkpt><trkpt lat="40.7068988" lon="9.4000473"><ele>686.0</ele><time>2026-04-13T13:53:38.619Z</time></trkpt><trkpt lat="40.707003" lon="9.4000758"><ele>686.0</ele><time>2026-04-13T13:53:39.625Z</time></trkpt><trkpt lat="40.7071155" lon="9.4001262"><ele>688.0</ele><time>2026-04-13T13:53:40.62Z</time></trkpt><trkpt lat="40.707245" lon="9.4001974"><ele>690.0</ele><time>2026-04-13T13:53:41.619Z</time></trkpt><trkpt lat="40.7073854" lon="9.4002703"><ele>692.0</ele><time>2026-04-13T13:53:42.627Z</time></trkpt><trkpt lat="40.7075246" lon="9.4003401"><ele>694.0</ele><time>2026-04-13T13:53:43.627Z</time></trkpt><trkpt lat="40.7076436" lon="9.4003988"><ele>694.25</ele><time>2026-04-13T13:53:44.627Z</time></trkpt><trkpt lat="40.7077501" lon="9.4004623"><ele>694.5</ele><time>2026-04-13T13:53:45.617Z</time></trkpt><trkpt lat="40.707858" lon="9.4005456"><ele>694.75</ele><time>2026-04-13T13:53:46.617Z</time></trkpt><trkpt lat="40.707982" lon="9.4006429"><ele>695.0</ele><time>2026-04-13T13:53:47.622Z</time></trkpt><trkpt lat="40.7081131" lon="9.400742"><ele>695.0</ele><time>2026-04-13T13:53:48.628Z</time></trkpt><trkpt lat="40.7082445" lon="9.4008395"><ele>695.0</ele><time>2026-04-13T13:53:49.623Z</time></trkpt><trkpt lat="40.7083712" lon="9.4009187"><ele>695.0</ele><time>2026-04-13T13:53:50.625Z</time></trkpt><trkpt lat="40.7085042" lon="9.4009768"><ele>695.0</ele><time>2026-04-13T13:53:51.621Z</time></trkpt><trkpt lat="40.7086439" lon="9.4010279"><ele>698.5</ele><time>2026-04-13T13:53:52.629Z</time></trkpt><trkpt lat="40.7087783" lon="9.4010701"><ele>702.0</ele><time>2026-04-13T13:53:53.627Z</time></trkpt><trkpt lat="40.708901" lon="9.4011119"><ele>705.5</ele><time>2026-04-13T13:53:54.619Z</time></trkpt><trkpt lat="40.7090174" lon="9.4011489"><ele>709.0</ele><time>2026-04-13T13:53:55.622Z</time></trkpt><trkpt lat="40.7091375" lon="9.4011765"><ele>709.0</ele><time>2026-04-13T13:53:56.63Z</time></trkpt><trkpt lat="40.7092576" lon="9.4012073"><ele>709.0</ele><time>2026-04-13T13:53:57.625Z</time></trkpt><trkpt lat="40.7093757" lon="9.4012468"><ele>709.0</ele><time>2026-04-13T13:53:58.621Z</time></trkpt><trkpt lat="40.7094925" lon="9.4012932"><ele>709.0</ele><time>2026-04-13T13:53:59.636Z</time></trkpt><trkpt lat="40.7096134" lon="9.4013328"><ele>710.25</ele><time>2026-04-13T13:54:00.626Z</time></trkpt><trkpt lat="40.7097373" lon="9.4013731"><ele>711.5</ele><time>2026-04-13T13:54:01.615Z</time></trkpt><trkpt lat="40.7098561" lon="9.401425"><ele>712.75</ele><time>2026-04-13T13:54:02.619Z</time></trkpt><trkpt lat="40.7099684" lon="9.4014891"><ele>714.0</ele><time>2026-04-13T13:54:03.623Z</time></trkpt><trkpt lat="40.7100788" lon="9.4015645"><ele>714.0</ele><time>2026-04-13T13:54:04.633Z</time></trkpt><trkpt lat="40.7101891" lon="9.4016437"><ele>714.0</ele><time>2026-04-13T13:54:05.629Z</time></trkpt><trkpt lat="40.7102904" lon="9.4017201"><ele>714.0</ele><time>2026-04-13T13:54:06.628Z</time></trkpt><trkpt lat="40.7103757" lon="9.4017841"><ele>714.0</ele><time>2026-04-13T13:54:07.627Z</time></trkpt><trkpt lat="40.7104638" lon="9.4018416"><ele>714.0</ele><time>2026-04-13T13:54:08.634Z</time></trkpt><trkpt lat="40.7105638" lon="9.4019069"><ele>715.75</ele><time>2026-04-13T13:54:09.622Z</time></trkpt><trkpt lat="40.7106773" lon="9.4019901"><ele>717.5</ele><time>2026-04-13T13:54:10.621Z</time></trkpt><trkpt lat="40.7107994" lon="9.4020982"><ele>719.25</ele><time>2026-04-13T13:54:11.623Z</time></trkpt><trkpt lat="40.7109221" lon="9.4022208"><ele>721.0</ele><time>2026-04-13T13:54:12.618Z</time></trkpt><trkpt lat="40.7110363" lon="9.4023384"><ele>722.25</ele><time>2026-04-13T13:54:13.64Z</time></trkpt><trkpt lat="40.7111453" lon="9.4024399"><ele>723.5</ele><time>2026-04-13T13:54:14.64Z</time></trkpt><trkpt lat="40.7112501" lon="9.4025319"><ele>724.75</ele><time>2026-04-13T13:54:15.621Z</time></trkpt><trkpt lat="40.711353" lon="9.4026142"><ele>726.0</ele><time>2026-04-13T13:54:16.636Z</time></trkpt><trkpt lat="40.7114512" lon="9.4026912"><ele>726.0</ele><time>2026-04-13T13:54:17.632Z</time></trkpt><trkpt lat="40.7115457" lon="9.4027592"><ele>726.0</ele><time>2026-04-13T13:54:18.626Z</time></trkpt><trkpt lat="40.7116344" lon="9.4028167"><ele>726.0</ele><time>2026-04-13T13:54:19.62Z</time></trkpt><trkpt lat="40.7117159" lon="9.4028595"><ele>726.0</ele><time>2026-04-13T13:54:20.621Z</time></trkpt><trkpt lat="40.7117877" lon="9.4028961"><ele>726.0</ele><time>2026-04-13T13:54:21.643Z</time></trkpt><trkpt lat="40.7118535" lon="9.4029107"><ele>726.0</ele><time>2026-04-13T13:54:22.619Z</time></trkpt><trkpt lat="40.7119205" lon="9.4029088"><ele>724.0</ele><time>2026-04-13T13:54:23.638Z</time></trkpt><trkpt lat="40.7120294" lon="9.4028568"><ele>722.0</ele><time>2026-04-13T13:54:25.627Z</time></trkpt><trkpt lat="40.7120766" lon="9.4028011"><ele>720.0</ele><time>2026-04-13T13:54:26.631Z</time></trkpt><trkpt lat="40.7121352" lon="9.4027244"><ele>718.0</ele><time>2026-04-13T13:54:27.609Z</time></trkpt><trkpt lat="40.7122075" lon="9.4026349"><ele>716.0</ele><time>2026-04-13T13:54:28.613Z</time></trkpt><trkpt lat="40.712294" lon="9.4025493"><ele>716.0</ele><time>2026-04-13T13:54:29.609Z</time></trkpt><trkpt lat="40.7123935" lon="9.4024681"><ele>716.0</ele><time>2026-04-13T13:54:30.609Z</time></trkpt><trkpt lat="40.7124939" lon="9.4023895"><ele>716.0</ele><time>2026-04-13T13:54:31.628Z</time></trkpt><trkpt lat="40.712583" lon="9.4023158"><ele>716.0</ele><time>2026-04-13T13:54:32.611Z</time></trkpt><trkpt lat="40.7126632" lon="9.4022471"><ele>716.0</ele><time>2026-04-13T13:54:33.607Z</time></trkpt><trkpt lat="40.7127362" lon="9.402172"><ele>712.0</ele><time>2026-04-13T13:54:34.599Z</time></trkpt><trkpt lat="40.7128129" lon="9.4020685"><ele>708.0</ele><time>2026-04-13T13:54:35.615Z</time></trkpt><trkpt lat="40.7128899" lon="9.4019419"><ele>704.0</ele><time>2026-04-13T13:54:36.619Z</time></trkpt><trkpt lat="40.7129605" lon="9.4018049"><ele>700.0</ele><time>2026-04-13T13:54:37.614Z</time></trkpt><trkpt lat="40.7130227" lon="9.4016685"><ele>700.0</ele><time>2026-04-13T13:54:38.607Z</time></trkpt><trkpt lat="40.7130722" lon="9.4015432"><ele>700.0</ele><time>2026-04-13T13:54:39.607Z</time></trkpt><trkpt lat="40.7131181" lon="9.4014329"><ele>700.0</ele><time>2026-04-13T13:54:40.6Z</time></trkpt><trkpt lat="40.7131694" lon="9.4013329"><ele>700.0</ele><time>2026-04-13T13:54:41.602Z</time></trkpt><trkpt lat="40.7132324" lon="9.4012313"><ele>700.0</ele><time>2026-04-13T13:54:42.283Z</time></trkpt><trkpt lat="40.7133044" lon="9.401129"><ele>700.0</ele><time>2026-04-13T13:54:43.289Z</time></trkpt><trkpt lat="40.713383" lon="9.4010208"><ele>700.0</ele><time>2026-04-13T13:54:44.281Z</time></trkpt><trkpt lat="40.7134632" lon="9.4009022"><ele>700.0</ele><time>2026-04-13T13:54:45.285Z</time></trkpt><trkpt lat="40.7135394" lon="9.4007878"><ele>700.0</ele><time>2026-04-13T13:54:46.278Z</time></trkpt><trkpt lat="40.7136076" lon="9.4006799"><ele>698.8571428571429</ele><time>2026-04-13T13:54:47.277Z</time></trkpt><trkpt lat="40.7136661" lon="9.4005873"><ele>697.7142857142858</ele><time>2026-04-13T13:54:48.286Z</time></trkpt><trkpt lat="40.713707" lon="9.4005143"><ele>696.5714285714286</ele><time>2026-04-13T13:54:49.307Z</time></trkpt><trkpt lat="40.7137459" lon="9.4004347"><ele>695.4285714285714</ele><time>2026-04-13T13:54:51.31Z</time></trkpt><trkpt lat="40.7138221" lon="9.4004513"><ele>694.2857142857143</ele><time>2026-04-13T13:55:34.253Z</time></trkpt><trkpt lat="40.7138913" lon="9.4004486"><ele>693.1428571428571</ele><time>2026-04-13T13:55:36.238Z</time></trkpt><trkpt lat="40.7139549" lon="9.4004356"><ele>692.0</ele><time>2026-04-13T13:55:38.237Z</time></trkpt><trkpt lat="40.7140403" lon="9.4004017"><ele>692.0</ele><time>2026-04-13T13:55:40.233Z</time></trkpt><trkpt lat="40.7141429" lon="9.4003574"><ele>692.0</ele><time>2026-04-13T13:55:42.231Z</time></trkpt><trkpt lat="40.7142193" lon="9.4003344"><ele>692.0</ele><time>2026-04-13T13:55:43.242Z</time></trkpt><trkpt lat="40.7143037" lon="9.4003116"><ele>692.0</ele><time>2026-04-13T13:55:44.247Z</time></trkpt><trkpt lat="40.7143872" lon="9.400292"><ele>692.0</ele><time>2026-04-13T13:55:45.237Z</time></trkpt><trkpt lat="40.714466" lon="9.4002775"><ele>692.0</ele><time>2026-04-13T13:55:46.241Z</time></trkpt><trkpt lat="40.714542" lon="9.4002696"><ele>689.8333333333333</ele><time>2026-04-13T13:55:47.23Z</time></trkpt><trkpt lat="40.7146227" lon="9.400267"><ele>687.6666666666666</ele><time>2026-04-13T13:55:48.233Z</time></trkpt><trkpt lat="40.7147085" lon="9.4002722"><ele>685.5</ele><time>2026-04-13T13:55:49.225Z</time></trkpt><trkpt lat="40.7147966" lon="9.4002797"><ele>683.3333333333334</ele><time>2026-04-13T13:55:50.229Z</time></trkpt><trkpt lat="40.7148801" lon="9.4002889"><ele>681.1666666666667</ele><time>2026-04-13T13:55:51.23Z</time></trkpt><trkpt lat="40.7149592" lon="9.4002966"><ele>679.0</ele><time>2026-04-13T13:55:52.223Z</time></trkpt><trkpt lat="40.7150339" lon="9.4002977"><ele>679.0</ele><time>2026-04-13T13:55:53.223Z</time></trkpt><trkpt lat="40.7151099" lon="9.4002975"><ele>679.0</ele><time>2026-04-13T13:55:54.239Z</time></trkpt><trkpt lat="40.7151923" lon="9.4002954"><ele>679.0</ele><time>2026-04-13T13:55:55.24Z</time></trkpt><trkpt lat="40.7152847" lon="9.4002973"><ele>679.0</ele><time>2026-04-13T13:55:56.234Z</time></trkpt><trkpt lat="40.7153835" lon="9.4003071"><ele>679.0</ele><time>2026-04-13T13:55:57.229Z</time></trkpt><trkpt lat="40.7154841" lon="9.4003218"><ele>676.2</ele><time>2026-04-13T13:55:58.237Z</time></trkpt><trkpt lat="40.7155831" lon="9.400336"><ele>673.4000000000001</ele><time>2026-04-13T13:55:59.22Z</time></trkpt><trkpt lat="40.7156835" lon="9.4003544"><ele>670.6</ele><time>2026-04-13T13:56:00.238Z</time></trkpt><trkpt lat="40.7157799" lon="9.4003724"><ele>667.8</ele><time>2026-04-13T13:56:01.22Z</time></trkpt><trkpt lat="40.7158755" lon="9.4003894"><ele>665.0</ele><time>2026-04-13T13:56:02.219Z</time></trkpt><trkpt lat="40.7159736" lon="9.4004037"><ele>663.0</ele><time>2026-04-13T13:56:03.221Z</time></trkpt><trkpt lat="40.7160711" lon="9.4004187"><ele>661.0</ele><time>2026-04-13T13:56:04.219Z</time></trkpt><trkpt lat="40.716164" lon="9.4004335"><ele>659.0</ele><time>2026-04-13T13:56:05.244Z</time></trkpt><trkpt lat="40.7162454" lon="9.4004458"><ele>657.0</ele><time>2026-04-13T13:56:06.217Z</time></trkpt><trkpt lat="40.7163133" lon="9.4004605"><ele>655.0</ele><time>2026-04-13T13:56:07.219Z</time></trkpt><trkpt lat="40.7164106" lon="9.4004966"><ele>653.0</ele><time>2026-04-13T13:56:09.321Z</time></trkpt><trkpt lat="40.7164154" lon="9.4005939"><ele>653.0</ele><time>2026-04-13T13:56:12.327Z</time></trkpt><trkpt lat="40.716354" lon="9.4006599"><ele>653.0</ele><time>2026-04-13T13:56:14.331Z</time></trkpt><trkpt lat="40.7162275" lon="9.4007401"><ele>653.0</ele><time>2026-04-13T13:56:16.34Z</time></trkpt><trkpt lat="40.7161448" lon="9.4008196"><ele>653.0</ele><time>2026-04-13T13:56:17.332Z</time></trkpt><trkpt lat="40.7160499" lon="9.4009204"><ele>653.0</ele><time>2026-04-13T13:56:18.314Z</time></trkpt><trkpt lat="40.7159516" lon="9.4010336"><ele>654.75</ele><time>2026-04-13T13:56:19.322Z</time></trkpt><trkpt lat="40.7158562" lon="9.4011452"><ele>656.5</ele><time>2026-04-13T13:56:20.306Z</time></trkpt><trkpt lat="40.7157674" lon="9.4012627"><ele>658.25</ele><time>2026-04-13T13:56:21.327Z</time></trkpt><trkpt lat="40.7156763" lon="9.4013715"><ele>660.0</ele><time>2026-04-13T13:56:22.316Z</time></trkpt><trkpt lat="40.7155783" lon="9.4014775"><ele>660.0</ele><time>2026-04-13T13:56:23.321Z</time></trkpt><trkpt lat="40.7154813" lon="9.4015722"><ele>660.0</ele><time>2026-04-13T13:56:24.304Z</time></trkpt><trkpt lat="40.7153943" lon="9.4016535"><ele>660.0</ele><time>2026-04-13T13:56:25.31Z</time></trkpt><trkpt lat="40.7153195" lon="9.4017324"><ele>660.0</ele><time>2026-04-13T13:56:26.31Z</time></trkpt><trkpt lat="40.7152487" lon="9.4018182"><ele>660.0</ele><time>2026-04-13T13:56:27.306Z</time></trkpt><trkpt lat="40.7151842" lon="9.4019067"><ele>661.4285714285714</ele><time>2026-04-13T13:56:28.317Z</time></trkpt><trkpt lat="40.7151355" lon="9.4019904"><ele>662.8571428571429</ele><time>2026-04-13T13:56:29.312Z</time></trkpt><trkpt lat="40.7150977" lon="9.4020757"><ele>664.2857142857142</ele><time>2026-04-13T13:56:30.3Z</time></trkpt><trkpt lat="40.7150658" lon="9.4021664"><ele>665.7142857142858</ele><time>2026-04-13T13:56:31.302Z</time></trkpt><trkpt lat="40.7150476" lon="9.4022621"><ele>667.1428571428571</ele><time>2026-04-13T13:56:32.306Z</time></trkpt><trkpt lat="40.7150481" lon="9.4023582"><ele>668.5714285714286</ele><time>2026-04-13T13:56:33.296Z</time></trkpt><trkpt lat="40.7150593" lon="9.4024504"><ele>670.0</ele><time>2026-04-13T13:56:34.317Z</time></trkpt><trkpt lat="40.7150925" lon="9.4025389"><ele>670.0</ele><time>2026-04-13T13:56:35.311Z</time></trkpt><trkpt lat="40.7151361" lon="9.4026156"><ele>670.0</ele><time>2026-04-13T13:56:36.299Z</time></trkpt><trkpt lat="40.7151886" lon="9.4026858"><ele>670.0</ele><time>2026-04-13T13:56:37.301Z</time></trkpt><trkpt lat="40.7152547" lon="9.402739"><ele>670.0</ele><time>2026-04-13T13:56:38.304Z</time></trkpt><trkpt lat="40.7153406" lon="9.4027667"><ele>670.0</ele><time>2026-04-13T13:56:39.306Z</time></trkpt><trkpt lat="40.7154352" lon="9.402784"><ele>670.0</ele><time>2026-04-13T13:56:40.301Z</time></trkpt><trkpt lat="40.7155259" lon="9.4028108"><ele>669.4</ele><time>2026-04-13T13:56:41.308Z</time></trkpt><trkpt lat="40.7156046" lon="9.4028574"><ele>668.8</ele><time>2026-04-13T13:56:42.296Z</time></trkpt><trkpt lat="40.7156774" lon="9.4029293"><ele>668.2</ele><time>2026-04-13T13:56:43.311Z</time></trkpt><trkpt lat="40.7157474" lon="9.403031"><ele>667.6</ele><time>2026-04-13T13:56:44.306Z</time></trkpt><trkpt lat="40.7158136" lon="9.4031525"><ele>667.0</ele><time>2026-04-13T13:56:45.295Z</time></trkpt><trkpt lat="40.7158793" lon="9.4032771"><ele>667.0</ele><time>2026-04-13T13:56:46.315Z</time></trkpt><trkpt lat="40.7159428" lon="9.4033832"><ele>667.0</ele><time>2026-04-13T13:56:47.319Z</time></trkpt><trkpt lat="40.7160118" lon="9.4034841"><ele>667.0</ele><time>2026-04-13T13:56:48.326Z</time></trkpt><trkpt lat="40.7160842" lon="9.4035792"><ele>667.0</ele><time>2026-04-13T13:56:49.322Z</time></trkpt><trkpt lat="40.7161517" lon="9.4036649"><ele>667.0</ele><time>2026-04-13T13:56:50.308Z</time></trkpt><trkpt lat="40.7162144" lon="9.403734"><ele>666.4000000000001</ele><time>2026-04-13T13:56:51.328Z</time></trkpt><trkpt lat="40.7163131" lon="9.4038225"><ele>665.8000000000001</ele><time>2026-04-13T13:56:53.304Z</time></trkpt><trkpt lat="40.7164084" lon="9.4039158"><ele>665.2</ele><time>2026-04-13T13:56:55.304Z</time></trkpt><trkpt lat="40.7164566" lon="9.4039799"><ele>664.6</ele><time>2026-04-13T13:56:56.296Z</time></trkpt><trkpt lat="40.7164975" lon="9.4040684"><ele>664.0</ele><time>2026-04-13T13:56:57.3Z</time></trkpt><trkpt lat="40.7165315" lon="9.4041864"><ele>664.0</ele><time>2026-04-13T13:56:58.3Z</time></trkpt><trkpt lat="40.7165675" lon="9.4043297"><ele>664.0</ele><time>2026-04-13T13:56:59.316Z</time></trkpt><trkpt lat="40.7166065" lon="9.4044933"><ele>664.0</ele><time>2026-04-13T13:57:00.301Z</time></trkpt><trkpt lat="40.7166491" lon="9.4046645"><ele>664.0</ele><time>2026-04-13T13:57:01.304Z</time></trkpt><trkpt lat="40.7166855" lon="9.4048261"><ele>664.0</ele><time>2026-04-13T13:57:02.294Z</time></trkpt><trkpt lat="40.7167142" lon="9.4049679"><ele>664.0</ele><time>2026-04-13T13:57:03.305Z</time></trkpt><trkpt lat="40.7167409" lon="9.4050931"><ele>664.0</ele><time>2026-04-13T13:57:04.307Z</time></trkpt><trkpt lat="40.7167699" lon="9.4052107"><ele>664.0</ele><time>2026-04-13T13:57:05.3Z</time></trkpt><trkpt lat="40.7167919" lon="9.4053362"><ele>664.0</ele><time>2026-04-13T13:57:06.299Z</time></trkpt><trkpt lat="40.7168044" lon="9.405473"><ele>664.4000000000001</ele><time>2026-04-13T13:57:07.304Z</time></trkpt><trkpt lat="40.7168078" lon="9.4056155"><ele>664.8</ele><time>2026-04-13T13:57:08.293Z</time></trkpt><trkpt lat="40.7168043" lon="9.4057602"><ele>665.2</ele><time>2026-04-13T13:57:09.305Z</time></trkpt><trkpt lat="40.7168079" lon="9.4059059"><ele>665.5999999999999</ele><time>2026-04-13T13:57:10.3Z</time></trkpt><trkpt lat="40.7168218" lon="9.4060647"><ele>666.0</ele><time>2026-04-13T13:57:11.297Z</time></trkpt><trkpt lat="40.7168327" lon="9.4062216"><ele>666.0</ele><time>2026-04-13T13:57:12.29Z</time></trkpt><trkpt lat="40.7168377" lon="9.4063706"><ele>666.0</ele><time>2026-04-13T13:57:13.295Z</time></trkpt><trkpt lat="40.7168366" lon="9.40651"><ele>666.0</ele><time>2026-04-13T13:57:14.293Z</time></trkpt><trkpt lat="40.7168316" lon="9.406642"><ele>666.0</ele><time>2026-04-13T13:57:15.291Z</time></trkpt><trkpt lat="40.7168223" lon="9.4067594"><ele>666.0</ele><time>2026-04-13T13:57:16.295Z</time></trkpt><trkpt lat="40.7168149" lon="9.4068645"><ele>666.0</ele><time>2026-04-13T13:57:17.295Z</time></trkpt><trkpt lat="40.7168174" lon="9.4069542"><ele>666.0</ele><time>2026-04-13T13:57:18.335Z</time></trkpt><trkpt lat="40.7168803" lon="9.4071111"><ele>666.0</ele><time>2026-04-13T13:57:20.294Z</time></trkpt><trkpt lat="40.7169398" lon="9.4071787"><ele>666.0</ele><time>2026-04-13T13:57:21.308Z</time></trkpt><trkpt lat="40.7170083" lon="9.4072167"><ele>666.0</ele><time>2026-04-13T13:57:22.293Z</time></trkpt><trkpt lat="40.7170953" lon="9.4072179"><ele>666.0</ele><time>2026-04-13T13:57:23.295Z</time></trkpt><trkpt lat="40.717195" lon="9.4072112"><ele>662.5999999999999</ele><time>2026-04-13T13:57:24.288Z</time></trkpt><trkpt lat="40.7172937" lon="9.4072048"><ele>659.2</ele><time>2026-04-13T13:57:25.297Z</time></trkpt><trkpt lat="40.7173876" lon="9.4071962"><ele>655.8</ele><time>2026-04-13T13:57:26.294Z</time></trkpt><trkpt lat="40.7174808" lon="9.4071916"><ele>652.4000000000001</ele><time>2026-04-13T13:57:27.293Z</time></trkpt><trkpt lat="40.7175722" lon="9.4071789"><ele>649.0</ele><time>2026-04-13T13:57:28.285Z</time></trkpt><trkpt lat="40.7176599" lon="9.4071631"><ele>648.3333333333334</ele><time>2026-04-13T13:57:29.302Z</time></trkpt><trkpt lat="40.7177395" lon="9.4071519"><ele>647.6666666666667</ele><time>2026-04-13T13:57:30.293Z</time></trkpt><trkpt lat="40.7178197" lon="9.4071434"><ele>647.0</ele><time>2026-04-13T13:57:31.293Z</time></trkpt><trkpt lat="40.7178989" lon="9.4071435"><ele>646.3333333333334</ele><time>2026-04-13T13:57:32.289Z</time></trkpt><trkpt lat="40.7179787" lon="9.4071432"><ele>645.6666666666666</ele><time>2026-04-13T13:57:33.291Z</time></trkpt><trkpt lat="40.7180546" lon="9.4071498"><ele>645.0</ele><time>2026-04-13T13:57:34.287Z</time></trkpt><trkpt lat="40.7181306" lon="9.4071648"><ele>644.4285714285714</ele><time>2026-04-13T13:57:35.297Z</time></trkpt><trkpt lat="40.7182009" lon="9.4071865"><ele>643.8571428571428</ele><time>2026-04-13T13:57:36.294Z</time></trkpt><trkpt lat="40.7182676" lon="9.4072202"><ele>643.2857142857142</ele><time>2026-04-13T13:57:37.294Z</time></trkpt><trkpt lat="40.7183323" lon="9.4072644"><ele>642.7142857142858</ele><time>2026-04-13T13:57:38.292Z</time></trkpt><trkpt lat="40.7183975" lon="9.4073145"><ele>642.1428571428571</ele><time>2026-04-13T13:57:39.315Z</time></trkpt><trkpt lat="40.7184562" lon="9.407366"><ele>641.5714285714286</ele><time>2026-04-13T13:57:40.282Z</time></trkpt><trkpt lat="40.7185076" lon="9.4074236"><ele>641.0</ele><time>2026-04-13T13:57:41.309Z</time></trkpt><trkpt lat="40.7185516" lon="9.4074837"><ele>638.8333333333333</ele><time>2026-04-13T13:57:42.284Z</time></trkpt><trkpt lat="40.7185854" lon="9.4075561"><ele>636.6666666666666</ele><time>2026-04-13T13:57:43.29Z</time></trkpt><trkpt lat="40.7186023" lon="9.4076458"><ele>634.5</ele><time>2026-04-13T13:57:44.284Z</time></trkpt><trkpt lat="40.7186128" lon="9.4077464"><ele>632.3333333333334</ele><time>2026-04-13T13:57:45.286Z</time></trkpt><trkpt lat="40.7186309" lon="9.4078527"><ele>630.1666666666667</ele><time>2026-04-13T13:57:46.274Z</time></trkpt><trkpt lat="40.7186568" lon="9.4079581"><ele>628.0</ele><time>2026-04-13T13:57:47.306Z</time></trkpt><trkpt lat="40.7186966" lon="9.4080574"><ele>627.0</ele><time>2026-04-13T13:57:48.281Z</time></trkpt><trkpt lat="40.7187435" lon="9.4081481"><ele>626.0</ele><time>2026-04-13T13:57:49.295Z</time></trkpt><trkpt lat="40.7187964" lon="9.4082209"><ele>625.0</ele><time>2026-04-13T13:57:50.282Z</time></trkpt><trkpt lat="40.7188543" lon="9.408284"><ele>624.0</ele><time>2026-04-13T13:57:51.283Z</time></trkpt><trkpt lat="40.7189114" lon="9.4083411"><ele>623.0</ele><time>2026-04-13T13:57:52.281Z</time></trkpt><trkpt lat="40.7189636" lon="9.4083944"><ele>622.0</ele><time>2026-04-13T13:57:53.289Z</time></trkpt><trkpt lat="40.7190567" lon="9.4084968"><ele>622.0</ele><time>2026-04-13T13:57:55.288Z</time></trkpt><trkpt lat="40.7191164" lon="9.4085242"><ele>622.0</ele><time>2026-04-13T13:57:56.281Z</time></trkpt><trkpt lat="40.7191867" lon="9.4085306"><ele>622.0</ele><time>2026-04-13T13:57:57.272Z</time></trkpt><trkpt lat="40.7192573" lon="9.4085384"><ele>622.0</ele><time>2026-04-13T13:57:58.27Z</time></trkpt><trkpt lat="40.7193325" lon="9.4085658"><ele>622.0</ele><time>2026-04-13T13:57:59.269Z</time></trkpt><trkpt lat="40.7194057" lon="9.4086197"><ele>622.0</ele><time>2026-04-13T13:58:00.281Z</time></trkpt><trkpt lat="40.7194757" lon="9.4086847"><ele>621.5</ele><time>2026-04-13T13:58:01.274Z</time></trkpt><trkpt lat="40.7195394" lon="9.4087467"><ele>621.0</ele><time>2026-04-13T13:58:02.288Z</time></trkpt><trkpt lat="40.7196005" lon="9.4088133"><ele>620.5</ele><time>2026-04-13T13:58:03.293Z</time></trkpt><trkpt lat="40.7196531" lon="9.4088902"><ele>620.0</ele><time>2026-04-13T13:58:04.271Z</time></trkpt><trkpt lat="40.7196949" lon="9.4089746"><ele>619.5</ele><time>2026-04-13T13:58:05.268Z</time></trkpt><trkpt lat="40.7197399" lon="9.4090627"><ele>619.0</ele><time>2026-04-13T13:58:06.265Z</time></trkpt><trkpt lat="40.7197933" lon="9.4091482"><ele>618.3333333333334</ele><time>2026-04-13T13:58:07.264Z</time></trkpt><trkpt lat="40.7198507" lon="9.409228"><ele>617.6666666666667</ele><time>2026-04-13T13:58:08.273Z</time></trkpt><trkpt lat="40.7199062" lon="9.4092977"><ele>617.0</ele><time>2026-04-13T13:58:09.269Z</time></trkpt><trkpt lat="40.7199564" lon="9.4093682"><ele>616.3333333333334</ele><time>2026-04-13T13:58:10.269Z</time></trkpt><trkpt lat="40.7200015" lon="9.4094447"><ele>615.6666666666666</ele><time>2026-04-13T13:58:11.282Z</time></trkpt><trkpt lat="40.7200442" lon="9.409531"><ele>615.0</ele><time>2026-04-13T13:58:12.267Z</time></trkpt><trkpt lat="40.7200813" lon="9.4096159"><ele>613.1666666666666</ele><time>2026-04-13T13:58:13.267Z</time></trkpt><trkpt lat="40.7201157" lon="9.4096974"><ele>611.3333333333334</ele><time>2026-04-13T13:58:14.275Z</time></trkpt><trkpt lat="40.7201639" lon="9.4097858"><ele>609.5</ele><time>2026-04-13T13:58:15.27Z</time></trkpt><trkpt lat="40.7202257" lon="9.4098655"><ele>607.6666666666667</ele><time>2026-04-13T13:58:16.264Z</time></trkpt><trkpt lat="40.7202885" lon="9.4099352"><ele>605.8333333333334</ele><time>2026-04-13T13:58:17.276Z</time></trkpt><trkpt lat="40.7203441" lon="9.4099955"><ele>604.0</ele><time>2026-04-13T13:58:18.299Z</time></trkpt><trkpt lat="40.7204325" lon="9.4100884"><ele>603.8</ele><time>2026-04-13T13:58:20.273Z</time></trkpt><trkpt lat="40.7205157" lon="9.4101854"><ele>603.5999999999999</ele><time>2026-04-13T13:58:22.257Z</time></trkpt><trkpt lat="40.7206053" lon="9.4102788"><ele>603.4</ele><time>2026-04-13T13:58:24.274Z</time></trkpt><trkpt lat="40.7206881" lon="9.4103658"><ele>603.1999999999999</ele><time>2026-04-13T13:58:26.297Z</time></trkpt><trkpt lat="40.7207515" lon="9.4104689"><ele>603.0</ele><time>2026-04-13T13:58:28.284Z</time></trkpt><trkpt lat="40.7208222" lon="9.4105788"><ele>602.1428571428572</ele><time>2026-04-13T13:58:30.261Z</time></trkpt><trkpt lat="40.7208651" lon="9.4106449"><ele>601.2857142857142</ele><time>2026-04-13T13:58:31.279Z</time></trkpt><trkpt lat="40.7209136" lon="9.4107273"><ele>600.4285714285714</ele><time>2026-04-13T13:58:32.265Z</time></trkpt><trkpt lat="40.7209621" lon="9.4108129"><ele>599.5714285714287</ele><time>2026-04-13T13:58:33.289Z</time></trkpt><trkpt lat="40.7210042" lon="9.4108935"><ele>598.7142857142858</ele><time>2026-04-13T13:58:34.261Z</time></trkpt><trkpt lat="40.7210386" lon="9.4109654"><ele>597.8571428571429</ele><time>2026-04-13T13:58:35.268Z</time></trkpt><trkpt lat="40.7210696" lon="9.4110402"><ele>597.0</ele><time>2026-04-13T13:58:36.271Z</time></trkpt><trkpt lat="40.7211045" lon="9.4111237"><ele>596.8333333333334</ele><time>2026-04-13T13:58:37.258Z</time></trkpt><trkpt lat="40.7211497" lon="9.4112203"><ele>596.6666666666666</ele><time>2026-04-13T13:58:38.262Z</time></trkpt><trkpt lat="40.7211973" lon="9.4113219"><ele>596.5</ele><time>2026-04-13T13:58:39.27Z</time></trkpt><trkpt lat="40.7212445" lon="9.4114145"><ele>596.3333333333333</ele><time>2026-04-13T13:58:40.254Z</time></trkpt><trkpt lat="40.7212918" lon="9.4114985"><ele>596.1666666666666</ele><time>2026-04-13T13:58:41.269Z</time></trkpt><trkpt lat="40.7213364" lon="9.4115805"><ele>596.0</ele><time>2026-04-13T13:58:42.277Z</time></trkpt><trkpt lat="40.7213811" lon="9.4116618"><ele>595.0</ele><time>2026-04-13T13:58:43.25Z</time></trkpt><trkpt lat="40.7214297" lon="9.4117472"><ele>594.0</ele><time>2026-04-13T13:58:44.248Z</time></trkpt><trkpt lat="40.7214796" lon="9.4118327"><ele>593.0</ele><time>2026-04-13T13:58:45.253Z</time></trkpt><trkpt lat="40.7215279" lon="9.4119118"><ele>592.0</ele><time>2026-04-13T13:58:46.255Z</time></trkpt><trkpt lat="40.7215748" lon="9.4119836"><ele>591.0</ele><time>2026-04-13T13:58:47.252Z</time></trkpt><trkpt lat="40.7216219" lon="9.4120523"><ele>590.0</ele><time>2026-04-13T13:58:48.275Z</time></trkpt><trkpt lat="40.7216678" lon="9.4121114"><ele>589.0</ele><time>2026-04-13T13:58:49.27Z</time></trkpt><trkpt lat="40.7217475" lon="9.412243"><ele>587.8</ele><time>2026-04-13T13:58:51.255Z</time></trkpt><trkpt lat="40.7217939" lon="9.4123214"><ele>586.5999999999999</ele><time>2026-04-13T13:58:52.255Z</time></trkpt><trkpt lat="40.7218554" lon="9.4124166"><ele>585.4</ele><time>2026-04-13T13:58:53.258Z</time></trkpt><trkpt lat="40.7219354" lon="9.4125222"><ele>584.1999999999999</ele><time>2026-04-13T13:58:54.25Z</time></trkpt><trkpt lat="40.7220268" lon="9.4126388"><ele>583.0</ele><time>2026-04-13T13:58:55.265Z</time></trkpt><trkpt lat="40.7221187" lon="9.412757"><ele>582.0</ele><time>2026-04-13T13:58:56.268Z</time></trkpt><trkpt lat="40.7222028" lon="9.4128669"><ele>581.0</ele><time>2026-04-13T13:58:57.248Z</time></trkpt><trkpt lat="40.722284" lon="9.4129696"><ele>580.0</ele><time>2026-04-13T13:58:58.266Z</time></trkpt><trkpt lat="40.7223653" lon="9.4130708"><ele>579.0</ele><time>2026-04-13T13:58:59.271Z</time></trkpt><trkpt lat="40.7224454" lon="9.4131717"><ele>578.2</ele><time>2026-04-13T13:59:00.267Z</time></trkpt><trkpt lat="40.7225248" lon="9.4132636"><ele>577.4</ele><time>2026-04-13T13:59:01.264Z</time></trkpt><trkpt lat="40.7225979" lon="9.4133478"><ele>576.6</ele><time>2026-04-13T13:59:02.255Z</time></trkpt><trkpt lat="40.7226727" lon="9.4134279"><ele>575.8</ele><time>2026-04-13T13:59:03.261Z</time></trkpt><trkpt lat="40.722745" lon="9.4134977"><ele>575.0</ele><time>2026-04-13T13:59:04.252Z</time></trkpt><trkpt lat="40.7228197" lon="9.4135459"><ele>574.6666666666666</ele><time>2026-04-13T13:59:05.248Z</time></trkpt><trkpt lat="40.7228923" lon="9.4135765"><ele>574.3333333333333</ele><time>2026-04-13T13:59:06.251Z</time></trkpt><trkpt lat="40.723014" lon="9.4135891"><ele>574.0</ele><time>2026-04-13T13:59:08.269Z</time></trkpt><trkpt lat="40.7230806" lon="9.4135714"><ele>573.6666666666666</ele><time>2026-04-13T13:59:09.257Z</time></trkpt><trkpt lat="40.7231559" lon="9.4135348"><ele>573.3333333333334</ele><time>2026-04-13T13:59:10.251Z</time></trkpt><trkpt lat="40.7232244" lon="9.4134882"><ele>573.0</ele><time>2026-04-13T13:59:11.243Z</time></trkpt><trkpt lat="40.7232781" lon="9.4134356"><ele>573.0</ele><time>2026-04-13T13:59:12.257Z</time></trkpt><trkpt lat="40.7233287" lon="9.4133823"><ele>573.0</ele><time>2026-04-13T13:59:13.245Z</time></trkpt><trkpt lat="40.7233875" lon="9.413323"><ele>573.0</ele><time>2026-04-13T13:59:14.261Z</time></trkpt><trkpt lat="40.7234545" lon="9.4132486"><ele>573.0</ele><time>2026-04-13T13:59:15.247Z</time></trkpt><trkpt lat="40.7235195" lon="9.4131737"><ele>573.0</ele><time>2026-04-13T13:59:16.254Z</time></trkpt><trkpt lat="40.7235773" lon="9.4131004"><ele>573.0</ele><time>2026-04-13T13:59:17.264Z</time></trkpt><trkpt lat="40.7236289" lon="9.4130219"><ele>572.1999999999999</ele><time>2026-04-13T13:59:18.246Z</time></trkpt><trkpt lat="40.7236674" lon="9.4129269"><ele>571.4</ele><time>2026-04-13T13:59:19.258Z</time></trkpt><trkpt lat="40.7236866" lon="9.4128211"><ele>570.5999999999999</ele><time>2026-04-13T13:59:20.259Z</time></trkpt><trkpt lat="40.7236889" lon="9.4127048"><ele>569.8</ele><time>2026-04-13T13:59:21.241Z</time></trkpt><trkpt lat="40.723683" lon="9.4126036"><ele>569.0</ele><time>2026-04-13T13:59:22.239Z</time></trkpt><trkpt lat="40.723643" lon="9.4124297"><ele>569.0</ele><time>2026-04-13T13:59:24.256Z</time></trkpt><trkpt lat="40.7236182" lon="9.4123385"><ele>569.0</ele><time>2026-04-13T13:59:25.27Z</time></trkpt><trkpt lat="40.723583" lon="9.4122081"><ele>569.0</ele><time>2026-04-13T13:59:27.252Z</time></trkpt><trkpt lat="40.7235839" lon="9.4119889"><ele>569.0</ele><time>2026-04-13T13:59:28.246Z</time></trkpt><trkpt lat="40.7236161" lon="9.4118729"><ele>569.0</ele><time>2026-04-13T13:59:30.199Z</time></trkpt><trkpt lat="40.7237109" lon="9.4117189"><ele>569.0</ele><time>2026-04-13T13:59:32.24Z</time></trkpt><trkpt lat="40.7237999" lon="9.4115432"><ele>569.0</ele><time>2026-04-13T13:59:34.265Z</time></trkpt><trkpt lat="40.7238396" lon="9.4114565"><ele>569.0</ele><time>2026-04-13T13:59:35.256Z</time></trkpt><trkpt lat="40.723868" lon="9.4113728"><ele>569.0</ele><time>2026-04-13T13:59:36.266Z</time></trkpt><trkpt lat="40.7239329" lon="9.4111966"><ele>567.8</ele><time>2026-04-13T13:59:38.242Z</time></trkpt><trkpt lat="40.7240176" lon="9.4110337"><ele>566.5999999999999</ele><time>2026-04-13T13:59:40.241Z</time></trkpt><trkpt lat="40.7240801" lon="9.410908"><ele>565.4</ele><time>2026-04-13T13:59:42.263Z</time></trkpt><trkpt lat="40.7240984" lon="9.4108055"><ele>564.1999999999999</ele><time>2026-04-13T13:59:43.246Z</time></trkpt><trkpt lat="40.7241119" lon="9.4106916"><ele>563.0</ele><time>2026-04-13T13:59:44.257Z</time></trkpt><trkpt lat="40.7241214" lon="9.4105871"><ele>563.0</ele><time>2026-04-13T13:59:45.278Z</time></trkpt><trkpt lat="40.7241334" lon="9.4104924"><ele>563.0</ele><time>2026-04-13T13:59:46.25Z</time></trkpt><trkpt lat="40.7241878" lon="9.4103676"><ele>563.0</ele><time>2026-04-13T13:59:48.246Z</time></trkpt><trkpt lat="40.7242933" lon="9.4103157"><ele>563.0</ele><time>2026-04-13T13:59:50.262Z</time></trkpt><trkpt lat="40.7244245" lon="9.4103448"><ele>563.0</ele><time>2026-04-13T13:59:52.233Z</time></trkpt><trkpt lat="40.7245069" lon="9.4103717"><ele>563.0</ele><time>2026-04-13T13:59:53.253Z</time></trkpt><trkpt lat="40.7245999" lon="9.4104031"><ele>563.0</ele><time>2026-04-13T13:59:54.236Z</time></trkpt><trkpt lat="40.7247043" lon="9.4104319"><ele>563.0</ele><time>2026-04-13T13:59:55.231Z</time></trkpt><trkpt lat="40.7247999" lon="9.4104554"><ele>563.0</ele><time>2026-04-13T13:59:56.241Z</time></trkpt><trkpt lat="40.724883" lon="9.4104584"><ele>563.0</ele><time>2026-04-13T13:59:57.25Z</time></trkpt><trkpt lat="40.7249637" lon="9.4104361"><ele>563.0</ele><time>2026-04-13T13:59:58.246Z</time></trkpt><trkpt lat="40.725049" lon="9.4103943"><ele>563.0</ele><time>2026-04-13T13:59:59.264Z</time></trkpt><trkpt lat="40.7251486" lon="9.410353"><ele>563.0</ele><time>2026-04-13T14:00:00.25Z</time></trkpt><trkpt lat="40.7252544" lon="9.4103339"><ele>563.0</ele><time>2026-04-13T14:00:01.254Z</time></trkpt><trkpt lat="40.7253461" lon="9.410333"><ele>563.0</ele><time>2026-04-13T14:00:02.233Z</time></trkpt><trkpt lat="40.7254192" lon="9.4103367"><ele>563.3333333333333</ele><time>2026-04-13T14:00:03.249Z</time></trkpt><trkpt lat="40.7254926" lon="9.4103537"><ele>563.6666666666666</ele><time>2026-04-13T14:00:04.246Z</time></trkpt><trkpt lat="40.7255663" lon="9.4103816"><ele>564.0</ele><time>2026-04-13T14:00:05.247Z</time></trkpt><trkpt lat="40.7256483" lon="9.4104143"><ele>564.3333333333334</ele><time>2026-04-13T14:00:06.238Z</time></trkpt><trkpt lat="40.725741" lon="9.4104412"><ele>564.6666666666667</ele><time>2026-04-13T14:00:07.25Z</time></trkpt><trkpt lat="40.7258406" lon="9.4104649"><ele>565.0</ele><time>2026-04-13T14:00:08.243Z</time></trkpt><trkpt lat="40.7259419" lon="9.4104857"><ele>564.1666666666667</ele><time>2026-04-13T14:00:09.245Z</time></trkpt><trkpt lat="40.7260442" lon="9.4104929"><ele>563.3333333333334</ele><time>2026-04-13T14:00:10.252Z</time></trkpt><trkpt lat="40.7261464" lon="9.4104897"><ele>562.5</ele><time>2026-04-13T14:00:11.241Z</time></trkpt><trkpt lat="40.7262333" lon="9.4104912"><ele>561.6666666666666</ele><time>2026-04-13T14:00:12.225Z</time></trkpt><trkpt lat="40.7263104" lon="9.4104845"><ele>560.8333333333333</ele><time>2026-04-13T14:00:13.248Z</time></trkpt><trkpt lat="40.7263894" lon="9.4104836"><ele>560.0</ele><time>2026-04-13T14:00:14.246Z</time></trkpt><trkpt lat="40.7264733" lon="9.4104964"><ele>560.0</ele><time>2026-04-13T14:00:15.244Z</time></trkpt><trkpt lat="40.7265695" lon="9.4104952"><ele>560.0</ele><time>2026-04-13T14:00:16.249Z</time></trkpt><trkpt lat="40.7266546" lon="9.41048"><ele>560.0</ele><time>2026-04-13T14:00:17.241Z</time></trkpt><trkpt lat="40.7267251" lon="9.4104575"><ele>560.0</ele><time>2026-04-13T14:00:18.242Z</time></trkpt><trkpt lat="40.7267855" lon="9.4104251"><ele>560.0</ele><time>2026-04-13T14:00:19.236Z</time></trkpt><trkpt lat="40.7268832" lon="9.4103095"><ele>557.8333333333333</ele><time>2026-04-13T14:00:21.234Z</time></trkpt><trkpt lat="40.7269248" lon="9.4102246"><ele>555.6666666666666</ele><time>2026-04-13T14:00:22.228Z</time></trkpt><trkpt lat="40.7269597" lon="9.4101356"><ele>553.5</ele><time>2026-04-13T14:00:23.342Z</time></trkpt><trkpt lat="40.7269927" lon="9.4099485"><ele>551.3333333333334</ele><time>2026-04-13T14:00:25.234Z</time></trkpt><trkpt lat="40.7269968" lon="9.4098606"><ele>549.1666666666667</ele><time>2026-04-13T14:00:26.237Z</time></trkpt><trkpt lat="40.7269951" lon="9.4097764"><ele>547.0</ele><time>2026-04-13T14:00:27.243Z</time></trkpt><trkpt lat="40.7269878" lon="9.4095959"><ele>547.0</ele><time>2026-04-13T14:00:29.223Z</time></trkpt><trkpt lat="40.7269858" lon="9.409482"><ele>547.0</ele><time>2026-04-13T14:00:30.23Z</time></trkpt><trkpt lat="40.7269872" lon="9.4093731"><ele>547.0</ele><time>2026-04-13T14:00:31.237Z</time></trkpt><trkpt lat="40.7269939" lon="9.4092714"><ele>547.0</ele><time>2026-04-13T14:00:32.231Z</time></trkpt><trkpt lat="40.7269982" lon="9.4091658"><ele>547.0</ele><time>2026-04-13T14:00:33.218Z</time></trkpt><trkpt lat="40.7270016" lon="9.4090496"><ele>547.0</ele><time>2026-04-13T14:00:34.239Z</time></trkpt><trkpt lat="40.727011" lon="9.4089266"><ele>548.0</ele><time>2026-04-13T14:00:35.23Z</time></trkpt><trkpt lat="40.72702" lon="9.408797"><ele>549.0</ele><time>2026-04-13T14:00:36.317Z</time></trkpt><trkpt lat="40.7270236" lon="9.4086586"><ele>550.0</ele><time>2026-04-13T14:00:37.327Z</time></trkpt><trkpt lat="40.7270297" lon="9.4085084"><ele>551.0</ele><time>2026-04-13T14:00:38.234Z</time></trkpt><trkpt lat="40.7270393" lon="9.4083706"><ele>552.0</ele><time>2026-04-13T14:00:39.327Z</time></trkpt><trkpt lat="40.7270565" lon="9.4082508"><ele>552.0</ele><time>2026-04-13T14:00:40.319Z</time></trkpt><trkpt lat="40.7270741" lon="9.4081388"><ele>552.0</ele><time>2026-04-13T14:00:41.323Z</time></trkpt><trkpt lat="40.7270919" lon="9.4080393"><ele>552.0</ele><time>2026-04-13T14:00:42.332Z</time></trkpt><trkpt lat="40.7271076" lon="9.4079523"><ele>552.0</ele><time>2026-04-13T14:00:43.322Z</time></trkpt><trkpt lat="40.7271204" lon="9.4078593"><ele>552.0</ele><time>2026-04-13T14:00:44.317Z</time></trkpt><trkpt lat="40.7271312" lon="9.4077589"><ele>552.0</ele><time>2026-04-13T14:00:45.309Z</time></trkpt><trkpt lat="40.72714" lon="9.4076692"><ele>552.0</ele><time>2026-04-13T14:00:46.311Z</time></trkpt><trkpt lat="40.7271488" lon="9.4075781"><ele>552.5</ele><time>2026-04-13T14:00:47.311Z</time></trkpt><trkpt lat="40.7271516" lon="9.407481"><ele>553.0</ele><time>2026-04-13T14:00:48.328Z</time></trkpt><trkpt lat="40.7271607" lon="9.4073745"><ele>553.5</ele><time>2026-04-13T14:00:49.314Z</time></trkpt><trkpt lat="40.7271714" lon="9.4072647"><ele>554.0</ele><time>2026-04-13T14:00:50.301Z</time></trkpt><trkpt lat="40.7271786" lon="9.4071515"><ele>554.5</ele><time>2026-04-13T14:00:51.303Z</time></trkpt><trkpt lat="40.7271836" lon="9.4070501"><ele>555.0</ele><time>2026-04-13T14:00:52.298Z</time></trkpt><trkpt lat="40.727177" lon="9.406957"><ele>555.5714285714287</ele><time>2026-04-13T14:00:53.325Z</time></trkpt><trkpt lat="40.7271738" lon="9.4068694"><ele>556.1428571428571</ele><time>2026-04-13T14:00:54.303Z</time></trkpt><trkpt lat="40.7271853" lon="9.406773"><ele>556.7142857142858</ele><time>2026-04-13T14:00:55.314Z</time></trkpt><trkpt lat="40.7272196" lon="9.4066789"><ele>557.2857142857143</ele><time>2026-04-13T14:00:56.293Z</time></trkpt><trkpt lat="40.7272648" lon="9.4066071"><ele>557.8571428571429</ele><time>2026-04-13T14:00:57.303Z</time></trkpt><trkpt lat="40.7273187" lon="9.4065605"><ele>558.4285714285714</ele><time>2026-04-13T14:00:58.297Z</time></trkpt><trkpt lat="40.7273796" lon="9.4065381"><ele>559.0</ele><time>2026-04-13T14:00:59.295Z</time></trkpt><trkpt lat="40.7274453" lon="9.4065215"><ele>559.0</ele><time>2026-04-13T14:01:00.295Z</time></trkpt><trkpt lat="40.7275179" lon="9.4064922"><ele>559.0</ele><time>2026-04-13T14:01:01.294Z</time></trkpt><trkpt lat="40.7275955" lon="9.4064224"><ele>559.0</ele><time>2026-04-13T14:01:02.286Z</time></trkpt><trkpt lat="40.7276878" lon="9.4063101"><ele>559.0</ele><time>2026-04-13T14:01:03.284Z</time></trkpt><trkpt lat="40.7277831" lon="9.4061747"><ele>559.0</ele><time>2026-04-13T14:01:04.282Z</time></trkpt><trkpt lat="40.727878" lon="9.4060572"><ele>558.6</ele><time>2026-04-13T14:01:05.293Z</time></trkpt><trkpt lat="40.7279613" lon="9.4059607"><ele>558.2</ele><time>2026-04-13T14:01:06.285Z</time></trkpt><trkpt lat="40.7280432" lon="9.4058702"><ele>557.8000000000001</ele><time>2026-04-13T14:01:07.291Z</time></trkpt><trkpt lat="40.7281194" lon="9.4057762"><ele>557.4</ele><time>2026-04-13T14:01:08.298Z</time></trkpt><trkpt lat="40.7281854" lon="9.4056571"><ele>557.0</ele><time>2026-04-13T14:01:09.301Z</time></trkpt><trkpt lat="40.7282368" lon="9.4055307"><ele>557.3333333333333</ele><time>2026-04-13T14:01:10.281Z</time></trkpt><trkpt lat="40.7282765" lon="9.4054273"><ele>557.6666666666666</ele><time>2026-04-13T14:01:11.305Z</time></trkpt><trkpt lat="40.7283147" lon="9.4053476"><ele>558.0</ele><time>2026-04-13T14:01:12.307Z</time></trkpt><trkpt lat="40.7283572" lon="9.4052845"><ele>558.3333333333334</ele><time>2026-04-13T14:01:13.281Z</time></trkpt><trkpt lat="40.7284516" lon="9.4051866"><ele>558.6666666666667</ele><time>2026-04-13T14:01:15.301Z</time></trkpt><trkpt lat="40.7285409" lon="9.4051807"><ele>559.0</ele><time>2026-04-13T14:01:17.29Z</time></trkpt><trkpt lat="40.7286243" lon="9.4052453"><ele>556.6</ele><time>2026-04-13T14:01:19.275Z</time></trkpt><trkpt lat="40.7287092" lon="9.4053287"><ele>554.2</ele><time>2026-04-13T14:01:21.287Z</time></trkpt><trkpt lat="40.7288038" lon="9.4053906"><ele>551.8000000000001</ele><time>2026-04-13T14:01:23.325Z</time></trkpt><trkpt lat="40.7289107" lon="9.4054382"><ele>549.4</ele><time>2026-04-13T14:01:25.268Z</time></trkpt><trkpt lat="40.7290244" lon="9.4054783"><ele>547.0</ele><time>2026-04-13T14:01:27.263Z</time></trkpt><trkpt lat="40.7291202" lon="9.4055573"><ele>547.2</ele><time>2026-04-13T14:01:29.27Z</time></trkpt><trkpt lat="40.7292555" lon="9.4055949"><ele>547.4000000000001</ele><time>2026-04-13T14:01:31.259Z</time></trkpt><trkpt lat="40.7293408" lon="9.4055835"><ele>547.5999999999999</ele><time>2026-04-13T14:01:32.262Z</time></trkpt><trkpt lat="40.7294344" lon="9.4055503"><ele>547.8</ele><time>2026-04-13T14:01:33.261Z</time></trkpt><trkpt lat="40.7295255" lon="9.4055148"><ele>548.0</ele><time>2026-04-13T14:01:34.259Z</time></trkpt><trkpt lat="40.7296129" lon="9.4054932"><ele>548.0</ele><time>2026-04-13T14:01:35.263Z</time></trkpt><trkpt lat="40.7296941" lon="9.4054857"><ele>548.0</ele><time>2026-04-13T14:01:36.256Z</time></trkpt><trkpt lat="40.7297891" lon="9.4055067"><ele>548.0</ele><time>2026-04-13T14:01:37.255Z</time></trkpt><trkpt lat="40.7298859" lon="9.4055334"><ele>548.0</ele><time>2026-04-13T14:01:38.271Z</time></trkpt><trkpt lat="40.7299801" lon="9.4055673"><ele>548.0</ele><time>2026-04-13T14:01:39.255Z</time></trkpt><trkpt lat="40.7300693" lon="9.4056069"><ele>546.8</ele><time>2026-04-13T14:01:40.253Z</time></trkpt><trkpt lat="40.7301561" lon="9.4056525"><ele>545.5999999999999</ele><time>2026-04-13T14:01:41.25Z</time></trkpt><trkpt lat="40.7302454" lon="9.4057007"><ele>544.4000000000001</ele><time>2026-04-13T14:01:42.253Z</time></trkpt><trkpt lat="40.7303386" lon="9.4057583"><ele>543.2</ele><time>2026-04-13T14:01:43.254Z</time></trkpt><trkpt lat="40.7304217" lon="9.4058096"><ele>542.0</ele><time>2026-04-13T14:01:44.252Z</time></trkpt><trkpt lat="40.7304891" lon="9.40585"><ele>542.0</ele><time>2026-04-13T14:01:45.244Z</time></trkpt><trkpt lat="40.7305518" lon="9.4058836"><ele>542.0</ele><time>2026-04-13T14:01:46.295Z</time></trkpt><trkpt lat="40.7306626" lon="9.4059262"><ele>542.0</ele><time>2026-04-13T14:01:48.248Z</time></trkpt><trkpt lat="40.7307342" lon="9.4059577"><ele>542.0</ele><time>2026-04-13T14:01:49.253Z</time></trkpt><trkpt lat="40.7308205" lon="9.4060018"><ele>542.0</ele><time>2026-04-13T14:01:50.249Z</time></trkpt><trkpt lat="40.7309257" lon="9.4060411"><ele>542.0</ele><time>2026-04-13T14:01:51.252Z</time></trkpt><trkpt lat="40.7310317" lon="9.4060709"><ele>542.0</ele><time>2026-04-13T14:01:52.245Z</time></trkpt><trkpt lat="40.7311381" lon="9.4061049"><ele>542.0</ele><time>2026-04-13T14:01:53.243Z</time></trkpt><trkpt lat="40.7312466" lon="9.4061461"><ele>542.0</ele><time>2026-04-13T14:01:54.26Z</time></trkpt><trkpt lat="40.73135" lon="9.4061854"><ele>542.0</ele><time>2026-04-13T14:01:55.245Z</time></trkpt><trkpt lat="40.7314412" lon="9.4062214"><ele>541.6</ele><time>2026-04-13T14:01:56.252Z</time></trkpt><trkpt lat="40.7315335" lon="9.4062564"><ele>541.2</ele><time>2026-04-13T14:01:57.252Z</time></trkpt><trkpt lat="40.731636" lon="9.4062847"><ele>540.8</ele><time>2026-04-13T14:01:58.243Z</time></trkpt><trkpt lat="40.7317475" lon="9.4063094"><ele>540.4</ele><time>2026-04-13T14:01:59.238Z</time></trkpt><trkpt lat="40.7318599" lon="9.4063281"><ele>540.0</ele><time>2026-04-13T14:02:00.246Z</time></trkpt><trkpt lat="40.7319678" lon="9.406349"><ele>538.3333333333334</ele><time>2026-04-13T14:02:01.269Z</time></trkpt><trkpt lat="40.7320714" lon="9.4063614"><ele>536.6666666666666</ele><time>2026-04-13T14:02:02.244Z</time></trkpt><trkpt lat="40.7321591" lon="9.4063797"><ele>535.0</ele><time>2026-04-13T14:02:03.24Z</time></trkpt><trkpt lat="40.7322321" lon="9.4064028"><ele>533.3333333333333</ele><time>2026-04-13T14:02:04.252Z</time></trkpt><trkpt lat="40.7323071" lon="9.4064134"><ele>531.6666666666666</ele><time>2026-04-13T14:02:05.234Z</time></trkpt><trkpt lat="40.7323795" lon="9.4064176"><ele>530.0</ele><time>2026-04-13T14:02:06.233Z</time></trkpt><trkpt lat="40.7325059" lon="9.4064228"><ele>530.0</ele><time>2026-04-13T14:02:08.255Z</time></trkpt><trkpt lat="40.7325801" lon="9.4064168"><ele>530.0</ele><time>2026-04-13T14:02:09.24Z</time></trkpt><trkpt lat="40.7326591" lon="9.4063985"><ele>530.0</ele><time>2026-04-13T14:02:10.227Z</time></trkpt><trkpt lat="40.7327293" lon="9.4063595"><ele>530.0</ele><time>2026-04-13T14:02:11.23Z</time></trkpt><trkpt lat="40.7327939" lon="9.4063027"><ele>530.0</ele><time>2026-04-13T14:02:12.233Z</time></trkpt><trkpt lat="40.732859" lon="9.4062342"><ele>530.0</ele><time>2026-04-13T14:02:13.222Z</time></trkpt><trkpt lat="40.7329085" lon="9.4061558"><ele>528.5</ele><time>2026-04-13T14:02:14.226Z</time></trkpt><trkpt lat="40.7329493" lon="9.4060599"><ele>527.0</ele><time>2026-04-13T14:02:15.225Z</time></trkpt><trkpt lat="40.7329825" lon="9.4059534"><ele>525.5</ele><time>2026-04-13T14:02:16.221Z</time></trkpt><trkpt lat="40.7330061" lon="9.4058347"><ele>524.0</ele><time>2026-04-13T14:02:17.221Z</time></trkpt><trkpt lat="40.7330168" lon="9.4057221"><ele>522.5</ele><time>2026-04-13T14:02:18.217Z</time></trkpt><trkpt lat="40.7330229" lon="9.4056159"><ele>521.0</ele><time>2026-04-13T14:02:19.215Z</time></trkpt><trkpt lat="40.7330382" lon="9.405511"><ele>521.0</ele><time>2026-04-13T14:02:20.237Z</time></trkpt><trkpt lat="40.7330643" lon="9.4054149"><ele>521.0</ele><time>2026-04-13T14:02:21.231Z</time></trkpt><trkpt lat="40.7331044" lon="9.4053382"><ele>521.0</ele><time>2026-04-13T14:02:22.228Z</time></trkpt><trkpt lat="40.7331628" lon="9.4052631"><ele>521.0</ele><time>2026-04-13T14:02:23.236Z</time></trkpt><trkpt lat="40.7332378" lon="9.4051898"><ele>521.0</ele><time>2026-04-13T14:02:24.229Z</time></trkpt><trkpt lat="40.7333051" lon="9.4051344"><ele>521.0</ele><time>2026-04-13T14:02:25.326Z</time></trkpt><trkpt lat="40.7334037" lon="9.4050628"><ele>521.0</ele><time>2026-04-13T14:02:27.313Z</time></trkpt><trkpt lat="40.7334842" lon="9.4049797"><ele>521.0</ele><time>2026-04-13T14:02:29.324Z</time></trkpt><trkpt lat="40.7335733" lon="9.4048928"><ele>521.0</ele><time>2026-04-13T14:02:31.307Z</time></trkpt><trkpt lat="40.7336485" lon="9.4047671"><ele>521.0</ele><time>2026-04-13T14:02:33.303Z</time></trkpt><trkpt lat="40.7336763" lon="9.404612"><ele>519.0</ele><time>2026-04-13T14:02:35.305Z</time></trkpt><trkpt lat="40.733693" lon="9.4045208"><ele>517.0</ele><time>2026-04-13T14:02:36.296Z</time></trkpt><trkpt lat="40.7337193" lon="9.4044214"><ele>515.0</ele><time>2026-04-13T14:02:37.324Z</time></trkpt><trkpt lat="40.7337497" lon="9.4043119"><ele>513.0</ele><time>2026-04-13T14:02:38.31Z</time></trkpt><trkpt lat="40.7337924" lon="9.4041872"><ele>511.0</ele><time>2026-04-13T14:02:39.299Z</time></trkpt><trkpt lat="40.7338369" lon="9.4040478"><ele>511.0</ele><time>2026-04-13T14:02:40.309Z</time></trkpt><trkpt lat="40.7338745" lon="9.4039183"><ele>511.0</ele><time>2026-04-13T14:02:41.299Z</time></trkpt><trkpt lat="40.7339089" lon="9.4038015"><ele>511.0</ele><time>2026-04-13T14:02:42.292Z</time></trkpt><trkpt lat="40.7339501" lon="9.4036883"><ele>511.0</ele><time>2026-04-13T14:02:43.31Z</time></trkpt><trkpt lat="40.7339948" lon="9.403582"><ele>511.0</ele><time>2026-04-13T14:02:44.29Z</time></trkpt><trkpt lat="40.7340316" lon="9.4034837"><ele>511.33333333333337</ele><time>2026-04-13T14:02:45.326Z</time></trkpt><trkpt lat="40.7340582" lon="9.4033885"><ele>511.6666666666667</ele><time>2026-04-13T14:02:46.301Z</time></trkpt><trkpt lat="40.7340811" lon="9.4032972"><ele>512.0</ele><time>2026-04-13T14:02:47.305Z</time></trkpt><trkpt lat="40.7340915" lon="9.4031994"><ele>512.3333333333334</ele><time>2026-04-13T14:02:48.296Z</time></trkpt><trkpt lat="40.7341002" lon="9.4030814"><ele>512.6666666666666</ele><time>2026-04-13T14:02:49.29Z</time></trkpt><trkpt lat="40.7341196" lon="9.4029532"><ele>513.0</ele><time>2026-04-13T14:02:50.295Z</time></trkpt><trkpt lat="40.734139" lon="9.4028202"><ele>514.0</ele><time>2026-04-13T14:02:51.277Z</time></trkpt><trkpt lat="40.7341546" lon="9.4026824"><ele>515.0</ele><time>2026-04-13T14:02:52.289Z</time></trkpt><trkpt lat="40.7341679" lon="9.4025564"><ele>516.0</ele><time>2026-04-13T14:02:53.288Z</time></trkpt><trkpt lat="40.7341831" lon="9.4024396"><ele>517.0</ele><time>2026-04-13T14:02:54.291Z</time></trkpt><trkpt lat="40.7342001" lon="9.4023331"><ele>518.0</ele><time>2026-04-13T14:02:55.281Z</time></trkpt><trkpt lat="40.7342255" lon="9.4022229"><ele>518.5</ele><time>2026-04-13T14:02:56.281Z</time></trkpt><trkpt lat="40.7342542" lon="9.4021151"><ele>519.0</ele><time>2026-04-13T14:02:57.311Z</time></trkpt><trkpt lat="40.7342865" lon="9.4020229"><ele>519.5</ele><time>2026-04-13T14:02:58.275Z</time></trkpt><trkpt lat="40.7343257" lon="9.4019338"><ele>520.0</ele><time>2026-04-13T14:02:59.276Z</time></trkpt><trkpt lat="40.7343609" lon="9.4018338"><ele>520.5</ele><time>2026-04-13T14:03:00.287Z</time></trkpt><trkpt lat="40.7343907" lon="9.4017181"><ele>521.0</ele><time>2026-04-13T14:03:01.282Z</time></trkpt><trkpt lat="40.7344028" lon="9.4015958"><ele>521.5</ele><time>2026-04-13T14:03:02.273Z</time></trkpt><trkpt lat="40.7344016" lon="9.4014751"><ele>522.0</ele><time>2026-04-13T14:03:03.275Z</time></trkpt><trkpt lat="40.7344066" lon="9.4013604"><ele>522.5</ele><time>2026-04-13T14:03:04.268Z</time></trkpt><trkpt lat="40.7344151" lon="9.4012524"><ele>523.0</ele><time>2026-04-13T14:03:05.277Z</time></trkpt><trkpt lat="40.7344324" lon="9.4011454"><ele>523.5</ele><time>2026-04-13T14:03:06.272Z</time></trkpt><trkpt lat="40.734454" lon="9.4010387"><ele>524.0</ele><time>2026-04-13T14:03:07.287Z</time></trkpt><trkpt lat="40.7344651" lon="9.4009217"><ele>524.0</ele><time>2026-04-13T14:03:08.265Z</time></trkpt><trkpt lat="40.734472" lon="9.4007901"><ele>524.0</ele><time>2026-04-13T14:03:09.275Z</time></trkpt><trkpt lat="40.7344869" lon="9.4006504"><ele>524.0</ele><time>2026-04-13T14:03:10.266Z</time></trkpt><trkpt lat="40.7345118" lon="9.4005164"><ele>524.0</ele><time>2026-04-13T14:03:11.267Z</time></trkpt><trkpt lat="40.7345463" lon="9.4003916"><ele>524.0</ele><time>2026-04-13T14:03:12.267Z</time></trkpt><trkpt lat="40.7345864" lon="9.4002647"><ele>523.3333333333333</ele><time>2026-04-13T14:03:13.266Z</time></trkpt><trkpt lat="40.7346216" lon="9.4001586"><ele>522.6666666666666</ele><time>2026-04-13T14:03:14.258Z</time></trkpt><trkpt lat="40.7346542" lon="9.4000669"><ele>522.0</ele><time>2026-04-13T14:03:15.318Z</time></trkpt><trkpt lat="40.7346922" lon="9.3999808"><ele>521.3333333333334</ele><time>2026-04-13T14:03:16.264Z</time></trkpt><trkpt lat="40.7347475" lon="9.3998948"><ele>520.6666666666667</ele><time>2026-04-13T14:03:17.26Z</time></trkpt><trkpt lat="40.7348109" lon="9.3998062"><ele>520.0</ele><time>2026-04-13T14:03:18.262Z</time></trkpt><trkpt lat="40.7348627" lon="9.399721"><ele>519.8333333333334</ele><time>2026-04-13T14:03:19.26Z</time></trkpt><trkpt lat="40.7349062" lon="9.399645"><ele>519.6666666666667</ele><time>2026-04-13T14:03:20.259Z</time></trkpt><trkpt lat="40.7349526" lon="9.3995787"><ele>519.5</ele><time>2026-04-13T14:03:21.254Z</time></trkpt><trkpt lat="40.7350008" lon="9.3995168"><ele>519.3333333333334</ele><time>2026-04-13T14:03:22.252Z</time></trkpt><trkpt lat="40.7350448" lon="9.3994507"><ele>519.1666666666666</ele><time>2026-04-13T14:03:23.253Z</time></trkpt><trkpt lat="40.7350904" lon="9.3993599"><ele>519.0</ele><time>2026-04-13T14:03:24.255Z</time></trkpt><trkpt lat="40.7351483" lon="9.3992554"><ele>519.0</ele><time>2026-04-13T14:03:25.244Z</time></trkpt><trkpt lat="40.7352052" lon="9.3991549"><ele>519.0</ele><time>2026-04-13T14:03:26.258Z</time></trkpt><trkpt lat="40.7352623" lon="9.3990466"><ele>519.0</ele><time>2026-04-13T14:03:27.259Z</time></trkpt><trkpt lat="40.7353152" lon="9.3989375"><ele>519.0</ele><time>2026-04-13T14:03:28.259Z</time></trkpt><trkpt lat="40.7353515" lon="9.3988345"><ele>519.0</ele><time>2026-04-13T14:03:29.238Z</time></trkpt><trkpt lat="40.7353707" lon="9.3987389"><ele>518.6666666666666</ele><time>2026-04-13T14:03:30.251Z</time></trkpt><trkpt lat="40.7353838" lon="9.3986427"><ele>518.3333333333334</ele><time>2026-04-13T14:03:31.252Z</time></trkpt><trkpt lat="40.7353838" lon="9.3985502"><ele>518.0</ele><time>2026-04-13T14:03:32.249Z</time></trkpt><trkpt lat="40.7353817" lon="9.3984549"><ele>517.6666666666667</ele><time>2026-04-13T14:03:33.25Z</time></trkpt><trkpt lat="40.7353983" lon="9.3983382"><ele>517.3333333333334</ele><time>2026-04-13T14:03:34.247Z</time></trkpt><trkpt lat="40.7354249" lon="9.3982101"><ele>517.0</ele><time>2026-04-13T14:03:35.249Z</time></trkpt><trkpt lat="40.7354588" lon="9.3980823"><ele>516.4</ele><time>2026-04-13T14:03:36.239Z</time></trkpt><trkpt lat="40.7355011" lon="9.3979588"><ele>515.8000000000001</ele><time>2026-04-13T14:03:37.247Z</time></trkpt><trkpt lat="40.7355468" lon="9.397831"><ele>515.2</ele><time>2026-04-13T14:03:38.237Z</time></trkpt><trkpt lat="40.735588" lon="9.3977128"><ele>514.6</ele><time>2026-04-13T14:03:39.239Z</time></trkpt><trkpt lat="40.735626" lon="9.3976008"><ele>514.0</ele><time>2026-04-13T14:03:40.231Z</time></trkpt><trkpt lat="40.735663" lon="9.3974849"><ele>514.0</ele><time>2026-04-13T14:03:41.253Z</time></trkpt><trkpt lat="40.7356989" lon="9.397345"><ele>514.0</ele><time>2026-04-13T14:03:42.23Z</time></trkpt><trkpt lat="40.7357322" lon="9.3972037"><ele>514.0</ele><time>2026-04-13T14:03:43.25Z</time></trkpt><trkpt lat="40.7357684" lon="9.3970768"><ele>514.0</ele><time>2026-04-13T14:03:44.228Z</time></trkpt><trkpt lat="40.7358091" lon="9.3969495"><ele>514.0</ele><time>2026-04-13T14:03:45.225Z</time></trkpt><trkpt lat="40.7358484" lon="9.3968265"><ele>512.25</ele><time>2026-04-13T14:03:46.22Z</time></trkpt><trkpt lat="40.7358811" lon="9.3966978"><ele>510.5</ele><time>2026-04-13T14:03:47.229Z</time></trkpt><trkpt lat="40.7359231" lon="9.3965354"><ele>508.75</ele><time>2026-04-13T14:03:48.22Z</time></trkpt><trkpt lat="40.735963" lon="9.3963544"><ele>507.0</ele><time>2026-04-13T14:03:49.214Z</time></trkpt><trkpt lat="40.7360023" lon="9.3961902"><ele>506.3333333333333</ele><time>2026-04-13T14:03:50.221Z</time></trkpt><trkpt lat="40.7360198" lon="9.3960599"><ele>505.66666666666663</ele><time>2026-04-13T14:03:51.332Z</time></trkpt><trkpt lat="40.7360359" lon="9.3959579"><ele>505.0</ele><time>2026-04-13T14:03:52.334Z</time></trkpt><trkpt lat="40.7360665" lon="9.3958213"><ele>504.3333333333333</ele><time>2026-04-13T14:03:54.346Z</time></trkpt><trkpt lat="40.7361021" lon="9.3957392"><ele>503.66666666666663</ele><time>2026-04-13T14:03:57.331Z</time></trkpt><trkpt lat="40.7361661" lon="9.3957253"><ele>503.0</ele><time>2026-04-13T14:04:00.314Z</time></trkpt><trkpt lat="40.7362392" lon="9.3957582"><ele>503.0</ele><time>2026-04-13T14:04:03.336Z</time></trkpt><trkpt lat="40.7363303" lon="9.3958228"><ele>502.99999999999994</ele><time>2026-04-13T14:12:47.255Z</time></trkpt><trkpt lat="40.7364363" lon="9.3959085"><ele>502.99999999999994</ele><time>2026-04-13T14:12:49.244Z</time></trkpt><trkpt lat="40.7365053" lon="9.3959678"><ele>503.0</ele><time>2026-04-13T14:12:50.265Z</time></trkpt><trkpt lat="40.736593" lon="9.3960261"><ele>503.0</ele><time>2026-04-13T14:12:51.244Z</time></trkpt><trkpt lat="40.7366883" lon="9.3960975"><ele>503.0</ele><time>2026-04-13T14:12:52.246Z</time></trkpt><trkpt lat="40.7367905" lon="9.3961751"><ele>503.0</ele><time>2026-04-13T14:12:53.247Z</time></trkpt><trkpt lat="40.7369013" lon="9.3962616"><ele>503.0</ele><time>2026-04-13T14:12:54.242Z</time></trkpt><trkpt lat="40.7370164" lon="9.3963502"><ele>503.0</ele><time>2026-04-13T14:12:55.243Z</time></trkpt><trkpt lat="40.737135" lon="9.396445"><ele>502.75</ele><time>2026-04-13T14:12:56.241Z</time></trkpt><trkpt lat="40.7372568" lon="9.3965476"><ele>502.5</ele><time>2026-04-13T14:12:57.252Z</time></trkpt><trkpt lat="40.7373816" lon="9.3966558"><ele>502.25</ele><time>2026-04-13T14:12:58.241Z</time></trkpt><trkpt lat="40.7375089" lon="9.3967662"><ele>502.0</ele><time>2026-04-13T14:12:59.237Z</time></trkpt><trkpt lat="40.737639" lon="9.3968843"><ele>501.33333333333337</ele><time>2026-04-13T14:13:00.258Z</time></trkpt><trkpt lat="40.7377703" lon="9.3970045"><ele>500.66666666666663</ele><time>2026-04-13T14:13:01.246Z</time></trkpt><trkpt lat="40.7379039" lon="9.3971283"><ele>500.0</ele><time>2026-04-13T14:13:02.252Z</time></trkpt><trkpt lat="40.7380385" lon="9.3972493"><ele>500.0</ele><time>2026-04-13T14:13:03.246Z</time></trkpt><trkpt lat="40.7381737" lon="9.3973697"><ele>500.0</ele><time>2026-04-13T14:13:04.479Z</time></trkpt><trkpt lat="40.7383096" lon="9.3974957"><ele>500.0</ele><time>2026-04-13T14:13:05.44Z</time></trkpt><trkpt lat="40.7384476" lon="9.3976199"><ele>498.3333333333333</ele><time>2026-04-13T14:13:06.44Z</time></trkpt><trkpt lat="40.7385862" lon="9.3977463"><ele>496.66666666666663</ele><time>2026-04-13T14:13:07.437Z</time></trkpt><trkpt lat="40.7387261" lon="9.3978711"><ele>495.0</ele><time>2026-04-13T14:13:08.445Z</time></trkpt><trkpt lat="40.7388675" lon="9.3980007"><ele>495.33333333333337</ele><time>2026-04-13T14:13:09.435Z</time></trkpt><trkpt lat="40.7390088" lon="9.3981285"><ele>495.6666666666667</ele><time>2026-04-13T14:13:10.436Z</time></trkpt><trkpt lat="40.7391538" lon="9.3982487"><ele>496.0</ele><time>2026-04-13T14:13:11.44Z</time></trkpt><trkpt lat="40.739303" lon="9.3983627"><ele>495.6666666666667</ele><time>2026-04-13T14:13:12.446Z</time></trkpt><trkpt lat="40.7394533" lon="9.3984729"><ele>495.33333333333337</ele><time>2026-04-13T14:13:13.458Z</time></trkpt><trkpt lat="40.739602" lon="9.3985879"><ele>495.0</ele><time>2026-04-13T14:13:14.445Z</time></trkpt><trkpt lat="40.7397475" lon="9.3986978"><ele>495.0</ele><time>2026-04-13T14:13:15.442Z</time></trkpt><trkpt lat="40.7398956" lon="9.3988061"><ele>495.0</ele><time>2026-04-13T14:13:16.448Z</time></trkpt><trkpt lat="40.7400494" lon="9.3989119"><ele>495.0</ele><time>2026-04-13T14:13:17.449Z</time></trkpt><trkpt lat="40.7402141" lon="9.3990206"><ele>494.66666666666663</ele><time>2026-04-13T14:13:18.441Z</time></trkpt><trkpt lat="40.7403879" lon="9.3991274"><ele>494.3333333333333</ele><time>2026-04-13T14:13:19.435Z</time></trkpt><trkpt lat="40.7405641" lon="9.3992316"><ele>494.0</ele><time>2026-04-13T14:13:20.441Z</time></trkpt><trkpt lat="40.7407386" lon="9.399335"><ele>494.0</ele><time>2026-04-13T14:13:21.445Z</time></trkpt><trkpt lat="40.7409176" lon="9.3994423"><ele>494.0</ele><time>2026-04-13T14:13:22.437Z</time></trkpt><trkpt lat="40.7410957" lon="9.3995481"><ele>494.0</ele><time>2026-04-13T14:13:23.444Z</time></trkpt><trkpt lat="40.7412759" lon="9.3996494"><ele>494.0</ele><time>2026-04-13T14:13:24.45Z</time></trkpt><trkpt lat="40.741456" lon="9.3997529"><ele>494.0</ele><time>2026-04-13T14:13:25.455Z</time></trkpt><trkpt lat="40.7416318" lon="9.3998571"><ele>494.0</ele><time>2026-04-13T14:13:26.441Z</time></trkpt><trkpt lat="40.7418066" lon="9.3999606"><ele>493.66666666666663</ele><time>2026-04-13T14:13:27.453Z</time></trkpt><trkpt lat="40.7419812" lon="9.4000608"><ele>493.33333333333337</ele><time>2026-04-13T14:13:28.464Z</time></trkpt><trkpt lat="40.7421551" lon="9.4001683"><ele>493.0</ele><time>2026-04-13T14:13:29.444Z</time></trkpt><trkpt lat="40.7423265" lon="9.400274"><ele>493.0</ele><time>2026-04-13T14:13:30.431Z</time></trkpt><trkpt lat="40.7425019" lon="9.4003836"><ele>493.0</ele><time>2026-04-13T14:13:31.447Z</time></trkpt><trkpt lat="40.742678" lon="9.4004955"><ele>493.0</ele><time>2026-04-13T14:13:32.429Z</time></trkpt><trkpt lat="40.7428583" lon="9.4006085"><ele>493.0</ele><time>2026-04-13T14:13:33.436Z</time></trkpt><trkpt lat="40.7430392" lon="9.40072"><ele>493.0</ele><time>2026-04-13T14:13:34.441Z</time></trkpt><trkpt lat="40.7432166" lon="9.4008321"><ele>493.0</ele><time>2026-04-13T14:13:35.443Z</time></trkpt><trkpt lat="40.7433944" lon="9.4009444"><ele>494.6666666666667</ele><time>2026-04-13T14:13:36.455Z</time></trkpt><trkpt lat="40.7435712" lon="9.4010517"><ele>496.33333333333337</ele><time>2026-04-13T14:13:37.437Z</time></trkpt><trkpt lat="40.7437423" lon="9.4011687"><ele>498.0</ele><time>2026-04-13T14:13:38.438Z</time></trkpt><trkpt lat="40.74391" lon="9.4012928"><ele>496.66666666666663</ele><time>2026-04-13T14:13:39.435Z</time></trkpt><trkpt lat="40.7440645" lon="9.4014191"><ele>495.3333333333333</ele><time>2026-04-13T14:13:40.456Z</time></trkpt><trkpt lat="40.744209" lon="9.4015568"><ele>494.0</ele><time>2026-04-13T14:13:41.444Z</time></trkpt><trkpt lat="40.7443418" lon="9.4017115"><ele>497.3333333333333</ele><time>2026-04-13T14:13:42.453Z</time></trkpt><trkpt lat="40.744465" lon="9.4018837"><ele>500.66666666666663</ele><time>2026-04-13T14:13:43.439Z</time></trkpt><trkpt lat="40.7445837" lon="9.4020663"><ele>504.0</ele><time>2026-04-13T14:13:44.452Z</time></trkpt><trkpt lat="40.7446951" lon="9.4022515"><ele>504.0</ele><time>2026-04-13T14:13:45.445Z</time></trkpt><trkpt lat="40.7447996" lon="9.4024414"><ele>504.0</ele><time>2026-04-13T14:13:46.435Z</time></trkpt><trkpt lat="40.7449019" lon="9.4026303"><ele>504.0</ele><time>2026-04-13T14:13:47.452Z</time></trkpt><trkpt lat="40.7450043" lon="9.4028196"><ele>503.66666666666663</ele><time>2026-04-13T14:13:48.444Z</time></trkpt><trkpt lat="40.7450998" lon="9.4030022"><ele>503.3333333333333</ele><time>2026-04-13T14:13:49.443Z</time></trkpt><trkpt lat="40.7451905" lon="9.4031727"><ele>503.0</ele><time>2026-04-13T14:13:50.437Z</time></trkpt><trkpt lat="40.7452889" lon="9.403334"><ele>505.3333333333333</ele><time>2026-04-13T14:13:51.441Z</time></trkpt><trkpt lat="40.7454037" lon="9.4034858"><ele>507.66666666666663</ele><time>2026-04-13T14:13:52.437Z</time></trkpt><trkpt lat="40.7455336" lon="9.4036341"><ele>510.0</ele><time>2026-04-13T14:13:53.435Z</time></trkpt><trkpt lat="40.7456645" lon="9.4037816"><ele>512.0</ele><time>2026-04-13T14:13:54.435Z</time></trkpt><trkpt lat="40.7457965" lon="9.4039386"><ele>514.0</ele><time>2026-04-13T14:13:55.453Z</time></trkpt><trkpt lat="40.7459337" lon="9.4040957"><ele>516.0</ele><time>2026-04-13T14:13:56.458Z</time></trkpt><trkpt lat="40.7460749" lon="9.4042491"><ele>516.0</ele><time>2026-04-13T14:13:57.445Z</time></trkpt><trkpt lat="40.7462143" lon="9.4044032"><ele>516.0</ele><time>2026-04-13T14:13:58.45Z</time></trkpt><trkpt lat="40.7463464" lon="9.4045565"><ele>516.0</ele><time>2026-04-13T14:13:59.442Z</time></trkpt><trkpt lat="40.7464755" lon="9.4046971"><ele>512.6666666666666</ele><time>2026-04-13T14:14:00.439Z</time></trkpt><trkpt lat="40.7466115" lon="9.4048197"><ele>509.3333333333333</ele><time>2026-04-13T14:14:01.443Z</time></trkpt><trkpt lat="40.7467559" lon="9.4049214"><ele>506.0</ele><time>2026-04-13T14:14:02.449Z</time></trkpt><trkpt lat="40.7469094" lon="9.4050147"><ele>506.0</ele><time>2026-04-13T14:14:03.439Z</time></trkpt><trkpt lat="40.7470637" lon="9.4051028"><ele>506.0</ele><time>2026-04-13T14:14:04.439Z</time></trkpt><trkpt lat="40.7472149" lon="9.405204"><ele>506.0</ele><time>2026-04-13T14:14:05.451Z</time></trkpt><trkpt lat="40.7473544" lon="9.4053251"><ele>506.0</ele><time>2026-04-13T14:14:06.443Z</time></trkpt><trkpt lat="40.747476" lon="9.4054667"><ele>506.0</ele><time>2026-04-13T14:14:07.437Z</time></trkpt><trkpt lat="40.7475759" lon="9.4056155"><ele>506.0</ele><time>2026-04-13T14:14:08.446Z</time></trkpt><trkpt lat="40.7476561" lon="9.4057689"><ele>506.5</ele><time>2026-04-13T14:14:09.439Z</time></trkpt><trkpt lat="40.7477171" lon="9.4059388"><ele>507.0</ele><time>2026-04-13T14:14:10.445Z</time></trkpt><trkpt lat="40.7477613" lon="9.4061216"><ele>507.5</ele><time>2026-04-13T14:14:11.441Z</time></trkpt><trkpt lat="40.7478146" lon="9.4063104"><ele>508.0</ele><time>2026-04-13T14:14:12.447Z</time></trkpt><trkpt lat="40.7478846" lon="9.4064897"><ele>508.0</ele><time>2026-04-13T14:14:13.435Z</time></trkpt><trkpt lat="40.7479732" lon="9.4066488"><ele>508.0</ele><time>2026-04-13T14:14:14.435Z</time></trkpt><trkpt lat="40.7480795" lon="9.4067878"><ele>508.0</ele><time>2026-04-13T14:14:15.439Z</time></trkpt><trkpt lat="40.7481971" lon="9.4069058"><ele>508.0</ele><time>2026-04-13T14:14:16.434Z</time></trkpt><trkpt lat="40.7483267" lon="9.4070074"><ele>508.0</ele><time>2026-04-13T14:14:17.437Z</time></trkpt><trkpt lat="40.748468" lon="9.4071057"><ele>508.0</ele><time>2026-04-13T14:14:18.443Z</time></trkpt><trkpt lat="40.7486152" lon="9.4072024"><ele>508.0</ele><time>2026-04-13T14:14:19.442Z</time></trkpt><trkpt lat="40.7487661" lon="9.4073016"><ele>507.6666666666667</ele><time>2026-04-13T14:14:20.437Z</time></trkpt><trkpt lat="40.7489188" lon="9.4073944"><ele>507.33333333333337</ele><time>2026-04-13T14:14:21.437Z</time></trkpt><trkpt lat="40.7490796" lon="9.4074656"><ele>507.0</ele><time>2026-04-13T14:14:22.435Z</time></trkpt><trkpt lat="40.7492407" lon="9.4075182"><ele>507.0</ele><time>2026-04-13T14:14:23.43Z</time></trkpt><trkpt lat="40.7494027" lon="9.4075545"><ele>507.0</ele><time>2026-04-13T14:14:24.438Z</time></trkpt><trkpt lat="40.7495639" lon="9.4075843"><ele>507.0</ele><time>2026-04-13T14:14:25.444Z</time></trkpt><trkpt lat="40.7497285" lon="9.4076058"><ele>507.0</ele><time>2026-04-13T14:14:26.434Z</time></trkpt><trkpt lat="40.7498968" lon="9.407621"><ele>507.0</ele><time>2026-04-13T14:14:27.433Z</time></trkpt><trkpt lat="40.7500694" lon="9.4076257"><ele>507.0</ele><time>2026-04-13T14:14:28.429Z</time></trkpt><trkpt lat="40.7502429" lon="9.4076237"><ele>508.0</ele><time>2026-04-13T14:14:29.433Z</time></trkpt><trkpt lat="40.7504144" lon="9.4076121"><ele>509.0</ele><time>2026-04-13T14:14:30.43Z</time></trkpt><trkpt lat="40.7505767" lon="9.4076042"><ele>510.0</ele><time>2026-04-13T14:14:31.425Z</time></trkpt><trkpt lat="40.750726" lon="9.4076066"><ele>510.0</ele><time>2026-04-13T14:14:32.433Z</time></trkpt><trkpt lat="40.7508656" lon="9.4076257"><ele>510.0</ele><time>2026-04-13T14:14:33.425Z</time></trkpt><trkpt lat="40.750992" lon="9.4076572"><ele>510.0</ele><time>2026-04-13T14:14:34.43Z</time></trkpt><trkpt lat="40.75111" lon="9.4077075"><ele>510.0</ele><time>2026-04-13T14:14:35.437Z</time></trkpt><trkpt lat="40.7512212" lon="9.4077902"><ele>509.25</ele><time>2026-04-13T14:14:36.43Z</time></trkpt><trkpt lat="40.7513301" lon="9.4078982"><ele>508.5</ele><time>2026-04-13T14:14:37.423Z</time></trkpt><trkpt lat="40.7514285" lon="9.4080288"><ele>507.75</ele><time>2026-04-13T14:14:38.425Z</time></trkpt><trkpt lat="40.7515119" lon="9.4081778"><ele>507.0</ele><time>2026-04-13T14:14:39.424Z</time></trkpt><trkpt lat="40.7515869" lon="9.4083332"><ele>507.0</ele><time>2026-04-13T14:14:40.433Z</time></trkpt><trkpt lat="40.7516615" lon="9.4084872"><ele>507.0</ele><time>2026-04-13T14:14:41.423Z</time></trkpt><trkpt lat="40.7517459" lon="9.408613"><ele>507.0</ele><time>2026-04-13T14:14:42.433Z</time></trkpt><trkpt lat="40.7518418" lon="9.4087124"><ele>507.0</ele><time>2026-04-13T14:14:43.432Z</time></trkpt><trkpt lat="40.7519338" lon="9.4087818"><ele>506.75</ele><time>2026-04-13T14:14:44.434Z</time></trkpt><trkpt lat="40.7520413" lon="9.4088309"><ele>506.5</ele><time>2026-04-13T14:14:45.424Z</time></trkpt><trkpt lat="40.7521612" lon="9.4088504"><ele>506.25</ele><time>2026-04-13T14:14:46.422Z</time></trkpt><trkpt lat="40.7522822" lon="9.4088518"><ele>506.0</ele><time>2026-04-13T14:14:47.438Z</time></trkpt><trkpt lat="40.7524081" lon="9.4088597"><ele>506.0</ele><time>2026-04-13T14:14:48.431Z</time></trkpt><trkpt lat="40.7525347" lon="9.4088626"><ele>506.0</ele><time>2026-04-13T14:14:49.431Z</time></trkpt><trkpt lat="40.7526574" lon="9.4088631"><ele>506.0</ele><time>2026-04-13T14:14:50.422Z</time></trkpt><trkpt lat="40.7527824" lon="9.4088713"><ele>506.0</ele><time>2026-04-13T14:14:51.427Z</time></trkpt><trkpt lat="40.7528983" lon="9.4088949"><ele>507.75</ele><time>2026-04-13T14:14:52.426Z</time></trkpt><trkpt lat="40.7530076" lon="9.4089432"><ele>509.5</ele><time>2026-04-13T14:14:53.426Z</time></trkpt><trkpt lat="40.7531081" lon="9.4090243"><ele>511.25</ele><time>2026-04-13T14:14:54.424Z</time></trkpt><trkpt lat="40.7531959" lon="9.409134"><ele>513.0</ele><time>2026-04-13T14:14:55.428Z</time></trkpt><trkpt lat="40.7532805" lon="9.4092575"><ele>513.0</ele><time>2026-04-13T14:14:56.42Z</time></trkpt><trkpt lat="40.7533615" lon="9.4093979"><ele>513.0</ele><time>2026-04-13T14:14:57.422Z</time></trkpt><trkpt lat="40.7534401" lon="9.4095478"><ele>513.0</ele><time>2026-04-13T14:14:58.418Z</time></trkpt><trkpt lat="40.7535297" lon="9.4096988"><ele>513.0</ele><time>2026-04-13T14:14:59.419Z</time></trkpt><trkpt lat="40.7536271" lon="9.4098544"><ele>513.6666666666666</ele><time>2026-04-13T14:15:00.43Z</time></trkpt><trkpt lat="40.7537305" lon="9.410015"><ele>514.3333333333333</ele><time>2026-04-13T14:15:01.424Z</time></trkpt><trkpt lat="40.7538383" lon="9.4101821"><ele>515.0</ele><time>2026-04-13T14:15:02.421Z</time></trkpt><trkpt lat="40.753955" lon="9.4103492"><ele>513.0</ele><time>2026-04-13T14:15:03.425Z</time></trkpt><trkpt lat="40.7540788" lon="9.410511"><ele>511.0</ele><time>2026-04-13T14:15:04.444Z</time></trkpt><trkpt lat="40.7542097" lon="9.4106663"><ele>509.0</ele><time>2026-04-13T14:15:05.421Z</time></trkpt><trkpt lat="40.7543495" lon="9.4108146"><ele>512.6666666666666</ele><time>2026-04-13T14:15:06.418Z</time></trkpt><trkpt lat="40.7544888" lon="9.4109591"><ele>516.3333333333334</ele><time>2026-04-13T14:15:07.421Z</time></trkpt><trkpt lat="40.7546256" lon="9.4110948"><ele>520.0</ele><time>2026-04-13T14:15:08.429Z</time></trkpt><trkpt lat="40.7547597" lon="9.4112218"><ele>518.6666666666667</ele><time>2026-04-13T14:15:09.42Z</time></trkpt><trkpt lat="40.7548918" lon="9.4113405"><ele>517.3333333333334</ele><time>2026-04-13T14:15:10.412Z</time></trkpt><trkpt lat="40.7550216" lon="9.4114586"><ele>516.0</ele><time>2026-04-13T14:15:11.418Z</time></trkpt><trkpt lat="40.7551369" lon="9.4115779"><ele>517.0</ele><time>2026-04-13T14:15:12.42Z</time></trkpt><trkpt lat="40.7552314" lon="9.4117146"><ele>518.0</ele><time>2026-04-13T14:15:13.414Z</time></trkpt><trkpt lat="40.7553089" lon="9.4118635"><ele>519.0</ele><time>2026-04-13T14:15:14.428Z</time></trkpt><trkpt lat="40.7553736" lon="9.4120191"><ele>520.0</ele><time>2026-04-13T14:15:15.414Z</time></trkpt><trkpt lat="40.7554254" lon="9.4121827"><ele>520.0</ele><time>2026-04-13T14:15:16.414Z</time></trkpt><trkpt lat="40.7554557" lon="9.412351"><ele>520.0</ele><time>2026-04-13T14:15:17.433Z</time></trkpt><trkpt lat="40.7554685" lon="9.412522"><ele>520.0</ele><time>2026-04-13T14:15:18.432Z</time></trkpt><trkpt lat="40.7554663" lon="9.4126971"><ele>520.0</ele><time>2026-04-13T14:15:19.419Z</time></trkpt><trkpt lat="40.7554672" lon="9.4128899"><ele>520.0</ele><time>2026-04-13T14:15:20.425Z</time></trkpt><trkpt lat="40.7554716" lon="9.4130948"><ele>520.0</ele><time>2026-04-13T14:15:21.423Z</time></trkpt><trkpt lat="40.7554779" lon="9.4133091"><ele>520.0</ele><time>2026-04-13T14:15:22.425Z</time></trkpt><trkpt lat="40.7554874" lon="9.4135231"><ele>520.0</ele><time>2026-04-13T14:15:23.434Z</time></trkpt><trkpt lat="40.7555063" lon="9.4137377"><ele>520.0</ele><time>2026-04-13T14:15:24.436Z</time></trkpt><trkpt lat="40.7555266" lon="9.4139455"><ele>520.0</ele><time>2026-04-13T14:15:25.439Z</time></trkpt><trkpt lat="40.7555554" lon="9.4141549"><ele>519.0</ele><time>2026-04-13T14:15:26.428Z</time></trkpt><trkpt lat="40.7555878" lon="9.4143671"><ele>518.0</ele><time>2026-04-13T14:15:27.435Z</time></trkpt><trkpt lat="40.755628" lon="9.4145771"><ele>517.0</ele><time>2026-04-13T14:15:28.434Z</time></trkpt><trkpt lat="40.7556687" lon="9.4147829"><ele>515.75</ele><time>2026-04-13T14:15:29.437Z</time></trkpt><trkpt lat="40.7557109" lon="9.4149753"><ele>514.5</ele><time>2026-04-13T14:15:30.451Z</time></trkpt><trkpt lat="40.7557544" lon="9.4151587"><ele>513.25</ele><time>2026-04-13T14:15:31.45Z</time></trkpt><trkpt lat="40.7557956" lon="9.415337"><ele>512.0</ele><time>2026-04-13T14:15:32.44Z</time></trkpt><trkpt lat="40.7558299" lon="9.4155136"><ele>510.66666666666663</ele><time>2026-04-13T14:15:33.436Z</time></trkpt><trkpt lat="40.7558646" lon="9.4156943"><ele>509.33333333333337</ele><time>2026-04-13T14:15:34.444Z</time></trkpt><trkpt lat="40.7559045" lon="9.4158852"><ele>508.0</ele><time>2026-04-13T14:15:35.437Z</time></trkpt><trkpt lat="40.7559504" lon="9.4160854"><ele>508.0</ele><time>2026-04-13T14:15:36.433Z</time></trkpt><trkpt lat="40.7559961" lon="9.41629"><ele>508.0</ele><time>2026-04-13T14:15:37.44Z</time></trkpt><trkpt lat="40.7560324" lon="9.4165008"><ele>508.0</ele><time>2026-04-13T14:15:38.442Z</time></trkpt><trkpt lat="40.7560665" lon="9.4167106"><ele>508.75</ele><time>2026-04-13T14:15:39.44Z</time></trkpt><trkpt lat="40.7561028" lon="9.4169046"><ele>509.5</ele><time>2026-04-13T14:15:40.445Z</time></trkpt><trkpt lat="40.7561436" lon="9.4170865"><ele>510.25</ele><time>2026-04-13T14:15:41.452Z</time></trkpt><trkpt lat="40.7561824" lon="9.4172553"><ele>511.0</ele><time>2026-04-13T14:15:42.445Z</time></trkpt><trkpt lat="40.7562287" lon="9.4174221"><ele>511.25</ele><time>2026-04-13T14:15:43.439Z</time></trkpt><trkpt lat="40.7562854" lon="9.4175793"><ele>511.5</ele><time>2026-04-13T14:15:44.441Z</time></trkpt><trkpt lat="40.7563605" lon="9.4177418"><ele>511.75</ele><time>2026-04-13T14:15:45.431Z</time></trkpt><trkpt lat="40.7564463" lon="9.4179057"><ele>512.0</ele><time>2026-04-13T14:15:46.433Z</time></trkpt><trkpt lat="40.7565328" lon="9.4180742"><ele>512.0</ele><time>2026-04-13T14:15:47.427Z</time></trkpt><trkpt lat="40.756621" lon="9.4182434"><ele>512.0</ele><time>2026-04-13T14:15:48.426Z</time></trkpt><trkpt lat="40.7567118" lon="9.4184089"><ele>512.0</ele><time>2026-04-13T14:15:49.432Z</time></trkpt><trkpt lat="40.756803" lon="9.4185796"><ele>513.3333333333333</ele><time>2026-04-13T14:15:50.442Z</time></trkpt><trkpt lat="40.7568929" lon="9.4187562"><ele>514.6666666666666</ele><time>2026-04-13T14:15:51.434Z</time></trkpt><trkpt lat="40.7569872" lon="9.4189318"><ele>516.0</ele><time>2026-04-13T14:15:52.436Z</time></trkpt><trkpt lat="40.7570753" lon="9.4191022"><ele>516.0</ele><time>2026-04-13T14:15:53.438Z</time></trkpt><trkpt lat="40.7571496" lon="9.4192649"><ele>516.0</ele><time>2026-04-13T14:15:54.431Z</time></trkpt><trkpt lat="40.7572156" lon="9.4194123"><ele>516.0</ele><time>2026-04-13T14:15:55.436Z</time></trkpt><trkpt lat="40.7572803" lon="9.4195452"><ele>516.0</ele><time>2026-04-13T14:15:56.432Z</time></trkpt><trkpt lat="40.7573423" lon="9.419669"><ele>515.0</ele><time>2026-04-13T14:15:57.432Z</time></trkpt><trkpt lat="40.7574024" lon="9.4197866"><ele>514.0</ele><time>2026-04-13T14:15:58.43Z</time></trkpt><trkpt lat="40.7574552" lon="9.4199036"><ele>513.0</ele><time>2026-04-13T14:15:59.437Z</time></trkpt><trkpt lat="40.7575047" lon="9.4200124"><ele>512.0</ele><time>2026-04-13T14:16:00.436Z</time></trkpt><trkpt lat="40.7575446" lon="9.4201273"><ele>511.0</ele><time>2026-04-13T14:16:01.449Z</time></trkpt><trkpt lat="40.7575725" lon="9.4202572"><ele>511.0</ele><time>2026-04-13T14:16:02.436Z</time></trkpt><trkpt lat="40.7575913" lon="9.4203999"><ele>511.0</ele><time>2026-04-13T14:16:03.444Z</time></trkpt><trkpt lat="40.7576105" lon="9.4205456"><ele>511.0</ele><time>2026-04-13T14:16:04.436Z</time></trkpt><trkpt lat="40.7576377" lon="9.4206892"><ele>511.0</ele><time>2026-04-13T14:16:05.44Z</time></trkpt><trkpt lat="40.7576805" lon="9.4208264"><ele>511.0</ele><time>2026-04-13T14:16:06.441Z</time></trkpt><trkpt lat="40.7577415" lon="9.42097"><ele>511.5</ele><time>2026-04-13T14:16:07.44Z</time></trkpt><trkpt lat="40.7578184" lon="9.42111"><ele>512.0</ele><time>2026-04-13T14:16:08.444Z</time></trkpt><trkpt lat="40.7579013" lon="9.4212534"><ele>512.5</ele><time>2026-04-13T14:16:09.437Z</time></trkpt><trkpt lat="40.75798" lon="9.4214068"><ele>513.0</ele><time>2026-04-13T14:16:10.447Z</time></trkpt><trkpt lat="40.7580517" lon="9.4215799"><ele>513.0</ele><time>2026-04-13T14:16:11.442Z</time></trkpt><trkpt lat="40.758117" lon="9.4217591"><ele>513.0</ele><time>2026-04-13T14:16:12.453Z</time></trkpt><trkpt lat="40.7581984" lon="9.4219385"><ele>513.0</ele><time>2026-04-13T14:16:13.447Z</time></trkpt><trkpt lat="40.758296" lon="9.4221178"><ele>513.6666666666666</ele><time>2026-04-13T14:16:14.44Z</time></trkpt><trkpt lat="40.758405" lon="9.4222912"><ele>514.3333333333333</ele><time>2026-04-13T14:16:15.441Z</time></trkpt><trkpt lat="40.7585264" lon="9.4224624"><ele>515.0</ele><time>2026-04-13T14:16:16.444Z</time></trkpt><trkpt lat="40.7586542" lon="9.422631"><ele>515.0</ele><time>2026-04-13T14:16:17.443Z</time></trkpt><trkpt lat="40.7587751" lon="9.4227976"><ele>515.0</ele><time>2026-04-13T14:16:18.435Z</time></trkpt><trkpt lat="40.7588858" lon="9.4229547"><ele>515.0</ele><time>2026-04-13T14:16:19.453Z</time></trkpt><trkpt lat="40.7589862" lon="9.4231096"><ele>515.0</ele><time>2026-04-13T14:16:20.452Z</time></trkpt><trkpt lat="40.7590704" lon="9.4232601"><ele>515.0</ele><time>2026-04-13T14:16:21.441Z</time></trkpt><trkpt lat="40.7591446" lon="9.4234147"><ele>515.0</ele><time>2026-04-13T14:16:22.438Z</time></trkpt><trkpt lat="40.7592121" lon="9.4235654"><ele>515.0</ele><time>2026-04-13T14:16:23.444Z</time></trkpt><trkpt lat="40.7592703" lon="9.4237175"><ele>515.25</ele><time>2026-04-13T14:16:24.448Z</time></trkpt><trkpt lat="40.7593122" lon="9.4238781"><ele>515.5</ele><time>2026-04-13T14:16:25.449Z</time></trkpt><trkpt lat="40.7593291" lon="9.4240493"><ele>515.75</ele><time>2026-04-13T14:16:26.445Z</time></trkpt><trkpt lat="40.759338" lon="9.4242237"><ele>516.0</ele><time>2026-04-13T14:16:27.451Z</time></trkpt><trkpt lat="40.7593488" lon="9.4243999"><ele>516.0</ele><time>2026-04-13T14:16:28.455Z</time></trkpt><trkpt lat="40.7593729" lon="9.4245801"><ele>516.0</ele><time>2026-04-13T14:16:29.448Z</time></trkpt><trkpt lat="40.7594193" lon="9.4247569"><ele>516.0</ele><time>2026-04-13T14:16:30.453Z</time></trkpt><trkpt lat="40.75948" lon="9.4249295"><ele>516.0</ele><time>2026-04-13T14:16:31.464Z</time></trkpt><trkpt lat="40.7595504" lon="9.4250912"><ele>516.0</ele><time>2026-04-13T14:16:32.445Z</time></trkpt><trkpt lat="40.7596335" lon="9.4252332"><ele>516.0</ele><time>2026-04-13T14:16:33.447Z</time></trkpt><trkpt lat="40.7597267" lon="9.4253391"><ele>516.0</ele><time>2026-04-13T14:16:34.45Z</time></trkpt><trkpt lat="40.7598283" lon="9.4254194"><ele>516.0</ele><time>2026-04-13T14:16:35.464Z</time></trkpt><trkpt lat="40.7599397" lon="9.4254841"><ele>516.5</ele><time>2026-04-13T14:16:36.456Z</time></trkpt><trkpt lat="40.7600521" lon="9.4255447"><ele>517.0</ele><time>2026-04-13T14:16:37.447Z</time></trkpt><trkpt lat="40.7601639" lon="9.4256202"><ele>517.5</ele><time>2026-04-13T14:16:38.452Z</time></trkpt><trkpt lat="40.7602529" lon="9.4257286"><ele>518.0</ele><time>2026-04-13T14:16:39.455Z</time></trkpt><trkpt lat="40.7603245" lon="9.4258657"><ele>519.5</ele><time>2026-04-13T14:16:40.45Z</time></trkpt><trkpt lat="40.7603903" lon="9.4260158"><ele>521.0</ele><time>2026-04-13T14:16:41.447Z</time></trkpt><trkpt lat="40.7604531" lon="9.4261737"><ele>522.5</ele><time>2026-04-13T14:16:42.455Z</time></trkpt><trkpt lat="40.7605199" lon="9.4263346"><ele>524.0</ele><time>2026-04-13T14:16:43.469Z</time></trkpt><trkpt lat="40.7605931" lon="9.4264909"><ele>524.0</ele><time>2026-04-13T14:16:44.468Z</time></trkpt><trkpt lat="40.7606715" lon="9.4266514"><ele>524.0</ele><time>2026-04-13T14:16:45.45Z</time></trkpt><trkpt lat="40.7607555" lon="9.4268099"><ele>524.0</ele><time>2026-04-13T14:16:46.45Z</time></trkpt><trkpt lat="40.7608473" lon="9.4269607"><ele>524.0</ele><time>2026-04-13T14:16:47.457Z</time></trkpt><trkpt lat="40.7609427" lon="9.4271094"><ele>524.25</ele><time>2026-04-13T14:16:48.46Z</time></trkpt><trkpt lat="40.7610419" lon="9.4272535"><ele>524.5</ele><time>2026-04-13T14:16:49.449Z</time></trkpt><trkpt lat="40.7611442" lon="9.4273875"><ele>524.75</ele><time>2026-04-13T14:16:50.454Z</time></trkpt><trkpt lat="40.7612501" lon="9.4275105"><ele>525.0</ele><time>2026-04-13T14:16:51.458Z</time></trkpt><trkpt lat="40.7613664" lon="9.4276142"><ele>525.0</ele><time>2026-04-13T14:16:52.462Z</time></trkpt><trkpt lat="40.7614968" lon="9.4276991"><ele>525.0</ele><time>2026-04-13T14:16:53.464Z</time></trkpt><trkpt lat="40.7616293" lon="9.4277791"><ele>525.0</ele><time>2026-04-13T14:16:54.464Z</time></trkpt><trkpt lat="40.7617702" lon="9.4278406"><ele>525.0</ele><time>2026-04-13T14:16:55.458Z</time></trkpt><trkpt lat="40.7619237" lon="9.427877"><ele>524.6666666666666</ele><time>2026-04-13T14:16:56.464Z</time></trkpt><trkpt lat="40.7620816" lon="9.4278867"><ele>524.3333333333333</ele><time>2026-04-13T14:16:57.461Z</time></trkpt><trkpt lat="40.7622524" lon="9.4278903"><ele>524.0</ele><time>2026-04-13T14:16:58.47Z</time></trkpt><trkpt lat="40.7624245" lon="9.4278924"><ele>524.0</ele><time>2026-04-13T14:16:59.469Z</time></trkpt><trkpt lat="40.7625913" lon="9.4278883"><ele>524.0</ele><time>2026-04-13T14:17:00.46Z</time></trkpt><trkpt lat="40.7627477" lon="9.4278743"><ele>524.0</ele><time>2026-04-13T14:17:01.456Z</time></trkpt><trkpt lat="40.7628996" lon="9.427851"><ele>522.5</ele><time>2026-04-13T14:17:02.446Z</time></trkpt><trkpt lat="40.7630442" lon="9.4278126"><ele>521.0</ele><time>2026-04-13T14:17:03.456Z</time></trkpt><trkpt lat="40.7631811" lon="9.427766"><ele>519.5</ele><time>2026-04-13T14:17:04.456Z</time></trkpt><trkpt lat="40.7633074" lon="9.4277127"><ele>518.0</ele><time>2026-04-13T14:17:05.451Z</time></trkpt><trkpt lat="40.763431" lon="9.427664"><ele>518.5</ele><time>2026-04-13T14:17:06.458Z</time></trkpt><trkpt lat="40.7635595" lon="9.4276356"><ele>519.0</ele><time>2026-04-13T14:17:07.451Z</time></trkpt><trkpt lat="40.7636988" lon="9.4276339"><ele>519.5</ele><time>2026-04-13T14:17:08.455Z</time></trkpt><trkpt lat="40.7638388" lon="9.427665"><ele>520.0</ele><time>2026-04-13T14:17:09.448Z</time></trkpt><trkpt lat="40.7639715" lon="9.4277074"><ele>520.0</ele><time>2026-04-13T14:17:10.457Z</time></trkpt><trkpt lat="40.7641071" lon="9.4277313"><ele>520.0</ele><time>2026-04-13T14:17:11.47Z</time></trkpt><trkpt lat="40.7642419" lon="9.4277278"><ele>520.0</ele><time>2026-04-13T14:17:12.454Z</time></trkpt><trkpt lat="40.7643761" lon="9.4277002"><ele>520.0</ele><time>2026-04-13T14:17:13.464Z</time></trkpt><trkpt lat="40.7645117" lon="9.427667"><ele>521.0</ele><time>2026-04-13T14:17:14.456Z</time></trkpt><trkpt lat="40.7646521" lon="9.4276202"><ele>522.0</ele><time>2026-04-13T14:17:15.455Z</time></trkpt><trkpt lat="40.764787" lon="9.4275521"><ele>523.0</ele><time>2026-04-13T14:17:16.47Z</time></trkpt><trkpt lat="40.7649116" lon="9.427465"><ele>524.0</ele><time>2026-04-13T14:17:17.454Z</time></trkpt><trkpt lat="40.7650287" lon="9.4273508"><ele>524.0</ele><time>2026-04-13T14:17:18.464Z</time></trkpt><trkpt lat="40.7651339" lon="9.4272174"><ele>524.0</ele><time>2026-04-13T14:17:19.469Z</time></trkpt><trkpt lat="40.7652355" lon="9.4270885"><ele>524.0</ele><time>2026-04-13T14:17:20.462Z</time></trkpt><trkpt lat="40.7653389" lon="9.4270067"><ele>524.0</ele><time>2026-04-13T14:17:21.45Z</time></trkpt><trkpt lat="40.7654313" lon="9.4269867"><ele>524.4</ele><time>2026-04-13T14:17:22.452Z</time></trkpt><trkpt lat="40.7655258" lon="9.426997"><ele>524.8</ele><time>2026-04-13T14:17:23.45Z</time></trkpt><trkpt lat="40.7656215" lon="9.4270452"><ele>525.2</ele><time>2026-04-13T14:17:24.464Z</time></trkpt><trkpt lat="40.7657245" lon="9.4271105"><ele>525.6</ele><time>2026-04-13T14:17:25.452Z</time></trkpt><trkpt lat="40.7658333" lon="9.4271821"><ele>526.0</ele><time>2026-04-13T14:17:26.458Z</time></trkpt><trkpt lat="40.7659469" lon="9.4272675"><ele>527.75</ele><time>2026-04-13T14:17:27.459Z</time></trkpt><trkpt lat="40.7660619" lon="9.4273536"><ele>529.5</ele><time>2026-04-13T14:17:28.453Z</time></trkpt><trkpt lat="40.7661803" lon="9.4274458"><ele>531.25</ele><time>2026-04-13T14:17:29.46Z</time></trkpt><trkpt lat="40.7663067" lon="9.4275489"><ele>533.0</ele><time>2026-04-13T14:17:30.453Z</time></trkpt><trkpt lat="40.7664353" lon="9.4276627"><ele>533.0</ele><time>2026-04-13T14:17:31.455Z</time></trkpt><trkpt lat="40.7665695" lon="9.4277945"><ele>533.0</ele><time>2026-04-13T14:17:32.455Z</time></trkpt><trkpt lat="40.7667109" lon="9.4279322"><ele>533.0</ele><time>2026-04-13T14:17:33.462Z</time></trkpt><trkpt lat="40.7668584" lon="9.4280757"><ele>531.6666666666666</ele><time>2026-04-13T14:17:34.455Z</time></trkpt><trkpt lat="40.7670073" lon="9.4282228"><ele>530.3333333333334</ele><time>2026-04-13T14:17:35.455Z</time></trkpt><trkpt lat="40.7671422" lon="9.4283656"><ele>529.0</ele><time>2026-04-13T14:17:36.451Z</time></trkpt><trkpt lat="40.7672744" lon="9.4284988"><ele>529.0</ele><time>2026-04-13T14:17:37.459Z</time></trkpt><trkpt lat="40.7674042" lon="9.428618"><ele>529.0</ele><time>2026-04-13T14:17:38.458Z</time></trkpt><trkpt lat="40.7675271" lon="9.4287346"><ele>529.0</ele><time>2026-04-13T14:17:39.465Z</time></trkpt><trkpt lat="40.7676452" lon="9.4288473"><ele>530.5</ele><time>2026-04-13T14:17:40.448Z</time></trkpt><trkpt lat="40.7677611" lon="9.4289545"><ele>532.0</ele><time>2026-04-13T14:17:41.449Z</time></trkpt><trkpt lat="40.7678777" lon="9.4290629"><ele>533.5</ele><time>2026-04-13T14:17:42.457Z</time></trkpt><trkpt lat="40.7679871" lon="9.4291635"><ele>535.0</ele><time>2026-04-13T14:17:43.45Z</time></trkpt><trkpt lat="40.7680918" lon="9.4292589"><ele>535.0</ele><time>2026-04-13T14:17:44.455Z</time></trkpt><trkpt lat="40.7681961" lon="9.4293476"><ele>535.0</ele><time>2026-04-13T14:17:45.462Z</time></trkpt><trkpt lat="40.7683069" lon="9.429436"><ele>535.0</ele><time>2026-04-13T14:17:46.464Z</time></trkpt><trkpt lat="40.7684157" lon="9.4295182"><ele>535.0</ele><time>2026-04-13T14:17:47.46Z</time></trkpt><trkpt lat="40.7685198" lon="9.4295966"><ele>532.0</ele><time>2026-04-13T14:17:48.452Z</time></trkpt><trkpt lat="40.7686222" lon="9.429671"><ele>529.0</ele><time>2026-04-13T14:17:49.472Z</time></trkpt><trkpt lat="40.7687275" lon="9.4297297"><ele>526.0</ele><time>2026-04-13T14:17:50.471Z</time></trkpt><trkpt lat="40.7688366" lon="9.4297656"><ele>523.0</ele><time>2026-04-13T14:17:51.467Z</time></trkpt><trkpt lat="40.7689565" lon="9.4297665"><ele>523.0</ele><time>2026-04-13T14:17:52.462Z</time></trkpt><trkpt lat="40.7690862" lon="9.4297531"><ele>523.0</ele><time>2026-04-13T14:17:53.455Z</time></trkpt><trkpt lat="40.7692164" lon="9.4297297"><ele>523.0</ele><time>2026-04-13T14:17:54.458Z</time></trkpt><trkpt lat="40.7693368" lon="9.4296846"><ele>523.0</ele><time>2026-04-13T14:17:55.455Z</time></trkpt><trkpt lat="40.7694445" lon="9.4296147"><ele>521.1999999999999</ele><time>2026-04-13T14:17:56.455Z</time></trkpt><trkpt lat="40.7695309" lon="9.4295171"><ele>519.4</ele><time>2026-04-13T14:17:57.464Z</time></trkpt><trkpt lat="40.7695866" lon="9.4294016"><ele>517.5999999999999</ele><time>2026-04-13T14:17:58.461Z</time></trkpt><trkpt lat="40.7696315" lon="9.4292741"><ele>515.8</ele><time>2026-04-13T14:17:59.466Z</time></trkpt><trkpt lat="40.7696805" lon="9.4291397"><ele>514.0</ele><time>2026-04-13T14:18:00.457Z</time></trkpt><trkpt lat="40.7697423" lon="9.4290147"><ele>514.0</ele><time>2026-04-13T14:18:01.464Z</time></trkpt><trkpt lat="40.7698231" lon="9.428906"><ele>514.0</ele><time>2026-04-13T14:18:02.46Z</time></trkpt><trkpt lat="40.7699097" lon="9.4288062"><ele>514.0</ele><time>2026-04-13T14:18:03.453Z</time></trkpt><trkpt lat="40.7699902" lon="9.4287168"><ele>514.0</ele><time>2026-04-13T14:18:04.463Z</time></trkpt><trkpt lat="40.7700613" lon="9.4286413"><ele>514.0</ele><time>2026-04-13T14:18:05.473Z</time></trkpt><trkpt lat="40.7701327" lon="9.4285999"><ele>514.0</ele><time>2026-04-13T14:18:06.451Z</time></trkpt><trkpt lat="40.770196" lon="9.4285921"><ele>514.0</ele><time>2026-04-13T14:18:07.49Z</time></trkpt><trkpt lat="40.7702775" lon="9.4287062"><ele>514.0</ele><time>2026-04-13T14:18:09.449Z</time></trkpt><trkpt lat="40.770284" lon="9.4287947"><ele>514.0</ele><time>2026-04-13T14:18:10.448Z</time></trkpt><trkpt lat="40.7702596" lon="9.4289011"><ele>514.0</ele><time>2026-04-13T14:18:11.447Z</time></trkpt><trkpt lat="40.7702037" lon="9.4289978"><ele>514.0</ele><time>2026-04-13T14:18:12.447Z</time></trkpt><trkpt lat="40.7701404" lon="9.4290965"><ele>514.0</ele><time>2026-04-13T14:18:13.451Z</time></trkpt><trkpt lat="40.7700887" lon="9.4292069"><ele>514.0</ele><time>2026-04-13T14:18:14.445Z</time></trkpt><trkpt lat="40.7700543" lon="9.4293382"><ele>514.0</ele><time>2026-04-13T14:18:15.446Z</time></trkpt><trkpt lat="40.7700435" lon="9.4294839"><ele>514.0</ele><time>2026-04-13T14:18:16.443Z</time></trkpt><trkpt lat="40.7700373" lon="9.4296396"><ele>514.0</ele><time>2026-04-13T14:18:17.439Z</time></trkpt><trkpt lat="40.7700192" lon="9.4297834"><ele>510.79999999999995</ele><time>2026-04-13T14:18:18.493Z</time></trkpt><trkpt lat="40.76998" lon="9.4299194"><ele>507.59999999999997</ele><time>2026-04-13T14:18:19.439Z</time></trkpt><trkpt lat="40.7699308" lon="9.4300441"><ele>504.4</ele><time>2026-04-13T14:18:20.449Z</time></trkpt><trkpt lat="40.7698818" lon="9.430153"><ele>501.2</ele><time>2026-04-13T14:18:21.445Z</time></trkpt><trkpt lat="40.7698563" lon="9.430254"><ele>498.0</ele><time>2026-04-13T14:18:22.434Z</time></trkpt><trkpt lat="40.7698612" lon="9.4303432"><ele>498.0</ele><time>2026-04-13T14:18:23.436Z</time></trkpt><trkpt lat="40.7698996" lon="9.430413"><ele>497.99999999999994</ele><time>2026-04-13T14:18:24.439Z</time></trkpt><trkpt lat="40.7699646" lon="9.430464"><ele>497.99999999999994</ele><time>2026-04-13T14:18:25.44Z</time></trkpt><trkpt lat="40.7700664" lon="9.4305073"><ele>498.0</ele><time>2026-04-13T14:18:26.45Z</time></trkpt><trkpt lat="40.7701877" lon="9.4305539"><ele>498.0</ele><time>2026-04-13T14:18:27.433Z</time></trkpt><trkpt lat="40.770317" lon="9.4306201"><ele>491.75</ele><time>2026-04-13T14:18:28.428Z</time></trkpt><trkpt lat="40.7704407" lon="9.4306974"><ele>485.5</ele><time>2026-04-13T14:18:29.434Z</time></trkpt><trkpt lat="40.7705554" lon="9.4307828"><ele>479.25</ele><time>2026-04-13T14:18:30.433Z</time></trkpt><trkpt lat="40.770646" lon="9.4308791"><ele>473.0</ele><time>2026-04-13T14:18:31.435Z</time></trkpt><trkpt lat="40.7707168" lon="9.430988"><ele>473.0</ele><time>2026-04-13T14:18:32.44Z</time></trkpt><trkpt lat="40.7707789" lon="9.4311232"><ele>473.0</ele><time>2026-04-13T14:18:33.446Z</time></trkpt><trkpt lat="40.7708282" lon="9.4312754"><ele>473.0</ele><time>2026-04-13T14:18:34.432Z</time></trkpt><trkpt lat="40.7708711" lon="9.4314389"><ele>473.0</ele><time>2026-04-13T14:18:35.428Z</time></trkpt><trkpt lat="40.7709102" lon="9.4316127"><ele>472.0</ele><time>2026-04-13T14:18:36.43Z</time></trkpt><trkpt lat="40.7709433" lon="9.4317844"><ele>471.0</ele><time>2026-04-13T14:18:37.43Z</time></trkpt><trkpt lat="40.7709639" lon="9.431952"><ele>470.0</ele><time>2026-04-13T14:18:38.433Z</time></trkpt><trkpt lat="40.7709783" lon="9.4321027"><ele>469.0</ele><time>2026-04-13T14:18:39.444Z</time></trkpt><trkpt lat="40.7710111" lon="9.4322183"><ele>464.4</ele><time>2026-04-13T14:18:40.431Z</time></trkpt><trkpt lat="40.7710791" lon="9.4322945"><ele>459.79999999999995</ele><time>2026-04-13T14:18:41.43Z</time></trkpt><trkpt lat="40.7711702" lon="9.432361"><ele>455.20000000000005</ele><time>2026-04-13T14:18:42.469Z</time></trkpt><trkpt lat="40.7712801" lon="9.4324314"><ele>450.6</ele><time>2026-04-13T14:18:43.48Z</time></trkpt><trkpt lat="40.7713998" lon="9.4325061"><ele>446.0</ele><time>2026-04-13T14:18:44.439Z</time></trkpt><trkpt lat="40.7715243" lon="9.4326006"><ele>446.0</ele><time>2026-04-13T14:18:45.426Z</time></trkpt><trkpt lat="40.7716443" lon="9.432697"><ele>446.0</ele><time>2026-04-13T14:18:46.447Z</time></trkpt><trkpt lat="40.7717581" lon="9.4328046"><ele>446.0</ele><time>2026-04-13T14:18:47.431Z</time></trkpt><trkpt lat="40.7718704" lon="9.4329257"><ele>446.0</ele><time>2026-04-13T14:18:48.425Z</time></trkpt><trkpt lat="40.7719798" lon="9.4330566"><ele>442.0</ele><time>2026-04-13T14:18:49.438Z</time></trkpt><trkpt lat="40.7720832" lon="9.4331951"><ele>438.0</ele><time>2026-04-13T14:18:50.434Z</time></trkpt><trkpt lat="40.7721827" lon="9.4333438"><ele>434.0</ele><time>2026-04-13T14:18:51.427Z</time></trkpt><trkpt lat="40.7722798" lon="9.4334953"><ele>430.0</ele><time>2026-04-13T14:18:52.431Z</time></trkpt><trkpt lat="40.7723822" lon="9.4336423"><ele>430.0</ele><time>2026-04-13T14:18:53.421Z</time></trkpt><trkpt lat="40.7724944" lon="9.4337742"><ele>430.0</ele><time>2026-04-13T14:18:54.418Z</time></trkpt><trkpt lat="40.7726065" lon="9.4339053"><ele>430.0</ele><time>2026-04-13T14:18:55.417Z</time></trkpt><trkpt lat="40.772724" lon="9.4340357"><ele>423.33333333333337</ele><time>2026-04-13T14:18:56.43Z</time></trkpt><trkpt lat="40.7728476" lon="9.4341609"><ele>416.66666666666663</ele><time>2026-04-13T14:18:57.414Z</time></trkpt><trkpt lat="40.7729745" lon="9.4342832"><ele>410.0</ele><time>2026-04-13T14:18:58.409Z</time></trkpt><trkpt lat="40.7731071" lon="9.4344097"><ele>410.0</ele><time>2026-04-13T14:18:59.41Z</time></trkpt><trkpt lat="40.773237" lon="9.4345416"><ele>410.0</ele><time>2026-04-13T14:19:00.411Z</time></trkpt><trkpt lat="40.773358" lon="9.4346716"><ele>410.0</ele><time>2026-04-13T14:19:01.415Z</time></trkpt><trkpt lat="40.7734804" lon="9.4347894"><ele>405.25</ele><time>2026-04-13T14:19:02.412Z</time></trkpt><trkpt lat="40.773603" lon="9.43488"><ele>400.5</ele><time>2026-04-13T14:19:03.424Z</time></trkpt><trkpt lat="40.7737247" lon="9.4349487"><ele>395.75</ele><time>2026-04-13T14:19:04.412Z</time></trkpt><trkpt lat="40.7738498" lon="9.4349971"><ele>391.0</ele><time>2026-04-13T14:19:05.403Z</time></trkpt><trkpt lat="40.7739831" lon="9.4350244"><ele>391.0</ele><time>2026-04-13T14:19:06.412Z</time></trkpt><trkpt lat="40.7741178" lon="9.4350438"><ele>391.0</ele><time>2026-04-13T14:19:07.417Z</time></trkpt><trkpt lat="40.7742462" lon="9.4350659"><ele>391.0</ele><time>2026-04-13T14:19:08.408Z</time></trkpt><trkpt lat="40.7743568" lon="9.4350951"><ele>391.0</ele><time>2026-04-13T14:19:09.414Z</time></trkpt><trkpt lat="40.7744528" lon="9.4351425"><ele>387.75</ele><time>2026-04-13T14:19:10.507Z</time></trkpt><trkpt lat="40.7745348" lon="9.4352197"><ele>384.5</ele><time>2026-04-13T14:19:11.506Z</time></trkpt><trkpt lat="40.7746397" lon="9.4354496"><ele>381.25</ele><time>2026-04-13T14:19:13.407Z</time></trkpt><trkpt lat="40.7746527" lon="9.4356023"><ele>378.0</ele><time>2026-04-13T14:19:14.504Z</time></trkpt><trkpt lat="40.7746554" lon="9.4357759"><ele>373.75</ele><time>2026-04-13T14:19:15.515Z</time></trkpt><trkpt lat="40.7746611" lon="9.435964"><ele>369.5</ele><time>2026-04-13T14:19:16.497Z</time></trkpt><trkpt lat="40.7746744" lon="9.4361598"><ele>365.25</ele><time>2026-04-13T14:19:17.515Z</time></trkpt><trkpt lat="40.7746918" lon="9.436367"><ele>361.0</ele><time>2026-04-13T14:19:18.497Z</time></trkpt><trkpt lat="40.7747072" lon="9.4365721"><ele>357.66666666666663</ele><time>2026-04-13T14:19:19.495Z</time></trkpt><trkpt lat="40.7747304" lon="9.436772"><ele>354.3333333333333</ele><time>2026-04-13T14:19:20.507Z</time></trkpt><trkpt lat="40.774758" lon="9.436972"><ele>351.0</ele><time>2026-04-13T14:19:21.499Z</time></trkpt><trkpt lat="40.7747951" lon="9.4371803"><ele>351.0</ele><time>2026-04-13T14:19:22.498Z</time></trkpt><trkpt lat="40.7748461" lon="9.4373984"><ele>351.0</ele><time>2026-04-13T14:19:23.5Z</time></trkpt><trkpt lat="40.7749013" lon="9.4376131"><ele>351.0</ele><time>2026-04-13T14:19:24.507Z</time></trkpt><trkpt lat="40.7749563" lon="9.4378258"><ele>353.3333333333333</ele><time>2026-04-13T14:19:25.487Z</time></trkpt><trkpt lat="40.7750188" lon="9.4380283"><ele>355.66666666666663</ele><time>2026-04-13T14:19:26.495Z</time></trkpt><trkpt lat="40.7750952" lon="9.4382193"><ele>358.0</ele><time>2026-04-13T14:19:27.489Z</time></trkpt><trkpt lat="40.775188" lon="9.4384023"><ele>352.3333333333333</ele><time>2026-04-13T14:19:28.487Z</time></trkpt><trkpt lat="40.7752786" lon="9.4385803"><ele>346.6666666666667</ele><time>2026-04-13T14:19:29.496Z</time></trkpt><trkpt lat="40.7753625" lon="9.4387602"><ele>341.0</ele><time>2026-04-13T14:19:30.478Z</time></trkpt><trkpt lat="40.7754439" lon="9.4389432"><ele>341.0</ele><time>2026-04-13T14:19:31.481Z</time></trkpt><trkpt lat="40.7755103" lon="9.4391292"><ele>341.0</ele><time>2026-04-13T14:19:32.481Z</time></trkpt><trkpt lat="40.7755654" lon="9.4393272"><ele>341.0</ele><time>2026-04-13T14:19:33.478Z</time></trkpt><trkpt lat="40.7756157" lon="9.4395367"><ele>339.0</ele><time>2026-04-13T14:19:34.481Z</time></trkpt><trkpt lat="40.7756669" lon="9.4397536"><ele>337.0</ele><time>2026-04-13T14:19:35.493Z</time></trkpt><trkpt lat="40.7757239" lon="9.4399696"><ele>335.0</ele><time>2026-04-13T14:19:36.475Z</time></trkpt><trkpt lat="40.7757771" lon="9.4401747"><ele>335.0</ele><time>2026-04-13T14:19:37.478Z</time></trkpt><trkpt lat="40.7758404" lon="9.4403598"><ele>335.0</ele><time>2026-04-13T14:19:38.473Z</time></trkpt><trkpt lat="40.7759279" lon="9.4405223"><ele>335.0</ele><time>2026-04-13T14:19:39.483Z</time></trkpt><trkpt lat="40.776033" lon="9.4406811"><ele>328.33333333333337</ele><time>2026-04-13T14:19:40.473Z</time></trkpt><trkpt lat="40.7761413" lon="9.4408278"><ele>321.6666666666667</ele><time>2026-04-13T14:19:41.477Z</time></trkpt><trkpt lat="40.7762344" lon="9.4409844"><ele>315.0</ele><time>2026-04-13T14:19:42.478Z</time></trkpt><trkpt lat="40.7763168" lon="9.4411591"><ele>315.0</ele><time>2026-04-13T14:19:43.464Z</time></trkpt><trkpt lat="40.7763885" lon="9.4413443"><ele>315.0</ele><time>2026-04-13T14:19:44.474Z</time></trkpt><trkpt lat="40.7764642" lon="9.441537"><ele>315.0</ele><time>2026-04-13T14:19:45.468Z</time></trkpt><trkpt lat="40.7765407" lon="9.4417289"><ele>315.0</ele><time>2026-04-13T14:19:46.469Z</time></trkpt><trkpt lat="40.7766283" lon="9.4419061"><ele>315.0</ele><time>2026-04-13T14:19:47.469Z</time></trkpt><trkpt lat="40.7767252" lon="9.4420817"><ele>315.0</ele><time>2026-04-13T14:19:48.466Z</time></trkpt><trkpt lat="40.7768277" lon="9.4422544"><ele>312.3333333333333</ele><time>2026-04-13T14:19:49.463Z</time></trkpt><trkpt lat="40.7769333" lon="9.4424308"><ele>309.66666666666663</ele><time>2026-04-13T14:19:50.469Z</time></trkpt><trkpt lat="40.7770418" lon="9.4426106"><ele>307.0</ele><time>2026-04-13T14:19:51.461Z</time></trkpt><trkpt lat="40.7771523" lon="9.4427873"><ele>306.0</ele><time>2026-04-13T14:19:52.466Z</time></trkpt><trkpt lat="40.7772671" lon="9.4429668"><ele>305.0</ele><time>2026-04-13T14:19:53.468Z</time></trkpt><trkpt lat="40.7773811" lon="9.4431478"><ele>304.0</ele><time>2026-04-13T14:19:54.468Z</time></trkpt><trkpt lat="40.7774966" lon="9.4433277"><ele>304.0</ele><time>2026-04-13T14:19:55.46Z</time></trkpt><trkpt lat="40.7776066" lon="9.443503"><ele>304.0</ele><time>2026-04-13T14:19:56.471Z</time></trkpt><trkpt lat="40.7777082" lon="9.4436703"><ele>304.0</ele><time>2026-04-13T14:19:57.481Z</time></trkpt><trkpt lat="40.7778052" lon="9.4438321"><ele>301.3333333333333</ele><time>2026-04-13T14:19:58.465Z</time></trkpt><trkpt lat="40.7779061" lon="9.4439864"><ele>298.6666666666667</ele><time>2026-04-13T14:19:59.482Z</time></trkpt><trkpt lat="40.7780237" lon="9.4441225"><ele>296.0</ele><time>2026-04-13T14:20:00.474Z</time></trkpt><trkpt lat="40.7781568" lon="9.444234"><ele>296.0</ele><time>2026-04-13T14:20:01.476Z</time></trkpt><trkpt lat="40.7782986" lon="9.4443388"><ele>296.0</ele><time>2026-04-13T14:20:02.477Z</time></trkpt><trkpt lat="40.7784389" lon="9.4444326"><ele>296.0</ele><time>2026-04-13T14:20:03.473Z</time></trkpt><trkpt lat="40.7785766" lon="9.4445223"><ele>293.25</ele><time>2026-04-13T14:20:04.473Z</time></trkpt><trkpt lat="40.7787044" lon="9.4446123"><ele>290.5</ele><time>2026-04-13T14:20:05.47Z</time></trkpt><trkpt lat="40.7788295" lon="9.4447142"><ele>287.75</ele><time>2026-04-13T14:20:06.475Z</time></trkpt><trkpt lat="40.778951" lon="9.4448333"><ele>285.0</ele><time>2026-04-13T14:20:07.484Z</time></trkpt><trkpt lat="40.7790782" lon="9.4449628"><ele>285.0</ele><time>2026-04-13T14:20:08.478Z</time></trkpt><trkpt lat="40.7792094" lon="9.445096"><ele>285.0</ele><time>2026-04-13T14:20:09.476Z</time></trkpt><trkpt lat="40.7793401" lon="9.4452281"><ele>285.0</ele><time>2026-04-13T14:20:10.475Z</time></trkpt><trkpt lat="40.7794607" lon="9.4453558"><ele>282.75</ele><time>2026-04-13T14:20:11.482Z</time></trkpt><trkpt lat="40.7795698" lon="9.4454754"><ele>280.5</ele><time>2026-04-13T14:20:12.482Z</time></trkpt><trkpt lat="40.7796752" lon="9.4455811"><ele>278.25</ele><time>2026-04-13T14:20:13.494Z</time></trkpt><trkpt lat="40.7797773" lon="9.4456808"><ele>276.0</ele><time>2026-04-13T14:20:14.477Z</time></trkpt><trkpt lat="40.7798796" lon="9.4457813"><ele>276.0</ele><time>2026-04-13T14:20:15.484Z</time></trkpt><trkpt lat="40.7799858" lon="9.4458854"><ele>276.0</ele><time>2026-04-13T14:20:16.475Z</time></trkpt><trkpt lat="40.7800866" lon="9.4459924"><ele>276.0</ele><time>2026-04-13T14:20:17.496Z</time></trkpt><trkpt lat="40.7801758" lon="9.446105"><ele>276.0</ele><time>2026-04-13T14:20:18.478Z</time></trkpt><trkpt lat="40.7802476" lon="9.4462241"><ele>273.75</ele><time>2026-04-13T14:20:19.492Z</time></trkpt><trkpt lat="40.7802967" lon="9.4463607"><ele>271.5</ele><time>2026-04-13T14:20:20.478Z</time></trkpt><trkpt lat="40.7803357" lon="9.4465016"><ele>269.25</ele><time>2026-04-13T14:20:21.481Z</time></trkpt><trkpt lat="40.7803902" lon="9.4466455"><ele>267.0</ele><time>2026-04-13T14:20:22.477Z</time></trkpt><trkpt lat="40.7804665" lon="9.4467845"><ele>267.0</ele><time>2026-04-13T14:20:23.493Z</time></trkpt><trkpt lat="40.780562" lon="9.4469134"><ele>267.0</ele><time>2026-04-13T14:20:24.48Z</time></trkpt><trkpt lat="40.780667" lon="9.4470297"><ele>267.0</ele><time>2026-04-13T14:20:25.503Z</time></trkpt><trkpt lat="40.7807771" lon="9.447143"><ele>267.0</ele><time>2026-04-13T14:20:26.477Z</time></trkpt><trkpt lat="40.7808849" lon="9.4472527"><ele>265.6</ele><time>2026-04-13T14:20:27.481Z</time></trkpt><trkpt lat="40.7809906" lon="9.447357"><ele>264.2</ele><time>2026-04-13T14:20:28.487Z</time></trkpt><trkpt lat="40.7810831" lon="9.4474472"><ele>262.8</ele><time>2026-04-13T14:20:29.483Z</time></trkpt><trkpt lat="40.7811692" lon="9.4475287"><ele>261.4</ele><time>2026-04-13T14:20:30.491Z</time></trkpt><trkpt lat="40.7812448" lon="9.447599"><ele>260.0</ele><time>2026-04-13T14:20:31.491Z</time></trkpt><trkpt lat="40.7813089" lon="9.4476809"><ele>258.1666666666667</ele><time>2026-04-13T14:20:32.496Z</time></trkpt><trkpt lat="40.7813491" lon="9.4477788"><ele>256.33333333333337</ele><time>2026-04-13T14:20:33.488Z</time></trkpt><trkpt lat="40.7813813" lon="9.4478836"><ele>254.5</ele><time>2026-04-13T14:20:34.485Z</time></trkpt><trkpt lat="40.7814043" lon="9.4479943"><ele>252.66666666666669</ele><time>2026-04-13T14:20:35.499Z</time></trkpt><trkpt lat="40.7814341" lon="9.448101"><ele>250.83333333333334</ele><time>2026-04-13T14:20:36.488Z</time></trkpt><trkpt lat="40.7814797" lon="9.4481987"><ele>249.0</ele><time>2026-04-13T14:20:37.488Z</time></trkpt><trkpt lat="40.7815422" lon="9.4482867"><ele>249.0</ele><time>2026-04-13T14:20:38.494Z</time></trkpt><trkpt lat="40.781618" lon="9.4483589"><ele>248.99999999999997</ele><time>2026-04-13T14:20:39.493Z</time></trkpt><trkpt lat="40.7817016" lon="9.4484272"><ele>248.99999999999997</ele><time>2026-04-13T14:20:40.502Z</time></trkpt><trkpt lat="40.7817898" lon="9.4484964"><ele>249.0</ele><time>2026-04-13T14:20:41.488Z</time></trkpt><trkpt lat="40.7818881" lon="9.4485597"><ele>249.0</ele><time>2026-04-13T14:20:42.501Z</time></trkpt><trkpt lat="40.7819877" lon="9.4486171"><ele>246.79999999999998</ele><time>2026-04-13T14:20:43.49Z</time></trkpt><trkpt lat="40.7820845" lon="9.4486694"><ele>244.59999999999997</ele><time>2026-04-13T14:20:44.493Z</time></trkpt><trkpt lat="40.782187" lon="9.4487121"><ele>242.4</ele><time>2026-04-13T14:20:45.484Z</time></trkpt><trkpt lat="40.7822928" lon="9.4487656"><ele>240.2</ele><time>2026-04-13T14:20:46.493Z</time></trkpt><trkpt lat="40.7823998" lon="9.4488233"><ele>238.0</ele><time>2026-04-13T14:20:47.487Z</time></trkpt><trkpt lat="40.7825032" lon="9.448875"><ele>237.4</ele><time>2026-04-13T14:20:48.485Z</time></trkpt><trkpt lat="40.7826051" lon="9.4489232"><ele>236.8</ele><time>2026-04-13T14:20:49.499Z</time></trkpt><trkpt lat="40.7827035" lon="9.4489678"><ele>236.2</ele><time>2026-04-13T14:20:50.485Z</time></trkpt><trkpt lat="40.7827962" lon="9.4489787"><ele>235.6</ele><time>2026-04-13T14:20:51.49Z</time></trkpt><trkpt lat="40.7828846" lon="9.4489609"><ele>235.0</ele><time>2026-04-13T14:20:52.483Z</time></trkpt><trkpt lat="40.7829631" lon="9.4489148"><ele>234.83333333333331</ele><time>2026-04-13T14:20:53.487Z</time></trkpt><trkpt lat="40.7830262" lon="9.4488406"><ele>234.66666666666666</ele><time>2026-04-13T14:20:54.484Z</time></trkpt><trkpt lat="40.7830816" lon="9.4487505"><ele>234.5</ele><time>2026-04-13T14:20:55.486Z</time></trkpt><trkpt lat="40.7831371" lon="9.4486565"><ele>234.33333333333331</ele><time>2026-04-13T14:20:56.497Z</time></trkpt><trkpt lat="40.7832096" lon="9.4485852"><ele>234.16666666666666</ele><time>2026-04-13T14:20:57.486Z</time></trkpt><trkpt lat="40.7832893" lon="9.4485492"><ele>234.0</ele><time>2026-04-13T14:20:58.492Z</time></trkpt><trkpt lat="40.7833724" lon="9.4485413"><ele>234.0</ele><time>2026-04-13T14:20:59.52Z</time></trkpt><trkpt lat="40.783451" lon="9.4485677"><ele>233.99999999999997</ele><time>2026-04-13T14:21:00.485Z</time></trkpt><trkpt lat="40.7835167" lon="9.4486318"><ele>233.99999999999997</ele><time>2026-04-13T14:21:01.487Z</time></trkpt><trkpt lat="40.7835849" lon="9.448711"><ele>234.0</ele><time>2026-04-13T14:21:02.501Z</time></trkpt><trkpt lat="40.7836537" lon="9.4487975"><ele>234.0</ele><time>2026-04-13T14:21:03.496Z</time></trkpt><trkpt lat="40.7837255" lon="9.4488956"><ele>236.5</ele><time>2026-04-13T14:21:04.49Z</time></trkpt><trkpt lat="40.7838072" lon="9.4489948"><ele>239.0</ele><time>2026-04-13T14:21:05.499Z</time></trkpt><trkpt lat="40.7838994" lon="9.4490888"><ele>241.5</ele><time>2026-04-13T14:21:06.5Z</time></trkpt><trkpt lat="40.7840041" lon="9.4491765"><ele>244.0</ele><time>2026-04-13T14:21:07.501Z</time></trkpt><trkpt lat="40.784118" lon="9.4492618"><ele>244.0</ele><time>2026-04-13T14:21:08.506Z</time></trkpt><trkpt lat="40.7842305" lon="9.4493549"><ele>244.0</ele><time>2026-04-13T14:21:09.513Z</time></trkpt><trkpt lat="40.7843348" lon="9.4494492"><ele>244.0</ele><time>2026-04-13T14:21:10.5Z</time></trkpt><trkpt lat="40.7844334" lon="9.4495295"><ele>244.0</ele><time>2026-04-13T14:21:11.496Z</time></trkpt><trkpt lat="40.7845275" lon="9.4495814"><ele>244.66666666666666</ele><time>2026-04-13T14:21:12.494Z</time></trkpt><trkpt lat="40.7846161" lon="9.4496179"><ele>245.33333333333331</ele><time>2026-04-13T14:21:13.499Z</time></trkpt><trkpt lat="40.7846968" lon="9.449656"><ele>246.0</ele><time>2026-04-13T14:21:14.5Z</time></trkpt><trkpt lat="40.7847635" lon="9.4496982"><ele>246.66666666666669</ele><time>2026-04-13T14:21:15.518Z</time></trkpt><trkpt lat="40.7848334" lon="9.4497887"><ele>247.33333333333334</ele><time>2026-04-13T14:21:17.498Z</time></trkpt><trkpt lat="40.7848477" lon="9.4499181"><ele>248.0</ele><time>2026-04-13T14:21:19.495Z</time></trkpt><trkpt lat="40.7848318" lon="9.4500071"><ele>248.4</ele><time>2026-04-13T14:21:20.491Z</time></trkpt><trkpt lat="40.7848069" lon="9.4501069"><ele>248.8</ele><time>2026-04-13T14:21:21.498Z</time></trkpt><trkpt lat="40.7847773" lon="9.4502216"><ele>249.2</ele><time>2026-04-13T14:21:22.501Z</time></trkpt><trkpt lat="40.7847519" lon="9.4503499"><ele>249.6</ele><time>2026-04-13T14:21:23.495Z</time></trkpt><trkpt lat="40.784726" lon="9.4504933"><ele>250.0</ele><time>2026-04-13T14:21:24.505Z</time></trkpt><trkpt lat="40.7846969" lon="9.4506405"><ele>250.5</ele><time>2026-04-13T14:21:25.502Z</time></trkpt><trkpt lat="40.7846619" lon="9.4508054"><ele>251.0</ele><time>2026-04-13T14:21:26.496Z</time></trkpt><trkpt lat="40.7846229" lon="9.4509827"><ele>251.5</ele><time>2026-04-13T14:21:27.49Z</time></trkpt><trkpt lat="40.7845862" lon="9.4511681"><ele>252.0</ele><time>2026-04-13T14:21:28.5Z</time></trkpt><trkpt lat="40.7845515" lon="9.4513583"><ele>253.66666666666669</ele><time>2026-04-13T14:21:29.49Z</time></trkpt><trkpt lat="40.7845171" lon="9.4515579"><ele>255.33333333333334</ele><time>2026-04-13T14:21:30.495Z</time></trkpt><trkpt lat="40.7844885" lon="9.4517551"><ele>257.0</ele><time>2026-04-13T14:21:31.5Z</time></trkpt><trkpt lat="40.7844777" lon="9.4519485"><ele>258.5</ele><time>2026-04-13T14:21:32.513Z</time></trkpt><trkpt lat="40.7844846" lon="9.4521443"><ele>260.0</ele><time>2026-04-13T14:21:33.5Z</time></trkpt><trkpt lat="40.7845078" lon="9.4523371"><ele>261.5</ele><time>2026-04-13T14:21:34.507Z</time></trkpt><trkpt lat="40.7845406" lon="9.4525289"><ele>263.0</ele><time>2026-04-13T14:21:35.511Z</time></trkpt><trkpt lat="40.7845899" lon="9.4527169"><ele>263.0</ele><time>2026-04-13T14:21:36.493Z</time></trkpt><trkpt lat="40.7846549" lon="9.4528935"><ele>263.0</ele><time>2026-04-13T14:21:37.493Z</time></trkpt><trkpt lat="40.7847281" lon="9.4530652"><ele>263.0</ele><time>2026-04-13T14:21:38.497Z</time></trkpt><trkpt lat="40.7848027" lon="9.453236"><ele>263.0</ele><time>2026-04-13T14:21:39.503Z</time></trkpt><trkpt lat="40.7848826" lon="9.4534042"><ele>261.0</ele><time>2026-04-13T14:21:40.501Z</time></trkpt><trkpt lat="40.7849645" lon="9.4535773"><ele>259.0</ele><time>2026-04-13T14:21:41.492Z</time></trkpt><trkpt lat="40.7850463" lon="9.4537458"><ele>257.0</ele><time>2026-04-13T14:21:42.496Z</time></trkpt><trkpt lat="40.7851326" lon="9.4539079"><ele>259.75</ele><time>2026-04-13T14:21:43.505Z</time></trkpt><trkpt lat="40.7852156" lon="9.4540636"><ele>262.5</ele><time>2026-04-13T14:21:44.503Z</time></trkpt><trkpt lat="40.785289" lon="9.4542061"><ele>265.25</ele><time>2026-04-13T14:21:45.493Z</time></trkpt><trkpt lat="40.7853588" lon="9.4543376"><ele>268.0</ele><time>2026-04-13T14:21:46.501Z</time></trkpt><trkpt lat="40.7854277" lon="9.4544524"><ele>268.0</ele><time>2026-04-13T14:21:47.5Z</time></trkpt><trkpt lat="40.7854974" lon="9.4545561"><ele>268.0</ele><time>2026-04-13T14:21:48.503Z</time></trkpt><trkpt lat="40.7855654" lon="9.4546573"><ele>268.0</ele><time>2026-04-13T14:21:49.5Z</time></trkpt><trkpt lat="40.7856355" lon="9.4547681"><ele>268.0</ele><time>2026-04-13T14:21:50.514Z</time></trkpt><trkpt lat="40.7857065" lon="9.4548843"><ele>268.0</ele><time>2026-04-13T14:21:51.508Z</time></trkpt><trkpt lat="40.7857697" lon="9.4550103"><ele>266.0</ele><time>2026-04-13T14:21:52.506Z</time></trkpt><trkpt lat="40.7858167" lon="9.4551635"><ele>264.0</ele><time>2026-04-13T14:21:53.498Z</time></trkpt><trkpt lat="40.7858455" lon="9.4553352"><ele>262.0</ele><time>2026-04-13T14:21:54.501Z</time></trkpt><trkpt lat="40.7858731" lon="9.45551"><ele>260.0</ele><time>2026-04-13T14:21:55.507Z</time></trkpt><trkpt lat="40.7859077" lon="9.4556841"><ele>258.25</ele><time>2026-04-13T14:21:56.495Z</time></trkpt><trkpt lat="40.7859643" lon="9.45585"><ele>256.5</ele><time>2026-04-13T14:21:57.505Z</time></trkpt><trkpt lat="40.7860219" lon="9.4560262"><ele>254.75</ele><time>2026-04-13T14:21:58.51Z</time></trkpt><trkpt lat="40.7860737" lon="9.4562032"><ele>253.0</ele><time>2026-04-13T14:21:59.502Z</time></trkpt><trkpt lat="40.7861167" lon="9.4563829"><ele>258.0</ele><time>2026-04-13T14:22:00.498Z</time></trkpt><trkpt lat="40.7861557" lon="9.4565671"><ele>263.0</ele><time>2026-04-13T14:22:01.511Z</time></trkpt><trkpt lat="40.7861867" lon="9.456741"><ele>268.0</ele><time>2026-04-13T14:22:02.508Z</time></trkpt><trkpt lat="40.7862072" lon="9.4569056"><ele>273.0</ele><time>2026-04-13T14:22:03.5Z</time></trkpt><trkpt lat="40.7862208" lon="9.457061"><ele>271.8</ele><time>2026-04-13T14:22:04.504Z</time></trkpt><trkpt lat="40.7862153" lon="9.4571963"><ele>270.6</ele><time>2026-04-13T14:22:05.503Z</time></trkpt><trkpt lat="40.7861809" lon="9.4573114"><ele>269.4</ele><time>2026-04-13T14:22:06.508Z</time></trkpt><trkpt lat="40.7861204" lon="9.4574139"><ele>268.2</ele><time>2026-04-13T14:22:07.499Z</time></trkpt><trkpt lat="40.7860465" lon="9.4575027"><ele>267.0</ele><time>2026-04-13T14:22:08.497Z</time></trkpt><trkpt lat="40.7859586" lon="9.4575841"><ele>264.75</ele><time>2026-04-13T14:22:09.519Z</time></trkpt><trkpt lat="40.7858617" lon="9.457669"><ele>262.5</ele><time>2026-04-13T14:22:10.504Z</time></trkpt><trkpt lat="40.7857585" lon="9.4577492"><ele>260.25</ele><time>2026-04-13T14:22:11.501Z</time></trkpt><trkpt lat="40.7856538" lon="9.4578379"><ele>258.0</ele><time>2026-04-13T14:22:12.506Z</time></trkpt><trkpt lat="40.7855523" lon="9.457935"><ele>261.75</ele><time>2026-04-13T14:22:13.515Z</time></trkpt><trkpt lat="40.7854515" lon="9.458038"><ele>265.5</ele><time>2026-04-13T14:22:14.521Z</time></trkpt><trkpt lat="40.7853557" lon="9.4581539"><ele>269.25</ele><time>2026-04-13T14:22:15.507Z</time></trkpt><trkpt lat="40.7852709" lon="9.4582914"><ele>273.0</ele><time>2026-04-13T14:22:16.511Z</time></trkpt><trkpt lat="40.7851974" lon="9.4584408"><ele>272.75</ele><time>2026-04-13T14:22:17.508Z</time></trkpt><trkpt lat="40.7851338" lon="9.4585935"><ele>272.5</ele><time>2026-04-13T14:22:18.507Z</time></trkpt><trkpt lat="40.7850788" lon="9.4587455"><ele>272.25</ele><time>2026-04-13T14:22:19.517Z</time></trkpt><trkpt lat="40.7850277" lon="9.4588954"><ele>272.0</ele><time>2026-04-13T14:22:20.504Z</time></trkpt><trkpt lat="40.7849735" lon="9.4590266"><ele>272.6</ele><time>2026-04-13T14:22:21.5Z</time></trkpt><trkpt lat="40.7849231" lon="9.459135"><ele>273.2</ele><time>2026-04-13T14:22:22.509Z</time></trkpt><trkpt lat="40.7848815" lon="9.4592272"><ele>273.8</ele><time>2026-04-13T14:22:23.504Z</time></trkpt><trkpt lat="40.784849" lon="9.4593656"><ele>274.4</ele><time>2026-04-13T14:22:25.523Z</time></trkpt><trkpt lat="40.784888" lon="9.4595352"><ele>275.0</ele><time>2026-04-13T14:22:27.509Z</time></trkpt><trkpt lat="40.7848911" lon="9.459726"><ele>276.0</ele><time>2026-04-13T14:22:29.504Z</time></trkpt><trkpt lat="40.7848878" lon="9.4598186"><ele>277.0</ele><time>2026-04-13T14:22:30.514Z</time></trkpt><trkpt lat="40.7848849" lon="9.4599116"><ele>278.0</ele><time>2026-04-13T14:22:31.519Z</time></trkpt><trkpt lat="40.7848855" lon="9.4600066"><ele>279.0</ele><time>2026-04-13T14:22:32.524Z</time></trkpt><trkpt lat="40.7848823" lon="9.4601094"><ele>280.0</ele><time>2026-04-13T14:22:33.511Z</time></trkpt><trkpt lat="40.7848756" lon="9.4602179"><ele>281.0</ele><time>2026-04-13T14:22:34.501Z</time></trkpt><trkpt lat="40.7848635" lon="9.4603232"><ele>281.0</ele><time>2026-04-13T14:22:35.411Z</time></trkpt><trkpt lat="40.7848528" lon="9.4604281"><ele>281.0</ele><time>2026-04-13T14:22:36.411Z</time></trkpt><trkpt lat="40.7848433" lon="9.4605314"><ele>281.0</ele><time>2026-04-13T14:22:37.511Z</time></trkpt><trkpt lat="40.7848407" lon="9.4606404"><ele>281.0</ele><time>2026-04-13T14:22:38.505Z</time></trkpt><trkpt lat="40.7848346" lon="9.4607592"><ele>281.0</ele><time>2026-04-13T14:22:39.499Z</time></trkpt><trkpt lat="40.7848297" lon="9.4608766"><ele>281.0</ele><time>2026-04-13T14:22:40.502Z</time></trkpt><trkpt lat="40.7848264" lon="9.4609947"><ele>281.6</ele><time>2026-04-13T14:22:41.506Z</time></trkpt><trkpt lat="40.7848252" lon="9.4611137"><ele>282.20000000000005</ele><time>2026-04-13T14:22:42.412Z</time></trkpt><trkpt lat="40.7848201" lon="9.4612331"><ele>282.79999999999995</ele><time>2026-04-13T14:22:43.418Z</time></trkpt><trkpt lat="40.7848072" lon="9.4613486"><ele>283.4</ele><time>2026-04-13T14:22:44.511Z</time></trkpt><trkpt lat="40.7847674" lon="9.4615773"><ele>284.0</ele><time>2026-04-13T14:22:46.512Z</time></trkpt><trkpt lat="40.784744" lon="9.4616995"><ele>284.59999999999997</ele><time>2026-04-13T14:22:47.501Z</time></trkpt><trkpt lat="40.7847259" lon="9.4618304"><ele>285.2</ele><time>2026-04-13T14:22:48.405Z</time></trkpt><trkpt lat="40.7847071" lon="9.4619685"><ele>285.79999999999995</ele><time>2026-04-13T14:22:49.403Z</time></trkpt><trkpt lat="40.7846836" lon="9.4620919"><ele>286.4</ele><time>2026-04-13T14:22:50.405Z</time></trkpt><trkpt lat="40.784659" lon="9.4622075"><ele>287.0</ele><time>2026-04-13T14:22:51.526Z</time></trkpt><trkpt lat="40.7846323" lon="9.462324"><ele>287.2</ele><time>2026-04-13T14:22:52.513Z</time></trkpt><trkpt lat="40.7845988" lon="9.4624426"><ele>287.4</ele><time>2026-04-13T14:22:53.499Z</time></trkpt><trkpt lat="40.7845624" lon="9.4625621"><ele>287.6</ele><time>2026-04-13T14:22:54.517Z</time></trkpt><trkpt lat="40.7845111" lon="9.4627862"><ele>287.8</ele><time>2026-04-13T14:22:56.411Z</time></trkpt><trkpt lat="40.7844906" lon="9.4628785"><ele>288.0</ele><time>2026-04-13T14:22:57.41Z</time></trkpt><trkpt lat="40.7844591" lon="9.4629619"><ele>288.4</ele><time>2026-04-13T14:22:58.408Z</time></trkpt><trkpt lat="40.7844251" lon="9.4630486"><ele>288.8</ele><time>2026-04-13T14:22:59.407Z</time></trkpt><trkpt lat="40.7843917" lon="9.4631479"><ele>289.2</ele><time>2026-04-13T14:23:00.507Z</time></trkpt><trkpt lat="40.7843585" lon="9.4632445"><ele>289.6</ele><time>2026-04-13T14:23:01.52Z</time></trkpt><trkpt lat="40.7843138" lon="9.4633367"><ele>290.0</ele><time>2026-04-13T14:23:02.507Z</time></trkpt><trkpt lat="40.7841965" lon="9.463491"><ele>288.6</ele><time>2026-04-13T14:23:04.401Z</time></trkpt><trkpt lat="40.7841363" lon="9.4635743"><ele>287.2</ele><time>2026-04-13T14:23:05.406Z</time></trkpt><trkpt lat="40.7840791" lon="9.4636729"><ele>285.8</ele><time>2026-04-13T14:23:06.406Z</time></trkpt><trkpt lat="40.7840188" lon="9.4637796"><ele>284.4</ele><time>2026-04-13T14:23:07.53Z</time></trkpt><trkpt lat="40.7839683" lon="9.4638892"><ele>283.0</ele><time>2026-04-13T14:23:08.51Z</time></trkpt><trkpt lat="40.7839285" lon="9.4640059"><ele>283.0</ele><time>2026-04-13T14:23:09.514Z</time></trkpt><trkpt lat="40.7838596" lon="9.4642295"><ele>283.0</ele><time>2026-04-13T14:23:11.405Z</time></trkpt><trkpt lat="40.7838328" lon="9.4643396"><ele>283.0</ele><time>2026-04-13T14:23:12.406Z</time></trkpt><trkpt lat="40.7838032" lon="9.4644589"><ele>283.0</ele><time>2026-04-13T14:23:13.416Z</time></trkpt><trkpt lat="40.7837798" lon="9.4645692"><ele>283.0</ele><time>2026-04-13T14:23:14.421Z</time></trkpt><trkpt lat="40.7837576" lon="9.4646652"><ele>283.0</ele><time>2026-04-13T14:23:15.422Z</time></trkpt><trkpt lat="40.7837366" lon="9.4647464"><ele>283.0</ele><time>2026-04-13T14:23:16.51Z</time></trkpt><trkpt lat="40.783688" lon="9.4649039"><ele>283.0</ele><time>2026-04-13T14:23:18.408Z</time></trkpt><trkpt lat="40.7836527" lon="9.4650124"><ele>283.0</ele><time>2026-04-13T14:23:19.409Z</time></trkpt><trkpt lat="40.7836152" lon="9.465135"><ele>283.0</ele><time>2026-04-13T14:23:20.409Z</time></trkpt><trkpt lat="40.7835766" lon="9.4652686"><ele>283.0</ele><time>2026-04-13T14:23:21.408Z</time></trkpt><trkpt lat="40.7835404" lon="9.4654051"><ele>283.0</ele><time>2026-04-13T14:23:22.418Z</time></trkpt><trkpt lat="40.7835033" lon="9.465551"><ele>283.0</ele><time>2026-04-13T14:23:23.516Z</time></trkpt><trkpt lat="40.7834272" lon="9.4658324"><ele>282.6</ele><time>2026-04-13T14:23:25.407Z</time></trkpt><trkpt lat="40.7833935" lon="9.4659612"><ele>282.20000000000005</ele><time>2026-04-13T14:23:26.518Z</time></trkpt><trkpt lat="40.7833593" lon="9.4660867"><ele>281.8</ele><time>2026-04-13T14:23:27.513Z</time></trkpt><trkpt lat="40.7833261" lon="9.466215"><ele>281.40000000000003</ele><time>2026-04-13T14:23:28.507Z</time></trkpt><trkpt lat="40.7832917" lon="9.4663396"><ele>281.0</ele><time>2026-04-13T14:23:29.505Z</time></trkpt><trkpt lat="40.7832601" lon="9.4664639"><ele>282.5</ele><time>2026-04-13T14:23:30.507Z</time></trkpt><trkpt lat="40.7831908" lon="9.4667163"><ele>284.0</ele><time>2026-04-13T14:23:32.404Z</time></trkpt><trkpt lat="40.7831528" lon="9.4668437"><ele>285.5</ele><time>2026-04-13T14:23:33.415Z</time></trkpt><trkpt lat="40.7831097" lon="9.4669708"><ele>287.0</ele><time>2026-04-13T14:23:34.403Z</time></trkpt><trkpt lat="40.7830726" lon="9.4670907"><ele>288.0</ele><time>2026-04-13T14:23:35.427Z</time></trkpt><trkpt lat="40.7830519" lon="9.4672112"><ele>289.0</ele><time>2026-04-13T14:23:36.506Z</time></trkpt><trkpt lat="40.7830345" lon="9.4673295"><ele>290.0</ele><time>2026-04-13T14:23:37.419Z</time></trkpt><trkpt lat="40.7830209" lon="9.4674489"><ele>291.0</ele><time>2026-04-13T14:23:38.416Z</time></trkpt><trkpt lat="40.7830114" lon="9.4675693"><ele>292.0</ele><time>2026-04-13T14:23:39.404Z</time></trkpt><trkpt lat="40.7830047" lon="9.4676866"><ele>292.0</ele><time>2026-04-13T14:23:40.409Z</time></trkpt><trkpt lat="40.7829985" lon="9.4677998"><ele>292.0</ele><time>2026-04-13T14:23:41.409Z</time></trkpt><trkpt lat="40.7829926" lon="9.4679091"><ele>292.0</ele><time>2026-04-13T14:23:42.42Z</time></trkpt><trkpt lat="40.7829915" lon="9.4680075"><ele>292.0</ele><time>2026-04-13T14:23:43.412Z</time></trkpt><trkpt lat="40.7829884" lon="9.4681132"><ele>292.0</ele><time>2026-04-13T14:23:44.411Z</time></trkpt><trkpt lat="40.7829927" lon="9.4682263"><ele>292.0</ele><time>2026-04-13T14:23:45.408Z</time></trkpt><trkpt lat="40.7830004" lon="9.46835"><ele>293.0</ele><time>2026-04-13T14:23:46.405Z</time></trkpt><trkpt lat="40.7830069" lon="9.4684757"><ele>294.0</ele><time>2026-04-13T14:23:47.508Z</time></trkpt><trkpt lat="40.7830136" lon="9.4686088"><ele>295.0</ele><time>2026-04-13T14:23:48.505Z</time></trkpt><trkpt lat="40.783008" lon="9.4687491"><ele>296.0</ele><time>2026-04-13T14:23:49.5Z</time></trkpt><trkpt lat="40.7829857" lon="9.4688883"><ele>297.0</ele><time>2026-04-13T14:23:50.502Z</time></trkpt><trkpt lat="40.7829576" lon="9.469026"><ele>297.2</ele><time>2026-04-13T14:23:51.508Z</time></trkpt><trkpt lat="40.7829377" lon="9.4692648"><ele>297.4</ele><time>2026-04-13T14:23:53.504Z</time></trkpt><trkpt lat="40.7829332" lon="9.4693601"><ele>297.6</ele><time>2026-04-13T14:23:54.5Z</time></trkpt><trkpt lat="40.7829154" lon="9.4694583"><ele>297.8</ele><time>2026-04-13T14:23:55.514Z</time></trkpt><trkpt lat="40.7828821" lon="9.4695751"><ele>298.0</ele><time>2026-04-13T14:23:56.497Z</time></trkpt><trkpt lat="40.7828541" lon="9.4696981"><ele>297.0</ele><time>2026-04-13T14:23:57.496Z</time></trkpt><trkpt lat="40.7828316" lon="9.4698313"><ele>296.0</ele><time>2026-04-13T14:23:58.507Z</time></trkpt><trkpt lat="40.782809" lon="9.4699737"><ele>295.0</ele><time>2026-04-13T14:23:59.513Z</time></trkpt><trkpt lat="40.7827757" lon="9.4701166"><ele>294.0</ele><time>2026-04-13T14:24:00.498Z</time></trkpt><trkpt lat="40.7827556" lon="9.4702472"><ele>293.0</ele><time>2026-04-13T14:24:01.495Z</time></trkpt><trkpt lat="40.782747" lon="9.4703654"><ele>292.8</ele><time>2026-04-13T14:24:02.51Z</time></trkpt><trkpt lat="40.7827421" lon="9.4704715"><ele>292.6</ele><time>2026-04-13T14:24:03.506Z</time></trkpt><trkpt lat="40.7827285" lon="9.4705839"><ele>292.4</ele><time>2026-04-13T14:24:04.523Z</time></trkpt><trkpt lat="40.7827002" lon="9.4707039"><ele>292.2</ele><time>2026-04-13T14:24:05.493Z</time></trkpt><trkpt lat="40.7826608" lon="9.4708273"><ele>292.0</ele><time>2026-04-13T14:24:06.505Z</time></trkpt><trkpt lat="40.7826266" lon="9.470954"><ele>291.3333333333333</ele><time>2026-04-13T14:24:07.498Z</time></trkpt><trkpt lat="40.7826161" lon="9.4710788"><ele>290.66666666666663</ele><time>2026-04-13T14:24:08.493Z</time></trkpt><trkpt lat="40.7826092" lon="9.4712202"><ele>290.0</ele><time>2026-04-13T14:24:09.499Z</time></trkpt><trkpt lat="40.782604" lon="9.4713518"><ele>289.3333333333333</ele><time>2026-04-13T14:24:10.511Z</time></trkpt><trkpt lat="40.7825997" lon="9.4714518"><ele>288.6666666666667</ele><time>2026-04-13T14:24:11.499Z</time></trkpt><trkpt lat="40.7826028" lon="9.4715404"><ele>288.0</ele><time>2026-04-13T14:24:12.49Z</time></trkpt><trkpt lat="40.7826083" lon="9.4716336"><ele>288.0</ele><time>2026-04-13T14:24:13.499Z</time></trkpt><trkpt lat="40.7826116" lon="9.4717867"><ele>288.0</ele><time>2026-04-13T14:24:15.514Z</time></trkpt><trkpt lat="40.7825533" lon="9.4718944"><ele>288.0</ele><time>2026-04-13T14:24:17.492Z</time></trkpt><trkpt lat="40.7824493" lon="9.4719792"><ele>288.0</ele><time>2026-04-13T14:24:19.506Z</time></trkpt><trkpt lat="40.782392" lon="9.4720202"><ele>288.0</ele><time>2026-04-13T14:24:20.513Z</time></trkpt><trkpt lat="40.7823325" lon="9.4720641"><ele>288.4</ele><time>2026-04-13T14:24:21.494Z</time></trkpt><trkpt lat="40.7822619" lon="9.4721149"><ele>288.8</ele><time>2026-04-13T14:24:22.518Z</time></trkpt><trkpt lat="40.7821822" lon="9.4721734"><ele>289.2</ele><time>2026-04-13T14:24:23.54Z</time></trkpt><trkpt lat="40.7820941" lon="9.4722412"><ele>289.6</ele><time>2026-04-13T14:24:24.491Z</time></trkpt><trkpt lat="40.7819973" lon="9.4723079"><ele>290.0</ele><time>2026-04-13T14:24:25.502Z</time></trkpt><trkpt lat="40.7819037" lon="9.4723545"><ele>289.5</ele><time>2026-04-13T14:24:26.489Z</time></trkpt><trkpt lat="40.7818163" lon="9.4723844"><ele>289.0</ele><time>2026-04-13T14:24:27.5Z</time></trkpt><trkpt lat="40.7817381" lon="9.4724024"><ele>288.5</ele><time>2026-04-13T14:24:28.5Z</time></trkpt><trkpt lat="40.7816633" lon="9.4724081"><ele>288.0</ele><time>2026-04-13T14:24:29.494Z</time></trkpt><trkpt lat="40.7815853" lon="9.4723969"><ele>287.5</ele><time>2026-04-13T14:24:30.494Z</time></trkpt><trkpt lat="40.7815002" lon="9.4723837"><ele>287.0</ele><time>2026-04-13T14:24:31.515Z</time></trkpt><trkpt lat="40.7814004" lon="9.4723761"><ele>287.0</ele><time>2026-04-13T14:24:32.494Z</time></trkpt><trkpt lat="40.7812868" lon="9.4723759"><ele>287.0</ele><time>2026-04-13T14:24:33.5Z</time></trkpt><trkpt lat="40.7811693" lon="9.4723781"><ele>287.0</ele><time>2026-04-13T14:24:34.501Z</time></trkpt><trkpt lat="40.7810486" lon="9.4723763"><ele>287.0</ele><time>2026-04-13T14:24:35.5Z</time></trkpt><trkpt lat="40.7809287" lon="9.4723703"><ele>288.2</ele><time>2026-04-13T14:24:36.51Z</time></trkpt><trkpt lat="40.7808222" lon="9.4723609"><ele>289.4</ele><time>2026-04-13T14:24:37.499Z</time></trkpt><trkpt lat="40.7807233" lon="9.4723449"><ele>290.6</ele><time>2026-04-13T14:24:38.498Z</time></trkpt><trkpt lat="40.7806267" lon="9.4723317"><ele>291.8</ele><time>2026-04-13T14:24:39.519Z</time></trkpt><trkpt lat="40.7805385" lon="9.472312"><ele>293.0</ele><time>2026-04-13T14:24:40.493Z</time></trkpt><trkpt lat="40.7804538" lon="9.4722748"><ele>293.0</ele><time>2026-04-13T14:24:41.492Z</time></trkpt><trkpt lat="40.7803667" lon="9.4722351"><ele>293.0</ele><time>2026-04-13T14:24:42.494Z</time></trkpt><trkpt lat="40.7802768" lon="9.472191"><ele>293.0</ele><time>2026-04-13T14:24:43.491Z</time></trkpt><trkpt lat="40.7801893" lon="9.472146"><ele>293.0</ele><time>2026-04-13T14:24:44.486Z</time></trkpt><trkpt lat="40.7801088" lon="9.4721019"><ele>293.0</ele><time>2026-04-13T14:24:45.515Z</time></trkpt><trkpt lat="40.7800342" lon="9.4720541"><ele>292.0</ele><time>2026-04-13T14:24:46.489Z</time></trkpt><trkpt lat="40.7799627" lon="9.4719928"><ele>291.0</ele><time>2026-04-13T14:24:47.486Z</time></trkpt><trkpt lat="40.7798928" lon="9.4719139"><ele>290.0</ele><time>2026-04-13T14:24:48.492Z</time></trkpt><trkpt lat="40.7798249" lon="9.4718137"><ele>289.0</ele><time>2026-04-13T14:24:49.505Z</time></trkpt><trkpt lat="40.7797752" lon="9.4716948"><ele>288.0</ele><time>2026-04-13T14:24:50.489Z</time></trkpt><trkpt lat="40.7797382" lon="9.4715667"><ele>288.0</ele><time>2026-04-13T14:24:51.514Z</time></trkpt><trkpt lat="40.7797155" lon="9.4714287"><ele>288.0</ele><time>2026-04-13T14:24:52.492Z</time></trkpt><trkpt lat="40.7797038" lon="9.4712746"><ele>288.0</ele><time>2026-04-13T14:24:53.49Z</time></trkpt><trkpt lat="40.7796988" lon="9.4711166"><ele>288.0</ele><time>2026-04-13T14:24:54.499Z</time></trkpt><trkpt lat="40.7796959" lon="9.4709498"><ele>287.8</ele><time>2026-04-13T14:24:55.501Z</time></trkpt><trkpt lat="40.7796988" lon="9.4707974"><ele>287.6</ele><time>2026-04-13T14:24:56.488Z</time></trkpt><trkpt lat="40.7797008" lon="9.4706595"><ele>287.4</ele><time>2026-04-13T14:24:57.488Z</time></trkpt><trkpt lat="40.7796963" lon="9.4705287"><ele>287.2</ele><time>2026-04-13T14:24:58.493Z</time></trkpt><trkpt lat="40.7796838" lon="9.4704073"><ele>287.0</ele><time>2026-04-13T14:24:59.499Z</time></trkpt><trkpt lat="40.7796536" lon="9.470296"><ele>287.0</ele><time>2026-04-13T14:25:00.502Z</time></trkpt><trkpt lat="40.7796021" lon="9.4701902"><ele>287.0</ele><time>2026-04-13T14:25:01.496Z</time></trkpt><trkpt lat="40.7795296" lon="9.4701014"><ele>287.0</ele><time>2026-04-13T14:25:02.492Z</time></trkpt><trkpt lat="40.7794331" lon="9.4700282"><ele>287.0</ele><time>2026-04-13T14:25:03.493Z</time></trkpt><trkpt lat="40.7793252" lon="9.4699603"><ele>287.0</ele><time>2026-04-13T14:25:04.522Z</time></trkpt><trkpt lat="40.7792111" lon="9.4698959"><ele>287.0</ele><time>2026-04-13T14:25:05.487Z</time></trkpt><trkpt lat="40.7790859" lon="9.4698414"><ele>287.0</ele><time>2026-04-13T14:25:06.492Z</time></trkpt><trkpt lat="40.7789664" lon="9.4697866"><ele>287.0</ele><time>2026-04-13T14:25:07.494Z</time></trkpt><trkpt lat="40.7788621" lon="9.4697345"><ele>287.0</ele><time>2026-04-13T14:25:08.487Z</time></trkpt><trkpt lat="40.7787668" lon="9.4696757"><ele>287.75</ele><time>2026-04-13T14:25:09.498Z</time></trkpt><trkpt lat="40.7786734" lon="9.4695976"><ele>288.5</ele><time>2026-04-13T14:25:10.489Z</time></trkpt><trkpt lat="40.7785833" lon="9.4695034"><ele>289.25</ele><time>2026-04-13T14:25:11.496Z</time></trkpt><trkpt lat="40.778492" lon="9.4693995"><ele>290.0</ele><time>2026-04-13T14:25:12.5Z</time></trkpt><trkpt lat="40.7784072" lon="9.4692938"><ele>291.0</ele><time>2026-04-13T14:25:13.508Z</time></trkpt><trkpt lat="40.7783233" lon="9.4691764"><ele>292.0</ele><time>2026-04-13T14:25:14.49Z</time></trkpt><trkpt lat="40.7782468" lon="9.4690514"><ele>293.0</ele><time>2026-04-13T14:25:15.505Z</time></trkpt><trkpt lat="40.7781788" lon="9.468937"><ele>294.0</ele><time>2026-04-13T14:25:16.5Z</time></trkpt><trkpt lat="40.7781245" lon="9.4688323"><ele>294.1666666666667</ele><time>2026-04-13T14:25:17.488Z</time></trkpt><trkpt lat="40.7780765" lon="9.4687455"><ele>294.3333333333333</ele><time>2026-04-13T14:25:18.487Z</time></trkpt><trkpt lat="40.7780413" lon="9.4686737"><ele>294.5</ele><time>2026-04-13T14:25:19.508Z</time></trkpt><trkpt lat="40.7779943" lon="9.4685741"><ele>294.66666666666663</ele><time>2026-04-13T14:25:21.507Z</time></trkpt><trkpt lat="40.7779433" lon="9.4685095"><ele>294.8333333333333</ele><time>2026-04-13T14:25:24.518Z</time></trkpt><trkpt lat="40.7778715" lon="9.4684948"><ele>295.0</ele><time>2026-04-13T14:25:26.504Z</time></trkpt><trkpt lat="40.7777739" lon="9.468566"><ele>295.00000000000006</ele><time>2026-04-13T14:25:28.488Z</time></trkpt><trkpt lat="40.7777205" lon="9.4686287"><ele>295.0</ele><time>2026-04-13T14:25:29.496Z</time></trkpt><trkpt lat="40.7776717" lon="9.4686969"><ele>295.0</ele><time>2026-04-13T14:25:30.494Z</time></trkpt><trkpt lat="40.7776165" lon="9.4687655"><ele>295.0</ele><time>2026-04-13T14:25:31.49Z</time></trkpt><trkpt lat="40.7775649" lon="9.4688359"><ele>295.0</ele><time>2026-04-13T14:25:32.505Z</time></trkpt><trkpt lat="40.7775154" lon="9.4689085"><ele>295.00000000000006</ele><time>2026-04-13T14:25:33.495Z</time></trkpt><trkpt lat="40.7774584" lon="9.4689819"><ele>295.0</ele><time>2026-04-13T14:25:34.51Z</time></trkpt><trkpt lat="40.7773936" lon="9.4690568"><ele>295.2</ele><time>2026-04-13T14:25:35.496Z</time></trkpt><trkpt lat="40.7773271" lon="9.4691327"><ele>295.4</ele><time>2026-04-13T14:25:36.494Z</time></trkpt><trkpt lat="40.7772669" lon="9.4692206"><ele>295.6</ele><time>2026-04-13T14:25:37.5Z</time></trkpt><trkpt lat="40.7772092" lon="9.4693189"><ele>295.8</ele><time>2026-04-13T14:25:38.493Z</time></trkpt><trkpt lat="40.7771466" lon="9.4694262"><ele>296.0</ele><time>2026-04-13T14:25:39.491Z</time></trkpt><trkpt lat="40.7770787" lon="9.4695383"><ele>296.25</ele><time>2026-04-13T14:25:40.497Z</time></trkpt><trkpt lat="40.7770067" lon="9.469654"><ele>296.5</ele><time>2026-04-13T14:25:41.495Z</time></trkpt><trkpt lat="40.7769334" lon="9.4697726"><ele>296.75</ele><time>2026-04-13T14:25:42.495Z</time></trkpt><trkpt lat="40.7768606" lon="9.469894"><ele>297.0</ele><time>2026-04-13T14:25:43.5Z</time></trkpt><trkpt lat="40.776791" lon="9.4700154"><ele>298.0</ele><time>2026-04-13T14:25:44.494Z</time></trkpt><trkpt lat="40.7767146" lon="9.4701424"><ele>299.0</ele><time>2026-04-13T14:25:45.504Z</time></trkpt><trkpt lat="40.7766317" lon="9.4702762"><ele>300.0</ele><time>2026-04-13T14:25:46.497Z</time></trkpt><trkpt lat="40.7765468" lon="9.4704092"><ele>301.0</ele><time>2026-04-13T14:25:47.5Z</time></trkpt><trkpt lat="40.7764618" lon="9.4705352"><ele>301.5</ele><time>2026-04-13T14:25:48.503Z</time></trkpt><trkpt lat="40.7763719" lon="9.4706535"><ele>302.0</ele><time>2026-04-13T14:25:49.501Z</time></trkpt><trkpt lat="40.7762722" lon="9.4707572"><ele>302.5</ele><time>2026-04-13T14:25:50.489Z</time></trkpt><trkpt lat="40.7761609" lon="9.4708539"><ele>303.0</ele><time>2026-04-13T14:25:51.49Z</time></trkpt><trkpt lat="40.7760419" lon="9.4709402"><ele>304.5</ele><time>2026-04-13T14:25:52.489Z</time></trkpt><trkpt lat="40.7759184" lon="9.471024"><ele>306.0</ele><time>2026-04-13T14:25:53.496Z</time></trkpt><trkpt lat="40.7757966" lon="9.4711107"><ele>307.5</ele><time>2026-04-13T14:25:54.506Z</time></trkpt><trkpt lat="40.7756735" lon="9.4712"><ele>309.0</ele><time>2026-04-13T14:25:55.494Z</time></trkpt><trkpt lat="40.7755503" lon="9.4712913"><ele>309.0</ele><time>2026-04-13T14:25:56.5Z</time></trkpt><trkpt lat="40.7754289" lon="9.4713802"><ele>309.0</ele><time>2026-04-13T14:25:57.507Z</time></trkpt><trkpt lat="40.7753071" lon="9.4714655"><ele>309.0</ele><time>2026-04-13T14:25:58.49Z</time></trkpt><trkpt lat="40.7751862" lon="9.471543"><ele>309.0</ele><time>2026-04-13T14:25:59.485Z</time></trkpt><trkpt lat="40.7750591" lon="9.4716041"><ele>311.75</ele><time>2026-04-13T14:26:00.484Z</time></trkpt><trkpt lat="40.7749253" lon="9.4716398"><ele>314.5</ele><time>2026-04-13T14:26:01.496Z</time></trkpt><trkpt lat="40.774785" lon="9.4716503"><ele>317.25</ele><time>2026-04-13T14:26:02.485Z</time></trkpt><trkpt lat="40.77464" lon="9.4716364"><ele>320.0</ele><time>2026-04-13T14:26:03.48Z</time></trkpt><trkpt lat="40.7744926" lon="9.4716085"><ele>321.5</ele><time>2026-04-13T14:26:04.492Z</time></trkpt><trkpt lat="40.7743466" lon="9.471579"><ele>323.0</ele><time>2026-04-13T14:26:05.502Z</time></trkpt><trkpt lat="40.7742038" lon="9.4715632"><ele>324.5</ele><time>2026-04-13T14:26:06.499Z</time></trkpt><trkpt lat="40.7740702" lon="9.4715591"><ele>326.0</ele><time>2026-04-13T14:26:07.49Z</time></trkpt><trkpt lat="40.7739453" lon="9.4715729"><ele>326.0</ele><time>2026-04-13T14:26:08.495Z</time></trkpt><trkpt lat="40.773822" lon="9.4716052"><ele>326.0</ele><time>2026-04-13T14:26:09.494Z</time></trkpt><trkpt lat="40.773704" lon="9.4716689"><ele>326.0</ele><time>2026-04-13T14:26:10.493Z</time></trkpt><trkpt lat="40.7735992" lon="9.4717486"><ele>326.0</ele><time>2026-04-13T14:26:11.507Z</time></trkpt><trkpt lat="40.7735083" lon="9.4718326"><ele>326.0</ele><time>2026-04-13T14:26:12.493Z</time></trkpt><trkpt lat="40.7734291" lon="9.4719101"><ele>326.0</ele><time>2026-04-13T14:26:13.518Z</time></trkpt><trkpt lat="40.7733627" lon="9.4719704"><ele>326.0</ele><time>2026-04-13T14:26:14.491Z</time></trkpt><trkpt lat="40.7733005" lon="9.4720118"><ele>326.0</ele><time>2026-04-13T14:26:15.501Z</time></trkpt><trkpt lat="40.7732405" lon="9.4720424"><ele>326.0</ele><time>2026-04-13T14:26:16.489Z</time></trkpt><trkpt lat="40.773152" lon="9.4721389"><ele>326.0</ele><time>2026-04-13T14:26:18.49Z</time></trkpt><trkpt lat="40.773097" lon="9.4722883"><ele>326.0</ele><time>2026-04-13T14:26:20.492Z</time></trkpt><trkpt lat="40.7730829" lon="9.4723794"><ele>326.0</ele><time>2026-04-13T14:26:21.504Z</time></trkpt><trkpt lat="40.7730457" lon="9.4726571"><ele>326.0</ele><time>2026-04-13T14:26:24.508Z</time></trkpt><trkpt lat="40.7730189" lon="9.4727709"><ele>326.0</ele><time>2026-04-13T14:26:25.492Z</time></trkpt><trkpt lat="40.7729274" lon="9.4732665"><ele>326.5</ele><time>2026-04-13T14:26:29.503Z</time></trkpt><trkpt lat="40.7729172" lon="9.4733958"><ele>327.0</ele><time>2026-04-13T14:26:30.484Z</time></trkpt><trkpt lat="40.772822" lon="9.4740535"><ele>327.0</ele><time>2026-04-13T14:26:35.509Z</time></trkpt><trkpt lat="40.7727308" lon="9.4745589"><ele>327.0</ele><time>2026-04-13T14:26:39.492Z</time></trkpt><trkpt lat="40.7727008" lon="9.4747023"><ele>329.0</ele><time>2026-04-13T14:26:40.485Z</time></trkpt><trkpt lat="40.7725395" lon="9.475397"><ele>331.0</ele><time>2026-04-13T14:26:45.478Z</time></trkpt><trkpt lat="40.7725045" lon="9.4755415"><ele>333.0</ele><time>2026-04-13T14:26:46.48Z</time></trkpt><trkpt lat="40.7723304" lon="9.4761674"><ele>333.5</ele><time>2026-04-13T14:26:51.484Z</time></trkpt><trkpt lat="40.7722168" lon="9.4766512"><ele>334.0</ele><time>2026-04-13T14:26:55.489Z</time></trkpt><trkpt lat="40.7719741" lon="9.4771661"><ele>334.0</ele><time>2026-04-13T14:27:00.473Z</time></trkpt><trkpt lat="40.7719126" lon="9.4772722"><ele>334.0</ele><time>2026-04-13T14:27:01.46Z</time></trkpt><trkpt lat="40.7717031" lon="9.4776236"><ele>334.0</ele><time>2026-04-13T14:27:05.471Z</time></trkpt><trkpt lat="40.7716628" lon="9.4777003"><ele>335.0</ele><time>2026-04-13T14:27:06.453Z</time></trkpt><trkpt lat="40.7714026" lon="9.4780099"><ele>336.0</ele><time>2026-04-13T14:27:10.451Z</time></trkpt><trkpt lat="40.7713154" lon="9.4780509"><ele>337.0</ele><time>2026-04-13T14:27:11.468Z</time></trkpt><trkpt lat="40.7710694" lon="9.4781975"><ele>337.0</ele><time>2026-04-13T14:27:15.471Z</time></trkpt><trkpt lat="40.7710613" lon="9.4783522"><ele>337.0</ele><time>2026-04-13T14:27:18.468Z</time></trkpt><trkpt lat="40.7710983" lon="9.4784284"><ele>337.0</ele><time>2026-04-13T14:27:19.461Z</time></trkpt><trkpt lat="40.7712989" lon="9.4787584"><ele>339.3333333333333</ele><time>2026-04-13T14:27:23.454Z</time></trkpt><trkpt lat="40.7713711" lon="9.4788247"><ele>341.6666666666667</ele><time>2026-04-13T14:27:24.474Z</time></trkpt><trkpt lat="40.771452" lon="9.4788897"><ele>344.0</ele><time>2026-04-13T14:27:25.453Z</time></trkpt><trkpt lat="40.7718176" lon="9.479049"><ele>344.0</ele><time>2026-04-13T14:27:29.481Z</time></trkpt><trkpt lat="40.7719111" lon="9.4790798"><ele>344.0</ele><time>2026-04-13T14:27:30.466Z</time></trkpt><trkpt lat="40.7723038" lon="9.4792713"><ele>344.0</ele><time>2026-04-13T14:27:34.451Z</time></trkpt><trkpt lat="40.7723823" lon="9.4793121"><ele>344.0</ele><time>2026-04-13T14:27:35.46Z</time></trkpt><trkpt lat="40.7726785" lon="9.4795171"><ele>344.0</ele><time>2026-04-13T14:27:39.449Z</time></trkpt><trkpt lat="40.7730651" lon="9.4797643"><ele>344.25</ele><time>2026-04-13T14:27:43.444Z</time></trkpt><trkpt lat="40.7731469" lon="9.479813"><ele>344.5</ele><time>2026-04-13T14:27:44.457Z</time></trkpt><trkpt lat="40.7733627" lon="9.4799473"><ele>344.75</ele><time>2026-04-13T14:27:47.478Z</time></trkpt><trkpt lat="40.7734314" lon="9.4800127"><ele>345.0</ele><time>2026-04-13T14:27:48.447Z</time></trkpt><trkpt lat="40.7737814" lon="9.4802522"><ele>346.0</ele><time>2026-04-13T14:27:52.491Z</time></trkpt><trkpt lat="40.7738565" lon="9.4803072"><ele>347.0</ele><time>2026-04-13T14:27:53.469Z</time></trkpt><trkpt lat="40.7741612" lon="9.4805184"><ele>348.0</ele><time>2026-04-13T14:27:57.455Z</time></trkpt><trkpt lat="40.7742353" lon="9.4805846"><ele>342.0</ele><time>2026-04-13T14:27:58.45Z</time></trkpt><trkpt lat="40.7743993" lon="9.4807485"><ele>336.0</ele><time>2026-04-13T14:28:01.453Z</time></trkpt><trkpt lat="40.7746031" lon="9.4811676"><ele>339.3333333333333</ele><time>2026-04-13T14:28:07.473Z</time></trkpt><trkpt lat="40.7746084" lon="9.4812911"><ele>342.66666666666663</ele><time>2026-04-13T14:28:08.454Z</time></trkpt><trkpt lat="40.7746898" lon="9.4817156"><ele>346.0</ele><time>2026-04-13T14:28:12.443Z</time></trkpt><trkpt lat="40.774764" lon="9.4817792"><ele>346.0</ele><time>2026-04-13T14:28:13.453Z</time></trkpt><trkpt lat="40.7749343" lon="9.4819256"><ele>346.0</ele><time>2026-04-13T14:28:15.444Z</time></trkpt><trkpt lat="40.7751297" lon="9.4820809"><ele>346.0</ele><time>2026-04-13T14:28:17.444Z</time></trkpt><trkpt lat="40.7752986" lon="9.4822156"><ele>347.0</ele><time>2026-04-13T14:28:19.441Z</time></trkpt><trkpt lat="40.775369" lon="9.4822748"><ele>348.0</ele><time>2026-04-13T14:28:20.447Z</time></trkpt><trkpt lat="40.7756105" lon="9.4825131"><ele>349.0</ele><time>2026-04-13T14:28:25.464Z</time></trkpt><trkpt lat="40.7757751" lon="9.482657"><ele>349.0</ele><time>2026-04-13T14:28:29.439Z</time></trkpt><trkpt lat="40.7758373" lon="9.4827144"><ele>349.0</ele><time>2026-04-13T14:28:30.43Z</time></trkpt><trkpt lat="40.7762234" lon="9.4829723"><ele>352.0</ele><time>2026-04-13T14:28:35.445Z</time></trkpt><trkpt lat="40.7766627" lon="9.4830309"><ele>355.0</ele><time>2026-04-13T14:28:40.428Z</time></trkpt><trkpt lat="40.7771694" lon="9.483189"><ele>359.0</ele><time>2026-04-13T14:28:45.42Z</time></trkpt><trkpt lat="40.7773929" lon="9.4832699"><ele>363.0</ele><time>2026-04-13T14:28:47.432Z</time></trkpt><trkpt lat="40.7779073" lon="9.4834664"><ele>366.0</ele><time>2026-04-13T14:28:52.439Z</time></trkpt><trkpt lat="40.7779868" lon="9.4835279"><ele>369.0</ele><time>2026-04-13T14:28:53.426Z</time></trkpt><trkpt lat="40.7781162" lon="9.4837235"><ele>372.0</ele><time>2026-04-13T14:28:57.42Z</time></trkpt><trkpt lat="40.7781127" lon="9.4838912"><ele>375.0</ele><time>2026-04-13T14:29:01.406Z</time></trkpt><trkpt lat="40.7781002" lon="9.4840245"><ele>375.25</ele><time>2026-04-13T14:29:03.41Z</time></trkpt><trkpt lat="40.7780544" lon="9.4843358"><ele>375.5</ele><time>2026-04-13T14:29:07.428Z</time></trkpt><trkpt lat="40.7780431" lon="9.4844191"><ele>375.75</ele><time>2026-04-13T14:29:08.513Z</time></trkpt><trkpt lat="40.7780199" lon="9.4845862"><ele>376.0</ele><time>2026-04-13T14:29:10.5Z</time></trkpt><trkpt lat="40.7780093" lon="9.484864"><ele>377.0</ele><time>2026-04-13T14:29:13.503Z</time></trkpt><trkpt lat="40.778008" lon="9.4849594"><ele>378.0</ele><time>2026-04-13T14:29:14.515Z</time></trkpt><trkpt lat="40.7779943" lon="9.4853616"><ele>379.0</ele><time>2026-04-13T14:29:18.5Z</time></trkpt><trkpt lat="40.7779782" lon="9.4854581"><ele>383.0</ele><time>2026-04-13T14:29:19.502Z</time></trkpt><trkpt lat="40.777868" lon="9.4858276"><ele>387.0</ele><time>2026-04-13T14:29:23.523Z</time></trkpt><trkpt lat="40.7778314" lon="9.4859116"><ele>391.0</ele><time>2026-04-13T14:29:24.499Z</time></trkpt><trkpt lat="40.7776187" lon="9.4861638"><ele>395.33333333333337</ele><time>2026-04-13T14:29:28.514Z</time></trkpt><trkpt lat="40.7773541" lon="9.486238"><ele>399.66666666666663</ele><time>2026-04-13T14:29:32.491Z</time></trkpt><trkpt lat="40.7772838" lon="9.4862424"><ele>404.0</ele><time>2026-04-13T14:29:33.489Z</time></trkpt><trkpt lat="40.7770884" lon="9.4862739"><ele>406.0</ele><time>2026-04-13T14:29:36.487Z</time></trkpt><trkpt lat="40.7770124" lon="9.4862985"><ele>408.0</ele><time>2026-04-13T14:29:37.504Z</time></trkpt><trkpt lat="40.7768536" lon="9.4863658"><ele>410.0</ele><time>2026-04-13T14:29:39.493Z</time></trkpt><trkpt lat="40.7767725" lon="9.4863978"><ele>412.0</ele><time>2026-04-13T14:29:40.49Z</time></trkpt><trkpt lat="40.7764884" lon="9.4865682"><ele>414.25</ele><time>2026-04-13T14:29:44.496Z</time></trkpt><trkpt lat="40.7764315" lon="9.4866475"><ele>416.5</ele><time>2026-04-13T14:29:45.49Z</time></trkpt><trkpt lat="40.7763698" lon="9.4867272"><ele>418.75</ele><time>2026-04-13T14:29:46.513Z</time></trkpt><trkpt lat="40.7763232" lon="9.4868172"><ele>421.0</ele><time>2026-04-13T14:29:47.498Z</time></trkpt><trkpt lat="40.7761844" lon="9.4872441"><ele>421.33333333333337</ele><time>2026-04-13T14:29:51.488Z</time></trkpt><trkpt lat="40.7761551" lon="9.4873374"><ele>421.66666666666663</ele><time>2026-04-13T14:29:52.498Z</time></trkpt><trkpt lat="40.7760241" lon="9.4876128"><ele>422.0</ele><time>2026-04-13T14:29:55.49Z</time></trkpt><trkpt lat="40.7756642" lon="9.4879178"><ele>427.66666666666663</ele><time>2026-04-13T14:30:01.504Z</time></trkpt><trkpt lat="40.775625" lon="9.4879983"><ele>433.33333333333337</ele><time>2026-04-13T14:30:02.503Z</time></trkpt><trkpt lat="40.7755584" lon="9.4883999"><ele>439.0</ele><time>2026-04-13T14:30:06.483Z</time></trkpt><trkpt lat="40.7755514" lon="9.4885063"><ele>439.0</ele><time>2026-04-13T14:30:07.495Z</time></trkpt><trkpt lat="40.77552" lon="9.4887588"><ele>439.0</ele><time>2026-04-13T14:30:09.496Z</time></trkpt><trkpt lat="40.7754577" lon="9.4891415"><ele>440.33333333333337</ele><time>2026-04-13T14:30:12.495Z</time></trkpt><trkpt lat="40.7754363" lon="9.4893597"><ele>441.66666666666663</ele><time>2026-04-13T14:30:14.5Z</time></trkpt><trkpt lat="40.775439" lon="9.489456"><ele>443.0</ele><time>2026-04-13T14:30:15.494Z</time></trkpt><trkpt lat="40.7754739" lon="9.4897935"><ele>450.5</ele><time>2026-04-13T14:30:19.487Z</time></trkpt><trkpt lat="40.7755172" lon="9.4902221"><ele>458.0</ele><time>2026-04-13T14:30:24.486Z</time></trkpt><trkpt lat="40.7757141" lon="9.4904757"><ele>461.66666666666663</ele><time>2026-04-13T14:30:29.488Z</time></trkpt><trkpt lat="40.7758419" lon="9.490716"><ele>465.33333333333337</ele><time>2026-04-13T14:30:33.495Z</time></trkpt><trkpt lat="40.775904" lon="9.4909898"><ele>469.0</ele><time>2026-04-13T14:30:37.469Z</time></trkpt><trkpt lat="40.7759175" lon="9.4911941"><ele>470.6</ele><time>2026-04-13T14:30:40.479Z</time></trkpt><trkpt lat="40.7759274" lon="9.4912798"><ele>472.2</ele><time>2026-04-13T14:30:41.471Z</time></trkpt><trkpt lat="40.7759356" lon="9.4913776"><ele>473.80000000000007</ele><time>2026-04-13T14:30:42.468Z</time></trkpt><trkpt lat="40.7759431" lon="9.4914869"><ele>475.40000000000003</ele><time>2026-04-13T14:30:43.461Z</time></trkpt><trkpt lat="40.7759477" lon="9.4916061"><ele>477.0</ele><time>2026-04-13T14:30:44.476Z</time></trkpt><trkpt lat="40.7759763" lon="9.4919966"><ele>477.0</ele><time>2026-04-13T14:30:48.486Z</time></trkpt><trkpt lat="40.7759964" lon="9.4921178"><ele>477.0</ele><time>2026-04-13T14:30:50.459Z</time></trkpt><trkpt lat="40.7759766" lon="9.4924541"><ele>477.0</ele><time>2026-04-13T14:30:54.492Z</time></trkpt><trkpt lat="40.775965" lon="9.492568"><ele>477.0</ele><time>2026-04-13T14:30:55.472Z</time></trkpt><trkpt lat="40.7758946" lon="9.4930419"><ele>476.33333333333337</ele><time>2026-04-13T14:30:59.468Z</time></trkpt><trkpt lat="40.7758749" lon="9.4933994"><ele>475.6666666666667</ele><time>2026-04-13T14:31:02.473Z</time></trkpt><trkpt lat="40.7758751" lon="9.4935198"><ele>475.0</ele><time>2026-04-13T14:31:03.463Z</time></trkpt><trkpt lat="40.7758254" lon="9.493911"><ele>474.6</ele><time>2026-04-13T14:31:07.498Z</time></trkpt><trkpt lat="40.7758145" lon="9.4939934"><ele>474.2</ele><time>2026-04-13T14:31:08.464Z</time></trkpt><trkpt lat="40.7757872" lon="9.4941868"><ele>473.79999999999995</ele><time>2026-04-13T14:31:12.463Z</time></trkpt><trkpt lat="40.7758011" lon="9.4943178"><ele>473.4</ele><time>2026-04-13T14:33:39.498Z</time></trkpt><trkpt lat="40.7757984" lon="9.4944264"><ele>473.0</ele><time>2026-04-13T14:33:43.482Z</time></trkpt><trkpt lat="40.7757925" lon="9.4945668"><ele>470.5</ele><time>2026-04-13T14:33:47.487Z</time></trkpt><trkpt lat="40.7757778" lon="9.4948859"><ele>468.0</ele><time>2026-04-13T14:33:52.48Z</time></trkpt><trkpt lat="40.7757849" lon="9.4952573"><ele>468.0</ele><time>2026-04-13T14:33:57.476Z</time></trkpt><trkpt lat="40.7757785" lon="9.4956152"><ele>468.0</ele><time>2026-04-13T14:34:01.463Z</time></trkpt><trkpt lat="40.7757423" lon="9.4957128"><ele>468.0</ele><time>2026-04-13T14:34:02.471Z</time></trkpt><trkpt lat="40.7756346" lon="9.4959981"><ele>468.0</ele><time>2026-04-13T14:34:05.469Z</time></trkpt><trkpt lat="40.7755934" lon="9.4960884"><ele>468.0</ele><time>2026-04-13T14:34:06.474Z</time></trkpt><trkpt lat="40.7755187" lon="9.496279"><ele>468.0</ele><time>2026-04-13T14:34:08.473Z</time></trkpt><trkpt lat="40.7754804" lon="9.4963722"><ele>468.0</ele><time>2026-04-13T14:34:09.465Z</time></trkpt><trkpt lat="40.775339" lon="9.4966013"><ele>468.0</ele><time>2026-04-13T14:34:12.458Z</time></trkpt><trkpt lat="40.7752658" lon="9.4966565"><ele>468.0</ele><time>2026-04-13T14:34:13.473Z</time></trkpt><trkpt lat="40.7749814" lon="9.4969017"><ele>468.0</ele><time>2026-04-13T14:34:18.465Z</time></trkpt><trkpt lat="40.7749263" lon="9.4973423"><ele>460.33333333333337</ele><time>2026-04-13T14:34:23.457Z</time></trkpt><trkpt lat="40.7749357" lon="9.4977467"><ele>452.6666666666667</ele><time>2026-04-13T14:34:27.448Z</time></trkpt><trkpt lat="40.7749316" lon="9.49785"><ele>445.0</ele><time>2026-04-13T14:34:28.451Z</time></trkpt><trkpt lat="40.7749486" lon="9.498339"><ele>442.33333333333337</ele><time>2026-04-13T14:34:33.46Z</time></trkpt><trkpt lat="40.7747665" lon="9.4986601"><ele>439.66666666666663</ele><time>2026-04-13T14:34:38.465Z</time></trkpt><trkpt lat="40.7746906" lon="9.4986724"><ele>437.0</ele><time>2026-04-13T14:34:39.446Z</time></trkpt><trkpt lat="40.774467" lon="9.4984964"><ele>437.0</ele><time>2026-04-13T14:34:43.455Z</time></trkpt><trkpt lat="40.7744298" lon="9.4984219"><ele>437.0</ele><time>2026-04-13T14:34:44.45Z</time></trkpt><trkpt lat="40.7743572" lon="9.4981765"><ele>437.0</ele><time>2026-04-13T14:34:47.467Z</time></trkpt><trkpt lat="40.7743409" lon="9.4980803"><ele>437.0</ele><time>2026-04-13T14:34:48.44Z</time></trkpt><trkpt lat="40.7743201" lon="9.4977986"><ele>437.3333333333333</ele><time>2026-04-13T14:34:51.45Z</time></trkpt><trkpt lat="40.7743214" lon="9.4977108"><ele>437.66666666666663</ele><time>2026-04-13T14:34:52.436Z</time></trkpt><trkpt lat="40.7740176" lon="9.4976657"><ele>438.0</ele><time>2026-04-13T14:34:58.448Z</time></trkpt><trkpt lat="40.7739483" lon="9.4977356"><ele>432.0</ele><time>2026-04-13T14:34:59.447Z</time></trkpt><trkpt lat="40.7737243" lon="9.4981666"><ele>426.0</ele><time>2026-04-13T14:35:03.448Z</time></trkpt><trkpt lat="40.7734843" lon="9.4985188"><ele>424.0</ele><time>2026-04-13T14:35:07.441Z</time></trkpt><trkpt lat="40.7734221" lon="9.4985886"><ele>422.0</ele><time>2026-04-13T14:35:08.444Z</time></trkpt><trkpt lat="40.7730486" lon="9.498791"><ele>421.0</ele><time>2026-04-13T14:35:13.434Z</time></trkpt><trkpt lat="40.772963" lon="9.4987965"><ele>420.0</ele><time>2026-04-13T14:35:14.435Z</time></trkpt><trkpt lat="40.7726625" lon="9.4988292"><ele>419.0</ele><time>2026-04-13T14:35:18.428Z</time></trkpt><trkpt lat="40.7724062" lon="9.4988375"><ele>418.66666666666663</ele><time>2026-04-13T14:35:22.453Z</time></trkpt><trkpt lat="40.7723273" lon="9.4987994"><ele>418.33333333333337</ele><time>2026-04-13T14:35:23.434Z</time></trkpt><trkpt lat="40.7720517" lon="9.4987205"><ele>418.0</ele><time>2026-04-13T14:35:26.433Z</time></trkpt><trkpt lat="40.7717761" lon="9.4986071"><ele>413.75</ele><time>2026-04-13T14:35:30.435Z</time></trkpt><trkpt lat="40.7717362" lon="9.4985366"><ele>409.5</ele><time>2026-04-13T14:35:31.44Z</time></trkpt><trkpt lat="40.7715533" lon="9.4983459"><ele>405.25</ele><time>2026-04-13T14:35:35.436Z</time></trkpt><trkpt lat="40.7714742" lon="9.4983623"><ele>401.0</ele><time>2026-04-13T14:35:36.429Z</time></trkpt><trkpt lat="40.7711342" lon="9.4984303"><ele>401.0</ele><time>2026-04-13T14:35:40.425Z</time></trkpt><trkpt lat="40.7710672" lon="9.4984282"><ele>401.0</ele><time>2026-04-13T14:35:41.429Z</time></trkpt><trkpt lat="40.7709705" lon="9.4983518"><ele>401.0</ele><time>2026-04-13T14:35:43.42Z</time></trkpt><trkpt lat="40.7708134" lon="9.4978709"><ele>400.5</ele><time>2026-04-13T14:35:48.416Z</time></trkpt><trkpt lat="40.7707874" lon="9.4977694"><ele>400.0</ele><time>2026-04-13T14:35:49.425Z</time></trkpt><trkpt lat="40.7706447" lon="9.4976013"><ele>399.5</ele><time>2026-04-13T14:35:53.424Z</time></trkpt><trkpt lat="40.7705904" lon="9.4977955"><ele>399.0</ele><time>2026-04-13T14:35:57.422Z</time></trkpt><trkpt lat="40.770591" lon="9.4979008"><ele>394.33333333333337</ele><time>2026-04-13T14:35:58.412Z</time></trkpt><trkpt lat="40.7705638" lon="9.4981599"><ele>389.6666666666667</ele><time>2026-04-13T14:36:00.418Z</time></trkpt><trkpt lat="40.7705308" lon="9.4982837"><ele>385.0</ele><time>2026-04-13T14:36:01.42Z</time></trkpt><trkpt lat="40.7704112" lon="9.4986408"><ele>385.0</ele><time>2026-04-13T14:36:04.415Z</time></trkpt><trkpt lat="40.7703818" lon="9.4987281"><ele>385.0</ele><time>2026-04-13T14:36:05.419Z</time></trkpt><trkpt lat="40.7704622" lon="9.4991783"><ele>385.0</ele><time>2026-04-13T14:36:09.41Z</time></trkpt><trkpt lat="40.7704637" lon="9.4992902"><ele>378.0</ele><time>2026-04-13T14:36:10.412Z</time></trkpt><trkpt lat="40.7704978" lon="9.4994982"><ele>371.0</ele><time>2026-04-13T14:36:12.407Z</time></trkpt><trkpt lat="40.7705134" lon="9.4996029"><ele>364.0</ele><time>2026-04-13T14:36:13.413Z</time></trkpt><trkpt lat="40.7704515" lon="9.4999326"><ele>357.0</ele><time>2026-04-13T14:36:16.415Z</time></trkpt><trkpt lat="40.7704211" lon="9.5000417"><ele>350.0</ele><time>2026-04-13T14:36:17.406Z</time></trkpt><trkpt lat="40.7702949" lon="9.5004248"><ele>343.0</ele><time>2026-04-13T14:36:21.457Z</time></trkpt><trkpt lat="40.7702521" lon="9.5005078"><ele>347.0</ele><time>2026-04-13T14:36:22.409Z</time></trkpt><trkpt lat="40.7701121" lon="9.5009517"><ele>351.0</ele><time>2026-04-13T14:36:27.405Z</time></trkpt><trkpt lat="40.7700526" lon="9.501011"><ele>355.0</ele><time>2026-04-13T14:36:28.413Z</time></trkpt><trkpt lat="40.7697476" lon="9.5010489"><ele>355.0</ele><time>2026-04-13T14:36:32.399Z</time></trkpt><trkpt lat="40.7696753" lon="9.5009999"><ele>355.0</ele><time>2026-04-13T14:36:33.406Z</time></trkpt><trkpt lat="40.769445" lon="9.5008625"><ele>355.0</ele><time>2026-04-13T14:36:36.405Z</time></trkpt><trkpt lat="40.7693718" lon="9.5008209"><ele>355.0</ele><time>2026-04-13T14:36:37.399Z</time></trkpt><trkpt lat="40.7692079" lon="9.5008315"><ele>359.5</ele><time>2026-04-13T14:36:41.496Z</time></trkpt><trkpt lat="40.7693009" lon="9.5011066"><ele>364.0</ele><time>2026-04-13T14:36:45.5Z</time></trkpt><trkpt lat="40.7694518" lon="9.5016512"><ele>349.0</ele><time>2026-04-13T14:36:50.515Z</time></trkpt><trkpt lat="40.7694886" lon="9.5017614"><ele>334.0</ele><time>2026-04-13T14:36:51.503Z</time></trkpt><trkpt lat="40.7696588" lon="9.5021803"><ele>329.66666666666663</ele><time>2026-04-13T14:36:55.496Z</time></trkpt><trkpt lat="40.7696982" lon="9.5022763"><ele>325.3333333333333</ele><time>2026-04-13T14:36:56.5Z</time></trkpt><trkpt lat="40.7699409" lon="9.5025099"><ele>321.0</ele><time>2026-04-13T14:37:00.496Z</time></trkpt><trkpt lat="40.7700689" lon="9.5028873"><ele>320.3333333333333</ele><time>2026-04-13T14:37:04.496Z</time></trkpt><trkpt lat="40.7700789" lon="9.5030131"><ele>319.66666666666663</ele><time>2026-04-13T14:37:05.498Z</time></trkpt><trkpt lat="40.7700186" lon="9.5034203"><ele>319.0</ele><time>2026-04-13T14:37:09.489Z</time></trkpt><trkpt lat="40.7700206" lon="9.5035158"><ele>312.0</ele><time>2026-04-13T14:37:10.495Z</time></trkpt><trkpt lat="40.7700418" lon="9.5038704"><ele>305.0</ele><time>2026-04-13T14:37:14.497Z</time></trkpt><trkpt lat="40.7697551" lon="9.5038476"><ele>305.0</ele><time>2026-04-13T14:37:19.49Z</time></trkpt><trkpt lat="40.7694612" lon="9.5039383"><ele>305.0</ele><time>2026-04-13T14:37:23.493Z</time></trkpt><trkpt lat="40.7690897" lon="9.5042733"><ele>308.6666666666667</ele><time>2026-04-13T14:37:28.494Z</time></trkpt><trkpt lat="40.7690182" lon="9.5043222"><ele>312.3333333333333</ele><time>2026-04-13T14:37:29.485Z</time></trkpt><trkpt lat="40.7687068" lon="9.5043692"><ele>316.0</ele><time>2026-04-13T14:37:33.491Z</time></trkpt><trkpt lat="40.7686326" lon="9.5045055"><ele>316.0</ele><time>2026-04-13T14:37:37.474Z</time></trkpt><trkpt lat="40.7688701" lon="9.5045792"><ele>316.0</ele><time>2026-04-13T14:37:41.476Z</time></trkpt><trkpt lat="40.7689559" lon="9.5046019"><ele>316.0</ele><time>2026-04-13T14:37:42.472Z</time></trkpt><trkpt lat="40.7693192" lon="9.5045806"><ele>305.0</ele><time>2026-04-13T14:37:46.478Z</time></trkpt><trkpt lat="40.7694029" lon="9.5045936"><ele>294.0</ele><time>2026-04-13T14:37:47.474Z</time></trkpt><trkpt lat="40.7697191" lon="9.504634"><ele>283.0</ele><time>2026-04-13T14:37:51.475Z</time></trkpt><trkpt lat="40.7700232" lon="9.5046552"><ele>283.0</ele><time>2026-04-13T14:37:55.474Z</time></trkpt><trkpt lat="40.7700987" lon="9.504632"><ele>283.0</ele><time>2026-04-13T14:37:56.47Z</time></trkpt><trkpt lat="40.7702074" lon="9.5047287"><ele>283.0</ele><time>2026-04-13T14:38:00.473Z</time></trkpt><trkpt lat="40.7699785" lon="9.5048184"><ele>283.0</ele><time>2026-04-13T14:38:04.477Z</time></trkpt><trkpt lat="40.7699003" lon="9.5048577"><ele>283.0</ele><time>2026-04-13T14:38:05.48Z</time></trkpt><trkpt lat="40.7695741" lon="9.5049784"><ele>283.0</ele><time>2026-04-13T14:38:09.494Z</time></trkpt><trkpt lat="40.7694986" lon="9.5050354"><ele>283.0</ele><time>2026-04-13T14:38:10.466Z</time></trkpt><trkpt lat="40.7692102" lon="9.5053498"><ele>278.25</ele><time>2026-04-13T14:38:14.474Z</time></trkpt><trkpt lat="40.7691479" lon="9.5054356"><ele>273.5</ele><time>2026-04-13T14:38:15.464Z</time></trkpt><trkpt lat="40.7690033" lon="9.5057279"><ele>268.75</ele><time>2026-04-13T14:38:18.461Z</time></trkpt><trkpt lat="40.7689633" lon="9.5058314"><ele>264.0</ele><time>2026-04-13T14:38:19.461Z</time></trkpt><trkpt lat="40.7688053" lon="9.5062266"><ele>257.6666666666667</ele><time>2026-04-13T14:38:23.46Z</time></trkpt><trkpt lat="40.7687936" lon="9.5064222"><ele>251.33333333333334</ele><time>2026-04-13T14:38:25.451Z</time></trkpt><trkpt lat="40.7686144" lon="9.5066984"><ele>245.0</ele><time>2026-04-13T14:38:30.453Z</time></trkpt><trkpt lat="40.7685339" lon="9.5067279"><ele>257.5</ele><time>2026-04-13T14:38:31.479Z</time></trkpt><trkpt lat="40.7682284" lon="9.5069692"><ele>270.0</ele><time>2026-04-13T14:38:35.473Z</time></trkpt><trkpt lat="40.7681713" lon="9.5070697"><ele>255.5</ele><time>2026-04-13T14:38:36.455Z</time></trkpt><trkpt lat="40.7679568" lon="9.5074987"><ele>241.0</ele><time>2026-04-13T14:38:40.453Z</time></trkpt><trkpt lat="40.767908" lon="9.5075885"><ele>241.0</ele><time>2026-04-13T14:38:41.46Z</time></trkpt><trkpt lat="40.7678227" lon="9.5078768"><ele>241.0</ele><time>2026-04-13T14:38:44.457Z</time></trkpt><trkpt lat="40.7678106" lon="9.5079819"><ele>241.0</ele><time>2026-04-13T14:38:45.453Z</time></trkpt><trkpt lat="40.7678287" lon="9.5084536"><ele>236.33333333333331</ele><time>2026-04-13T14:38:49.449Z</time></trkpt><trkpt lat="40.7678693" lon="9.5085797"><ele>231.66666666666669</ele><time>2026-04-13T14:38:50.435Z</time></trkpt><trkpt lat="40.767952" lon="9.5088126"><ele>227.0</ele><time>2026-04-13T14:38:52.444Z</time></trkpt><trkpt lat="40.7680195" lon="9.5090062"><ele>224.0</ele><time>2026-04-13T14:38:54.441Z</time></trkpt><trkpt lat="40.7681839" lon="9.5092209"><ele>221.0</ele><time>2026-04-13T14:38:57.433Z</time></trkpt><trkpt lat="40.7682432" lon="9.5092681"><ele>218.0</ele><time>2026-04-13T14:38:58.443Z</time></trkpt><trkpt lat="40.7684179" lon="9.5092038"><ele>218.0</ele><time>2026-04-13T14:39:01.435Z</time></trkpt><trkpt lat="40.7684702" lon="9.5091325"><ele>218.0</ele><time>2026-04-13T14:39:02.438Z</time></trkpt><trkpt lat="40.7686445" lon="9.5090617"><ele>218.0</ele><time>2026-04-13T14:39:06.438Z</time></trkpt><trkpt lat="40.768556" lon="9.5093361"><ele>218.0</ele><time>2026-04-13T14:39:10.438Z</time></trkpt><trkpt lat="40.7685065" lon="9.5094224"><ele>218.0</ele><time>2026-04-13T14:39:11.434Z</time></trkpt><trkpt lat="40.7683771" lon="9.5097491"><ele>218.0</ele><time>2026-04-13T14:39:15.44Z</time></trkpt><trkpt lat="40.768073" lon="9.5097834"><ele>215.75</ele><time>2026-04-13T14:39:19.439Z</time></trkpt><trkpt lat="40.7679886" lon="9.5097928"><ele>213.5</ele><time>2026-04-13T14:39:20.434Z</time></trkpt><trkpt lat="40.76775" lon="9.5098061"><ele>211.25</ele><time>2026-04-13T14:39:23.432Z</time></trkpt><trkpt lat="40.7676737" lon="9.5098342"><ele>209.0</ele><time>2026-04-13T14:39:24.436Z</time></trkpt><trkpt lat="40.7674694" lon="9.5099571"><ele>209.0</ele><time>2026-04-13T14:39:27.437Z</time></trkpt><trkpt lat="40.7674209" lon="9.5102793"><ele>209.0</ele><time>2026-04-13T14:39:31.437Z</time></trkpt><trkpt lat="40.7674097" lon="9.5103841"><ele>209.0</ele><time>2026-04-13T14:39:32.428Z</time></trkpt><trkpt lat="40.7673528" lon="9.5107621"><ele>205.0</ele><time>2026-04-13T14:39:35.438Z</time></trkpt><trkpt lat="40.767343" lon="9.5109069"><ele>201.0</ele><time>2026-04-13T14:39:36.431Z</time></trkpt><trkpt lat="40.7672906" lon="9.5115823"><ele>197.5</ele><time>2026-04-13T14:39:41.44Z</time></trkpt><trkpt lat="40.767262" lon="9.5117221"><ele>194.0</ele><time>2026-04-13T14:39:42.457Z</time></trkpt><trkpt lat="40.7671154" lon="9.5122997"><ele>191.0</ele><time>2026-04-13T14:39:46.423Z</time></trkpt><trkpt lat="40.7670811" lon="9.5124348"><ele>188.0</ele><time>2026-04-13T14:39:47.42Z</time></trkpt><trkpt lat="40.7669807" lon="9.512832"><ele>185.0</ele><time>2026-04-13T14:39:50.417Z</time></trkpt><trkpt lat="40.7669507" lon="9.5129515"><ele>185.5</ele><time>2026-04-13T14:39:51.426Z</time></trkpt><trkpt lat="40.7668239" lon="9.5134394"><ele>186.0</ele><time>2026-04-13T14:39:55.415Z</time></trkpt><trkpt lat="40.7667891" lon="9.5135612"><ele>186.0</ele><time>2026-04-13T14:39:56.413Z</time></trkpt><trkpt lat="40.7667577" lon="9.5136836"><ele>186.0</ele><time>2026-04-13T14:39:57.413Z</time></trkpt><trkpt lat="40.7667718" lon="9.5144087"><ele>184.5</ele><time>2026-04-13T14:40:02.428Z</time></trkpt><trkpt lat="40.7667858" lon="9.5145721"><ele>183.0</ele><time>2026-04-13T14:40:03.412Z</time></trkpt><trkpt lat="40.7668261" lon="9.5150558"><ele>183.0</ele><time>2026-04-13T14:40:07.444Z</time></trkpt><trkpt lat="40.7668159" lon="9.5151463"><ele>183.0</ele><time>2026-04-13T14:40:08.411Z</time></trkpt><trkpt lat="40.7666494" lon="9.5155197"><ele>183.0</ele><time>2026-04-13T14:40:12.399Z</time></trkpt><trkpt lat="40.7666235" lon="9.5156174"><ele>181.33333333333334</ele><time>2026-04-13T14:40:13.402Z</time></trkpt><trkpt lat="40.7665993" lon="9.5157253"><ele>179.66666666666669</ele><time>2026-04-13T14:40:14.4Z</time></trkpt><trkpt lat="40.7665504" lon="9.5160766"><ele>178.0</ele><time>2026-04-13T14:40:17.41Z</time></trkpt><trkpt lat="40.7665622" lon="9.5165497"><ele>176.66666666666669</ele><time>2026-04-13T14:40:21.394Z</time></trkpt><trkpt lat="40.7665607" lon="9.5166548"><ele>175.33333333333334</ele><time>2026-04-13T14:40:22.395Z</time></trkpt><trkpt lat="40.7663673" lon="9.5169725"><ele>174.0</ele><time>2026-04-13T14:40:27.406Z</time></trkpt><trkpt lat="40.7663149" lon="9.517587"><ele>172.33333333333334</ele><time>2026-04-13T14:40:33.409Z</time></trkpt><trkpt lat="40.7663619" lon="9.5179398"><ele>170.66666666666669</ele><time>2026-04-13T14:40:36.491Z</time></trkpt><trkpt lat="40.7663808" lon="9.5180337"><ele>169.0</ele><time>2026-04-13T14:40:37.503Z</time></trkpt><trkpt lat="40.766504" lon="9.5183139"><ele>169.0</ele><time>2026-04-13T14:40:41.492Z</time></trkpt><trkpt lat="40.7665098" lon="9.5183974"><ele>169.0</ele><time>2026-04-13T14:40:42.497Z</time></trkpt><trkpt lat="40.7665295" lon="9.5187757"><ele>169.0</ele><time>2026-04-13T14:40:46.489Z</time></trkpt><trkpt lat="40.7665304" lon="9.5188715"><ele>169.0</ele><time>2026-04-13T14:40:47.491Z</time></trkpt><trkpt lat="40.7665305" lon="9.5189752"><ele>168.0</ele><time>2026-04-13T14:40:48.495Z</time></trkpt><trkpt lat="40.7665246" lon="9.5193387"><ele>167.0</ele><time>2026-04-13T14:40:52.502Z</time></trkpt><trkpt lat="40.7664708" lon="9.5196696"><ele>166.2</ele><time>2026-04-13T14:40:57.487Z</time></trkpt><trkpt lat="40.7664282" lon="9.5198364"><ele>165.39999999999998</ele><time>2026-04-13T14:41:02.494Z</time></trkpt><trkpt lat="40.7663586" lon="9.5198985"><ele>164.60000000000002</ele><time>2026-04-13T14:42:04.476Z</time></trkpt><trkpt lat="40.7662798" lon="9.5199233"><ele>163.8</ele><time>2026-04-13T14:42:07.487Z</time></trkpt><trkpt lat="40.7662459" lon="9.5200239"><ele>163.0</ele><time>2026-04-13T14:42:11.483Z</time></trkpt><trkpt lat="40.7662725" lon="9.5201178"><ele>163.0</ele><time>2026-04-13T14:42:13.486Z</time></trkpt><trkpt lat="40.7663303" lon="9.5202297"><ele>163.0</ele><time>2026-04-13T14:42:15.48Z</time></trkpt><trkpt lat="40.766393" lon="9.5203354"><ele>163.0</ele><time>2026-04-13T14:42:17.491Z</time></trkpt><trkpt lat="40.7664235" lon="9.5204162"><ele>163.0</ele><time>2026-04-13T14:42:20.472Z</time></trkpt><trkpt lat="40.7664111" lon="9.5205047"><ele>163.0</ele><time>2026-04-13T14:42:23.481Z</time></trkpt><trkpt lat="40.7663191" lon="9.5205982"><ele>163.0</ele><time>2026-04-13T14:42:25.489Z</time></trkpt><trkpt lat="40.7662544" lon="9.5206419"><ele>163.0</ele><time>2026-04-13T14:42:26.475Z</time></trkpt><trkpt lat="40.7661892" lon="9.5206755"><ele>163.0</ele><time>2026-04-13T14:42:27.477Z</time></trkpt><trkpt lat="40.7660838" lon="9.5207146"><ele>163.0</ele><time>2026-04-13T14:42:29.486Z</time></trkpt><trkpt lat="40.7659953" lon="9.5207245"><ele>163.0</ele><time>2026-04-13T14:42:31.48Z</time></trkpt><trkpt lat="40.7659643" lon="9.5208456"><ele>163.0</ele><time>2026-04-13T14:42:34.471Z</time></trkpt><trkpt lat="40.76596" lon="9.5209535"><ele>163.0</ele><time>2026-04-13T14:42:37.483Z</time></trkpt><trkpt lat="40.7659587" lon="9.5210473"><ele>163.0</ele><time>2026-04-13T14:42:42.472Z</time></trkpt><trkpt lat="40.7659462" lon="9.5211849"><ele>163.0</ele><time>2026-04-13T14:42:45.473Z</time></trkpt><trkpt lat="40.7659658" lon="9.5212747"><ele>163.0</ele><time>2026-04-13T14:42:46.49Z</time></trkpt><trkpt lat="40.7659943" lon="9.5213576"><ele>163.0</ele><time>2026-04-13T14:42:47.49Z</time></trkpt><trkpt lat="40.7660333" lon="9.5214436"><ele>163.0</ele><time>2026-04-13T14:42:48.47Z</time></trkpt><trkpt lat="40.7660777" lon="9.5215234"><ele>162.0</ele><time>2026-04-13T14:42:49.509Z</time></trkpt><trkpt lat="40.7661268" lon="9.5215997"><ele>161.0</ele><time>2026-04-13T14:42:50.48Z</time></trkpt><trkpt lat="40.7661749" lon="9.5216735"><ele>160.0</ele><time>2026-04-13T14:42:51.488Z</time></trkpt><trkpt lat="40.7662189" lon="9.5217433"><ele>159.0</ele><time>2026-04-13T14:42:52.488Z</time></trkpt><trkpt lat="40.7662601" lon="9.5218072"><ele>158.0</ele><time>2026-04-13T14:42:53.49Z</time></trkpt><trkpt lat="40.7663356" lon="9.5219173"><ele>157.0</ele><time>2026-04-13T14:42:55.485Z</time></trkpt><trkpt lat="40.7663909" lon="9.5219966"><ele>157.0</ele><time>2026-04-13T14:42:58.472Z</time></trkpt><trkpt lat="40.7664449" lon="9.5220582"><ele>157.0</ele><time>2026-04-13T14:43:02.474Z</time></trkpt><trkpt lat="40.7665034" lon="9.5220927"><ele>157.0</ele><time>2026-04-13T14:43:06.483Z</time></trkpt><trkpt lat="40.7665652" lon="9.5221801"><ele>157.0</ele><time>2026-04-13T15:13:35.459Z</time></trkpt><trkpt lat="40.766611" lon="9.5222946"><ele>157.0</ele><time>2026-04-13T15:13:38.451Z</time></trkpt><trkpt lat="40.7666574" lon="9.5224093"><ele>157.0</ele><time>2026-04-13T15:13:40.459Z</time></trkpt><trkpt lat="40.7667162" lon="9.5225576"><ele>156.66666666666669</ele><time>2026-04-13T15:13:42.446Z</time></trkpt><trkpt lat="40.766753" lon="9.5226441"><ele>156.33333333333334</ele><time>2026-04-13T15:13:43.453Z</time></trkpt><trkpt lat="40.7667959" lon="9.5227369"><ele>156.0</ele><time>2026-04-13T15:13:44.451Z</time></trkpt><trkpt lat="40.7668387" lon="9.5228279"><ele>155.66666666666666</ele><time>2026-04-13T15:13:45.456Z</time></trkpt><trkpt lat="40.7668787" lon="9.5229146"><ele>155.33333333333331</ele><time>2026-04-13T15:13:46.447Z</time></trkpt><trkpt lat="40.7669098" lon="9.5230072"><ele>155.0</ele><time>2026-04-13T15:13:47.457Z</time></trkpt><trkpt lat="40.7669315" lon="9.5231059"><ele>155.0</ele><time>2026-04-13T15:13:48.443Z</time></trkpt><trkpt lat="40.7669483" lon="9.5232163"><ele>155.0</ele><time>2026-04-13T15:13:49.443Z</time></trkpt><trkpt lat="40.7669607" lon="9.5233327"><ele>155.0</ele><time>2026-04-13T15:13:50.444Z</time></trkpt><trkpt lat="40.7669659" lon="9.5234585"><ele>155.0</ele><time>2026-04-13T15:13:51.443Z</time></trkpt><trkpt lat="40.766963" lon="9.5235934"><ele>155.0</ele><time>2026-04-13T15:13:52.456Z</time></trkpt><trkpt lat="40.7669625" lon="9.523732"><ele>154.5</ele><time>2026-04-13T15:13:53.461Z</time></trkpt><trkpt lat="40.7669664" lon="9.5238753"><ele>154.0</ele><time>2026-04-13T15:13:54.464Z</time></trkpt><trkpt lat="40.7669733" lon="9.5240197"><ele>153.5</ele><time>2026-04-13T15:13:55.437Z</time></trkpt><trkpt lat="40.7669956" lon="9.5241645"><ele>153.0</ele><time>2026-04-13T15:13:56.458Z</time></trkpt><trkpt lat="40.7670391" lon="9.5243119"><ele>153.0</ele><time>2026-04-13T15:13:57.454Z</time></trkpt><trkpt lat="40.7670989" lon="9.5244636"><ele>153.0</ele><time>2026-04-13T15:13:58.44Z</time></trkpt><trkpt lat="40.7671706" lon="9.5246119"><ele>153.0</ele><time>2026-04-13T15:13:59.448Z</time></trkpt><trkpt lat="40.7672522" lon="9.5247619"><ele>153.0</ele><time>2026-04-13T15:14:00.435Z</time></trkpt><trkpt lat="40.7673299" lon="9.5249048"><ele>152.6</ele><time>2026-04-13T15:14:01.445Z</time></trkpt><trkpt lat="40.7674021" lon="9.5250266"><ele>152.20000000000002</ele><time>2026-04-13T15:14:02.433Z</time></trkpt><trkpt lat="40.7674631" lon="9.5251366"><ele>151.8</ele><time>2026-04-13T15:14:03.44Z</time></trkpt><trkpt lat="40.7675146" lon="9.5252446"><ele>151.4</ele><time>2026-04-13T15:14:04.449Z</time></trkpt><trkpt lat="40.7675615" lon="9.5253466"><ele>151.0</ele><time>2026-04-13T15:14:05.44Z</time></trkpt><trkpt lat="40.7675935" lon="9.5254281"><ele>150.2</ele><time>2026-04-13T15:14:06.437Z</time></trkpt><trkpt lat="40.7675845" lon="9.5255589"><ele>149.39999999999998</ele><time>2026-04-13T15:14:08.442Z</time></trkpt><trkpt lat="40.7674891" lon="9.5256756"><ele>148.6</ele><time>2026-04-13T15:14:10.433Z</time></trkpt><trkpt lat="40.7674297" lon="9.5257369"><ele>147.79999999999998</ele><time>2026-04-13T15:14:11.439Z</time></trkpt><trkpt lat="40.7673744" lon="9.5257992"><ele>147.0</ele><time>2026-04-13T15:14:12.445Z</time></trkpt><trkpt lat="40.7673205" lon="9.5258631"><ele>147.0</ele><time>2026-04-13T15:14:13.436Z</time></trkpt><trkpt lat="40.7672691" lon="9.5259237"><ele>147.0</ele><time>2026-04-13T15:14:14.448Z</time></trkpt><trkpt lat="40.7672211" lon="9.5259847"><ele>147.0</ele><time>2026-04-13T15:14:15.444Z</time></trkpt><trkpt lat="40.7671718" lon="9.5260451"><ele>147.0</ele><time>2026-04-13T15:14:16.451Z</time></trkpt><trkpt lat="40.7671218" lon="9.5261118"><ele>147.0</ele><time>2026-04-13T15:14:17.441Z</time></trkpt><trkpt lat="40.7670736" lon="9.5261851"><ele>147.0</ele><time>2026-04-13T15:14:18.438Z</time></trkpt><trkpt lat="40.7670257" lon="9.5262687"><ele>147.0</ele><time>2026-04-13T15:14:19.442Z</time></trkpt><trkpt lat="40.7669779" lon="9.5263562"><ele>146.5</ele><time>2026-04-13T15:14:20.436Z</time></trkpt><trkpt lat="40.766927" lon="9.526442"><ele>146.0</ele><time>2026-04-13T15:14:21.431Z</time></trkpt><trkpt lat="40.7668781" lon="9.5265283"><ele>145.5</ele><time>2026-04-13T15:14:22.437Z</time></trkpt><trkpt lat="40.7668301" lon="9.5266235"><ele>145.0</ele><time>2026-04-13T15:14:23.436Z</time></trkpt><trkpt lat="40.7667804" lon="9.5267159"><ele>144.5</ele><time>2026-04-13T15:14:24.435Z</time></trkpt><trkpt lat="40.7667356" lon="9.5268012"><ele>144.0</ele><time>2026-04-13T15:14:25.432Z</time></trkpt><trkpt lat="40.7666992" lon="9.5268784"><ele>143.83333333333334</ele><time>2026-04-13T15:14:26.43Z</time></trkpt><trkpt lat="40.7666635" lon="9.5269582"><ele>143.66666666666666</ele><time>2026-04-13T15:14:27.428Z</time></trkpt><trkpt lat="40.7666335" lon="9.5270361"><ele>143.5</ele><time>2026-04-13T15:14:28.43Z</time></trkpt><trkpt lat="40.7666115" lon="9.5271158"><ele>143.33333333333331</ele><time>2026-04-13T15:14:29.439Z</time></trkpt><trkpt lat="40.7665876" lon="9.5271969"><ele>143.16666666666666</ele><time>2026-04-13T15:14:30.426Z</time></trkpt><trkpt lat="40.7665626" lon="9.527277"><ele>143.0</ele><time>2026-04-13T15:14:31.435Z</time></trkpt><trkpt lat="40.7665052" lon="9.5274211"><ele>143.0</ele><time>2026-04-13T15:14:33.431Z</time></trkpt><trkpt lat="40.7664831" lon="9.5275"><ele>143.0</ele><time>2026-04-13T15:14:34.446Z</time></trkpt><trkpt lat="40.7664486" lon="9.5276445"><ele>143.0</ele><time>2026-04-13T15:14:36.425Z</time></trkpt><trkpt lat="40.7664336" lon="9.527727"><ele>143.0</ele><time>2026-04-13T15:14:37.452Z</time></trkpt><trkpt lat="40.7664221" lon="9.5278211"><ele>143.0</ele><time>2026-04-13T15:14:38.421Z</time></trkpt><trkpt lat="40.7664108" lon="9.5279161"><ele>143.0</ele><time>2026-04-13T15:14:39.436Z</time></trkpt><trkpt lat="40.7663989" lon="9.5280118"><ele>143.0</ele><time>2026-04-13T15:14:40.426Z</time></trkpt><trkpt lat="40.7663873" lon="9.5281126"><ele>143.0</ele><time>2026-04-13T15:14:41.429Z</time></trkpt><trkpt lat="40.7663748" lon="9.5282103"><ele>143.0</ele><time>2026-04-13T15:14:42.436Z</time></trkpt><trkpt lat="40.7663616" lon="9.528308"><ele>143.0</ele><time>2026-04-13T15:14:43.424Z</time></trkpt><trkpt lat="40.7663515" lon="9.5284122"><ele>143.0</ele><time>2026-04-13T15:14:44.433Z</time></trkpt><trkpt lat="40.7663499" lon="9.5285096"><ele>143.0</ele><time>2026-04-13T15:14:45.432Z</time></trkpt><trkpt lat="40.7663715" lon="9.5286739"><ele>142.28571428571428</ele><time>2026-04-13T15:14:47.419Z</time></trkpt><trkpt lat="40.766374" lon="9.5287655"><ele>141.57142857142856</ele><time>2026-04-13T15:14:48.429Z</time></trkpt><trkpt lat="40.7663615" lon="9.5288544"><ele>140.85714285714286</ele><time>2026-04-13T15:14:49.444Z</time></trkpt><trkpt lat="40.7663415" lon="9.5289481"><ele>140.14285714285714</ele><time>2026-04-13T15:14:50.434Z</time></trkpt><trkpt lat="40.7663222" lon="9.5290408"><ele>139.42857142857144</ele><time>2026-04-13T15:14:51.44Z</time></trkpt><trkpt lat="40.7662976" lon="9.5291359"><ele>138.71428571428572</ele><time>2026-04-13T15:14:52.444Z</time></trkpt><trkpt lat="40.7662711" lon="9.5292333"><ele>138.0</ele><time>2026-04-13T15:14:53.441Z</time></trkpt><trkpt lat="40.7662422" lon="9.5293319"><ele>138.0</ele><time>2026-04-13T15:14:54.423Z</time></trkpt><trkpt lat="40.7662156" lon="9.5294379"><ele>138.0</ele><time>2026-04-13T15:14:55.424Z</time></trkpt><trkpt lat="40.7661875" lon="9.5295447"><ele>138.0</ele><time>2026-04-13T15:14:56.427Z</time></trkpt><trkpt lat="40.7661611" lon="9.5296559"><ele>138.0</ele><time>2026-04-13T15:14:57.423Z</time></trkpt><trkpt lat="40.7661372" lon="9.5297669"><ele>138.0</ele><time>2026-04-13T15:14:58.419Z</time></trkpt><trkpt lat="40.7661081" lon="9.5298752"><ele>138.0</ele><time>2026-04-13T15:14:59.426Z</time></trkpt><trkpt lat="40.7660798" lon="9.5299882"><ele>137.66666666666666</ele><time>2026-04-13T15:15:00.418Z</time></trkpt><trkpt lat="40.7660503" lon="9.5301064"><ele>137.33333333333334</ele><time>2026-04-13T15:15:01.425Z</time></trkpt><trkpt lat="40.7660262" lon="9.5302158"><ele>137.0</ele><time>2026-04-13T15:15:02.436Z</time></trkpt><trkpt lat="40.7660029" lon="9.5303159"><ele>136.66666666666669</ele><time>2026-04-13T15:15:03.436Z</time></trkpt><trkpt lat="40.7659817" lon="9.5304164"><ele>136.33333333333334</ele><time>2026-04-13T15:15:04.43Z</time></trkpt><trkpt lat="40.765965" lon="9.5305154"><ele>136.0</ele><time>2026-04-13T15:15:05.425Z</time></trkpt><trkpt lat="40.7659431" lon="9.5306213"><ele>136.66666666666669</ele><time>2026-04-13T15:15:06.425Z</time></trkpt><trkpt lat="40.765917" lon="9.5307326"><ele>137.33333333333334</ele><time>2026-04-13T15:15:07.419Z</time></trkpt><trkpt lat="40.7658845" lon="9.5308437"><ele>138.0</ele><time>2026-04-13T15:15:08.418Z</time></trkpt><trkpt lat="40.765853" lon="9.5309573"><ele>138.66666666666666</ele><time>2026-04-13T15:15:09.431Z</time></trkpt><trkpt lat="40.765826" lon="9.5310674"><ele>139.33333333333331</ele><time>2026-04-13T15:15:10.42Z</time></trkpt><trkpt lat="40.7657998" lon="9.5311709"><ele>140.0</ele><time>2026-04-13T15:15:11.421Z</time></trkpt><trkpt lat="40.7657757" lon="9.5312711"><ele>140.0</ele><time>2026-04-13T15:15:12.419Z</time></trkpt><trkpt lat="40.7657561" lon="9.5313731"><ele>140.0</ele><time>2026-04-13T15:15:13.423Z</time></trkpt><trkpt lat="40.7657308" lon="9.5314784"><ele>140.0</ele><time>2026-04-13T15:15:14.425Z</time></trkpt><trkpt lat="40.7657079" lon="9.5315873"><ele>140.0</ele><time>2026-04-13T15:15:15.423Z</time></trkpt><trkpt lat="40.7656941" lon="9.5316922"><ele>140.0</ele><time>2026-04-13T15:15:16.418Z</time></trkpt><trkpt lat="40.7656841" lon="9.5317928"><ele>140.0</ele><time>2026-04-13T15:15:17.422Z</time></trkpt><trkpt lat="40.7656649" lon="9.531897"><ele>140.0</ele><time>2026-04-13T15:15:18.432Z</time></trkpt><trkpt lat="40.7656475" lon="9.5320001"><ele>140.0</ele><time>2026-04-13T15:15:19.421Z</time></trkpt><trkpt lat="40.7656279" lon="9.5321134"><ele>140.0</ele><time>2026-04-13T15:15:20.425Z</time></trkpt><trkpt lat="40.765602" lon="9.5322224"><ele>140.0</ele><time>2026-04-13T15:15:21.429Z</time></trkpt><trkpt lat="40.7655715" lon="9.5323349"><ele>140.0</ele><time>2026-04-13T15:15:22.415Z</time></trkpt><trkpt lat="40.7655432" lon="9.5324421"><ele>140.0</ele><time>2026-04-13T15:15:23.421Z</time></trkpt><trkpt lat="40.7655087" lon="9.5325548"><ele>139.6</ele><time>2026-04-13T15:15:24.418Z</time></trkpt><trkpt lat="40.7654797" lon="9.5326708"><ele>139.2</ele><time>2026-04-13T15:15:25.417Z</time></trkpt><trkpt lat="40.7654516" lon="9.5327968"><ele>138.8</ele><time>2026-04-13T15:15:26.425Z</time></trkpt><trkpt lat="40.7654226" lon="9.5329267"><ele>138.4</ele><time>2026-04-13T15:15:27.422Z</time></trkpt><trkpt lat="40.7653911" lon="9.5330462"><ele>138.0</ele><time>2026-04-13T15:15:28.422Z</time></trkpt><trkpt lat="40.7653562" lon="9.5331652"><ele>137.0</ele><time>2026-04-13T15:15:29.419Z</time></trkpt><trkpt lat="40.7653198" lon="9.5332874"><ele>136.0</ele><time>2026-04-13T15:15:30.413Z</time></trkpt><trkpt lat="40.7652847" lon="9.5334122"><ele>135.0</ele><time>2026-04-13T15:15:31.408Z</time></trkpt><trkpt lat="40.7652519" lon="9.533537"><ele>134.0</ele><time>2026-04-13T15:15:32.426Z</time></trkpt><trkpt lat="40.7652233" lon="9.5336588"><ele>133.0</ele><time>2026-04-13T15:15:33.416Z</time></trkpt><trkpt lat="40.7651983" lon="9.5337723"><ele>132.6</ele><time>2026-04-13T15:15:34.421Z</time></trkpt><trkpt lat="40.7651734" lon="9.5338808"><ele>132.20000000000002</ele><time>2026-04-13T15:15:35.412Z</time></trkpt><trkpt lat="40.7651535" lon="9.5339805"><ele>131.8</ele><time>2026-04-13T15:15:36.422Z</time></trkpt><trkpt lat="40.765137" lon="9.5341354"><ele>131.4</ele><time>2026-04-13T15:15:38.418Z</time></trkpt><trkpt lat="40.7651177" lon="9.5342569"><ele>131.0</ele><time>2026-04-13T15:15:40.415Z</time></trkpt><trkpt lat="40.7651386" lon="9.5343563"><ele>130.6</ele><time>2026-04-13T15:15:42.421Z</time></trkpt><trkpt lat="40.7652172" lon="9.5344887"><ele>130.2</ele><time>2026-04-13T15:15:44.418Z</time></trkpt><trkpt lat="40.7652747" lon="9.5345637"><ele>129.8</ele><time>2026-04-13T15:15:45.409Z</time></trkpt><trkpt lat="40.7653338" lon="9.5346228"><ele>129.4</ele><time>2026-04-13T15:15:46.42Z</time></trkpt><trkpt lat="40.7654206" lon="9.5347008"><ele>129.0</ele><time>2026-04-13T15:15:48.432Z</time></trkpt><trkpt lat="40.7654865" lon="9.5347658"><ele>128.66666666666666</ele><time>2026-04-13T15:15:50.425Z</time></trkpt><trkpt lat="40.7655742" lon="9.5348365"><ele>128.33333333333334</ele><time>2026-04-13T15:15:52.407Z</time></trkpt><trkpt lat="40.7656325" lon="9.5348908"><ele>128.0</ele><time>2026-04-13T15:15:53.413Z</time></trkpt><trkpt lat="40.7656978" lon="9.5349497"><ele>127.66666666666667</ele><time>2026-04-13T15:15:54.418Z</time></trkpt><trkpt lat="40.7657646" lon="9.5350129"><ele>127.33333333333334</ele><time>2026-04-13T15:15:55.413Z</time></trkpt><trkpt lat="40.7658343" lon="9.5350786"><ele>127.0</ele><time>2026-04-13T15:15:56.406Z</time></trkpt><trkpt lat="40.7659097" lon="9.5351463"><ele>127.00000000000001</ele><time>2026-04-13T15:15:57.408Z</time></trkpt><trkpt lat="40.7659761" lon="9.5352066"><ele>127.0</ele><time>2026-04-13T15:15:58.411Z</time></trkpt><trkpt lat="40.7660341" lon="9.5352606"><ele>127.0</ele><time>2026-04-13T15:15:59.409Z</time></trkpt><trkpt lat="40.7660984" lon="9.53532"><ele>127.0</ele><time>2026-04-13T15:16:00.416Z</time></trkpt><trkpt lat="40.7661607" lon="9.5353766"><ele>127.00000000000001</ele><time>2026-04-13T15:16:01.409Z</time></trkpt><trkpt lat="40.7662303" lon="9.5354224"><ele>127.0</ele><time>2026-04-13T15:16:02.401Z</time></trkpt><trkpt lat="40.7663" lon="9.5354545"><ele>127.19999999999999</ele><time>2026-04-13T15:16:03.402Z</time></trkpt><trkpt lat="40.7663592" lon="9.5354863"><ele>127.39999999999999</ele><time>2026-04-13T15:16:04.404Z</time></trkpt><trkpt lat="40.7664318" lon="9.5355877"><ele>127.60000000000001</ele><time>2026-04-13T15:16:06.409Z</time></trkpt><trkpt lat="40.7664377" lon="9.5357662"><ele>127.80000000000001</ele><time>2026-04-13T15:16:08.441Z</time></trkpt><trkpt lat="40.7664422" lon="9.5359072"><ele>128.0</ele><time>2026-04-13T15:16:10.418Z</time></trkpt><trkpt lat="40.7664556" lon="9.5360057"><ele>127.99999999999999</ele><time>2026-04-13T15:16:12.405Z</time></trkpt><trkpt lat="40.7665037" lon="9.5360971"><ele>128.0</ele><time>2026-04-13T15:16:21.402Z</time></trkpt><trkpt lat="40.7665633" lon="9.5361946"><ele>128.0</ele><time>2026-04-13T15:16:23.397Z</time></trkpt><trkpt lat="40.766612" lon="9.5362628"><ele>128.0</ele><time>2026-04-13T15:16:24.399Z</time></trkpt><trkpt lat="40.7666553" lon="9.5363359"><ele>127.99999999999999</ele><time>2026-04-13T15:16:25.403Z</time></trkpt><trkpt lat="40.7667161" lon="9.5364606"><ele>128.0</ele><time>2026-04-13T15:16:27.393Z</time></trkpt><trkpt lat="40.7667817" lon="9.5365686"><ele>128.0</ele><time>2026-04-13T15:16:29.401Z</time></trkpt><trkpt lat="40.7668453" lon="9.5366729"><ele>128.0</ele><time>2026-04-13T15:16:31.404Z</time></trkpt><trkpt lat="40.7669006" lon="9.5367705"><ele>128.0</ele><time>2026-04-13T15:16:33.398Z</time></trkpt><trkpt lat="40.7669734" lon="9.5368522"><ele>128.0</ele><time>2026-04-13T15:16:35.394Z</time></trkpt><trkpt lat="40.7670741" lon="9.5369583"><ele>128.0</ele><time>2026-04-13T15:16:37.392Z</time></trkpt><trkpt lat="40.7671418" lon="9.5370269"><ele>127.83333333333333</ele><time>2026-04-13T15:16:38.4Z</time></trkpt><trkpt lat="40.7672197" lon="9.5371049"><ele>127.66666666666666</ele><time>2026-04-13T15:16:39.389Z</time></trkpt><trkpt lat="40.7673003" lon="9.5371918"><ele>127.5</ele><time>2026-04-13T15:16:40.397Z</time></trkpt><trkpt lat="40.7673659" lon="9.5372679"><ele>127.33333333333334</ele><time>2026-04-13T15:16:41.393Z</time></trkpt><trkpt lat="40.7674279" lon="9.5373265"><ele>127.16666666666667</ele><time>2026-04-13T15:16:42.409Z</time></trkpt><trkpt lat="40.7675023" lon="9.5373753"><ele>127.0</ele><time>2026-04-13T15:16:43.406Z</time></trkpt><trkpt lat="40.767587" lon="9.5374342"><ele>127.00000000000001</ele><time>2026-04-13T15:16:44.397Z</time></trkpt><trkpt lat="40.7676764" lon="9.5374909"><ele>127.0</ele><time>2026-04-13T15:16:45.389Z</time></trkpt><trkpt lat="40.7677564" lon="9.5375454"><ele>127.0</ele><time>2026-04-13T15:16:46.387Z</time></trkpt><trkpt lat="40.767831" lon="9.5375954"><ele>127.0</ele><time>2026-04-13T15:16:47.409Z</time></trkpt><trkpt lat="40.7679005" lon="9.537643"><ele>127.00000000000001</ele><time>2026-04-13T15:16:48.392Z</time></trkpt><trkpt lat="40.7679736" lon="9.5376826"><ele>127.0</ele><time>2026-04-13T15:16:49.396Z</time></trkpt><trkpt lat="40.7680578" lon="9.5377208"><ele>127.00000000000001</ele><time>2026-04-13T15:16:50.397Z</time></trkpt><trkpt lat="40.7681513" lon="9.5377737"><ele>127.0</ele><time>2026-04-13T15:16:51.387Z</time></trkpt><trkpt lat="40.7682488" lon="9.5378313"><ele>127.0</ele><time>2026-04-13T15:16:52.387Z</time></trkpt><trkpt lat="40.7683375" lon="9.537878"><ele>127.0</ele><time>2026-04-13T15:16:53.386Z</time></trkpt><trkpt lat="40.7684049" lon="9.537916"><ele>127.00000000000001</ele><time>2026-04-13T15:16:54.402Z</time></trkpt><trkpt lat="40.7684625" lon="9.5379565"><ele>127.0</ele><time>2026-04-13T15:16:55.384Z</time></trkpt><trkpt lat="40.768523" lon="9.5379951"><ele>127.00000000000001</ele><time>2026-04-13T15:16:56.388Z</time></trkpt><trkpt lat="40.7686231" lon="9.5380413"><ele>127.0</ele><time>2026-04-13T15:16:58.4Z</time></trkpt><trkpt lat="40.7686808" lon="9.5380782"><ele>127.0</ele><time>2026-04-13T15:17:01.396Z</time></trkpt><trkpt lat="40.7687023" lon="9.5381742"><ele>127.0</ele><time>2026-04-13T15:17:21.486Z</time></trkpt><trkpt lat="40.7686791" lon="9.5382521"><ele>127.00000000000001</ele><time>2026-04-13T15:17:23.485Z</time></trkpt><trkpt lat="40.7686553" lon="9.5383542"><ele>127.0</ele><time>2026-04-13T15:17:27.499Z</time></trkpt><trkpt lat="40.768632" lon="9.5384371"><ele>127.0</ele><time>2026-04-13T15:17:29.484Z</time></trkpt><trkpt lat="40.7686019" lon="9.53853"><ele>126.99999999999999</ele><time>2026-04-13T15:17:31.485Z</time></trkpt><trkpt lat="40.7685835" lon="9.538643"><ele>126.99999999999999</ele><time>2026-04-13T15:17:34.484Z</time></trkpt><trkpt lat="40.7685937" lon="9.538774"><ele>127.0</ele><time>2026-04-13T15:17:36.485Z</time></trkpt><trkpt lat="40.7686165" lon="9.538924"><ele>127.0</ele><time>2026-04-13T15:17:38.476Z</time></trkpt><trkpt lat="40.7686346" lon="9.5390422"><ele>127.00000000000001</ele><time>2026-04-13T15:17:40.49Z</time></trkpt><trkpt lat="40.7686298" lon="9.5391821"><ele>127.0</ele><time>2026-04-13T15:17:42.477Z</time></trkpt><trkpt lat="40.7686131" lon="9.5392652"><ele>127.0</ele><time>2026-04-13T15:17:43.474Z</time></trkpt><trkpt lat="40.7685894" lon="9.5393516"><ele>127.0</ele><time>2026-04-13T15:17:44.48Z</time></trkpt><trkpt lat="40.7685127" lon="9.5394665"><ele>127.00000000000001</ele><time>2026-04-13T15:17:46.473Z</time></trkpt><trkpt lat="40.7684571" lon="9.5395136"><ele>127.0</ele><time>2026-04-13T15:17:47.475Z</time></trkpt><trkpt lat="40.7683983" lon="9.5395675"><ele>127.83333333333334</ele><time>2026-04-13T15:17:48.476Z</time></trkpt><trkpt lat="40.7683552" lon="9.5396302"><ele>128.66666666666669</ele><time>2026-04-13T15:17:49.472Z</time></trkpt><trkpt lat="40.7683197" lon="9.539707"><ele>129.5</ele><time>2026-04-13T15:17:50.475Z</time></trkpt><trkpt lat="40.7682888" lon="9.5397908"><ele>130.33333333333334</ele><time>2026-04-13T15:17:51.471Z</time></trkpt><trkpt lat="40.7682682" lon="9.539876"><ele>131.16666666666666</ele><time>2026-04-13T15:17:52.466Z</time></trkpt><trkpt lat="40.7682632" lon="9.539966"><ele>132.0</ele><time>2026-04-13T15:17:53.482Z</time></trkpt><trkpt lat="40.7683187" lon="9.5401208"><ele>132.0</ele><time>2026-04-13T15:17:55.469Z</time></trkpt><trkpt lat="40.7683506" lon="9.5401965"><ele>132.0</ele><time>2026-04-13T15:17:56.476Z</time></trkpt><trkpt lat="40.7683844" lon="9.5402707"><ele>132.0</ele><time>2026-04-13T15:17:57.475Z</time></trkpt><trkpt lat="40.7684227" lon="9.5403571"><ele>132.0</ele><time>2026-04-13T15:17:58.467Z</time></trkpt><trkpt lat="40.7684615" lon="9.540459"><ele>132.0</ele><time>2026-04-13T15:17:59.472Z</time></trkpt><trkpt lat="40.768501" lon="9.5405696"><ele>132.0</ele><time>2026-04-13T15:18:00.486Z</time></trkpt><trkpt lat="40.7685438" lon="9.5406546"><ele>131.66666666666666</ele><time>2026-04-13T15:18:01.475Z</time></trkpt><trkpt lat="40.768615" lon="9.5408004"><ele>131.33333333333334</ele><time>2026-04-13T15:18:03.483Z</time></trkpt><trkpt lat="40.7686475" lon="9.5408801"><ele>131.0</ele><time>2026-04-13T15:18:04.468Z</time></trkpt><trkpt lat="40.7686752" lon="9.5409673"><ele>130.66666666666669</ele><time>2026-04-13T15:18:05.486Z</time></trkpt><trkpt lat="40.7686978" lon="9.5410579"><ele>130.33333333333334</ele><time>2026-04-13T15:18:06.467Z</time></trkpt><trkpt lat="40.7687185" lon="9.5411454"><ele>130.0</ele><time>2026-04-13T15:18:07.467Z</time></trkpt><trkpt lat="40.768742" lon="9.5412332"><ele>130.0</ele><time>2026-04-13T15:18:08.473Z</time></trkpt><trkpt lat="40.7687621" lon="9.5413207"><ele>130.0</ele><time>2026-04-13T15:18:09.462Z</time></trkpt><trkpt lat="40.7687781" lon="9.5414042"><ele>130.0</ele><time>2026-04-13T15:18:10.469Z</time></trkpt><trkpt lat="40.7688106" lon="9.5415553"><ele>130.0</ele><time>2026-04-13T15:18:12.469Z</time></trkpt><trkpt lat="40.7688468" lon="9.5417109"><ele>130.0</ele><time>2026-04-13T15:18:14.462Z</time></trkpt><trkpt lat="40.768888" lon="9.5418494"><ele>130.0</ele><time>2026-04-13T15:18:16.475Z</time></trkpt><trkpt lat="40.7689246" lon="9.5419795"><ele>130.0</ele><time>2026-04-13T15:18:18.482Z</time></trkpt><trkpt lat="40.7689543" lon="9.5420882"><ele>130.0</ele><time>2026-04-13T15:18:20.473Z</time></trkpt><trkpt lat="40.7689906" lon="9.542196"><ele>130.0</ele><time>2026-04-13T15:18:22.465Z</time></trkpt><trkpt lat="40.7690296" lon="9.5423113"><ele>130.0</ele><time>2026-04-13T15:18:24.473Z</time></trkpt><trkpt lat="40.7690622" lon="9.5424425"><ele>130.5</ele><time>2026-04-13T15:18:26.463Z</time></trkpt><trkpt lat="40.7690922" lon="9.5425407"><ele>131.0</ele><time>2026-04-13T15:18:27.464Z</time></trkpt><trkpt lat="40.7691174" lon="9.5426532"><ele>131.5</ele><time>2026-04-13T15:18:28.471Z</time></trkpt><trkpt lat="40.7691445" lon="9.5427765"><ele>132.0</ele><time>2026-04-13T15:18:29.466Z</time></trkpt><trkpt lat="40.7691677" lon="9.5428889"><ele>132.5</ele><time>2026-04-13T15:18:30.473Z</time></trkpt><trkpt lat="40.7691893" lon="9.5430004"><ele>133.0</ele><time>2026-04-13T15:18:31.47Z</time></trkpt><trkpt lat="40.7692157" lon="9.5431086"><ele>133.20000000000002</ele><time>2026-04-13T15:18:32.472Z</time></trkpt><trkpt lat="40.7692469" lon="9.5432175"><ele>133.4</ele><time>2026-04-13T15:18:33.464Z</time></trkpt><trkpt lat="40.7692757" lon="9.5433289"><ele>133.60000000000002</ele><time>2026-04-13T15:18:34.462Z</time></trkpt><trkpt lat="40.7693015" lon="9.54345"><ele>133.8</ele><time>2026-04-13T15:18:35.469Z</time></trkpt><trkpt lat="40.7693275" lon="9.5435694"><ele>134.0</ele><time>2026-04-13T15:18:36.467Z</time></trkpt><trkpt lat="40.7693642" lon="9.5436933"><ele>133.8</ele><time>2026-04-13T15:18:37.471Z</time></trkpt><trkpt lat="40.7694022" lon="9.5438274"><ele>133.60000000000002</ele><time>2026-04-13T15:18:38.466Z</time></trkpt><trkpt lat="40.7694476" lon="9.5439639"><ele>133.4</ele><time>2026-04-13T15:18:39.456Z</time></trkpt><trkpt lat="40.7694943" lon="9.5441009"><ele>133.20000000000002</ele><time>2026-04-13T15:18:40.468Z</time></trkpt><trkpt lat="40.769531" lon="9.5442311"><ele>133.0</ele><time>2026-04-13T15:18:41.47Z</time></trkpt><trkpt lat="40.7695635" lon="9.5443581"><ele>133.0</ele><time>2026-04-13T15:18:42.459Z</time></trkpt><trkpt lat="40.7695961" lon="9.5444824"><ele>133.0</ele><time>2026-04-13T15:18:43.465Z</time></trkpt><trkpt lat="40.7696294" lon="9.5446124"><ele>133.0</ele><time>2026-04-13T15:18:44.469Z</time></trkpt><trkpt lat="40.7696626" lon="9.5447445"><ele>133.0</ele><time>2026-04-13T15:18:45.464Z</time></trkpt><trkpt lat="40.7696994" lon="9.5448839"><ele>133.0</ele><time>2026-04-13T15:18:46.46Z</time></trkpt><trkpt lat="40.7697325" lon="9.5450285"><ele>133.6</ele><time>2026-04-13T15:18:47.476Z</time></trkpt><trkpt lat="40.7697723" lon="9.5451685"><ele>134.20000000000002</ele><time>2026-04-13T15:18:48.469Z</time></trkpt><trkpt lat="40.7698106" lon="9.5453098"><ele>134.8</ele><time>2026-04-13T15:18:49.459Z</time></trkpt><trkpt lat="40.7698467" lon="9.5454457"><ele>135.4</ele><time>2026-04-13T15:18:50.453Z</time></trkpt><trkpt lat="40.7698815" lon="9.5455759"><ele>136.0</ele><time>2026-04-13T15:18:51.454Z</time></trkpt><trkpt lat="40.7699141" lon="9.545707"><ele>136.0</ele><time>2026-04-13T15:18:52.463Z</time></trkpt><trkpt lat="40.769938" lon="9.5458268"><ele>136.0</ele><time>2026-04-13T15:18:53.472Z</time></trkpt><trkpt lat="40.7699593" lon="9.5459467"><ele>136.0</ele><time>2026-04-13T15:18:54.457Z</time></trkpt><trkpt lat="40.7699807" lon="9.5460806"><ele>136.0</ele><time>2026-04-13T15:18:55.454Z</time></trkpt><trkpt lat="40.7699989" lon="9.5462206"><ele>136.0</ele><time>2026-04-13T15:18:56.454Z</time></trkpt><trkpt lat="40.7700146" lon="9.5463633"><ele>136.0</ele><time>2026-04-13T15:18:57.456Z</time></trkpt><trkpt lat="40.7700289" lon="9.5465104"><ele>136.0</ele><time>2026-04-13T15:18:58.455Z</time></trkpt><trkpt lat="40.7700459" lon="9.546656"><ele>136.0</ele><time>2026-04-13T15:18:59.454Z</time></trkpt><trkpt lat="40.7700721" lon="9.5467981"><ele>136.0</ele><time>2026-04-13T15:19:00.457Z</time></trkpt><trkpt lat="40.7701061" lon="9.5469438"><ele>136.0</ele><time>2026-04-13T15:19:01.466Z</time></trkpt><trkpt lat="40.770141" lon="9.5470858"><ele>136.0</ele><time>2026-04-13T15:19:02.455Z</time></trkpt><trkpt lat="40.7701776" lon="9.5472178"><ele>136.0</ele><time>2026-04-13T15:19:03.477Z</time></trkpt><trkpt lat="40.7702133" lon="9.5473294"><ele>136.0</ele><time>2026-04-13T15:19:04.46Z</time></trkpt><trkpt lat="40.7702449" lon="9.5474276"><ele>136.0</ele><time>2026-04-13T15:19:05.457Z</time></trkpt><trkpt lat="40.7702725" lon="9.547511"><ele>135.66666666666669</ele><time>2026-04-13T15:19:06.454Z</time></trkpt><trkpt lat="40.7702971" lon="9.5475917"><ele>135.33333333333334</ele><time>2026-04-13T15:19:07.453Z</time></trkpt><trkpt lat="40.7703379" lon="9.5477557"><ele>135.0</ele><time>2026-04-13T15:19:09.458Z</time></trkpt><trkpt lat="40.7703597" lon="9.5478445"><ele>134.66666666666666</ele><time>2026-04-13T15:19:10.452Z</time></trkpt><trkpt lat="40.7703802" lon="9.5479314"><ele>134.33333333333331</ele><time>2026-04-13T15:19:11.463Z</time></trkpt><trkpt lat="40.7704082" lon="9.5480358"><ele>134.0</ele><time>2026-04-13T15:19:12.459Z</time></trkpt><trkpt lat="40.7704484" lon="9.5481539"><ele>134.0</ele><time>2026-04-13T15:19:13.454Z</time></trkpt><trkpt lat="40.7704876" lon="9.5482654"><ele>134.0</ele><time>2026-04-13T15:19:14.453Z</time></trkpt><trkpt lat="40.7705154" lon="9.548364"><ele>134.0</ele><time>2026-04-13T15:19:15.46Z</time></trkpt><trkpt lat="40.7705387" lon="9.5484553"><ele>134.0</ele><time>2026-04-13T15:19:16.462Z</time></trkpt><trkpt lat="40.7705585" lon="9.5485371"><ele>134.0</ele><time>2026-04-13T15:19:17.466Z</time></trkpt><trkpt lat="40.7705818" lon="9.5486156"><ele>134.0</ele><time>2026-04-13T15:19:18.456Z</time></trkpt><trkpt lat="40.7706044" lon="9.5486972"><ele>134.0</ele><time>2026-04-13T15:19:19.46Z</time></trkpt><trkpt lat="40.7706445" lon="9.5488459"><ele>134.16666666666666</ele><time>2026-04-13T15:19:21.45Z</time></trkpt><trkpt lat="40.7706692" lon="9.5489249"><ele>134.33333333333331</ele><time>2026-04-13T15:19:22.46Z</time></trkpt><trkpt lat="40.7706937" lon="9.549016"><ele>134.5</ele><time>2026-04-13T15:19:23.467Z</time></trkpt><trkpt lat="40.7707259" lon="9.5491222"><ele>134.66666666666666</ele><time>2026-04-13T15:19:24.452Z</time></trkpt><trkpt lat="40.7707673" lon="9.5492407"><ele>134.83333333333334</ele><time>2026-04-13T15:19:25.453Z</time></trkpt><trkpt lat="40.7708088" lon="9.5493394"><ele>135.0</ele><time>2026-04-13T15:19:26.448Z</time></trkpt><trkpt lat="40.7708419" lon="9.5494159"><ele>135.0</ele><time>2026-04-13T15:19:27.457Z</time></trkpt><trkpt lat="40.7708918" lon="9.5495234"><ele>135.0</ele><time>2026-04-13T15:19:29.464Z</time></trkpt><trkpt lat="40.7709602" lon="9.5496593"><ele>135.0</ele><time>2026-04-13T15:19:31.455Z</time></trkpt><trkpt lat="40.7710012" lon="9.5497363"><ele>135.0</ele><time>2026-04-13T15:19:32.457Z</time></trkpt><trkpt lat="40.7710476" lon="9.5497958"><ele>135.0</ele><time>2026-04-13T15:19:33.468Z</time></trkpt><trkpt lat="40.7711081" lon="9.5498347"><ele>135.0</ele><time>2026-04-13T15:19:34.445Z</time></trkpt><trkpt lat="40.7712141" lon="9.5498676"><ele>136.0</ele><time>2026-04-13T15:19:36.453Z</time></trkpt><trkpt lat="40.7713307" lon="9.5498997"><ele>137.0</ele><time>2026-04-13T15:19:38.454Z</time></trkpt><trkpt lat="40.7714" lon="9.5499312"><ele>138.0</ele><time>2026-04-13T15:19:39.457Z</time></trkpt><trkpt lat="40.7714822" lon="9.5499647"><ele>139.0</ele><time>2026-04-13T15:19:40.448Z</time></trkpt><trkpt lat="40.7715671" lon="9.5500013"><ele>140.0</ele><time>2026-04-13T15:19:41.458Z</time></trkpt><trkpt lat="40.7716506" lon="9.550037"><ele>140.0</ele><time>2026-04-13T15:19:42.45Z</time></trkpt><trkpt lat="40.771732" lon="9.5500691"><ele>140.0</ele><time>2026-04-13T15:19:43.453Z</time></trkpt><trkpt lat="40.771816" lon="9.5501064"><ele>140.0</ele><time>2026-04-13T15:19:44.448Z</time></trkpt><trkpt lat="40.7718998" lon="9.5501445"><ele>140.0</ele><time>2026-04-13T15:19:45.45Z</time></trkpt><trkpt lat="40.7719763" lon="9.550199"><ele>140.0</ele><time>2026-04-13T15:19:46.447Z</time></trkpt><trkpt lat="40.7720416" lon="9.5502741"><ele>140.0</ele><time>2026-04-13T15:19:47.453Z</time></trkpt><trkpt lat="40.7721045" lon="9.5503712"><ele>140.33333333333331</ele><time>2026-04-13T15:19:48.447Z</time></trkpt><trkpt lat="40.7721577" lon="9.5504735"><ele>140.66666666666666</ele><time>2026-04-13T15:19:49.44Z</time></trkpt><trkpt lat="40.7722061" lon="9.5505751"><ele>141.0</ele><time>2026-04-13T15:19:50.44Z</time></trkpt><trkpt lat="40.7722457" lon="9.5506818"><ele>141.33333333333334</ele><time>2026-04-13T15:19:51.449Z</time></trkpt><trkpt lat="40.7722813" lon="9.5507856"><ele>141.66666666666669</ele><time>2026-04-13T15:19:52.449Z</time></trkpt><trkpt lat="40.7723172" lon="9.5508908"><ele>142.0</ele><time>2026-04-13T15:19:53.454Z</time></trkpt><trkpt lat="40.7723541" lon="9.5509943"><ele>142.0</ele><time>2026-04-13T15:19:54.449Z</time></trkpt><trkpt lat="40.7723861" lon="9.5510928"><ele>142.0</ele><time>2026-04-13T15:19:55.447Z</time></trkpt><trkpt lat="40.772413" lon="9.5511736"><ele>142.0</ele><time>2026-04-13T15:19:56.446Z</time></trkpt><trkpt lat="40.7724394" lon="9.5512564"><ele>142.0</ele><time>2026-04-13T15:19:57.448Z</time></trkpt><trkpt lat="40.7724842" lon="9.5513668"><ele>142.0</ele><time>2026-04-13T15:19:58.443Z</time></trkpt><trkpt lat="40.7725345" lon="9.551499"><ele>142.0</ele><time>2026-04-13T15:19:59.435Z</time></trkpt><trkpt lat="40.7725861" lon="9.5516516"><ele>142.0</ele><time>2026-04-13T15:20:00.443Z</time></trkpt><trkpt lat="40.772644" lon="9.5518206"><ele>142.0</ele><time>2026-04-13T15:20:01.453Z</time></trkpt><trkpt lat="40.7727021" lon="9.5519962"><ele>142.0</ele><time>2026-04-13T15:20:02.441Z</time></trkpt><trkpt lat="40.7727575" lon="9.5521626"><ele>142.0</ele><time>2026-04-13T15:20:03.438Z</time></trkpt><trkpt lat="40.7728029" lon="9.5523154"><ele>141.75</ele><time>2026-04-13T15:20:04.456Z</time></trkpt><trkpt lat="40.7728461" lon="9.552465"><ele>141.5</ele><time>2026-04-13T15:20:05.441Z</time></trkpt><trkpt lat="40.7728884" lon="9.5526123"><ele>141.25</ele><time>2026-04-13T15:20:06.448Z</time></trkpt><trkpt lat="40.7729335" lon="9.5527543"><ele>141.0</ele><time>2026-04-13T15:20:07.469Z</time></trkpt><trkpt lat="40.7729807" lon="9.5528857"><ele>141.0</ele><time>2026-04-13T15:20:08.443Z</time></trkpt><trkpt lat="40.7730391" lon="9.5530041"><ele>141.0</ele><time>2026-04-13T15:20:09.438Z</time></trkpt><trkpt lat="40.7731115" lon="9.5531041"><ele>141.0</ele><time>2026-04-13T15:20:10.438Z</time></trkpt><trkpt lat="40.773199" lon="9.5531941"><ele>141.0</ele><time>2026-04-13T15:20:11.448Z</time></trkpt><trkpt lat="40.7733011" lon="9.5532637"><ele>141.0</ele><time>2026-04-13T15:20:12.443Z</time></trkpt><trkpt lat="40.7734142" lon="9.5533206"><ele>140.5</ele><time>2026-04-13T15:20:13.443Z</time></trkpt><trkpt lat="40.7735273" lon="9.5533701"><ele>140.0</ele><time>2026-04-13T15:20:14.438Z</time></trkpt><trkpt lat="40.7736453" lon="9.5534223"><ele>139.5</ele><time>2026-04-13T15:20:15.435Z</time></trkpt><trkpt lat="40.7737653" lon="9.5534692"><ele>139.0</ele><time>2026-04-13T15:20:16.453Z</time></trkpt><trkpt lat="40.7738915" lon="9.5535217"><ele>139.0</ele><time>2026-04-13T15:20:17.457Z</time></trkpt><trkpt lat="40.7740207" lon="9.5535719"><ele>139.0</ele><time>2026-04-13T15:20:18.433Z</time></trkpt><trkpt lat="40.7741348" lon="9.5536163"><ele>139.0</ele><time>2026-04-13T15:20:19.434Z</time></trkpt><trkpt lat="40.7742402" lon="9.5536582"><ele>139.0</ele><time>2026-04-13T15:20:20.431Z</time></trkpt><trkpt lat="40.7743406" lon="9.5537029"><ele>140.16666666666669</ele><time>2026-04-13T15:20:21.453Z</time></trkpt><trkpt lat="40.77444" lon="9.5537459"><ele>141.33333333333334</ele><time>2026-04-13T15:20:22.438Z</time></trkpt><trkpt lat="40.7745256" lon="9.5537905"><ele>142.5</ele><time>2026-04-13T15:20:23.435Z</time></trkpt><trkpt lat="40.7745975" lon="9.5538292"><ele>143.66666666666666</ele><time>2026-04-13T15:20:24.429Z</time></trkpt><trkpt lat="40.7746652" lon="9.5538734"><ele>144.83333333333331</ele><time>2026-04-13T15:20:25.433Z</time></trkpt><trkpt lat="40.7747363" lon="9.5539313"><ele>146.0</ele><time>2026-04-13T15:20:26.435Z</time></trkpt><trkpt lat="40.7748069" lon="9.5540169"><ele>146.0</ele><time>2026-04-13T15:20:27.43Z</time></trkpt><trkpt lat="40.7748707" lon="9.5541242"><ele>146.0</ele><time>2026-04-13T15:20:28.434Z</time></trkpt><trkpt lat="40.7749236" lon="9.5542574"><ele>146.0</ele><time>2026-04-13T15:20:29.432Z</time></trkpt><trkpt lat="40.7749663" lon="9.5544153"><ele>146.0</ele><time>2026-04-13T15:20:30.431Z</time></trkpt><trkpt lat="40.7750044" lon="9.5545809"><ele>146.75</ele><time>2026-04-13T15:20:31.431Z</time></trkpt><trkpt lat="40.7750454" lon="9.554749"><ele>147.5</ele><time>2026-04-13T15:20:32.455Z</time></trkpt><trkpt lat="40.7750977" lon="9.5549094"><ele>148.25</ele><time>2026-04-13T15:20:33.459Z</time></trkpt><trkpt lat="40.7751616" lon="9.5550529"><ele>149.0</ele><time>2026-04-13T15:20:34.432Z</time></trkpt><trkpt lat="40.7752417" lon="9.5551737"><ele>149.0</ele><time>2026-04-13T15:20:35.428Z</time></trkpt><trkpt lat="40.7753393" lon="9.5552796"><ele>149.0</ele><time>2026-04-13T15:20:36.429Z</time></trkpt><trkpt lat="40.7754538" lon="9.5553637"><ele>149.0</ele><time>2026-04-13T15:20:37.435Z</time></trkpt><trkpt lat="40.7755697" lon="9.5554403"><ele>149.0</ele><time>2026-04-13T15:20:38.426Z</time></trkpt><trkpt lat="40.7756883" lon="9.5554933"><ele>149.0</ele><time>2026-04-13T15:20:39.428Z</time></trkpt><trkpt lat="40.7758019" lon="9.5555182"><ele>149.0</ele><time>2026-04-13T15:20:40.434Z</time></trkpt><trkpt lat="40.7759152" lon="9.5555121"><ele>149.0</ele><time>2026-04-13T15:20:41.433Z</time></trkpt><trkpt lat="40.7760281" lon="9.5554718"><ele>149.0</ele><time>2026-04-13T15:20:42.44Z</time></trkpt><trkpt lat="40.7761436" lon="9.5554145"><ele>150.5</ele><time>2026-04-13T15:20:43.432Z</time></trkpt><trkpt lat="40.776259" lon="9.5553362"><ele>152.0</ele><time>2026-04-13T15:20:44.428Z</time></trkpt><trkpt lat="40.7763782" lon="9.5552593"><ele>153.5</ele><time>2026-04-13T15:20:45.449Z</time></trkpt><trkpt lat="40.7765068" lon="9.555184"><ele>155.0</ele><time>2026-04-13T15:20:46.428Z</time></trkpt><trkpt lat="40.7766379" lon="9.5551017"><ele>155.0</ele><time>2026-04-13T15:20:47.45Z</time></trkpt><trkpt lat="40.7767697" lon="9.5550121"><ele>155.0</ele><time>2026-04-13T15:20:48.456Z</time></trkpt><trkpt lat="40.7769072" lon="9.554925"><ele>155.0</ele><time>2026-04-13T15:20:49.437Z</time></trkpt><trkpt lat="40.777046" lon="9.5548351"><ele>156.0</ele><time>2026-04-13T15:20:50.435Z</time></trkpt><trkpt lat="40.7771869" lon="9.5547452"><ele>157.0</ele><time>2026-04-13T15:20:51.435Z</time></trkpt><trkpt lat="40.777331" lon="9.5546546"><ele>158.0</ele><time>2026-04-13T15:20:52.429Z</time></trkpt><trkpt lat="40.7774737" lon="9.5545629"><ele>159.0</ele><time>2026-04-13T15:20:53.427Z</time></trkpt><trkpt lat="40.7776173" lon="9.5544684"><ele>160.0</ele><time>2026-04-13T15:20:54.432Z</time></trkpt><trkpt lat="40.7777606" lon="9.5543782"><ele>161.0</ele><time>2026-04-13T15:20:55.453Z</time></trkpt><trkpt lat="40.7778933" lon="9.5543017"><ele>162.25</ele><time>2026-04-13T15:20:56.437Z</time></trkpt><trkpt lat="40.7780145" lon="9.554238"><ele>163.5</ele><time>2026-04-13T15:20:57.438Z</time></trkpt><trkpt lat="40.7781439" lon="9.5541956"><ele>164.75</ele><time>2026-04-13T15:20:58.434Z</time></trkpt><trkpt lat="40.7782668" lon="9.5541926"><ele>166.0</ele><time>2026-04-13T15:20:59.425Z</time></trkpt><trkpt lat="40.7783586" lon="9.5542163"><ele>166.0</ele><time>2026-04-13T15:21:00.43Z</time></trkpt><trkpt lat="40.7784361" lon="9.5542519"><ele>166.0</ele><time>2026-04-13T15:21:02.434Z</time></trkpt><trkpt lat="40.7785201" lon="9.5542731"><ele>166.0</ele><time>2026-04-13T15:21:11.428Z</time></trkpt><trkpt lat="40.7786007" lon="9.5542826"><ele>166.0</ele><time>2026-04-13T15:21:13.432Z</time></trkpt><trkpt lat="40.7786998" lon="9.5542903"><ele>166.0</ele><time>2026-04-13T15:21:15.42Z</time></trkpt><trkpt lat="40.7787649" lon="9.5543024"><ele>166.0</ele><time>2026-04-13T15:21:16.43Z</time></trkpt><trkpt lat="40.7788351" lon="9.5543158"><ele>166.4</ele><time>2026-04-13T15:21:17.433Z</time></trkpt><trkpt lat="40.7789162" lon="9.5543292"><ele>166.8</ele><time>2026-04-13T15:21:18.431Z</time></trkpt><trkpt lat="40.7790033" lon="9.5543421"><ele>167.20000000000002</ele><time>2026-04-13T15:21:19.418Z</time></trkpt><trkpt lat="40.7790974" lon="9.5543633"><ele>167.60000000000002</ele><time>2026-04-13T15:21:20.424Z</time></trkpt><trkpt lat="40.779194" lon="9.5543859"><ele>168.0</ele><time>2026-04-13T15:21:21.435Z</time></trkpt><trkpt lat="40.7792962" lon="9.5544143"><ele>167.5</ele><time>2026-04-13T15:21:22.431Z</time></trkpt><trkpt lat="40.7793973" lon="9.5544514"><ele>167.0</ele><time>2026-04-13T15:21:23.446Z</time></trkpt><trkpt lat="40.7795093" lon="9.5544901"><ele>166.5</ele><time>2026-04-13T15:21:24.423Z</time></trkpt><trkpt lat="40.7796214" lon="9.5545374"><ele>166.0</ele><time>2026-04-13T15:21:25.421Z</time></trkpt><trkpt lat="40.7797318" lon="9.5545807"><ele>166.0</ele><time>2026-04-13T15:21:26.415Z</time></trkpt><trkpt lat="40.7798332" lon="9.5546209"><ele>166.0</ele><time>2026-04-13T15:21:27.418Z</time></trkpt><trkpt lat="40.779933" lon="9.5546561"><ele>166.0</ele><time>2026-04-13T15:21:28.419Z</time></trkpt><trkpt lat="40.7800348" lon="9.5546951"><ele>166.0</ele><time>2026-04-13T15:21:29.425Z</time></trkpt><trkpt lat="40.7801381" lon="9.554742"><ele>166.0</ele><time>2026-04-13T15:21:30.429Z</time></trkpt><trkpt lat="40.7802389" lon="9.5548019"><ele>163.75</ele><time>2026-04-13T15:21:31.436Z</time></trkpt><trkpt lat="40.7803346" lon="9.5548794"><ele>161.5</ele><time>2026-04-13T15:21:32.43Z</time></trkpt><trkpt lat="40.7804289" lon="9.5549683"><ele>159.25</ele><time>2026-04-13T15:21:33.427Z</time></trkpt><trkpt lat="40.7805318" lon="9.5550631"><ele>157.0</ele><time>2026-04-13T15:21:34.424Z</time></trkpt><trkpt lat="40.7806331" lon="9.5551672"><ele>157.0</ele><time>2026-04-13T15:21:35.423Z</time></trkpt><trkpt lat="40.780738" lon="9.5552715"><ele>157.0</ele><time>2026-04-13T15:21:36.425Z</time></trkpt><trkpt lat="40.7808432" lon="9.5553804"><ele>157.0</ele><time>2026-04-13T15:21:37.441Z</time></trkpt><trkpt lat="40.7809496" lon="9.5555011"><ele>157.0</ele><time>2026-04-13T15:21:38.415Z</time></trkpt><trkpt lat="40.7810568" lon="9.5556317"><ele>155.75</ele><time>2026-04-13T15:21:39.416Z</time></trkpt><trkpt lat="40.7811575" lon="9.5557813"><ele>154.5</ele><time>2026-04-13T15:21:40.415Z</time></trkpt><trkpt lat="40.7812467" lon="9.5559372"><ele>153.25</ele><time>2026-04-13T15:21:41.417Z</time></trkpt><trkpt lat="40.7813284" lon="9.5560817"><ele>152.0</ele><time>2026-04-13T15:21:42.415Z</time></trkpt><trkpt lat="40.7814095" lon="9.5562169"><ele>151.75</ele><time>2026-04-13T15:21:43.417Z</time></trkpt><trkpt lat="40.7814904" lon="9.5563526"><ele>151.5</ele><time>2026-04-13T15:21:44.433Z</time></trkpt><trkpt lat="40.7815728" lon="9.5564921"><ele>151.25</ele><time>2026-04-13T15:21:45.417Z</time></trkpt><trkpt lat="40.7816591" lon="9.5566318"><ele>151.0</ele><time>2026-04-13T15:21:46.413Z</time></trkpt><trkpt lat="40.7817467" lon="9.5567711"><ele>151.0</ele><time>2026-04-13T15:21:47.415Z</time></trkpt><trkpt lat="40.7818346" lon="9.5569123"><ele>151.0</ele><time>2026-04-13T15:21:48.41Z</time></trkpt><trkpt lat="40.7819241" lon="9.5570585"><ele>151.0</ele><time>2026-04-13T15:21:49.413Z</time></trkpt><trkpt lat="40.7820146" lon="9.5572063"><ele>151.0</ele><time>2026-04-13T15:21:50.413Z</time></trkpt><trkpt lat="40.7821075" lon="9.5573564"><ele>148.33333333333334</ele><time>2026-04-13T15:21:51.414Z</time></trkpt><trkpt lat="40.7822013" lon="9.557508"><ele>145.66666666666666</ele><time>2026-04-13T15:21:52.408Z</time></trkpt><trkpt lat="40.7822971" lon="9.5576644"><ele>143.0</ele><time>2026-04-13T15:21:53.416Z</time></trkpt><trkpt lat="40.7823937" lon="9.5578259"><ele>143.66666666666666</ele><time>2026-04-13T15:21:54.419Z</time></trkpt><trkpt lat="40.7824904" lon="9.5579874"><ele>144.33333333333334</ele><time>2026-04-13T15:21:55.414Z</time></trkpt><trkpt lat="40.7825885" lon="9.5581501"><ele>145.0</ele><time>2026-04-13T15:21:56.41Z</time></trkpt><trkpt lat="40.782684" lon="9.5583076"><ele>144.75</ele><time>2026-04-13T15:21:57.414Z</time></trkpt><trkpt lat="40.7827779" lon="9.5584612"><ele>144.5</ele><time>2026-04-13T15:21:58.413Z</time></trkpt><trkpt lat="40.7828672" lon="9.5586097"><ele>144.25</ele><time>2026-04-13T15:21:59.413Z</time></trkpt><trkpt lat="40.7829528" lon="9.5587562"><ele>144.0</ele><time>2026-04-13T15:22:00.407Z</time></trkpt><trkpt lat="40.7830345" lon="9.5589014"><ele>144.0</ele><time>2026-04-13T15:22:01.411Z</time></trkpt><trkpt lat="40.7831165" lon="9.5590475"><ele>144.0</ele><time>2026-04-13T15:22:02.412Z</time></trkpt><trkpt lat="40.7831995" lon="9.5591925"><ele>144.0</ele><time>2026-04-13T15:22:03.426Z</time></trkpt><trkpt lat="40.7832859" lon="9.5593436"><ele>144.0</ele><time>2026-04-13T15:22:04.408Z</time></trkpt><trkpt lat="40.7833702" lon="9.5594978"><ele>143.25</ele><time>2026-04-13T15:22:05.412Z</time></trkpt><trkpt lat="40.7834567" lon="9.5596523"><ele>142.5</ele><time>2026-04-13T15:22:06.406Z</time></trkpt><trkpt lat="40.7835456" lon="9.5598127"><ele>141.75</ele><time>2026-04-13T15:22:07.404Z</time></trkpt><trkpt lat="40.783637" lon="9.5599708"><ele>141.0</ele><time>2026-04-13T15:22:08.407Z</time></trkpt><trkpt lat="40.7837302" lon="9.5601261"><ele>141.0</ele><time>2026-04-13T15:22:09.407Z</time></trkpt><trkpt lat="40.7838308" lon="9.5602724"><ele>141.0</ele><time>2026-04-13T15:22:10.416Z</time></trkpt><trkpt lat="40.7839409" lon="9.560405"><ele>141.0</ele><time>2026-04-13T15:22:11.406Z</time></trkpt><trkpt lat="40.7840594" lon="9.5605322"><ele>141.66666666666666</ele><time>2026-04-13T15:22:12.425Z</time></trkpt><trkpt lat="40.7841826" lon="9.5606534"><ele>142.33333333333331</ele><time>2026-04-13T15:22:13.415Z</time></trkpt><trkpt lat="40.7843117" lon="9.5607723"><ele>143.0</ele><time>2026-04-13T15:22:14.401Z</time></trkpt><trkpt lat="40.7844363" lon="9.5608954"><ele>143.0</ele><time>2026-04-13T15:22:15.401Z</time></trkpt><trkpt lat="40.7845642" lon="9.5610207"><ele>143.0</ele><time>2026-04-13T15:22:16.41Z</time></trkpt><trkpt lat="40.7846924" lon="9.5611485"><ele>143.0</ele><time>2026-04-13T15:22:17.418Z</time></trkpt><trkpt lat="40.7848199" lon="9.5612771"><ele>143.66666666666666</ele><time>2026-04-13T15:22:18.401Z</time></trkpt><trkpt lat="40.7849484" lon="9.561408"><ele>144.33333333333334</ele><time>2026-04-13T15:22:19.412Z</time></trkpt><trkpt lat="40.7850734" lon="9.5615436"><ele>145.0</ele><time>2026-04-13T15:22:20.401Z</time></trkpt><trkpt lat="40.7851963" lon="9.561685"><ele>142.0</ele><time>2026-04-13T15:22:21.399Z</time></trkpt><trkpt lat="40.7853145" lon="9.5618255"><ele>139.0</ele><time>2026-04-13T15:22:22.398Z</time></trkpt><trkpt lat="40.7854296" lon="9.5619626"><ele>136.0</ele><time>2026-04-13T15:22:23.4Z</time></trkpt><trkpt lat="40.7855399" lon="9.5620948"><ele>136.0</ele><time>2026-04-13T15:22:24.404Z</time></trkpt><trkpt lat="40.7856431" lon="9.5622211"><ele>136.0</ele><time>2026-04-13T15:22:25.394Z</time></trkpt><trkpt lat="40.7857437" lon="9.5623387"><ele>136.0</ele><time>2026-04-13T15:22:26.404Z</time></trkpt><trkpt lat="40.7858506" lon="9.5624568"><ele>136.0</ele><time>2026-04-13T15:22:27.408Z</time></trkpt><trkpt lat="40.7859568" lon="9.5625832"><ele>135.0</ele><time>2026-04-13T15:22:28.407Z</time></trkpt><trkpt lat="40.7860681" lon="9.5627104"><ele>134.0</ele><time>2026-04-13T15:22:29.395Z</time></trkpt><trkpt lat="40.7861791" lon="9.5628403"><ele>133.0</ele><time>2026-04-13T15:22:30.411Z</time></trkpt><trkpt lat="40.7862899" lon="9.5629725"><ele>132.0</ele><time>2026-04-13T15:22:31.394Z</time></trkpt><trkpt lat="40.7864004" lon="9.5631063"><ele>132.0</ele><time>2026-04-13T15:22:32.432Z</time></trkpt><trkpt lat="40.7865133" lon="9.5632367"><ele>132.0</ele><time>2026-04-13T15:22:33.401Z</time></trkpt><trkpt lat="40.7866291" lon="9.5633649"><ele>132.0</ele><time>2026-04-13T15:22:34.41Z</time></trkpt><trkpt lat="40.7867426" lon="9.5634938"><ele>131.75</ele><time>2026-04-13T15:22:35.397Z</time></trkpt><trkpt lat="40.7868523" lon="9.5636227"><ele>131.5</ele><time>2026-04-13T15:22:36.397Z</time></trkpt><trkpt lat="40.7869581" lon="9.5637538"><ele>131.25</ele><time>2026-04-13T15:22:37.409Z</time></trkpt><trkpt lat="40.78706" lon="9.5638771"><ele>131.0</ele><time>2026-04-13T15:22:38.4Z</time></trkpt><trkpt lat="40.7871599" lon="9.5640016"><ele>131.0</ele><time>2026-04-13T15:22:39.414Z</time></trkpt><trkpt lat="40.7872524" lon="9.5641264"><ele>131.0</ele><time>2026-04-13T15:22:40.394Z</time></trkpt><trkpt lat="40.7873402" lon="9.5642515"><ele>131.0</ele><time>2026-04-13T15:22:41.403Z</time></trkpt><trkpt lat="40.7874252" lon="9.564379"><ele>131.0</ele><time>2026-04-13T15:22:42.41Z</time></trkpt><trkpt lat="40.7875105" lon="9.564502"><ele>131.0</ele><time>2026-04-13T15:22:43.405Z</time></trkpt><trkpt lat="40.7875993" lon="9.5646283"><ele>131.0</ele><time>2026-04-13T15:22:44.397Z</time></trkpt><trkpt lat="40.7876877" lon="9.5647543"><ele>131.0</ele><time>2026-04-13T15:22:45.421Z</time></trkpt><trkpt lat="40.7877712" lon="9.56488"><ele>131.0</ele><time>2026-04-13T15:22:46.41Z</time></trkpt><trkpt lat="40.787847" lon="9.5649981"><ele>131.0</ele><time>2026-04-13T15:22:47.399Z</time></trkpt><trkpt lat="40.7879199" lon="9.5651127"><ele>131.0</ele><time>2026-04-13T15:22:48.392Z</time></trkpt><trkpt lat="40.7879957" lon="9.5652266"><ele>131.0</ele><time>2026-04-13T15:22:49.403Z</time></trkpt><trkpt lat="40.7880788" lon="9.5653414"><ele>131.0</ele><time>2026-04-13T15:22:50.399Z</time></trkpt><trkpt lat="40.7881696" lon="9.5654458"><ele>131.5</ele><time>2026-04-13T15:22:51.401Z</time></trkpt><trkpt lat="40.7882721" lon="9.5655306"><ele>132.0</ele><time>2026-04-13T15:22:52.4Z</time></trkpt><trkpt lat="40.7883885" lon="9.5655993"><ele>132.5</ele><time>2026-04-13T15:22:53.396Z</time></trkpt><trkpt lat="40.7885166" lon="9.565649"><ele>133.0</ele><time>2026-04-13T15:22:54.406Z</time></trkpt><trkpt lat="40.7886443" lon="9.5656893"><ele>133.25</ele><time>2026-04-13T15:22:55.402Z</time></trkpt><trkpt lat="40.7887731" lon="9.5657271"><ele>133.5</ele><time>2026-04-13T15:22:56.402Z</time></trkpt><trkpt lat="40.7889005" lon="9.565768"><ele>133.75</ele><time>2026-04-13T15:22:57.397Z</time></trkpt><trkpt lat="40.7890216" lon="9.5658195"><ele>134.0</ele><time>2026-04-13T15:22:58.408Z</time></trkpt><trkpt lat="40.7891334" lon="9.5658939"><ele>134.0</ele><time>2026-04-13T15:22:59.399Z</time></trkpt><trkpt lat="40.7892368" lon="9.5659885"><ele>134.0</ele><time>2026-04-13T15:23:00.393Z</time></trkpt><trkpt lat="40.7893306" lon="9.5661132"><ele>134.0</ele><time>2026-04-13T15:23:01.399Z</time></trkpt><trkpt lat="40.7894203" lon="9.566254"><ele>134.0</ele><time>2026-04-13T15:23:02.395Z</time></trkpt><trkpt lat="40.7895056" lon="9.5664006"><ele>135.25</ele><time>2026-04-13T15:23:03.405Z</time></trkpt><trkpt lat="40.7895888" lon="9.5665537"><ele>136.5</ele><time>2026-04-13T15:23:04.403Z</time></trkpt><trkpt lat="40.7896795" lon="9.5667041"><ele>137.75</ele><time>2026-04-13T15:23:05.391Z</time></trkpt><trkpt lat="40.789768" lon="9.5668596"><ele>139.0</ele><time>2026-04-13T15:23:06.402Z</time></trkpt><trkpt lat="40.7898572" lon="9.5670127"><ele>139.0</ele><time>2026-04-13T15:23:07.396Z</time></trkpt><trkpt lat="40.7899486" lon="9.5671595"><ele>139.0</ele><time>2026-04-13T15:23:08.398Z</time></trkpt><trkpt lat="40.7900403" lon="9.5673109"><ele>139.0</ele><time>2026-04-13T15:23:09.399Z</time></trkpt><trkpt lat="40.7901293" lon="9.5674638"><ele>139.0</ele><time>2026-04-13T15:23:10.395Z</time></trkpt><trkpt lat="40.7902166" lon="9.5676192"><ele>140.25</ele><time>2026-04-13T15:23:11.404Z</time></trkpt><trkpt lat="40.7902991" lon="9.5677773"><ele>141.5</ele><time>2026-04-13T15:23:12.395Z</time></trkpt><trkpt lat="40.790372" lon="9.5679447"><ele>142.75</ele><time>2026-04-13T15:23:13.398Z</time></trkpt><trkpt lat="40.7904308" lon="9.5681226"><ele>144.0</ele><time>2026-04-13T15:23:14.399Z</time></trkpt><trkpt lat="40.7904875" lon="9.568314"><ele>144.0</ele><time>2026-04-13T15:23:15.393Z</time></trkpt><trkpt lat="40.7905415" lon="9.5685112"><ele>144.0</ele><time>2026-04-13T15:23:16.394Z</time></trkpt><trkpt lat="40.7905977" lon="9.5687087"><ele>144.0</ele><time>2026-04-13T15:23:17.398Z</time></trkpt><trkpt lat="40.7906561" lon="9.5689088"><ele>143.33333333333334</ele><time>2026-04-13T15:23:18.407Z</time></trkpt><trkpt lat="40.7907155" lon="9.5691071"><ele>142.66666666666669</ele><time>2026-04-13T15:23:19.398Z</time></trkpt><trkpt lat="40.7907753" lon="9.5693034"><ele>142.0</ele><time>2026-04-13T15:23:20.393Z</time></trkpt><trkpt lat="40.7908324" lon="9.5694975"><ele>142.0</ele><time>2026-04-13T15:23:21.399Z</time></trkpt><trkpt lat="40.7908861" lon="9.5696909"><ele>142.0</ele><time>2026-04-13T15:23:22.393Z</time></trkpt><trkpt lat="40.7909385" lon="9.5698812"><ele>142.0</ele><time>2026-04-13T15:23:23.389Z</time></trkpt><trkpt lat="40.7909938" lon="9.5700726"><ele>144.0</ele><time>2026-04-13T15:23:24.391Z</time></trkpt><trkpt lat="40.7910455" lon="9.5702641"><ele>146.0</ele><time>2026-04-13T15:23:25.396Z</time></trkpt><trkpt lat="40.79109" lon="9.5704533"><ele>148.0</ele><time>2026-04-13T15:23:26.393Z</time></trkpt><trkpt lat="40.7911321" lon="9.5706388"><ele>149.0</ele><time>2026-04-13T15:23:27.392Z</time></trkpt><trkpt lat="40.7911744" lon="9.5708035"><ele>150.0</ele><time>2026-04-13T15:23:28.393Z</time></trkpt><trkpt lat="40.7912138" lon="9.5709552"><ele>151.0</ele><time>2026-04-13T15:23:29.394Z</time></trkpt><trkpt lat="40.7912433" lon="9.5710986"><ele>152.0</ele><time>2026-04-13T15:23:30.407Z</time></trkpt><trkpt lat="40.791256" lon="9.5712362"><ele>152.2</ele><time>2026-04-13T15:23:31.394Z</time></trkpt><trkpt lat="40.791247" lon="9.5713687"><ele>152.39999999999998</ele><time>2026-04-13T15:23:32.392Z</time></trkpt><trkpt lat="40.79122" lon="9.5714977"><ele>152.60000000000002</ele><time>2026-04-13T15:23:33.399Z</time></trkpt><trkpt lat="40.7911669" lon="9.5716103"><ele>152.8</ele><time>2026-04-13T15:23:34.396Z</time></trkpt><trkpt lat="40.7910847" lon="9.5716993"><ele>153.0</ele><time>2026-04-13T15:23:35.395Z</time></trkpt><trkpt lat="40.7910018" lon="9.5717789"><ele>153.0</ele><time>2026-04-13T15:23:36.393Z</time></trkpt><trkpt lat="40.7909208" lon="9.5718765"><ele>153.0</ele><time>2026-04-13T15:23:37.418Z</time></trkpt><trkpt lat="40.7908572" lon="9.5719931"><ele>153.0</ele><time>2026-04-13T15:23:38.401Z</time></trkpt><trkpt lat="40.7908055" lon="9.5721235"><ele>153.0</ele><time>2026-04-13T15:23:39.395Z</time></trkpt><trkpt lat="40.7907722" lon="9.5722748"><ele>153.0</ele><time>2026-04-13T15:23:40.39Z</time></trkpt><trkpt lat="40.7907527" lon="9.5724403"><ele>155.5</ele><time>2026-04-13T15:23:41.397Z</time></trkpt><trkpt lat="40.7907522" lon="9.572626"><ele>158.0</ele><time>2026-04-13T15:23:42.396Z</time></trkpt><trkpt lat="40.7907487" lon="9.572813"><ele>160.5</ele><time>2026-04-13T15:23:43.397Z</time></trkpt><trkpt lat="40.7907404" lon="9.5730049"><ele>163.0</ele><time>2026-04-13T15:23:44.401Z</time></trkpt><trkpt lat="40.7907331" lon="9.5732064"><ele>164.66666666666669</ele><time>2026-04-13T15:23:45.395Z</time></trkpt><trkpt lat="40.7907215" lon="9.5734122"><ele>166.33333333333334</ele><time>2026-04-13T15:23:46.395Z</time></trkpt><trkpt lat="40.7907184" lon="9.5736186"><ele>168.0</ele><time>2026-04-13T15:23:47.406Z</time></trkpt><trkpt lat="40.7907164" lon="9.5738168"><ele>168.33333333333334</ele><time>2026-04-13T15:23:48.396Z</time></trkpt><trkpt lat="40.7907292" lon="9.5740191"><ele>168.66666666666669</ele><time>2026-04-13T15:23:49.397Z</time></trkpt><trkpt lat="40.7907651" lon="9.5742167"><ele>169.0</ele><time>2026-04-13T15:23:50.397Z</time></trkpt><trkpt lat="40.7908117" lon="9.5744151"><ele>170.0</ele><time>2026-04-13T15:23:51.393Z</time></trkpt><trkpt lat="40.7908667" lon="9.5746089"><ele>171.0</ele><time>2026-04-13T15:23:52.402Z</time></trkpt><trkpt lat="40.7909272" lon="9.5748015"><ele>172.0</ele><time>2026-04-13T15:23:53.396Z</time></trkpt><trkpt lat="40.7909851" lon="9.5749979"><ele>178.0</ele><time>2026-04-13T15:23:54.399Z</time></trkpt><trkpt lat="40.7910323" lon="9.5751994"><ele>184.0</ele><time>2026-04-13T15:23:55.397Z</time></trkpt><trkpt lat="40.7910632" lon="9.5754007"><ele>190.0</ele><time>2026-04-13T15:23:56.399Z</time></trkpt><trkpt lat="40.7910835" lon="9.5755978"><ele>191.0</ele><time>2026-04-13T15:23:57.408Z</time></trkpt><trkpt lat="40.7910984" lon="9.5757893"><ele>192.0</ele><time>2026-04-13T15:23:58.411Z</time></trkpt><trkpt lat="40.7910967" lon="9.5759717"><ele>193.0</ele><time>2026-04-13T15:23:59.394Z</time></trkpt><trkpt lat="40.7910703" lon="9.5761395"><ele>194.0</ele><time>2026-04-13T15:24:00.396Z</time></trkpt><trkpt lat="40.7910142" lon="9.5762894"><ele>191.0</ele><time>2026-04-13T15:24:01.405Z</time></trkpt><trkpt lat="40.7909625" lon="9.5764369"><ele>188.0</ele><time>2026-04-13T15:24:02.402Z</time></trkpt><trkpt lat="40.7909332" lon="9.5765996"><ele>185.0</ele><time>2026-04-13T15:24:03.399Z</time></trkpt><trkpt lat="40.7909276" lon="9.5767706"><ele>182.0</ele><time>2026-04-13T15:24:04.402Z</time></trkpt><trkpt lat="40.7909474" lon="9.5769398"><ele>183.25</ele><time>2026-04-13T15:24:05.399Z</time></trkpt><trkpt lat="40.7909869" lon="9.5771139"><ele>184.5</ele><time>2026-04-13T15:24:06.391Z</time></trkpt><trkpt lat="40.7910442" lon="9.5772798"><ele>185.75</ele><time>2026-04-13T15:24:07.412Z</time></trkpt><trkpt lat="40.7911141" lon="9.5774458"><ele>187.0</ele><time>2026-04-13T15:24:08.393Z</time></trkpt><trkpt lat="40.7911882" lon="9.5776117"><ele>189.75</ele><time>2026-04-13T15:24:09.391Z</time></trkpt><trkpt lat="40.7912597" lon="9.5777734"><ele>192.5</ele><time>2026-04-13T15:24:10.399Z</time></trkpt><trkpt lat="40.7913161" lon="9.5779308"><ele>195.25</ele><time>2026-04-13T15:24:11.394Z</time></trkpt><trkpt lat="40.7913463" lon="9.5780893"><ele>198.0</ele><time>2026-04-13T15:24:12.397Z</time></trkpt><trkpt lat="40.7913459" lon="9.5782603"><ele>199.0</ele><time>2026-04-13T15:24:13.397Z</time></trkpt><trkpt lat="40.7913203" lon="9.5784328"><ele>200.0</ele><time>2026-04-13T15:24:14.395Z</time></trkpt><trkpt lat="40.7912902" lon="9.578607"><ele>201.0</ele><time>2026-04-13T15:24:15.391Z</time></trkpt><trkpt lat="40.791261" lon="9.5787801"><ele>202.0</ele><time>2026-04-13T15:24:16.397Z</time></trkpt><trkpt lat="40.7912394" lon="9.5789643"><ele>203.5</ele><time>2026-04-13T15:24:17.396Z</time></trkpt><trkpt lat="40.7912242" lon="9.5791495"><ele>205.0</ele><time>2026-04-13T15:24:18.394Z</time></trkpt><trkpt lat="40.7912098" lon="9.5793434"><ele>206.5</ele><time>2026-04-13T15:24:19.4Z</time></trkpt><trkpt lat="40.7911973" lon="9.5795434"><ele>208.0</ele><time>2026-04-13T15:24:20.405Z</time></trkpt><trkpt lat="40.7911876" lon="9.5797496"><ele>209.33333333333331</ele><time>2026-04-13T15:24:21.395Z</time></trkpt><trkpt lat="40.7911767" lon="9.5799573"><ele>210.66666666666669</ele><time>2026-04-13T15:24:22.394Z</time></trkpt><trkpt lat="40.7911697" lon="9.5801664"><ele>212.0</ele><time>2026-04-13T15:24:23.394Z</time></trkpt><trkpt lat="40.7911662" lon="9.5803858"><ele>212.33333333333334</ele><time>2026-04-13T15:24:24.391Z</time></trkpt><trkpt lat="40.7911685" lon="9.5806099"><ele>212.66666666666669</ele><time>2026-04-13T15:24:25.389Z</time></trkpt><trkpt lat="40.7911832" lon="9.5808393"><ele>213.0</ele><time>2026-04-13T15:24:26.421Z</time></trkpt><trkpt lat="40.7911996" lon="9.581069"><ele>215.66666666666669</ele><time>2026-04-13T15:24:27.399Z</time></trkpt><trkpt lat="40.7911993" lon="9.5813016"><ele>218.33333333333334</ele><time>2026-04-13T15:24:28.401Z</time></trkpt><trkpt lat="40.7911805" lon="9.5815272"><ele>221.0</ele><time>2026-04-13T15:24:29.4Z</time></trkpt><trkpt lat="40.791156" lon="9.5817356"><ele>221.0</ele><time>2026-04-13T15:24:30.394Z</time></trkpt><trkpt lat="40.7911292" lon="9.5819114"><ele>221.0</ele><time>2026-04-13T15:24:31.395Z</time></trkpt><trkpt lat="40.7910899" lon="9.5820649"><ele>221.0</ele><time>2026-04-13T15:24:32.394Z</time></trkpt><trkpt lat="40.791031" lon="9.5821972"><ele>221.0</ele><time>2026-04-13T15:24:33.394Z</time></trkpt><trkpt lat="40.7909556" lon="9.5823134"><ele>220.25</ele><time>2026-04-13T15:24:34.406Z</time></trkpt><trkpt lat="40.7908544" lon="9.5824034"><ele>219.5</ele><time>2026-04-13T15:24:35.393Z</time></trkpt><trkpt lat="40.790737" lon="9.5824763"><ele>218.75</ele><time>2026-04-13T15:24:36.393Z</time></trkpt><trkpt lat="40.7906164" lon="9.5825452"><ele>218.0</ele><time>2026-04-13T15:24:37.396Z</time></trkpt><trkpt lat="40.7904941" lon="9.5826194"><ele>218.0</ele><time>2026-04-13T15:24:38.403Z</time></trkpt><trkpt lat="40.7903749" lon="9.5826966"><ele>218.0</ele><time>2026-04-13T15:24:39.391Z</time></trkpt><trkpt lat="40.7902455" lon="9.5827737"><ele>218.0</ele><time>2026-04-13T15:24:40.405Z</time></trkpt><trkpt lat="40.7901074" lon="9.5828475"><ele>218.0</ele><time>2026-04-13T15:24:41.396Z</time></trkpt><trkpt lat="40.7899638" lon="9.5829141"><ele>220.33333333333334</ele><time>2026-04-13T15:24:42.399Z</time></trkpt><trkpt lat="40.7898164" lon="9.5829812"><ele>222.66666666666669</ele><time>2026-04-13T15:24:43.4Z</time></trkpt><trkpt lat="40.7896646" lon="9.5830441"><ele>225.0</ele><time>2026-04-13T15:24:44.401Z</time></trkpt><trkpt lat="40.7895091" lon="9.5831125"><ele>225.0</ele><time>2026-04-13T15:24:45.39Z</time></trkpt><trkpt lat="40.7893528" lon="9.5831826"><ele>225.0</ele><time>2026-04-13T15:24:46.399Z</time></trkpt><trkpt lat="40.7891932" lon="9.5832554"><ele>225.0</ele><time>2026-04-13T15:24:47.404Z</time></trkpt><trkpt lat="40.7890327" lon="9.5833222"><ele>226.0</ele><time>2026-04-13T15:24:48.399Z</time></trkpt><trkpt lat="40.7888856" lon="9.5833811"><ele>227.0</ele><time>2026-04-13T15:24:49.397Z</time></trkpt><trkpt lat="40.7887545" lon="9.5834374"><ele>228.0</ele><time>2026-04-13T15:24:50.392Z</time></trkpt><trkpt lat="40.7886399" lon="9.5835071"><ele>229.0</ele><time>2026-04-13T15:24:51.395Z</time></trkpt><trkpt lat="40.7885432" lon="9.5835954"><ele>228.5</ele><time>2026-04-13T15:24:52.389Z</time></trkpt><trkpt lat="40.7884638" lon="9.5837076"><ele>228.0</ele><time>2026-04-13T15:24:53.392Z</time></trkpt><trkpt lat="40.7884185" lon="9.5838474"><ele>227.5</ele><time>2026-04-13T15:24:54.402Z</time></trkpt><trkpt lat="40.7883988" lon="9.5839981"><ele>227.0</ele><time>2026-04-13T15:24:55.411Z</time></trkpt><trkpt lat="40.7884053" lon="9.5841649"><ele>227.0</ele><time>2026-04-13T15:24:56.404Z</time></trkpt><trkpt lat="40.7884397" lon="9.5843473"><ele>227.0</ele><time>2026-04-13T15:24:57.399Z</time></trkpt><trkpt lat="40.7884863" lon="9.5845453"><ele>227.0</ele><time>2026-04-13T15:24:58.408Z</time></trkpt><trkpt lat="40.7885359" lon="9.5847567"><ele>228.66666666666669</ele><time>2026-04-13T15:24:59.391Z</time></trkpt><trkpt lat="40.7885825" lon="9.5849771"><ele>230.33333333333331</ele><time>2026-04-13T15:25:00.404Z</time></trkpt><trkpt lat="40.7886125" lon="9.5851892"><ele>232.0</ele><time>2026-04-13T15:25:01.395Z</time></trkpt><trkpt lat="40.788627" lon="9.5853883"><ele>232.0</ele><time>2026-04-13T15:25:02.397Z</time></trkpt><trkpt lat="40.7886449" lon="9.5855787"><ele>232.0</ele><time>2026-04-13T15:25:03.4Z</time></trkpt><trkpt lat="40.7886938" lon="9.5857733"><ele>232.0</ele><time>2026-04-13T15:25:04.395Z</time></trkpt><trkpt lat="40.7887613" lon="9.5859636"><ele>232.0</ele><time>2026-04-13T15:25:05.398Z</time></trkpt><trkpt lat="40.7888322" lon="9.5861428"><ele>232.0</ele><time>2026-04-13T15:25:06.395Z</time></trkpt><trkpt lat="40.7888999" lon="9.5863133"><ele>232.0</ele><time>2026-04-13T15:25:07.399Z</time></trkpt><trkpt lat="40.7889634" lon="9.5864828"><ele>232.0</ele><time>2026-04-13T15:25:08.402Z</time></trkpt><trkpt lat="40.7890389" lon="9.5866472"><ele>227.33333333333331</ele><time>2026-04-13T15:25:09.4Z</time></trkpt><trkpt lat="40.7891272" lon="9.5868111"><ele>222.66666666666669</ele><time>2026-04-13T15:25:10.396Z</time></trkpt><trkpt lat="40.7892076" lon="9.5869842"><ele>218.0</ele><time>2026-04-13T15:25:11.403Z</time></trkpt><trkpt lat="40.7892616" lon="9.5871662"><ele>218.25</ele><time>2026-04-13T15:25:12.409Z</time></trkpt><trkpt lat="40.7893083" lon="9.58734"><ele>218.5</ele><time>2026-04-13T15:25:13.401Z</time></trkpt><trkpt lat="40.7893582" lon="9.5874892"><ele>218.75</ele><time>2026-04-13T15:25:14.414Z</time></trkpt><trkpt lat="40.789427" lon="9.5876077"><ele>219.0</ele><time>2026-04-13T15:25:15.397Z</time></trkpt><trkpt lat="40.789524" lon="9.5876893"><ele>219.0</ele><time>2026-04-13T15:25:16.396Z</time></trkpt><trkpt lat="40.7896418" lon="9.587743"><ele>219.0</ele><time>2026-04-13T15:25:17.41Z</time></trkpt><trkpt lat="40.7897776" lon="9.5877632"><ele>219.0</ele><time>2026-04-13T15:25:18.402Z</time></trkpt><trkpt lat="40.7899249" lon="9.5877662"><ele>219.0</ele><time>2026-04-13T15:25:19.398Z</time></trkpt><trkpt lat="40.7900697" lon="9.5877834"><ele>215.0</ele><time>2026-04-13T15:25:20.407Z</time></trkpt><trkpt lat="40.7902041" lon="9.587855"><ele>211.0</ele><time>2026-04-13T15:25:21.411Z</time></trkpt><trkpt lat="40.7903224" lon="9.5879656"><ele>207.0</ele><time>2026-04-13T15:25:22.407Z</time></trkpt><trkpt lat="40.7904415" lon="9.5880941"><ele>203.0</ele><time>2026-04-13T15:25:23.398Z</time></trkpt><trkpt lat="40.790567" lon="9.5882087"><ele>203.0</ele><time>2026-04-13T15:25:24.411Z</time></trkpt><trkpt lat="40.7906904" lon="9.5883128"><ele>203.0</ele><time>2026-04-13T15:25:25.401Z</time></trkpt><trkpt lat="40.79081" lon="9.5884052"><ele>203.0</ele><time>2026-04-13T15:25:26.401Z</time></trkpt><trkpt lat="40.7909345" lon="9.5884929"><ele>203.0</ele><time>2026-04-13T15:25:27.41Z</time></trkpt><trkpt lat="40.7910509" lon="9.5885889"><ele>200.0</ele><time>2026-04-13T15:25:28.41Z</time></trkpt><trkpt lat="40.791162" lon="9.5886946"><ele>197.0</ele><time>2026-04-13T15:25:29.401Z</time></trkpt><trkpt lat="40.7912734" lon="9.5887904"><ele>194.0</ele><time>2026-04-13T15:25:30.405Z</time></trkpt><trkpt lat="40.7913919" lon="9.5888655"><ele>191.0</ele><time>2026-04-13T15:25:31.402Z</time></trkpt><trkpt lat="40.7915223" lon="9.5889245"><ele>191.0</ele><time>2026-04-13T15:25:32.405Z</time></trkpt><trkpt lat="40.7916524" lon="9.5889683"><ele>191.0</ele><time>2026-04-13T15:25:33.415Z</time></trkpt><trkpt lat="40.7917785" lon="9.5890109"><ele>191.0</ele><time>2026-04-13T15:25:34.408Z</time></trkpt><trkpt lat="40.7919002" lon="9.5890662"><ele>191.0</ele><time>2026-04-13T15:25:35.407Z</time></trkpt><trkpt lat="40.7920166" lon="9.589138"><ele>189.5</ele><time>2026-04-13T15:25:36.407Z</time></trkpt><trkpt lat="40.792129" lon="9.5892278"><ele>188.0</ele><time>2026-04-13T15:25:37.411Z</time></trkpt><trkpt lat="40.7922247" lon="9.5893348"><ele>186.5</ele><time>2026-04-13T15:25:38.407Z</time></trkpt><trkpt lat="40.7922996" lon="9.5894591"><ele>185.0</ele><time>2026-04-13T15:25:39.408Z</time></trkpt><trkpt lat="40.792364" lon="9.589599"><ele>185.0</ele><time>2026-04-13T15:25:40.411Z</time></trkpt><trkpt lat="40.7924144" lon="9.5897553"><ele>185.0</ele><time>2026-04-13T15:25:41.409Z</time></trkpt><trkpt lat="40.7924552" lon="9.5899233"><ele>185.0</ele><time>2026-04-13T15:25:42.421Z</time></trkpt><trkpt lat="40.7924859" lon="9.5901007"><ele>185.0</ele><time>2026-04-13T15:25:43.415Z</time></trkpt><trkpt lat="40.7925" lon="9.5902885"><ele>184.5</ele><time>2026-04-13T15:25:44.405Z</time></trkpt><trkpt lat="40.7924931" lon="9.5904775"><ele>184.0</ele><time>2026-04-13T15:25:45.418Z</time></trkpt><trkpt lat="40.7924834" lon="9.5906673"><ele>183.5</ele><time>2026-04-13T15:25:46.426Z</time></trkpt><trkpt lat="40.7924708" lon="9.5908718"><ele>183.0</ele><time>2026-04-13T15:25:47.424Z</time></trkpt><trkpt lat="40.7924614" lon="9.5910931"><ele>181.0</ele><time>2026-04-13T15:25:48.424Z</time></trkpt><trkpt lat="40.7924607" lon="9.5913172"><ele>179.0</ele><time>2026-04-13T15:25:49.417Z</time></trkpt><trkpt lat="40.7924605" lon="9.5915392"><ele>177.0</ele><time>2026-04-13T15:25:50.409Z</time></trkpt><trkpt lat="40.7924589" lon="9.5917563"><ele>177.0</ele><time>2026-04-13T15:25:51.407Z</time></trkpt><trkpt lat="40.7924585" lon="9.591963"><ele>177.0</ele><time>2026-04-13T15:25:52.416Z</time></trkpt><trkpt lat="40.7924602" lon="9.5921578"><ele>177.0</ele><time>2026-04-13T15:25:53.422Z</time></trkpt><trkpt lat="40.7924595" lon="9.5923497"><ele>177.0</ele><time>2026-04-13T15:25:54.411Z</time></trkpt><trkpt lat="40.7924551" lon="9.5925367"><ele>175.5</ele><time>2026-04-13T15:25:55.412Z</time></trkpt><trkpt lat="40.7924537" lon="9.5927147"><ele>174.0</ele><time>2026-04-13T15:25:56.421Z</time></trkpt><trkpt lat="40.7924577" lon="9.592889"><ele>172.5</ele><time>2026-04-13T15:25:57.431Z</time></trkpt><trkpt lat="40.7924696" lon="9.5930592"><ele>171.0</ele><time>2026-04-13T15:25:58.417Z</time></trkpt><trkpt lat="40.7924985" lon="9.5932251"><ele>170.25</ele><time>2026-04-13T15:25:59.433Z</time></trkpt><trkpt lat="40.7925547" lon="9.5933693"><ele>169.5</ele><time>2026-04-13T15:26:00.431Z</time></trkpt><trkpt lat="40.7926366" lon="9.5935025"><ele>168.75</ele><time>2026-04-13T15:26:01.416Z</time></trkpt><trkpt lat="40.7927269" lon="9.5936498"><ele>168.0</ele><time>2026-04-13T15:26:02.42Z</time></trkpt><trkpt lat="40.792823" lon="9.5938066"><ele>165.33333333333334</ele><time>2026-04-13T15:26:03.415Z</time></trkpt><trkpt lat="40.7929254" lon="9.5939705"><ele>162.66666666666669</ele><time>2026-04-13T15:26:04.421Z</time></trkpt><trkpt lat="40.7930323" lon="9.594129"><ele>160.0</ele><time>2026-04-13T15:26:05.416Z</time></trkpt><trkpt lat="40.7931308" lon="9.5942825"><ele>159.33333333333334</ele><time>2026-04-13T15:26:06.532Z</time></trkpt><trkpt lat="40.7933191" lon="9.5945586"><ele>158.66666666666666</ele><time>2026-04-13T15:26:08.417Z</time></trkpt><trkpt lat="40.7934067" lon="9.5946871"><ele>158.0</ele><time>2026-04-13T15:26:09.433Z</time></trkpt><trkpt lat="40.7934877" lon="9.5948078"><ele>156.5</ele><time>2026-04-13T15:26:10.417Z</time></trkpt><trkpt lat="40.7935607" lon="9.594932"><ele>155.0</ele><time>2026-04-13T15:26:11.423Z</time></trkpt><trkpt lat="40.7936172" lon="9.5950597"><ele>153.5</ele><time>2026-04-13T15:26:12.419Z</time></trkpt><trkpt lat="40.7936615" lon="9.5951984"><ele>152.0</ele><time>2026-04-13T15:26:13.437Z</time></trkpt><trkpt lat="40.7936892" lon="9.5953459"><ele>150.75</ele><time>2026-04-13T15:26:14.419Z</time></trkpt><trkpt lat="40.7937111" lon="9.5954947"><ele>149.5</ele><time>2026-04-13T15:26:15.417Z</time></trkpt><trkpt lat="40.7937293" lon="9.5956436"><ele>148.25</ele><time>2026-04-13T15:26:16.414Z</time></trkpt><trkpt lat="40.7937426" lon="9.5957898"><ele>147.0</ele><time>2026-04-13T15:26:17.417Z</time></trkpt><trkpt lat="40.7937512" lon="9.595938"><ele>147.0</ele><time>2026-04-13T15:26:18.409Z</time></trkpt><trkpt lat="40.7937402" lon="9.5960787"><ele>147.0</ele><time>2026-04-13T15:26:19.409Z</time></trkpt><trkpt lat="40.7937063" lon="9.5962009"><ele>147.0</ele><time>2026-04-13T15:26:20.42Z</time></trkpt><trkpt lat="40.7936476" lon="9.5963047"><ele>147.0</ele><time>2026-04-13T15:26:21.414Z</time></trkpt><trkpt lat="40.7935691" lon="9.5963957"><ele>147.0</ele><time>2026-04-13T15:26:22.418Z</time></trkpt><trkpt lat="40.7934722" lon="9.5964802"><ele>145.66666666666666</ele><time>2026-04-13T15:26:23.44Z</time></trkpt><trkpt lat="40.7933507" lon="9.59656"><ele>144.33333333333331</ele><time>2026-04-13T15:26:24.416Z</time></trkpt><trkpt lat="40.7932077" lon="9.5966472"><ele>143.0</ele><time>2026-04-13T15:26:25.423Z</time></trkpt><trkpt lat="40.7930415" lon="9.5967419"><ele>143.0</ele><time>2026-04-13T15:26:26.422Z</time></trkpt><trkpt lat="40.7928531" lon="9.5968382"><ele>143.0</ele><time>2026-04-13T15:26:27.431Z</time></trkpt><trkpt lat="40.7926601" lon="9.5969305"><ele>143.0</ele><time>2026-04-13T15:26:28.436Z</time></trkpt><trkpt lat="40.7924714" lon="9.5970312"><ele>140.0</ele><time>2026-04-13T15:26:29.424Z</time></trkpt><trkpt lat="40.7922867" lon="9.5971365"><ele>137.0</ele><time>2026-04-13T15:26:30.41Z</time></trkpt><trkpt lat="40.7921111" lon="9.5972325"><ele>134.0</ele><time>2026-04-13T15:26:31.421Z</time></trkpt><trkpt lat="40.7919378" lon="9.5973225"><ele>134.0</ele><time>2026-04-13T15:26:32.413Z</time></trkpt><trkpt lat="40.7917715" lon="9.5974142"><ele>134.0</ele><time>2026-04-13T15:26:33.416Z</time></trkpt><trkpt lat="40.7916127" lon="9.5975013"><ele>134.0</ele><time>2026-04-13T15:26:34.425Z</time></trkpt><trkpt lat="40.7914579" lon="9.5975844"><ele>134.0</ele><time>2026-04-13T15:26:35.425Z</time></trkpt><trkpt lat="40.7913117" lon="9.5976639"><ele>134.0</ele><time>2026-04-13T15:26:36.412Z</time></trkpt><trkpt lat="40.7911699" lon="9.5977339"><ele>134.0</ele><time>2026-04-13T15:26:37.429Z</time></trkpt><trkpt lat="40.7910274" lon="9.5978042"><ele>130.66666666666666</ele><time>2026-04-13T15:26:38.415Z</time></trkpt><trkpt lat="40.7908785" lon="9.5978702"><ele>127.33333333333334</ele><time>2026-04-13T15:26:39.419Z</time></trkpt><trkpt lat="40.7907329" lon="9.5979409"><ele>124.0</ele><time>2026-04-13T15:26:40.417Z</time></trkpt><trkpt lat="40.7905937" lon="9.598012"><ele>124.0</ele><time>2026-04-13T15:26:41.413Z</time></trkpt><trkpt lat="40.7904682" lon="9.5980928"><ele>124.0</ele><time>2026-04-13T15:26:42.422Z</time></trkpt><trkpt lat="40.7903561" lon="9.5981907"><ele>124.0</ele><time>2026-04-13T15:26:43.423Z</time></trkpt><trkpt lat="40.7902645" lon="9.5983155"><ele>124.0</ele><time>2026-04-13T15:26:44.413Z</time></trkpt><trkpt lat="40.790181" lon="9.5984588"><ele>123.0</ele><time>2026-04-13T15:26:45.417Z</time></trkpt><trkpt lat="40.7901124" lon="9.5986224"><ele>122.0</ele><time>2026-04-13T15:26:46.413Z</time></trkpt><trkpt lat="40.7900486" lon="9.5987981"><ele>121.0</ele><time>2026-04-13T15:26:47.409Z</time></trkpt><trkpt lat="40.7899825" lon="9.5989872"><ele>120.0</ele><time>2026-04-13T15:26:48.426Z</time></trkpt><trkpt lat="40.7899119" lon="9.5991822"><ele>119.33333333333334</ele><time>2026-04-13T15:26:49.421Z</time></trkpt><trkpt lat="40.789841" lon="9.5993785"><ele>118.66666666666667</ele><time>2026-04-13T15:26:50.42Z</time></trkpt><trkpt lat="40.7897732" lon="9.5995764"><ele>118.0</ele><time>2026-04-13T15:26:51.415Z</time></trkpt><trkpt lat="40.7897075" lon="9.5997694"><ele>118.0</ele><time>2026-04-13T15:26:52.425Z</time></trkpt><trkpt lat="40.789645" lon="9.5999429"><ele>118.0</ele><time>2026-04-13T15:26:53.417Z</time></trkpt><trkpt lat="40.7896008" lon="9.6001094"><ele>118.0</ele><time>2026-04-13T15:26:54.414Z</time></trkpt><trkpt lat="40.7895826" lon="9.6002781"><ele>118.0</ele><time>2026-04-13T15:26:55.415Z</time></trkpt><trkpt lat="40.7895947" lon="9.600441"><ele>117.75</ele><time>2026-04-13T15:26:56.428Z</time></trkpt><trkpt lat="40.789624" lon="9.6006087"><ele>117.5</ele><time>2026-04-13T15:26:57.425Z</time></trkpt><trkpt lat="40.7896616" lon="9.6007874"><ele>117.25</ele><time>2026-04-13T15:26:58.412Z</time></trkpt><trkpt lat="40.7897043" lon="9.600973"><ele>117.0</ele><time>2026-04-13T15:26:59.418Z</time></trkpt><trkpt lat="40.78975" lon="9.6011733"><ele>118.0</ele><time>2026-04-13T15:27:00.418Z</time></trkpt><trkpt lat="40.7897978" lon="9.6013905"><ele>119.0</ele><time>2026-04-13T15:27:01.414Z</time></trkpt><trkpt lat="40.7898535" lon="9.6016166"><ele>120.0</ele><time>2026-04-13T15:27:02.421Z</time></trkpt><trkpt lat="40.7899057" lon="9.6018507"><ele>120.33333333333334</ele><time>2026-04-13T15:27:03.417Z</time></trkpt><trkpt lat="40.7899622" lon="9.602092"><ele>120.66666666666667</ele><time>2026-04-13T15:27:04.417Z</time></trkpt><trkpt lat="40.7900214" lon="9.6023416"><ele>121.0</ele><time>2026-04-13T15:27:05.423Z</time></trkpt><trkpt lat="40.7900873" lon="9.6025897"><ele>123.66666666666667</ele><time>2026-04-13T15:27:06.418Z</time></trkpt><trkpt lat="40.7901525" lon="9.6028374"><ele>126.33333333333334</ele><time>2026-04-13T15:27:07.432Z</time></trkpt><trkpt lat="40.7902224" lon="9.6030794"><ele>129.0</ele><time>2026-04-13T15:27:08.43Z</time></trkpt><trkpt lat="40.7902928" lon="9.6033097"><ele>123.66666666666666</ele><time>2026-04-13T15:27:09.426Z</time></trkpt><trkpt lat="40.7903613" lon="9.6035265"><ele>118.33333333333333</ele><time>2026-04-13T15:27:10.419Z</time></trkpt><trkpt lat="40.790431" lon="9.6037238"><ele>113.0</ele><time>2026-04-13T15:27:11.418Z</time></trkpt><trkpt lat="40.7905003" lon="9.6039199"><ele>113.0</ele><time>2026-04-13T15:27:12.417Z</time></trkpt><trkpt lat="40.7905667" lon="9.6041104"><ele>113.0</ele><time>2026-04-13T15:27:13.427Z</time></trkpt><trkpt lat="40.7906304" lon="9.6042861"><ele>113.0</ele><time>2026-04-13T15:27:14.423Z</time></trkpt><trkpt lat="40.7906907" lon="9.6044489"><ele>113.0</ele><time>2026-04-13T15:27:15.415Z</time></trkpt><trkpt lat="40.7907347" lon="9.6046139"><ele>114.0</ele><time>2026-04-13T15:27:16.424Z</time></trkpt><trkpt lat="40.7907652" lon="9.6047974"><ele>115.0</ele><time>2026-04-13T15:27:17.423Z</time></trkpt><trkpt lat="40.7907825" lon="9.6049899"><ele>116.0</ele><time>2026-04-13T15:27:18.416Z</time></trkpt><trkpt lat="40.7907901" lon="9.6051906"><ele>117.0</ele><time>2026-04-13T15:27:19.415Z</time></trkpt><trkpt lat="40.7907979" lon="9.6053817"><ele>117.0</ele><time>2026-04-13T15:27:20.419Z</time></trkpt><trkpt lat="40.7907879" lon="9.6055535"><ele>117.0</ele><time>2026-04-13T15:27:21.42Z</time></trkpt><trkpt lat="40.7907595" lon="9.6057094"><ele>117.0</ele><time>2026-04-13T15:27:22.416Z</time></trkpt><trkpt lat="40.7907067" lon="9.605854"><ele>117.0</ele><time>2026-04-13T15:27:23.423Z</time></trkpt><trkpt lat="40.7906275" lon="9.6059847"><ele>117.0</ele><time>2026-04-13T15:27:24.424Z</time></trkpt><trkpt lat="40.790531" lon="9.6061032"><ele>117.0</ele><time>2026-04-13T15:27:25.42Z</time></trkpt><trkpt lat="40.7904344" lon="9.6062294"><ele>117.0</ele><time>2026-04-13T15:27:26.426Z</time></trkpt><trkpt lat="40.790367" lon="9.6063598"><ele>117.0</ele><time>2026-04-13T15:27:27.426Z</time></trkpt><trkpt lat="40.7903354" lon="9.6065039"><ele>115.0</ele><time>2026-04-13T15:27:28.418Z</time></trkpt><trkpt lat="40.7903282" lon="9.6066598"><ele>113.0</ele><time>2026-04-13T15:27:29.426Z</time></trkpt><trkpt lat="40.79034" lon="9.6068311"><ele>111.0</ele><time>2026-04-13T15:27:30.424Z</time></trkpt><trkpt lat="40.7903618" lon="9.6070148"><ele>109.0</ele><time>2026-04-13T15:27:31.422Z</time></trkpt><trkpt lat="40.7903823" lon="9.607206"><ele>108.0</ele><time>2026-04-13T15:27:32.426Z</time></trkpt><trkpt lat="40.7904027" lon="9.6074187"><ele>107.0</ele><time>2026-04-13T15:27:33.423Z</time></trkpt><trkpt lat="40.7904164" lon="9.6076446"><ele>106.0</ele><time>2026-04-13T15:27:34.425Z</time></trkpt><trkpt lat="40.7904147" lon="9.6078799"><ele>106.0</ele><time>2026-04-13T15:27:35.416Z</time></trkpt><trkpt lat="40.7904087" lon="9.608121"><ele>106.0</ele><time>2026-04-13T15:27:36.421Z</time></trkpt><trkpt lat="40.790399" lon="9.6083433"><ele>106.0</ele><time>2026-04-13T15:27:37.431Z</time></trkpt><trkpt lat="40.7903747" lon="9.6085405"><ele>105.5</ele><time>2026-04-13T15:27:38.424Z</time></trkpt><trkpt lat="40.790333" lon="9.6087182"><ele>105.0</ele><time>2026-04-13T15:27:39.421Z</time></trkpt><trkpt lat="40.7902759" lon="9.6088712"><ele>104.5</ele><time>2026-04-13T15:27:40.419Z</time></trkpt><trkpt lat="40.790199" lon="9.6090018"><ele>104.0</ele><time>2026-04-13T15:27:41.419Z</time></trkpt><trkpt lat="40.7901202" lon="9.6091416"><ele>105.0</ele><time>2026-04-13T15:27:42.418Z</time></trkpt><trkpt lat="40.7900501" lon="9.609293"><ele>106.0</ele><time>2026-04-13T15:27:43.424Z</time></trkpt><trkpt lat="40.7899763" lon="9.6094464"><ele>107.0</ele><time>2026-04-13T15:27:44.421Z</time></trkpt><trkpt lat="40.7898932" lon="9.6096031"><ele>108.0</ele><time>2026-04-13T15:27:45.422Z</time></trkpt><trkpt lat="40.7898088" lon="9.6097654"><ele>108.0</ele><time>2026-04-13T15:27:46.417Z</time></trkpt><trkpt lat="40.7897319" lon="9.6099423"><ele>108.0</ele><time>2026-04-13T15:27:47.426Z</time></trkpt><trkpt lat="40.7896729" lon="9.6101335"><ele>108.0</ele><time>2026-04-13T15:27:48.428Z</time></trkpt><trkpt lat="40.7896453" lon="9.610345"><ele>105.66666666666666</ele><time>2026-04-13T15:27:49.424Z</time></trkpt><trkpt lat="40.7896304" lon="9.6105615"><ele>103.33333333333333</ele><time>2026-04-13T15:27:50.418Z</time></trkpt><trkpt lat="40.7896166" lon="9.6107826"><ele>101.0</ele><time>2026-04-13T15:27:51.422Z</time></trkpt><trkpt lat="40.7896032" lon="9.6109961"><ele>102.5</ele><time>2026-04-13T15:27:52.429Z</time></trkpt><trkpt lat="40.7895897" lon="9.6111949"><ele>104.0</ele><time>2026-04-13T15:27:53.444Z</time></trkpt><trkpt lat="40.7895659" lon="9.6113785"><ele>105.5</ele><time>2026-04-13T15:27:54.425Z</time></trkpt><trkpt lat="40.7895275" lon="9.6115465"><ele>107.0</ele><time>2026-04-13T15:27:55.422Z</time></trkpt><trkpt lat="40.7894644" lon="9.6116967"><ele>107.0</ele><time>2026-04-13T15:27:56.43Z</time></trkpt><trkpt lat="40.7893773" lon="9.6118299"><ele>107.0</ele><time>2026-04-13T15:27:57.432Z</time></trkpt><trkpt lat="40.7892702" lon="9.6119491"><ele>107.0</ele><time>2026-04-13T15:27:58.422Z</time></trkpt><trkpt lat="40.7891558" lon="9.6120664"><ele>107.0</ele><time>2026-04-13T15:27:59.43Z</time></trkpt><trkpt lat="40.7890605" lon="9.6122008"><ele>106.5</ele><time>2026-04-13T15:28:00.423Z</time></trkpt><trkpt lat="40.7889891" lon="9.6123526"><ele>106.0</ele><time>2026-04-13T15:28:01.434Z</time></trkpt><trkpt lat="40.7889424" lon="9.6125122"><ele>105.5</ele><time>2026-04-13T15:28:02.429Z</time></trkpt><trkpt lat="40.7889178" lon="9.612683"><ele>105.0</ele><time>2026-04-13T15:28:03.432Z</time></trkpt><trkpt lat="40.7889149" lon="9.6128776"><ele>100.66666666666667</ele><time>2026-04-13T15:28:04.426Z</time></trkpt><trkpt lat="40.788915" lon="9.6130947"><ele>96.33333333333334</ele><time>2026-04-13T15:28:05.443Z</time></trkpt><trkpt lat="40.7889191" lon="9.6133276"><ele>92.0</ele><time>2026-04-13T15:28:06.421Z</time></trkpt><trkpt lat="40.7889174" lon="9.6135695"><ele>88.0</ele><time>2026-04-13T15:28:07.427Z</time></trkpt><trkpt lat="40.7889116" lon="9.6138045"><ele>84.0</ele><time>2026-04-13T15:28:08.423Z</time></trkpt><trkpt lat="40.7888939" lon="9.6140225"><ele>80.0</ele><time>2026-04-13T15:28:09.429Z</time></trkpt><trkpt lat="40.7888559" lon="9.6142231"><ele>80.0</ele><time>2026-04-13T15:28:10.438Z</time></trkpt><trkpt lat="40.7888031" lon="9.6144049"><ele>80.0</ele><time>2026-04-13T15:28:11.427Z</time></trkpt><trkpt lat="40.7887234" lon="9.6145693"><ele>80.0</ele><time>2026-04-13T15:28:12.43Z</time></trkpt><trkpt lat="40.7886221" lon="9.6147296"><ele>77.66666666666667</ele><time>2026-04-13T15:28:13.453Z</time></trkpt><trkpt lat="40.788512" lon="9.6149149"><ele>75.33333333333333</ele><time>2026-04-13T15:28:14.433Z</time></trkpt><trkpt lat="40.7883975" lon="9.6151203"><ele>73.0</ele><time>2026-04-13T15:28:15.432Z</time></trkpt><trkpt lat="40.7883106" lon="9.6153171"><ele>77.0</ele><time>2026-04-13T15:28:16.428Z</time></trkpt><trkpt lat="40.7882366" lon="9.6155044"><ele>81.0</ele><time>2026-04-13T15:28:17.433Z</time></trkpt><trkpt lat="40.7881789" lon="9.6156864"><ele>85.0</ele><time>2026-04-13T15:28:18.441Z</time></trkpt><trkpt lat="40.788137" lon="9.6158745"><ele>85.0</ele><time>2026-04-13T15:28:19.438Z</time></trkpt><trkpt lat="40.7881218" lon="9.6160741"><ele>85.0</ele><time>2026-04-13T15:28:20.438Z</time></trkpt><trkpt lat="40.7881202" lon="9.6162762"><ele>85.0</ele><time>2026-04-13T15:28:21.43Z</time></trkpt><trkpt lat="40.7881274" lon="9.6164801"><ele>85.0</ele><time>2026-04-13T15:28:22.428Z</time></trkpt><trkpt lat="40.7881406" lon="9.6166899"><ele>85.0</ele><time>2026-04-13T15:28:23.433Z</time></trkpt><trkpt lat="40.7881631" lon="9.6168884"><ele>85.0</ele><time>2026-04-13T15:28:24.434Z</time></trkpt><trkpt lat="40.7881989" lon="9.6170732"><ele>85.5</ele><time>2026-04-13T15:28:25.428Z</time></trkpt><trkpt lat="40.7882436" lon="9.617247"><ele>86.0</ele><time>2026-04-13T15:28:26.435Z</time></trkpt><trkpt lat="40.788275" lon="9.617424"><ele>86.5</ele><time>2026-04-13T15:28:27.44Z</time></trkpt><trkpt lat="40.7882867" lon="9.617608"><ele>87.0</ele><time>2026-04-13T15:28:28.429Z</time></trkpt><trkpt lat="40.7882873" lon="9.6177948"><ele>84.75</ele><time>2026-04-13T15:28:29.43Z</time></trkpt><trkpt lat="40.7882775" lon="9.6179738"><ele>82.5</ele><time>2026-04-13T15:28:30.43Z</time></trkpt><trkpt lat="40.7882498" lon="9.6181535"><ele>80.25</ele><time>2026-04-13T15:28:31.428Z</time></trkpt><trkpt lat="40.7881979" lon="9.6183371"><ele>78.0</ele><time>2026-04-13T15:28:32.431Z</time></trkpt><trkpt lat="40.7881348" lon="9.6185296"><ele>75.0</ele><time>2026-04-13T15:28:33.43Z</time></trkpt><trkpt lat="40.788063" lon="9.6187169"><ele>72.0</ele><time>2026-04-13T15:28:34.435Z</time></trkpt><trkpt lat="40.7879911" lon="9.6189054"><ele>69.0</ele><time>2026-04-13T15:28:35.435Z</time></trkpt><trkpt lat="40.7879339" lon="9.6190877"><ele>69.0</ele><time>2026-04-13T15:28:36.436Z</time></trkpt><trkpt lat="40.7878956" lon="9.6192706"><ele>69.0</ele><time>2026-04-13T15:28:37.431Z</time></trkpt><trkpt lat="40.7878852" lon="9.6194583"><ele>69.0</ele><time>2026-04-13T15:28:38.452Z</time></trkpt><trkpt lat="40.7879047" lon="9.6196537"><ele>69.0</ele><time>2026-04-13T15:28:39.441Z</time></trkpt><trkpt lat="40.7879219" lon="9.6198416"><ele>68.5</ele><time>2026-04-13T15:28:40.438Z</time></trkpt><trkpt lat="40.7879222" lon="9.620016"><ele>68.0</ele><time>2026-04-13T15:28:41.439Z</time></trkpt><trkpt lat="40.7878993" lon="9.6201929"><ele>67.5</ele><time>2026-04-13T15:28:42.434Z</time></trkpt><trkpt lat="40.7878559" lon="9.6203625"><ele>67.0</ele><time>2026-04-13T15:28:43.429Z</time></trkpt><trkpt lat="40.7877969" lon="9.620533"><ele>66.75</ele><time>2026-04-13T15:28:44.437Z</time></trkpt><trkpt lat="40.7877397" lon="9.6206934"><ele>66.5</ele><time>2026-04-13T15:28:45.438Z</time></trkpt><trkpt lat="40.7877068" lon="9.6208594"><ele>66.25</ele><time>2026-04-13T15:28:46.434Z</time></trkpt><trkpt lat="40.7876937" lon="9.6210442"><ele>66.0</ele><time>2026-04-13T15:28:47.435Z</time></trkpt><trkpt lat="40.7876984" lon="9.6212303"><ele>64.5</ele><time>2026-04-13T15:28:48.435Z</time></trkpt><trkpt lat="40.7877207" lon="9.621419"><ele>63.0</ele><time>2026-04-13T15:28:49.451Z</time></trkpt><trkpt lat="40.787746" lon="9.6216043"><ele>61.5</ele><time>2026-04-13T15:28:50.442Z</time></trkpt><trkpt lat="40.7877602" lon="9.6217823"><ele>60.0</ele><time>2026-04-13T15:28:51.446Z</time></trkpt><trkpt lat="40.7877525" lon="9.62196"><ele>58.66666666666667</ele><time>2026-04-13T15:28:52.439Z</time></trkpt><trkpt lat="40.7877227" lon="9.6221367"><ele>57.333333333333336</ele><time>2026-04-13T15:28:53.439Z</time></trkpt><trkpt lat="40.7876684" lon="9.6223233"><ele>56.0</ele><time>2026-04-13T15:28:54.437Z</time></trkpt><trkpt lat="40.7875953" lon="9.6225196"><ele>58.333333333333336</ele><time>2026-04-13T15:28:55.444Z</time></trkpt><trkpt lat="40.7875203" lon="9.6227291"><ele>60.66666666666667</ele><time>2026-04-13T15:28:56.439Z</time></trkpt><trkpt lat="40.7874495" lon="9.6229502"><ele>63.0</ele><time>2026-04-13T15:28:57.432Z</time></trkpt><trkpt lat="40.7873744" lon="9.6231811"><ele>63.0</ele><time>2026-04-13T15:28:58.452Z</time></trkpt><trkpt lat="40.7872955" lon="9.6234158"><ele>63.0</ele><time>2026-04-13T15:28:59.444Z</time></trkpt><trkpt lat="40.7872147" lon="9.6236537"><ele>63.0</ele><time>2026-04-13T15:29:00.443Z</time></trkpt><trkpt lat="40.787134" lon="9.6238954"><ele>60.66666666666667</ele><time>2026-04-13T15:29:01.44Z</time></trkpt><trkpt lat="40.7870542" lon="9.6241342"><ele>58.333333333333336</ele><time>2026-04-13T15:29:02.44Z</time></trkpt><trkpt lat="40.7869743" lon="9.6243728"><ele>56.0</ele><time>2026-04-13T15:29:03.439Z</time></trkpt><trkpt lat="40.7868972" lon="9.624602"><ele>56.66666666666667</ele><time>2026-04-13T15:29:04.444Z</time></trkpt><trkpt lat="40.7868207" lon="9.6248211"><ele>57.33333333333333</ele><time>2026-04-13T15:29:05.441Z</time></trkpt><trkpt lat="40.7867458" lon="9.6250367"><ele>58.0</ele><time>2026-04-13T15:29:06.445Z</time></trkpt><trkpt lat="40.7866726" lon="9.6252519"><ele>56.666666666666664</ele><time>2026-04-13T15:29:07.448Z</time></trkpt><trkpt lat="40.7865978" lon="9.6254624"><ele>55.33333333333333</ele><time>2026-04-13T15:29:08.452Z</time></trkpt><trkpt lat="40.7865252" lon="9.6256708"><ele>54.0</ele><time>2026-04-13T15:29:09.45Z</time></trkpt><trkpt lat="40.7864533" lon="9.6258758"><ele>54.0</ele><time>2026-04-13T15:29:10.435Z</time></trkpt><trkpt lat="40.7863825" lon="9.626082"><ele>54.0</ele><time>2026-04-13T15:29:11.441Z</time></trkpt><trkpt lat="40.7863142" lon="9.6262851"><ele>54.0</ele><time>2026-04-13T15:29:12.442Z</time></trkpt><trkpt lat="40.7862483" lon="9.6264901"><ele>52.33333333333333</ele><time>2026-04-13T15:29:13.439Z</time></trkpt><trkpt lat="40.7861968" lon="9.6266997"><ele>50.666666666666664</ele><time>2026-04-13T15:29:14.438Z</time></trkpt><trkpt lat="40.7861636" lon="9.6269249"><ele>49.0</ele><time>2026-04-13T15:29:15.453Z</time></trkpt><trkpt lat="40.7861362" lon="9.6271589"><ele>48.33333333333333</ele><time>2026-04-13T15:29:16.437Z</time></trkpt><trkpt lat="40.7861078" lon="9.627398"><ele>47.666666666666664</ele><time>2026-04-13T15:29:17.453Z</time></trkpt><trkpt lat="40.7860771" lon="9.6276336"><ele>47.0</ele><time>2026-04-13T15:29:18.434Z</time></trkpt><trkpt lat="40.7860441" lon="9.6278722"><ele>46.666666666666664</ele><time>2026-04-13T15:29:19.45Z</time></trkpt><trkpt lat="40.786015" lon="9.6281159"><ele>46.333333333333336</ele><time>2026-04-13T15:29:20.438Z</time></trkpt><trkpt lat="40.7859856" lon="9.6283602"><ele>46.0</ele><time>2026-04-13T15:29:21.435Z</time></trkpt><trkpt lat="40.7859568" lon="9.6286014"><ele>47.333333333333336</ele><time>2026-04-13T15:29:22.438Z</time></trkpt><trkpt lat="40.7859289" lon="9.6288443"><ele>48.66666666666667</ele><time>2026-04-13T15:29:23.44Z</time></trkpt><trkpt lat="40.7859" lon="9.6290834"><ele>50.0</ele><time>2026-04-13T15:29:24.445Z</time></trkpt><trkpt lat="40.7858738" lon="9.6293138"><ele>49.333333333333336</ele><time>2026-04-13T15:29:25.449Z</time></trkpt><trkpt lat="40.7858484" lon="9.6295298"><ele>48.66666666666667</ele><time>2026-04-13T15:29:26.438Z</time></trkpt><trkpt lat="40.7858206" lon="9.6297329"><ele>48.0</ele><time>2026-04-13T15:29:27.441Z</time></trkpt><trkpt lat="40.7857948" lon="9.6299409"><ele>48.0</ele><time>2026-04-13T15:29:28.447Z</time></trkpt><trkpt lat="40.7857672" lon="9.6301423"><ele>48.0</ele><time>2026-04-13T15:29:29.442Z</time></trkpt><trkpt lat="40.7857457" lon="9.6303306"><ele>48.0</ele><time>2026-04-13T15:29:30.455Z</time></trkpt><trkpt lat="40.785736" lon="9.6305104"><ele>48.0</ele><time>2026-04-13T15:29:31.448Z</time></trkpt><trkpt lat="40.7857479" lon="9.6306928"><ele>47.5</ele><time>2026-04-13T15:29:32.454Z</time></trkpt><trkpt lat="40.7857801" lon="9.6308756"><ele>47.0</ele><time>2026-04-13T15:29:33.445Z</time></trkpt><trkpt lat="40.7858354" lon="9.631055"><ele>46.5</ele><time>2026-04-13T15:29:34.444Z</time></trkpt><trkpt lat="40.7859038" lon="9.6312375"><ele>46.0</ele><time>2026-04-13T15:29:35.452Z</time></trkpt><trkpt lat="40.7859755" lon="9.6314328"><ele>45.0</ele><time>2026-04-13T15:29:36.443Z</time></trkpt><trkpt lat="40.7860464" lon="9.6316366"><ele>44.0</ele><time>2026-04-13T15:29:37.443Z</time></trkpt><trkpt lat="40.7861207" lon="9.6318433"><ele>43.0</ele><time>2026-04-13T15:29:38.453Z</time></trkpt><trkpt lat="40.7861945" lon="9.6320506"><ele>43.0</ele><time>2026-04-13T15:29:39.457Z</time></trkpt><trkpt lat="40.7862698" lon="9.6322568"><ele>43.0</ele><time>2026-04-13T15:29:40.443Z</time></trkpt><trkpt lat="40.7863431" lon="9.6324555"><ele>43.0</ele><time>2026-04-13T15:29:41.444Z</time></trkpt><trkpt lat="40.7864125" lon="9.6326491"><ele>43.0</ele><time>2026-04-13T15:29:42.457Z</time></trkpt><trkpt lat="40.7864824" lon="9.632843"><ele>43.0</ele><time>2026-04-13T15:29:43.449Z</time></trkpt><trkpt lat="40.7865542" lon="9.6330376"><ele>43.0</ele><time>2026-04-13T15:29:44.446Z</time></trkpt><trkpt lat="40.7866246" lon="9.6332308"><ele>43.0</ele><time>2026-04-13T15:29:45.457Z</time></trkpt><trkpt lat="40.7866949" lon="9.6334248"><ele>43.0</ele><time>2026-04-13T15:29:46.452Z</time></trkpt><trkpt lat="40.7867693" lon="9.633618"><ele>43.0</ele><time>2026-04-13T15:29:47.459Z</time></trkpt><trkpt lat="40.7868406" lon="9.6338114"><ele>41.333333333333336</ele><time>2026-04-13T15:29:48.459Z</time></trkpt><trkpt lat="40.7869097" lon="9.6340059"><ele>39.666666666666664</ele><time>2026-04-13T15:29:49.444Z</time></trkpt><trkpt lat="40.7869782" lon="9.6342043"><ele>38.0</ele><time>2026-04-13T15:29:50.449Z</time></trkpt><trkpt lat="40.7870457" lon="9.6343952"><ele>38.0</ele><time>2026-04-13T15:29:51.445Z</time></trkpt><trkpt lat="40.7871134" lon="9.6345821"><ele>38.0</ele><time>2026-04-13T15:29:52.447Z</time></trkpt><trkpt lat="40.7871757" lon="9.6347676"><ele>38.0</ele><time>2026-04-13T15:29:53.462Z</time></trkpt><trkpt lat="40.7872347" lon="9.6349554"><ele>38.0</ele><time>2026-04-13T15:29:54.447Z</time></trkpt><trkpt lat="40.7872941" lon="9.6351481"><ele>38.0</ele><time>2026-04-13T15:29:55.445Z</time></trkpt><trkpt lat="40.7873522" lon="9.6353472"><ele>38.0</ele><time>2026-04-13T15:29:56.452Z</time></trkpt><trkpt lat="40.78741" lon="9.6355477"><ele>37.0</ele><time>2026-04-13T15:29:57.457Z</time></trkpt><trkpt lat="40.7874641" lon="9.6357459"><ele>36.0</ele><time>2026-04-13T15:29:58.447Z</time></trkpt><trkpt lat="40.7875153" lon="9.6359309"><ele>35.0</ele><time>2026-04-13T15:29:59.458Z</time></trkpt><trkpt lat="40.7875676" lon="9.6361054"><ele>34.33333333333333</ele><time>2026-04-13T15:30:00.453Z</time></trkpt><trkpt lat="40.7876217" lon="9.6362841"><ele>33.666666666666664</ele><time>2026-04-13T15:30:01.46Z</time></trkpt><trkpt lat="40.7876765" lon="9.6364695"><ele>33.0</ele><time>2026-04-13T15:30:02.445Z</time></trkpt><trkpt lat="40.7877305" lon="9.6366595"><ele>32.0</ele><time>2026-04-13T15:30:03.456Z</time></trkpt><trkpt lat="40.7877852" lon="9.6368457"><ele>31.0</ele><time>2026-04-13T15:30:04.463Z</time></trkpt><trkpt lat="40.787841" lon="9.6370171"><ele>30.0</ele><time>2026-04-13T15:30:05.449Z</time></trkpt><trkpt lat="40.78789" lon="9.6371929"><ele>29.0</ele><time>2026-04-13T15:30:06.452Z</time></trkpt><trkpt lat="40.7879387" lon="9.637367"><ele>28.666666666666664</ele><time>2026-04-13T15:30:07.46Z</time></trkpt><trkpt lat="40.7879846" lon="9.6375483"><ele>28.333333333333336</ele><time>2026-04-13T15:30:08.444Z</time></trkpt><trkpt lat="40.7880183" lon="9.6377441"><ele>28.0</ele><time>2026-04-13T15:30:09.447Z</time></trkpt><trkpt lat="40.788049" lon="9.6379482"><ele>27.333333333333336</ele><time>2026-04-13T15:30:10.462Z</time></trkpt><trkpt lat="40.7880738" lon="9.6381581"><ele>26.666666666666664</ele><time>2026-04-13T15:30:11.442Z</time></trkpt><trkpt lat="40.7880965" lon="9.6383645"><ele>26.0</ele><time>2026-04-13T15:30:12.44Z</time></trkpt><trkpt lat="40.7881221" lon="9.6385749"><ele>25.333333333333332</ele><time>2026-04-13T15:30:13.441Z</time></trkpt><trkpt lat="40.7881468" lon="9.6387889"><ele>24.666666666666664</ele><time>2026-04-13T15:30:14.44Z</time></trkpt><trkpt lat="40.7881726" lon="9.6390031"><ele>24.0</ele><time>2026-04-13T15:30:15.437Z</time></trkpt><trkpt lat="40.7882006" lon="9.6392198"><ele>24.0</ele><time>2026-04-13T15:30:16.437Z</time></trkpt><trkpt lat="40.788224" lon="9.6394404"><ele>24.0</ele><time>2026-04-13T15:30:17.455Z</time></trkpt><trkpt lat="40.7882486" lon="9.6396569"><ele>24.0</ele><time>2026-04-13T15:30:18.432Z</time></trkpt><trkpt lat="40.7882749" lon="9.6398691"><ele>24.333333333333336</ele><time>2026-04-13T15:30:19.436Z</time></trkpt><trkpt lat="40.7882999" lon="9.6400765"><ele>24.666666666666668</ele><time>2026-04-13T15:30:20.449Z</time></trkpt><trkpt lat="40.7883237" lon="9.6402844"><ele>25.0</ele><time>2026-04-13T15:30:21.438Z</time></trkpt><trkpt lat="40.7883497" lon="9.6404922"><ele>25.333333333333336</ele><time>2026-04-13T15:30:22.44Z</time></trkpt><trkpt lat="40.7883742" lon="9.6406975"><ele>25.666666666666664</ele><time>2026-04-13T15:30:23.434Z</time></trkpt><trkpt lat="40.7883997" lon="9.6409038"><ele>26.0</ele><time>2026-04-13T15:30:24.43Z</time></trkpt><trkpt lat="40.788427" lon="9.6411099"><ele>25.333333333333332</ele><time>2026-04-13T15:30:25.425Z</time></trkpt><trkpt lat="40.788454" lon="9.6413148"><ele>24.666666666666664</ele><time>2026-04-13T15:30:26.432Z</time></trkpt><trkpt lat="40.7884817" lon="9.641521"><ele>24.0</ele><time>2026-04-13T15:30:27.441Z</time></trkpt><trkpt lat="40.7885082" lon="9.6417302"><ele>22.0</ele><time>2026-04-13T15:30:28.434Z</time></trkpt><trkpt lat="40.7885322" lon="9.6419373"><ele>20.0</ele><time>2026-04-13T15:30:29.439Z</time></trkpt><trkpt lat="40.788552" lon="9.642144"><ele>18.0</ele><time>2026-04-13T15:30:30.446Z</time></trkpt><trkpt lat="40.7885775" lon="9.6423553"><ele>17.666666666666668</ele><time>2026-04-13T15:30:31.441Z</time></trkpt><trkpt lat="40.7886018" lon="9.6425681"><ele>17.333333333333336</ele><time>2026-04-13T15:30:32.432Z</time></trkpt><trkpt lat="40.7886273" lon="9.6427801"><ele>17.0</ele><time>2026-04-13T15:30:33.457Z</time></trkpt><trkpt lat="40.7886541" lon="9.6429936"><ele>16.666666666666668</ele><time>2026-04-13T15:30:34.45Z</time></trkpt><trkpt lat="40.7886804" lon="9.6432058"><ele>16.333333333333332</ele><time>2026-04-13T15:30:35.439Z</time></trkpt><trkpt lat="40.7887049" lon="9.6434173"><ele>16.0</ele><time>2026-04-13T15:30:36.449Z</time></trkpt><trkpt lat="40.7887333" lon="9.6436295"><ele>15.333333333333332</ele><time>2026-04-13T15:30:37.47Z</time></trkpt><trkpt lat="40.7887606" lon="9.64384"><ele>14.666666666666668</ele><time>2026-04-13T15:30:38.453Z</time></trkpt><trkpt lat="40.788785" lon="9.6440508"><ele>14.0</ele><time>2026-04-13T15:30:39.441Z</time></trkpt><trkpt lat="40.7888141" lon="9.6442646"><ele>14.333333333333334</ele><time>2026-04-13T15:30:40.451Z</time></trkpt><trkpt lat="40.7888436" lon="9.6444756"><ele>14.666666666666668</ele><time>2026-04-13T15:30:41.442Z</time></trkpt><trkpt lat="40.7888713" lon="9.6446868"><ele>15.0</ele><time>2026-04-13T15:30:42.435Z</time></trkpt><trkpt lat="40.788898" lon="9.6448929"><ele>15.0</ele><time>2026-04-13T15:30:43.439Z</time></trkpt><trkpt lat="40.7889241" lon="9.6450944"><ele>15.0</ele><time>2026-04-13T15:30:44.437Z</time></trkpt><trkpt lat="40.7889494" lon="9.645296"><ele>15.0</ele><time>2026-04-13T15:30:45.435Z</time></trkpt><trkpt lat="40.788975" lon="9.6454913"><ele>14.75</ele><time>2026-04-13T15:30:46.428Z</time></trkpt><trkpt lat="40.7889997" lon="9.6456874"><ele>14.5</ele><time>2026-04-13T15:30:47.438Z</time></trkpt><trkpt lat="40.7890219" lon="9.6458808"><ele>14.25</ele><time>2026-04-13T15:30:48.43Z</time></trkpt><trkpt lat="40.7890438" lon="9.6460729"><ele>14.0</ele><time>2026-04-13T15:30:49.428Z</time></trkpt><trkpt lat="40.7890676" lon="9.6462643"><ele>14.75</ele><time>2026-04-13T15:30:50.428Z</time></trkpt><trkpt lat="40.7890914" lon="9.6464539"><ele>15.5</ele><time>2026-04-13T15:30:51.434Z</time></trkpt><trkpt lat="40.7891142" lon="9.646645"><ele>16.25</ele><time>2026-04-13T15:30:52.427Z</time></trkpt><trkpt lat="40.7891338" lon="9.6468357"><ele>17.0</ele><time>2026-04-13T15:30:53.422Z</time></trkpt><trkpt lat="40.7891535" lon="9.6470287"><ele>17.333333333333336</ele><time>2026-04-13T15:30:54.424Z</time></trkpt><trkpt lat="40.7891696" lon="9.6472294"><ele>17.666666666666668</ele><time>2026-04-13T15:30:55.442Z</time></trkpt><trkpt lat="40.7891838" lon="9.6474374"><ele>18.0</ele><time>2026-04-13T15:30:56.422Z</time></trkpt><trkpt lat="40.7891934" lon="9.6476515"><ele>16.333333333333332</ele><time>2026-04-13T15:30:57.434Z</time></trkpt><trkpt lat="40.7892058" lon="9.6478662"><ele>14.666666666666666</ele><time>2026-04-13T15:30:58.423Z</time></trkpt><trkpt lat="40.7892187" lon="9.6480813"><ele>13.0</ele><time>2026-04-13T15:30:59.427Z</time></trkpt><trkpt lat="40.7892306" lon="9.6482963"><ele>13.0</ele><time>2026-04-13T15:31:00.425Z</time></trkpt><trkpt lat="40.7892416" lon="9.6485071"><ele>13.0</ele><time>2026-04-13T15:31:01.439Z</time></trkpt><trkpt lat="40.7892527" lon="9.6487166"><ele>13.0</ele><time>2026-04-13T15:31:02.428Z</time></trkpt><trkpt lat="40.7892641" lon="9.6489221"><ele>12.666666666666666</ele><time>2026-04-13T15:31:03.44Z</time></trkpt><trkpt lat="40.7892771" lon="9.6491292"><ele>12.333333333333332</ele><time>2026-04-13T15:31:04.441Z</time></trkpt><trkpt lat="40.7892904" lon="9.6493331"><ele>12.0</ele><time>2026-04-13T15:31:05.438Z</time></trkpt><trkpt lat="40.789304" lon="9.6495339"><ele>11.5</ele><time>2026-04-13T15:31:06.434Z</time></trkpt><trkpt lat="40.7893209" lon="9.6497261"><ele>11.0</ele><time>2026-04-13T15:31:07.504Z</time></trkpt><trkpt lat="40.7893416" lon="9.6499189"><ele>10.5</ele><time>2026-04-13T15:31:08.429Z</time></trkpt><trkpt lat="40.7893652" lon="9.6501114"><ele>10.0</ele><time>2026-04-13T15:31:09.426Z</time></trkpt><trkpt lat="40.7893876" lon="9.650306"><ele>9.5</ele><time>2026-04-13T15:31:10.423Z</time></trkpt><trkpt lat="40.789411" lon="9.6505004"><ele>9.0</ele><time>2026-04-13T15:31:11.425Z</time></trkpt><trkpt lat="40.7894358" lon="9.6506932"><ele>8.5</ele><time>2026-04-13T15:31:12.43Z</time></trkpt><trkpt lat="40.7894599" lon="9.6508855"><ele>8.0</ele><time>2026-04-13T15:31:13.425Z</time></trkpt><trkpt lat="40.7894861" lon="9.6510799"><ele>7.75</ele><time>2026-04-13T15:31:14.425Z</time></trkpt><trkpt lat="40.7895052" lon="9.6512703"><ele>7.5</ele><time>2026-04-13T15:31:15.424Z</time></trkpt><trkpt lat="40.7895257" lon="9.6514657"><ele>7.25</ele><time>2026-04-13T15:31:16.429Z</time></trkpt><trkpt lat="40.7895448" lon="9.6516603"><ele>7.0</ele><time>2026-04-13T15:31:17.425Z</time></trkpt><trkpt lat="40.7895662" lon="9.6518548"><ele>6.75</ele><time>2026-04-13T15:31:18.431Z</time></trkpt><trkpt lat="40.7895892" lon="9.6520447"><ele>6.5</ele><time>2026-04-13T15:31:19.422Z</time></trkpt><trkpt lat="40.7896087" lon="9.6522364"><ele>6.25</ele><time>2026-04-13T15:31:20.424Z</time></trkpt><trkpt lat="40.7896298" lon="9.6524254"><ele>6.0</ele><time>2026-04-13T15:31:21.437Z</time></trkpt><trkpt lat="40.7896492" lon="9.6526116"><ele>5.5</ele><time>2026-04-13T15:31:22.437Z</time></trkpt><trkpt lat="40.7896717" lon="9.652803"><ele>5.0</ele><time>2026-04-13T15:31:23.438Z</time></trkpt><trkpt lat="40.7896954" lon="9.6529926"><ele>4.5</ele><time>2026-04-13T15:31:24.421Z</time></trkpt><trkpt lat="40.7897246" lon="9.6531815"><ele>4.0</ele><time>2026-04-13T15:31:25.42Z</time></trkpt><trkpt lat="40.7897468" lon="9.6533624"><ele>4.0</ele><time>2026-04-13T15:31:26.426Z</time></trkpt><trkpt lat="40.7897672" lon="9.6535391"><ele>4.0</ele><time>2026-04-13T15:31:27.427Z</time></trkpt><trkpt lat="40.7897877" lon="9.6537208"><ele>4.0</ele><time>2026-04-13T15:31:28.444Z</time></trkpt><trkpt lat="40.789808" lon="9.6538946"><ele>4.0</ele><time>2026-04-13T15:31:29.429Z</time></trkpt><trkpt lat="40.7898259" lon="9.6540702"><ele>4.0</ele><time>2026-04-13T15:31:30.435Z</time></trkpt><trkpt lat="40.7898451" lon="9.6542379"><ele>4.0</ele><time>2026-04-13T15:31:31.454Z</time></trkpt><trkpt lat="40.7898646" lon="9.6544"><ele>4.0</ele><time>2026-04-13T15:31:32.436Z</time></trkpt><trkpt lat="40.7898844" lon="9.6545569"><ele>4.0</ele><time>2026-04-13T15:31:33.427Z</time></trkpt><trkpt lat="40.7899044" lon="9.6547168"><ele>4.0</ele><time>2026-04-13T15:31:34.433Z</time></trkpt><trkpt lat="40.7899265" lon="9.6548798"><ele>4.0</ele><time>2026-04-13T15:31:35.428Z</time></trkpt><trkpt lat="40.789946" lon="9.6550429"><ele>4.0</ele><time>2026-04-13T15:31:36.426Z</time></trkpt><trkpt lat="40.7899665" lon="9.6552014"><ele>4.0</ele><time>2026-04-13T15:31:37.429Z</time></trkpt><trkpt lat="40.7899866" lon="9.6553481"><ele>3.8000000000000003</ele><time>2026-04-13T15:31:38.422Z</time></trkpt><trkpt lat="40.7900042" lon="9.655487"><ele>3.6000000000000005</ele><time>2026-04-13T15:31:39.421Z</time></trkpt><trkpt lat="40.790018" lon="9.6556177"><ele>3.4</ele><time>2026-04-13T15:31:40.43Z</time></trkpt><trkpt lat="40.7900349" lon="9.6557454"><ele>3.2</ele><time>2026-04-13T15:31:41.429Z</time></trkpt><trkpt lat="40.7900491" lon="9.655876"><ele>3.0</ele><time>2026-04-13T15:31:42.421Z</time></trkpt><trkpt lat="40.7900567" lon="9.6560073"><ele>3.3333333333333335</ele><time>2026-04-13T15:31:43.425Z</time></trkpt><trkpt lat="40.7900489" lon="9.6561264"><ele>3.666666666666667</ele><time>2026-04-13T15:31:44.425Z</time></trkpt><trkpt lat="40.7900241" lon="9.6562339"><ele>4.0</ele><time>2026-04-13T15:31:45.426Z</time></trkpt><trkpt lat="40.7899847" lon="9.6563187"><ele>4.333333333333334</ele><time>2026-04-13T15:31:46.419Z</time></trkpt><trkpt lat="40.789933" lon="9.6563869"><ele>4.666666666666667</ele><time>2026-04-13T15:31:47.419Z</time></trkpt><trkpt lat="40.7898737" lon="9.656452"><ele>5.0</ele><time>2026-04-13T15:31:48.422Z</time></trkpt><trkpt lat="40.7898072" lon="9.6565188"><ele>5.0</ele><time>2026-04-13T15:31:49.422Z</time></trkpt><trkpt lat="40.7897309" lon="9.6565694"><ele>5.0</ele><time>2026-04-13T15:31:50.422Z</time></trkpt><trkpt lat="40.7896446" lon="9.6566078"><ele>5.0</ele><time>2026-04-13T15:31:51.434Z</time></trkpt><trkpt lat="40.7895464" lon="9.6566439"><ele>5.0</ele><time>2026-04-13T15:31:52.435Z</time></trkpt><trkpt lat="40.7894407" lon="9.6566806"><ele>5.0</ele><time>2026-04-13T15:31:53.428Z</time></trkpt><trkpt lat="40.7893328" lon="9.6567172"><ele>4.0</ele><time>2026-04-13T15:31:54.419Z</time></trkpt><trkpt lat="40.7892248" lon="9.656755"><ele>3.0</ele><time>2026-04-13T15:31:55.425Z</time></trkpt><trkpt lat="40.7891116" lon="9.6567961"><ele>2.0</ele><time>2026-04-13T15:31:56.429Z</time></trkpt><trkpt lat="40.7889913" lon="9.6568403"><ele>1.0</ele><time>2026-04-13T15:31:57.428Z</time></trkpt><trkpt lat="40.7888643" lon="9.6568783"><ele>1.0</ele><time>2026-04-13T15:31:58.42Z</time></trkpt><trkpt lat="40.7887353" lon="9.6569192"><ele>1.0</ele><time>2026-04-13T15:31:59.425Z</time></trkpt><trkpt lat="40.7886059" lon="9.6569649"><ele>1.0</ele><time>2026-04-13T15:32:00.43Z</time></trkpt><trkpt lat="40.7884712" lon="9.6570084"><ele>1.0</ele><time>2026-04-13T15:32:01.42Z</time></trkpt><trkpt lat="40.7883312" lon="9.6570538"><ele>1.0</ele><time>2026-04-13T15:32:02.416Z</time></trkpt><trkpt lat="40.7881868" lon="9.6571004"><ele>1.0</ele><time>2026-04-13T15:32:03.422Z</time></trkpt><trkpt lat="40.7880428" lon="9.6571379"><ele>1.0</ele><time>2026-04-13T15:32:04.414Z</time></trkpt><trkpt lat="40.7878995" lon="9.6571833"><ele>1.0</ele><time>2026-04-13T15:32:05.419Z</time></trkpt><trkpt lat="40.7877593" lon="9.6572247"><ele>0.75</ele><time>2026-04-13T15:32:06.414Z</time></trkpt><trkpt lat="40.7876197" lon="9.6572616"><ele>0.5</ele><time>2026-04-13T15:32:07.418Z</time></trkpt><trkpt lat="40.7874824" lon="9.6572904"><ele>0.25</ele><time>2026-04-13T15:32:08.416Z</time></trkpt><trkpt lat="40.7873454" lon="9.6573071"><ele>0.0</ele><time>2026-04-13T15:32:09.421Z</time></trkpt><trkpt lat="40.7872083" lon="9.6573242"><ele>0.0</ele><time>2026-04-13T15:32:10.417Z</time></trkpt><trkpt lat="40.7870724" lon="9.6573413"><ele>0.0</ele><time>2026-04-13T15:32:11.422Z</time></trkpt><trkpt lat="40.7869371" lon="9.6573584"><ele>0.0</ele><time>2026-04-13T15:32:12.419Z</time></trkpt><trkpt lat="40.7868025" lon="9.657378"><ele>0.0</ele><time>2026-04-13T15:32:13.416Z</time></trkpt><trkpt lat="40.7866666" lon="9.6573953"><ele>0.0</ele><time>2026-04-13T15:32:14.419Z</time></trkpt><trkpt lat="40.7865307" lon="9.6574123"><ele>0.0</ele><time>2026-04-13T15:32:15.424Z</time></trkpt><trkpt lat="40.7863939" lon="9.6574257"><ele>0.0</ele><time>2026-04-13T15:32:16.422Z</time></trkpt><trkpt lat="40.7862548" lon="9.6574382"><ele>0.0</ele><time>2026-04-13T15:32:17.419Z</time></trkpt><trkpt lat="40.7861144" lon="9.6574508"><ele>0.5</ele><time>2026-04-13T15:32:18.435Z</time></trkpt><trkpt lat="40.7859759" lon="9.6574649"><ele>1.0</ele><time>2026-04-13T15:32:19.432Z</time></trkpt><trkpt lat="40.7858391" lon="9.65748"><ele>1.5</ele><time>2026-04-13T15:32:20.42Z</time></trkpt><trkpt lat="40.7857033" lon="9.6574943"><ele>2.0</ele><time>2026-04-13T15:32:21.422Z</time></trkpt><trkpt lat="40.7855738" lon="9.6574997"><ele>2.0</ele><time>2026-04-13T15:32:22.416Z</time></trkpt><trkpt lat="40.7854498" lon="9.6575053"><ele>2.0</ele><time>2026-04-13T15:32:23.441Z</time></trkpt><trkpt lat="40.7853315" lon="9.6575121"><ele>2.0</ele><time>2026-04-13T15:32:24.445Z</time></trkpt><trkpt lat="40.7852187" lon="9.6575171"><ele>2.0</ele><time>2026-04-13T15:32:25.418Z</time></trkpt><trkpt lat="40.7851149" lon="9.6575179"><ele>1.9999999999999998</ele><time>2026-04-13T15:32:26.417Z</time></trkpt><trkpt lat="40.7850216" lon="9.6575117"><ele>2.0</ele><time>2026-04-13T15:32:27.429Z</time></trkpt><trkpt lat="40.7849455" lon="9.657507"><ele>2.0</ele><time>2026-04-13T15:32:28.43Z</time></trkpt><trkpt lat="40.7848483" lon="9.6574945"><ele>2.0</ele><time>2026-04-13T15:32:30.417Z</time></trkpt><trkpt lat="40.7847795" lon="9.6574811"><ele>1.9999999999999998</ele><time>2026-04-13T15:32:32.419Z</time></trkpt><trkpt lat="40.7846983" lon="9.6574594"><ele>2.0</ele><time>2026-04-13T15:32:34.424Z</time></trkpt><trkpt lat="40.7845704" lon="9.6574743"><ele>2.0</ele><time>2026-04-13T15:32:36.419Z</time></trkpt><trkpt lat="40.7844958" lon="9.6574961"><ele>2.0</ele><time>2026-04-13T15:32:37.421Z</time></trkpt><trkpt lat="40.7844201" lon="9.6575301"><ele>2.0</ele><time>2026-04-13T15:32:38.419Z</time></trkpt><trkpt lat="40.7843327" lon="9.6575689"><ele>2.0</ele><time>2026-04-13T15:32:39.423Z</time></trkpt><trkpt lat="40.7842179" lon="9.6575939"><ele>2.0</ele><time>2026-04-13T15:32:40.426Z</time></trkpt><trkpt lat="40.7840752" lon="9.657607"><ele>2.0</ele><time>2026-04-13T15:32:41.426Z</time></trkpt><trkpt lat="40.7839113" lon="9.6576207"><ele>2.0</ele><time>2026-04-13T15:32:42.42Z</time></trkpt><trkpt lat="40.7837306" lon="9.6576472"><ele>2.0</ele><time>2026-04-13T15:32:43.425Z</time></trkpt><trkpt lat="40.7835377" lon="9.6576573"><ele>2.6666666666666665</ele><time>2026-04-13T15:32:44.421Z</time></trkpt><trkpt lat="40.7833547" lon="9.6576609"><ele>3.333333333333333</ele><time>2026-04-13T15:32:45.425Z</time></trkpt><trkpt lat="40.7832003" lon="9.6576719"><ele>4.0</ele><time>2026-04-13T15:32:46.419Z</time></trkpt><trkpt lat="40.783067" lon="9.6576856"><ele>4.0</ele><time>2026-04-13T15:32:47.429Z</time></trkpt><trkpt lat="40.7829315" lon="9.6577012"><ele>4.0</ele><time>2026-04-13T15:32:48.433Z</time></trkpt><trkpt lat="40.7827963" lon="9.6577121"><ele>4.0</ele><time>2026-04-13T15:32:49.427Z</time></trkpt><trkpt lat="40.7826581" lon="9.6577238"><ele>4.0</ele><time>2026-04-13T15:32:50.423Z</time></trkpt><trkpt lat="40.7825029" lon="9.6577404"><ele>4.0</ele><time>2026-04-13T15:32:51.419Z</time></trkpt><trkpt lat="40.7823292" lon="9.6577501"><ele>4.0</ele><time>2026-04-13T15:32:52.419Z</time></trkpt><trkpt lat="40.782138" lon="9.6577624"><ele>4.0</ele><time>2026-04-13T15:32:53.423Z</time></trkpt><trkpt lat="40.7819302" lon="9.6577751"><ele>4.333333333333333</ele><time>2026-04-13T15:32:54.424Z</time></trkpt><trkpt lat="40.7817134" lon="9.6577806"><ele>4.666666666666667</ele><time>2026-04-13T15:32:55.417Z</time></trkpt><trkpt lat="40.7814939" lon="9.6577821"><ele>5.0</ele><time>2026-04-13T15:32:56.416Z</time></trkpt><trkpt lat="40.781287" lon="9.6577818"><ele>5.0</ele><time>2026-04-13T15:32:57.417Z</time></trkpt><trkpt lat="40.7810989" lon="9.6577744"><ele>5.0</ele><time>2026-04-13T15:32:58.416Z</time></trkpt><trkpt lat="40.7809199" lon="9.6577551"><ele>5.0</ele><time>2026-04-13T15:32:59.425Z</time></trkpt><trkpt lat="40.7807364" lon="9.6577352"><ele>5.333333333333334</ele><time>2026-04-13T15:33:00.422Z</time></trkpt><trkpt lat="40.7805564" lon="9.6577101"><ele>5.666666666666667</ele><time>2026-04-13T15:33:01.414Z</time></trkpt><trkpt lat="40.7803781" lon="9.6576791"><ele>6.0</ele><time>2026-04-13T15:33:02.427Z</time></trkpt><trkpt lat="40.7801995" lon="9.6576462"><ele>6.333333333333334</ele><time>2026-04-13T15:33:03.433Z</time></trkpt><trkpt lat="40.7800209" lon="9.6576123"><ele>6.666666666666667</ele><time>2026-04-13T15:33:04.433Z</time></trkpt><trkpt lat="40.7798387" lon="9.6575754"><ele>7.0</ele><time>2026-04-13T15:33:05.44Z</time></trkpt><trkpt lat="40.7796546" lon="9.6575386"><ele>7.0</ele><time>2026-04-13T15:33:06.439Z</time></trkpt><trkpt lat="40.7794696" lon="9.6575018"><ele>7.0</ele><time>2026-04-13T15:33:07.419Z</time></trkpt><trkpt lat="40.779285" lon="9.6574651"><ele>7.0</ele><time>2026-04-13T15:33:08.411Z</time></trkpt><trkpt lat="40.7791021" lon="9.6574296"><ele>7.0</ele><time>2026-04-13T15:33:09.417Z</time></trkpt><trkpt lat="40.7789208" lon="9.6573952"><ele>7.0</ele><time>2026-04-13T15:33:10.417Z</time></trkpt><trkpt lat="40.7787382" lon="9.6573599"><ele>7.0</ele><time>2026-04-13T15:33:11.414Z</time></trkpt><trkpt lat="40.778557" lon="9.6573224"><ele>7.333333333333334</ele><time>2026-04-13T15:33:12.417Z</time></trkpt><trkpt lat="40.7783761" lon="9.6572838"><ele>7.666666666666666</ele><time>2026-04-13T15:33:13.429Z</time></trkpt><trkpt lat="40.7781981" lon="9.6572467"><ele>8.0</ele><time>2026-04-13T15:33:14.424Z</time></trkpt><trkpt lat="40.7780306" lon="9.6572157"><ele>8.0</ele><time>2026-04-13T15:33:15.41Z</time></trkpt><trkpt lat="40.7778797" lon="9.6571879"><ele>8.0</ele><time>2026-04-13T15:33:16.412Z</time></trkpt><trkpt lat="40.777734" lon="9.657155"><ele>8.0</ele><time>2026-04-13T15:33:17.409Z</time></trkpt><trkpt lat="40.777587" lon="9.6571258"><ele>8.0</ele><time>2026-04-13T15:33:18.417Z</time></trkpt><trkpt lat="40.7774455" lon="9.6570982"><ele>7.75</ele><time>2026-04-13T15:33:19.413Z</time></trkpt><trkpt lat="40.7773145" lon="9.6570682"><ele>7.5</ele><time>2026-04-13T15:33:20.408Z</time></trkpt><trkpt lat="40.7771922" lon="9.6570393"><ele>7.25</ele><time>2026-04-13T15:33:21.417Z</time></trkpt><trkpt lat="40.7770797" lon="9.657018"><ele>7.0</ele><time>2026-04-13T15:33:22.418Z</time></trkpt><trkpt lat="40.7769701" lon="9.6569957"><ele>7.0</ele><time>2026-04-13T15:33:23.406Z</time></trkpt><trkpt lat="40.7768636" lon="9.6569737"><ele>6.999999999999999</ele><time>2026-04-13T15:33:24.41Z</time></trkpt><trkpt lat="40.7767506" lon="9.6569555"><ele>6.999999999999999</ele><time>2026-04-13T15:33:25.416Z</time></trkpt><trkpt lat="40.77664" lon="9.6569331"><ele>7.0</ele><time>2026-04-13T15:33:26.417Z</time></trkpt><trkpt lat="40.7765298" lon="9.6569049"><ele>7.0</ele><time>2026-04-13T15:33:27.417Z</time></trkpt><trkpt lat="40.7764216" lon="9.6568722"><ele>7.6</ele><time>2026-04-13T15:33:28.411Z</time></trkpt><trkpt lat="40.7763196" lon="9.6568411"><ele>8.2</ele><time>2026-04-13T15:33:29.416Z</time></trkpt><trkpt lat="40.7762237" lon="9.6568106"><ele>8.8</ele><time>2026-04-13T15:33:30.419Z</time></trkpt><trkpt lat="40.7761263" lon="9.6567803"><ele>9.4</ele><time>2026-04-13T15:33:31.417Z</time></trkpt><trkpt lat="40.7760291" lon="9.6567458"><ele>10.0</ele><time>2026-04-13T15:33:32.425Z</time></trkpt><trkpt lat="40.7759268" lon="9.6567119"><ele>10.2</ele><time>2026-04-13T15:33:33.428Z</time></trkpt><trkpt lat="40.7758215" lon="9.6566766"><ele>10.4</ele><time>2026-04-13T15:33:34.414Z</time></trkpt><trkpt lat="40.775713" lon="9.6566416"><ele>10.600000000000001</ele><time>2026-04-13T15:33:35.407Z</time></trkpt><trkpt lat="40.7756122" lon="9.6566062"><ele>10.8</ele><time>2026-04-13T15:33:36.414Z</time></trkpt><trkpt lat="40.7755139" lon="9.656575"><ele>11.0</ele><time>2026-04-13T15:33:37.419Z</time></trkpt><trkpt lat="40.7754119" lon="9.6565421"><ele>11.0</ele><time>2026-04-13T15:33:38.408Z</time></trkpt><trkpt lat="40.7753019" lon="9.6565057"><ele>11.0</ele><time>2026-04-13T15:33:39.406Z</time></trkpt><trkpt lat="40.775182" lon="9.656469"><ele>11.0</ele><time>2026-04-13T15:33:40.429Z</time></trkpt><trkpt lat="40.7750558" lon="9.6564308"><ele>11.0</ele><time>2026-04-13T15:33:41.409Z</time></trkpt><trkpt lat="40.7749268" lon="9.656386"><ele>10.75</ele><time>2026-04-13T15:33:42.407Z</time></trkpt><trkpt lat="40.7747919" lon="9.656339"><ele>10.5</ele><time>2026-04-13T15:33:43.407Z</time></trkpt><trkpt lat="40.7746523" lon="9.6562937"><ele>10.25</ele><time>2026-04-13T15:33:44.413Z</time></trkpt><trkpt lat="40.7745132" lon="9.6562512"><ele>10.0</ele><time>2026-04-13T15:33:45.412Z</time></trkpt><trkpt lat="40.7743703" lon="9.6562068"><ele>10.25</ele><time>2026-04-13T15:33:46.416Z</time></trkpt><trkpt lat="40.7742361" lon="9.6561591"><ele>10.5</ele><time>2026-04-13T15:33:47.409Z</time></trkpt><trkpt lat="40.7741154" lon="9.6561153"><ele>10.75</ele><time>2026-04-13T15:33:48.412Z</time></trkpt><trkpt lat="40.7739964" lon="9.6560746"><ele>11.0</ele><time>2026-04-13T15:33:49.404Z</time></trkpt><trkpt lat="40.7738736" lon="9.6560322"><ele>11.5</ele><time>2026-04-13T15:33:50.417Z</time></trkpt><trkpt lat="40.7737519" lon="9.6559835"><ele>12.0</ele><time>2026-04-13T15:33:51.422Z</time></trkpt><trkpt lat="40.7736311" lon="9.6559328"><ele>12.5</ele><time>2026-04-13T15:33:52.412Z</time></trkpt><trkpt lat="40.7735143" lon="9.6558789"><ele>13.0</ele><time>2026-04-13T15:33:53.409Z</time></trkpt><trkpt lat="40.7733969" lon="9.6558203"><ele>13.0</ele><time>2026-04-13T15:33:54.419Z</time></trkpt><trkpt lat="40.7732796" lon="9.6557585"><ele>13.0</ele><time>2026-04-13T15:33:55.422Z</time></trkpt><trkpt lat="40.7731617" lon="9.655695"><ele>13.0</ele><time>2026-04-13T15:33:56.409Z</time></trkpt><trkpt lat="40.7730485" lon="9.6556324"><ele>13.0</ele><time>2026-04-13T15:33:57.41Z</time></trkpt><trkpt lat="40.7729343" lon="9.6555713"><ele>13.0</ele><time>2026-04-13T15:33:58.414Z</time></trkpt><trkpt lat="40.7728134" lon="9.6555091"><ele>13.0</ele><time>2026-04-13T15:33:59.416Z</time></trkpt><trkpt lat="40.7726899" lon="9.6554459"><ele>13.0</ele><time>2026-04-13T15:34:00.411Z</time></trkpt><trkpt lat="40.7725652" lon="9.655379"><ele>13.0</ele><time>2026-04-13T15:34:01.418Z</time></trkpt><trkpt lat="40.7724376" lon="9.6553096"><ele>13.5</ele><time>2026-04-13T15:34:02.412Z</time></trkpt><trkpt lat="40.7723062" lon="9.655239"><ele>14.0</ele><time>2026-04-13T15:34:03.412Z</time></trkpt><trkpt lat="40.7721705" lon="9.6551692"><ele>14.5</ele><time>2026-04-13T15:34:04.414Z</time></trkpt><trkpt lat="40.7720317" lon="9.6550975"><ele>15.0</ele><time>2026-04-13T15:34:05.408Z</time></trkpt><trkpt lat="40.7718947" lon="9.6550304"><ele>15.666666666666668</ele><time>2026-04-13T15:34:06.416Z</time></trkpt><trkpt lat="40.7717519" lon="9.6549648"><ele>16.333333333333336</ele><time>2026-04-13T15:34:07.41Z</time></trkpt><trkpt lat="40.7716098" lon="9.6548963"><ele>17.0</ele><time>2026-04-13T15:34:08.416Z</time></trkpt><trkpt lat="40.7714706" lon="9.6548268"><ele>17.0</ele><time>2026-04-13T15:34:09.416Z</time></trkpt><trkpt lat="40.7713287" lon="9.6547557"><ele>17.0</ele><time>2026-04-13T15:34:10.404Z</time></trkpt><trkpt lat="40.7711848" lon="9.6546812"><ele>17.0</ele><time>2026-04-13T15:34:11.415Z</time></trkpt><trkpt lat="40.7710382" lon="9.6546026"><ele>16.666666666666668</ele><time>2026-04-13T15:34:12.406Z</time></trkpt><trkpt lat="40.7708975" lon="9.6545285"><ele>16.333333333333332</ele><time>2026-04-13T15:34:13.402Z</time></trkpt><trkpt lat="40.7707556" lon="9.6544504"><ele>16.0</ele><time>2026-04-13T15:34:14.408Z</time></trkpt><trkpt lat="40.7706186" lon="9.6543741"><ele>17.0</ele><time>2026-04-13T15:34:15.408Z</time></trkpt><trkpt lat="40.7704848" lon="9.6543052"><ele>18.0</ele><time>2026-04-13T15:34:16.411Z</time></trkpt><trkpt lat="40.770357" lon="9.6542553"><ele>19.0</ele><time>2026-04-13T15:34:17.403Z</time></trkpt><trkpt lat="40.770224" lon="9.6542271"><ele>20.0</ele><time>2026-04-13T15:34:18.407Z</time></trkpt><trkpt lat="40.7700848" lon="9.6542206"><ele>20.5</ele><time>2026-04-13T15:34:19.403Z</time></trkpt><trkpt lat="40.7699433" lon="9.654231"><ele>21.0</ele><time>2026-04-13T15:34:20.406Z</time></trkpt><trkpt lat="40.769798" lon="9.6542489"><ele>21.5</ele><time>2026-04-13T15:34:21.416Z</time></trkpt><trkpt lat="40.7696535" lon="9.6542654"><ele>22.0</ele><time>2026-04-13T15:34:22.406Z</time></trkpt><trkpt lat="40.7695078" lon="9.6542789"><ele>22.0</ele><time>2026-04-13T15:34:23.407Z</time></trkpt><trkpt lat="40.7693644" lon="9.6542926"><ele>22.0</ele><time>2026-04-13T15:34:24.407Z</time></trkpt><trkpt lat="40.7692201" lon="9.6543088"><ele>22.0</ele><time>2026-04-13T15:34:25.403Z</time></trkpt><trkpt lat="40.7690734" lon="9.6543256"><ele>22.0</ele><time>2026-04-13T15:34:26.407Z</time></trkpt><trkpt lat="40.7689278" lon="9.6543417"><ele>23.333333333333332</ele><time>2026-04-13T15:34:27.406Z</time></trkpt><trkpt lat="40.7687797" lon="9.6543592"><ele>24.666666666666664</ele><time>2026-04-13T15:34:28.402Z</time></trkpt><trkpt lat="40.7686251" lon="9.6543814"><ele>26.0</ele><time>2026-04-13T15:34:29.404Z</time></trkpt><trkpt lat="40.7684702" lon="9.6543959"><ele>27.0</ele><time>2026-04-13T15:34:30.416Z</time></trkpt><trkpt lat="40.768313" lon="9.6544123"><ele>28.0</ele><time>2026-04-13T15:34:31.408Z</time></trkpt><trkpt lat="40.7681574" lon="9.6544319"><ele>29.0</ele><time>2026-04-13T15:34:32.399Z</time></trkpt><trkpt lat="40.7680057" lon="9.6544459"><ele>28.5</ele><time>2026-04-13T15:34:33.404Z</time></trkpt><trkpt lat="40.7678589" lon="9.6544622"><ele>28.0</ele><time>2026-04-13T15:34:34.409Z</time></trkpt><trkpt lat="40.7677205" lon="9.6544782"><ele>27.5</ele><time>2026-04-13T15:34:35.397Z</time></trkpt><trkpt lat="40.767585" lon="9.6544899"><ele>27.0</ele><time>2026-04-13T15:34:36.401Z</time></trkpt><trkpt lat="40.7674513" lon="9.6544984"><ele>28.0</ele><time>2026-04-13T15:34:37.399Z</time></trkpt><trkpt lat="40.767317" lon="9.6545014"><ele>29.0</ele><time>2026-04-13T15:34:38.4Z</time></trkpt><trkpt lat="40.7671822" lon="9.6544997"><ele>30.0</ele><time>2026-04-13T15:34:39.404Z</time></trkpt><trkpt lat="40.7670465" lon="9.6544953"><ele>31.0</ele><time>2026-04-13T15:34:40.422Z</time></trkpt><trkpt lat="40.7669112" lon="9.654486"><ele>31.0</ele><time>2026-04-13T15:34:41.399Z</time></trkpt><trkpt lat="40.7667727" lon="9.6544722"><ele>31.0</ele><time>2026-04-13T15:34:42.396Z</time></trkpt><trkpt lat="40.7666264" lon="9.6544631"><ele>31.0</ele><time>2026-04-13T15:34:43.399Z</time></trkpt><trkpt lat="40.766486" lon="9.6544521"><ele>31.0</ele><time>2026-04-13T15:34:44.402Z</time></trkpt><trkpt lat="40.7663554" lon="9.6544372"><ele>31.25</ele><time>2026-04-13T15:34:45.405Z</time></trkpt><trkpt lat="40.7662336" lon="9.6544176"><ele>31.5</ele><time>2026-04-13T15:34:46.401Z</time></trkpt><trkpt lat="40.7661146" lon="9.6544031"><ele>31.75</ele><time>2026-04-13T15:34:47.404Z</time></trkpt><trkpt lat="40.766003" lon="9.654389"><ele>32.0</ele><time>2026-04-13T15:34:48.404Z</time></trkpt><trkpt lat="40.7658954" lon="9.6543731"><ele>32.0</ele><time>2026-04-13T15:34:49.4Z</time></trkpt><trkpt lat="40.7657942" lon="9.6543622"><ele>32.0</ele><time>2026-04-13T15:34:50.398Z</time></trkpt><trkpt lat="40.7656974" lon="9.6543548"><ele>32.0</ele><time>2026-04-13T15:34:51.404Z</time></trkpt><trkpt lat="40.7656053" lon="9.6543446"><ele>32.0</ele><time>2026-04-13T15:34:52.406Z</time></trkpt><trkpt lat="40.7655191" lon="9.6543344"><ele>32.0</ele><time>2026-04-13T15:34:53.397Z</time></trkpt><trkpt lat="40.7654359" lon="9.6543247"><ele>31.999999999999996</ele><time>2026-04-13T15:34:54.397Z</time></trkpt><trkpt lat="40.7653524" lon="9.6543167"><ele>32.0</ele><time>2026-04-13T15:34:55.397Z</time></trkpt><trkpt lat="40.7652715" lon="9.6543107"><ele>32.0</ele><time>2026-04-13T15:34:56.4Z</time></trkpt><trkpt lat="40.7651954" lon="9.6543031"><ele>32.0</ele><time>2026-04-13T15:34:57.394Z</time></trkpt><trkpt lat="40.7651238" lon="9.6542948"><ele>31.999999999999996</ele><time>2026-04-13T15:34:58.399Z</time></trkpt><trkpt lat="40.7650106" lon="9.6542818"><ele>32.0</ele><time>2026-04-13T15:35:00.403Z</time></trkpt><trkpt lat="40.7649285" lon="9.6542769"><ele>31.999999999999996</ele><time>2026-04-13T15:35:02.4Z</time></trkpt><trkpt lat="40.7648508" lon="9.6542729"><ele>32.0</ele><time>2026-04-13T15:35:05.398Z</time></trkpt><trkpt lat="40.7647494" lon="9.6542741"><ele>32.0</ele><time>2026-04-13T15:36:56.417Z</time></trkpt><trkpt lat="40.7646849" lon="9.6542717"><ele>32.0</ele><time>2026-04-13T15:36:57.395Z</time></trkpt><trkpt lat="40.764601" lon="9.6542679"><ele>31.999999999999996</ele><time>2026-04-13T15:36:58.389Z</time></trkpt><trkpt lat="40.7645063" lon="9.6542674"><ele>32.0</ele><time>2026-04-13T15:36:59.407Z</time></trkpt><trkpt lat="40.7643961" lon="9.6542596"><ele>31.0</ele><time>2026-04-13T15:37:00.408Z</time></trkpt><trkpt lat="40.7642725" lon="9.654246"><ele>30.0</ele><time>2026-04-13T15:37:01.394Z</time></trkpt><trkpt lat="40.7641396" lon="9.6542294"><ele>29.0</ele><time>2026-04-13T15:37:02.396Z</time></trkpt><trkpt lat="40.7639991" lon="9.654213"><ele>28.0</ele><time>2026-04-13T15:37:03.394Z</time></trkpt><trkpt lat="40.7638526" lon="9.6541965"><ele>28.0</ele><time>2026-04-13T15:37:04.403Z</time></trkpt><trkpt lat="40.7637031" lon="9.6541796"><ele>28.0</ele><time>2026-04-13T15:37:05.4Z</time></trkpt><trkpt lat="40.7635636" lon="9.6541647"><ele>28.0</ele><time>2026-04-13T15:37:06.393Z</time></trkpt><trkpt lat="40.7634313" lon="9.6541529"><ele>28.0</ele><time>2026-04-13T15:37:07.395Z</time></trkpt><trkpt lat="40.7633004" lon="9.6541425"><ele>27.25</ele><time>2026-04-13T15:37:08.408Z</time></trkpt><trkpt lat="40.7631686" lon="9.6541324"><ele>26.5</ele><time>2026-04-13T15:37:09.4Z</time></trkpt><trkpt lat="40.7630331" lon="9.6541178"><ele>25.75</ele><time>2026-04-13T15:37:10.388Z</time></trkpt><trkpt lat="40.7628946" lon="9.6541036"><ele>25.0</ele><time>2026-04-13T15:37:11.397Z</time></trkpt><trkpt lat="40.7627539" lon="9.6540843"><ele>26.0</ele><time>2026-04-13T15:37:12.396Z</time></trkpt><trkpt lat="40.762611" lon="9.6540555"><ele>27.0</ele><time>2026-04-13T15:37:13.396Z</time></trkpt><trkpt lat="40.7624687" lon="9.6540254"><ele>28.0</ele><time>2026-04-13T15:37:14.39Z</time></trkpt><trkpt lat="40.7623232" lon="9.6540071"><ele>29.0</ele><time>2026-04-13T15:37:15.393Z</time></trkpt><trkpt lat="40.7621735" lon="9.6539934"><ele>29.0</ele><time>2026-04-13T15:37:16.389Z</time></trkpt><trkpt lat="40.7620233" lon="9.6539714"><ele>29.0</ele><time>2026-04-13T15:37:17.398Z</time></trkpt><trkpt lat="40.7618706" lon="9.6539493"><ele>29.0</ele><time>2026-04-13T15:37:18.383Z</time></trkpt><trkpt lat="40.7617184" lon="9.6539269"><ele>29.333333333333332</ele><time>2026-04-13T15:37:19.387Z</time></trkpt><trkpt lat="40.7615645" lon="9.6538947"><ele>29.666666666666664</ele><time>2026-04-13T15:37:20.389Z</time></trkpt><trkpt lat="40.761413" lon="9.6538502"><ele>30.0</ele><time>2026-04-13T15:37:21.391Z</time></trkpt><trkpt lat="40.7612748" lon="9.6537954"><ele>30.0</ele><time>2026-04-13T15:37:22.395Z</time></trkpt><trkpt lat="40.7611509" lon="9.6537376"><ele>30.0</ele><time>2026-04-13T15:37:23.401Z</time></trkpt><trkpt lat="40.761041" lon="9.6536773"><ele>30.0</ele><time>2026-04-13T15:37:24.395Z</time></trkpt><trkpt lat="40.7609508" lon="9.6536061"><ele>30.0</ele><time>2026-04-13T15:37:25.388Z</time></trkpt><trkpt lat="40.760879" lon="9.6535283"><ele>30.0</ele><time>2026-04-13T15:37:26.402Z</time></trkpt><trkpt lat="40.7608222" lon="9.6534496"><ele>30.5</ele><time>2026-04-13T15:37:27.39Z</time></trkpt><trkpt lat="40.7607711" lon="9.6533796"><ele>31.0</ele><time>2026-04-13T15:37:28.387Z</time></trkpt><trkpt lat="40.7607079" lon="9.6533293"><ele>31.5</ele><time>2026-04-13T15:37:29.386Z</time></trkpt><trkpt lat="40.7606445" lon="9.6532971"><ele>32.0</ele><time>2026-04-13T15:37:30.408Z</time></trkpt><trkpt lat="40.7605763" lon="9.6532826"><ele>32.5</ele><time>2026-04-13T15:37:31.409Z</time></trkpt><trkpt lat="40.7604961" lon="9.6532778"><ele>33.0</ele><time>2026-04-13T15:37:32.385Z</time></trkpt><trkpt lat="40.7604088" lon="9.6532765"><ele>33.0</ele><time>2026-04-13T15:37:33.38Z</time></trkpt><trkpt lat="40.7603123" lon="9.6532644"><ele>33.0</ele><time>2026-04-13T15:37:34.388Z</time></trkpt><trkpt lat="40.7602092" lon="9.6532263"><ele>33.0</ele><time>2026-04-13T15:37:35.395Z</time></trkpt><trkpt lat="40.7600949" lon="9.6531576"><ele>33.0</ele><time>2026-04-13T15:37:36.388Z</time></trkpt><trkpt lat="40.7599714" lon="9.6530849"><ele>33.0</ele><time>2026-04-13T15:37:37.397Z</time></trkpt><trkpt lat="40.7598402" lon="9.6530091"><ele>33.0</ele><time>2026-04-13T15:37:38.384Z</time></trkpt><trkpt lat="40.759708" lon="9.6529306"><ele>33.0</ele><time>2026-04-13T15:37:39.396Z</time></trkpt><trkpt lat="40.7595725" lon="9.6528529"><ele>33.0</ele><time>2026-04-13T15:37:40.383Z</time></trkpt><trkpt lat="40.759433" lon="9.6527756"><ele>33.666666666666664</ele><time>2026-04-13T15:37:41.386Z</time></trkpt><trkpt lat="40.759298" lon="9.6527005"><ele>34.33333333333333</ele><time>2026-04-13T15:37:42.387Z</time></trkpt><trkpt lat="40.7591603" lon="9.6526208"><ele>35.0</ele><time>2026-04-13T15:37:43.389Z</time></trkpt><trkpt lat="40.7590192" lon="9.6525408"><ele>35.0</ele><time>2026-04-13T15:37:44.386Z</time></trkpt><trkpt lat="40.7588766" lon="9.6524637"><ele>35.0</ele><time>2026-04-13T15:37:45.399Z</time></trkpt><trkpt lat="40.7587357" lon="9.6523834"><ele>35.0</ele><time>2026-04-13T15:37:46.382Z</time></trkpt><trkpt lat="40.7585934" lon="9.6522992"><ele>35.0</ele><time>2026-04-13T15:37:47.385Z</time></trkpt><trkpt lat="40.7584509" lon="9.6522192"><ele>35.0</ele><time>2026-04-13T15:37:48.388Z</time></trkpt><trkpt lat="40.7583082" lon="9.6521389"><ele>35.0</ele><time>2026-04-13T15:37:49.384Z</time></trkpt><trkpt lat="40.7581668" lon="9.6520586"><ele>35.0</ele><time>2026-04-13T15:37:50.392Z</time></trkpt><trkpt lat="40.7580246" lon="9.6519762"><ele>35.0</ele><time>2026-04-13T15:37:51.397Z</time></trkpt><trkpt lat="40.7578801" lon="9.6518915"><ele>35.0</ele><time>2026-04-13T15:37:52.385Z</time></trkpt><trkpt lat="40.7577358" lon="9.6518071"><ele>36.666666666666664</ele><time>2026-04-13T15:37:53.381Z</time></trkpt><trkpt lat="40.7575899" lon="9.6517213"><ele>38.333333333333336</ele><time>2026-04-13T15:37:54.39Z</time></trkpt><trkpt lat="40.7574443" lon="9.6516355"><ele>40.0</ele><time>2026-04-13T15:37:55.393Z</time></trkpt><trkpt lat="40.757297" lon="9.6515508"><ele>40.0</ele><time>2026-04-13T15:37:56.383Z</time></trkpt><trkpt lat="40.7571533" lon="9.651467"><ele>40.0</ele><time>2026-04-13T15:37:57.381Z</time></trkpt><trkpt lat="40.757012" lon="9.6513681"><ele>40.0</ele><time>2026-04-13T15:37:58.388Z</time></trkpt><trkpt lat="40.7568779" lon="9.6512576"><ele>40.66666666666667</ele><time>2026-04-13T15:37:59.387Z</time></trkpt><trkpt lat="40.7567508" lon="9.6511293"><ele>41.333333333333336</ele><time>2026-04-13T15:38:00.381Z</time></trkpt><trkpt lat="40.7566231" lon="9.6510023"><ele>42.0</ele><time>2026-04-13T15:38:01.383Z</time></trkpt><trkpt lat="40.7564943" lon="9.6508763"><ele>42.0</ele><time>2026-04-13T15:38:02.38Z</time></trkpt><trkpt lat="40.7563676" lon="9.6507522"><ele>42.0</ele><time>2026-04-13T15:38:03.38Z</time></trkpt><trkpt lat="40.7562397" lon="9.6506284"><ele>42.0</ele><time>2026-04-13T15:38:04.38Z</time></trkpt><trkpt lat="40.7561105" lon="9.6505072"><ele>41.0</ele><time>2026-04-13T15:38:05.388Z</time></trkpt><trkpt lat="40.7559802" lon="9.6503985"><ele>40.0</ele><time>2026-04-13T15:38:06.38Z</time></trkpt><trkpt lat="40.755842" lon="9.6503047"><ele>39.0</ele><time>2026-04-13T15:38:07.402Z</time></trkpt><trkpt lat="40.7556969" lon="9.6502304"><ele>43.33333333333333</ele><time>2026-04-13T15:38:08.377Z</time></trkpt><trkpt lat="40.7555516" lon="9.6501683"><ele>47.666666666666664</ele><time>2026-04-13T15:38:09.375Z</time></trkpt><trkpt lat="40.7554009" lon="9.6501125"><ele>52.0</ele><time>2026-04-13T15:38:10.391Z</time></trkpt><trkpt lat="40.7552445" lon="9.6500618"><ele>51.0</ele><time>2026-04-13T15:38:11.402Z</time></trkpt><trkpt lat="40.7550877" lon="9.650014"><ele>50.0</ele><time>2026-04-13T15:38:12.377Z</time></trkpt><trkpt lat="40.7549361" lon="9.6499612"><ele>49.0</ele><time>2026-04-13T15:38:13.386Z</time></trkpt><trkpt lat="40.7547905" lon="9.6498966"><ele>49.0</ele><time>2026-04-13T15:38:14.383Z</time></trkpt><trkpt lat="40.7546477" lon="9.6498119"><ele>49.0</ele><time>2026-04-13T15:38:15.381Z</time></trkpt><trkpt lat="40.7545083" lon="9.6497061"><ele>49.0</ele><time>2026-04-13T15:38:16.377Z</time></trkpt><trkpt lat="40.754372" lon="9.6495866"><ele>48.0</ele><time>2026-04-13T15:38:17.394Z</time></trkpt><trkpt lat="40.7542349" lon="9.6494683"><ele>47.0</ele><time>2026-04-13T15:38:18.378Z</time></trkpt><trkpt lat="40.7541008" lon="9.6493465"><ele>46.0</ele><time>2026-04-13T15:38:19.388Z</time></trkpt><trkpt lat="40.7539625" lon="9.6492213"><ele>46.333333333333336</ele><time>2026-04-13T15:38:20.393Z</time></trkpt><trkpt lat="40.7538229" lon="9.6490961"><ele>46.666666666666664</ele><time>2026-04-13T15:38:21.384Z</time></trkpt><trkpt lat="40.7536809" lon="9.6489721"><ele>47.0</ele><time>2026-04-13T15:38:22.379Z</time></trkpt><trkpt lat="40.7535341" lon="9.6488448"><ele>47.0</ele><time>2026-04-13T15:38:23.373Z</time></trkpt><trkpt lat="40.7533887" lon="9.6487136"><ele>47.0</ele><time>2026-04-13T15:38:24.482Z</time></trkpt><trkpt lat="40.753245" lon="9.6485817"><ele>47.0</ele><time>2026-04-13T15:38:25.393Z</time></trkpt><trkpt lat="40.7530964" lon="9.6484524"><ele>48.0</ele><time>2026-04-13T15:38:26.373Z</time></trkpt><trkpt lat="40.7529449" lon="9.6483262"><ele>49.0</ele><time>2026-04-13T15:38:27.511Z</time></trkpt><trkpt lat="40.7527898" lon="9.6482001"><ele>50.0</ele><time>2026-04-13T15:38:28.488Z</time></trkpt><trkpt lat="40.7526321" lon="9.6480772"><ele>50.66666666666667</ele><time>2026-04-13T15:38:29.501Z</time></trkpt><trkpt lat="40.7524698" lon="9.6479596"><ele>51.33333333333333</ele><time>2026-04-13T15:38:30.498Z</time></trkpt><trkpt lat="40.7523083" lon="9.6478436"><ele>52.0</ele><time>2026-04-13T15:38:31.485Z</time></trkpt><trkpt lat="40.7519887" lon="9.6476374"><ele>53.33333333333333</ele><time>2026-04-13T15:38:33.487Z</time></trkpt><trkpt lat="40.7518381" lon="9.6475478"><ele>54.66666666666667</ele><time>2026-04-13T15:38:34.489Z</time></trkpt><trkpt lat="40.7516977" lon="9.6474598"><ele>56.0</ele><time>2026-04-13T15:38:35.491Z</time></trkpt><trkpt lat="40.7515685" lon="9.6473792"><ele>56.0</ele><time>2026-04-13T15:38:36.475Z</time></trkpt><trkpt lat="40.7514507" lon="9.6473056"><ele>56.0</ele><time>2026-04-13T15:38:37.485Z</time></trkpt><trkpt lat="40.7513447" lon="9.6472328"><ele>56.0</ele><time>2026-04-13T15:38:38.492Z</time></trkpt><trkpt lat="40.75125" lon="9.6471732"><ele>56.0</ele><time>2026-04-13T15:38:39.469Z</time></trkpt><trkpt lat="40.7511614" lon="9.6471179"><ele>56.00000000000001</ele><time>2026-04-13T15:38:40.479Z</time></trkpt><trkpt lat="40.7510909" lon="9.6470642"><ele>56.0</ele><time>2026-04-13T15:38:41.484Z</time></trkpt><trkpt lat="40.751033" lon="9.6470193"><ele>56.0</ele><time>2026-04-13T15:38:42.491Z</time></trkpt><trkpt lat="40.7509616" lon="9.6469596"><ele>56.0</ele><time>2026-04-13T15:38:44.469Z</time></trkpt><trkpt lat="40.7509065" lon="9.6469029"><ele>56.00000000000001</ele><time>2026-04-13T15:41:22.439Z</time></trkpt><trkpt lat="40.7508493" lon="9.6469396"><ele>56.0</ele><time>2026-04-13T15:41:27.433Z</time></trkpt><trkpt lat="40.7507549" lon="9.6469723"><ele>55.4</ele><time>2026-04-13T15:42:28.415Z</time></trkpt><trkpt lat="40.7506845" lon="9.6469899"><ele>54.8</ele><time>2026-04-13T15:42:29.402Z</time></trkpt><trkpt lat="40.7506066" lon="9.6470304"><ele>54.199999999999996</ele><time>2026-04-13T15:42:30.397Z</time></trkpt><trkpt lat="40.7505076" lon="9.6470881"><ele>53.599999999999994</ele><time>2026-04-13T15:42:31.405Z</time></trkpt><trkpt lat="40.7504005" lon="9.6471525"><ele>53.0</ele><time>2026-04-13T15:42:32.398Z</time></trkpt><trkpt lat="40.7502791" lon="9.6472199"><ele>53.75</ele><time>2026-04-13T15:42:33.387Z</time></trkpt><trkpt lat="40.7501472" lon="9.6472732"><ele>54.5</ele><time>2026-04-13T15:42:34.407Z</time></trkpt><trkpt lat="40.7500093" lon="9.6472945"><ele>55.25</ele><time>2026-04-13T15:42:35.403Z</time></trkpt><trkpt lat="40.7498665" lon="9.6472815"><ele>56.0</ele><time>2026-04-13T15:42:36.411Z</time></trkpt><trkpt lat="40.7497297" lon="9.6472367"><ele>56.0</ele><time>2026-04-13T15:42:37.41Z</time></trkpt><trkpt lat="40.7495969" lon="9.6471815"><ele>56.0</ele><time>2026-04-13T15:42:38.394Z</time></trkpt><trkpt lat="40.7494631" lon="9.6471369"><ele>56.0</ele><time>2026-04-13T15:42:39.404Z</time></trkpt><trkpt lat="40.7493308" lon="9.6471043"><ele>56.0</ele><time>2026-04-13T15:42:40.408Z</time></trkpt><trkpt lat="40.7491974" lon="9.6470828"><ele>56.75</ele><time>2026-04-13T15:42:41.398Z</time></trkpt><trkpt lat="40.7490609" lon="9.6470702"><ele>57.5</ele><time>2026-04-13T15:42:42.386Z</time></trkpt><trkpt lat="40.7489238" lon="9.6470649"><ele>58.25</ele><time>2026-04-13T15:42:43.395Z</time></trkpt><trkpt lat="40.748788" lon="9.6470627"><ele>59.0</ele><time>2026-04-13T15:42:44.404Z</time></trkpt><trkpt lat="40.7486493" lon="9.6470586"><ele>59.75</ele><time>2026-04-13T15:42:45.41Z</time></trkpt><trkpt lat="40.7485109" lon="9.6470565"><ele>60.5</ele><time>2026-04-13T15:42:46.393Z</time></trkpt><trkpt lat="40.7483733" lon="9.6470533"><ele>61.25</ele><time>2026-04-13T15:42:47.399Z</time></trkpt><trkpt lat="40.7482331" lon="9.6470518"><ele>62.0</ele><time>2026-04-13T15:42:48.402Z</time></trkpt><trkpt lat="40.74809" lon="9.6470449"><ele>62.0</ele><time>2026-04-13T15:42:49.402Z</time></trkpt><trkpt lat="40.7479416" lon="9.6470403"><ele>62.0</ele><time>2026-04-13T15:42:50.423Z</time></trkpt><trkpt lat="40.7477907" lon="9.6470336"><ele>62.0</ele><time>2026-04-13T15:42:51.404Z</time></trkpt><trkpt lat="40.7476367" lon="9.6470287"><ele>62.66666666666667</ele><time>2026-04-13T15:42:52.388Z</time></trkpt><trkpt lat="40.7474813" lon="9.6470284"><ele>63.33333333333333</ele><time>2026-04-13T15:42:53.392Z</time></trkpt><trkpt lat="40.747326" lon="9.6470219"><ele>64.0</ele><time>2026-04-13T15:42:54.399Z</time></trkpt><trkpt lat="40.7471693" lon="9.6470215"><ele>64.0</ele><time>2026-04-13T15:42:55.387Z</time></trkpt><trkpt lat="40.7470084" lon="9.6470198"><ele>64.0</ele><time>2026-04-13T15:42:56.391Z</time></trkpt><trkpt lat="40.7468482" lon="9.647016"><ele>64.0</ele><time>2026-04-13T15:42:57.388Z</time></trkpt><trkpt lat="40.7466874" lon="9.6470132"><ele>64.66666666666666</ele><time>2026-04-13T15:42:58.396Z</time></trkpt><trkpt lat="40.7465274" lon="9.6470129"><ele>65.33333333333333</ele><time>2026-04-13T15:42:59.389Z</time></trkpt><trkpt lat="40.7463653" lon="9.6470124"><ele>66.0</ele><time>2026-04-13T15:43:00.393Z</time></trkpt><trkpt lat="40.7461998" lon="9.6470114"><ele>66.33333333333333</ele><time>2026-04-13T15:43:01.39Z</time></trkpt><trkpt lat="40.7460358" lon="9.6470089"><ele>66.66666666666666</ele><time>2026-04-13T15:43:02.383Z</time></trkpt><trkpt lat="40.7458767" lon="9.6470028"><ele>67.0</ele><time>2026-04-13T15:43:03.393Z</time></trkpt><trkpt lat="40.7457155" lon="9.6469938"><ele>67.0</ele><time>2026-04-13T15:43:04.399Z</time></trkpt><trkpt lat="40.7455555" lon="9.6469716"><ele>67.0</ele><time>2026-04-13T15:43:05.38Z</time></trkpt><trkpt lat="40.7453931" lon="9.6469344"><ele>67.0</ele><time>2026-04-13T15:43:06.373Z</time></trkpt><trkpt lat="40.7452317" lon="9.6468872"><ele>69.0</ele><time>2026-04-13T15:43:07.395Z</time></trkpt><trkpt lat="40.7450688" lon="9.6468417"><ele>71.0</ele><time>2026-04-13T15:43:08.389Z</time></trkpt><trkpt lat="40.7449065" lon="9.6467973"><ele>73.0</ele><time>2026-04-13T15:43:09.386Z</time></trkpt><trkpt lat="40.7447448" lon="9.6467562"><ele>73.0</ele><time>2026-04-13T15:43:10.384Z</time></trkpt><trkpt lat="40.7445837" lon="9.6467144"><ele>73.0</ele><time>2026-04-13T15:43:11.471Z</time></trkpt><trkpt lat="40.7444244" lon="9.6466754"><ele>73.0</ele><time>2026-04-13T15:43:12.371Z</time></trkpt><trkpt lat="40.7442643" lon="9.646638"><ele>73.66666666666666</ele><time>2026-04-13T15:43:13.37Z</time></trkpt><trkpt lat="40.7441017" lon="9.6466079"><ele>74.33333333333333</ele><time>2026-04-13T15:43:14.388Z</time></trkpt><trkpt lat="40.7439362" lon="9.6465875"><ele>75.0</ele><time>2026-04-13T15:43:15.491Z</time></trkpt><trkpt lat="40.7437711" lon="9.646563"><ele>75.0</ele><time>2026-04-13T15:43:16.475Z</time></trkpt><trkpt lat="40.7436098" lon="9.6465342"><ele>75.0</ele><time>2026-04-13T15:43:17.471Z</time></trkpt><trkpt lat="40.743452" lon="9.6465123"><ele>75.0</ele><time>2026-04-13T15:43:18.473Z</time></trkpt><trkpt lat="40.7432937" lon="9.6464863"><ele>75.0</ele><time>2026-04-13T15:43:19.486Z</time></trkpt><trkpt lat="40.7431338" lon="9.6464671"><ele>75.0</ele><time>2026-04-13T15:43:20.466Z</time></trkpt><trkpt lat="40.7429781" lon="9.6464474"><ele>75.0</ele><time>2026-04-13T15:43:21.47Z</time></trkpt><trkpt lat="40.7428185" lon="9.6464237"><ele>76.66666666666667</ele><time>2026-04-13T15:43:22.465Z</time></trkpt><trkpt lat="40.7426587" lon="9.6464007"><ele>78.33333333333334</ele><time>2026-04-13T15:43:23.465Z</time></trkpt><trkpt lat="40.7424964" lon="9.6463774"><ele>80.0</ele><time>2026-04-13T15:43:24.465Z</time></trkpt><trkpt lat="40.7423342" lon="9.6463543"><ele>80.0</ele><time>2026-04-13T15:43:25.466Z</time></trkpt><trkpt lat="40.7421713" lon="9.6463359"><ele>80.0</ele><time>2026-04-13T15:43:26.471Z</time></trkpt><trkpt lat="40.7420086" lon="9.6463123"><ele>80.0</ele><time>2026-04-13T15:43:27.475Z</time></trkpt><trkpt lat="40.7418478" lon="9.6462919"><ele>81.0</ele><time>2026-04-13T15:43:28.476Z</time></trkpt><trkpt lat="40.7416876" lon="9.6462672"><ele>82.0</ele><time>2026-04-13T15:43:29.468Z</time></trkpt><trkpt lat="40.7415288" lon="9.6462413"><ele>83.0</ele><time>2026-04-13T15:43:30.477Z</time></trkpt><trkpt lat="40.7413682" lon="9.6462185"><ele>83.0</ele><time>2026-04-13T15:43:31.468Z</time></trkpt><trkpt lat="40.7412087" lon="9.6461952"><ele>83.0</ele><time>2026-04-13T15:43:32.465Z</time></trkpt><trkpt lat="40.7410502" lon="9.6461657"><ele>83.0</ele><time>2026-04-13T15:43:33.477Z</time></trkpt><trkpt lat="40.7408913" lon="9.6461408"><ele>87.66666666666667</ele><time>2026-04-13T15:43:34.469Z</time></trkpt><trkpt lat="40.7407293" lon="9.646116"><ele>92.33333333333334</ele><time>2026-04-13T15:43:35.465Z</time></trkpt><trkpt lat="40.7405691" lon="9.6460937"><ele>97.0</ele><time>2026-04-13T15:43:36.465Z</time></trkpt><trkpt lat="40.7404133" lon="9.6460709"><ele>97.0</ele><time>2026-04-13T15:43:37.466Z</time></trkpt><trkpt lat="40.7402622" lon="9.646057"><ele>97.0</ele><time>2026-04-13T15:43:38.473Z</time></trkpt><trkpt lat="40.7401135" lon="9.6460634"><ele>97.0</ele><time>2026-04-13T15:43:39.462Z</time></trkpt><trkpt lat="40.7399702" lon="9.6460996"><ele>97.0</ele><time>2026-04-13T15:43:40.46Z</time></trkpt><trkpt lat="40.7398249" lon="9.646153"><ele>94.66666666666667</ele><time>2026-04-13T15:43:41.484Z</time></trkpt><trkpt lat="40.7396789" lon="9.6462111"><ele>92.33333333333334</ele><time>2026-04-13T15:43:42.471Z</time></trkpt><trkpt lat="40.7395318" lon="9.6462714"><ele>90.0</ele><time>2026-04-13T15:43:43.464Z</time></trkpt><trkpt lat="40.7393821" lon="9.6463309"><ele>90.0</ele><time>2026-04-13T15:43:44.468Z</time></trkpt><trkpt lat="40.7392271" lon="9.6463917"><ele>90.0</ele><time>2026-04-13T15:43:45.461Z</time></trkpt><trkpt lat="40.7390727" lon="9.6464523"><ele>90.0</ele><time>2026-04-13T15:43:46.466Z</time></trkpt><trkpt lat="40.7389175" lon="9.6465143"><ele>90.0</ele><time>2026-04-13T15:43:47.461Z</time></trkpt><trkpt lat="40.7387621" lon="9.6465831"><ele>90.0</ele><time>2026-04-13T15:43:48.46Z</time></trkpt><trkpt lat="40.7386096" lon="9.6466482"><ele>90.0</ele><time>2026-04-13T15:43:49.463Z</time></trkpt><trkpt lat="40.738455" lon="9.646715"><ele>91.0</ele><time>2026-04-13T15:43:50.473Z</time></trkpt><trkpt lat="40.7383036" lon="9.6467815"><ele>92.0</ele><time>2026-04-13T15:43:51.476Z</time></trkpt><trkpt lat="40.7381541" lon="9.6468469"><ele>93.0</ele><time>2026-04-13T15:43:52.465Z</time></trkpt><trkpt lat="40.7380114" lon="9.646909"><ele>94.0</ele><time>2026-04-13T15:43:53.472Z</time></trkpt><trkpt lat="40.7378682" lon="9.6469697"><ele>95.0</ele><time>2026-04-13T15:43:54.459Z</time></trkpt><trkpt lat="40.7377268" lon="9.647032"><ele>96.0</ele><time>2026-04-13T15:43:55.463Z</time></trkpt><trkpt lat="40.7375867" lon="9.6470939"><ele>97.0</ele><time>2026-04-13T15:43:56.458Z</time></trkpt><trkpt lat="40.7374481" lon="9.6471646"><ele>98.5</ele><time>2026-04-13T15:43:57.46Z</time></trkpt><trkpt lat="40.7373119" lon="9.6472427"><ele>100.0</ele><time>2026-04-13T15:43:58.453Z</time></trkpt><trkpt lat="40.7371747" lon="9.6473209"><ele>101.5</ele><time>2026-04-13T15:43:59.451Z</time></trkpt><trkpt lat="40.7370402" lon="9.6474013"><ele>103.0</ele><time>2026-04-13T15:44:00.453Z</time></trkpt><trkpt lat="40.736914" lon="9.6474783"><ele>103.25</ele><time>2026-04-13T15:44:01.462Z</time></trkpt><trkpt lat="40.7367953" lon="9.6475456"><ele>103.5</ele><time>2026-04-13T15:44:02.455Z</time></trkpt><trkpt lat="40.7366768" lon="9.6476096"><ele>103.75</ele><time>2026-04-13T15:44:03.462Z</time></trkpt><trkpt lat="40.7365557" lon="9.6476626"><ele>104.0</ele><time>2026-04-13T15:44:04.456Z</time></trkpt><trkpt lat="40.7364236" lon="9.6476907"><ele>104.0</ele><time>2026-04-13T15:44:05.449Z</time></trkpt><trkpt lat="40.7362829" lon="9.6476967"><ele>104.0</ele><time>2026-04-13T15:44:06.458Z</time></trkpt><trkpt lat="40.736132" lon="9.6476811"><ele>104.0</ele><time>2026-04-13T15:44:07.451Z</time></trkpt><trkpt lat="40.7359622" lon="9.6476618"><ele>101.33333333333333</ele><time>2026-04-13T15:44:08.451Z</time></trkpt><trkpt lat="40.7357905" lon="9.6476481"><ele>98.66666666666666</ele><time>2026-04-13T15:44:09.46Z</time></trkpt><trkpt lat="40.735617" lon="9.6476407"><ele>96.0</ele><time>2026-04-13T15:44:10.454Z</time></trkpt><trkpt lat="40.7354516" lon="9.6476479"><ele>96.0</ele><time>2026-04-13T15:44:11.453Z</time></trkpt><trkpt lat="40.735286" lon="9.6476574"><ele>96.0</ele><time>2026-04-13T15:44:12.455Z</time></trkpt><trkpt lat="40.7351189" lon="9.6476802"><ele>96.0</ele><time>2026-04-13T15:44:13.463Z</time></trkpt><trkpt lat="40.7349491" lon="9.6477146"><ele>96.0</ele><time>2026-04-13T15:44:14.466Z</time></trkpt><trkpt lat="40.7347813" lon="9.6477515"><ele>96.0</ele><time>2026-04-13T15:44:15.454Z</time></trkpt><trkpt lat="40.7346239" lon="9.6477871"><ele>96.0</ele><time>2026-04-13T15:44:16.455Z</time></trkpt><trkpt lat="40.7344806" lon="9.6478185"><ele>93.75</ele><time>2026-04-13T15:44:17.453Z</time></trkpt><trkpt lat="40.7343486" lon="9.6478606"><ele>91.5</ele><time>2026-04-13T15:44:18.454Z</time></trkpt><trkpt lat="40.7342236" lon="9.6479204"><ele>89.25</ele><time>2026-04-13T15:44:19.458Z</time></trkpt><trkpt lat="40.7341072" lon="9.6479969"><ele>87.0</ele><time>2026-04-13T15:44:20.453Z</time></trkpt><trkpt lat="40.733984" lon="9.6480964"><ele>87.0</ele><time>2026-04-13T15:44:21.45Z</time></trkpt><trkpt lat="40.733856" lon="9.6482072"><ele>87.0</ele><time>2026-04-13T15:44:22.469Z</time></trkpt><trkpt lat="40.7337301" lon="9.6483175"><ele>87.0</ele><time>2026-04-13T15:44:23.471Z</time></trkpt><trkpt lat="40.7336112" lon="9.6484177"><ele>87.0</ele><time>2026-04-13T15:44:24.453Z</time></trkpt><trkpt lat="40.7334982" lon="9.6485107"><ele>86.5</ele><time>2026-04-13T15:44:25.461Z</time></trkpt><trkpt lat="40.7333826" lon="9.648608"><ele>86.0</ele><time>2026-04-13T15:44:26.454Z</time></trkpt><trkpt lat="40.7332664" lon="9.6487086"><ele>85.5</ele><time>2026-04-13T15:44:27.46Z</time></trkpt><trkpt lat="40.7331477" lon="9.6488101"><ele>85.0</ele><time>2026-04-13T15:44:28.454Z</time></trkpt><trkpt lat="40.7330282" lon="9.6489165"><ele>85.0</ele><time>2026-04-13T15:44:29.461Z</time></trkpt><trkpt lat="40.7329093" lon="9.6490205"><ele>85.0</ele><time>2026-04-13T15:44:30.45Z</time></trkpt><trkpt lat="40.7327956" lon="9.6491226"><ele>85.0</ele><time>2026-04-13T15:44:31.462Z</time></trkpt><trkpt lat="40.7326835" lon="9.6492184"><ele>85.0</ele><time>2026-04-13T15:44:32.448Z</time></trkpt><trkpt lat="40.7325646" lon="9.6493055"><ele>83.75</ele><time>2026-04-13T15:44:33.457Z</time></trkpt><trkpt lat="40.7324434" lon="9.6493756"><ele>82.5</ele><time>2026-04-13T15:44:34.454Z</time></trkpt><trkpt lat="40.7323163" lon="9.6494148"><ele>81.25</ele><time>2026-04-13T15:44:35.452Z</time></trkpt><trkpt lat="40.7321831" lon="9.6494287"><ele>80.0</ele><time>2026-04-13T15:44:36.444Z</time></trkpt><trkpt lat="40.7320483" lon="9.6494233"><ele>80.0</ele><time>2026-04-13T15:44:37.464Z</time></trkpt><trkpt lat="40.7319052" lon="9.6493948"><ele>80.0</ele><time>2026-04-13T15:44:38.453Z</time></trkpt><trkpt lat="40.7317661" lon="9.6493614"><ele>80.0</ele><time>2026-04-13T15:44:39.459Z</time></trkpt><trkpt lat="40.7316347" lon="9.6493398"><ele>80.0</ele><time>2026-04-13T15:44:40.451Z</time></trkpt><trkpt lat="40.7315094" lon="9.6493417"><ele>81.0</ele><time>2026-04-13T15:44:41.469Z</time></trkpt><trkpt lat="40.7313864" lon="9.6493712"><ele>82.0</ele><time>2026-04-13T15:44:42.462Z</time></trkpt><trkpt lat="40.7312612" lon="9.6494311"><ele>83.0</ele><time>2026-04-13T15:44:43.464Z</time></trkpt><trkpt lat="40.7311376" lon="9.649516"><ele>84.0</ele><time>2026-04-13T15:44:44.463Z</time></trkpt><trkpt lat="40.7310191" lon="9.6496326"><ele>81.0</ele><time>2026-04-13T15:44:45.462Z</time></trkpt><trkpt lat="40.7309" lon="9.6497571"><ele>78.0</ele><time>2026-04-13T15:44:46.457Z</time></trkpt><trkpt lat="40.7307868" lon="9.6498648"><ele>75.0</ele><time>2026-04-13T15:44:47.449Z</time></trkpt><trkpt lat="40.7306886" lon="9.6499646"><ele>72.0</ele><time>2026-04-13T15:44:48.448Z</time></trkpt><trkpt lat="40.7306053" lon="9.650081"><ele>72.0</ele><time>2026-04-13T15:44:49.459Z</time></trkpt><trkpt lat="40.7305478" lon="9.6502134"><ele>72.0</ele><time>2026-04-13T15:44:50.442Z</time></trkpt><trkpt lat="40.7305153" lon="9.6503461"><ele>72.0</ele><time>2026-04-13T15:44:51.441Z</time></trkpt><trkpt lat="40.7305096" lon="9.6504869"><ele>72.0</ele><time>2026-04-13T15:44:52.442Z</time></trkpt><trkpt lat="40.7305274" lon="9.6506365"><ele>72.0</ele><time>2026-04-13T15:44:53.446Z</time></trkpt><trkpt lat="40.7305509" lon="9.6507841"><ele>72.14285714285715</ele><time>2026-04-13T15:44:54.446Z</time></trkpt><trkpt lat="40.7305692" lon="9.6509112"><ele>72.28571428571429</ele><time>2026-04-13T15:44:55.454Z</time></trkpt><trkpt lat="40.7305828" lon="9.6510189"><ele>72.42857142857143</ele><time>2026-04-13T15:44:56.451Z</time></trkpt><trkpt lat="40.7305845" lon="9.6511122"><ele>72.57142857142858</ele><time>2026-04-13T15:44:57.449Z</time></trkpt><trkpt lat="40.7305631" lon="9.6511925"><ele>72.71428571428572</ele><time>2026-04-13T15:44:58.449Z</time></trkpt><trkpt lat="40.7305194" lon="9.6512548"><ele>72.85714285714286</ele><time>2026-04-13T15:44:59.456Z</time></trkpt><trkpt lat="40.7304552" lon="9.6512749"><ele>73.0</ele><time>2026-04-13T15:45:00.446Z</time></trkpt><trkpt lat="40.7303839" lon="9.6512556"><ele>72.0</ele><time>2026-04-13T15:45:01.45Z</time></trkpt><trkpt lat="40.7303026" lon="9.651207"><ele>71.0</ele><time>2026-04-13T15:45:02.449Z</time></trkpt><trkpt lat="40.7302224" lon="9.6511407"><ele>70.0</ele><time>2026-04-13T15:45:03.458Z</time></trkpt><trkpt lat="40.7301307" lon="9.651065"><ele>69.0</ele><time>2026-04-13T15:45:04.457Z</time></trkpt><trkpt lat="40.7300355" lon="9.650979"><ele>68.0</ele><time>2026-04-13T15:45:05.455Z</time></trkpt><trkpt lat="40.7299351" lon="9.6508948"><ele>68.0</ele><time>2026-04-13T15:45:06.442Z</time></trkpt><trkpt lat="40.7298333" lon="9.6508042"><ele>68.0</ele><time>2026-04-13T15:45:07.445Z</time></trkpt><trkpt lat="40.729737" lon="9.6507154"><ele>68.0</ele><time>2026-04-13T15:45:08.453Z</time></trkpt><trkpt lat="40.7296491" lon="9.6506239"><ele>68.0</ele><time>2026-04-13T15:45:09.458Z</time></trkpt><trkpt lat="40.7295687" lon="9.6505218"><ele>68.0</ele><time>2026-04-13T15:45:10.445Z</time></trkpt><trkpt lat="40.7294999" lon="9.6504012"><ele>68.0</ele><time>2026-04-13T15:45:11.446Z</time></trkpt><trkpt lat="40.7294485" lon="9.6502492"><ele>68.0</ele><time>2026-04-13T15:45:12.442Z</time></trkpt><trkpt lat="40.7294238" lon="9.6500959"><ele>68.0</ele><time>2026-04-13T15:45:13.443Z</time></trkpt><trkpt lat="40.7294148" lon="9.6499331"><ele>67.75</ele><time>2026-04-13T15:45:14.458Z</time></trkpt><trkpt lat="40.7294057" lon="9.6497585"><ele>67.5</ele><time>2026-04-13T15:45:15.463Z</time></trkpt><trkpt lat="40.7293907" lon="9.6495861"><ele>67.25</ele><time>2026-04-13T15:45:16.45Z</time></trkpt><trkpt lat="40.7293666" lon="9.6494146"><ele>67.0</ele><time>2026-04-13T15:45:17.448Z</time></trkpt><trkpt lat="40.7293293" lon="9.6492463"><ele>66.5</ele><time>2026-04-13T15:45:18.439Z</time></trkpt><trkpt lat="40.7292823" lon="9.649082"><ele>66.0</ele><time>2026-04-13T15:45:19.446Z</time></trkpt><trkpt lat="40.7292289" lon="9.6489173"><ele>65.5</ele><time>2026-04-13T15:45:20.445Z</time></trkpt><trkpt lat="40.7291647" lon="9.6487536"><ele>65.0</ele><time>2026-04-13T15:45:21.444Z</time></trkpt><trkpt lat="40.7290953" lon="9.6485878"><ele>66.25</ele><time>2026-04-13T15:45:22.441Z</time></trkpt><trkpt lat="40.7290228" lon="9.6484238"><ele>67.5</ele><time>2026-04-13T15:45:23.445Z</time></trkpt><trkpt lat="40.7289481" lon="9.6482494"><ele>68.75</ele><time>2026-04-13T15:45:24.449Z</time></trkpt><trkpt lat="40.728873" lon="9.6480775"><ele>70.0</ele><time>2026-04-13T15:45:25.447Z</time></trkpt><trkpt lat="40.7287982" lon="9.6479087"><ele>69.66666666666666</ele><time>2026-04-13T15:45:26.439Z</time></trkpt><trkpt lat="40.7287197" lon="9.6477338"><ele>69.33333333333333</ele><time>2026-04-13T15:45:27.441Z</time></trkpt><trkpt lat="40.7286357" lon="9.6475586"><ele>69.0</ele><time>2026-04-13T15:45:28.441Z</time></trkpt><trkpt lat="40.7285524" lon="9.6473846"><ele>69.0</ele><time>2026-04-13T15:45:29.464Z</time></trkpt><trkpt lat="40.7284633" lon="9.6472138"><ele>69.0</ele><time>2026-04-13T15:45:30.438Z</time></trkpt><trkpt lat="40.7283728" lon="9.6470422"><ele>69.0</ele><time>2026-04-13T15:45:31.451Z</time></trkpt><trkpt lat="40.7282764" lon="9.6468707"><ele>69.33333333333333</ele><time>2026-04-13T15:45:32.462Z</time></trkpt><trkpt lat="40.7281788" lon="9.64671"><ele>69.66666666666666</ele><time>2026-04-13T15:45:33.459Z</time></trkpt><trkpt lat="40.7280807" lon="9.6465561"><ele>70.0</ele><time>2026-04-13T15:45:34.455Z</time></trkpt><trkpt lat="40.7279808" lon="9.6464058"><ele>70.0</ele><time>2026-04-13T15:45:35.442Z</time></trkpt><trkpt lat="40.7278836" lon="9.6462548"><ele>70.0</ele><time>2026-04-13T15:45:36.438Z</time></trkpt><trkpt lat="40.7277881" lon="9.6461077"><ele>70.0</ele><time>2026-04-13T15:45:37.447Z</time></trkpt><trkpt lat="40.7276902" lon="9.645958"><ele>70.0</ele><time>2026-04-13T15:45:38.434Z</time></trkpt><trkpt lat="40.7275947" lon="9.6458112"><ele>70.0</ele><time>2026-04-13T15:45:39.437Z</time></trkpt><trkpt lat="40.7275016" lon="9.6456725"><ele>70.0</ele><time>2026-04-13T15:45:40.457Z</time></trkpt><trkpt lat="40.7274049" lon="9.6455359"><ele>70.0</ele><time>2026-04-13T15:45:41.454Z</time></trkpt><trkpt lat="40.727305" lon="9.6453998"><ele>70.0</ele><time>2026-04-13T15:45:42.444Z</time></trkpt><trkpt lat="40.7272045" lon="9.645267"><ele>70.25</ele><time>2026-04-13T15:45:43.445Z</time></trkpt><trkpt lat="40.7271064" lon="9.6451312"><ele>70.5</ele><time>2026-04-13T15:45:44.439Z</time></trkpt><trkpt lat="40.7270063" lon="9.6449863"><ele>70.75</ele><time>2026-04-13T15:45:45.436Z</time></trkpt><trkpt lat="40.7269162" lon="9.6448293"><ele>71.0</ele><time>2026-04-13T15:45:46.446Z</time></trkpt><trkpt lat="40.7268326" lon="9.6446725"><ele>71.0</ele><time>2026-04-13T15:45:47.437Z</time></trkpt><trkpt lat="40.7267569" lon="9.6445202"><ele>71.0</ele><time>2026-04-13T15:45:48.443Z</time></trkpt><trkpt lat="40.7266806" lon="9.6443788"><ele>71.0</ele><time>2026-04-13T15:45:49.453Z</time></trkpt><trkpt lat="40.7266023" lon="9.6442484"><ele>71.0</ele><time>2026-04-13T15:45:50.449Z</time></trkpt><trkpt lat="40.7265208" lon="9.6441233"><ele>72.0</ele><time>2026-04-13T15:45:51.448Z</time></trkpt><trkpt lat="40.7264285" lon="9.6440028"><ele>73.0</ele><time>2026-04-13T15:45:52.433Z</time></trkpt><trkpt lat="40.7263297" lon="9.6438848"><ele>74.0</ele><time>2026-04-13T15:45:53.442Z</time></trkpt><trkpt lat="40.7262288" lon="9.6437722"><ele>75.0</ele><time>2026-04-13T15:45:54.432Z</time></trkpt><trkpt lat="40.7261275" lon="9.6436598"><ele>75.0</ele><time>2026-04-13T15:45:55.446Z</time></trkpt><trkpt lat="40.7260197" lon="9.6435531"><ele>75.0</ele><time>2026-04-13T15:45:56.443Z</time></trkpt><trkpt lat="40.7259096" lon="9.6434447"><ele>75.0</ele><time>2026-04-13T15:45:57.438Z</time></trkpt><trkpt lat="40.7257978" lon="9.6433346"><ele>75.0</ele><time>2026-04-13T15:45:58.455Z</time></trkpt><trkpt lat="40.7256792" lon="9.6432223"><ele>75.0</ele><time>2026-04-13T15:45:59.439Z</time></trkpt><trkpt lat="40.7255557" lon="9.6431187"><ele>75.0</ele><time>2026-04-13T15:46:00.456Z</time></trkpt><trkpt lat="40.7254311" lon="9.6430197"><ele>75.0</ele><time>2026-04-13T15:46:01.445Z</time></trkpt><trkpt lat="40.7253148" lon="9.6429311"><ele>75.0</ele><time>2026-04-13T15:46:02.447Z</time></trkpt><trkpt lat="40.7252083" lon="9.642851"><ele>75.5</ele><time>2026-04-13T15:46:03.439Z</time></trkpt><trkpt lat="40.7251025" lon="9.6427797"><ele>76.0</ele><time>2026-04-13T15:46:04.436Z</time></trkpt><trkpt lat="40.7249972" lon="9.6427054"><ele>76.5</ele><time>2026-04-13T15:46:05.452Z</time></trkpt><trkpt lat="40.7248952" lon="9.6426261"><ele>77.0</ele><time>2026-04-13T15:46:06.432Z</time></trkpt><trkpt lat="40.7247898" lon="9.6425468"><ele>77.0</ele><time>2026-04-13T15:46:07.434Z</time></trkpt><trkpt lat="40.7246934" lon="9.6424543"><ele>77.0</ele><time>2026-04-13T15:46:08.435Z</time></trkpt><trkpt lat="40.7246145" lon="9.6423445"><ele>77.0</ele><time>2026-04-13T15:46:09.437Z</time></trkpt><trkpt lat="40.7245575" lon="9.6422423"><ele>77.0</ele><time>2026-04-13T15:46:10.431Z</time></trkpt><trkpt lat="40.7245183" lon="9.6421615"><ele>77.0</ele><time>2026-04-13T15:46:11.434Z</time></trkpt><trkpt lat="40.7244858" lon="9.6420151"><ele>77.4</ele><time>2026-04-13T15:46:13.426Z</time></trkpt><trkpt lat="40.7244948" lon="9.6418745"><ele>77.80000000000001</ele><time>2026-04-13T15:46:15.425Z</time></trkpt><trkpt lat="40.7245144" lon="9.6417168"><ele>78.2</ele><time>2026-04-13T15:46:17.43Z</time></trkpt><trkpt lat="40.7245287" lon="9.6415658"><ele>78.60000000000001</ele><time>2026-04-13T15:46:19.42Z</time></trkpt><trkpt lat="40.7245109" lon="9.6414657"><ele>79.0</ele><time>2026-04-13T15:46:21.43Z</time></trkpt><trkpt lat="40.7244681" lon="9.6413656"><ele>79.0</ele><time>2026-04-13T15:46:24.431Z</time></trkpt><trkpt lat="40.7244305" lon="9.6412884"><ele>79.0</ele><time>2026-04-13T15:46:27.425Z</time></trkpt><trkpt lat="40.7243712" lon="9.6412506"><ele>76.0</ele><time>2026-04-13T15:54:32.408Z</time></trkpt></trkseg></trk></gpx>